<?xml version="1.0" encoding="UTF-8" standalone="no" ?>
<gpx xmlns="http://www.topografix.com/GPX/1/1" xmlns:xsi="http://www.w3.org/2001/XMLSchema-instance" xsi:schemaLocation="http://www.topografix.com/GPX/1/1 http://www.topografix.com/GPX/1/1/gpx.xsd" version="1.1" creator="VisuGPX - https://www.visugpx.com">
  <metadata>
    <name>Itinéraire prévu Norvège</name>
  </metadata>
  <trk>
    <name><![CDATA[1_Bergen-Bremsnes: 756km]]></name>
    <trkseg>
      <trkpt lat="60.39437" lon="5.32594">
        <ele>6.307334</ele>
        <time>2020-07-15T11:55:01.640Z</time>
      </trkpt>
      <trkpt lat="60.39457" lon="5.32552">
        <ele>6.307334</ele>
        <time>2020-07-15T11:55:07.338Z</time>
      </trkpt>
      <trkpt lat="60.39473" lon="5.32563">
        <ele>6.307334</ele>
        <time>2020-07-15T11:55:10.447Z</time>
      </trkpt>
      <trkpt lat="60.39508" lon="5.32587">
        <ele>6.307334</ele>
        <time>2020-07-15T11:55:17.023Z</time>
      </trkpt>
      <trkpt lat="60.39515" lon="5.32592">
        <ele>6.307334</ele>
        <time>2020-07-15T11:55:18.339Z</time>
      </trkpt>
      <trkpt lat="60.39526" lon="5.32598">
        <ele>6.263373</ele>
        <time>2020-07-15T11:55:20.301Z</time>
      </trkpt>
      <trkpt lat="60.39535" lon="5.32603">
        <ele>6.227227</ele>
        <time>2020-07-15T11:55:21.883Z</time>
      </trkpt>
      <trkpt lat="60.39542" lon="5.32603">
        <ele>6.198473</ele>
        <time>2020-07-15T11:55:23.095Z</time>
      </trkpt>
      <trkpt lat="60.39555" lon="5.32592">
        <ele>6.140513</ele>
        <time>2020-07-15T11:55:25.496Z</time>
      </trkpt>
      <trkpt lat="60.3956" lon="5.32587">
        <ele>6.119189</ele>
        <time>2020-07-15T11:55:26.304Z</time>
      </trkpt>
      <trkpt lat="60.39567" lon="5.32576">
        <ele>6.081889</ele>
        <time>2020-07-15T11:55:27.874Z</time>
      </trkpt>
      <trkpt lat="60.39584" lon="5.32555">
        <ele>6.003625</ele>
        <time>2020-07-15T11:55:31.252Z</time>
      </trkpt>
      <trkpt lat="60.39586" lon="5.32551">
        <ele>5.993629</ele>
        <time>2020-07-15T11:55:31.620Z</time>
      </trkpt>
      <trkpt lat="60.39621" lon="5.3249">
        <ele>5.808749</ele>
        <time>2020-07-15T11:55:39.421Z</time>
      </trkpt>
      <trkpt lat="60.39655" lon="5.32419">
        <ele>5.613436</ele>
        <time>2020-07-15T11:55:47.641Z</time>
      </trkpt>
      <trkpt lat="60.39659" lon="5.32409">
        <ele>5.58813</ele>
        <time>2020-07-15T11:55:48.717Z</time>
      </trkpt>
      <trkpt lat="60.39661" lon="5.32398">
        <ele>5.543879</ele>
        <time>2020-07-15T11:55:49.579Z</time>
      </trkpt>
      <trkpt lat="60.39664" lon="5.32384">
        <ele>5.486851</ele>
        <time>2020-07-15T11:55:50.787Z</time>
      </trkpt>
      <trkpt lat="60.39671" lon="5.32361">
        <ele>5.389322</ele>
        <time>2020-07-15T11:55:52.918Z</time>
      </trkpt>
      <trkpt lat="60.39673" lon="5.32354">
        <ele>5.359214</ele>
        <time>2020-07-15T11:55:53.629Z</time>
      </trkpt>
      <trkpt lat="60.39694" lon="5.32306">
        <ele>5.123053</ele>
        <time>2020-07-15T11:55:58.449Z</time>
      </trkpt>
      <trkpt lat="60.39699" lon="5.32294">
        <ele>5.06492</ele>
        <time>2020-07-15T11:55:59.728Z</time>
      </trkpt>
      <trkpt lat="60.39757" lon="5.32173">
        <ele>4.445854</ele>
        <time>2020-07-15T11:56:12.832Z</time>
      </trkpt>
      <trkpt lat="60.39771" lon="5.32159">
        <ele>4.333968</ele>
        <time>2020-07-15T11:56:15.365Z</time>
      </trkpt>
      <trkpt lat="60.39772" lon="5.32158">
        <ele>4.324994</ele>
        <time>2020-07-15T11:56:15.554Z</time>
      </trkpt>
      <trkpt lat="60.39779" lon="5.32145">
        <ele>4.255096</ele>
        <time>2020-07-15T11:56:17.096Z</time>
      </trkpt>
      <trkpt lat="60.39789" lon="5.32125">
        <ele>4.340548</ele>
        <time>2020-07-15T11:56:19.474Z</time>
      </trkpt>
      <trkpt lat="60.39809" lon="5.32085">
        <ele>4.5267</ele>
        <time>2020-07-15T11:56:24.040Z</time>
      </trkpt>
      <trkpt lat="60.39812" lon="5.32079">
        <ele>4.553457</ele>
        <time>2020-07-15T11:56:24.720Z</time>
      </trkpt>
      <trkpt lat="60.39817" lon="5.32069">
        <ele>4.598897</ele>
        <time>2020-07-15T11:56:25.865Z</time>
      </trkpt>
      <trkpt lat="60.39826" lon="5.3205">
        <ele>4.686084</ele>
        <time>2020-07-15T11:56:28.221Z</time>
      </trkpt>
      <trkpt lat="60.39829" lon="5.32043">
        <ele>4.71561</ele>
        <time>2020-07-15T11:56:28.956Z</time>
      </trkpt>
      <trkpt lat="60.39834" lon="5.32034">
        <ele>4.760129</ele>
        <time>2020-07-15T11:56:30.176Z</time>
      </trkpt>
      <trkpt lat="60.39842" lon="5.32018">
        <ele>4.829558</ele>
        <time>2020-07-15T11:56:32.170Z</time>
      </trkpt>
      <trkpt lat="60.39867" lon="5.31966">
        <ele>5.070125</ele>
        <time>2020-07-15T11:56:39.685Z</time>
      </trkpt>
      <trkpt lat="60.39874" lon="5.31932">
        <ele>5.185914</ele>
        <time>2020-07-15T11:56:43.748Z</time>
      </trkpt>
      <trkpt lat="60.39876" lon="5.31897">
        <ele>5.30301</ele>
        <time>2020-07-15T11:56:47.597Z</time>
      </trkpt>
      <trkpt lat="60.39877" lon="5.31855">
        <ele>5.455754</ele>
        <time>2020-07-15T11:56:52.876Z</time>
      </trkpt>
      <trkpt lat="60.39881" lon="5.31822">
        <ele>5.786571</ele>
        <time>2020-07-15T11:56:56.884Z</time>
      </trkpt>
      <trkpt lat="60.39888" lon="5.31831">
        <ele>5.939821</ele>
        <time>2020-07-15T11:56:59.312Z</time>
      </trkpt>
      <trkpt lat="60.39901" lon="5.31851">
        <ele>6.272469</ele>
        <time>2020-07-15T11:57:04.227Z</time>
      </trkpt>
      <trkpt lat="60.39907" lon="5.31858">
        <ele>6.416802</ele>
        <time>2020-07-15T11:57:06.155Z</time>
      </trkpt>
      <trkpt lat="60.39913" lon="5.31868">
        <ele>6.571733</ele>
        <time>2020-07-15T11:57:08.712Z</time>
      </trkpt>
      <trkpt lat="60.3993" lon="5.31865">
        <ele>6.898267</ele>
        <time>2020-07-15T11:57:13.604Z</time>
      </trkpt>
      <trkpt lat="60.39943" lon="5.31868">
        <ele>7.179503</ele>
        <time>2020-07-15T11:57:17.129Z</time>
      </trkpt>
      <trkpt lat="60.39947" lon="5.31869">
        <ele>7.25596</ele>
        <time>2020-07-15T11:57:18.550Z</time>
      </trkpt>
      <trkpt lat="60.39954" lon="5.31869">
        <ele>7.390717</ele>
        <time>2020-07-15T11:57:20.544Z</time>
      </trkpt>
      <trkpt lat="60.39955" lon="5.3187">
        <ele>7.420981</ele>
        <time>2020-07-15T11:57:21.024Z</time>
      </trkpt>
      <trkpt lat="60.39969" lon="5.31859">
        <ele>7.716289</ele>
        <time>2020-07-15T11:57:24.798Z</time>
      </trkpt>
      <trkpt lat="60.39981" lon="5.31838">
        <ele>8.036931</ele>
        <time>2020-07-15T11:57:29.201Z</time>
      </trkpt>
      <trkpt lat="60.39982" lon="5.31838">
        <ele>8.044144</ele>
        <time>2020-07-15T11:57:29.558Z</time>
      </trkpt>
      <trkpt lat="60.39989" lon="5.31821">
        <ele>8.263126</ele>
        <time>2020-07-15T11:57:32.492Z</time>
      </trkpt>
      <trkpt lat="60.39993" lon="5.31822">
        <ele>8.347826</ele>
        <time>2020-07-15T11:57:33.653Z</time>
      </trkpt>
      <trkpt lat="60.40007" lon="5.3182">
        <ele>8.625303</ele>
        <time>2020-07-15T11:57:36.627Z</time>
      </trkpt>
      <trkpt lat="60.40009" lon="5.3182">
        <ele>8.67955</ele>
        <time>2020-07-15T11:57:37.665Z</time>
      </trkpt>
      <trkpt lat="60.40049" lon="5.31813">
        <ele>8.935343</ele>
        <time>2020-07-15T11:57:45.486Z</time>
      </trkpt>
      <trkpt lat="60.40088" lon="5.31805">
        <ele>8.736567</ele>
        <time>2020-07-15T11:57:53.134Z</time>
      </trkpt>
      <trkpt lat="60.40098" lon="5.31802">
        <ele>8.68337</ele>
        <time>2020-07-15T11:57:55.198Z</time>
      </trkpt>
      <trkpt lat="60.401" lon="5.31799">
        <ele>8.671515</ele>
        <time>2020-07-15T11:57:55.527Z</time>
      </trkpt>
      <trkpt lat="60.40107" lon="5.31811">
        <ele>8.626199</ele>
        <time>2020-07-15T11:57:57.368Z</time>
      </trkpt>
      <trkpt lat="60.40112" lon="5.31821">
        <ele>8.592176</ele>
        <time>2020-07-15T11:57:58.879Z</time>
      </trkpt>
      <trkpt lat="60.40114" lon="5.31822">
        <ele>8.580808</ele>
        <time>2020-07-15T11:57:59.173Z</time>
      </trkpt>
      <trkpt lat="60.40132" lon="5.31812">
        <ele>8.484619</ele>
        <time>2020-07-15T11:58:02.502Z</time>
      </trkpt>
      <trkpt lat="60.40136" lon="5.3181">
        <ele>8.46303</ele>
        <time>2020-07-15T11:58:03.158Z</time>
      </trkpt>
      <trkpt lat="60.40147" lon="5.3179">
        <ele>8.390918</ele>
        <time>2020-07-15T11:58:05.721Z</time>
      </trkpt>
      <trkpt lat="60.40153" lon="5.3178">
        <ele>8.351152</ele>
        <time>2020-07-15T11:58:06.983Z</time>
      </trkpt>
      <trkpt lat="60.40159" lon="5.31771">
        <ele>8.31549</ele>
        <time>2020-07-15T11:58:08.413Z</time>
      </trkpt>
      <trkpt lat="60.40171" lon="5.31759">
        <ele>8.247446</ele>
        <time>2020-07-15T11:58:11.264Z</time>
      </trkpt>
      <trkpt lat="60.40173" lon="5.31765">
        <ele>8.229075</ele>
        <time>2020-07-15T11:58:11.982Z</time>
      </trkpt>
      <trkpt lat="60.40181" lon="5.31783">
        <ele>8.170399</ele>
        <time>2020-07-15T11:58:13.742Z</time>
      </trkpt>
      <trkpt lat="60.40196" lon="5.31823">
        <ele>8.425715</ele>
        <time>2020-07-15T11:58:17.540Z</time>
      </trkpt>
      <trkpt lat="60.40205" lon="5.31892">
        <ele>8.957509</ele>
        <time>2020-07-15T11:58:23.631Z</time>
      </trkpt>
      <trkpt lat="60.402" lon="5.31965">
        <ele>9.514852</ele>
        <time>2020-07-15T11:58:30.735Z</time>
      </trkpt>
      <trkpt lat="60.40206" lon="5.32022">
        <ele>9.948345</ele>
        <time>2020-07-15T11:58:37.157Z</time>
      </trkpt>
      <trkpt lat="60.40219" lon="5.32047">
        <ele>10.223041</ele>
        <time>2020-07-15T11:58:42.346Z</time>
      </trkpt>
      <trkpt lat="60.40224" lon="5.32054">
        <ele>10.311394</ele>
        <time>2020-07-15T11:58:44.066Z</time>
      </trkpt>
      <trkpt lat="60.40226" lon="5.32057">
        <ele>10.352784</ele>
        <time>2020-07-15T11:58:45.349Z</time>
      </trkpt>
      <trkpt lat="60.40243" lon="5.32078">
        <ele>10.645563</ele>
        <time>2020-07-15T11:58:51.467Z</time>
      </trkpt>
      <trkpt lat="60.40246" lon="5.32081">
        <ele>10.70525</ele>
        <time>2020-07-15T11:58:52.733Z</time>
      </trkpt>
      <trkpt lat="60.4025" lon="5.32085">
        <ele>10.770342</ele>
        <time>2020-07-15T11:58:53.946Z</time>
      </trkpt>
      <trkpt lat="60.40251" lon="5.32087">
        <ele>10.794287</ele>
        <time>2020-07-15T11:58:54.379Z</time>
      </trkpt>
      <trkpt lat="60.40258" lon="5.32095">
        <ele>10.987843</ele>
        <time>2020-07-15T11:58:57.221Z</time>
      </trkpt>
      <trkpt lat="60.40264" lon="5.32101">
        <ele>11.245487</ele>
        <time>2020-07-15T11:58:59.197Z</time>
      </trkpt>
      <trkpt lat="60.40268" lon="5.32106">
        <ele>11.424609</ele>
        <time>2020-07-15T11:59:00.489Z</time>
      </trkpt>
      <trkpt lat="60.40274" lon="5.32111">
        <ele>11.685707</ele>
        <time>2020-07-15T11:59:02.548Z</time>
      </trkpt>
      <trkpt lat="60.40279" lon="5.32117">
        <ele>11.92414</ele>
        <time>2020-07-15T11:59:04.472Z</time>
      </trkpt>
      <trkpt lat="60.40287" lon="5.32123">
        <ele>12.238405</ele>
        <time>2020-07-15T11:59:06.726Z</time>
      </trkpt>
      <trkpt lat="60.40293" lon="5.32127">
        <ele>12.51989</ele>
        <time>2020-07-15T11:59:09.699Z</time>
      </trkpt>
      <trkpt lat="60.40304" lon="5.32132">
        <ele>12.937864</ele>
        <time>2020-07-15T11:59:12.673Z</time>
      </trkpt>
      <trkpt lat="60.4031" lon="5.32133">
        <ele>13.177962</ele>
        <time>2020-07-15T11:59:14.666Z</time>
      </trkpt>
      <trkpt lat="60.40311" lon="5.32138">
        <ele>13.2769</ele>
        <time>2020-07-15T11:59:15.491Z</time>
      </trkpt>
      <trkpt lat="60.40349" lon="5.32137">
        <ele>14.768331</ele>
        <time>2020-07-15T11:59:27.909Z</time>
      </trkpt>
      <trkpt lat="60.40356" lon="5.32137">
        <ele>15.026746</ele>
        <time>2020-07-15T11:59:29.737Z</time>
      </trkpt>
      <trkpt lat="60.40362" lon="5.32138">
        <ele>15.274269</ele>
        <time>2020-07-15T11:59:32.720Z</time>
      </trkpt>
      <trkpt lat="60.4048" lon="5.32277">
        <ele>18.707228</ele>
        <time>2020-07-15T12:00:11.613Z</time>
      </trkpt>
      <trkpt lat="60.40505" lon="5.32307">
        <ele>19.043624</ele>
        <time>2020-07-15T12:00:19.149Z</time>
      </trkpt>
      <trkpt lat="60.40514" lon="5.32319">
        <ele>19.167163</ele>
        <time>2020-07-15T12:00:21.328Z</time>
      </trkpt>
      <trkpt lat="60.40527" lon="5.32328">
        <ele>19.324635</ele>
        <time>2020-07-15T12:00:23.407Z</time>
      </trkpt>
      <trkpt lat="60.40538" lon="5.32343">
        <ele>19.473158</ele>
        <time>2020-07-15T12:00:26.013Z</time>
      </trkpt>
      <trkpt lat="60.40547" lon="5.32354">
        <ele>19.595168</ele>
        <time>2020-07-15T12:00:27.702Z</time>
      </trkpt>
      <trkpt lat="60.40554" lon="5.32359">
        <ele>19.680827</ele>
        <time>2020-07-15T12:00:28.678Z</time>
      </trkpt>
      <trkpt lat="60.4056" lon="5.32362">
        <ele>19.755902</ele>
        <time>2020-07-15T12:00:29.578Z</time>
      </trkpt>
      <trkpt lat="60.40567" lon="5.32364">
        <ele>19.84251</ele>
        <time>2020-07-15T12:00:31.109Z</time>
      </trkpt>
      <trkpt lat="60.40569" lon="5.32365">
        <ele>19.865922</ele>
        <time>2020-07-15T12:00:31.378Z</time>
      </trkpt>
      <trkpt lat="60.40606" lon="5.32348">
        <ele>19.53078</ele>
        <time>2020-07-15T12:00:36.876Z</time>
      </trkpt>
      <trkpt lat="60.40615" lon="5.32336">
        <ele>19.346621</ele>
        <time>2020-07-15T12:00:38.649Z</time>
      </trkpt>
      <trkpt lat="60.40626" lon="5.32322">
        <ele>19.138307</ele>
        <time>2020-07-15T12:00:40.295Z</time>
      </trkpt>
      <trkpt lat="60.40644" lon="5.32299">
        <ele>18.783574</ele>
        <time>2020-07-15T12:00:44.174Z</time>
      </trkpt>
      <trkpt lat="60.4065" lon="5.32291">
        <ele>18.656008</ele>
        <time>2020-07-15T12:00:45.164Z</time>
      </trkpt>
      <trkpt lat="60.40653" lon="5.32287">
        <ele>18.600948</ele>
        <time>2020-07-15T12:00:45.579Z</time>
      </trkpt>
      <trkpt lat="60.40661" lon="5.32278">
        <ele>18.45765</ele>
        <time>2020-07-15T12:00:46.879Z</time>
      </trkpt>
      <trkpt lat="60.40676" lon="5.3226">
        <ele>18.158364</ele>
        <time>2020-07-15T12:00:49.802Z</time>
      </trkpt>
      <trkpt lat="60.40687" lon="5.32248">
        <ele>17.952888</ele>
        <time>2020-07-15T12:00:51.414Z</time>
      </trkpt>
      <trkpt lat="60.40688" lon="5.32245">
        <ele>17.922615</ele>
        <time>2020-07-15T12:00:51.688Z</time>
      </trkpt>
      <trkpt lat="60.40691" lon="5.32242">
        <ele>17.874457</ele>
        <time>2020-07-15T12:00:52.135Z</time>
      </trkpt>
      <trkpt lat="60.40698" lon="5.32235">
        <ele>17.741066</ele>
        <time>2020-07-15T12:00:53.391Z</time>
      </trkpt>
      <trkpt lat="60.407" lon="5.32234">
        <ele>17.709946</ele>
        <time>2020-07-15T12:00:53.633Z</time>
      </trkpt>
      <trkpt lat="60.40708" lon="5.32226">
        <ele>17.558489</ele>
        <time>2020-07-15T12:00:55.093Z</time>
      </trkpt>
      <trkpt lat="60.40733" lon="5.32218">
        <ele>17.131639</ele>
        <time>2020-07-15T12:00:58.513Z</time>
      </trkpt>
      <trkpt lat="60.40741" lon="5.32218">
        <ele>17.010444</ele>
        <time>2020-07-15T12:00:59.583Z</time>
      </trkpt>
      <trkpt lat="60.40741" lon="5.32218">
        <ele>17.003804</ele>
        <time>2020-07-15T12:00:59.841Z</time>
      </trkpt>
      <trkpt lat="60.40751" lon="5.32219">
        <ele>16.95966</ele>
        <time>2020-07-15T12:01:01.110Z</time>
      </trkpt>
      <trkpt lat="60.4076" lon="5.32222">
        <ele>16.928643</ele>
        <time>2020-07-15T12:01:02.234Z</time>
      </trkpt>
      <trkpt lat="60.40774" lon="5.32224">
        <ele>16.874703</ele>
        <time>2020-07-15T12:01:04.452Z</time>
      </trkpt>
      <trkpt lat="60.40786" lon="5.32227">
        <ele>16.829984</ele>
        <time>2020-07-15T12:01:05.992Z</time>
      </trkpt>
      <trkpt lat="60.40789" lon="5.32227">
        <ele>16.821061</ele>
        <time>2020-07-15T12:01:06.289Z</time>
      </trkpt>
      <trkpt lat="60.40812" lon="5.32232">
        <ele>16.735734</ele>
        <time>2020-07-15T12:01:09.899Z</time>
      </trkpt>
      <trkpt lat="60.40824" lon="5.32235">
        <ele>16.689112</ele>
        <time>2020-07-15T12:01:11.846Z</time>
      </trkpt>
      <trkpt lat="60.40834" lon="5.32238">
        <ele>16.651653</ele>
        <time>2020-07-15T12:01:13.409Z</time>
      </trkpt>
      <trkpt lat="60.40849" lon="5.32241">
        <ele>16.595046</ele>
        <time>2020-07-15T12:01:16.769Z</time>
      </trkpt>
      <trkpt lat="60.40892" lon="5.32252">
        <ele>16.43605</ele>
        <time>2020-07-15T12:01:25.425Z</time>
      </trkpt>
      <trkpt lat="60.40918" lon="5.32258">
        <ele>16.339757</ele>
        <time>2020-07-15T12:01:31.060Z</time>
      </trkpt>
      <trkpt lat="60.40923" lon="5.32259">
        <ele>16.403044</ele>
        <time>2020-07-15T12:01:31.917Z</time>
      </trkpt>
      <trkpt lat="60.40929" lon="5.32261">
        <ele>16.577951</ele>
        <time>2020-07-15T12:01:33.148Z</time>
      </trkpt>
      <trkpt lat="60.40937" lon="5.32262">
        <ele>16.814878</ele>
        <time>2020-07-15T12:01:34.823Z</time>
      </trkpt>
      <trkpt lat="60.40946" lon="5.32265">
        <ele>17.090463</ele>
        <time>2020-07-15T12:01:36.998Z</time>
      </trkpt>
      <trkpt lat="60.40959" lon="5.32269">
        <ele>17.481294</ele>
        <time>2020-07-15T12:01:40.564Z</time>
      </trkpt>
      <trkpt lat="60.41072" lon="5.3232">
        <ele>20.895944</ele>
        <time>2020-07-15T12:02:11.054Z</time>
      </trkpt>
      <trkpt lat="60.411" lon="5.32329">
        <ele>21.892262</ele>
        <time>2020-07-15T12:02:21.766Z</time>
      </trkpt>
      <trkpt lat="60.4111" lon="5.3233">
        <ele>22.662129</ele>
        <time>2020-07-15T12:02:24.600Z</time>
      </trkpt>
      <trkpt lat="60.4116" lon="5.32324">
        <ele>26.490467</ele>
        <time>2020-07-15T12:02:42.603Z</time>
      </trkpt>
      <trkpt lat="60.41167" lon="5.32322">
        <ele>27.020622</ele>
        <time>2020-07-15T12:02:47.171Z</time>
      </trkpt>
      <trkpt lat="60.4118" lon="5.32319">
        <ele>27.959809</ele>
        <time>2020-07-15T12:02:51.493Z</time>
      </trkpt>
      <trkpt lat="60.41186" lon="5.32316">
        <ele>28.435186</ele>
        <time>2020-07-15T12:02:54.183Z</time>
      </trkpt>
      <trkpt lat="60.41194" lon="5.32313">
        <ele>29.050864</ele>
        <time>2020-07-15T12:02:57.401Z</time>
      </trkpt>
      <trkpt lat="60.41196" lon="5.32312">
        <ele>29.222525</ele>
        <time>2020-07-15T12:02:58.316Z</time>
      </trkpt>
      <trkpt lat="60.41202" lon="5.32309">
        <ele>29.688894</ele>
        <time>2020-07-15T12:03:02.795Z</time>
      </trkpt>
      <trkpt lat="60.41283" lon="5.3226">
        <ele>36.224003</ele>
        <time>2020-07-15T12:03:41.745Z</time>
      </trkpt>
      <trkpt lat="60.41323" lon="5.32235">
        <ele>39.544739</ele>
        <time>2020-07-15T12:04:02.045Z</time>
      </trkpt>
      <trkpt lat="60.41351" lon="5.3222">
        <ele>41.886812</ele>
        <time>2020-07-15T12:04:17.196Z</time>
      </trkpt>
      <trkpt lat="60.41351" lon="5.32213">
        <ele>42.170372</ele>
        <time>2020-07-15T12:04:18.537Z</time>
      </trkpt>
      <trkpt lat="60.41352" lon="5.32206">
        <ele>42.47892</ele>
        <time>2020-07-15T12:04:21.443Z</time>
      </trkpt>
      <trkpt lat="60.41367" lon="5.32189">
        <ele>43.824967</ele>
        <time>2020-07-15T12:04:29.586Z</time>
      </trkpt>
      <trkpt lat="60.41434" lon="5.32112">
        <ele>49.836046</ele>
        <time>2020-07-15T12:05:00.371Z</time>
      </trkpt>
      <trkpt lat="60.41448" lon="5.32096">
        <ele>49.811673</ele>
        <time>2020-07-15T12:05:05.668Z</time>
      </trkpt>
      <trkpt lat="60.41455" lon="5.32086">
        <ele>49.798815</ele>
        <time>2020-07-15T12:05:08.391Z</time>
      </trkpt>
      <trkpt lat="60.41462" lon="5.32078">
        <ele>49.786993</ele>
        <time>2020-07-15T12:05:10.351Z</time>
      </trkpt>
      <trkpt lat="60.4149" lon="5.32047">
        <ele>49.739428</ele>
        <time>2020-07-15T12:05:17.862Z</time>
      </trkpt>
      <trkpt lat="60.41507" lon="5.32028">
        <ele>49.710689</ele>
        <time>2020-07-15T12:05:20.758Z</time>
      </trkpt>
      <trkpt lat="60.41534" lon="5.31986">
        <ele>49.659019</ele>
        <time>2020-07-15T12:05:26.164Z</time>
      </trkpt>
      <trkpt lat="60.41547" lon="5.31955">
        <ele>49.629922</ele>
        <time>2020-07-15T12:05:29.216Z</time>
      </trkpt>
      <trkpt lat="60.41694" lon="5.31474">
        <ele>41.194266</ele>
        <time>2020-07-15T12:06:05.585Z</time>
      </trkpt>
      <trkpt lat="60.41724" lon="5.31407">
        <ele>40.586058</ele>
        <time>2020-07-15T12:06:12.747Z</time>
      </trkpt>
      <trkpt lat="60.41767" lon="5.31342">
        <ele>39.871636</ele>
        <time>2020-07-15T12:06:23.015Z</time>
      </trkpt>
      <trkpt lat="60.41782" lon="5.3129">
        <ele>39.899778</ele>
        <time>2020-07-15T12:06:29.550Z</time>
      </trkpt>
      <trkpt lat="60.41788" lon="5.31279">
        <ele>40.209482</ele>
        <time>2020-07-15T12:06:31.971Z</time>
      </trkpt>
      <trkpt lat="60.41818" lon="5.31228">
        <ele>41.687717</ele>
        <time>2020-07-15T12:06:43.036Z</time>
      </trkpt>
      <trkpt lat="60.4184" lon="5.31182">
        <ele>42.868385</ele>
        <time>2020-07-15T12:06:53.214Z</time>
      </trkpt>
      <trkpt lat="60.41841" lon="5.31156">
        <ele>43.354247</ele>
        <time>2020-07-15T12:06:56.989Z</time>
      </trkpt>
      <trkpt lat="60.41847" lon="5.31145">
        <ele>43.652114</ele>
        <time>2020-07-15T12:06:59.115Z</time>
      </trkpt>
      <trkpt lat="60.41856" lon="5.31136">
        <ele>44.043706</ele>
        <time>2020-07-15T12:07:03.583Z</time>
      </trkpt>
      <trkpt lat="60.41904" lon="5.31079">
        <ele>46.123767</ele>
        <time>2020-07-15T12:07:22.190Z</time>
      </trkpt>
      <trkpt lat="60.4196" lon="5.31028">
        <ele>48.636022</ele>
        <time>2020-07-15T12:07:43.484Z</time>
      </trkpt>
      <trkpt lat="60.41993" lon="5.30988">
        <ele>50.259354</ele>
        <time>2020-07-15T12:07:56.984Z</time>
      </trkpt>
      <trkpt lat="60.42022" lon="5.30947">
        <ele>51.719512</ele>
        <time>2020-07-15T12:08:08.314Z</time>
      </trkpt>
      <trkpt lat="60.42103" lon="5.30818">
        <ele>54.336891</ele>
        <time>2020-07-15T12:08:36.864Z</time>
      </trkpt>
      <trkpt lat="60.42163" lon="5.30722">
        <ele>55.093892</ele>
        <time>2020-07-15T12:08:52.268Z</time>
      </trkpt>
      <trkpt lat="60.4223" lon="5.30618">
        <ele>55.353939</ele>
        <time>2020-07-15T12:09:07.008Z</time>
      </trkpt>
      <trkpt lat="60.42268" lon="5.30568">
        <ele>55.020662</ele>
        <time>2020-07-15T12:09:14.678Z</time>
      </trkpt>
      <trkpt lat="60.4234" lon="5.3048">
        <ele>54.4067</ele>
        <time>2020-07-15T12:09:28.096Z</time>
      </trkpt>
      <trkpt lat="60.4234" lon="5.30474">
        <ele>54.382381</ele>
        <time>2020-07-15T12:09:28.716Z</time>
      </trkpt>
      <trkpt lat="60.42346" lon="5.30466">
        <ele>54.329679</ele>
        <time>2020-07-15T12:09:30.105Z</time>
      </trkpt>
      <trkpt lat="60.42396" lon="5.30406">
        <ele>54.637591</ele>
        <time>2020-07-15T12:09:39.508Z</time>
      </trkpt>
      <trkpt lat="60.42406" lon="5.3039">
        <ele>54.724771</ele>
        <time>2020-07-15T12:09:43.061Z</time>
      </trkpt>
      <trkpt lat="60.42413" lon="5.30361">
        <ele>54.836679</ele>
        <time>2020-07-15T12:09:45.472Z</time>
      </trkpt>
      <trkpt lat="60.42416" lon="5.30319">
        <ele>54.980221</ele>
        <time>2020-07-15T12:09:50.862Z</time>
      </trkpt>
      <trkpt lat="60.42414" lon="5.30302">
        <ele>55.042459</ele>
        <time>2020-07-15T12:09:52.136Z</time>
      </trkpt>
      <trkpt lat="60.42422" lon="5.30281">
        <ele>55.135412</ele>
        <time>2020-07-15T12:09:54.854Z</time>
      </trkpt>
      <trkpt lat="60.42426" lon="5.30279">
        <ele>55.163045</ele>
        <time>2020-07-15T12:09:55.963Z</time>
      </trkpt>
      <trkpt lat="60.42434" lon="5.30282">
        <ele>55.213588</ele>
        <time>2020-07-15T12:09:58.357Z</time>
      </trkpt>
      <trkpt lat="60.42436" lon="5.30249">
        <ele>55.326045</ele>
        <time>2020-07-15T12:10:00.764Z</time>
      </trkpt>
      <trkpt lat="60.42441" lon="5.30224">
        <ele>55.417304</ele>
        <time>2020-07-15T12:10:04.487Z</time>
      </trkpt>
      <trkpt lat="60.42448" lon="5.30202">
        <ele>55.50822</ele>
        <time>2020-07-15T12:10:08.129Z</time>
      </trkpt>
      <trkpt lat="60.42456" lon="5.30178">
        <ele>55.931185</ele>
        <time>2020-07-15T12:10:11.122Z</time>
      </trkpt>
      <trkpt lat="60.42461" lon="5.30169">
        <ele>56.172791</ele>
        <time>2020-07-15T12:10:13.126Z</time>
      </trkpt>
      <trkpt lat="60.42464" lon="5.30162">
        <ele>56.3379</ele>
        <time>2020-07-15T12:10:15.247Z</time>
      </trkpt>
      <trkpt lat="60.42539" lon="5.30043">
        <ele>59.683623</ele>
        <time>2020-07-15T12:10:42.736Z</time>
      </trkpt>
      <trkpt lat="60.42552" lon="5.30014">
        <ele>60.345654</ele>
        <time>2020-07-15T12:10:48.466Z</time>
      </trkpt>
      <trkpt lat="60.4256" lon="5.30005">
        <ele>60.683509</ele>
        <time>2020-07-15T12:10:52.562Z</time>
      </trkpt>
      <trkpt lat="60.42584" lon="5.29965">
        <ele>61.762705</ele>
        <time>2020-07-15T12:11:01.783Z</time>
      </trkpt>
      <trkpt lat="60.42591" lon="5.29948">
        <ele>61.949454</ele>
        <time>2020-07-15T12:11:06.115Z</time>
      </trkpt>
      <trkpt lat="60.42637" lon="5.29875">
        <ele>62.681914</ele>
        <time>2020-07-15T12:11:22.036Z</time>
      </trkpt>
      <trkpt lat="60.42666" lon="5.29823">
        <ele>63.180141</ele>
        <time>2020-07-15T12:11:32.498Z</time>
      </trkpt>
      <trkpt lat="60.4267" lon="5.29817">
        <ele>63.237804</ele>
        <time>2020-07-15T12:11:34.604Z</time>
      </trkpt>
      <trkpt lat="60.4273" lon="5.29707">
        <ele>63.437403</ele>
        <time>2020-07-15T12:11:46.280Z</time>
      </trkpt>
      <trkpt lat="60.42752" lon="5.2965">
        <ele>61.369324</ele>
        <time>2020-07-15T12:11:50.801Z</time>
      </trkpt>
      <trkpt lat="60.42771" lon="5.29587">
        <ele>59.250233</ele>
        <time>2020-07-15T12:11:55.211Z</time>
      </trkpt>
      <trkpt lat="60.42785" lon="5.29533">
        <ele>57.510402</ele>
        <time>2020-07-15T12:11:58.666Z</time>
      </trkpt>
      <trkpt lat="60.42803" lon="5.29428">
        <ele>54.317883</ele>
        <time>2020-07-15T12:12:04.869Z</time>
      </trkpt>
      <trkpt lat="60.4281" lon="5.29385">
        <ele>52.990589</ele>
        <time>2020-07-15T12:12:07.349Z</time>
      </trkpt>
      <trkpt lat="60.42814" lon="5.29359">
        <ele>52.135232</ele>
        <time>2020-07-15T12:12:08.879Z</time>
      </trkpt>
      <trkpt lat="60.42833" lon="5.29269">
        <ele>49.165628</ele>
        <time>2020-07-15T12:12:14.288Z</time>
      </trkpt>
      <trkpt lat="60.42852" lon="5.29213">
        <ele>47.085468</ele>
        <time>2020-07-15T12:12:18.182Z</time>
      </trkpt>
      <trkpt lat="60.42862" lon="5.29189">
        <ele>46.118776</ele>
        <time>2020-07-15T12:12:19.987Z</time>
      </trkpt>
      <trkpt lat="60.42905" lon="5.29115">
        <ele>42.627816</ele>
        <time>2020-07-15T12:12:26.960Z</time>
      </trkpt>
      <trkpt lat="60.42991" lon="5.29">
        <ele>42.072564</ele>
        <time>2020-07-15T12:12:41.828Z</time>
      </trkpt>
      <trkpt lat="60.43047" lon="5.28892">
        <ele>41.696864</ele>
        <time>2020-07-15T12:12:59.598Z</time>
      </trkpt>
      <trkpt lat="60.43113" lon="5.2874">
        <ele>44.602723</ele>
        <time>2020-07-15T12:13:25.918Z</time>
      </trkpt>
      <trkpt lat="60.43121" lon="5.28718">
        <ele>45.013221</ele>
        <time>2020-07-15T12:13:30.021Z</time>
      </trkpt>
      <trkpt lat="60.43148" lon="5.28655">
        <ele>46.220119</ele>
        <time>2020-07-15T12:13:43.234Z</time>
      </trkpt>
      <trkpt lat="60.43191" lon="5.28589">
        <ele>47.213822</ele>
        <time>2020-07-15T12:13:58.600Z</time>
      </trkpt>
      <trkpt lat="60.43202" lon="5.2858">
        <ele>47.309277</ele>
        <time>2020-07-15T12:14:01.813Z</time>
      </trkpt>
      <trkpt lat="60.43213" lon="5.2857">
        <ele>47.405307</ele>
        <time>2020-07-15T12:14:04.431Z</time>
      </trkpt>
      <trkpt lat="60.4325" lon="5.28551">
        <ele>47.709697</ele>
        <time>2020-07-15T12:14:12.119Z</time>
      </trkpt>
      <trkpt lat="60.43258" lon="5.2855">
        <ele>47.770354</ele>
        <time>2020-07-15T12:14:13.725Z</time>
      </trkpt>
      <trkpt lat="60.43271" lon="5.28547">
        <ele>47.88018</ele>
        <time>2020-07-15T12:14:16.097Z</time>
      </trkpt>
      <trkpt lat="60.43344" lon="5.2852">
        <ele>48.407619</ele>
        <time>2020-07-15T12:14:27.581Z</time>
      </trkpt>
      <trkpt lat="60.43416" lon="5.28469">
        <ele>48.126877</ele>
        <time>2020-07-15T12:14:40.022Z</time>
      </trkpt>
      <trkpt lat="60.43462" lon="5.28469">
        <ele>47.954763</ele>
        <time>2020-07-15T12:14:47.554Z</time>
      </trkpt>
      <trkpt lat="60.43482" lon="5.28479">
        <ele>47.878293</ele>
        <time>2020-07-15T12:14:50.675Z</time>
      </trkpt>
      <trkpt lat="60.43526" lon="5.28526">
        <ele>48.01817</ele>
        <time>2020-07-15T12:15:00.426Z</time>
      </trkpt>
      <trkpt lat="60.43571" lon="5.28573">
        <ele>48.740741</ele>
        <time>2020-07-15T12:15:10.864Z</time>
      </trkpt>
      <trkpt lat="60.43581" lon="5.28577">
        <ele>48.880758</ele>
        <time>2020-07-15T12:15:12.837Z</time>
      </trkpt>
      <trkpt lat="60.43585" lon="5.28578">
        <ele>48.937256</ele>
        <time>2020-07-15T12:15:14.379Z</time>
      </trkpt>
      <trkpt lat="60.43733" lon="5.2861">
        <ele>50.729475</ele>
        <time>2020-07-15T12:15:50.501Z</time>
      </trkpt>
      <trkpt lat="60.43766" lon="5.28619">
        <ele>51.00494</ele>
        <time>2020-07-15T12:15:57.290Z</time>
      </trkpt>
      <trkpt lat="60.4383" lon="5.28634">
        <ele>51.524682</ele>
        <time>2020-07-15T12:16:10.197Z</time>
      </trkpt>
      <trkpt lat="60.43842" lon="5.28637">
        <ele>51.61672</ele>
        <time>2020-07-15T12:16:12.516Z</time>
      </trkpt>
      <trkpt lat="60.43862" lon="5.28636">
        <ele>51.679875</ele>
        <time>2020-07-15T12:16:16.226Z</time>
      </trkpt>
      <trkpt lat="60.43898" lon="5.28607">
        <ele>49.937241</ele>
        <time>2020-07-15T12:16:22.176Z</time>
      </trkpt>
      <trkpt lat="60.43932" lon="5.28555">
        <ele>47.975509</ele>
        <time>2020-07-15T12:16:27.975Z</time>
      </trkpt>
      <trkpt lat="60.43968" lon="5.28502">
        <ele>45.962958</ele>
        <time>2020-07-15T12:16:33.280Z</time>
      </trkpt>
      <trkpt lat="60.43988" lon="5.28472">
        <ele>44.798791</ele>
        <time>2020-07-15T12:16:36.168Z</time>
      </trkpt>
      <trkpt lat="60.44094" lon="5.28333">
        <ele>35.125417</ele>
        <time>2020-07-15T12:16:50.020Z</time>
      </trkpt>
      <trkpt lat="60.44123" lon="5.28316">
        <ele>32.539778</ele>
        <time>2020-07-15T12:16:53.357Z</time>
      </trkpt>
      <trkpt lat="60.44201" lon="5.28287">
        <ele>27.09947</ele>
        <time>2020-07-15T12:17:02.311Z</time>
      </trkpt>
      <trkpt lat="60.44207" lon="5.28285">
        <ele>26.840727</ele>
        <time>2020-07-15T12:17:03.139Z</time>
      </trkpt>
      <trkpt lat="60.44275" lon="5.28246">
        <ele>24.055992</ele>
        <time>2020-07-15T12:17:11.827Z</time>
      </trkpt>
      <trkpt lat="60.44365" lon="5.28194">
        <ele>21.036112</ele>
        <time>2020-07-15T12:17:25.156Z</time>
      </trkpt>
      <trkpt lat="60.44441" lon="5.28129">
        <ele>20.846399</ele>
        <time>2020-07-15T12:17:38.644Z</time>
      </trkpt>
      <trkpt lat="60.44448" lon="5.28129">
        <ele>20.830213</ele>
        <time>2020-07-15T12:17:39.568Z</time>
      </trkpt>
      <trkpt lat="60.44478" lon="5.28157">
        <ele>20.754333</ele>
        <time>2020-07-15T12:17:46.443Z</time>
      </trkpt>
      <trkpt lat="60.44486" lon="5.28165">
        <ele>20.734467</ele>
        <time>2020-07-15T12:17:47.881Z</time>
      </trkpt>
      <trkpt lat="60.44494" lon="5.28175">
        <ele>20.711475</ele>
        <time>2020-07-15T12:17:49.746Z</time>
      </trkpt>
      <trkpt lat="60.44509" lon="5.28195">
        <ele>20.669712</ele>
        <time>2020-07-15T12:17:54.379Z</time>
      </trkpt>
      <trkpt lat="60.44515" lon="5.28204">
        <ele>20.709581</ele>
        <time>2020-07-15T12:17:55.545Z</time>
      </trkpt>
      <trkpt lat="60.44517" lon="5.28208">
        <ele>20.736831</ele>
        <time>2020-07-15T12:17:56.260Z</time>
      </trkpt>
      <trkpt lat="60.44525" lon="5.28236">
        <ele>20.885806</ele>
        <time>2020-07-15T12:17:59.938Z</time>
      </trkpt>
      <trkpt lat="60.44525" lon="5.28239">
        <ele>20.899502</ele>
        <time>2020-07-15T12:18:00.439Z</time>
      </trkpt>
      <trkpt lat="60.44526" lon="5.28245">
        <ele>20.929335</ele>
        <time>2020-07-15T12:18:01.775Z</time>
      </trkpt>
      <trkpt lat="60.4453" lon="5.28312">
        <ele>21.23508</ele>
        <time>2020-07-15T12:18:08.249Z</time>
      </trkpt>
      <trkpt lat="60.44527" lon="5.28364">
        <ele>21.473357</ele>
        <time>2020-07-15T12:18:12.875Z</time>
      </trkpt>
      <trkpt lat="60.44526" lon="5.28371">
        <ele>21.50738</ele>
        <time>2020-07-15T12:18:14.195Z</time>
      </trkpt>
      <trkpt lat="60.44526" lon="5.28381">
        <ele>21.550943</ele>
        <time>2020-07-15T12:18:15.266Z</time>
      </trkpt>
      <trkpt lat="60.44525" lon="5.28395">
        <ele>21.614947</ele>
        <time>2020-07-15T12:18:17.493Z</time>
      </trkpt>
      <trkpt lat="60.44523" lon="5.28421">
        <ele>21.73839</ele>
        <time>2020-07-15T12:18:20.152Z</time>
      </trkpt>
      <trkpt lat="60.44519" lon="5.28448">
        <ele>21.865167</ele>
        <time>2020-07-15T12:18:22.492Z</time>
      </trkpt>
      <trkpt lat="60.44518" lon="5.28456">
        <ele>21.901602</ele>
        <time>2020-07-15T12:18:23.666Z</time>
      </trkpt>
      <trkpt lat="60.44517" lon="5.2848">
        <ele>22.009054</ele>
        <time>2020-07-15T12:18:26.191Z</time>
      </trkpt>
      <trkpt lat="60.44512" lon="5.28552">
        <ele>22.31964</ele>
        <time>2020-07-15T12:18:33.553Z</time>
      </trkpt>
      <trkpt lat="60.44512" lon="5.2856">
        <ele>22.312313</ele>
        <time>2020-07-15T12:18:34.366Z</time>
      </trkpt>
      <trkpt lat="60.44513" lon="5.28574">
        <ele>22.298125</ele>
        <time>2020-07-15T12:18:35.310Z</time>
      </trkpt>
      <trkpt lat="60.44499" lon="5.2872">
        <ele>22.150851</ele>
        <time>2020-07-15T12:18:48.661Z</time>
      </trkpt>
      <trkpt lat="60.44495" lon="5.28754">
        <ele>22.117175</ele>
        <time>2020-07-15T12:18:51.374Z</time>
      </trkpt>
      <trkpt lat="60.4449" lon="5.2882">
        <ele>22.050416</ele>
        <time>2020-07-15T12:18:56.477Z</time>
      </trkpt>
      <trkpt lat="60.44467" lon="5.28906">
        <ele>21.971416</ele>
        <time>2020-07-15T12:19:03.900Z</time>
      </trkpt>
      <trkpt lat="60.44451" lon="5.28946">
        <ele>22.019955</ele>
        <time>2020-07-15T12:19:09.051Z</time>
      </trkpt>
      <trkpt lat="60.44435" lon="5.28995">
        <ele>22.075936</ele>
        <time>2020-07-15T12:19:15.094Z</time>
      </trkpt>
      <trkpt lat="60.44384" lon="5.29136">
        <ele>22.239239</ele>
        <time>2020-07-15T12:19:32.658Z</time>
      </trkpt>
      <trkpt lat="60.44366" lon="5.29169">
        <ele>22.286389</ele>
        <time>2020-07-15T12:19:36.145Z</time>
      </trkpt>
      <trkpt lat="60.44361" lon="5.29162">
        <ele>22.297214</ele>
        <time>2020-07-15T12:19:38.115Z</time>
      </trkpt>
      <trkpt lat="60.44335" lon="5.29225">
        <ele>21.963347</ele>
        <time>2020-07-15T12:19:44.729Z</time>
      </trkpt>
      <trkpt lat="60.44334" lon="5.29237">
        <ele>21.911311</ele>
        <time>2020-07-15T12:19:46.725Z</time>
      </trkpt>
      <trkpt lat="60.44344" lon="5.29237">
        <ele>21.822852</ele>
        <time>2020-07-15T12:19:48.277Z</time>
      </trkpt>
      <trkpt lat="60.44344" lon="5.29253">
        <ele>21.745786</ele>
        <time>2020-07-15T12:19:49.300Z</time>
      </trkpt>
      <trkpt lat="60.44344" lon="5.29305">
        <ele>21.509211</ele>
        <time>2020-07-15T12:19:54.845Z</time>
      </trkpt>
      <trkpt lat="60.44344" lon="5.2932">
        <ele>21.441233</ele>
        <time>2020-07-15T12:19:55.788Z</time>
      </trkpt>
      <trkpt lat="60.44348" lon="5.29323">
        <ele>21.401704</ele>
        <time>2020-07-15T12:19:56.305Z</time>
      </trkpt>
      <trkpt lat="60.44345" lon="5.29378">
        <ele>21.148018</ele>
        <time>2020-07-15T12:20:01.967Z</time>
      </trkpt>
      <trkpt lat="60.44337" lon="5.29401">
        <ele>21.021733</ele>
        <time>2020-07-15T12:20:04.205Z</time>
      </trkpt>
      <trkpt lat="60.44332" lon="5.29416">
        <ele>20.938961</ele>
        <time>2020-07-15T12:20:05.577Z</time>
      </trkpt>
      <trkpt lat="60.44322" lon="5.29433">
        <ele>20.816299</ele>
        <time>2020-07-15T12:20:07.643Z</time>
      </trkpt>
      <trkpt lat="60.44291" lon="5.29468">
        <ele>20.287642</ele>
        <time>2020-07-15T12:20:12.672Z</time>
      </trkpt>
      <trkpt lat="60.44282" lon="5.29474">
        <ele>20.059434</ele>
        <time>2020-07-15T12:20:13.948Z</time>
      </trkpt>
      <trkpt lat="60.44278" lon="5.29471">
        <ele>19.971359</ele>
        <time>2020-07-15T12:20:14.989Z</time>
      </trkpt>
      <trkpt lat="60.44274" lon="5.29465">
        <ele>19.863548</ele>
        <time>2020-07-15T12:20:15.964Z</time>
      </trkpt>
      <trkpt lat="60.44267" lon="5.29475">
        <ele>19.68065</ele>
        <time>2020-07-15T12:20:17.001Z</time>
      </trkpt>
      <trkpt lat="60.44213" lon="5.29619">
        <ele>17.683896</ele>
        <time>2020-07-15T12:20:30.742Z</time>
      </trkpt>
      <trkpt lat="60.44166" lon="5.2971">
        <ele>16.363022</ele>
        <time>2020-07-15T12:20:39.741Z</time>
      </trkpt>
      <trkpt lat="60.44161" lon="5.29724">
        <ele>16.234216</ele>
        <time>2020-07-15T12:20:40.923Z</time>
      </trkpt>
      <trkpt lat="60.44157" lon="5.29721">
        <ele>16.175085</ele>
        <time>2020-07-15T12:20:41.654Z</time>
      </trkpt>
      <trkpt lat="60.44154" lon="5.29725">
        <ele>16.113447</ele>
        <time>2020-07-15T12:20:42.225Z</time>
      </trkpt>
      <trkpt lat="60.44138" lon="5.29773">
        <ele>15.687409</ele>
        <time>2020-07-15T12:20:46.116Z</time>
      </trkpt>
      <trkpt lat="60.44135" lon="5.29789">
        <ele>15.562554</ele>
        <time>2020-07-15T12:20:47.459Z</time>
      </trkpt>
      <trkpt lat="60.44135" lon="5.29799">
        <ele>15.485406</ele>
        <time>2020-07-15T12:20:48.170Z</time>
      </trkpt>
      <trkpt lat="60.44133" lon="5.29822">
        <ele>15.318514</ele>
        <time>2020-07-15T12:20:49.817Z</time>
      </trkpt>
      <trkpt lat="60.44134" lon="5.29823">
        <ele>15.300325</ele>
        <time>2020-07-15T12:20:49.964Z</time>
      </trkpt>
      <trkpt lat="60.44125" lon="5.29865">
        <ele>14.958338</ele>
        <time>2020-07-15T12:20:53.560Z</time>
      </trkpt>
      <trkpt lat="60.44121" lon="5.29882">
        <ele>14.82061</ele>
        <time>2020-07-15T12:20:55.027Z</time>
      </trkpt>
      <trkpt lat="60.44117" lon="5.29894">
        <ele>14.718954</ele>
        <time>2020-07-15T12:20:55.934Z</time>
      </trkpt>
      <trkpt lat="60.4411" lon="5.2992">
        <ele>14.493651</ele>
        <time>2020-07-15T12:20:58.909Z</time>
      </trkpt>
      <trkpt lat="60.44097" lon="5.29956">
        <ele>14.173361</ele>
        <time>2020-07-15T12:21:02.238Z</time>
      </trkpt>
      <trkpt lat="60.44093" lon="5.29968">
        <ele>14.061453</ele>
        <time>2020-07-15T12:21:03.950Z</time>
      </trkpt>
      <trkpt lat="60.44066" lon="5.30036">
        <ele>14.637519</ele>
        <time>2020-07-15T12:21:13.089Z</time>
      </trkpt>
      <trkpt lat="60.43982" lon="5.30144">
        <ele>16.705427</ele>
        <time>2020-07-15T12:21:40.380Z</time>
      </trkpt>
      <trkpt lat="60.43916" lon="5.30264">
        <ele>17.718091</ele>
        <time>2020-07-15T12:22:04.438Z</time>
      </trkpt>
      <trkpt lat="60.43911" lon="5.30275">
        <ele>17.728788</ele>
        <time>2020-07-15T12:22:07.793Z</time>
      </trkpt>
      <trkpt lat="60.43913" lon="5.30273">
        <ele>17.732223</ele>
        <time>2020-07-15T12:22:08.049Z</time>
      </trkpt>
      <trkpt lat="60.43926" lon="5.30271">
        <ele>17.751329</ele>
        <time>2020-07-15T12:22:09.912Z</time>
      </trkpt>
      <trkpt lat="60.43917" lon="5.30296">
        <ele>17.774297</ele>
        <time>2020-07-15T12:22:13.637Z</time>
      </trkpt>
      <trkpt lat="60.43902" lon="5.30335">
        <ele>17.811727</ele>
        <time>2020-07-15T12:22:17.578Z</time>
      </trkpt>
      <trkpt lat="60.43878" lon="5.30429">
        <ele>17.89047</ele>
        <time>2020-07-15T12:22:27.171Z</time>
      </trkpt>
      <trkpt lat="60.43851" lon="5.30577">
        <ele>16.580354</ele>
        <time>2020-07-15T12:22:37.113Z</time>
      </trkpt>
      <trkpt lat="60.43803" lon="5.30777">
        <ele>13.901476</ele>
        <time>2020-07-15T12:22:52.064Z</time>
      </trkpt>
      <trkpt lat="60.43786" lon="5.30817">
        <ele>13.371014</ele>
        <time>2020-07-15T12:22:55.818Z</time>
      </trkpt>
      <trkpt lat="60.43775" lon="5.30835">
        <ele>13.165436</ele>
        <time>2020-07-15T12:22:57.860Z</time>
      </trkpt>
      <trkpt lat="60.43764" lon="5.30855">
        <ele>12.946251</ele>
        <time>2020-07-15T12:23:00.118Z</time>
      </trkpt>
      <trkpt lat="60.43703" lon="5.30953">
        <ele>11.820855</ele>
        <time>2020-07-15T12:23:11.633Z</time>
      </trkpt>
      <trkpt lat="60.43695" lon="5.30969">
        <ele>11.658181</ele>
        <time>2020-07-15T12:23:13.461Z</time>
      </trkpt>
      <trkpt lat="60.43686" lon="5.30992">
        <ele>11.452331</ele>
        <time>2020-07-15T12:23:15.569Z</time>
      </trkpt>
      <trkpt lat="60.43675" lon="5.31037">
        <ele>11.092387</ele>
        <time>2020-07-15T12:23:19.387Z</time>
      </trkpt>
      <trkpt lat="60.43668" lon="5.3108">
        <ele>10.771479</ele>
        <time>2020-07-15T12:23:22.866Z</time>
      </trkpt>
      <trkpt lat="60.43665" lon="5.31142">
        <ele>10.342837</ele>
        <time>2020-07-15T12:23:27.458Z</time>
      </trkpt>
      <trkpt lat="60.43673" lon="5.31264">
        <ele>9.490921</ele>
        <time>2020-07-15T12:23:36.141Z</time>
      </trkpt>
      <trkpt lat="60.43642" lon="5.31358">
        <ele>8.711941</ele>
        <time>2020-07-15T12:23:43.927Z</time>
      </trkpt>
      <trkpt lat="60.43623" lon="5.3144">
        <ele>8.750923</ele>
        <time>2020-07-15T12:23:51.161Z</time>
      </trkpt>
      <trkpt lat="60.43619" lon="5.31461">
        <ele>8.925929</ele>
        <time>2020-07-15T12:23:52.897Z</time>
      </trkpt>
      <trkpt lat="60.43617" lon="5.31482">
        <ele>9.100556</ele>
        <time>2020-07-15T12:23:55.354Z</time>
      </trkpt>
      <trkpt lat="60.43616" lon="5.31491">
        <ele>9.172311</ele>
        <time>2020-07-15T12:23:56.267Z</time>
      </trkpt>
      <trkpt lat="60.43617" lon="5.31497">
        <ele>9.216646</ele>
        <time>2020-07-15T12:23:56.830Z</time>
      </trkpt>
      <trkpt lat="60.43625" lon="5.3153">
        <ele>9.512881</ele>
        <time>2020-07-15T12:24:00.827Z</time>
      </trkpt>
      <trkpt lat="60.43647" lon="5.31569">
        <ele>9.980852</ele>
        <time>2020-07-15T12:24:08.205Z</time>
      </trkpt>
      <trkpt lat="60.43654" lon="5.31593">
        <ele>10.197178</ele>
        <time>2020-07-15T12:24:11.583Z</time>
      </trkpt>
      <trkpt lat="60.43654" lon="5.3162">
        <ele>10.416337</ele>
        <time>2020-07-15T12:24:15.067Z</time>
      </trkpt>
      <trkpt lat="60.43647" lon="5.31654">
        <ele>10.706578</ele>
        <time>2020-07-15T12:24:19.639Z</time>
      </trkpt>
      <trkpt lat="60.4364" lon="5.3167">
        <ele>10.877901</ele>
        <time>2020-07-15T12:24:22.893Z</time>
      </trkpt>
      <trkpt lat="60.43628" lon="5.31697">
        <ele>11.158139</ele>
        <time>2020-07-15T12:24:27.336Z</time>
      </trkpt>
      <trkpt lat="60.43621" lon="5.31713">
        <ele>11.389213</ele>
        <time>2020-07-15T12:24:30.543Z</time>
      </trkpt>
      <trkpt lat="60.43611" lon="5.31743">
        <ele>12.051647</ele>
        <time>2020-07-15T12:24:35.469Z</time>
      </trkpt>
      <trkpt lat="60.43609" lon="5.31752">
        <ele>12.231987</ele>
        <time>2020-07-15T12:24:37.160Z</time>
      </trkpt>
      <trkpt lat="60.43606" lon="5.3177">
        <ele>12.558111</ele>
        <time>2020-07-15T12:24:39.819Z</time>
      </trkpt>
      <trkpt lat="60.43604" lon="5.31785">
        <ele>12.827382</ele>
        <time>2020-07-15T12:24:42.343Z</time>
      </trkpt>
      <trkpt lat="60.43604" lon="5.31804">
        <ele>13.177347</ele>
        <time>2020-07-15T12:24:45.133Z</time>
      </trkpt>
      <trkpt lat="60.43608" lon="5.31836">
        <ele>13.763552</ele>
        <time>2020-07-15T12:24:49.747Z</time>
      </trkpt>
      <trkpt lat="60.43624" lon="5.31895">
        <ele>14.987901</ele>
        <time>2020-07-15T12:24:59.832Z</time>
      </trkpt>
      <trkpt lat="60.4363" lon="5.31919">
        <ele>15.470809</ele>
        <time>2020-07-15T12:25:04.298Z</time>
      </trkpt>
      <trkpt lat="60.43656" lon="5.32023">
        <ele>17.558842</ele>
        <time>2020-07-15T12:25:21.993Z</time>
      </trkpt>
      <trkpt lat="60.43666" lon="5.32061">
        <ele>18.173581</ele>
        <time>2020-07-15T12:25:28.411Z</time>
      </trkpt>
      <trkpt lat="60.43686" lon="5.32109">
        <ele>18.950412</ele>
        <time>2020-07-15T12:25:36.142Z</time>
      </trkpt>
      <trkpt lat="60.43713" lon="5.32146">
        <ele>19.791624</ele>
        <time>2020-07-15T12:25:44.349Z</time>
      </trkpt>
      <trkpt lat="60.43723" lon="5.32153">
        <ele>20.045438</ele>
        <time>2020-07-15T12:25:46.934Z</time>
      </trkpt>
      <trkpt lat="60.4373" lon="5.32157">
        <ele>20.237859</ele>
        <time>2020-07-15T12:25:48.620Z</time>
      </trkpt>
      <trkpt lat="60.43739" lon="5.32162">
        <ele>20.47771</ele>
        <time>2020-07-15T12:25:50.723Z</time>
      </trkpt>
      <trkpt lat="60.43749" lon="5.32166">
        <ele>20.735238</ele>
        <time>2020-07-15T12:25:53.458Z</time>
      </trkpt>
      <trkpt lat="60.43811" lon="5.32192">
        <ele>22.335841</ele>
        <time>2020-07-15T12:26:08.170Z</time>
      </trkpt>
      <trkpt lat="60.43893" lon="5.32309">
        <ele>26.066806</ele>
        <time>2020-07-15T12:26:37.350Z</time>
      </trkpt>
      <trkpt lat="60.43907" lon="5.32321">
        <ele>26.620635</ele>
        <time>2020-07-15T12:26:41.836Z</time>
      </trkpt>
      <trkpt lat="60.43917" lon="5.32328">
        <ele>27.043655</ele>
        <time>2020-07-15T12:26:45.973Z</time>
      </trkpt>
      <trkpt lat="60.43932" lon="5.32336">
        <ele>27.601201</ele>
        <time>2020-07-15T12:26:50.400Z</time>
      </trkpt>
      <trkpt lat="60.43943" lon="5.32338">
        <ele>28.008292</ele>
        <time>2020-07-15T12:26:53.844Z</time>
      </trkpt>
      <trkpt lat="60.43958" lon="5.32337">
        <ele>28.570696</ele>
        <time>2020-07-15T12:26:59.152Z</time>
      </trkpt>
      <trkpt lat="60.43995" lon="5.32324">
        <ele>30.234104</ele>
        <time>2020-07-15T12:27:11.159Z</time>
      </trkpt>
      <trkpt lat="60.44014" lon="5.3232">
        <ele>31.147336</ele>
        <time>2020-07-15T12:27:17.093Z</time>
      </trkpt>
      <trkpt lat="60.44025" lon="5.32319">
        <ele>31.64881</ele>
        <time>2020-07-15T12:27:20.933Z</time>
      </trkpt>
      <trkpt lat="60.44035" lon="5.32319">
        <ele>32.145207</ele>
        <time>2020-07-15T12:27:23.802Z</time>
      </trkpt>
      <trkpt lat="60.44052" lon="5.32323">
        <ele>32.95251</ele>
        <time>2020-07-15T12:27:29.247Z</time>
      </trkpt>
      <trkpt lat="60.44075" lon="5.3233">
        <ele>34.057436</ele>
        <time>2020-07-15T12:27:36.456Z</time>
      </trkpt>
      <trkpt lat="60.44088" lon="5.32334">
        <ele>34.679229</ele>
        <time>2020-07-15T12:27:41.219Z</time>
      </trkpt>
      <trkpt lat="60.44122" lon="5.32325">
        <ele>36.329279</ele>
        <time>2020-07-15T12:27:53.607Z</time>
      </trkpt>
      <trkpt lat="60.44186" lon="5.32278">
        <ele>40.196767</ele>
        <time>2020-07-15T12:28:16.932Z</time>
      </trkpt>
      <trkpt lat="60.44211" lon="5.32265">
        <ele>41.841451</ele>
        <time>2020-07-15T12:28:25.011Z</time>
      </trkpt>
      <trkpt lat="60.44299" lon="5.32199">
        <ele>47.721345</ele>
        <time>2020-07-15T12:29:00.329Z</time>
      </trkpt>
      <trkpt lat="60.44318" lon="5.32198">
        <ele>48.938568</ele>
        <time>2020-07-15T12:29:09.678Z</time>
      </trkpt>
      <trkpt lat="60.44333" lon="5.32221">
        <ele>50.943087</ele>
        <time>2020-07-15T12:29:17.260Z</time>
      </trkpt>
      <trkpt lat="60.44342" lon="5.32255">
        <ele>53.019479</ele>
        <time>2020-07-15T12:29:26.709Z</time>
      </trkpt>
      <trkpt lat="60.44342" lon="5.32301">
        <ele>55.554593</ele>
        <time>2020-07-15T12:29:36.797Z</time>
      </trkpt>
      <trkpt lat="60.4434" lon="5.32324">
        <ele>56.87426</ele>
        <time>2020-07-15T12:29:45.200Z</time>
      </trkpt>
      <trkpt lat="60.44335" lon="5.32358">
        <ele>58.818095</ele>
        <time>2020-07-15T12:29:53.899Z</time>
      </trkpt>
      <trkpt lat="60.44328" lon="5.32383">
        <ele>60.418027</ele>
        <time>2020-07-15T12:30:03.464Z</time>
      </trkpt>
      <trkpt lat="60.44319" lon="5.32403">
        <ele>61.857063</ele>
        <time>2020-07-15T12:30:09.989Z</time>
      </trkpt>
      <trkpt lat="60.44299" lon="5.32443">
        <ele>65.019392</ele>
        <time>2020-07-15T12:30:26.974Z</time>
      </trkpt>
      <trkpt lat="60.44277" lon="5.32498">
        <ele>68.883723</ele>
        <time>2020-07-15T12:30:46.840Z</time>
      </trkpt>
      <trkpt lat="60.44273" lon="5.32538">
        <ele>70.991768</ele>
        <time>2020-07-15T12:30:57.541Z</time>
      </trkpt>
      <trkpt lat="60.44273" lon="5.32561">
        <ele>72.148977</ele>
        <time>2020-07-15T12:31:06.198Z</time>
      </trkpt>
      <trkpt lat="60.44275" lon="5.32575">
        <ele>72.858532</ele>
        <time>2020-07-15T12:31:10.681Z</time>
      </trkpt>
      <trkpt lat="60.44279" lon="5.32588">
        <ele>73.654388</ele>
        <time>2020-07-15T12:31:13.754Z</time>
      </trkpt>
      <trkpt lat="60.44289" lon="5.32605">
        <ele>74.920735</ele>
        <time>2020-07-15T12:31:21.602Z</time>
      </trkpt>
      <trkpt lat="60.44311" lon="5.32628">
        <ele>77.459188</ele>
        <time>2020-07-15T12:31:35.365Z</time>
      </trkpt>
      <trkpt lat="60.44358" lon="5.32627">
        <ele>82.268783</ele>
        <time>2020-07-15T12:32:01.096Z</time>
      </trkpt>
      <trkpt lat="60.44388" lon="5.32618">
        <ele>85.284658</ele>
        <time>2020-07-15T12:32:13.504Z</time>
      </trkpt>
      <trkpt lat="60.44411" lon="5.32608">
        <ele>87.373983</ele>
        <time>2020-07-15T12:32:24.319Z</time>
      </trkpt>
      <trkpt lat="60.4441" lon="5.32598">
        <ele>87.354615</ele>
        <time>2020-07-15T12:32:25.366Z</time>
      </trkpt>
      <trkpt lat="60.44415" lon="5.32594">
        <ele>87.334812</ele>
        <time>2020-07-15T12:32:27.777Z</time>
      </trkpt>
      <trkpt lat="60.44449" lon="5.32571">
        <ele>87.206572</ele>
        <time>2020-07-15T12:32:37.485Z</time>
      </trkpt>
      <trkpt lat="60.44456" lon="5.32566">
        <ele>87.179752</ele>
        <time>2020-07-15T12:32:39.462Z</time>
      </trkpt>
      <trkpt lat="60.44482" lon="5.32546">
        <ele>87.08134</ele>
        <time>2020-07-15T12:32:44.493Z</time>
      </trkpt>
      <trkpt lat="60.44569" lon="5.32451">
        <ele>86.485777</ele>
        <time>2020-07-15T12:32:58.115Z</time>
      </trkpt>
      <trkpt lat="60.44732" lon="5.32239">
        <ele>74.721079</ele>
        <time>2020-07-15T12:33:21.431Z</time>
      </trkpt>
      <trkpt lat="60.44821" lon="5.32153">
        <ele>70.743155</ele>
        <time>2020-07-15T12:33:34.025Z</time>
      </trkpt>
      <trkpt lat="60.44895" lon="5.32029">
        <ele>68.447315</ele>
        <time>2020-07-15T12:33:48.746Z</time>
      </trkpt>
      <trkpt lat="60.44914" lon="5.32003">
        <ele>68.60358</ele>
        <time>2020-07-15T12:33:52.633Z</time>
      </trkpt>
      <trkpt lat="60.44916" lon="5.3201">
        <ele>68.631521</ele>
        <time>2020-07-15T12:33:53.353Z</time>
      </trkpt>
      <trkpt lat="60.44919" lon="5.32016">
        <ele>68.663491</ele>
        <time>2020-07-15T12:33:54.777Z</time>
      </trkpt>
      <trkpt lat="60.44949" lon="5.31981">
        <ele>68.902883</ele>
        <time>2020-07-15T12:34:01.890Z</time>
      </trkpt>
      <trkpt lat="60.4501" lon="5.31937">
        <ele>69.351527</ele>
        <time>2020-07-15T12:34:17.614Z</time>
      </trkpt>
      <trkpt lat="60.4534" lon="5.31775">
        <ele>77.435534</ele>
        <time>2020-07-15T12:35:49.793Z</time>
      </trkpt>
      <trkpt lat="60.45374" lon="5.31777">
        <ele>78.20076</ele>
        <time>2020-07-15T12:35:57.533Z</time>
      </trkpt>
      <trkpt lat="60.45441" lon="5.318">
        <ele>78.737155</ele>
        <time>2020-07-15T12:36:12.406Z</time>
      </trkpt>
      <trkpt lat="60.45556" lon="5.31833">
        <ele>79.630515</ele>
        <time>2020-07-15T12:36:35.059Z</time>
      </trkpt>
      <trkpt lat="60.45569" lon="5.3184">
        <ele>79.978401</ele>
        <time>2020-07-15T12:36:37.827Z</time>
      </trkpt>
      <trkpt lat="60.45578" lon="5.31854">
        <ele>80.277347</ele>
        <time>2020-07-15T12:36:40.231Z</time>
      </trkpt>
      <trkpt lat="60.45579" lon="5.31833">
        <ele>80.551794</ele>
        <time>2020-07-15T12:36:42.358Z</time>
      </trkpt>
      <trkpt lat="60.45579" lon="5.31802">
        <ele>80.945081</ele>
        <time>2020-07-15T12:36:45.457Z</time>
      </trkpt>
      <trkpt lat="60.4557" lon="5.31775">
        <ele>81.379075</ele>
        <time>2020-07-15T12:36:49.206Z</time>
      </trkpt>
      <trkpt lat="60.45549" lon="5.31757">
        <ele>81.992079</ele>
        <time>2020-07-15T12:36:54.877Z</time>
      </trkpt>
      <trkpt lat="60.45539" lon="5.31745">
        <ele>82.297923</ele>
        <time>2020-07-15T12:36:57.984Z</time>
      </trkpt>
      <trkpt lat="60.45535" lon="5.3174">
        <ele>82.424512</ele>
        <time>2020-07-15T12:36:59.259Z</time>
      </trkpt>
      <trkpt lat="60.45523" lon="5.31715">
        <ele>82.868786</ele>
        <time>2020-07-15T12:37:04.600Z</time>
      </trkpt>
      <trkpt lat="60.45519" lon="5.317">
        <ele>83.092552</ele>
        <time>2020-07-15T12:37:07.160Z</time>
      </trkpt>
      <trkpt lat="60.45511" lon="5.3167">
        <ele>83.544654</ele>
        <time>2020-07-15T12:37:11.983Z</time>
      </trkpt>
      <trkpt lat="60.45508" lon="5.3162">
        <ele>84.20061</ele>
        <time>2020-07-15T12:37:20.538Z</time>
      </trkpt>
      <trkpt lat="60.45509" lon="5.31559">
        <ele>85.344031</ele>
        <time>2020-07-15T12:37:30.730Z</time>
      </trkpt>
      <trkpt lat="60.45515" lon="5.31501">
        <ele>86.506572</ele>
        <time>2020-07-15T12:37:40.705Z</time>
      </trkpt>
      <trkpt lat="60.45528" lon="5.31443">
        <ele>87.78308</ele>
        <time>2020-07-15T12:37:50.277Z</time>
      </trkpt>
      <trkpt lat="60.4553" lon="5.31436">
        <ele>87.939735</ele>
        <time>2020-07-15T12:37:52.393Z</time>
      </trkpt>
      <trkpt lat="60.45547" lon="5.3138">
        <ele>89.239477</ele>
        <time>2020-07-15T12:38:02.253Z</time>
      </trkpt>
      <trkpt lat="60.45569" lon="5.31324">
        <ele>90.647483</ele>
        <time>2020-07-15T12:38:13.190Z</time>
      </trkpt>
      <trkpt lat="60.45619" lon="5.31179">
        <ele>90.932033</ele>
        <time>2020-07-15T12:38:34.906Z</time>
      </trkpt>
      <trkpt lat="60.45635" lon="5.31114">
        <ele>90.57784</ele>
        <time>2020-07-15T12:38:40.145Z</time>
      </trkpt>
      <trkpt lat="60.45649" lon="5.31051">
        <ele>90.239965</ele>
        <time>2020-07-15T12:38:44.704Z</time>
      </trkpt>
      <trkpt lat="60.4567" lon="5.30896">
        <ele>88.571329</ele>
        <time>2020-07-15T12:38:54.624Z</time>
      </trkpt>
      <trkpt lat="60.4569" lon="5.30736">
        <ele>85.620561</ele>
        <time>2020-07-15T12:39:04.833Z</time>
      </trkpt>
      <trkpt lat="60.45698" lon="5.30643">
        <ele>83.93941</ele>
        <time>2020-07-15T12:39:10.829Z</time>
      </trkpt>
      <trkpt lat="60.45693" lon="5.30563">
        <ele>82.874812</ele>
        <time>2020-07-15T12:39:16.227Z</time>
      </trkpt>
      <trkpt lat="60.45684" lon="5.30529">
        <ele>82.509821</ele>
        <time>2020-07-15T12:39:18.959Z</time>
      </trkpt>
      <trkpt lat="60.45681" lon="5.30518">
        <ele>82.396489</ele>
        <time>2020-07-15T12:39:19.726Z</time>
      </trkpt>
      <trkpt lat="60.45674" lon="5.30494">
        <ele>82.130092</ele>
        <time>2020-07-15T12:39:21.870Z</time>
      </trkpt>
      <trkpt lat="60.45659" lon="5.30412">
        <ele>81.305243</ele>
        <time>2020-07-15T12:39:28.552Z</time>
      </trkpt>
      <trkpt lat="60.45656" lon="5.30372">
        <ele>80.921439</ele>
        <time>2020-07-15T12:39:31.687Z</time>
      </trkpt>
      <trkpt lat="60.45655" lon="5.30331">
        <ele>80.533159</ele>
        <time>2020-07-15T12:39:35.050Z</time>
      </trkpt>
      <trkpt lat="60.45656" lon="5.30285">
        <ele>80.104415</ele>
        <time>2020-07-15T12:39:38.579Z</time>
      </trkpt>
      <trkpt lat="60.4566" lon="5.30167">
        <ele>77.119224</ele>
        <time>2020-07-15T12:39:46.172Z</time>
      </trkpt>
      <trkpt lat="60.45654" lon="5.30094">
        <ele>74.918333</ele>
        <time>2020-07-15T12:39:50.475Z</time>
      </trkpt>
      <trkpt lat="60.45646" lon="5.30064">
        <ele>73.938228</ele>
        <time>2020-07-15T12:39:52.388Z</time>
      </trkpt>
      <trkpt lat="60.45633" lon="5.30039">
        <ele>72.841005</ele>
        <time>2020-07-15T12:39:54.406Z</time>
      </trkpt>
      <trkpt lat="60.45616" lon="5.30016">
        <ele>71.647344</ele>
        <time>2020-07-15T12:39:56.695Z</time>
      </trkpt>
      <trkpt lat="60.45605" lon="5.30005">
        <ele>70.878188</ele>
        <time>2020-07-15T12:39:58.092Z</time>
      </trkpt>
      <trkpt lat="60.45582" lon="5.29979">
        <ele>69.316008</ele>
        <time>2020-07-15T12:40:00.974Z</time>
      </trkpt>
      <trkpt lat="60.4554" lon="5.29934">
        <ele>66.410259</ele>
        <time>2020-07-15T12:40:06.427Z</time>
      </trkpt>
      <trkpt lat="60.45508" lon="5.29895">
        <ele>64.130154</ele>
        <time>2020-07-15T12:40:10.760Z</time>
      </trkpt>
      <trkpt lat="60.45492" lon="5.29864">
        <ele>62.808928</ele>
        <time>2020-07-15T12:40:13.332Z</time>
      </trkpt>
      <trkpt lat="60.45483" lon="5.29831">
        <ele>61.680653</ele>
        <time>2020-07-15T12:40:15.550Z</time>
      </trkpt>
      <trkpt lat="60.45479" lon="5.29792">
        <ele>60.504651</ele>
        <time>2020-07-15T12:40:17.872Z</time>
      </trkpt>
      <trkpt lat="60.45481" lon="5.29743">
        <ele>59.034633</ele>
        <time>2020-07-15T12:40:20.861Z</time>
      </trkpt>
      <trkpt lat="60.45485" lon="5.29726">
        <ele>58.453077</ele>
        <time>2020-07-15T12:40:22.090Z</time>
      </trkpt>
      <trkpt lat="60.45489" lon="5.29707">
        <ele>57.924712</ele>
        <time>2020-07-15T12:40:23.413Z</time>
      </trkpt>
      <trkpt lat="60.45531" lon="5.29581">
        <ele>54.905416</ele>
        <time>2020-07-15T12:40:32.986Z</time>
      </trkpt>
      <trkpt lat="60.45543" lon="5.29547">
        <ele>54.069478</ele>
        <time>2020-07-15T12:40:35.738Z</time>
      </trkpt>
      <trkpt lat="60.45585" lon="5.29423">
        <ele>51.080493</ele>
        <time>2020-07-15T12:40:45.200Z</time>
      </trkpt>
      <trkpt lat="60.45596" lon="5.2939">
        <ele>50.184595</ele>
        <time>2020-07-15T12:40:47.448Z</time>
      </trkpt>
      <trkpt lat="60.45665" lon="5.29145">
        <ele>43.567486</ele>
        <time>2020-07-15T12:41:03.979Z</time>
      </trkpt>
      <trkpt lat="60.45671" lon="5.29112">
        <ele>42.728808</ele>
        <time>2020-07-15T12:41:06.260Z</time>
      </trkpt>
      <trkpt lat="60.45686" lon="5.29037">
        <ele>41.872775</ele>
        <time>2020-07-15T12:41:11.943Z</time>
      </trkpt>
      <trkpt lat="60.45714" lon="5.28936">
        <ele>41.098449</ele>
        <time>2020-07-15T12:41:20.461Z</time>
      </trkpt>
      <trkpt lat="60.45751" lon="5.28866">
        <ele>40.410129</ele>
        <time>2020-07-15T12:41:28.446Z</time>
      </trkpt>
      <trkpt lat="60.45775" lon="5.28847">
        <ele>40.056499</ele>
        <time>2020-07-15T12:41:32.866Z</time>
      </trkpt>
      <trkpt lat="60.45801" lon="5.28834">
        <ele>39.823334</ele>
        <time>2020-07-15T12:41:37.331Z</time>
      </trkpt>
      <trkpt lat="60.45852" lon="5.28814">
        <ele>39.712895</ele>
        <time>2020-07-15T12:41:46.155Z</time>
      </trkpt>
      <trkpt lat="60.45876" lon="5.28795">
        <ele>39.659273</ele>
        <time>2020-07-15T12:41:50.528Z</time>
      </trkpt>
      <trkpt lat="60.4589" lon="5.28778">
        <ele>39.624891</ele>
        <time>2020-07-15T12:41:53.266Z</time>
      </trkpt>
      <trkpt lat="60.459" lon="5.28766">
        <ele>39.600446</ele>
        <time>2020-07-15T12:41:55.266Z</time>
      </trkpt>
      <trkpt lat="60.4591" lon="5.28749">
        <ele>39.571837</ele>
        <time>2020-07-15T12:41:57.606Z</time>
      </trkpt>
      <trkpt lat="60.45917" lon="5.28737">
        <ele>39.552194</ele>
        <time>2020-07-15T12:41:59.183Z</time>
      </trkpt>
      <trkpt lat="60.4595" lon="5.28657">
        <ele>39.462268</ele>
        <time>2020-07-15T12:42:08.427Z</time>
      </trkpt>
      <trkpt lat="60.45986" lon="5.28448">
        <ele>39.418426</ele>
        <time>2020-07-15T12:42:28.719Z</time>
      </trkpt>
      <trkpt lat="60.4599" lon="5.28438">
        <ele>39.416172</ele>
        <time>2020-07-15T12:42:30.038Z</time>
      </trkpt>
      <trkpt lat="60.46003" lon="5.28399">
        <ele>39.406731</ele>
        <time>2020-07-15T12:42:34.161Z</time>
      </trkpt>
      <trkpt lat="60.46022" lon="5.28357">
        <ele>39.395589</ele>
        <time>2020-07-15T12:42:38.975Z</time>
      </trkpt>
      <trkpt lat="60.46051" lon="5.28309">
        <ele>38.551427</ele>
        <time>2020-07-15T12:42:44.812Z</time>
      </trkpt>
      <trkpt lat="60.46056" lon="5.28299">
        <ele>38.372228</ele>
        <time>2020-07-15T12:42:45.870Z</time>
      </trkpt>
      <trkpt lat="60.46088" lon="5.28253">
        <ele>37.412803</ele>
        <time>2020-07-15T12:42:51.489Z</time>
      </trkpt>
      <trkpt lat="60.46104" lon="5.28234">
        <ele>36.97143</ele>
        <time>2020-07-15T12:42:54.051Z</time>
      </trkpt>
      <trkpt lat="60.4616" lon="5.28161">
        <ele>35.349012</ele>
        <time>2020-07-15T12:43:02.590Z</time>
      </trkpt>
      <trkpt lat="60.46234" lon="5.28074">
        <ele>31.94359</ele>
        <time>2020-07-15T12:43:13.267Z</time>
      </trkpt>
      <trkpt lat="60.46247" lon="5.28057">
        <ele>31.28846</ele>
        <time>2020-07-15T12:43:15.107Z</time>
      </trkpt>
      <trkpt lat="60.46319" lon="5.27914">
        <ele>27.047037</ele>
        <time>2020-07-15T12:43:27.661Z</time>
      </trkpt>
      <trkpt lat="60.46345" lon="5.27876">
        <ele>25.979978</ele>
        <time>2020-07-15T12:43:31.589Z</time>
      </trkpt>
      <trkpt lat="60.46371" lon="5.27848">
        <ele>24.974553</ele>
        <time>2020-07-15T12:43:35.360Z</time>
      </trkpt>
      <trkpt lat="60.46428" lon="5.27806">
        <ele>22.913475</ele>
        <time>2020-07-15T12:43:43.583Z</time>
      </trkpt>
      <trkpt lat="60.46455" lon="5.27782">
        <ele>21.914978</ele>
        <time>2020-07-15T12:43:47.479Z</time>
      </trkpt>
      <trkpt lat="60.46434" lon="5.27764">
        <ele>21.15705</ele>
        <time>2020-07-15T12:43:50.591Z</time>
      </trkpt>
      <trkpt lat="60.46435" lon="5.27729">
        <ele>20.681697</ele>
        <time>2020-07-15T12:43:53.016Z</time>
      </trkpt>
      <trkpt lat="60.46441" lon="5.27707">
        <ele>20.342248</ele>
        <time>2020-07-15T12:43:54.671Z</time>
      </trkpt>
      <trkpt lat="60.46435" lon="5.27729">
        <ele>20.002799</ele>
        <time>2020-07-15T12:43:56.468Z</time>
      </trkpt>
      <trkpt lat="60.46434" lon="5.27764">
        <ele>19.527446</ele>
        <time>2020-07-15T12:43:58.815Z</time>
      </trkpt>
      <trkpt lat="60.46455" lon="5.27782">
        <ele>18.896592</ele>
        <time>2020-07-15T12:44:02.077Z</time>
      </trkpt>
      <trkpt lat="60.46491" lon="5.27734">
        <ele>17.731017</ele>
        <time>2020-07-15T12:44:07.658Z</time>
      </trkpt>
      <trkpt lat="60.46546" lon="5.2766">
        <ele>16.229418</ele>
        <time>2020-07-15T12:44:16.967Z</time>
      </trkpt>
      <trkpt lat="60.46575" lon="5.27643">
        <ele>16.051179</ele>
        <time>2020-07-15T12:44:21.098Z</time>
      </trkpt>
      <trkpt lat="60.46605" lon="5.27644">
        <ele>15.868206</ele>
        <time>2020-07-15T12:44:25.595Z</time>
      </trkpt>
      <trkpt lat="60.46634" lon="5.27661">
        <ele>15.688312</ele>
        <time>2020-07-15T12:44:30.374Z</time>
      </trkpt>
      <trkpt lat="60.46713" lon="5.27732">
        <ele>15.664423</ele>
        <time>2020-07-15T12:44:46.803Z</time>
      </trkpt>
      <trkpt lat="60.46728" lon="5.2775">
        <ele>16.30972</ele>
        <time>2020-07-15T12:44:51.167Z</time>
      </trkpt>
      <trkpt lat="60.46746" lon="5.27765">
        <ele>16.997997</ele>
        <time>2020-07-15T12:44:55.765Z</time>
      </trkpt>
      <trkpt lat="60.46767" lon="5.27776">
        <ele>17.808061</ele>
        <time>2020-07-15T12:45:02.012Z</time>
      </trkpt>
      <trkpt lat="60.46811" lon="5.27774">
        <ele>19.396455</ele>
        <time>2020-07-15T12:45:15.133Z</time>
      </trkpt>
      <trkpt lat="60.46847" lon="5.27739">
        <ele>20.868591</ele>
        <time>2020-07-15T12:45:28.559Z</time>
      </trkpt>
      <trkpt lat="60.46855" lon="5.27725">
        <ele>21.237784</ele>
        <time>2020-07-15T12:45:32.316Z</time>
      </trkpt>
      <trkpt lat="60.4689" lon="5.27664">
        <ele>24.802962</ele>
        <time>2020-07-15T12:45:49.376Z</time>
      </trkpt>
      <trkpt lat="60.46924" lon="5.27606">
        <ele>29.084492</ele>
        <time>2020-07-15T12:46:06.866Z</time>
      </trkpt>
      <trkpt lat="60.46933" lon="5.27591">
        <ele>30.178018</ele>
        <time>2020-07-15T12:46:12.023Z</time>
      </trkpt>
      <trkpt lat="60.46982" lon="5.27514">
        <ele>36.194358</ele>
        <time>2020-07-15T12:46:45.422Z</time>
      </trkpt>
      <trkpt lat="60.47004" lon="5.27489">
        <ele>38.553714</ele>
        <time>2020-07-15T12:47:00.729Z</time>
      </trkpt>
      <trkpt lat="60.47035" lon="5.27486">
        <ele>42.649865</ele>
        <time>2020-07-15T12:47:21.259Z</time>
      </trkpt>
      <trkpt lat="60.47045" lon="5.27501">
        <ele>44.257297</ele>
        <time>2020-07-15T12:47:29.678Z</time>
      </trkpt>
      <trkpt lat="60.47054" lon="5.27484">
        <ele>45.923631</ele>
        <time>2020-07-15T12:47:37.790Z</time>
      </trkpt>
      <trkpt lat="60.47096" lon="5.27404">
        <ele>53.784773</ele>
        <time>2020-07-15T12:48:17.813Z</time>
      </trkpt>
      <trkpt lat="60.47117" lon="5.27364">
        <ele>57.794383</ele>
        <time>2020-07-15T12:48:37.396Z</time>
      </trkpt>
      <trkpt lat="60.47148" lon="5.27311">
        <ele>63.316765</ele>
        <time>2020-07-15T12:49:02.052Z</time>
      </trkpt>
      <trkpt lat="60.47198" lon="5.27225">
        <ele>63.949762</ele>
        <time>2020-07-15T12:49:27.257Z</time>
      </trkpt>
      <trkpt lat="60.47254" lon="5.27111">
        <ele>64.245241</ele>
        <time>2020-07-15T12:49:38.134Z</time>
      </trkpt>
      <trkpt lat="60.47278" lon="5.27061">
        <ele>64.373937</ele>
        <time>2020-07-15T12:49:42.112Z</time>
      </trkpt>
      <trkpt lat="60.47307" lon="5.26981">
        <ele>61.591993</ele>
        <time>2020-07-15T12:49:47.594Z</time>
      </trkpt>
      <trkpt lat="60.47329" lon="5.26918">
        <ele>59.220649</ele>
        <time>2020-07-15T12:49:51.913Z</time>
      </trkpt>
      <trkpt lat="60.47343" lon="5.26881">
        <ele>57.817734</ele>
        <time>2020-07-15T12:49:54.521Z</time>
      </trkpt>
      <trkpt lat="60.47402" lon="5.2673">
        <ele>52.96977</ele>
        <time>2020-07-15T12:50:05.979Z</time>
      </trkpt>
      <trkpt lat="60.47423" lon="5.26675">
        <ele>52.485525</ele>
        <time>2020-07-15T12:50:11.283Z</time>
      </trkpt>
      <trkpt lat="60.47463" lon="5.26576">
        <ele>51.588827</ele>
        <time>2020-07-15T12:50:22.032Z</time>
      </trkpt>
      <trkpt lat="60.47511" lon="5.26448">
        <ele>50.544222</ele>
        <time>2020-07-15T12:50:34.959Z</time>
      </trkpt>
      <trkpt lat="60.47568" lon="5.26337">
        <ele>49.772922</ele>
        <time>2020-07-15T12:50:48.084Z</time>
      </trkpt>
      <trkpt lat="60.47629" lon="5.26264">
        <ele>49.081664</ele>
        <time>2020-07-15T12:50:59.268Z</time>
      </trkpt>
      <trkpt lat="60.47655" lon="5.26227">
        <ele>48.263672</ele>
        <time>2020-07-15T12:51:03.684Z</time>
      </trkpt>
      <trkpt lat="60.47659" lon="5.2622">
        <ele>48.07765</ele>
        <time>2020-07-15T12:51:04.400Z</time>
      </trkpt>
      <trkpt lat="60.47682" lon="5.26186">
        <ele>47.069459</ele>
        <time>2020-07-15T12:51:08.028Z</time>
      </trkpt>
      <trkpt lat="60.47726" lon="5.26093">
        <ele>44.843383</ele>
        <time>2020-07-15T12:51:16.037Z</time>
      </trkpt>
      <trkpt lat="60.47763" lon="5.26018">
        <ele>42.996589</ele>
        <time>2020-07-15T12:51:22.688Z</time>
      </trkpt>
      <trkpt lat="60.47773" lon="5.25989">
        <ele>42.469609</ele>
        <time>2020-07-15T12:51:24.759Z</time>
      </trkpt>
      <trkpt lat="60.47821" lon="5.25866">
        <ele>40.797954</ele>
        <time>2020-07-15T12:51:34.422Z</time>
      </trkpt>
      <trkpt lat="60.47873" lon="5.25835">
        <ele>39.640923</ele>
        <time>2020-07-15T12:51:42.214Z</time>
      </trkpt>
      <trkpt lat="60.47936" lon="5.25852">
        <ele>39.114786</ele>
        <time>2020-07-15T12:51:55.241Z</time>
      </trkpt>
      <trkpt lat="60.47969" lon="5.25841">
        <ele>39.657912</ele>
        <time>2020-07-15T12:52:03.293Z</time>
      </trkpt>
      <trkpt lat="60.47994" lon="5.25838">
        <ele>40.073913</ele>
        <time>2020-07-15T12:52:10.177Z</time>
      </trkpt>
      <trkpt lat="60.48097" lon="5.25739">
        <ele>41.319941</ele>
        <time>2020-07-15T12:52:39.676Z</time>
      </trkpt>
      <trkpt lat="60.48132" lon="5.2573">
        <ele>40.416683</ele>
        <time>2020-07-15T12:52:44.706Z</time>
      </trkpt>
      <trkpt lat="60.48193" lon="5.2573">
        <ele>38.873328</ele>
        <time>2020-07-15T12:52:52.704Z</time>
      </trkpt>
      <trkpt lat="60.48234" lon="5.25729">
        <ele>37.837638</ele>
        <time>2020-07-15T12:52:57.808Z</time>
      </trkpt>
      <trkpt lat="60.48239" lon="5.25711">
        <ele>37.561563</ele>
        <time>2020-07-15T12:52:59.068Z</time>
      </trkpt>
      <trkpt lat="60.48246" lon="5.2569">
        <ele>37.252457</ele>
        <time>2020-07-15T12:53:00.986Z</time>
      </trkpt>
      <trkpt lat="60.48254" lon="5.2567">
        <ele>36.837225</ele>
        <time>2020-07-15T12:53:02.474Z</time>
      </trkpt>
      <trkpt lat="60.48273" lon="5.2567">
        <ele>36.111283</ele>
        <time>2020-07-15T12:53:04.888Z</time>
      </trkpt>
      <trkpt lat="60.48294" lon="5.25675">
        <ele>35.310391</ele>
        <time>2020-07-15T12:53:07.527Z</time>
      </trkpt>
      <trkpt lat="60.48319" lon="5.25696">
        <ele>34.294785</ele>
        <time>2020-07-15T12:53:10.951Z</time>
      </trkpt>
      <trkpt lat="60.48357" lon="5.2575">
        <ele>32.555654</ele>
        <time>2020-07-15T12:53:16.767Z</time>
      </trkpt>
      <trkpt lat="60.48378" lon="5.25797">
        <ele>31.385683</ele>
        <time>2020-07-15T12:53:21.393Z</time>
      </trkpt>
      <trkpt lat="60.48392" lon="5.25838">
        <ele>30.446565</ele>
        <time>2020-07-15T12:53:26.009Z</time>
      </trkpt>
      <trkpt lat="60.48402" lon="5.25875">
        <ele>30.032108</ele>
        <time>2020-07-15T12:53:29.385Z</time>
      </trkpt>
      <trkpt lat="60.48419" lon="5.25896">
        <ele>29.662069</ele>
        <time>2020-07-15T12:53:33.046Z</time>
      </trkpt>
      <trkpt lat="60.48432" lon="5.25912">
        <ele>29.390977</ele>
        <time>2020-07-15T12:53:35.199Z</time>
      </trkpt>
      <trkpt lat="60.48465" lon="5.25928">
        <ele>28.762356</ele>
        <time>2020-07-15T12:53:40.494Z</time>
      </trkpt>
      <trkpt lat="60.48472" lon="5.25943">
        <ele>28.580644</ele>
        <time>2020-07-15T12:53:42.207Z</time>
      </trkpt>
      <trkpt lat="60.48476" lon="5.25971">
        <ele>28.322177</ele>
        <time>2020-07-15T12:53:44.474Z</time>
      </trkpt>
      <trkpt lat="60.48548" lon="5.25924">
        <ele>26.825799</ele>
        <time>2020-07-15T12:53:54.816Z</time>
      </trkpt>
      <trkpt lat="60.4859" lon="5.2591">
        <ele>25.498382</ele>
        <time>2020-07-15T12:54:00.286Z</time>
      </trkpt>
      <trkpt lat="60.48632" lon="5.25916">
        <ele>24.198269</ele>
        <time>2020-07-15T12:54:05.533Z</time>
      </trkpt>
      <trkpt lat="60.48677" lon="5.25942">
        <ele>22.722598</ele>
        <time>2020-07-15T12:54:11.338Z</time>
      </trkpt>
      <trkpt lat="60.487" lon="5.25955">
        <ele>21.985439</ele>
        <time>2020-07-15T12:54:14.489Z</time>
      </trkpt>
      <trkpt lat="60.48731" lon="5.25971">
        <ele>21.556734</ele>
        <time>2020-07-15T12:54:19.144Z</time>
      </trkpt>
      <trkpt lat="60.48754" lon="5.25985">
        <ele>21.719375</ele>
        <time>2020-07-15T12:54:23.329Z</time>
      </trkpt>
      <trkpt lat="60.48803" lon="5.26015">
        <ele>22.0553</ele>
        <time>2020-07-15T12:54:33.738Z</time>
      </trkpt>
      <trkpt lat="60.48887" lon="5.26062">
        <ele>22.631174</ele>
        <time>2020-07-15T12:54:53.612Z</time>
      </trkpt>
      <trkpt lat="60.48907" lon="5.26071">
        <ele>23.327214</ele>
        <time>2020-07-15T12:54:58.893Z</time>
      </trkpt>
      <trkpt lat="60.48938" lon="5.26071">
        <ele>24.438407</ele>
        <time>2020-07-15T12:55:06.518Z</time>
      </trkpt>
      <trkpt lat="60.48999" lon="5.26042">
        <ele>26.758596</ele>
        <time>2020-07-15T12:55:25.809Z</time>
      </trkpt>
      <trkpt lat="60.49015" lon="5.26036">
        <ele>27.371705</ele>
        <time>2020-07-15T12:55:30.296Z</time>
      </trkpt>
      <trkpt lat="60.49033" lon="5.26046">
        <ele>28.052415</ele>
        <time>2020-07-15T12:55:36.951Z</time>
      </trkpt>
      <trkpt lat="60.49059" lon="5.26059">
        <ele>29.034897</ele>
        <time>2020-07-15T12:55:44.930Z</time>
      </trkpt>
      <trkpt lat="60.49068" lon="5.26075">
        <ele>29.617647</ele>
        <time>2020-07-15T12:55:49.898Z</time>
      </trkpt>
      <trkpt lat="60.49074" lon="5.26089">
        <ele>30.238484</ele>
        <time>2020-07-15T12:55:52.529Z</time>
      </trkpt>
      <trkpt lat="60.4908" lon="5.26101">
        <ele>30.777717</ele>
        <time>2020-07-15T12:55:54.736Z</time>
      </trkpt>
      <trkpt lat="60.49081" lon="5.26113">
        <ele>31.189137</ele>
        <time>2020-07-15T12:55:56.846Z</time>
      </trkpt>
      <trkpt lat="60.49082" lon="5.26134">
        <ele>31.853267</ele>
        <time>2020-07-15T12:56:01.689Z</time>
      </trkpt>
      <trkpt lat="60.49085" lon="5.26203">
        <ele>34.087192</ele>
        <time>2020-07-15T12:56:13.825Z</time>
      </trkpt>
      <trkpt lat="60.49063" lon="5.26301">
        <ele>37.582499</ele>
        <time>2020-07-15T12:56:34.276Z</time>
      </trkpt>
      <trkpt lat="60.4906" lon="5.26354">
        <ele>39.297057</ele>
        <time>2020-07-15T12:56:46.698Z</time>
      </trkpt>
      <trkpt lat="60.49028" lon="5.26505">
        <ele>44.158292</ele>
        <time>2020-07-15T12:57:22.096Z</time>
      </trkpt>
      <trkpt lat="60.49001" lon="5.26603">
        <ele>47.344839</ele>
        <time>2020-07-15T12:57:42.541Z</time>
      </trkpt>
      <trkpt lat="60.48998" lon="5.26625">
        <ele>47.980858</ele>
        <time>2020-07-15T12:57:47.036Z</time>
      </trkpt>
      <trkpt lat="60.4899" lon="5.26677">
        <ele>49.52334</ele>
        <time>2020-07-15T12:57:54.638Z</time>
      </trkpt>
      <trkpt lat="60.48994" lon="5.26772">
        <ele>51.528194</ele>
        <time>2020-07-15T12:58:08.550Z</time>
      </trkpt>
      <trkpt lat="60.49006" lon="5.2678">
        <ele>51.656565</ele>
        <time>2020-07-15T12:58:11.445Z</time>
      </trkpt>
      <trkpt lat="60.49026" lon="5.26755">
        <ele>51.895832</ele>
        <time>2020-07-15T12:58:18.006Z</time>
      </trkpt>
      <trkpt lat="60.49041" lon="5.26765">
        <ele>52.051664</ele>
        <time>2020-07-15T12:58:21.217Z</time>
      </trkpt>
      <trkpt lat="60.49044" lon="5.26771">
        <ele>52.095652</ele>
        <time>2020-07-15T12:58:22.427Z</time>
      </trkpt>
      <trkpt lat="60.4905" lon="5.26757">
        <ele>52.188767</ele>
        <time>2020-07-15T12:58:24.720Z</time>
      </trkpt>
      <trkpt lat="60.49143" lon="5.26513">
        <ele>52.57664</ele>
        <time>2020-07-15T12:58:50.364Z</time>
      </trkpt>
      <trkpt lat="60.49198" lon="5.26415">
        <ele>51.668667</ele>
        <time>2020-07-15T12:59:00.918Z</time>
      </trkpt>
      <trkpt lat="60.49254" lon="5.26347">
        <ele>50.949176</ele>
        <time>2020-07-15T12:59:10.445Z</time>
      </trkpt>
      <trkpt lat="60.49283" lon="5.26321">
        <ele>50.807949</ele>
        <time>2020-07-15T12:59:15.309Z</time>
      </trkpt>
      <trkpt lat="60.49278" lon="5.26283">
        <ele>50.722614</ele>
        <time>2020-07-15T12:59:18.121Z</time>
      </trkpt>
      <trkpt lat="60.49286" lon="5.26274">
        <ele>50.680815</ele>
        <time>2020-07-15T12:59:19.893Z</time>
      </trkpt>
      <trkpt lat="60.49294" lon="5.26267">
        <ele>50.644396</ele>
        <time>2020-07-15T12:59:21.341Z</time>
      </trkpt>
      <trkpt lat="60.49306" lon="5.26263">
        <ele>50.591765</ele>
        <time>2020-07-15T12:59:23.051Z</time>
      </trkpt>
      <trkpt lat="60.49326" lon="5.26264">
        <ele>50.500935</ele>
        <time>2020-07-15T12:59:26.543Z</time>
      </trkpt>
      <trkpt lat="60.4934" lon="5.26257">
        <ele>50.439215</ele>
        <time>2020-07-15T12:59:28.586Z</time>
      </trkpt>
      <trkpt lat="60.49369" lon="5.26246">
        <ele>50.308605</ele>
        <time>2020-07-15T12:59:32.941Z</time>
      </trkpt>
      <trkpt lat="60.49388" lon="5.2624">
        <ele>50.224218</ele>
        <time>2020-07-15T12:59:37.418Z</time>
      </trkpt>
      <trkpt lat="60.49415" lon="5.26249">
        <ele>51.477581</ele>
        <time>2020-07-15T12:59:43.846Z</time>
      </trkpt>
      <trkpt lat="60.49454" lon="5.26263">
        <ele>53.714928</ele>
        <time>2020-07-15T13:00:01.699Z</time>
      </trkpt>
      <trkpt lat="60.49497" lon="5.2621">
        <ele>56.582529</ele>
        <time>2020-07-15T13:00:22.868Z</time>
      </trkpt>
      <trkpt lat="60.49508" lon="5.26204">
        <ele>57.273899</ele>
        <time>2020-07-15T13:00:26.858Z</time>
      </trkpt>
      <trkpt lat="60.49519" lon="5.26211">
        <ele>57.901761</ele>
        <time>2020-07-15T13:00:33.072Z</time>
      </trkpt>
      <trkpt lat="60.49528" lon="5.26224">
        <ele>58.55197</ele>
        <time>2020-07-15T13:00:36.835Z</time>
      </trkpt>
      <trkpt lat="60.4954" lon="5.2626">
        <ele>59.760468</ele>
        <time>2020-07-15T13:00:45.547Z</time>
      </trkpt>
      <trkpt lat="60.49555" lon="5.26301">
        <ele>61.078047</ele>
        <time>2020-07-15T13:00:54.326Z</time>
      </trkpt>
      <trkpt lat="60.49564" lon="5.26312">
        <ele>61.583359</ele>
        <time>2020-07-15T13:00:58.333Z</time>
      </trkpt>
      <trkpt lat="60.49635" lon="5.2633">
        <ele>65.069611</ele>
        <time>2020-07-15T13:01:23.548Z</time>
      </trkpt>
      <trkpt lat="60.497" lon="5.2631">
        <ele>68.281447</ele>
        <time>2020-07-15T13:01:48.030Z</time>
      </trkpt>
      <trkpt lat="60.49728" lon="5.26297">
        <ele>69.398377</ele>
        <time>2020-07-15T13:01:53.206Z</time>
      </trkpt>
      <trkpt lat="60.49745" lon="5.26304">
        <ele>69.706399</ele>
        <time>2020-07-15T13:01:57.567Z</time>
      </trkpt>
      <trkpt lat="60.49778" lon="5.26299">
        <ele>70.316414</ele>
        <time>2020-07-15T13:02:06.363Z</time>
      </trkpt>
      <trkpt lat="60.49812" lon="5.26306">
        <ele>70.93342</ele>
        <time>2020-07-15T13:02:17.393Z</time>
      </trkpt>
      <trkpt lat="60.49883" lon="5.26347">
        <ele>72.26558</ele>
        <time>2020-07-15T13:02:36.323Z</time>
      </trkpt>
      <trkpt lat="60.49947" lon="5.26405">
        <ele>66.471293</ele>
        <time>2020-07-15T13:02:45.444Z</time>
      </trkpt>
      <trkpt lat="60.50002" lon="5.26428">
        <ele>60.751712</ele>
        <time>2020-07-15T13:02:51.419Z</time>
      </trkpt>
      <trkpt lat="60.50032" lon="5.26428">
        <ele>57.719375</ele>
        <time>2020-07-15T13:02:54.508Z</time>
      </trkpt>
      <trkpt lat="60.50045" lon="5.26423">
        <ele>56.327202</ele>
        <time>2020-07-15T13:02:55.913Z</time>
      </trkpt>
      <trkpt lat="60.50064" lon="5.26413">
        <ele>54.328476</ele>
        <time>2020-07-15T13:02:57.915Z</time>
      </trkpt>
      <trkpt lat="60.50087" lon="5.26399">
        <ele>51.077086</ele>
        <time>2020-07-15T13:03:00.375Z</time>
      </trkpt>
      <trkpt lat="60.50117" lon="5.26386">
        <ele>46.849566</ele>
        <time>2020-07-15T13:03:03.459Z</time>
      </trkpt>
      <trkpt lat="60.50234" lon="5.26374">
        <ele>30.460521</ele>
        <time>2020-07-15T13:03:15.765Z</time>
      </trkpt>
      <trkpt lat="60.50284" lon="5.26391">
        <ele>28.443441</ele>
        <time>2020-07-15T13:03:22.057Z</time>
      </trkpt>
      <trkpt lat="60.50326" lon="5.26425">
        <ele>27.784618</ele>
        <time>2020-07-15T13:03:29.566Z</time>
      </trkpt>
      <trkpt lat="60.50396" lon="5.2652">
        <ele>26.569348</ele>
        <time>2020-07-15T13:03:49.206Z</time>
      </trkpt>
      <trkpt lat="60.50433" lon="5.26549">
        <ele>26.73459</ele>
        <time>2020-07-15T13:03:57.319Z</time>
      </trkpt>
      <trkpt lat="60.50475" lon="5.26574">
        <ele>27.211792</ele>
        <time>2020-07-15T13:04:04.744Z</time>
      </trkpt>
      <trkpt lat="60.50484" lon="5.26585">
        <ele>27.330933</ele>
        <time>2020-07-15T13:04:07.296Z</time>
      </trkpt>
      <trkpt lat="60.50492" lon="5.266">
        <ele>27.451092</ele>
        <time>2020-07-15T13:04:10.419Z</time>
      </trkpt>
      <trkpt lat="60.50498" lon="5.26609">
        <ele>27.526857</ele>
        <time>2020-07-15T13:04:12.079Z</time>
      </trkpt>
      <trkpt lat="60.50523" lon="5.26651">
        <ele>27.883973</ele>
        <time>2020-07-15T13:04:19.868Z</time>
      </trkpt>
      <trkpt lat="60.50547" lon="5.26691">
        <ele>28.230349</ele>
        <time>2020-07-15T13:04:26.740Z</time>
      </trkpt>
      <trkpt lat="60.50568" lon="5.26719">
        <ele>28.595696</ele>
        <time>2020-07-15T13:04:31.224Z</time>
      </trkpt>
      <trkpt lat="60.50581" lon="5.26733">
        <ele>28.884005</ele>
        <time>2020-07-15T13:04:34.269Z</time>
      </trkpt>
      <trkpt lat="60.50594" lon="5.26738">
        <ele>29.133758</ele>
        <time>2020-07-15T13:04:36.405Z</time>
      </trkpt>
      <trkpt lat="60.5059" lon="5.26761">
        <ele>29.363828</ele>
        <time>2020-07-15T13:04:39.182Z</time>
      </trkpt>
      <trkpt lat="60.5059" lon="5.26775">
        <ele>29.493047</ele>
        <time>2020-07-15T13:04:40.934Z</time>
      </trkpt>
      <trkpt lat="60.50592" lon="5.26804">
        <ele>29.77498</ele>
        <time>2020-07-15T13:04:43.881Z</time>
      </trkpt>
      <trkpt lat="60.50597" lon="5.26822">
        <ele>29.972585</ele>
        <time>2020-07-15T13:04:46.072Z</time>
      </trkpt>
      <trkpt lat="60.50632" lon="5.26901">
        <ele>30.993634</ele>
        <time>2020-07-15T13:04:56.541Z</time>
      </trkpt>
      <trkpt lat="60.50673" lon="5.26954">
        <ele>32.183762</ele>
        <time>2020-07-15T13:05:10.051Z</time>
      </trkpt>
      <trkpt lat="60.507" lon="5.27027">
        <ele>37.224788</ele>
        <time>2020-07-15T13:05:27.213Z</time>
      </trkpt>
      <trkpt lat="60.50707" lon="5.27041">
        <ele>38.252994</ele>
        <time>2020-07-15T13:05:29.716Z</time>
      </trkpt>
      <trkpt lat="60.50713" lon="5.27055">
        <ele>39.317318</ele>
        <time>2020-07-15T13:05:34.891Z</time>
      </trkpt>
      <trkpt lat="60.5072" lon="5.27079">
        <ele>40.812787</ele>
        <time>2020-07-15T13:05:44.940Z</time>
      </trkpt>
      <trkpt lat="60.50725" lon="5.27137">
        <ele>44.07952</ele>
        <time>2020-07-15T13:06:02.326Z</time>
      </trkpt>
      <trkpt lat="60.50727" lon="5.27175">
        <ele>46.16845</ele>
        <time>2020-07-15T13:06:14.475Z</time>
      </trkpt>
      <trkpt lat="60.50727" lon="5.27191">
        <ele>47.041896</ele>
        <time>2020-07-15T13:06:20.015Z</time>
      </trkpt>
      <trkpt lat="60.50728" lon="5.27246">
        <ele>50.066464</ele>
        <time>2020-07-15T13:06:36.936Z</time>
      </trkpt>
      <trkpt lat="60.50732" lon="5.27349">
        <ele>55.724683</ele>
        <time>2020-07-15T13:07:09.296Z</time>
      </trkpt>
      <trkpt lat="60.50734" lon="5.27366">
        <ele>56.69431</ele>
        <time>2020-07-15T13:07:17.265Z</time>
      </trkpt>
      <trkpt lat="60.50735" lon="5.27372">
        <ele>57.014071</ele>
        <time>2020-07-15T13:07:19.210Z</time>
      </trkpt>
      <trkpt lat="60.50738" lon="5.27382">
        <ele>57.623387</ele>
        <time>2020-07-15T13:07:23.059Z</time>
      </trkpt>
      <trkpt lat="60.50741" lon="5.27392">
        <ele>58.292428</ele>
        <time>2020-07-15T13:07:27.261Z</time>
      </trkpt>
      <trkpt lat="60.50743" lon="5.27399">
        <ele>58.756094</ele>
        <time>2020-07-15T13:07:30.722Z</time>
      </trkpt>
      <trkpt lat="60.50747" lon="5.27405">
        <ele>59.254679</ele>
        <time>2020-07-15T13:07:32.793Z</time>
      </trkpt>
      <trkpt lat="60.50766" lon="5.27411">
        <ele>61.380747</ele>
        <time>2020-07-15T13:07:46.604Z</time>
      </trkpt>
      <trkpt lat="60.50808" lon="5.27403">
        <ele>66.067163</ele>
        <time>2020-07-15T13:08:14.306Z</time>
      </trkpt>
      <trkpt lat="60.50821" lon="5.27411">
        <ele>67.611931</ele>
        <time>2020-07-15T13:08:19.943Z</time>
      </trkpt>
      <trkpt lat="60.50842" lon="5.27429">
        <ele>70.091908</ele>
        <time>2020-07-15T13:08:29.277Z</time>
      </trkpt>
      <trkpt lat="60.50879" lon="5.27448">
        <ele>69.668021</ele>
        <time>2020-07-15T13:08:37.945Z</time>
      </trkpt>
      <trkpt lat="60.50891" lon="5.27452">
        <ele>68.433252</ele>
        <time>2020-07-15T13:08:39.346Z</time>
      </trkpt>
      <trkpt lat="60.50902" lon="5.27457">
        <ele>67.234731</ele>
        <time>2020-07-15T13:08:40.574Z</time>
      </trkpt>
      <trkpt lat="60.50927" lon="5.27477">
        <ele>64.496654</ele>
        <time>2020-07-15T13:08:43.529Z</time>
      </trkpt>
      <trkpt lat="60.50942" lon="5.27488">
        <ele>62.879289</ele>
        <time>2020-07-15T13:08:45.194Z</time>
      </trkpt>
      <trkpt lat="60.50954" lon="5.27498">
        <ele>61.579776</ele>
        <time>2020-07-15T13:08:46.626Z</time>
      </trkpt>
      <trkpt lat="60.50973" lon="5.27509">
        <ele>59.582927</ele>
        <time>2020-07-15T13:08:48.645Z</time>
      </trkpt>
      <trkpt lat="60.51101" lon="5.27535">
        <ele>44.758011</ele>
        <time>2020-07-15T13:09:01.941Z</time>
      </trkpt>
      <trkpt lat="60.51124" lon="5.27561">
        <ele>41.385671</ele>
        <time>2020-07-15T13:09:04.685Z</time>
      </trkpt>
      <trkpt lat="60.51189" lon="5.27671">
        <ele>30.866798</ele>
        <time>2020-07-15T13:09:13.934Z</time>
      </trkpt>
      <trkpt lat="60.51239" lon="5.27716">
        <ele>31.017835</ele>
        <time>2020-07-15T13:09:21.108Z</time>
      </trkpt>
      <trkpt lat="60.51274" lon="5.27815">
        <ele>31.182959</ele>
        <time>2020-07-15T13:09:39.840Z</time>
      </trkpt>
      <trkpt lat="60.51309" lon="5.27853">
        <ele>31.293689</ele>
        <time>2020-07-15T13:09:50.652Z</time>
      </trkpt>
      <trkpt lat="60.51324" lon="5.27871">
        <ele>31.340709</ele>
        <time>2020-07-15T13:09:53.575Z</time>
      </trkpt>
      <trkpt lat="60.51334" lon="5.27884">
        <ele>31.405357</ele>
        <time>2020-07-15T13:10:02.019Z</time>
      </trkpt>
      <trkpt lat="60.51348" lon="5.27912">
        <ele>31.568642</ele>
        <time>2020-07-15T13:10:04.216Z</time>
      </trkpt>
      <trkpt lat="60.51361" lon="5.27991">
        <ele>31.917321</ele>
        <time>2020-07-15T13:10:14.938Z</time>
      </trkpt>
      <trkpt lat="60.51369" lon="5.28007">
        <ele>32.008918</ele>
        <time>2020-07-15T13:10:23.053Z</time>
      </trkpt>
      <trkpt lat="60.51377" lon="5.28017">
        <ele>32.096811</ele>
        <time>2020-07-15T13:10:24.155Z</time>
      </trkpt>
      <trkpt lat="60.51434" lon="5.28036">
        <ele>32.580545</ele>
        <time>2020-07-15T13:10:39.897Z</time>
      </trkpt>
      <trkpt lat="60.51456" lon="5.28049">
        <ele>32.775381</ele>
        <time>2020-07-15T13:10:42.659Z</time>
      </trkpt>
      <trkpt lat="60.51468" lon="5.28056">
        <ele>32.881933</ele>
        <time>2020-07-15T13:10:47.315Z</time>
      </trkpt>
      <trkpt lat="60.51491" lon="5.28074">
        <ele>31.778571</ele>
        <time>2020-07-15T13:10:50.037Z</time>
      </trkpt>
      <trkpt lat="60.51499" lon="5.28085">
        <ele>31.339125</ele>
        <time>2020-07-15T13:10:53.121Z</time>
      </trkpt>
      <trkpt lat="60.51504" lon="5.28095">
        <ele>30.999873</ele>
        <time>2020-07-15T13:10:54.833Z</time>
      </trkpt>
      <trkpt lat="60.51523" lon="5.28186">
        <ele>28.790287</ele>
        <time>2020-07-15T13:11:00.185Z</time>
      </trkpt>
      <trkpt lat="60.51536" lon="5.28222">
        <ele>27.788563</ele>
        <time>2020-07-15T13:11:02.938Z</time>
      </trkpt>
      <trkpt lat="60.51552" lon="5.28242">
        <ele>26.912019</ele>
        <time>2020-07-15T13:11:05.075Z</time>
      </trkpt>
      <trkpt lat="60.51571" lon="5.28245">
        <ele>26.074243</ele>
        <time>2020-07-15T13:11:07.817Z</time>
      </trkpt>
      <trkpt lat="60.51579" lon="5.28242">
        <ele>25.670476</ele>
        <time>2020-07-15T13:11:08.872Z</time>
      </trkpt>
      <trkpt lat="60.5158" lon="5.28252">
        <ele>25.439226</ele>
        <time>2020-07-15T13:11:09.623Z</time>
      </trkpt>
      <trkpt lat="60.51591" lon="5.28246">
        <ele>24.937817</ele>
        <time>2020-07-15T13:11:12.410Z</time>
      </trkpt>
      <trkpt lat="60.51605" lon="5.28255">
        <ele>24.444802</ele>
        <time>2020-07-15T13:11:16.061Z</time>
      </trkpt>
      <trkpt lat="60.51607" lon="5.28282">
        <ele>24.127516</ele>
        <time>2020-07-15T13:11:19.157Z</time>
      </trkpt>
      <trkpt lat="60.51599" lon="5.28322">
        <ele>23.617014</ele>
        <time>2020-07-15T13:11:24.337Z</time>
      </trkpt>
      <trkpt lat="60.51608" lon="5.2833">
        <ele>23.393941</ele>
        <time>2020-07-15T13:11:25.918Z</time>
      </trkpt>
      <trkpt lat="60.51612" lon="5.28334">
        <ele>23.277873</ele>
        <time>2020-07-15T13:11:26.859Z</time>
      </trkpt>
      <trkpt lat="60.51625" lon="5.28306">
        <ele>22.822175</ele>
        <time>2020-07-15T13:11:31.643Z</time>
      </trkpt>
      <trkpt lat="60.51637" lon="5.28274">
        <ele>22.339928</ele>
        <time>2020-07-15T13:11:36.368Z</time>
      </trkpt>
      <trkpt lat="60.51643" lon="5.28273">
        <ele>22.191878</ele>
        <time>2020-07-15T13:11:37.870Z</time>
      </trkpt>
      <trkpt lat="60.51644" lon="5.28286">
        <ele>22.034539</ele>
        <time>2020-07-15T13:11:39.615Z</time>
      </trkpt>
      <trkpt lat="60.51635" lon="5.28329">
        <ele>21.475649</ele>
        <time>2020-07-15T13:11:45.181Z</time>
      </trkpt>
      <trkpt lat="60.51638" lon="5.28335">
        <ele>21.38628</ele>
        <time>2020-07-15T13:11:46.068Z</time>
      </trkpt>
      <trkpt lat="60.51653" lon="5.28368">
        <ele>20.850984</ele>
        <time>2020-07-15T13:11:49.556Z</time>
      </trkpt>
      <trkpt lat="60.51656" lon="5.28375">
        <ele>20.742186</ele>
        <time>2020-07-15T13:11:50.780Z</time>
      </trkpt>
      <trkpt lat="60.51658" lon="5.28383">
        <ele>20.630847</ele>
        <time>2020-07-15T13:11:52.005Z</time>
      </trkpt>
      <trkpt lat="60.51659" lon="5.28392">
        <ele>20.519209</ele>
        <time>2020-07-15T13:11:53.174Z</time>
      </trkpt>
      <trkpt lat="60.51659" lon="5.2843">
        <ele>20.147129</ele>
        <time>2020-07-15T13:11:58.023Z</time>
      </trkpt>
      <trkpt lat="60.51665" lon="5.28431">
        <ele>20.04529</ele>
        <time>2020-07-15T13:11:59.634Z</time>
      </trkpt>
      <trkpt lat="60.51677" lon="5.28379">
        <ele>19.566169</ele>
        <time>2020-07-15T13:12:07.141Z</time>
      </trkpt>
      <trkpt lat="60.51712" lon="5.28322">
        <ele>18.807109</ele>
        <time>2020-07-15T13:12:19.066Z</time>
      </trkpt>
      <trkpt lat="60.51715" lon="5.28319">
        <ele>18.758483</ele>
        <time>2020-07-15T13:12:19.805Z</time>
      </trkpt>
      <trkpt lat="60.51752" lon="5.28229">
        <ele>17.782054</ele>
        <time>2020-07-15T13:12:28.313Z</time>
      </trkpt>
      <trkpt lat="60.51799" lon="5.28116">
        <ele>16.545952</ele>
        <time>2020-07-15T13:12:39.174Z</time>
      </trkpt>
      <trkpt lat="60.51817" lon="5.2805">
        <ele>15.919968</ele>
        <time>2020-07-15T13:12:44.895Z</time>
      </trkpt>
      <trkpt lat="60.5184" lon="5.27955">
        <ele>15.032847</ele>
        <time>2020-07-15T13:12:52.657Z</time>
      </trkpt>
      <trkpt lat="60.51847" lon="5.27925">
        <ele>14.762935</ele>
        <time>2020-07-15T13:12:55.316Z</time>
      </trkpt>
      <trkpt lat="60.51867" lon="5.27836">
        <ele>14.1037</ele>
        <time>2020-07-15T13:13:02.209Z</time>
      </trkpt>
      <trkpt lat="60.51872" lon="5.27813">
        <ele>14.004793</ele>
        <time>2020-07-15T13:13:04.632Z</time>
      </trkpt>
      <trkpt lat="60.51894" lon="5.27739">
        <ele>13.662863</ele>
        <time>2020-07-15T13:13:13.216Z</time>
      </trkpt>
      <trkpt lat="60.51909" lon="5.27696">
        <ele>13.454916</ele>
        <time>2020-07-15T13:13:18.554Z</time>
      </trkpt>
      <trkpt lat="60.51933" lon="5.27637">
        <ele>13.150028</ele>
        <time>2020-07-15T13:13:25.740Z</time>
      </trkpt>
      <trkpt lat="60.5194" lon="5.27608">
        <ele>13.024</ele>
        <time>2020-07-15T13:13:28.187Z</time>
      </trkpt>
      <trkpt lat="60.51916" lon="5.27565">
        <ele>12.696691</ele>
        <time>2020-07-15T13:13:32.766Z</time>
      </trkpt>
      <trkpt lat="60.51907" lon="5.27573">
        <ele>12.416917</ele>
        <time>2020-07-15T13:13:34.298Z</time>
      </trkpt>
      <trkpt lat="60.51897" lon="5.27589">
        <ele>12.063294</ele>
        <time>2020-07-15T13:13:36.223Z</time>
      </trkpt>
      <trkpt lat="60.51892" lon="5.27612">
        <ele>11.723856</ele>
        <time>2020-07-15T13:13:37.800Z</time>
      </trkpt>
      <trkpt lat="60.51893" lon="5.27622">
        <ele>11.583742</ele>
        <time>2020-07-15T13:13:38.767Z</time>
      </trkpt>
      <trkpt lat="60.51898" lon="5.27625">
        <ele>11.443367</ele>
        <time>2020-07-15T13:13:39.417Z</time>
      </trkpt>
      <trkpt lat="60.51909" lon="5.27613">
        <ele>11.095948</ele>
        <time>2020-07-15T13:13:41.213Z</time>
      </trkpt>
      <trkpt lat="60.51914" lon="5.27598">
        <ele>10.84942</ele>
        <time>2020-07-15T13:13:42.332Z</time>
      </trkpt>
      <trkpt lat="60.51996" lon="5.27363">
        <ele>7.032604</ele>
        <time>2020-07-15T13:14:02.077Z</time>
      </trkpt>
      <trkpt lat="60.52153" lon="5.26923">
        <ele>1.410989</ele>
        <time>2020-07-15T13:14:40.934Z</time>
      </trkpt>
      <trkpt lat="60.52212" lon="5.26781">
        <ele>0.338296</ele>
        <time>2020-07-15T13:14:56.358Z</time>
      </trkpt>
      <trkpt lat="60.52327" lon="5.26547">
        <ele>0.01714</ele>
        <time>2020-07-15T13:15:26.132Z</time>
      </trkpt>
      <trkpt lat="60.52428" lon="5.26377">
        <ele>0.003544</ele>
        <time>2020-07-15T13:15:50.524Z</time>
      </trkpt>
      <trkpt lat="60.5255" lon="5.26206">
        <ele>1.0E-5</ele>
        <time>2020-07-15T13:16:18.114Z</time>
      </trkpt>
      <trkpt lat="60.52684" lon="5.26056">
        <ele>0.030593</ele>
        <time>2020-07-15T13:16:46.466Z</time>
      </trkpt>
      <trkpt lat="60.52826" lon="5.25934">
        <ele>0.16107</ele>
        <time>2020-07-15T13:17:15.269Z</time>
      </trkpt>
      <trkpt lat="60.52973" lon="5.25841">
        <ele>0.478722</ele>
        <time>2020-07-15T13:17:44.997Z</time>
      </trkpt>
      <trkpt lat="60.53018" lon="5.25819">
        <ele>0.643597</ele>
        <time>2020-07-15T13:17:54.001Z</time>
      </trkpt>
      <trkpt lat="60.53045" lon="5.25804">
        <ele>0.744676</ele>
        <time>2020-07-15T13:17:59.553Z</time>
      </trkpt>
      <trkpt lat="60.53086" lon="5.25772">
        <ele>0.904568</ele>
        <time>2020-07-15T13:18:08.498Z</time>
      </trkpt>
      <trkpt lat="60.53163" lon="5.25735">
        <ele>1.809418</ele>
        <time>2020-07-15T13:18:24.033Z</time>
      </trkpt>
      <trkpt lat="60.53172" lon="5.25722">
        <ele>1.977022</ele>
        <time>2020-07-15T13:18:26.453Z</time>
      </trkpt>
      <trkpt lat="60.53177" lon="5.257">
        <ele>2.159185</ele>
        <time>2020-07-15T13:18:28.779Z</time>
      </trkpt>
      <trkpt lat="60.53181" lon="5.25668">
        <ele>2.406756</ele>
        <time>2020-07-15T13:18:32.027Z</time>
      </trkpt>
      <trkpt lat="60.53186" lon="5.25642">
        <ele>2.620586</ele>
        <time>2020-07-15T13:18:35.052Z</time>
      </trkpt>
      <trkpt lat="60.5319" lon="5.256">
        <ele>2.939131</ele>
        <time>2020-07-15T13:18:39.328Z</time>
      </trkpt>
      <trkpt lat="60.53192" lon="5.2558">
        <ele>3.095516</ele>
        <time>2020-07-15T13:18:42.174Z</time>
      </trkpt>
      <trkpt lat="60.53196" lon="5.25557">
        <ele>3.27567</ele>
        <time>2020-07-15T13:18:45.747Z</time>
      </trkpt>
      <trkpt lat="60.53198" lon="5.25547">
        <ele>3.353689</ele>
        <time>2020-07-15T13:18:47.105Z</time>
      </trkpt>
      <trkpt lat="60.53229" lon="5.25563">
        <ele>4.080342</ele>
        <time>2020-07-15T13:18:56.633Z</time>
      </trkpt>
      <trkpt lat="60.53242" lon="5.25571">
        <ele>4.842822</ele>
        <time>2020-07-15T13:19:00.602Z</time>
      </trkpt>
      <trkpt lat="60.53253" lon="5.2557">
        <ele>5.450028</ele>
        <time>2020-07-15T13:19:04.524Z</time>
      </trkpt>
      <trkpt lat="60.53268" lon="5.25577">
        <ele>6.249181</ele>
        <time>2020-07-15T13:19:11.375Z</time>
      </trkpt>
      <trkpt lat="60.53298" lon="5.25635">
        <ele>8.535607</ele>
        <time>2020-07-15T13:19:27.413Z</time>
      </trkpt>
      <trkpt lat="60.53296" lon="5.25648">
        <ele>8.923397</ele>
        <time>2020-07-15T13:19:29.938Z</time>
      </trkpt>
      <trkpt lat="60.53288" lon="5.25673">
        <ele>9.693995</ele>
        <time>2020-07-15T13:19:34.931Z</time>
      </trkpt>
      <trkpt lat="60.53287" lon="5.25682">
        <ele>9.949455</ele>
        <time>2020-07-15T13:19:38.173Z</time>
      </trkpt>
      <trkpt lat="60.533" lon="5.25716">
        <ele>11.128277</ele>
        <time>2020-07-15T13:19:46.833Z</time>
      </trkpt>
      <trkpt lat="60.53314" lon="5.25722">
        <ele>11.878718</ele>
        <time>2020-07-15T13:19:53.982Z</time>
      </trkpt>
      <trkpt lat="60.53318" lon="5.25719">
        <ele>12.109052</ele>
        <time>2020-07-15T13:19:57.140Z</time>
      </trkpt>
      <trkpt lat="60.53322" lon="5.2571">
        <ele>12.431488</ele>
        <time>2020-07-15T13:19:58.898Z</time>
      </trkpt>
      <trkpt lat="60.53326" lon="5.25699">
        <ele>12.814379</ele>
        <time>2020-07-15T13:20:01.407Z</time>
      </trkpt>
      <trkpt lat="60.53363" lon="5.25769">
        <ele>15.66238</ele>
        <time>2020-07-15T13:20:22.012Z</time>
      </trkpt>
      <trkpt lat="60.53391" lon="5.25803">
        <ele>17.526402</ele>
        <time>2020-07-15T13:20:35.416Z</time>
      </trkpt>
      <trkpt lat="60.53401" lon="5.25811">
        <ele>18.12485</ele>
        <time>2020-07-15T13:20:42.091Z</time>
      </trkpt>
      <trkpt lat="60.53414" lon="5.25817">
        <ele>18.885917</ele>
        <time>2020-07-15T13:20:45.696Z</time>
      </trkpt>
      <trkpt lat="60.53422" lon="5.25818">
        <ele>19.346408</ele>
        <time>2020-07-15T13:20:48.176Z</time>
      </trkpt>
      <trkpt lat="60.53432" lon="5.25846">
        <ele>20.311851</ele>
        <time>2020-07-15T13:20:55.653Z</time>
      </trkpt>
      <trkpt lat="60.53445" lon="5.25867">
        <ele>21.263333</ele>
        <time>2020-07-15T13:21:00.111Z</time>
      </trkpt>
      <trkpt lat="60.53465" lon="5.25881">
        <ele>22.447064</ele>
        <time>2020-07-15T13:21:07.514Z</time>
      </trkpt>
      <trkpt lat="60.53515" lon="5.25895">
        <ele>24.491472</ele>
        <time>2020-07-15T13:21:22.012Z</time>
      </trkpt>
      <trkpt lat="60.53577" lon="5.25882">
        <ele>26.135654</ele>
        <time>2020-07-15T13:21:39.278Z</time>
      </trkpt>
      <trkpt lat="60.5365" lon="5.25831">
        <ele>28.131946</ele>
        <time>2020-07-15T13:21:58.047Z</time>
      </trkpt>
      <trkpt lat="60.53759" lon="5.25851">
        <ele>30.934068</ele>
        <time>2020-07-15T13:22:26.829Z</time>
      </trkpt>
      <trkpt lat="60.53829" lon="5.25903">
        <ele>32.8469</ele>
        <time>2020-07-15T13:22:47.709Z</time>
      </trkpt>
      <trkpt lat="60.5395" lon="5.26054">
        <ele>36.185261</ele>
        <time>2020-07-15T13:23:26.097Z</time>
      </trkpt>
      <trkpt lat="60.54096" lon="5.26147">
        <ele>39.721361</ele>
        <time>2020-07-15T13:24:02.186Z</time>
      </trkpt>
      <trkpt lat="60.54108" lon="5.26161">
        <ele>40.040487</ele>
        <time>2020-07-15T13:24:05.956Z</time>
      </trkpt>
      <trkpt lat="60.54127" lon="5.26188">
        <ele>40.568811</ele>
        <time>2020-07-15T13:24:11.875Z</time>
      </trkpt>
      <trkpt lat="60.54181" lon="5.26282">
        <ele>42.436341</ele>
        <time>2020-07-15T13:24:33.145Z</time>
      </trkpt>
      <trkpt lat="60.54196" lon="5.26323">
        <ele>43.202191</ele>
        <time>2020-07-15T13:24:41.722Z</time>
      </trkpt>
      <trkpt lat="60.54199" lon="5.26332">
        <ele>43.357648</ele>
        <time>2020-07-15T13:24:43.336Z</time>
      </trkpt>
      <trkpt lat="60.54211" lon="5.26367">
        <ele>43.989386</ele>
        <time>2020-07-15T13:24:50.329Z</time>
      </trkpt>
      <trkpt lat="60.54239" lon="5.26494">
        <ele>46.04678</ele>
        <time>2020-07-15T13:25:12.536Z</time>
      </trkpt>
      <trkpt lat="60.54242" lon="5.26517">
        <ele>46.412753</ele>
        <time>2020-07-15T13:25:16.625Z</time>
      </trkpt>
      <trkpt lat="60.54243" lon="5.26527">
        <ele>46.553333</ele>
        <time>2020-07-15T13:25:17.395Z</time>
      </trkpt>
      <trkpt lat="60.54245" lon="5.26545">
        <ele>46.83047</ele>
        <time>2020-07-15T13:25:20.274Z</time>
      </trkpt>
      <trkpt lat="60.5424" lon="5.26594">
        <ele>44.867548</ele>
        <time>2020-07-15T13:25:25.372Z</time>
      </trkpt>
      <trkpt lat="60.5424" lon="5.26608">
        <ele>44.284527</ele>
        <time>2020-07-15T13:25:26.611Z</time>
      </trkpt>
      <trkpt lat="60.54244" lon="5.26666">
        <ele>41.958109</ele>
        <time>2020-07-15T13:25:31.424Z</time>
      </trkpt>
      <trkpt lat="60.54246" lon="5.26738">
        <ele>39.092797</ele>
        <time>2020-07-15T13:25:36.737Z</time>
      </trkpt>
      <trkpt lat="60.54244" lon="5.26746">
        <ele>38.704984</ele>
        <time>2020-07-15T13:25:37.429Z</time>
      </trkpt>
      <trkpt lat="60.54222" lon="5.26788">
        <ele>36.265339</ele>
        <time>2020-07-15T13:25:40.844Z</time>
      </trkpt>
      <trkpt lat="60.54219" lon="5.26796">
        <ele>35.877073</ele>
        <time>2020-07-15T13:25:41.519Z</time>
      </trkpt>
      <trkpt lat="60.54217" lon="5.26821">
        <ele>34.827828</ele>
        <time>2020-07-15T13:25:43.454Z</time>
      </trkpt>
      <trkpt lat="60.54218" lon="5.26839">
        <ele>34.125785</ele>
        <time>2020-07-15T13:25:44.676Z</time>
      </trkpt>
      <trkpt lat="60.54237" lon="5.26904">
        <ele>30.711392</ele>
        <time>2020-07-15T13:25:48.751Z</time>
      </trkpt>
      <trkpt lat="60.54254" lon="5.26982">
        <ele>26.113326</ele>
        <time>2020-07-15T13:25:53.304Z</time>
      </trkpt>
      <trkpt lat="60.54328" lon="5.27325">
        <ele>12.900869</ele>
        <time>2020-07-15T13:26:14.551Z</time>
      </trkpt>
      <trkpt lat="60.54482" lon="5.28038">
        <ele>29.307253</ele>
        <time>2020-07-15T13:28:40.582Z</time>
      </trkpt>
      <trkpt lat="60.54495" lon="5.28104">
        <ele>31.248386</ele>
        <time>2020-07-15T13:28:53.344Z</time>
      </trkpt>
      <trkpt lat="60.54499" lon="5.28134">
        <ele>32.088962</ele>
        <time>2020-07-15T13:28:59.349Z</time>
      </trkpt>
      <trkpt lat="60.5448" lon="5.28038">
        <ele>34.919813</ele>
        <time>2020-07-15T13:29:15.298Z</time>
      </trkpt>
      <trkpt lat="60.5449" lon="5.28028">
        <ele>35.570078</ele>
        <time>2020-07-15T13:29:18.880Z</time>
      </trkpt>
      <trkpt lat="60.54496" lon="5.28034">
        <ele>35.951496</ele>
        <time>2020-07-15T13:29:21.668Z</time>
      </trkpt>
      <trkpt lat="60.54497" lon="5.28024">
        <ele>36.247561</ele>
        <time>2020-07-15T13:29:24.280Z</time>
      </trkpt>
      <trkpt lat="60.54501" lon="5.27992">
        <ele>37.165049</ele>
        <time>2020-07-15T13:29:28.204Z</time>
      </trkpt>
      <trkpt lat="60.54518" lon="5.27999">
        <ele>38.184712</ele>
        <time>2020-07-15T13:29:34.864Z</time>
      </trkpt>
      <trkpt lat="60.54533" lon="5.28016">
        <ele>39.146703</ele>
        <time>2020-07-15T13:29:40.320Z</time>
      </trkpt>
      <trkpt lat="60.54578" lon="5.28038">
        <ele>41.820661</ele>
        <time>2020-07-15T13:29:57.071Z</time>
      </trkpt>
      <trkpt lat="60.54614" lon="5.28036">
        <ele>43.947627</ele>
        <time>2020-07-15T13:30:11.914Z</time>
      </trkpt>
      <trkpt lat="60.54616" lon="5.28048">
        <ele>44.304138</ele>
        <time>2020-07-15T13:30:14.741Z</time>
      </trkpt>
      <trkpt lat="60.54617" lon="5.28055">
        <ele>44.508304</ele>
        <time>2020-07-15T13:30:16.971Z</time>
      </trkpt>
      <trkpt lat="60.54659" lon="5.28063">
        <ele>47.031304</ele>
        <time>2020-07-15T13:30:34.312Z</time>
      </trkpt>
      <trkpt lat="60.54663" lon="5.28065">
        <ele>47.265507</ele>
        <time>2020-07-15T13:30:36.676Z</time>
      </trkpt>
      <trkpt lat="60.54671" lon="5.28069">
        <ele>47.78832</ele>
        <time>2020-07-15T13:30:40.015Z</time>
      </trkpt>
      <trkpt lat="60.54689" lon="5.28079">
        <ele>48.894624</ele>
        <time>2020-07-15T13:30:47.729Z</time>
      </trkpt>
      <trkpt lat="60.54728" lon="5.28096">
        <ele>51.322992</ele>
        <time>2020-07-15T13:31:03.445Z</time>
      </trkpt>
      <trkpt lat="60.54744" lon="5.28095">
        <ele>52.289897</ele>
        <time>2020-07-15T13:31:09.990Z</time>
      </trkpt>
      <trkpt lat="60.54767" lon="5.2809">
        <ele>53.706986</ele>
        <time>2020-07-15T13:31:19.062Z</time>
      </trkpt>
      <trkpt lat="60.548" lon="5.28107">
        <ele>55.805394</ele>
        <time>2020-07-15T13:31:30.161Z</time>
      </trkpt>
      <trkpt lat="60.54856" lon="5.28085">
        <ele>56.247267</ele>
        <time>2020-07-15T13:31:46.215Z</time>
      </trkpt>
      <trkpt lat="60.54878" lon="5.2807">
        <ele>56.368846</ele>
        <time>2020-07-15T13:31:51.529Z</time>
      </trkpt>
      <trkpt lat="60.54905" lon="5.28059">
        <ele>56.509341</ele>
        <time>2020-07-15T13:31:56.199Z</time>
      </trkpt>
      <trkpt lat="60.55019" lon="5.28003">
        <ele>55.851082</ele>
        <time>2020-07-15T13:32:13.935Z</time>
      </trkpt>
      <trkpt lat="60.55068" lon="5.27992">
        <ele>54.646622</ele>
        <time>2020-07-15T13:32:20.807Z</time>
      </trkpt>
      <trkpt lat="60.55083" lon="5.27989">
        <ele>54.288038</ele>
        <time>2020-07-15T13:32:22.989Z</time>
      </trkpt>
      <trkpt lat="60.55108" lon="5.27993">
        <ele>53.654625</ele>
        <time>2020-07-15T13:32:26.621Z</time>
      </trkpt>
      <trkpt lat="60.55113" lon="5.27994">
        <ele>53.54818</ele>
        <time>2020-07-15T13:32:27.301Z</time>
      </trkpt>
      <trkpt lat="60.55125" lon="5.27997">
        <ele>53.246224</ele>
        <time>2020-07-15T13:32:29.109Z</time>
      </trkpt>
      <trkpt lat="60.55154" lon="5.2799">
        <ele>52.51835</ele>
        <time>2020-07-15T13:32:33.332Z</time>
      </trkpt>
      <trkpt lat="60.55178" lon="5.27954">
        <ele>51.145726</ele>
        <time>2020-07-15T13:32:37.306Z</time>
      </trkpt>
      <trkpt lat="60.55189" lon="5.27917">
        <ele>50.140618</ele>
        <time>2020-07-15T13:32:40.160Z</time>
      </trkpt>
      <trkpt lat="60.55221" lon="5.27715">
        <ele>45.131239</ele>
        <time>2020-07-15T13:32:53.499Z</time>
      </trkpt>
      <trkpt lat="60.55233" lon="5.27675">
        <ele>44.026468</ele>
        <time>2020-07-15T13:32:56.226Z</time>
      </trkpt>
      <trkpt lat="60.55283" lon="5.27503">
        <ele>39.133628</ele>
        <time>2020-07-15T13:33:08.246Z</time>
      </trkpt>
      <trkpt lat="60.55287" lon="5.27486">
        <ele>38.671818</ele>
        <time>2020-07-15T13:33:09.308Z</time>
      </trkpt>
      <trkpt lat="60.55302" lon="5.27435">
        <ele>37.18534</ele>
        <time>2020-07-15T13:33:13.033Z</time>
      </trkpt>
      <trkpt lat="60.55393" lon="5.27212">
        <ele>34.612421</ele>
        <time>2020-07-15T13:33:34.461Z</time>
      </trkpt>
      <trkpt lat="60.55411" lon="5.27189">
        <ele>34.559016</ele>
        <time>2020-07-15T13:33:39.601Z</time>
      </trkpt>
      <trkpt lat="60.55413" lon="5.27196">
        <ele>34.549191</ele>
        <time>2020-07-15T13:33:40.925Z</time>
      </trkpt>
      <trkpt lat="60.55445" lon="5.2715">
        <ele>34.448242</ele>
        <time>2020-07-15T13:33:51.071Z</time>
      </trkpt>
      <trkpt lat="60.55472" lon="5.27108">
        <ele>34.835192</ele>
        <time>2020-07-15T13:33:58.175Z</time>
      </trkpt>
      <trkpt lat="60.55489" lon="5.27074">
        <ele>35.634885</ele>
        <time>2020-07-15T13:34:02.692Z</time>
      </trkpt>
      <trkpt lat="60.55508" lon="5.2703">
        <ele>36.572908</ele>
        <time>2020-07-15T13:34:08.702Z</time>
      </trkpt>
      <trkpt lat="60.55515" lon="5.27011">
        <ele>36.965438</ele>
        <time>2020-07-15T13:34:11.858Z</time>
      </trkpt>
      <trkpt lat="60.55529" lon="5.26968">
        <ele>37.792891</ele>
        <time>2020-07-15T13:34:18.923Z</time>
      </trkpt>
      <trkpt lat="60.55537" lon="5.26946">
        <ele>38.235452</ele>
        <time>2020-07-15T13:34:23.607Z</time>
      </trkpt>
      <trkpt lat="60.55543" lon="5.26933">
        <ele>38.515788</ele>
        <time>2020-07-15T13:34:26.956Z</time>
      </trkpt>
      <trkpt lat="60.55536" lon="5.26928">
        <ele>38.733568</ele>
        <time>2020-07-15T13:34:28.718Z</time>
      </trkpt>
      <trkpt lat="60.55525" lon="5.26921">
        <ele>39.119865</ele>
        <time>2020-07-15T13:34:32.587Z</time>
      </trkpt>
      <trkpt lat="60.55522" lon="5.26908">
        <ele>39.346142</ele>
        <time>2020-07-15T13:34:34.895Z</time>
      </trkpt>
      <trkpt lat="60.55519" lon="5.26884">
        <ele>39.75622</ele>
        <time>2020-07-15T13:34:39.302Z</time>
      </trkpt>
      <trkpt lat="60.55514" lon="5.26844">
        <ele>40.55302</ele>
        <time>2020-07-15T13:34:45.202Z</time>
      </trkpt>
      <trkpt lat="60.55509" lon="5.26808">
        <ele>42.028761</ele>
        <time>2020-07-15T13:34:51.780Z</time>
      </trkpt>
      <trkpt lat="60.55507" lon="5.26797">
        <ele>42.497349</ele>
        <time>2020-07-15T13:34:54.635Z</time>
      </trkpt>
      <trkpt lat="60.55505" lon="5.26778">
        <ele>43.29348</ele>
        <time>2020-07-15T13:34:58.117Z</time>
      </trkpt>
      <trkpt lat="60.55497" lon="5.26729">
        <ele>45.316528</ele>
        <time>2020-07-15T13:35:08.585Z</time>
      </trkpt>
      <trkpt lat="60.55493" lon="5.26693">
        <ele>46.76353</ele>
        <time>2020-07-15T13:35:15.749Z</time>
      </trkpt>
      <trkpt lat="60.55492" lon="5.2665">
        <ele>48.473546</ele>
        <time>2020-07-15T13:35:25.908Z</time>
      </trkpt>
      <trkpt lat="60.55502" lon="5.26593">
        <ele>50.872008</ele>
        <time>2020-07-15T13:35:38.957Z</time>
      </trkpt>
      <trkpt lat="60.55523" lon="5.26545">
        <ele>53.354924</ele>
        <time>2020-07-15T13:35:53.761Z</time>
      </trkpt>
      <trkpt lat="60.55529" lon="5.26535">
        <ele>54.031232</ele>
        <time>2020-07-15T13:35:59.601Z</time>
      </trkpt>
      <trkpt lat="60.55588" lon="5.26443">
        <ele>59.41216</ele>
        <time>2020-07-15T13:36:37.819Z</time>
      </trkpt>
      <trkpt lat="60.55604" lon="5.26418">
        <ele>60.871833</ele>
        <time>2020-07-15T13:36:44.915Z</time>
      </trkpt>
      <trkpt lat="60.55636" lon="5.2637">
        <ele>63.692416</ele>
        <time>2020-07-15T13:37:00.452Z</time>
      </trkpt>
      <trkpt lat="60.5565" lon="5.26351">
        <ele>64.892114</ele>
        <time>2020-07-15T13:37:08.136Z</time>
      </trkpt>
      <trkpt lat="60.55659" lon="5.26339">
        <ele>65.66833</ele>
        <time>2020-07-15T13:37:11.566Z</time>
      </trkpt>
      <trkpt lat="60.55679" lon="5.26317">
        <ele>67.288155</ele>
        <time>2020-07-15T13:37:18.718Z</time>
      </trkpt>
      <trkpt lat="60.55732" lon="5.26267">
        <ele>67.864675</ele>
        <time>2020-07-15T13:37:33.450Z</time>
      </trkpt>
      <trkpt lat="60.55758" lon="5.26239">
        <ele>68.021382</ele>
        <time>2020-07-15T13:37:39.847Z</time>
      </trkpt>
      <trkpt lat="60.55773" lon="5.26222">
        <ele>68.109982</ele>
        <time>2020-07-15T13:37:43.254Z</time>
      </trkpt>
      <trkpt lat="60.55779" lon="5.26213">
        <ele>68.149128</ele>
        <time>2020-07-15T13:37:44.695Z</time>
      </trkpt>
      <trkpt lat="60.55783" lon="5.26205">
        <ele>68.180777</ele>
        <time>2020-07-15T13:37:45.504Z</time>
      </trkpt>
      <trkpt lat="60.55792" lon="5.26189">
        <ele>68.243948</ele>
        <time>2020-07-15T13:37:47.644Z</time>
      </trkpt>
      <trkpt lat="60.55799" lon="5.26176">
        <ele>68.294621</ele>
        <time>2020-07-15T13:37:49.236Z</time>
      </trkpt>
      <trkpt lat="60.55804" lon="5.26165">
        <ele>68.33106</ele>
        <time>2020-07-15T13:37:50.508Z</time>
      </trkpt>
      <trkpt lat="60.55821" lon="5.26114">
        <ele>68.491801</ele>
        <time>2020-07-15T13:37:55.029Z</time>
      </trkpt>
      <trkpt lat="60.55837" lon="5.2607">
        <ele>68.010652</ele>
        <time>2020-07-15T13:37:58.962Z</time>
      </trkpt>
      <trkpt lat="60.55857" lon="5.2602">
        <ele>67.209576</ele>
        <time>2020-07-15T13:38:03.357Z</time>
      </trkpt>
      <trkpt lat="60.55861" lon="5.25984">
        <ele>66.735885</ele>
        <time>2020-07-15T13:38:06.044Z</time>
      </trkpt>
      <trkpt lat="60.55865" lon="5.25975">
        <ele>66.581228</ele>
        <time>2020-07-15T13:38:06.820Z</time>
      </trkpt>
      <trkpt lat="60.55867" lon="5.25972">
        <ele>66.524634</ele>
        <time>2020-07-15T13:38:07.082Z</time>
      </trkpt>
      <trkpt lat="60.55879" lon="5.25955">
        <ele>66.140655</ele>
        <time>2020-07-15T13:38:09.201Z</time>
      </trkpt>
      <trkpt lat="60.55943" lon="5.25766">
        <ele>63.516846</ele>
        <time>2020-07-15T13:38:25.046Z</time>
      </trkpt>
      <trkpt lat="60.5597" lon="5.25667">
        <ele>62.707129</ele>
        <time>2020-07-15T13:38:33.305Z</time>
      </trkpt>
      <trkpt lat="60.55973" lon="5.25645">
        <ele>62.541061</ele>
        <time>2020-07-15T13:38:34.998Z</time>
      </trkpt>
      <trkpt lat="60.55997" lon="5.25608">
        <ele>62.098041</ele>
        <time>2020-07-15T13:38:39.840Z</time>
      </trkpt>
      <trkpt lat="60.56154" lon="5.25165">
        <ele>61.049592</ele>
        <time>2020-07-15T13:39:26.535Z</time>
      </trkpt>
      <trkpt lat="60.56159" lon="5.25169">
        <ele>61.129539</ele>
        <time>2020-07-15T13:39:27.646Z</time>
      </trkpt>
      <trkpt lat="60.5618" lon="5.25119">
        <ele>61.616377</ele>
        <time>2020-07-15T13:39:34.439Z</time>
      </trkpt>
      <trkpt lat="60.56193" lon="5.25088">
        <ele>61.912191</ele>
        <time>2020-07-15T13:39:38.815Z</time>
      </trkpt>
      <trkpt lat="60.56204" lon="5.25066">
        <ele>62.143289</ele>
        <time>2020-07-15T13:39:42.266Z</time>
      </trkpt>
      <trkpt lat="60.56222" lon="5.2503">
        <ele>62.518872</ele>
        <time>2020-07-15T13:39:48.179Z</time>
      </trkpt>
      <trkpt lat="60.56231" lon="5.25012">
        <ele>62.708466</ele>
        <time>2020-07-15T13:39:51.217Z</time>
      </trkpt>
      <trkpt lat="60.56349" lon="5.24773">
        <ele>68.262963</ele>
        <time>2020-07-15T13:40:39.761Z</time>
      </trkpt>
      <trkpt lat="60.56514" lon="5.24442">
        <ele>78.57995</ele>
        <time>2020-07-15T13:41:57.159Z</time>
      </trkpt>
      <trkpt lat="60.5652" lon="5.24446">
        <ele>78.741005</ele>
        <time>2020-07-15T13:41:59.319Z</time>
      </trkpt>
      <trkpt lat="60.56533" lon="5.24449">
        <ele>79.03539</ele>
        <time>2020-07-15T13:42:02.900Z</time>
      </trkpt>
      <trkpt lat="60.56545" lon="5.24435">
        <ele>79.34116</ele>
        <time>2020-07-15T13:42:06.980Z</time>
      </trkpt>
      <trkpt lat="60.56555" lon="5.24409">
        <ele>79.711372</ele>
        <time>2020-07-15T13:42:11.445Z</time>
      </trkpt>
      <trkpt lat="60.56558" lon="5.24385">
        <ele>79.990655</ele>
        <time>2020-07-15T13:42:14.627Z</time>
      </trkpt>
      <trkpt lat="60.56557" lon="5.24381">
        <ele>80.046153</ele>
        <time>2020-07-15T13:42:15.513Z</time>
      </trkpt>
      <trkpt lat="60.56568" lon="5.24374">
        <ele>80.30007</ele>
        <time>2020-07-15T13:42:18.524Z</time>
      </trkpt>
      <trkpt lat="60.56617" lon="5.24317">
        <ele>81.582738</ele>
        <time>2020-07-15T13:42:32.085Z</time>
      </trkpt>
      <trkpt lat="60.5663" lon="5.24309">
        <ele>81.90787</ele>
        <time>2020-07-15T13:42:35.668Z</time>
      </trkpt>
      <trkpt lat="60.56648" lon="5.2431">
        <ele>82.315291</ele>
        <time>2020-07-15T13:42:39.272Z</time>
      </trkpt>
      <trkpt lat="60.56653" lon="5.24317">
        <ele>82.446566</ele>
        <time>2020-07-15T13:42:40.402Z</time>
      </trkpt>
      <trkpt lat="60.56653" lon="5.24309">
        <ele>82.531282</ele>
        <time>2020-07-15T13:42:41.471Z</time>
      </trkpt>
      <trkpt lat="60.56692" lon="5.24184">
        <ele>82.660203</ele>
        <time>2020-07-15T13:42:56.294Z</time>
      </trkpt>
      <trkpt lat="60.56711" lon="5.24136">
        <ele>82.653775</ele>
        <time>2020-07-15T13:43:02.161Z</time>
      </trkpt>
      <trkpt lat="60.56723" lon="5.24113">
        <ele>82.650461</ele>
        <time>2020-07-15T13:43:05.199Z</time>
      </trkpt>
      <trkpt lat="60.56731" lon="5.2409">
        <ele>82.647523</ele>
        <time>2020-07-15T13:43:07.477Z</time>
      </trkpt>
      <trkpt lat="60.56782" lon="5.23958">
        <ele>81.999895</ele>
        <time>2020-07-15T13:43:21.179Z</time>
      </trkpt>
      <trkpt lat="60.56811" lon="5.23911">
        <ele>81.215621</ele>
        <time>2020-07-15T13:43:26.918Z</time>
      </trkpt>
      <trkpt lat="60.56817" lon="5.239">
        <ele>81.045778</ele>
        <time>2020-07-15T13:43:28.158Z</time>
      </trkpt>
      <trkpt lat="60.56829" lon="5.23884">
        <ele>80.741556</ele>
        <time>2020-07-15T13:43:30.234Z</time>
      </trkpt>
      <trkpt lat="60.56998" lon="5.23658">
        <ele>74.749872</ele>
        <time>2020-07-15T13:43:58.330Z</time>
      </trkpt>
      <trkpt lat="60.57029" lon="5.23616">
        <ele>73.380792</ele>
        <time>2020-07-15T13:44:03.249Z</time>
      </trkpt>
      <trkpt lat="60.57039" lon="5.23605">
        <ele>72.983388</ele>
        <time>2020-07-15T13:44:04.624Z</time>
      </trkpt>
      <trkpt lat="60.57077" lon="5.23534">
        <ele>69.322504</ele>
        <time>2020-07-15T13:44:11.239Z</time>
      </trkpt>
      <trkpt lat="60.57092" lon="5.2352">
        <ele>67.834551</ele>
        <time>2020-07-15T13:44:13.371Z</time>
      </trkpt>
      <trkpt lat="60.57105" lon="5.23528">
        <ele>66.622449</ele>
        <time>2020-07-15T13:44:14.984Z</time>
      </trkpt>
      <trkpt lat="60.57107" lon="5.23521">
        <ele>66.243699</ele>
        <time>2020-07-15T13:44:15.504Z</time>
      </trkpt>
      <trkpt lat="60.57109" lon="5.23513">
        <ele>65.823488</ele>
        <time>2020-07-15T13:44:16.108Z</time>
      </trkpt>
      <trkpt lat="60.57101" lon="5.23496">
        <ele>64.777475</ele>
        <time>2020-07-15T13:44:17.424Z</time>
      </trkpt>
      <trkpt lat="60.57096" lon="5.23487">
        <ele>64.158475</ele>
        <time>2020-07-15T13:44:18.168Z</time>
      </trkpt>
      <trkpt lat="60.57103" lon="5.23468">
        <ele>63.066966</ele>
        <time>2020-07-15T13:44:19.490Z</time>
      </trkpt>
      <trkpt lat="60.5711" lon="5.23447">
        <ele>61.94095</ele>
        <time>2020-07-15T13:44:20.872Z</time>
      </trkpt>
      <trkpt lat="60.57118" lon="5.23422">
        <ele>60.621048</ele>
        <time>2020-07-15T13:44:22.387Z</time>
      </trkpt>
      <trkpt lat="60.57124" lon="5.23397">
        <ele>59.332829</ele>
        <time>2020-07-15T13:44:23.925Z</time>
      </trkpt>
      <trkpt lat="60.57131" lon="5.23369">
        <ele>57.951168</ele>
        <time>2020-07-15T13:44:25.506Z</time>
      </trkpt>
      <trkpt lat="60.57134" lon="5.23338">
        <ele>56.529257</ele>
        <time>2020-07-15T13:44:27.086Z</time>
      </trkpt>
      <trkpt lat="60.57135" lon="5.23316">
        <ele>55.352951</ele>
        <time>2020-07-15T13:44:28.360Z</time>
      </trkpt>
      <trkpt lat="60.57134" lon="5.23294">
        <ele>53.85962</ele>
        <time>2020-07-15T13:44:29.439Z</time>
      </trkpt>
      <trkpt lat="60.57131" lon="5.23255">
        <ele>51.126316</ele>
        <time>2020-07-15T13:44:31.438Z</time>
      </trkpt>
      <trkpt lat="60.57123" lon="5.23147">
        <ele>43.471043</ele>
        <time>2020-07-15T13:44:37.049Z</time>
      </trkpt>
      <trkpt lat="60.57119" lon="5.2314">
        <ele>42.685374</ele>
        <time>2020-07-15T13:44:37.645Z</time>
      </trkpt>
      <trkpt lat="60.57115" lon="5.23097">
        <ele>39.598022</ele>
        <time>2020-07-15T13:44:40.133Z</time>
      </trkpt>
      <trkpt lat="60.57117" lon="5.23087">
        <ele>38.92081</ele>
        <time>2020-07-15T13:44:40.643Z</time>
      </trkpt>
      <trkpt lat="60.57115" lon="5.23062">
        <ele>37.120278</ele>
        <time>2020-07-15T13:44:41.988Z</time>
      </trkpt>
      <trkpt lat="60.57092" lon="5.22739">
        <ele>23.149654</ele>
        <time>2020-07-15T13:45:00.237Z</time>
      </trkpt>
      <trkpt lat="60.57092" lon="5.2272">
        <ele>22.543834</ele>
        <time>2020-07-15T13:45:01.517Z</time>
      </trkpt>
      <trkpt lat="60.57094" lon="5.22705">
        <ele>22.068479</ele>
        <time>2020-07-15T13:45:03.837Z</time>
      </trkpt>
      <trkpt lat="60.57097" lon="5.22677">
        <ele>21.181337</ele>
        <time>2020-07-15T13:45:05.999Z</time>
      </trkpt>
      <trkpt lat="60.571" lon="5.22663">
        <ele>20.692113</ele>
        <time>2020-07-15T13:45:07.804Z</time>
      </trkpt>
      <trkpt lat="60.57106" lon="5.2266">
        <ele>20.292617</ele>
        <time>2020-07-15T13:45:08.883Z</time>
      </trkpt>
      <trkpt lat="60.57113" lon="5.22642">
        <ele>19.582576</ele>
        <time>2020-07-15T13:45:12.009Z</time>
      </trkpt>
      <trkpt lat="60.57137" lon="5.22602">
        <ele>19.203225</ele>
        <time>2020-07-15T13:45:18.211Z</time>
      </trkpt>
      <trkpt lat="60.57176" lon="5.22571">
        <ele>20.088592</ele>
        <time>2020-07-15T13:45:28.868Z</time>
      </trkpt>
      <trkpt lat="60.57196" lon="5.22555">
        <ele>20.540809</ele>
        <time>2020-07-15T13:45:34.106Z</time>
      </trkpt>
      <trkpt lat="60.57235" lon="5.22522">
        <ele>21.442514</ele>
        <time>2020-07-15T13:45:47.021Z</time>
      </trkpt>
      <trkpt lat="60.57252" lon="5.22507">
        <ele>21.823565</ele>
        <time>2020-07-15T13:45:52.144Z</time>
      </trkpt>
      <trkpt lat="60.57285" lon="5.22474">
        <ele>22.593612</ele>
        <time>2020-07-15T13:46:00.986Z</time>
      </trkpt>
      <trkpt lat="60.5736" lon="5.22387">
        <ele>23.228283</ele>
        <time>2020-07-15T13:46:19.669Z</time>
      </trkpt>
      <trkpt lat="60.57369" lon="5.22379">
        <ele>23.294826</ele>
        <time>2020-07-15T13:46:21.959Z</time>
      </trkpt>
      <trkpt lat="60.57379" lon="5.22368">
        <ele>23.377955</ele>
        <time>2020-07-15T13:46:24.076Z</time>
      </trkpt>
      <trkpt lat="60.57423" lon="5.22319">
        <ele>23.740864</ele>
        <time>2020-07-15T13:46:33.484Z</time>
      </trkpt>
      <trkpt lat="60.57444" lon="5.22297">
        <ele>23.885525</ele>
        <time>2020-07-15T13:46:37.660Z</time>
      </trkpt>
      <trkpt lat="60.57633" lon="5.22088">
        <ele>21.863153</ele>
        <time>2020-07-15T13:47:10.087Z</time>
      </trkpt>
      <trkpt lat="60.57662" lon="5.22058">
        <ele>21.75202</ele>
        <time>2020-07-15T13:47:15.117Z</time>
      </trkpt>
      <trkpt lat="60.5769" lon="5.22023">
        <ele>21.637286</ele>
        <time>2020-07-15T13:47:20.552Z</time>
      </trkpt>
      <trkpt lat="60.57707" lon="5.22002">
        <ele>21.569977</ele>
        <time>2020-07-15T13:47:23.915Z</time>
      </trkpt>
      <trkpt lat="60.57771" lon="5.21905">
        <ele>21.784137</ele>
        <time>2020-07-15T13:47:39.015Z</time>
      </trkpt>
      <trkpt lat="60.57783" lon="5.21887">
        <ele>22.078993</ele>
        <time>2020-07-15T13:47:42.264Z</time>
      </trkpt>
      <trkpt lat="60.57804" lon="5.21861">
        <ele>22.559386</ele>
        <time>2020-07-15T13:47:47.918Z</time>
      </trkpt>
      <trkpt lat="60.57813" lon="5.21852">
        <ele>22.750012</ele>
        <time>2020-07-15T13:47:50.221Z</time>
      </trkpt>
      <trkpt lat="60.57923" lon="5.21756">
        <ele>25.190297</ele>
        <time>2020-07-15T13:48:21.147Z</time>
      </trkpt>
      <trkpt lat="60.57946" lon="5.21718">
        <ele>26.114353</ele>
        <time>2020-07-15T13:48:29.652Z</time>
      </trkpt>
      <trkpt lat="60.57976" lon="5.21647">
        <ele>27.536304</ele>
        <time>2020-07-15T13:48:42.189Z</time>
      </trkpt>
      <trkpt lat="60.58013" lon="5.21593">
        <ele>28.944385</ele>
        <time>2020-07-15T13:48:55.188Z</time>
      </trkpt>
      <trkpt lat="60.58023" lon="5.21576">
        <ele>29.359094</ele>
        <time>2020-07-15T13:48:59.589Z</time>
      </trkpt>
      <trkpt lat="60.58063" lon="5.21507">
        <ele>30.783812</ele>
        <time>2020-07-15T13:49:13.695Z</time>
      </trkpt>
      <trkpt lat="60.58071" lon="5.21495">
        <ele>30.986892</ele>
        <time>2020-07-15T13:49:16.466Z</time>
      </trkpt>
      <trkpt lat="60.58087" lon="5.21467">
        <ele>31.423884</ele>
        <time>2020-07-15T13:49:22.119Z</time>
      </trkpt>
      <trkpt lat="60.58101" lon="5.21441">
        <ele>31.826552</ele>
        <time>2020-07-15T13:49:27.580Z</time>
      </trkpt>
      <trkpt lat="60.58109" lon="5.21431">
        <ele>32.00874</ele>
        <time>2020-07-15T13:49:29.727Z</time>
      </trkpt>
      <trkpt lat="60.58131" lon="5.21395">
        <ele>32.600731</ele>
        <time>2020-07-15T13:49:37.133Z</time>
      </trkpt>
      <trkpt lat="60.58137" lon="5.21386">
        <ele>32.746479</ele>
        <time>2020-07-15T13:49:38.700Z</time>
      </trkpt>
      <trkpt lat="60.58206" lon="5.21274">
        <ele>34.118421</ele>
        <time>2020-07-15T13:49:57.824Z</time>
      </trkpt>
      <trkpt lat="60.58375" lon="5.21041">
        <ele>33.486551</ele>
        <time>2020-07-15T13:50:32.508Z</time>
      </trkpt>
      <trkpt lat="60.58398" lon="5.21011">
        <ele>33.130138</ele>
        <time>2020-07-15T13:50:36.703Z</time>
      </trkpt>
      <trkpt lat="60.58407" lon="5.21001">
        <ele>32.996662</ele>
        <time>2020-07-15T13:50:38.206Z</time>
      </trkpt>
      <trkpt lat="60.58485" lon="5.20893">
        <ele>31.751404</ele>
        <time>2020-07-15T13:50:52.105Z</time>
      </trkpt>
      <trkpt lat="60.58528" lon="5.20844">
        <ele>29.856338</ele>
        <time>2020-07-15T13:50:58.592Z</time>
      </trkpt>
      <trkpt lat="60.58598" lon="5.20785">
        <ele>26.796455</ele>
        <time>2020-07-15T13:51:08.031Z</time>
      </trkpt>
      <trkpt lat="60.58649" lon="5.20755">
        <ele>24.656799</ele>
        <time>2020-07-15T13:51:14.582Z</time>
      </trkpt>
      <trkpt lat="60.58659" lon="5.2075">
        <ele>24.245733</ele>
        <time>2020-07-15T13:51:15.757Z</time>
      </trkpt>
      <trkpt lat="60.58667" lon="5.20747">
        <ele>23.906966</ele>
        <time>2020-07-15T13:51:16.708Z</time>
      </trkpt>
      <trkpt lat="60.587" lon="5.20734">
        <ele>22.552664</ele>
        <time>2020-07-15T13:51:20.725Z</time>
      </trkpt>
      <trkpt lat="60.5873" lon="5.20728">
        <ele>21.316406</ele>
        <time>2020-07-15T13:51:24.414Z</time>
      </trkpt>
      <trkpt lat="60.58762" lon="5.20718">
        <ele>20.023385</ele>
        <time>2020-07-15T13:51:28.265Z</time>
      </trkpt>
      <trkpt lat="60.58795" lon="5.20711">
        <ele>18.665969</ele>
        <time>2020-07-15T13:51:32.401Z</time>
      </trkpt>
      <trkpt lat="60.58881" lon="5.20676">
        <ele>18.346839</ele>
        <time>2020-07-15T13:51:45.513Z</time>
      </trkpt>
      <trkpt lat="60.58894" lon="5.20673">
        <ele>18.620494</ele>
        <time>2020-07-15T13:51:47.960Z</time>
      </trkpt>
      <trkpt lat="60.58909" lon="5.20667">
        <ele>18.973118</ele>
        <time>2020-07-15T13:51:53.016Z</time>
      </trkpt>
      <trkpt lat="60.5899" lon="5.20626">
        <ele>20.82646</ele>
        <time>2020-07-15T13:52:17.761Z</time>
      </trkpt>
      <trkpt lat="60.59018" lon="5.20615">
        <ele>21.799273</ele>
        <time>2020-07-15T13:52:27.915Z</time>
      </trkpt>
      <trkpt lat="60.59038" lon="5.20608">
        <ele>22.877046</ele>
        <time>2020-07-15T13:52:35.144Z</time>
      </trkpt>
      <trkpt lat="60.591" lon="5.20585">
        <ele>26.160936</ele>
        <time>2020-07-15T13:52:59.620Z</time>
      </trkpt>
      <trkpt lat="60.592" lon="5.20574">
        <ele>30.549789</ele>
        <time>2020-07-15T13:53:33.838Z</time>
      </trkpt>
      <trkpt lat="60.59236" lon="5.20556">
        <ele>30.539168</ele>
        <time>2020-07-15T13:53:42.696Z</time>
      </trkpt>
      <trkpt lat="60.59253" lon="5.20549">
        <ele>30.534059</ele>
        <time>2020-07-15T13:53:46.355Z</time>
      </trkpt>
      <trkpt lat="60.59303" lon="5.20525">
        <ele>30.519325</ele>
        <time>2020-07-15T13:53:55.603Z</time>
      </trkpt>
      <trkpt lat="60.59313" lon="5.20523">
        <ele>30.516469</ele>
        <time>2020-07-15T13:53:57.169Z</time>
      </trkpt>
      <trkpt lat="60.59352" lon="5.2051">
        <ele>30.504886</ele>
        <time>2020-07-15T13:54:02.982Z</time>
      </trkpt>
      <trkpt lat="60.59535" lon="5.20416">
        <ele>19.757708</ele>
        <time>2020-07-15T13:54:24.860Z</time>
      </trkpt>
      <trkpt lat="60.59546" lon="5.20408">
        <ele>19.348644</ele>
        <time>2020-07-15T13:54:26.087Z</time>
      </trkpt>
      <trkpt lat="60.59565" lon="5.20395">
        <ele>18.626932</ele>
        <time>2020-07-15T13:54:28.490Z</time>
      </trkpt>
      <trkpt lat="60.59595" lon="5.20381">
        <ele>17.52119</ele>
        <time>2020-07-15T13:54:32.122Z</time>
      </trkpt>
      <trkpt lat="60.59636" lon="5.20363">
        <ele>16.039112</ele>
        <time>2020-07-15T13:54:37.252Z</time>
      </trkpt>
      <trkpt lat="60.59699" lon="5.20307">
        <ele>13.570284</ele>
        <time>2020-07-15T13:54:46.762Z</time>
      </trkpt>
      <trkpt lat="60.59709" lon="5.20301">
        <ele>13.4236</ele>
        <time>2020-07-15T13:54:49.362Z</time>
      </trkpt>
      <trkpt lat="60.59738" lon="5.20298">
        <ele>14.257289</ele>
        <time>2020-07-15T13:54:56.377Z</time>
      </trkpt>
      <trkpt lat="60.59775" lon="5.20288">
        <ele>15.337141</ele>
        <time>2020-07-15T13:55:07.225Z</time>
      </trkpt>
      <trkpt lat="60.59812" lon="5.20276">
        <ele>16.410754</ele>
        <time>2020-07-15T13:55:18.750Z</time>
      </trkpt>
      <trkpt lat="60.59889" lon="5.20209">
        <ele>18.705925</ele>
        <time>2020-07-15T13:55:44.953Z</time>
      </trkpt>
      <trkpt lat="60.59952" lon="5.20128">
        <ele>20.024622</ele>
        <time>2020-07-15T13:56:03.516Z</time>
      </trkpt>
      <trkpt lat="60.59975" lon="5.201">
        <ele>20.500242</ele>
        <time>2020-07-15T13:56:09.308Z</time>
      </trkpt>
      <trkpt lat="60.5998" lon="5.20096">
        <ele>20.587797</ele>
        <time>2020-07-15T13:56:10.178Z</time>
      </trkpt>
      <trkpt lat="60.59996" lon="5.20085">
        <ele>20.888392</ele>
        <time>2020-07-15T13:56:13.142Z</time>
      </trkpt>
      <trkpt lat="60.60034" lon="5.20061">
        <ele>21.593565</ele>
        <time>2020-07-15T13:56:21.232Z</time>
      </trkpt>
      <trkpt lat="60.60049" lon="5.20039">
        <ele>21.901768</ele>
        <time>2020-07-15T13:56:25.115Z</time>
      </trkpt>
      <trkpt lat="60.60073" lon="5.19999">
        <ele>22.39463</ele>
        <time>2020-07-15T13:56:31.411Z</time>
      </trkpt>
      <trkpt lat="60.60114" lon="5.19929">
        <ele>23.250039</ele>
        <time>2020-07-15T13:56:42.416Z</time>
      </trkpt>
      <trkpt lat="60.60178" lon="5.1982">
        <ele>24.580639</ele>
        <time>2020-07-15T13:57:04.042Z</time>
      </trkpt>
      <trkpt lat="60.60201" lon="5.19783">
        <ele>25.011701</ele>
        <time>2020-07-15T13:57:11.813Z</time>
      </trkpt>
      <trkpt lat="60.60214" lon="5.1976">
        <ele>25.271145</ele>
        <time>2020-07-15T13:57:16.515Z</time>
      </trkpt>
      <trkpt lat="60.60265" lon="5.19681">
        <ele>26.214363</ele>
        <time>2020-07-15T13:57:31.063Z</time>
      </trkpt>
      <trkpt lat="60.60284" lon="5.19657">
        <ele>26.546021</ele>
        <time>2020-07-15T13:57:35.606Z</time>
      </trkpt>
      <trkpt lat="60.60312" lon="5.19629">
        <ele>26.995204</ele>
        <time>2020-07-15T13:57:41.369Z</time>
      </trkpt>
      <trkpt lat="60.60356" lon="5.19593">
        <ele>27.778804</ele>
        <time>2020-07-15T13:57:50.856Z</time>
      </trkpt>
      <trkpt lat="60.60382" lon="5.1957">
        <ele>28.267612</ele>
        <time>2020-07-15T13:57:56.522Z</time>
      </trkpt>
      <trkpt lat="60.60437" lon="5.19513">
        <ele>29.319723</ele>
        <time>2020-07-15T13:58:09.464Z</time>
      </trkpt>
      <trkpt lat="60.60555" lon="5.19387">
        <ele>33.777704</ele>
        <time>2020-07-15T13:58:48.241Z</time>
      </trkpt>
      <trkpt lat="60.60583" lon="5.19356">
        <ele>35.238666</ele>
        <time>2020-07-15T13:58:59.035Z</time>
      </trkpt>
      <trkpt lat="60.60622" lon="5.19309">
        <ele>37.300826</ele>
        <time>2020-07-15T13:59:15.555Z</time>
      </trkpt>
      <trkpt lat="60.60637" lon="5.19291">
        <ele>38.098952</ele>
        <time>2020-07-15T13:59:21.853Z</time>
      </trkpt>
      <trkpt lat="60.60709" lon="5.19204">
        <ele>41.478395</ele>
        <time>2020-07-15T13:59:51.253Z</time>
      </trkpt>
      <trkpt lat="60.60722" lon="5.19186">
        <ele>42.073284</ele>
        <time>2020-07-15T13:59:55.830Z</time>
      </trkpt>
      <trkpt lat="60.60734" lon="5.19162">
        <ele>42.740127</ele>
        <time>2020-07-15T14:00:02.849Z</time>
      </trkpt>
      <trkpt lat="60.60746" lon="5.19126">
        <ele>43.605167</ele>
        <time>2020-07-15T14:00:09.773Z</time>
      </trkpt>
      <trkpt lat="60.60754" lon="5.19082">
        <ele>44.510955</ele>
        <time>2020-07-15T14:00:15.137Z</time>
      </trkpt>
      <trkpt lat="60.60756" lon="5.19035">
        <ele>45.42942</ele>
        <time>2020-07-15T14:00:21.866Z</time>
      </trkpt>
      <trkpt lat="60.60745" lon="5.18907">
        <ele>43.110185</ele>
        <time>2020-07-15T14:00:31.881Z</time>
      </trkpt>
      <trkpt lat="60.60741" lon="5.18859">
        <ele>42.108385</ele>
        <time>2020-07-15T14:00:34.765Z</time>
      </trkpt>
      <trkpt lat="60.6074" lon="5.18845">
        <ele>41.810233</ele>
        <time>2020-07-15T14:00:35.699Z</time>
      </trkpt>
      <trkpt lat="60.60743" lon="5.18818">
        <ele>41.223908</ele>
        <time>2020-07-15T14:00:37.202Z</time>
      </trkpt>
      <trkpt lat="60.60744" lon="5.18808">
        <ele>41.012113</ele>
        <time>2020-07-15T14:00:37.718Z</time>
      </trkpt>
      <trkpt lat="60.60755" lon="5.18757">
        <ele>39.847826</ele>
        <time>2020-07-15T14:00:41.181Z</time>
      </trkpt>
      <trkpt lat="60.60784" lon="5.18694">
        <ele>38.023416</ele>
        <time>2020-07-15T14:00:45.938Z</time>
      </trkpt>
      <trkpt lat="60.60799" lon="5.18676">
        <ele>37.127432</ele>
        <time>2020-07-15T14:00:48.253Z</time>
      </trkpt>
      <trkpt lat="60.60811" lon="5.18668">
        <ele>36.499516</ele>
        <time>2020-07-15T14:00:49.579Z</time>
      </trkpt>
      <trkpt lat="60.60814" lon="5.18667">
        <ele>36.361278</ele>
        <time>2020-07-15T14:00:49.852Z</time>
      </trkpt>
      <trkpt lat="60.60846" lon="5.18656">
        <ele>34.680331</ele>
        <time>2020-07-15T14:00:53.548Z</time>
      </trkpt>
      <trkpt lat="60.60982" lon="5.18644">
        <ele>29.318099</ele>
        <time>2020-07-15T14:01:10.137Z</time>
      </trkpt>
      <trkpt lat="60.6122" lon="5.18638">
        <ele>39.334856</ele>
        <time>2020-07-15T14:02:30.352Z</time>
      </trkpt>
      <trkpt lat="60.61284" lon="5.186">
        <ele>43.543202</ele>
        <time>2020-07-15T14:02:59.046Z</time>
      </trkpt>
      <trkpt lat="60.61326" lon="5.18551">
        <ele>46.375539</ele>
        <time>2020-07-15T14:03:19.237Z</time>
      </trkpt>
      <trkpt lat="60.61364" lon="5.18482">
        <ele>48.668094</ele>
        <time>2020-07-15T14:03:37.786Z</time>
      </trkpt>
      <trkpt lat="60.61382" lon="5.18446">
        <ele>49.799599</ele>
        <time>2020-07-15T14:03:47.153Z</time>
      </trkpt>
      <trkpt lat="60.61449" lon="5.18308">
        <ele>53.845555</ele>
        <time>2020-07-15T14:04:13.752Z</time>
      </trkpt>
      <trkpt lat="60.61505" lon="5.18198">
        <ele>53.894613</ele>
        <time>2020-07-15T14:04:29.193Z</time>
      </trkpt>
      <trkpt lat="60.61527" lon="5.1815">
        <ele>53.915152</ele>
        <time>2020-07-15T14:04:34.119Z</time>
      </trkpt>
      <trkpt lat="60.6153" lon="5.18145">
        <ele>53.917434</ele>
        <time>2020-07-15T14:04:34.652Z</time>
      </trkpt>
      <trkpt lat="60.61586" lon="5.1803">
        <ele>53.852779</ele>
        <time>2020-07-15T14:04:46.933Z</time>
      </trkpt>
      <trkpt lat="60.61596" lon="5.1801">
        <ele>53.775237</ele>
        <time>2020-07-15T14:04:49.045Z</time>
      </trkpt>
      <trkpt lat="60.61653" lon="5.17896">
        <ele>53.321655</ele>
        <time>2020-07-15T14:05:01.688Z</time>
      </trkpt>
      <trkpt lat="60.61704" lon="5.1779">
        <ele>52.97756</ele>
        <time>2020-07-15T14:05:14.079Z</time>
      </trkpt>
      <trkpt lat="60.61742" lon="5.17715">
        <ele>53.467809</ele>
        <time>2020-07-15T14:05:24.113Z</time>
      </trkpt>
      <trkpt lat="60.61746" lon="5.17704">
        <ele>53.531964</ele>
        <time>2020-07-15T14:05:25.477Z</time>
      </trkpt>
      <trkpt lat="60.61758" lon="5.17679">
        <ele>53.688123</ele>
        <time>2020-07-15T14:05:28.883Z</time>
      </trkpt>
      <trkpt lat="60.61823" lon="5.17547">
        <ele>54.532526</ele>
        <time>2020-07-15T14:05:49.582Z</time>
      </trkpt>
      <trkpt lat="60.61855" lon="5.17482">
        <ele>55.109981</ele>
        <time>2020-07-15T14:06:00.269Z</time>
      </trkpt>
      <trkpt lat="60.61861" lon="5.17471">
        <ele>55.218889</ele>
        <time>2020-07-15T14:06:01.994Z</time>
      </trkpt>
      <trkpt lat="60.61897" lon="5.17395">
        <ele>55.923131</ele>
        <time>2020-07-15T14:06:13.655Z</time>
      </trkpt>
      <trkpt lat="60.61901" lon="5.17388">
        <ele>55.993465</ele>
        <time>2020-07-15T14:06:15.221Z</time>
      </trkpt>
      <trkpt lat="60.62025" lon="5.17129">
        <ele>58.455664</ele>
        <time>2020-07-15T14:06:52.449Z</time>
      </trkpt>
      <trkpt lat="60.62223" lon="5.16589">
        <ele>65.38359</ele>
        <time>2020-07-15T14:08:12.591Z</time>
      </trkpt>
      <trkpt lat="60.62291" lon="5.1645">
        <ele>68.303236</ele>
        <time>2020-07-15T14:08:41.135Z</time>
      </trkpt>
      <trkpt lat="60.62367" lon="5.16329">
        <ele>70.909289</ele>
        <time>2020-07-15T14:09:10.248Z</time>
      </trkpt>
      <trkpt lat="60.62406" lon="5.16276">
        <ele>72.16343</ele>
        <time>2020-07-15T14:09:22.592Z</time>
      </trkpt>
      <trkpt lat="60.62443" lon="5.16233">
        <ele>73.291335</ele>
        <time>2020-07-15T14:09:32.477Z</time>
      </trkpt>
      <trkpt lat="60.62885" lon="5.15782">
        <ele>72.019192</ele>
        <time>2020-07-15T14:10:57.569Z</time>
      </trkpt>
      <trkpt lat="60.6295" lon="5.15681">
        <ele>70.377573</ele>
        <time>2020-07-15T14:11:09.367Z</time>
      </trkpt>
      <trkpt lat="60.63262" lon="5.15128">
        <ele>52.86925</ele>
        <time>2020-07-15T14:12:00.247Z</time>
      </trkpt>
      <trkpt lat="60.63272" lon="5.15104">
        <ele>52.248636</ele>
        <time>2020-07-15T14:12:01.977Z</time>
      </trkpt>
      <trkpt lat="60.63281" lon="5.1508">
        <ele>51.612627</ele>
        <time>2020-07-15T14:12:03.715Z</time>
      </trkpt>
      <trkpt lat="60.63299" lon="5.15009">
        <ele>49.985211</ele>
        <time>2020-07-15T14:12:08.392Z</time>
      </trkpt>
      <trkpt lat="60.63405" lon="5.14476">
        <ele>51.706719</ele>
        <time>2020-07-15T14:13:02.590Z</time>
      </trkpt>
      <trkpt lat="60.63415" lon="5.14408">
        <ele>52.932378</ele>
        <time>2020-07-15T14:13:16.749Z</time>
      </trkpt>
      <trkpt lat="60.63417" lon="5.14364">
        <ele>53.69674</ele>
        <time>2020-07-15T14:13:25.301Z</time>
      </trkpt>
      <trkpt lat="60.63408" lon="5.14295">
        <ele>54.934782</ele>
        <time>2020-07-15T14:13:37.969Z</time>
      </trkpt>
      <trkpt lat="60.63387" lon="5.14227">
        <ele>55.22267</ele>
        <time>2020-07-15T14:13:50.564Z</time>
      </trkpt>
      <trkpt lat="60.63366" lon="5.14184">
        <ele>55.109911</ele>
        <time>2020-07-15T14:13:59.196Z</time>
      </trkpt>
      <trkpt lat="60.63343" lon="5.14148">
        <ele>54.998346</ele>
        <time>2020-07-15T14:14:06.801Z</time>
      </trkpt>
      <trkpt lat="60.63327" lon="5.14129">
        <ele>54.925392</ele>
        <time>2020-07-15T14:14:09.578Z</time>
      </trkpt>
      <trkpt lat="60.63268" lon="5.14066">
        <ele>54.670849</ele>
        <time>2020-07-15T14:14:17.764Z</time>
      </trkpt>
      <trkpt lat="60.63252" lon="5.1404">
        <ele>54.114372</ele>
        <time>2020-07-15T14:14:20.190Z</time>
      </trkpt>
      <trkpt lat="60.63242" lon="5.13992">
        <ele>52.968549</ele>
        <time>2020-07-15T14:14:23.168Z</time>
      </trkpt>
      <trkpt lat="60.63243" lon="5.13941">
        <ele>51.867397</ele>
        <time>2020-07-15T14:14:26.038Z</time>
      </trkpt>
      <trkpt lat="60.63248" lon="5.13873">
        <ele>50.364606</ele>
        <time>2020-07-15T14:14:30.000Z</time>
      </trkpt>
      <trkpt lat="60.63256" lon="5.13772">
        <ele>48.163352</ele>
        <time>2020-07-15T14:14:36.308Z</time>
      </trkpt>
      <trkpt lat="60.63257" lon="5.13754">
        <ele>47.772143</ele>
        <time>2020-07-15T14:14:37.527Z</time>
      </trkpt>
      <trkpt lat="60.6326" lon="5.13723">
        <ele>47.101469</ele>
        <time>2020-07-15T14:14:39.626Z</time>
      </trkpt>
      <trkpt lat="60.63261" lon="5.13698">
        <ele>46.811148</ele>
        <time>2020-07-15T14:14:41.438Z</time>
      </trkpt>
      <trkpt lat="60.63262" lon="5.13694">
        <ele>46.869215</ele>
        <time>2020-07-15T14:14:41.777Z</time>
      </trkpt>
      <trkpt lat="60.63262" lon="5.13685">
        <ele>47.003782</ele>
        <time>2020-07-15T14:14:42.520Z</time>
      </trkpt>
      <trkpt lat="60.63264" lon="5.13665">
        <ele>47.284425</ele>
        <time>2020-07-15T14:14:43.962Z</time>
      </trkpt>
      <trkpt lat="60.63273" lon="5.13539">
        <ele>49.065979</ele>
        <time>2020-07-15T14:14:58.607Z</time>
      </trkpt>
      <trkpt lat="60.63287" lon="5.13367">
        <ele>51.50185</ele>
        <time>2020-07-15T14:15:28.460Z</time>
      </trkpt>
      <trkpt lat="60.63287" lon="5.13282">
        <ele>52.958996</ele>
        <time>2020-07-15T14:15:43.633Z</time>
      </trkpt>
      <trkpt lat="60.63266" lon="5.12978">
        <ele>58.563374</ele>
        <time>2020-07-15T14:16:27.333Z</time>
      </trkpt>
      <trkpt lat="60.63241" lon="5.12821">
        <ele>59.570726</ele>
        <time>2020-07-15T14:16:46.217Z</time>
      </trkpt>
      <trkpt lat="60.63241" lon="5.12804">
        <ele>59.670777</ele>
        <time>2020-07-15T14:16:48.066Z</time>
      </trkpt>
      <trkpt lat="60.63242" lon="5.12793">
        <ele>59.738237</ele>
        <time>2020-07-15T14:16:49.267Z</time>
      </trkpt>
      <trkpt lat="60.63257" lon="5.12767">
        <ele>59.984098</ele>
        <time>2020-07-15T14:16:53.382Z</time>
      </trkpt>
      <trkpt lat="60.63268" lon="5.12753">
        <ele>60.141244</ele>
        <time>2020-07-15T14:16:56.101Z</time>
      </trkpt>
      <trkpt lat="60.63275" lon="5.1274">
        <ele>60.258523</ele>
        <time>2020-07-15T14:16:57.970Z</time>
      </trkpt>
      <trkpt lat="60.63349" lon="5.12629">
        <ele>59.221387</ele>
        <time>2020-07-15T14:17:14.235Z</time>
      </trkpt>
      <trkpt lat="60.63354" lon="5.1262">
        <ele>59.006471</ele>
        <time>2020-07-15T14:17:15.351Z</time>
      </trkpt>
      <trkpt lat="60.63383" lon="5.12578">
        <ele>57.897101</ele>
        <time>2020-07-15T14:17:20.547Z</time>
      </trkpt>
      <trkpt lat="60.6342" lon="5.1252">
        <ele>56.427724</ele>
        <time>2020-07-15T14:17:26.590Z</time>
      </trkpt>
      <trkpt lat="60.63443" lon="5.12488">
        <ele>55.54327</ele>
        <time>2020-07-15T14:17:29.835Z</time>
      </trkpt>
      <trkpt lat="60.63449" lon="5.12478">
        <ele>55.305177</ele>
        <time>2020-07-15T14:17:30.666Z</time>
      </trkpt>
      <trkpt lat="60.6347" lon="5.12447">
        <ele>53.141153</ele>
        <time>2020-07-15T14:17:33.620Z</time>
      </trkpt>
      <trkpt lat="60.63477" lon="5.12435">
        <ele>52.265535</ele>
        <time>2020-07-15T14:17:34.615Z</time>
      </trkpt>
      <trkpt lat="60.63516" lon="5.12374">
        <ele>47.475919</ele>
        <time>2020-07-15T14:17:40.080Z</time>
      </trkpt>
      <trkpt lat="60.63524" lon="5.1235">
        <ele>46.099423</ele>
        <time>2020-07-15T14:17:41.595Z</time>
      </trkpt>
      <trkpt lat="60.63529" lon="5.12316">
        <ele>44.385119</ele>
        <time>2020-07-15T14:17:43.533Z</time>
      </trkpt>
      <trkpt lat="60.63533" lon="5.12277">
        <ele>42.497055</ele>
        <time>2020-07-15T14:17:45.623Z</time>
      </trkpt>
      <trkpt lat="60.63534" lon="5.12253">
        <ele>41.344126</ele>
        <time>2020-07-15T14:17:46.891Z</time>
      </trkpt>
      <trkpt lat="60.63545" lon="5.12184">
        <ele>37.89458</ele>
        <time>2020-07-15T14:17:50.701Z</time>
      </trkpt>
      <trkpt lat="60.63595" lon="5.12125">
        <ele>33.553894</ele>
        <time>2020-07-15T14:17:56.978Z</time>
      </trkpt>
      <trkpt lat="60.63599" lon="5.12105">
        <ele>32.764918</ele>
        <time>2020-07-15T14:17:58.129Z</time>
      </trkpt>
      <trkpt lat="60.63594" lon="5.12083">
        <ele>31.868396</ele>
        <time>2020-07-15T14:17:59.497Z</time>
      </trkpt>
      <trkpt lat="60.63585" lon="5.12077">
        <ele>31.107831</ele>
        <time>2020-07-15T14:18:00.687Z</time>
      </trkpt>
      <trkpt lat="60.63548" lon="5.12102">
        <ele>28.238285</ele>
        <time>2020-07-15T14:18:05.168Z</time>
      </trkpt>
      <trkpt lat="60.63528" lon="5.12115">
        <ele>26.719743</ele>
        <time>2020-07-15T14:18:07.696Z</time>
      </trkpt>
      <trkpt lat="60.63527" lon="5.12116">
        <ele>26.641779</ele>
        <time>2020-07-15T14:18:07.841Z</time>
      </trkpt>
      <trkpt lat="60.63503" lon="5.12119">
        <ele>24.831883</ele>
        <time>2020-07-15T14:18:11.032Z</time>
      </trkpt>
      <trkpt lat="60.63488" lon="5.12093">
        <ele>24.242447</ele>
        <time>2020-07-15T14:18:13.615Z</time>
      </trkpt>
      <trkpt lat="60.63484" lon="5.12007">
        <ele>23.868083</ele>
        <time>2020-07-15T14:18:19.375Z</time>
      </trkpt>
      <trkpt lat="60.63491" lon="5.11943">
        <ele>23.581078</ele>
        <time>2020-07-15T14:18:24.026Z</time>
      </trkpt>
      <trkpt lat="60.63509" lon="5.11902">
        <ele>23.339964</ele>
        <time>2020-07-15T14:18:28.082Z</time>
      </trkpt>
      <trkpt lat="60.63561" lon="5.11836">
        <ele>22.797636</ele>
        <time>2020-07-15T14:18:41.093Z</time>
      </trkpt>
      <trkpt lat="60.63609" lon="5.11755">
        <ele>24.93303</ele>
        <time>2020-07-15T14:18:57.029Z</time>
      </trkpt>
      <trkpt lat="60.6364" lon="5.11676">
        <ele>26.802196</ele>
        <time>2020-07-15T14:19:12.475Z</time>
      </trkpt>
      <trkpt lat="60.63651" lon="5.11639">
        <ele>27.604985</ele>
        <time>2020-07-15T14:19:18.430Z</time>
      </trkpt>
      <trkpt lat="60.63647" lon="5.11635">
        <ele>27.762115</ele>
        <time>2020-07-15T14:19:21.241Z</time>
      </trkpt>
      <trkpt lat="60.63605" lon="5.11601">
        <ele>29.465489</ele>
        <time>2020-07-15T14:19:35.830Z</time>
      </trkpt>
      <trkpt lat="60.63511" lon="5.11552">
        <ele>33.895871</ele>
        <time>2020-07-15T14:20:11.104Z</time>
      </trkpt>
      <trkpt lat="60.63482" lon="5.11514">
        <ele>35.48106</ele>
        <time>2020-07-15T14:20:22.186Z</time>
      </trkpt>
      <trkpt lat="60.63472" lon="5.11482">
        <ele>36.339159</ele>
        <time>2020-07-15T14:20:27.336Z</time>
      </trkpt>
      <trkpt lat="60.63471" lon="5.11479">
        <ele>36.418305</ele>
        <time>2020-07-15T14:20:28.439Z</time>
      </trkpt>
      <trkpt lat="60.63472" lon="5.11446">
        <ele>37.15505</ele>
        <time>2020-07-15T14:20:32.815Z</time>
      </trkpt>
      <trkpt lat="60.63487" lon="5.11395">
        <ele>37.998323</ele>
        <time>2020-07-15T14:20:41.116Z</time>
      </trkpt>
      <trkpt lat="60.63558" lon="5.11249">
        <ele>39.462934</ele>
        <time>2020-07-15T14:21:04.988Z</time>
      </trkpt>
      <trkpt lat="60.63588" lon="5.1119">
        <ele>40.064888</ele>
        <time>2020-07-15T14:21:12.788Z</time>
      </trkpt>
      <trkpt lat="60.63594" lon="5.11173">
        <ele>40.216132</ele>
        <time>2020-07-15T14:21:14.470Z</time>
      </trkpt>
      <trkpt lat="60.63626" lon="5.11009">
        <ele>39.705508</ele>
        <time>2020-07-15T14:21:29.410Z</time>
      </trkpt>
      <trkpt lat="60.63632" lon="5.1093">
        <ele>39.363833</ele>
        <time>2020-07-15T14:21:35.814Z</time>
      </trkpt>
      <trkpt lat="60.63621" lon="5.10907">
        <ele>39.229512</ele>
        <time>2020-07-15T14:21:38.189Z</time>
      </trkpt>
      <trkpt lat="60.63532" lon="5.10838">
        <ele>37.17235</ele>
        <time>2020-07-15T14:21:51.665Z</time>
      </trkpt>
      <trkpt lat="60.63524" lon="5.10807">
        <ele>36.569314</ele>
        <time>2020-07-15T14:21:53.898Z</time>
      </trkpt>
      <trkpt lat="60.63529" lon="5.10706">
        <ele>34.802788</ele>
        <time>2020-07-15T14:22:00.219Z</time>
      </trkpt>
      <trkpt lat="60.63525" lon="5.10666">
        <ele>34.079343</ele>
        <time>2020-07-15T14:22:02.755Z</time>
      </trkpt>
      <trkpt lat="60.63519" lon="5.10647">
        <ele>33.693388</ele>
        <time>2020-07-15T14:22:04.107Z</time>
      </trkpt>
      <trkpt lat="60.63507" lon="5.10614">
        <ele>32.972556</ele>
        <time>2020-07-15T14:22:06.551Z</time>
      </trkpt>
      <trkpt lat="60.63475" lon="5.10505">
        <ele>30.229789</ele>
        <time>2020-07-15T14:22:14.106Z</time>
      </trkpt>
      <trkpt lat="60.63463" lon="5.10403">
        <ele>27.799816</ele>
        <time>2020-07-15T14:22:20.274Z</time>
      </trkpt>
      <trkpt lat="60.63472" lon="5.1032">
        <ele>25.844895</ele>
        <time>2020-07-15T14:22:25.235Z</time>
      </trkpt>
      <trkpt lat="60.63514" lon="5.10136">
        <ele>22.315842</ele>
        <time>2020-07-15T14:22:38.157Z</time>
      </trkpt>
      <trkpt lat="60.63528" lon="5.10007">
        <ele>20.571181</ele>
        <time>2020-07-15T14:22:46.868Z</time>
      </trkpt>
      <trkpt lat="60.63529" lon="5.09964">
        <ele>20.00184</ele>
        <time>2020-07-15T14:22:49.773Z</time>
      </trkpt>
      <trkpt lat="60.6352" lon="5.09928">
        <ele>19.470655</ele>
        <time>2020-07-15T14:22:52.528Z</time>
      </trkpt>
      <trkpt lat="60.63505" lon="5.09906">
        <ele>19.048976</ele>
        <time>2020-07-15T14:22:55.223Z</time>
      </trkpt>
      <trkpt lat="60.6346" lon="5.09903">
        <ele>19.069088</ele>
        <time>2020-07-15T14:23:02.028Z</time>
      </trkpt>
      <trkpt lat="60.6342" lon="5.09914">
        <ele>19.087197</ele>
        <time>2020-07-15T14:23:08.675Z</time>
      </trkpt>
      <trkpt lat="60.63403" lon="5.09916">
        <ele>19.094535</ele>
        <time>2020-07-15T14:23:11.628Z</time>
      </trkpt>
      <trkpt lat="60.63374" lon="5.09924">
        <ele>19.107654</ele>
        <time>2020-07-15T14:23:17.281Z</time>
      </trkpt>
      <trkpt lat="60.6332" lon="5.09964">
        <ele>19.66443</ele>
        <time>2020-07-15T14:23:30.343Z</time>
      </trkpt>
      <trkpt lat="60.63282" lon="5.09981">
        <ele>21.31138</ele>
        <time>2020-07-15T14:23:40.540Z</time>
      </trkpt>
      <trkpt lat="60.6324" lon="5.09968">
        <ele>23.127757</ele>
        <time>2020-07-15T14:23:53.539Z</time>
      </trkpt>
      <trkpt lat="60.63202" lon="5.09972">
        <ele>24.713383</ele>
        <time>2020-07-15T14:24:06.069Z</time>
      </trkpt>
      <trkpt lat="60.63149" lon="5.09999">
        <ele>27.134826</ele>
        <time>2020-07-15T14:24:27.796Z</time>
      </trkpt>
      <trkpt lat="60.63108" lon="5.10008">
        <ele>29.281811</ele>
        <time>2020-07-15T14:24:43.512Z</time>
      </trkpt>
      <trkpt lat="60.63066" lon="5.10034">
        <ele>31.568765</ele>
        <time>2020-07-15T14:24:59.466Z</time>
      </trkpt>
      <trkpt lat="60.63033" lon="5.10041">
        <ele>33.350091</ele>
        <time>2020-07-15T14:25:11.402Z</time>
      </trkpt>
      <trkpt lat="60.63026" lon="5.10043">
        <ele>33.7249</ele>
        <time>2020-07-15T14:25:13.693Z</time>
      </trkpt>
      <trkpt lat="60.63024" lon="5.10043">
        <ele>33.794026</ele>
        <time>2020-07-15T14:25:14.561Z</time>
      </trkpt>
      <trkpt lat="60.62956" lon="5.10057">
        <ele>36.705644</ele>
        <time>2020-07-15T14:25:34.961Z</time>
      </trkpt>
      <trkpt lat="60.6288" lon="5.10095">
        <ele>38.322251</ele>
        <time>2020-07-15T14:25:55.326Z</time>
      </trkpt>
      <trkpt lat="60.62859" lon="5.10105">
        <ele>38.768935</ele>
        <time>2020-07-15T14:25:59.095Z</time>
      </trkpt>
      <trkpt lat="60.62839" lon="5.10117">
        <ele>39.205837</ele>
        <time>2020-07-15T14:26:03.848Z</time>
      </trkpt>
      <trkpt lat="60.6271" lon="5.10127">
        <ele>41.066538</ele>
        <time>2020-07-15T14:26:31.047Z</time>
      </trkpt>
      <trkpt lat="60.627" lon="5.10117">
        <ele>41.196806</ele>
        <time>2020-07-15T14:26:33.968Z</time>
      </trkpt>
      <trkpt lat="60.62693" lon="5.10087">
        <ele>41.388928</ele>
        <time>2020-07-15T14:26:37.399Z</time>
      </trkpt>
      <trkpt lat="60.62695" lon="5.09996">
        <ele>41.921378</ele>
        <time>2020-07-15T14:26:46.566Z</time>
      </trkpt>
      <trkpt lat="60.6269" lon="5.09917">
        <ele>42.400325</ele>
        <time>2020-07-15T14:26:55.298Z</time>
      </trkpt>
      <trkpt lat="60.62689" lon="5.09875">
        <ele>42.654641</ele>
        <time>2020-07-15T14:27:00.565Z</time>
      </trkpt>
      <trkpt lat="60.6269" lon="5.09858">
        <ele>42.763027</ele>
        <time>2020-07-15T14:27:02.079Z</time>
      </trkpt>
      <trkpt lat="60.62699" lon="5.09785">
        <ele>43.226239</ele>
        <time>2020-07-15T14:27:10.651Z</time>
      </trkpt>
      <trkpt lat="60.62702" lon="5.09767">
        <ele>43.34419</ele>
        <time>2020-07-15T14:27:12.326Z</time>
      </trkpt>
      <trkpt lat="60.62713" lon="5.09692">
        <ele>43.818679</ele>
        <time>2020-07-15T14:27:20.428Z</time>
      </trkpt>
      <trkpt lat="60.62723" lon="5.09638">
        <ele>44.177571</ele>
        <time>2020-07-15T14:27:26.610Z</time>
      </trkpt>
      <trkpt lat="60.62747" lon="5.09552">
        <ele>43.844415</ele>
        <time>2020-07-15T14:27:37.614Z</time>
      </trkpt>
      <trkpt lat="60.62763" lon="5.09425">
        <ele>42.873129</ele>
        <time>2020-07-15T14:27:49.753Z</time>
      </trkpt>
      <trkpt lat="60.62791" lon="5.09311">
        <ele>41.921005</ele>
        <time>2020-07-15T14:27:57.995Z</time>
      </trkpt>
      <trkpt lat="60.62798" lon="5.09278">
        <ele>41.651858</ele>
        <time>2020-07-15T14:28:00.114Z</time>
      </trkpt>
      <trkpt lat="60.62803" lon="5.09222">
        <ele>39.880147</ele>
        <time>2020-07-15T14:28:03.358Z</time>
      </trkpt>
      <trkpt lat="60.62804" lon="5.09194">
        <ele>38.978913</ele>
        <time>2020-07-15T14:28:05.105Z</time>
      </trkpt>
      <trkpt lat="60.62804" lon="5.09174">
        <ele>38.325109</ele>
        <time>2020-07-15T14:28:06.219Z</time>
      </trkpt>
      <trkpt lat="60.62802" lon="5.09127">
        <ele>36.776022</ele>
        <time>2020-07-15T14:28:08.901Z</time>
      </trkpt>
      <trkpt lat="60.62797" lon="5.0904">
        <ele>33.938127</ele>
        <time>2020-07-15T14:28:13.865Z</time>
      </trkpt>
      <trkpt lat="60.62794" lon="5.09018">
        <ele>33.198915</ele>
        <time>2020-07-15T14:28:15.054Z</time>
      </trkpt>
      <trkpt lat="60.62792" lon="5.09">
        <ele>32.581279</ele>
        <time>2020-07-15T14:28:16.100Z</time>
      </trkpt>
      <trkpt lat="60.62781" lon="5.08948">
        <ele>30.773669</ele>
        <time>2020-07-15T14:28:19.202Z</time>
      </trkpt>
      <trkpt lat="60.62779" lon="5.08899">
        <ele>29.364885</ele>
        <time>2020-07-15T14:28:22.084Z</time>
      </trkpt>
      <trkpt lat="60.62781" lon="5.08864">
        <ele>28.651122</ele>
        <time>2020-07-15T14:28:23.962Z</time>
      </trkpt>
      <trkpt lat="60.62783" lon="5.08823">
        <ele>27.827342</ele>
        <time>2020-07-15T14:28:26.442Z</time>
      </trkpt>
      <trkpt lat="60.62785" lon="5.08772">
        <ele>26.77793</ele>
        <time>2020-07-15T14:28:29.468Z</time>
      </trkpt>
      <trkpt lat="60.62782" lon="5.08648">
        <ele>24.281356</ele>
        <time>2020-07-15T14:28:37.327Z</time>
      </trkpt>
      <trkpt lat="60.62782" lon="5.08623">
        <ele>23.768285</ele>
        <time>2020-07-15T14:28:39.216Z</time>
      </trkpt>
      <trkpt lat="60.62784" lon="5.08566">
        <ele>22.609922</ele>
        <time>2020-07-15T14:28:43.265Z</time>
      </trkpt>
      <trkpt lat="60.62792" lon="5.0848">
        <ele>21.985739</ele>
        <time>2020-07-15T14:28:49.820Z</time>
      </trkpt>
      <trkpt lat="60.62798" lon="5.08441">
        <ele>21.804035</ele>
        <time>2020-07-15T14:28:52.916Z</time>
      </trkpt>
      <trkpt lat="60.62801" lon="5.08429">
        <ele>21.743996</ele>
        <time>2020-07-15T14:28:54.079Z</time>
      </trkpt>
      <trkpt lat="60.62811" lon="5.08397">
        <ele>21.576055</ele>
        <time>2020-07-15T14:28:56.940Z</time>
      </trkpt>
      <trkpt lat="60.6282" lon="5.0838">
        <ele>21.468039</ele>
        <time>2020-07-15T14:28:58.856Z</time>
      </trkpt>
      <trkpt lat="60.62832" lon="5.08351">
        <ele>21.30293</ele>
        <time>2020-07-15T14:29:01.805Z</time>
      </trkpt>
      <trkpt lat="60.62842" lon="5.08334">
        <ele>21.183246</ele>
        <time>2020-07-15T14:29:03.846Z</time>
      </trkpt>
      <trkpt lat="60.62851" lon="5.08312">
        <ele>21.056871</ele>
        <time>2020-07-15T14:29:06.269Z</time>
      </trkpt>
      <trkpt lat="60.62862" lon="5.08287">
        <ele>20.906612</ele>
        <time>2020-07-15T14:29:08.891Z</time>
      </trkpt>
      <trkpt lat="60.62875" lon="5.0826">
        <ele>20.740618</ele>
        <time>2020-07-15T14:29:12.088Z</time>
      </trkpt>
      <trkpt lat="60.62913" lon="5.0818">
        <ele>20.528217</ele>
        <time>2020-07-15T14:29:21.037Z</time>
      </trkpt>
      <trkpt lat="60.62959" lon="5.0806">
        <ele>20.291485</ele>
        <time>2020-07-15T14:29:33.626Z</time>
      </trkpt>
      <trkpt lat="60.62965" lon="5.08047">
        <ele>20.26241</ele>
        <time>2020-07-15T14:29:35.241Z</time>
      </trkpt>
      <trkpt lat="60.62976" lon="5.08017">
        <ele>20.204341</ele>
        <time>2020-07-15T14:29:38.417Z</time>
      </trkpt>
      <trkpt lat="60.62996" lon="5.07937">
        <ele>20.19822</ele>
        <time>2020-07-15T14:29:45.937Z</time>
      </trkpt>
      <trkpt lat="60.63005" lon="5.07877">
        <ele>20.395444</ele>
        <time>2020-07-15T14:29:51.210Z</time>
      </trkpt>
      <trkpt lat="60.63009" lon="5.07834">
        <ele>20.531679</ele>
        <time>2020-07-15T14:29:54.967Z</time>
      </trkpt>
      <trkpt lat="60.63011" lon="5.07796">
        <ele>20.65058</ele>
        <time>2020-07-15T14:29:58.552Z</time>
      </trkpt>
      <trkpt lat="60.6301" lon="5.07647">
        <ele>21.114147</ele>
        <time>2020-07-15T14:30:14.013Z</time>
      </trkpt>
      <trkpt lat="60.63016" lon="5.07588">
        <ele>21.339072</ele>
        <time>2020-07-15T14:30:21.022Z</time>
      </trkpt>
      <trkpt lat="60.6302" lon="5.07562">
        <ele>21.483175</ele>
        <time>2020-07-15T14:30:23.904Z</time>
      </trkpt>
      <trkpt lat="60.63036" lon="5.07508">
        <ele>21.819847</ele>
        <time>2020-07-15T14:30:31.299Z</time>
      </trkpt>
      <trkpt lat="60.63056" lon="5.07457">
        <ele>22.165875</ele>
        <time>2020-07-15T14:30:38.830Z</time>
      </trkpt>
      <trkpt lat="60.63071" lon="5.07424">
        <ele>22.408844</ele>
        <time>2020-07-15T14:30:43.778Z</time>
      </trkpt>
      <trkpt lat="60.63079" lon="5.0741">
        <ele>22.523201</ele>
        <time>2020-07-15T14:30:46.002Z</time>
      </trkpt>
      <trkpt lat="60.63127" lon="5.0731">
        <ele>23.164438</ele>
        <time>2020-07-15T14:30:59.597Z</time>
      </trkpt>
      <trkpt lat="60.63145" lon="5.07265">
        <ele>22.910835</ele>
        <time>2020-07-15T14:31:04.368Z</time>
      </trkpt>
      <trkpt lat="60.63153" lon="5.07249">
        <ele>22.819849</ele>
        <time>2020-07-15T14:31:06.107Z</time>
      </trkpt>
      <trkpt lat="60.63174" lon="5.07187">
        <ele>22.48981</ele>
        <time>2020-07-15T14:31:11.970Z</time>
      </trkpt>
      <trkpt lat="60.63201" lon="5.07116">
        <ele>22.09978</ele>
        <time>2020-07-15T14:31:18.437Z</time>
      </trkpt>
      <trkpt lat="60.63209" lon="5.07099">
        <ele>21.995768</ele>
        <time>2020-07-15T14:31:20.020Z</time>
      </trkpt>
      <trkpt lat="60.63234" lon="5.07058">
        <ele>21.713571</ele>
        <time>2020-07-15T14:31:24.853Z</time>
      </trkpt>
      <trkpt lat="60.63241" lon="5.0704">
        <ele>21.640286</ele>
        <time>2020-07-15T14:31:26.441Z</time>
      </trkpt>
      <trkpt lat="60.63256" lon="5.06982">
        <ele>22.024177</ele>
        <time>2020-07-15T14:31:31.272Z</time>
      </trkpt>
      <trkpt lat="60.63281" lon="5.06914">
        <ele>22.511433</ele>
        <time>2020-07-15T14:31:39.625Z</time>
      </trkpt>
      <trkpt lat="60.63294" lon="5.06886">
        <ele>22.734308</ele>
        <time>2020-07-15T14:31:44.059Z</time>
      </trkpt>
      <trkpt lat="60.63361" lon="5.06778">
        <ele>23.748742</ele>
        <time>2020-07-15T14:32:05.697Z</time>
      </trkpt>
      <trkpt lat="60.63373" lon="5.0676">
        <ele>24.108599</ele>
        <time>2020-07-15T14:32:10.210Z</time>
      </trkpt>
      <trkpt lat="60.63385" lon="5.06745">
        <ele>24.447776</ele>
        <time>2020-07-15T14:32:14.010Z</time>
      </trkpt>
      <trkpt lat="60.63393" lon="5.06732">
        <ele>24.684185</ele>
        <time>2020-07-15T14:32:17.098Z</time>
      </trkpt>
      <trkpt lat="60.63492" lon="5.06607">
        <ele>27.482743</ele>
        <time>2020-07-15T14:32:47.791Z</time>
      </trkpt>
      <trkpt lat="60.6351" lon="5.06571">
        <ele>28.076998</ele>
        <time>2020-07-15T14:32:54.021Z</time>
      </trkpt>
      <trkpt lat="60.63542" lon="5.06498">
        <ele>28.034903</ele>
        <time>2020-07-15T14:33:03.177Z</time>
      </trkpt>
      <trkpt lat="60.63553" lon="5.06468">
        <ele>28.018673</ele>
        <time>2020-07-15T14:33:06.629Z</time>
      </trkpt>
      <trkpt lat="60.63585" lon="5.06412">
        <ele>27.981776</ele>
        <time>2020-07-15T14:33:13.950Z</time>
      </trkpt>
      <trkpt lat="60.63609" lon="5.06382">
        <ele>27.956949</ele>
        <time>2020-07-15T14:33:18.418Z</time>
      </trkpt>
      <trkpt lat="60.63617" lon="5.06374">
        <ele>27.949206</ele>
        <time>2020-07-15T14:33:19.882Z</time>
      </trkpt>
      <trkpt lat="60.63635" lon="5.0635">
        <ele>27.930327</ele>
        <time>2020-07-15T14:33:23.035Z</time>
      </trkpt>
      <trkpt lat="60.63661" lon="5.06316">
        <ele>27.699247</ele>
        <time>2020-07-15T14:33:27.679Z</time>
      </trkpt>
      <trkpt lat="60.63679" lon="5.06278">
        <ele>27.396447</ele>
        <time>2020-07-15T14:33:31.531Z</time>
      </trkpt>
      <trkpt lat="60.63697" lon="5.06229">
        <ele>27.039131</ele>
        <time>2020-07-15T14:33:36.061Z</time>
      </trkpt>
      <trkpt lat="60.63721" lon="5.06179">
        <ele>26.632087</ele>
        <time>2020-07-15T14:33:41.239Z</time>
      </trkpt>
      <trkpt lat="60.63729" lon="5.06166">
        <ele>26.513711</ele>
        <time>2020-07-15T14:33:42.807Z</time>
      </trkpt>
      <trkpt lat="60.63745" lon="5.06147">
        <ele>26.293481</ele>
        <time>2020-07-15T14:33:45.569Z</time>
      </trkpt>
      <trkpt lat="60.63788" lon="5.06098">
        <ele>25.765085</ele>
        <time>2020-07-15T14:33:53.170Z</time>
      </trkpt>
      <trkpt lat="60.63817" lon="5.06053">
        <ele>25.621878</ele>
        <time>2020-07-15T14:33:58.831Z</time>
      </trkpt>
      <trkpt lat="60.63881" lon="5.05907">
        <ele>25.241496</ele>
        <time>2020-07-15T14:34:15.091Z</time>
      </trkpt>
      <trkpt lat="60.63891" lon="5.05893">
        <ele>25.195131</ele>
        <time>2020-07-15T14:34:17.136Z</time>
      </trkpt>
      <trkpt lat="60.63903" lon="5.0587">
        <ele>25.128922</ele>
        <time>2020-07-15T14:34:20.273Z</time>
      </trkpt>
      <trkpt lat="60.6393" lon="5.05799">
        <ele>25.064892</ele>
        <time>2020-07-15T14:34:28.349Z</time>
      </trkpt>
      <trkpt lat="60.63954" lon="5.05699">
        <ele>25.035023</ele>
        <time>2020-07-15T14:34:38.289Z</time>
      </trkpt>
      <trkpt lat="60.6396" lon="5.05659">
        <ele>25.023446</ele>
        <time>2020-07-15T14:34:42.101Z</time>
      </trkpt>
      <trkpt lat="60.63971" lon="5.05578">
        <ele>25.000961</ele>
        <time>2020-07-15T14:34:49.300Z</time>
      </trkpt>
      <trkpt lat="60.63981" lon="5.05481">
        <ele>24.822332</ele>
        <time>2020-07-15T14:34:57.422Z</time>
      </trkpt>
      <trkpt lat="60.63983" lon="5.05462">
        <ele>24.73748</ele>
        <time>2020-07-15T14:34:58.942Z</time>
      </trkpt>
      <trkpt lat="60.63985" lon="5.05454">
        <ele>24.697967</ele>
        <time>2020-07-15T14:34:59.613Z</time>
      </trkpt>
      <trkpt lat="60.63988" lon="5.05424">
        <ele>24.557338</ele>
        <time>2020-07-15T14:35:02.068Z</time>
      </trkpt>
      <trkpt lat="60.63995" lon="5.05347">
        <ele>24.203546</ele>
        <time>2020-07-15T14:35:08.171Z</time>
      </trkpt>
      <trkpt lat="60.63997" lon="5.05299">
        <ele>23.98343</ele>
        <time>2020-07-15T14:35:11.821Z</time>
      </trkpt>
      <trkpt lat="60.63999" lon="5.0523">
        <ele>23.671294</ele>
        <time>2020-07-15T14:35:16.977Z</time>
      </trkpt>
      <trkpt lat="60.64" lon="5.05163">
        <ele>23.364807</ele>
        <time>2020-07-15T14:35:21.967Z</time>
      </trkpt>
      <trkpt lat="60.64" lon="5.05039">
        <ele>22.907377</ele>
        <time>2020-07-15T14:35:31.120Z</time>
      </trkpt>
      <trkpt lat="60.63999" lon="5.05028">
        <ele>22.867746</ele>
        <time>2020-07-15T14:35:31.895Z</time>
      </trkpt>
      <trkpt lat="60.63999" lon="5.05">
        <ele>22.767897</ele>
        <time>2020-07-15T14:35:33.988Z</time>
      </trkpt>
      <trkpt lat="60.63998" lon="5.04959">
        <ele>22.618491</ele>
        <time>2020-07-15T14:35:37.136Z</time>
      </trkpt>
      <trkpt lat="60.63997" lon="5.0492">
        <ele>22.477693</ele>
        <time>2020-07-15T14:35:40.231Z</time>
      </trkpt>
      <trkpt lat="60.63996" lon="5.04885">
        <ele>22.349052</ele>
        <time>2020-07-15T14:35:43.033Z</time>
      </trkpt>
      <trkpt lat="60.63996" lon="5.04871">
        <ele>22.301569</ele>
        <time>2020-07-15T14:35:44.136Z</time>
      </trkpt>
      <trkpt lat="60.63996" lon="5.04851">
        <ele>22.228126</ele>
        <time>2020-07-15T14:35:45.874Z</time>
      </trkpt>
      <trkpt lat="60.63997" lon="5.04776">
        <ele>22.017643</ele>
        <time>2020-07-15T14:35:52.377Z</time>
      </trkpt>
      <trkpt lat="60.63998" lon="5.04739">
        <ele>22.099096</ele>
        <time>2020-07-15T14:35:55.549Z</time>
      </trkpt>
      <trkpt lat="60.64004" lon="5.04662">
        <ele>22.270114</ele>
        <time>2020-07-15T14:36:02.767Z</time>
      </trkpt>
      <trkpt lat="60.64007" lon="5.04633">
        <ele>22.336479</ele>
        <time>2020-07-15T14:36:05.747Z</time>
      </trkpt>
      <trkpt lat="60.64012" lon="5.04602">
        <ele>22.406931</ele>
        <time>2020-07-15T14:36:08.724Z</time>
      </trkpt>
      <trkpt lat="60.64019" lon="5.04567">
        <ele>22.489729</ele>
        <time>2020-07-15T14:36:12.530Z</time>
      </trkpt>
      <trkpt lat="60.64025" lon="5.04539">
        <ele>22.557524</ele>
        <time>2020-07-15T14:36:15.480Z</time>
      </trkpt>
      <trkpt lat="60.64031" lon="5.0451">
        <ele>22.626975</ele>
        <time>2020-07-15T14:36:18.747Z</time>
      </trkpt>
      <trkpt lat="60.64047" lon="5.04452">
        <ele>22.775166</ele>
        <time>2020-07-15T14:36:25.470Z</time>
      </trkpt>
      <trkpt lat="60.64072" lon="5.04376">
        <ele>22.864927</ele>
        <time>2020-07-15T14:36:34.198Z</time>
      </trkpt>
      <trkpt lat="60.64086" lon="5.0433">
        <ele>22.908392</ele>
        <time>2020-07-15T14:36:39.287Z</time>
      </trkpt>
      <trkpt lat="60.64122" lon="5.04209">
        <ele>23.022829</ele>
        <time>2020-07-15T14:36:52.031Z</time>
      </trkpt>
      <trkpt lat="60.64128" lon="5.04191">
        <ele>23.04041</ele>
        <time>2020-07-15T14:36:53.858Z</time>
      </trkpt>
      <trkpt lat="60.64143" lon="5.04141">
        <ele>23.087298</ele>
        <time>2020-07-15T14:36:58.781Z</time>
      </trkpt>
      <trkpt lat="60.64167" lon="5.04162">
        <ele>22.961762</ele>
        <time>2020-07-15T14:37:03.018Z</time>
      </trkpt>
      <trkpt lat="60.64186" lon="5.04178">
        <ele>22.814357</ele>
        <time>2020-07-15T14:37:06.456Z</time>
      </trkpt>
      <trkpt lat="60.64232" lon="5.0422">
        <ele>22.468856</ele>
        <time>2020-07-15T14:37:14.433Z</time>
      </trkpt>
      <trkpt lat="60.64236" lon="5.04221">
        <ele>22.441003</ele>
        <time>2020-07-15T14:37:15.027Z</time>
      </trkpt>
      <trkpt lat="60.64294" lon="5.0422">
        <ele>22.038214</ele>
        <time>2020-07-15T14:37:24.168Z</time>
      </trkpt>
      <trkpt lat="60.64301" lon="5.04222">
        <ele>21.988392</ele>
        <time>2020-07-15T14:37:25.274Z</time>
      </trkpt>
      <trkpt lat="60.64308" lon="5.04224">
        <ele>21.937882</ele>
        <time>2020-07-15T14:37:26.401Z</time>
      </trkpt>
      <trkpt lat="60.64341" lon="5.04232">
        <ele>21.711847</ele>
        <time>2020-07-15T14:37:31.715Z</time>
      </trkpt>
      <trkpt lat="60.64361" lon="5.04239">
        <ele>21.57692</ele>
        <time>2020-07-15T14:37:34.929Z</time>
      </trkpt>
      <trkpt lat="60.64378" lon="5.04243">
        <ele>21.459421</ele>
        <time>2020-07-15T14:37:37.659Z</time>
      </trkpt>
      <trkpt lat="60.64391" lon="5.04246">
        <ele>21.369501</ele>
        <time>2020-07-15T14:37:39.792Z</time>
      </trkpt>
      <trkpt lat="60.64479" lon="5.04229">
        <ele>20.776051</ele>
        <time>2020-07-15T14:37:53.978Z</time>
      </trkpt>
      <trkpt lat="60.64537" lon="5.04255">
        <ele>20.584316</ele>
        <time>2020-07-15T14:38:03.827Z</time>
      </trkpt>
      <trkpt lat="60.64578" lon="5.0426">
        <ele>20.526332</ele>
        <time>2020-07-15T14:38:10.869Z</time>
      </trkpt>
      <trkpt lat="60.64614" lon="5.04274">
        <ele>20.473006</ele>
        <time>2020-07-15T14:38:17.428Z</time>
      </trkpt>
      <trkpt lat="60.6463" lon="5.04283">
        <ele>20.449105</ele>
        <time>2020-07-15T14:38:20.392Z</time>
      </trkpt>
      <trkpt lat="60.64644" lon="5.04288">
        <ele>20.428588</ele>
        <time>2020-07-15T14:38:22.960Z</time>
      </trkpt>
      <trkpt lat="60.64652" lon="5.0429">
        <ele>20.416615</ele>
        <time>2020-07-15T14:38:24.495Z</time>
      </trkpt>
      <trkpt lat="60.64666" lon="5.04287">
        <ele>20.396698</ele>
        <time>2020-07-15T14:38:26.972Z</time>
      </trkpt>
      <trkpt lat="60.64704" lon="5.04267">
        <ele>20.38843</ele>
        <time>2020-07-15T14:38:34.187Z</time>
      </trkpt>
      <trkpt lat="60.64741" lon="5.04231">
        <ele>20.397139</ele>
        <time>2020-07-15T14:38:41.532Z</time>
      </trkpt>
      <trkpt lat="60.64765" lon="5.04189">
        <ele>20.404149</ele>
        <time>2020-07-15T14:38:47.439Z</time>
      </trkpt>
      <trkpt lat="60.64795" lon="5.04117">
        <ele>20.414132</ele>
        <time>2020-07-15T14:38:55.728Z</time>
      </trkpt>
      <trkpt lat="60.64802" lon="5.04104">
        <ele>20.416139</ele>
        <time>2020-07-15T14:38:57.525Z</time>
      </trkpt>
      <trkpt lat="60.64803" lon="5.04101">
        <ele>20.416564</ele>
        <time>2020-07-15T14:38:57.801Z</time>
      </trkpt>
      <trkpt lat="60.65101" lon="5.03638">
        <ele>19.604272</ele>
        <time>2020-07-15T14:40:01.925Z</time>
      </trkpt>
      <trkpt lat="60.65109" lon="5.03611">
        <ele>19.562791</ele>
        <time>2020-07-15T14:40:04.631Z</time>
      </trkpt>
      <trkpt lat="60.65118" lon="5.03552">
        <ele>19.475989</ele>
        <time>2020-07-15T14:40:09.770Z</time>
      </trkpt>
      <trkpt lat="60.65231" lon="5.0261">
        <ele>18.154749</ele>
        <time>2020-07-15T14:41:30.748Z</time>
      </trkpt>
      <trkpt lat="60.65253" lon="5.02438">
        <ele>17.981793</ele>
        <time>2020-07-15T14:41:45.901Z</time>
      </trkpt>
      <trkpt lat="60.65284" lon="5.02246">
        <ele>17.807942</ele>
        <time>2020-07-15T14:42:03.080Z</time>
      </trkpt>
      <trkpt lat="60.65299" lon="5.02181">
        <ele>17.733661</ele>
        <time>2020-07-15T14:42:09.187Z</time>
      </trkpt>
      <trkpt lat="60.65302" lon="5.02169">
        <ele>17.718129</ele>
        <time>2020-07-15T14:42:10.255Z</time>
      </trkpt>
      <trkpt lat="60.65313" lon="5.02124">
        <ele>17.658123</ele>
        <time>2020-07-15T14:42:14.511Z</time>
      </trkpt>
      <trkpt lat="60.65317" lon="5.02105">
        <ele>17.633206</ele>
        <time>2020-07-15T14:42:16.225Z</time>
      </trkpt>
      <trkpt lat="60.65322" lon="5.02083">
        <ele>17.603472</ele>
        <time>2020-07-15T14:42:18.309Z</time>
      </trkpt>
      <trkpt lat="60.65333" lon="5.0203">
        <ele>17.535042</ele>
        <time>2020-07-15T14:42:23.143Z</time>
      </trkpt>
      <trkpt lat="60.6534" lon="5.01987">
        <ele>17.480269</ele>
        <time>2020-07-15T14:42:27.054Z</time>
      </trkpt>
      <trkpt lat="60.65356" lon="5.01848">
        <ele>17.288774</ele>
        <time>2020-07-15T14:42:38.850Z</time>
      </trkpt>
      <trkpt lat="60.65364" lon="5.01805">
        <ele>17.19139</ele>
        <time>2020-07-15T14:42:42.624Z</time>
      </trkpt>
      <trkpt lat="60.65376" lon="5.01762">
        <ele>17.085168</ele>
        <time>2020-07-15T14:42:46.681Z</time>
      </trkpt>
      <trkpt lat="60.65399" lon="5.01676">
        <ele>16.878691</ele>
        <time>2020-07-15T14:42:54.675Z</time>
      </trkpt>
      <trkpt lat="60.65407" lon="5.01646">
        <ele>16.806965</ele>
        <time>2020-07-15T14:42:57.380Z</time>
      </trkpt>
      <trkpt lat="60.65419" lon="5.01612">
        <ele>16.720401</ele>
        <time>2020-07-15T14:43:00.745Z</time>
      </trkpt>
      <trkpt lat="60.65444" lon="5.01548">
        <ele>16.542874</ele>
        <time>2020-07-15T14:43:07.521Z</time>
      </trkpt>
      <trkpt lat="60.65449" lon="5.01535">
        <ele>16.505437</ele>
        <time>2020-07-15T14:43:08.819Z</time>
      </trkpt>
      <trkpt lat="60.65504" lon="5.01387">
        <ele>16.075331</ele>
        <time>2020-07-15T14:43:23.833Z</time>
      </trkpt>
      <trkpt lat="60.65507" lon="5.01381">
        <ele>16.05626</ele>
        <time>2020-07-15T14:43:24.495Z</time>
      </trkpt>
      <trkpt lat="60.65528" lon="5.01325">
        <ele>15.891544</ele>
        <time>2020-07-15T14:43:30.245Z</time>
      </trkpt>
      <trkpt lat="60.65539" lon="5.01296">
        <ele>15.80421</ele>
        <time>2020-07-15T14:43:33.358Z</time>
      </trkpt>
      <trkpt lat="60.65547" lon="5.01271">
        <ele>15.737087</ele>
        <time>2020-07-15T14:43:35.684Z</time>
      </trkpt>
      <trkpt lat="60.65557" lon="5.01229">
        <ele>15.565672</ele>
        <time>2020-07-15T14:43:39.537Z</time>
      </trkpt>
      <trkpt lat="60.65569" lon="5.01159">
        <ele>15.261592</ele>
        <time>2020-07-15T14:43:45.420Z</time>
      </trkpt>
      <trkpt lat="60.65591" lon="5.01021">
        <ele>14.662497</ele>
        <time>2020-07-15T14:43:56.772Z</time>
      </trkpt>
      <trkpt lat="60.65604" lon="5.00949">
        <ele>14.345395</ele>
        <time>2020-07-15T14:44:02.566Z</time>
      </trkpt>
      <trkpt lat="60.65606" lon="5.00939">
        <ele>14.301941</ele>
        <time>2020-07-15T14:44:03.317Z</time>
      </trkpt>
      <trkpt lat="60.65604" lon="5.00871">
        <ele>13.842799</ele>
        <time>2020-07-15T14:44:08.353Z</time>
      </trkpt>
      <trkpt lat="60.65559" lon="5.00766">
        <ele>12.683355</ele>
        <time>2020-07-15T14:44:18.335Z</time>
      </trkpt>
      <trkpt lat="60.65547" lon="5.00692">
        <ele>12.033981</ele>
        <time>2020-07-15T14:44:23.707Z</time>
      </trkpt>
      <trkpt lat="60.65551" lon="5.0062">
        <ele>11.420142</ele>
        <time>2020-07-15T14:44:28.773Z</time>
      </trkpt>
      <trkpt lat="60.65575" lon="5.00524">
        <ele>10.445506</ele>
        <time>2020-07-15T14:44:36.212Z</time>
      </trkpt>
      <trkpt lat="60.65606" lon="5.00448">
        <ele>9.527497</ele>
        <time>2020-07-15T14:44:42.943Z</time>
      </trkpt>
      <trkpt lat="60.65659" lon="5.00316">
        <ele>7.921135</ele>
        <time>2020-07-15T14:44:54.884Z</time>
      </trkpt>
      <trkpt lat="60.65712" lon="5.00197">
        <ele>6.904912</ele>
        <time>2020-07-15T14:45:06.453Z</time>
      </trkpt>
      <trkpt lat="60.65761" lon="5.00108">
        <ele>6.139257</ele>
        <time>2020-07-15T14:45:16.512Z</time>
      </trkpt>
      <trkpt lat="60.65823" lon="4.9993">
        <ele>5.469074</ele>
        <time>2020-07-15T14:45:33.560Z</time>
      </trkpt>
      <trkpt lat="60.65861" lon="4.99833">
        <ele>5.359353</ele>
        <time>2020-07-15T14:45:44.230Z</time>
      </trkpt>
      <trkpt lat="60.65862" lon="4.9983">
        <ele>5.355282</ele>
        <time>2020-07-15T14:45:44.608Z</time>
      </trkpt>
      <trkpt lat="60.65879" lon="4.9979">
        <ele>5.307721</ele>
        <time>2020-07-15T14:45:49.468Z</time>
      </trkpt>
      <trkpt lat="60.65894" lon="4.99763">
        <ele>5.272209</ele>
        <time>2020-07-15T14:45:53.037Z</time>
      </trkpt>
      <trkpt lat="60.65919" lon="4.99727">
        <ele>5.500646</ele>
        <time>2020-07-15T14:45:58.786Z</time>
      </trkpt>
      <trkpt lat="60.6593" lon="4.99713">
        <ele>5.673819</ele>
        <time>2020-07-15T14:46:01.394Z</time>
      </trkpt>
      <trkpt lat="60.6597" lon="4.99643">
        <ele>6.374776</ele>
        <time>2020-07-15T14:46:12.139Z</time>
      </trkpt>
      <trkpt lat="60.66015" lon="4.99498">
        <ele>7.508716</ele>
        <time>2020-07-15T14:46:31.850Z</time>
      </trkpt>
      <trkpt lat="60.66025" lon="4.9946">
        <ele>7.998861</ele>
        <time>2020-07-15T14:46:37.007Z</time>
      </trkpt>
      <trkpt lat="60.66032" lon="4.99429">
        <ele>8.632696</ele>
        <time>2020-07-15T14:46:41.715Z</time>
      </trkpt>
      <trkpt lat="60.66051" lon="4.99351">
        <ele>10.181042</ele>
        <time>2020-07-15T14:46:53.101Z</time>
      </trkpt>
      <trkpt lat="60.66092" lon="4.99287">
        <ele>12.075615</ele>
        <time>2020-07-15T14:47:07.810Z</time>
      </trkpt>
      <trkpt lat="60.66098" lon="4.99276">
        <ele>12.375561</ele>
        <time>2020-07-15T14:47:10.782Z</time>
      </trkpt>
      <trkpt lat="60.66103" lon="4.99267">
        <ele>12.606502</ele>
        <time>2020-07-15T14:47:12.748Z</time>
      </trkpt>
      <trkpt lat="60.6611" lon="4.99249">
        <ele>13.038358</ele>
        <time>2020-07-15T14:47:16.628Z</time>
      </trkpt>
      <trkpt lat="60.6613" lon="4.99171">
        <ele>14.812681</ele>
        <time>2020-07-15T14:47:31.131Z</time>
      </trkpt>
      <trkpt lat="60.66141" lon="4.99118">
        <ele>16.452777</ele>
        <time>2020-07-15T14:47:41.298Z</time>
      </trkpt>
      <trkpt lat="60.66141" lon="4.99118">
        <ele>16.452777</ele>
        <time>2020-07-15T14:47:41.310Z</time>
      </trkpt>
      <trkpt lat="60.66141" lon="4.99118">
        <ele>16.452777</ele>
        <time>2020-07-15T14:47:41.400Z</time>
      </trkpt>
      <trkpt lat="60.66158" lon="4.99015">
        <ele>19.503707</ele>
        <time>2020-07-15T14:48:01.634Z</time>
      </trkpt>
      <trkpt lat="60.6618" lon="4.9889">
        <ele>23.251491</ele>
        <time>2020-07-15T14:48:26.225Z</time>
      </trkpt>
      <trkpt lat="60.66186" lon="4.98807">
        <ele>25.331111</ele>
        <time>2020-07-15T14:48:40.598Z</time>
      </trkpt>
      <trkpt lat="60.66186" lon="4.98763">
        <ele>26.207559</ele>
        <time>2020-07-15T14:48:48.446Z</time>
      </trkpt>
      <trkpt lat="60.66187" lon="4.98747">
        <ele>26.516915</ele>
        <time>2020-07-15T14:48:50.874Z</time>
      </trkpt>
      <trkpt lat="60.662" lon="4.98698">
        <ele>27.602331</ele>
        <time>2020-07-15T14:48:59.790Z</time>
      </trkpt>
      <trkpt lat="60.66211" lon="4.98661">
        <ele>28.459919</ele>
        <time>2020-07-15T14:49:06.206Z</time>
      </trkpt>
      <trkpt lat="60.66225" lon="4.98611">
        <ele>29.590246</ele>
        <time>2020-07-15T14:49:14.639Z</time>
      </trkpt>
      <trkpt lat="60.66235" lon="4.98576">
        <ele>30.379576</ele>
        <time>2020-07-15T14:49:20.407Z</time>
      </trkpt>
      <trkpt lat="60.66255" lon="4.98501">
        <ele>31.9468</ele>
        <time>2020-07-15T14:49:31.854Z</time>
      </trkpt>
      <trkpt lat="60.66271" lon="4.98443">
        <ele>32.534087</ele>
        <time>2020-07-15T14:49:39.154Z</time>
      </trkpt>
      <trkpt lat="60.6629" lon="4.9838">
        <ele>33.179779</ele>
        <time>2020-07-15T14:49:47.564Z</time>
      </trkpt>
      <trkpt lat="60.66299" lon="4.98345">
        <ele>33.529369</ele>
        <time>2020-07-15T14:49:52.358Z</time>
      </trkpt>
      <trkpt lat="60.66335" lon="4.98187">
        <ele>35.057637</ele>
        <time>2020-07-15T14:50:11.793Z</time>
      </trkpt>
      <trkpt lat="60.66343" lon="4.98159">
        <ele>35.132746</ele>
        <time>2020-07-15T14:50:15.573Z</time>
      </trkpt>
      <trkpt lat="60.6635" lon="4.98135">
        <ele>35.181883</ele>
        <time>2020-07-15T14:50:18.450Z</time>
      </trkpt>
      <trkpt lat="60.66367" lon="4.98095">
        <ele>35.27288</ele>
        <time>2020-07-15T14:50:23.923Z</time>
      </trkpt>
      <trkpt lat="60.66383" lon="4.98058">
        <ele>35.356658</ele>
        <time>2020-07-15T14:50:28.511Z</time>
      </trkpt>
      <trkpt lat="60.66388" lon="4.98048">
        <ele>35.381751</ele>
        <time>2020-07-15T14:50:29.903Z</time>
      </trkpt>
      <trkpt lat="60.66398" lon="4.98018">
        <ele>35.445521</ele>
        <time>2020-07-15T14:50:33.192Z</time>
      </trkpt>
      <trkpt lat="60.66422" lon="4.97962">
        <ele>35.573614</ele>
        <time>2020-07-15T14:50:39.671Z</time>
      </trkpt>
      <trkpt lat="60.66441" lon="4.97918">
        <ele>35.674854</ele>
        <time>2020-07-15T14:50:44.627Z</time>
      </trkpt>
      <trkpt lat="60.66463" lon="4.97873">
        <ele>35.547881</ele>
        <time>2020-07-15T14:50:49.575Z</time>
      </trkpt>
      <trkpt lat="60.66471" lon="4.97859">
        <ele>35.457415</ele>
        <time>2020-07-15T14:50:51.279Z</time>
      </trkpt>
      <trkpt lat="60.6651" lon="4.97809">
        <ele>35.060285</ele>
        <time>2020-07-15T14:50:58.395Z</time>
      </trkpt>
      <trkpt lat="60.66522" lon="4.97794">
        <ele>34.936265</ele>
        <time>2020-07-15T14:51:00.571Z</time>
      </trkpt>
      <trkpt lat="60.66545" lon="4.9777">
        <ele>34.713624</ele>
        <time>2020-07-15T14:51:04.573Z</time>
      </trkpt>
      <trkpt lat="60.6657" lon="4.97735">
        <ele>34.459599</ele>
        <time>2020-07-15T14:51:09.116Z</time>
      </trkpt>
      <trkpt lat="60.66592" lon="4.97705">
        <ele>34.233698</ele>
        <time>2020-07-15T14:51:13.242Z</time>
      </trkpt>
      <trkpt lat="60.66604" lon="4.97689">
        <ele>34.129652</ele>
        <time>2020-07-15T14:51:15.609Z</time>
      </trkpt>
      <trkpt lat="60.66625" lon="4.97652">
        <ele>33.974889</ele>
        <time>2020-07-15T14:51:20.063Z</time>
      </trkpt>
      <trkpt lat="60.66638" lon="4.97631">
        <ele>33.880846</ele>
        <time>2020-07-15T14:51:22.782Z</time>
      </trkpt>
      <trkpt lat="60.66695" lon="4.97542">
        <ele>33.479776</ele>
        <time>2020-07-15T14:51:34.666Z</time>
      </trkpt>
      <trkpt lat="60.66732" lon="4.97483">
        <ele>33.212429</ele>
        <time>2020-07-15T14:51:42.626Z</time>
      </trkpt>
      <trkpt lat="60.66744" lon="4.97465">
        <ele>33.108543</ele>
        <time>2020-07-15T14:51:44.998Z</time>
      </trkpt>
      <trkpt lat="60.66773" lon="4.97418">
        <ele>32.735561</ele>
        <time>2020-07-15T14:51:51.017Z</time>
      </trkpt>
      <trkpt lat="60.66813" lon="4.97356">
        <ele>32.22508</ele>
        <time>2020-07-15T14:51:58.983Z</time>
      </trkpt>
      <trkpt lat="60.66842" lon="4.9732">
        <ele>31.887472</ele>
        <time>2020-07-15T14:52:04.149Z</time>
      </trkpt>
      <trkpt lat="60.66861" lon="4.97295">
        <ele>31.658811</ele>
        <time>2020-07-15T14:52:07.548Z</time>
      </trkpt>
      <trkpt lat="60.66894" lon="4.97249">
        <ele>31.14703</ele>
        <time>2020-07-15T14:52:13.475Z</time>
      </trkpt>
      <trkpt lat="60.66897" lon="4.97244">
        <ele>31.047289</ele>
        <time>2020-07-15T14:52:14.140Z</time>
      </trkpt>
      <trkpt lat="60.66902" lon="4.97239">
        <ele>30.928989</ele>
        <time>2020-07-15T14:52:14.942Z</time>
      </trkpt>
      <trkpt lat="60.66916" lon="4.97223">
        <ele>30.580501</ele>
        <time>2020-07-15T14:52:17.189Z</time>
      </trkpt>
      <trkpt lat="60.67008" lon="4.97092">
        <ele>28.088232</ele>
        <time>2020-07-15T14:52:32.823Z</time>
      </trkpt>
      <trkpt lat="60.67073" lon="4.9696">
        <ele>25.67262</ele>
        <time>2020-07-15T14:52:44.873Z</time>
      </trkpt>
      <trkpt lat="60.67085" lon="4.9694">
        <ele>25.240058</ele>
        <time>2020-07-15T14:52:46.791Z</time>
      </trkpt>
      <trkpt lat="60.67119" lon="4.96871">
        <ele>23.85983</ele>
        <time>2020-07-15T14:52:53.312Z</time>
      </trkpt>
      <trkpt lat="60.67132" lon="4.96841">
        <ele>23.302266</ele>
        <time>2020-07-15T14:52:55.855Z</time>
      </trkpt>
      <trkpt lat="60.67156" lon="4.96791">
        <ele>22.3288</ele>
        <time>2020-07-15T14:53:00.495Z</time>
      </trkpt>
      <trkpt lat="60.67192" lon="4.96712">
        <ele>21.557905</ele>
        <time>2020-07-15T14:53:07.867Z</time>
      </trkpt>
      <trkpt lat="60.67201" lon="4.96688">
        <ele>21.354248</ele>
        <time>2020-07-15T14:53:09.960Z</time>
      </trkpt>
      <trkpt lat="60.67213" lon="4.96648">
        <ele>21.044931</ele>
        <time>2020-07-15T14:53:13.447Z</time>
      </trkpt>
      <trkpt lat="60.67235" lon="4.96565">
        <ele>20.417826</ele>
        <time>2020-07-15T14:53:20.586Z</time>
      </trkpt>
      <trkpt lat="60.67269" lon="4.9651">
        <ele>19.829628</ele>
        <time>2020-07-15T14:53:27.770Z</time>
      </trkpt>
      <trkpt lat="60.6732" lon="4.9645">
        <ele>19.39887</ele>
        <time>2020-07-15T14:53:37.562Z</time>
      </trkpt>
      <trkpt lat="60.67325" lon="4.96444">
        <ele>19.359538</ele>
        <time>2020-07-15T14:53:38.433Z</time>
      </trkpt>
      <trkpt lat="60.6735" lon="4.96418">
        <ele>19.166921</ele>
        <time>2020-07-15T14:53:42.966Z</time>
      </trkpt>
      <trkpt lat="60.67373" lon="4.96378">
        <ele>18.958769</ele>
        <time>2020-07-15T14:53:47.766Z</time>
      </trkpt>
      <trkpt lat="60.67393" lon="4.96346">
        <ele>18.781315</ele>
        <time>2020-07-15T14:53:51.812Z</time>
      </trkpt>
      <trkpt lat="60.67489" lon="4.96166">
        <ele>17.923614</ele>
        <time>2020-07-15T14:54:12.627Z</time>
      </trkpt>
      <trkpt lat="60.67518" lon="4.96103">
        <ele>17.655891</ele>
        <time>2020-07-15T14:54:19.356Z</time>
      </trkpt>
      <trkpt lat="60.67694" lon="4.95671">
        <ele>15.962689</ele>
        <time>2020-07-15T14:55:04.867Z</time>
      </trkpt>
      <trkpt lat="60.67706" lon="4.95648">
        <ele>15.806812</ele>
        <time>2020-07-15T14:55:07.543Z</time>
      </trkpt>
      <trkpt lat="60.6772" lon="4.95614">
        <ele>15.599033</ele>
        <time>2020-07-15T14:55:11.091Z</time>
      </trkpt>
      <trkpt lat="60.6779" lon="4.95455">
        <ele>14.283083</ele>
        <time>2020-07-15T14:55:27.021Z</time>
      </trkpt>
      <trkpt lat="60.67841" lon="4.95339">
        <ele>11.987008</ele>
        <time>2020-07-15T14:55:37.395Z</time>
      </trkpt>
      <trkpt lat="60.67877" lon="4.95257">
        <ele>10.371236</ele>
        <time>2020-07-15T14:55:44.352Z</time>
      </trkpt>
      <trkpt lat="60.6789" lon="4.95227">
        <ele>9.784516</ele>
        <time>2020-07-15T14:55:46.789Z</time>
      </trkpt>
      <trkpt lat="60.67908" lon="4.95166">
        <ele>8.632863</ele>
        <time>2020-07-15T14:55:51.079Z</time>
      </trkpt>
      <trkpt lat="60.67915" lon="4.95145">
        <ele>8.179618</ele>
        <time>2020-07-15T14:55:52.688Z</time>
      </trkpt>
      <trkpt lat="60.67918" lon="4.95132">
        <ele>7.932771</ele>
        <time>2020-07-15T14:55:53.564Z</time>
      </trkpt>
      <trkpt lat="60.67921" lon="4.95119">
        <ele>7.696953</ele>
        <time>2020-07-15T14:55:54.325Z</time>
      </trkpt>
      <trkpt lat="60.67934" lon="4.95075">
        <ele>6.808335</ele>
        <time>2020-07-15T14:55:57.587Z</time>
      </trkpt>
      <trkpt lat="60.67975" lon="4.94995">
        <ele>4.808116</ele>
        <time>2020-07-15T14:56:04.755Z</time>
      </trkpt>
      <trkpt lat="60.68011" lon="4.94932">
        <ele>3.124018</ele>
        <time>2020-07-15T14:56:11.093Z</time>
      </trkpt>
      <trkpt lat="60.68028" lon="4.94896">
        <ele>3.074343</ele>
        <time>2020-07-15T14:56:14.351Z</time>
      </trkpt>
      <trkpt lat="60.68033" lon="4.94886">
        <ele>3.086557</ele>
        <time>2020-07-15T14:56:15.571Z</time>
      </trkpt>
      <trkpt lat="60.68048" lon="4.94871">
        <ele>3.113576</ele>
        <time>2020-07-15T14:56:18.262Z</time>
      </trkpt>
      <trkpt lat="60.68102" lon="4.94857">
        <ele>3.200887</ele>
        <time>2020-07-15T14:56:27.719Z</time>
      </trkpt>
      <trkpt lat="60.68121" lon="4.94831">
        <ele>3.237231</ele>
        <time>2020-07-15T14:56:32.636Z</time>
      </trkpt>
      <trkpt lat="60.68132" lon="4.94807">
        <ele>3.262863</ele>
        <time>2020-07-15T14:56:36.012Z</time>
      </trkpt>
      <trkpt lat="60.68139" lon="4.94792">
        <ele>3.279284</ele>
        <time>2020-07-15T14:56:38.314Z</time>
      </trkpt>
      <trkpt lat="60.68142" lon="4.94782">
        <ele>3.288511</ele>
        <time>2020-07-15T14:56:40.054Z</time>
      </trkpt>
      <trkpt lat="60.68177" lon="4.94706">
        <ele>3.922391</ele>
        <time>2020-07-15T14:56:52.646Z</time>
      </trkpt>
      <trkpt lat="60.68204" lon="4.94653">
        <ele>4.783394</ele>
        <time>2020-07-15T14:57:02.222Z</time>
      </trkpt>
      <trkpt lat="60.68225" lon="4.94624">
        <ele>5.365436</ele>
        <time>2020-07-15T14:57:09.056Z</time>
      </trkpt>
      <trkpt lat="60.68284" lon="4.94573">
        <ele>6.820107</ele>
        <time>2020-07-15T14:57:25.519Z</time>
      </trkpt>
      <trkpt lat="60.68318" lon="4.94571">
        <ele>7.522965</ele>
        <time>2020-07-15T14:57:34.404Z</time>
      </trkpt>
      <trkpt lat="60.68426" lon="4.94396">
        <ele>8.963562</ele>
        <time>2020-07-15T14:58:04.352Z</time>
      </trkpt>
      <trkpt lat="60.6844" lon="4.94364">
        <ele>9.178834</ele>
        <time>2020-07-15T14:58:08.127Z</time>
      </trkpt>
      <trkpt lat="60.68445" lon="4.94332">
        <ele>9.314759</ele>
        <time>2020-07-15T14:58:11.049Z</time>
      </trkpt>
      <trkpt lat="60.68449" lon="4.94297">
        <ele>9.208105</ele>
        <time>2020-07-15T14:58:14.092Z</time>
      </trkpt>
      <trkpt lat="60.68454" lon="4.94234">
        <ele>9.014472</ele>
        <time>2020-07-15T14:58:19.279Z</time>
      </trkpt>
      <trkpt lat="60.68468" lon="4.94132">
        <ele>8.696714</ele>
        <time>2020-07-15T14:58:27.721Z</time>
      </trkpt>
      <trkpt lat="60.68515" lon="4.94021">
        <ele>8.259136</ele>
        <time>2020-07-15T14:58:38.768Z</time>
      </trkpt>
      <trkpt lat="60.68525" lon="4.94002">
        <ele>8.175169</ele>
        <time>2020-07-15T14:58:40.752Z</time>
      </trkpt>
      <trkpt lat="60.68548" lon="4.93958">
        <ele>7.971961</ele>
        <time>2020-07-15T14:58:45.720Z</time>
      </trkpt>
      <trkpt lat="60.68568" lon="4.93929">
        <ele>7.816516</ele>
        <time>2020-07-15T14:58:49.569Z</time>
      </trkpt>
      <trkpt lat="60.68586" lon="4.93909">
        <ele>7.687253</ele>
        <time>2020-07-15T14:58:52.773Z</time>
      </trkpt>
      <trkpt lat="60.68601" lon="4.93892">
        <ele>7.578326</ele>
        <time>2020-07-15T14:58:55.520Z</time>
      </trkpt>
      <trkpt lat="60.68617" lon="4.93858">
        <ele>7.431437</ele>
        <time>2020-07-15T14:58:59.258Z</time>
      </trkpt>
      <trkpt lat="60.68634" lon="4.93822">
        <ele>7.276895</ele>
        <time>2020-07-15T14:59:03.220Z</time>
      </trkpt>
      <trkpt lat="60.6866" lon="4.93761">
        <ele>7.117711</ele>
        <time>2020-07-15T14:59:10.406Z</time>
      </trkpt>
      <trkpt lat="60.6867" lon="4.93741">
        <ele>7.159727</ele>
        <time>2020-07-15T14:59:12.920Z</time>
      </trkpt>
      <trkpt lat="60.6868" lon="4.93725">
        <ele>7.199457</ele>
        <time>2020-07-15T14:59:15.153Z</time>
      </trkpt>
      <trkpt lat="60.68699" lon="4.93701">
        <ele>7.267969</ele>
        <time>2020-07-15T14:59:19.312Z</time>
      </trkpt>
      <trkpt lat="60.68733" lon="4.93665">
        <ele>7.388207</ele>
        <time>2020-07-15T14:59:26.489Z</time>
      </trkpt>
      <trkpt lat="60.68752" lon="4.93648">
        <ele>7.451983</ele>
        <time>2020-07-15T14:59:30.309Z</time>
      </trkpt>
      <trkpt lat="60.68773" lon="4.9363">
        <ele>7.523523</ele>
        <time>2020-07-15T14:59:34.884Z</time>
      </trkpt>
      <trkpt lat="60.68841" lon="4.93567">
        <ele>7.804686</ele>
        <time>2020-07-15T14:59:49.879Z</time>
      </trkpt>
      <trkpt lat="60.68895" lon="4.93541">
        <ele>8.058357</ele>
        <time>2020-07-15T15:00:01.008Z</time>
      </trkpt>
      <trkpt lat="60.68919" lon="4.93529">
        <ele>8.171018</ele>
        <time>2020-07-15T15:00:05.847Z</time>
      </trkpt>
      <trkpt lat="60.68935" lon="4.93525">
        <ele>8.244213</ele>
        <time>2020-07-15T15:00:08.778Z</time>
      </trkpt>
      <trkpt lat="60.68973" lon="4.93511">
        <ele>8.423796</ele>
        <time>2020-07-15T15:00:16.034Z</time>
      </trkpt>
      <trkpt lat="60.68986" lon="4.93506">
        <ele>8.460784</ele>
        <time>2020-07-15T15:00:18.311Z</time>
      </trkpt>
      <trkpt lat="60.68993" lon="4.93503">
        <ele>8.44973</ele>
        <time>2020-07-15T15:00:19.698Z</time>
      </trkpt>
      <trkpt lat="60.69009" lon="4.935">
        <ele>8.425819</ele>
        <time>2020-07-15T15:00:22.633Z</time>
      </trkpt>
      <trkpt lat="60.69058" lon="4.93482">
        <ele>8.354054</ele>
        <time>2020-07-15T15:00:31.432Z</time>
      </trkpt>
      <trkpt lat="60.69078" lon="4.93479">
        <ele>8.324664</ele>
        <time>2020-07-15T15:00:34.918Z</time>
      </trkpt>
      <trkpt lat="60.69114" lon="4.93477">
        <ele>8.272398</ele>
        <time>2020-07-15T15:00:40.967Z</time>
      </trkpt>
      <trkpt lat="60.69118" lon="4.93477">
        <ele>8.267316</ele>
        <time>2020-07-15T15:00:41.566Z</time>
      </trkpt>
      <trkpt lat="60.69129" lon="4.93473">
        <ele>8.250892</ele>
        <time>2020-07-15T15:00:43.460Z</time>
      </trkpt>
      <trkpt lat="60.69142" lon="4.93472">
        <ele>8.231406</ele>
        <time>2020-07-15T15:00:45.701Z</time>
      </trkpt>
      <trkpt lat="60.69163" lon="4.93471">
        <ele>8.202101</ele>
        <time>2020-07-15T15:00:49.096Z</time>
      </trkpt>
      <trkpt lat="60.69185" lon="4.93469">
        <ele>8.171273</ele>
        <time>2020-07-15T15:00:52.905Z</time>
      </trkpt>
      <trkpt lat="60.69192" lon="4.93469">
        <ele>8.162454</ele>
        <time>2020-07-15T15:00:53.974Z</time>
      </trkpt>
      <trkpt lat="60.69217" lon="4.93464">
        <ele>8.127926</ele>
        <time>2020-07-15T15:00:58.287Z</time>
      </trkpt>
      <trkpt lat="60.69229" lon="4.93459">
        <ele>8.112064</ele>
        <time>2020-07-15T15:01:00.260Z</time>
      </trkpt>
      <trkpt lat="60.69236" lon="4.93455">
        <ele>8.101085</ele>
        <time>2020-07-15T15:01:01.636Z</time>
      </trkpt>
      <trkpt lat="60.6925" lon="4.93447">
        <ele>8.081824</ele>
        <time>2020-07-15T15:01:04.102Z</time>
      </trkpt>
      <trkpt lat="60.69334" lon="4.9339">
        <ele>7.961753</ele>
        <time>2020-07-15T15:01:19.735Z</time>
      </trkpt>
      <trkpt lat="60.69346" lon="4.93382">
        <ele>8.018177</ele>
        <time>2020-07-15T15:01:22.031Z</time>
      </trkpt>
      <trkpt lat="60.69386" lon="4.93355">
        <ele>8.225746</ele>
        <time>2020-07-15T15:01:30.038Z</time>
      </trkpt>
      <trkpt lat="60.69422" lon="4.93329">
        <ele>8.413233</ele>
        <time>2020-07-15T15:01:37.598Z</time>
      </trkpt>
      <trkpt lat="60.69449" lon="4.93312">
        <ele>8.553072</ele>
        <time>2020-07-15T15:01:43.360Z</time>
      </trkpt>
      <trkpt lat="60.69465" lon="4.93298">
        <ele>8.638019</ele>
        <time>2020-07-15T15:01:46.893Z</time>
      </trkpt>
      <trkpt lat="60.69494" lon="4.93275">
        <ele>8.793898</ele>
        <time>2020-07-15T15:01:53.309Z</time>
      </trkpt>
      <trkpt lat="60.69503" lon="4.93266">
        <ele>8.843623</ele>
        <time>2020-07-15T15:01:55.466Z</time>
      </trkpt>
      <trkpt lat="60.6954" lon="4.9323">
        <ele>8.764843</ele>
        <time>2020-07-15T15:02:03.078Z</time>
      </trkpt>
      <trkpt lat="60.69591" lon="4.93175">
        <ele>8.644953</ele>
        <time>2020-07-15T15:02:13.230Z</time>
      </trkpt>
      <trkpt lat="60.69597" lon="4.93168">
        <ele>8.630019</ele>
        <time>2020-07-15T15:02:14.625Z</time>
      </trkpt>
      <trkpt lat="60.69622" lon="4.93143">
        <ele>8.572968</ele>
        <time>2020-07-15T15:02:19.113Z</time>
      </trkpt>
      <trkpt lat="60.69638" lon="4.93128">
        <ele>8.5362</ele>
        <time>2020-07-15T15:02:22.174Z</time>
      </trkpt>
      <trkpt lat="60.69653" lon="4.93112">
        <ele>8.499906</ele>
        <time>2020-07-15T15:02:24.788Z</time>
      </trkpt>
      <trkpt lat="60.69701" lon="4.93053">
        <ele>8.027503</ele>
        <time>2020-07-15T15:02:33.301Z</time>
      </trkpt>
      <trkpt lat="60.69747" lon="4.92978">
        <ele>7.403367</ele>
        <time>2020-07-15T15:02:42.183Z</time>
      </trkpt>
      <trkpt lat="60.69778" lon="4.92933">
        <ele>7.010811</ele>
        <time>2020-07-15T15:02:47.773Z</time>
      </trkpt>
      <trkpt lat="60.69804" lon="4.92901">
        <ele>6.689213</ele>
        <time>2020-07-15T15:02:52.560Z</time>
      </trkpt>
      <trkpt lat="60.69864" lon="4.92851">
        <ele>6.730266</ele>
        <time>2020-07-15T15:03:03.116Z</time>
      </trkpt>
      <trkpt lat="60.69903" lon="4.92828">
        <ele>6.836415</ele>
        <time>2020-07-15T15:03:10.546Z</time>
      </trkpt>
      <trkpt lat="60.69914" lon="4.92823">
        <ele>6.866382</ele>
        <time>2020-07-15T15:03:13.153Z</time>
      </trkpt>
      <trkpt lat="60.69938" lon="4.92818">
        <ele>6.929086</ele>
        <time>2020-07-15T15:03:17.896Z</time>
      </trkpt>
      <trkpt lat="60.6995" lon="4.92815">
        <ele>6.958965</ele>
        <time>2020-07-15T15:03:20.565Z</time>
      </trkpt>
      <trkpt lat="60.69954" lon="4.92815">
        <ele>6.970991</ele>
        <time>2020-07-15T15:03:21.570Z</time>
      </trkpt>
      <trkpt lat="60.69975" lon="4.92817">
        <ele>7.026346</ele>
        <time>2020-07-15T15:03:25.704Z</time>
      </trkpt>
      <trkpt lat="60.6998" lon="4.92819">
        <ele>7.037765</ele>
        <time>2020-07-15T15:03:26.668Z</time>
      </trkpt>
      <trkpt lat="60.69986" lon="4.92821">
        <ele>7.053657</ele>
        <time>2020-07-15T15:03:28.213Z</time>
      </trkpt>
      <trkpt lat="60.70011" lon="4.92846">
        <ele>7.15179</ele>
        <time>2020-07-15T15:03:33.749Z</time>
      </trkpt>
      <trkpt lat="60.70015" lon="4.92851">
        <ele>7.166987</ele>
        <time>2020-07-15T15:03:34.874Z</time>
      </trkpt>
      <trkpt lat="60.70029" lon="4.92871">
        <ele>7.229508</ele>
        <time>2020-07-15T15:03:38.621Z</time>
      </trkpt>
      <trkpt lat="60.70037" lon="4.92882">
        <ele>7.26354</ele>
        <time>2020-07-15T15:03:40.432Z</time>
      </trkpt>
      <trkpt lat="60.70055" lon="4.92908">
        <ele>7.340004</ele>
        <time>2020-07-15T15:03:45.285Z</time>
      </trkpt>
      <trkpt lat="60.70106" lon="4.92987">
        <ele>7.567978</ele>
        <time>2020-07-15T15:03:57.524Z</time>
      </trkpt>
      <trkpt lat="60.70144" lon="4.9303">
        <ele>7.560112</ele>
        <time>2020-07-15T15:04:04.809Z</time>
      </trkpt>
      <trkpt lat="60.70176" lon="4.9305">
        <ele>7.062291</ele>
        <time>2020-07-15T15:04:09.744Z</time>
      </trkpt>
      <trkpt lat="60.70203" lon="4.93045">
        <ele>6.651836</ele>
        <time>2020-07-15T15:04:13.659Z</time>
      </trkpt>
      <trkpt lat="60.70219" lon="4.93031">
        <ele>6.383163</ele>
        <time>2020-07-15T15:04:16.106Z</time>
      </trkpt>
      <trkpt lat="60.70232" lon="4.93021">
        <ele>6.183834</ele>
        <time>2020-07-15T15:04:17.945Z</time>
      </trkpt>
      <trkpt lat="60.70284" lon="4.93005">
        <ele>5.391028</ele>
        <time>2020-07-15T15:04:25.329Z</time>
      </trkpt>
      <trkpt lat="60.70305" lon="4.93029">
        <ele>5.015428</ele>
        <time>2020-07-15T15:04:28.983Z</time>
      </trkpt>
      <trkpt lat="60.70312" lon="4.93045">
        <ele>5.004991</ele>
        <time>2020-07-15T15:04:30.378Z</time>
      </trkpt>
      <trkpt lat="60.70314" lon="4.93052">
        <ele>5.021988</ele>
        <time>2020-07-15T15:04:31.014Z</time>
      </trkpt>
      <trkpt lat="60.70317" lon="4.93059">
        <ele>5.038669</ele>
        <time>2020-07-15T15:04:31.625Z</time>
      </trkpt>
      <trkpt lat="60.70317" lon="4.9306">
        <ele>5.041681</ele>
        <time>2020-07-15T15:04:31.714Z</time>
      </trkpt>
      <trkpt lat="60.70351" lon="4.93178">
        <ele>5.309141</ele>
        <time>2020-07-15T15:04:42.435Z</time>
      </trkpt>
      <trkpt lat="60.70368" lon="4.93213">
        <ele>5.405588</ele>
        <time>2020-07-15T15:04:46.922Z</time>
      </trkpt>
      <trkpt lat="60.70383" lon="4.93235">
        <ele>5.480452</ele>
        <time>2020-07-15T15:04:51.047Z</time>
      </trkpt>
      <trkpt lat="60.70394" lon="4.93246">
        <ele>5.531049</ele>
        <time>2020-07-15T15:04:53.545Z</time>
      </trkpt>
      <trkpt lat="60.70427" lon="4.93282">
        <ele>5.679895</ele>
        <time>2020-07-15T15:05:02.235Z</time>
      </trkpt>
      <trkpt lat="60.70425" lon="4.93301">
        <ele>5.915693</ele>
        <time>2020-07-15T15:05:05.740Z</time>
      </trkpt>
      <trkpt lat="60.70396" lon="4.93403">
        <ele>8.161058</ele>
        <time>2020-07-15T15:05:22.136Z</time>
      </trkpt>
      <trkpt lat="60.70397" lon="4.93432">
        <ele>8.722267</ele>
        <time>2020-07-15T15:05:27.098Z</time>
      </trkpt>
      <trkpt lat="60.70398" lon="4.93435">
        <ele>8.805126</ele>
        <time>2020-07-15T15:05:28.154Z</time>
      </trkpt>
      <trkpt lat="60.70403" lon="4.93437">
        <ele>8.981571</ele>
        <time>2020-07-15T15:05:29.454Z</time>
      </trkpt>
      <trkpt lat="60.70424" lon="4.93439">
        <ele>9.799719</ele>
        <time>2020-07-15T15:05:35.448Z</time>
      </trkpt>
      <trkpt lat="60.70437" lon="4.93451">
        <ele>10.357179</ele>
        <time>2020-07-15T15:05:41.209Z</time>
      </trkpt>
      <trkpt lat="60.70453" lon="4.93468">
        <ele>11.069681</ele>
        <time>2020-07-15T15:05:46.123Z</time>
      </trkpt>
      <trkpt lat="60.7046" lon="4.93478">
        <ele>11.382455</ele>
        <time>2020-07-15T15:05:49.620Z</time>
      </trkpt>
      <trkpt lat="60.70487" lon="4.93553">
        <ele>13.030325</ele>
        <time>2020-07-15T15:06:04.232Z</time>
      </trkpt>
      <trkpt lat="60.70504" lon="4.93638">
        <ele>14.343255</ele>
        <time>2020-07-15T15:06:17.380Z</time>
      </trkpt>
      <trkpt lat="60.70514" lon="4.93691">
        <ele>15.143579</ele>
        <time>2020-07-15T15:06:25.531Z</time>
      </trkpt>
      <trkpt lat="60.70515" lon="4.93712">
        <ele>15.43969</ele>
        <time>2020-07-15T15:06:27.999Z</time>
      </trkpt>
      <trkpt lat="60.70515" lon="4.93723">
        <ele>15.602951</ele>
        <time>2020-07-15T15:06:29.530Z</time>
      </trkpt>
      <trkpt lat="60.70517" lon="4.93872">
        <ele>17.713075</ele>
        <time>2020-07-15T15:06:47.632Z</time>
      </trkpt>
      <trkpt lat="60.70517" lon="4.93892">
        <ele>17.935248</ele>
        <time>2020-07-15T15:06:49.949Z</time>
      </trkpt>
      <trkpt lat="60.70515" lon="4.93933">
        <ele>18.189171</ele>
        <time>2020-07-15T15:06:54.290Z</time>
      </trkpt>
      <trkpt lat="60.70512" lon="4.93986">
        <ele>18.519412</ele>
        <time>2020-07-15T15:07:00.109Z</time>
      </trkpt>
      <trkpt lat="60.70507" lon="4.9404">
        <ele>18.862518</ele>
        <time>2020-07-15T15:07:05.272Z</time>
      </trkpt>
      <trkpt lat="60.70501" lon="4.94094">
        <ele>19.201588</ele>
        <time>2020-07-15T15:07:10.382Z</time>
      </trkpt>
      <trkpt lat="60.70499" lon="4.94145">
        <ele>19.516475</ele>
        <time>2020-07-15T15:07:15.294Z</time>
      </trkpt>
      <trkpt lat="60.70499" lon="4.94158">
        <ele>19.599544</ele>
        <time>2020-07-15T15:07:16.602Z</time>
      </trkpt>
      <trkpt lat="60.705" lon="4.9419">
        <ele>19.797604</ele>
        <time>2020-07-15T15:07:19.791Z</time>
      </trkpt>
      <trkpt lat="60.70497" lon="4.94256">
        <ele>20.273085</ele>
        <time>2020-07-15T15:07:27.917Z</time>
      </trkpt>
      <trkpt lat="60.70485" lon="4.94347">
        <ele>21.685904</ele>
        <time>2020-07-15T15:07:39.619Z</time>
      </trkpt>
      <trkpt lat="60.70471" lon="4.9445">
        <ele>23.28672</ele>
        <time>2020-07-15T15:07:54.396Z</time>
      </trkpt>
      <trkpt lat="60.70469" lon="4.94471">
        <ele>23.610273</ele>
        <time>2020-07-15T15:07:56.907Z</time>
      </trkpt>
      <trkpt lat="60.70468" lon="4.94493">
        <ele>23.936524</ele>
        <time>2020-07-15T15:07:59.805Z</time>
      </trkpt>
      <trkpt lat="60.70469" lon="4.94511">
        <ele>24.212992</ele>
        <time>2020-07-15T15:08:03.326Z</time>
      </trkpt>
      <trkpt lat="60.7048" lon="4.94563">
        <ele>25.06094</ele>
        <time>2020-07-15T15:08:11.083Z</time>
      </trkpt>
      <trkpt lat="60.70552" lon="4.94729">
        <ele>28.45431</ele>
        <time>2020-07-15T15:08:44.660Z</time>
      </trkpt>
      <trkpt lat="60.70578" lon="4.94786">
        <ele>29.650104</ele>
        <time>2020-07-15T15:08:55.380Z</time>
      </trkpt>
      <trkpt lat="60.7058" lon="4.94789">
        <ele>29.723552</ele>
        <time>2020-07-15T15:08:56.106Z</time>
      </trkpt>
      <trkpt lat="60.70626" lon="4.94891">
        <ele>31.455629</ele>
        <time>2020-07-15T15:09:12.325Z</time>
      </trkpt>
      <trkpt lat="60.7069" lon="4.94965">
        <ele>32.07552</ele>
        <time>2020-07-15T15:09:28.334Z</time>
      </trkpt>
      <trkpt lat="60.7072" lon="4.95022">
        <ele>32.422674</ele>
        <time>2020-07-15T15:09:36.053Z</time>
      </trkpt>
      <trkpt lat="60.70735" lon="4.95087">
        <ele>32.721378</ele>
        <time>2020-07-15T15:09:42.526Z</time>
      </trkpt>
      <trkpt lat="60.70762" lon="4.95313">
        <ele>32.566226</ele>
        <time>2020-07-15T15:10:02.620Z</time>
      </trkpt>
      <trkpt lat="60.70789" lon="4.95394">
        <ele>32.442081</ele>
        <time>2020-07-15T15:10:10.547Z</time>
      </trkpt>
      <trkpt lat="60.70804" lon="4.95443">
        <ele>32.368656</ele>
        <time>2020-07-15T15:10:15.188Z</time>
      </trkpt>
      <trkpt lat="60.70807" lon="4.95451">
        <ele>32.332279</ele>
        <time>2020-07-15T15:10:15.916Z</time>
      </trkpt>
      <trkpt lat="60.70811" lon="4.95498">
        <ele>31.986529</ele>
        <time>2020-07-15T15:10:19.735Z</time>
      </trkpt>
      <trkpt lat="60.70788" lon="4.95602">
        <ele>31.174827</ele>
        <time>2020-07-15T15:10:28.418Z</time>
      </trkpt>
      <trkpt lat="60.70763" lon="4.95888">
        <ele>28.599321</ele>
        <time>2020-07-15T15:10:48.559Z</time>
      </trkpt>
      <trkpt lat="60.70756" lon="4.95924">
        <ele>28.095958</ele>
        <time>2020-07-15T15:10:51.043Z</time>
      </trkpt>
      <trkpt lat="60.70724" lon="4.96009">
        <ele>26.713171</ele>
        <time>2020-07-15T15:10:58.058Z</time>
      </trkpt>
      <trkpt lat="60.70722" lon="4.9603">
        <ele>26.445085</ele>
        <time>2020-07-15T15:10:59.414Z</time>
      </trkpt>
      <trkpt lat="60.7072" lon="4.9606">
        <ele>26.059668</ele>
        <time>2020-07-15T15:11:01.265Z</time>
      </trkpt>
      <trkpt lat="60.70718" lon="4.96122">
        <ele>25.263514</ele>
        <time>2020-07-15T15:11:05.356Z</time>
      </trkpt>
      <trkpt lat="60.70685" lon="4.96216">
        <ele>24.393689</ele>
        <time>2020-07-15T15:11:13.162Z</time>
      </trkpt>
      <trkpt lat="60.70676" lon="4.96302">
        <ele>23.827106</ele>
        <time>2020-07-15T15:11:19.250Z</time>
      </trkpt>
      <trkpt lat="60.70656" lon="4.96406">
        <ele>23.111155</ele>
        <time>2020-07-15T15:11:27.834Z</time>
      </trkpt>
      <trkpt lat="60.70653" lon="4.96443">
        <ele>22.872075</ele>
        <time>2020-07-15T15:11:31.082Z</time>
      </trkpt>
      <trkpt lat="60.70663" lon="4.96466">
        <ele>22.675241</ele>
        <time>2020-07-15T15:11:33.891Z</time>
      </trkpt>
      <trkpt lat="60.70723" lon="4.96493">
        <ele>22.985268</ele>
        <time>2020-07-15T15:11:45.838Z</time>
      </trkpt>
      <trkpt lat="60.70748" lon="4.96516">
        <ele>23.139957</ele>
        <time>2020-07-15T15:11:51.489Z</time>
      </trkpt>
      <trkpt lat="60.70768" lon="4.96554">
        <ele>23.292554</ele>
        <time>2020-07-15T15:11:57.048Z</time>
      </trkpt>
      <trkpt lat="60.7078" lon="4.966">
        <ele>23.432604</ele>
        <time>2020-07-15T15:12:02.170Z</time>
      </trkpt>
      <trkpt lat="60.70789" lon="4.96719">
        <ele>23.847198</ele>
        <time>2020-07-15T15:12:13.792Z</time>
      </trkpt>
      <trkpt lat="60.70788" lon="4.9677">
        <ele>24.10168</ele>
        <time>2020-07-15T15:12:18.731Z</time>
      </trkpt>
      <trkpt lat="60.70758" lon="4.96983">
        <ele>25.197766</ele>
        <time>2020-07-15T15:12:41.384Z</time>
      </trkpt>
      <trkpt lat="60.70755" lon="4.97039">
        <ele>25.475982</ele>
        <time>2020-07-15T15:12:47.549Z</time>
      </trkpt>
      <trkpt lat="60.70785" lon="4.97415">
        <ele>28.777936</ele>
        <time>2020-07-15T15:13:32.657Z</time>
      </trkpt>
      <trkpt lat="60.70788" lon="4.97576">
        <ele>29.092072</ele>
        <time>2020-07-15T15:13:50.064Z</time>
      </trkpt>
      <trkpt lat="60.70784" lon="4.9762">
        <ele>29.179998</ele>
        <time>2020-07-15T15:13:54.310Z</time>
      </trkpt>
      <trkpt lat="60.70782" lon="4.97631">
        <ele>29.203486</ele>
        <time>2020-07-15T15:13:55.382Z</time>
      </trkpt>
      <trkpt lat="60.7076" lon="4.97812">
        <ele>28.960474</ele>
        <time>2020-07-15T15:14:09.872Z</time>
      </trkpt>
      <trkpt lat="60.70759" lon="4.97845">
        <ele>28.623457</ele>
        <time>2020-07-15T15:14:12.222Z</time>
      </trkpt>
      <trkpt lat="60.70759" lon="4.97982">
        <ele>27.244696</ele>
        <time>2020-07-15T15:14:21.331Z</time>
      </trkpt>
      <trkpt lat="60.70744" lon="4.98072">
        <ele>26.277793</ele>
        <time>2020-07-15T15:14:27.636Z</time>
      </trkpt>
      <trkpt lat="60.70739" lon="4.98104">
        <ele>25.938505</ele>
        <time>2020-07-15T15:14:29.834Z</time>
      </trkpt>
      <trkpt lat="60.7073" lon="4.98161">
        <ele>25.653219</ele>
        <time>2020-07-15T15:14:33.809Z</time>
      </trkpt>
      <trkpt lat="60.70726" lon="4.98193">
        <ele>25.57386</ele>
        <time>2020-07-15T15:14:36.153Z</time>
      </trkpt>
      <trkpt lat="60.70726" lon="4.98226">
        <ele>25.492673</ele>
        <time>2020-07-15T15:14:38.481Z</time>
      </trkpt>
      <trkpt lat="60.70728" lon="4.98403">
        <ele>25.063655</ele>
        <time>2020-07-15T15:14:53.513Z</time>
      </trkpt>
      <trkpt lat="60.70735" lon="4.98448">
        <ele>24.949821</ele>
        <time>2020-07-15T15:14:57.574Z</time>
      </trkpt>
      <trkpt lat="60.70748" lon="4.98478">
        <ele>24.895442</ele>
        <time>2020-07-15T15:15:01.910Z</time>
      </trkpt>
      <trkpt lat="60.70797" lon="4.98578">
        <ele>26.1486</ele>
        <time>2020-07-15T15:15:18.347Z</time>
      </trkpt>
      <trkpt lat="60.70799" lon="4.98571">
        <ele>26.212631</ele>
        <time>2020-07-15T15:15:19.133Z</time>
      </trkpt>
      <trkpt lat="60.70804" lon="4.98557">
        <ele>26.371213</ele>
        <time>2020-07-15T15:15:21.659Z</time>
      </trkpt>
      <trkpt lat="60.70812" lon="4.98539">
        <ele>26.577675</ele>
        <time>2020-07-15T15:15:24.638Z</time>
      </trkpt>
      <trkpt lat="60.70812" lon="4.98537">
        <ele>26.596841</ele>
        <time>2020-07-15T15:15:24.857Z</time>
      </trkpt>
      <trkpt lat="60.70814" lon="4.98532">
        <ele>26.653954</ele>
        <time>2020-07-15T15:15:25.635Z</time>
      </trkpt>
      <trkpt lat="60.70842" lon="4.98477">
        <ele>27.354954</ele>
        <time>2020-07-15T15:15:35.731Z</time>
      </trkpt>
      <trkpt lat="60.70859" lon="4.9845">
        <ele>27.740129</ele>
        <time>2020-07-15T15:15:41.435Z</time>
      </trkpt>
      <trkpt lat="60.70904" lon="4.98367">
        <ele>28.465742</ele>
        <time>2020-07-15T15:15:55.781Z</time>
      </trkpt>
      <trkpt lat="60.70914" lon="4.98347">
        <ele>28.590372</ele>
        <time>2020-07-15T15:15:58.922Z</time>
      </trkpt>
      <trkpt lat="60.70918" lon="4.98336">
        <ele>28.654594</ele>
        <time>2020-07-15T15:16:00.316Z</time>
      </trkpt>
      <trkpt lat="60.70936" lon="4.98269">
        <ele>28.996808</ele>
        <time>2020-07-15T15:16:08.718Z</time>
      </trkpt>
      <trkpt lat="60.7096" lon="4.98235">
        <ele>29.258286</ele>
        <time>2020-07-15T15:16:15.105Z</time>
      </trkpt>
      <trkpt lat="60.70966" lon="4.98233">
        <ele>29.312369</ele>
        <time>2020-07-15T15:16:16.369Z</time>
      </trkpt>
      <trkpt lat="60.70981" lon="4.98225">
        <ele>29.455524</ele>
        <time>2020-07-15T15:16:19.361Z</time>
      </trkpt>
      <trkpt lat="60.71046" lon="4.98168">
        <ele>28.721951</ele>
        <time>2020-07-15T15:16:32.594Z</time>
      </trkpt>
      <trkpt lat="60.71062" lon="4.98162">
        <ele>28.320526</ele>
        <time>2020-07-15T15:16:35.281Z</time>
      </trkpt>
      <trkpt lat="60.71086" lon="4.98152">
        <ele>27.721071</ele>
        <time>2020-07-15T15:16:38.592Z</time>
      </trkpt>
      <trkpt lat="60.71151" lon="4.98128">
        <ele>26.05824</ele>
        <time>2020-07-15T15:16:47.867Z</time>
      </trkpt>
      <trkpt lat="60.7117" lon="4.98144">
        <ele>25.550635</ele>
        <time>2020-07-15T15:16:50.398Z</time>
      </trkpt>
      <trkpt lat="60.71178" lon="4.9816">
        <ele>25.273499</ele>
        <time>2020-07-15T15:16:51.799Z</time>
      </trkpt>
      <trkpt lat="60.7118" lon="4.9817">
        <ele>25.045476</ele>
        <time>2020-07-15T15:16:52.506Z</time>
      </trkpt>
      <trkpt lat="60.71187" lon="4.982">
        <ele>24.300262</ele>
        <time>2020-07-15T15:16:54.571Z</time>
      </trkpt>
      <trkpt lat="60.71192" lon="4.9821">
        <ele>23.965249</ele>
        <time>2020-07-15T15:16:55.410Z</time>
      </trkpt>
      <trkpt lat="60.71211" lon="4.98216">
        <ele>23.055898</ele>
        <time>2020-07-15T15:16:57.912Z</time>
      </trkpt>
      <trkpt lat="60.71274" lon="4.98184">
        <ele>20.024627</ele>
        <time>2020-07-15T15:17:06.257Z</time>
      </trkpt>
      <trkpt lat="60.71276" lon="4.98186">
        <ele>19.904219</ele>
        <time>2020-07-15T15:17:06.548Z</time>
      </trkpt>
      <trkpt lat="60.71278" lon="4.98195">
        <ele>19.691785</ele>
        <time>2020-07-15T15:17:07.172Z</time>
      </trkpt>
      <trkpt lat="60.71278" lon="4.98203">
        <ele>19.505615</ele>
        <time>2020-07-15T15:17:07.707Z</time>
      </trkpt>
      <trkpt lat="60.71276" lon="4.98228">
        <ele>18.928503</ele>
        <time>2020-07-15T15:17:09.259Z</time>
      </trkpt>
      <trkpt lat="60.71275" lon="4.98253">
        <ele>18.346844</ele>
        <time>2020-07-15T15:17:10.942Z</time>
      </trkpt>
      <trkpt lat="60.71274" lon="4.98255">
        <ele>18.292203</ele>
        <time>2020-07-15T15:17:11.135Z</time>
      </trkpt>
      <trkpt lat="60.71269" lon="4.98275">
        <ele>17.771837</ele>
        <time>2020-07-15T15:17:12.540Z</time>
      </trkpt>
      <trkpt lat="60.71237" lon="4.98314">
        <ele>16.088198</ele>
        <time>2020-07-15T15:17:17.167Z</time>
      </trkpt>
      <trkpt lat="60.71229" lon="4.98355">
        <ele>15.145542</ele>
        <time>2020-07-15T15:17:20.204Z</time>
      </trkpt>
      <trkpt lat="60.71232" lon="4.98386">
        <ele>14.464723</ele>
        <time>2020-07-15T15:17:22.084Z</time>
      </trkpt>
      <trkpt lat="60.7124" lon="4.98416">
        <ele>13.721633</ele>
        <time>2020-07-15T15:17:24.535Z</time>
      </trkpt>
      <trkpt lat="60.71256" lon="4.9843">
        <ele>12.980321</ele>
        <time>2020-07-15T15:17:26.569Z</time>
      </trkpt>
      <trkpt lat="60.71277" lon="4.98433">
        <ele>12.055595</ele>
        <time>2020-07-15T15:17:29.355Z</time>
      </trkpt>
      <trkpt lat="60.71311" lon="4.98433">
        <ele>10.585713</ele>
        <time>2020-07-15T15:17:33.895Z</time>
      </trkpt>
      <trkpt lat="60.71328" lon="4.98434">
        <ele>9.841716</ele>
        <time>2020-07-15T15:17:36.006Z</time>
      </trkpt>
      <trkpt lat="60.71407" lon="4.98432">
        <ele>7.654028</ele>
        <time>2020-07-15T15:17:46.695Z</time>
      </trkpt>
      <trkpt lat="60.71426" lon="4.9844">
        <ele>7.223818</ele>
        <time>2020-07-15T15:17:49.264Z</time>
      </trkpt>
      <trkpt lat="60.71444" lon="4.98437">
        <ele>6.83359</ele>
        <time>2020-07-15T15:17:51.832Z</time>
      </trkpt>
      <trkpt lat="60.71464" lon="4.98444">
        <ele>6.371033</ele>
        <time>2020-07-15T15:17:54.672Z</time>
      </trkpt>
      <trkpt lat="60.71482" lon="4.98459">
        <ele>5.951317</ele>
        <time>2020-07-15T15:17:57.592Z</time>
      </trkpt>
      <trkpt lat="60.71492" lon="4.98454">
        <ele>5.739001</ele>
        <time>2020-07-15T15:17:58.965Z</time>
      </trkpt>
      <trkpt lat="60.71501" lon="4.98449">
        <ele>5.528039</ele>
        <time>2020-07-15T15:18:00.918Z</time>
      </trkpt>
      <trkpt lat="60.71563" lon="4.98434">
        <ele>6.000201</ele>
        <time>2020-07-15T15:18:13.386Z</time>
      </trkpt>
      <trkpt lat="60.717" lon="4.98424">
        <ele>9.602775</ele>
        <time>2020-07-15T15:18:52.794Z</time>
      </trkpt>
      <trkpt lat="60.71707" lon="4.98424">
        <ele>9.78844</ele>
        <time>2020-07-15T15:18:55.371Z</time>
      </trkpt>
      <trkpt lat="60.71832" lon="4.98438">
        <ele>13.509241</ele>
        <time>2020-07-15T15:19:31.151Z</time>
      </trkpt>
      <trkpt lat="60.71885" lon="4.98424">
        <ele>15.073931</ele>
        <time>2020-07-15T15:19:44.992Z</time>
      </trkpt>
      <trkpt lat="60.72067" lon="4.98266">
        <ele>17.379771</ele>
        <time>2020-07-15T15:20:27.299Z</time>
      </trkpt>
      <trkpt lat="60.72112" lon="4.98217">
        <ele>17.480722</ele>
        <time>2020-07-15T15:20:36.926Z</time>
      </trkpt>
      <trkpt lat="60.72116" lon="4.98211">
        <ele>17.489574</ele>
        <time>2020-07-15T15:20:37.748Z</time>
      </trkpt>
      <trkpt lat="60.72124" lon="4.98196">
        <ele>17.512578</ele>
        <time>2020-07-15T15:20:39.867Z</time>
      </trkpt>
      <trkpt lat="60.7225" lon="4.97924">
        <ele>17.924727</ele>
        <time>2020-07-15T15:21:11.909Z</time>
      </trkpt>
      <trkpt lat="60.72289" lon="4.9785">
        <ele>18.060952</ele>
        <time>2020-07-15T15:21:21.794Z</time>
      </trkpt>
      <trkpt lat="60.72342" lon="4.97757">
        <ele>18.763195</ele>
        <time>2020-07-15T15:21:35.960Z</time>
      </trkpt>
      <trkpt lat="60.72346" lon="4.97749">
        <ele>18.867841</ele>
        <time>2020-07-15T15:21:37.141Z</time>
      </trkpt>
      <trkpt lat="60.72378" lon="4.97698">
        <ele>19.626975</ele>
        <time>2020-07-15T15:21:46.123Z</time>
      </trkpt>
      <trkpt lat="60.72424" lon="4.97636">
        <ele>20.665345</ele>
        <time>2020-07-15T15:21:59.811Z</time>
      </trkpt>
      <trkpt lat="60.72512" lon="4.97561">
        <ele>22.201284</ele>
        <time>2020-07-15T15:22:26.369Z</time>
      </trkpt>
      <trkpt lat="60.72595" lon="4.97513">
        <ele>23.355025</ele>
        <time>2020-07-15T15:22:46.339Z</time>
      </trkpt>
      <trkpt lat="60.72612" lon="4.97501">
        <ele>23.599603</ele>
        <time>2020-07-15T15:22:50.009Z</time>
      </trkpt>
      <trkpt lat="60.72612" lon="4.97484">
        <ele>23.715224</ele>
        <time>2020-07-15T15:22:51.860Z</time>
      </trkpt>
      <trkpt lat="60.72624" lon="4.97476">
        <ele>23.884778</ele>
        <time>2020-07-15T15:22:54.102Z</time>
      </trkpt>
      <trkpt lat="60.72674" lon="4.97442">
        <ele>21.886826</ele>
        <time>2020-07-15T15:23:02.576Z</time>
      </trkpt>
      <trkpt lat="60.72858" lon="4.97259">
        <ele>12.055114</ele>
        <time>2020-07-15T15:23:27.831Z</time>
      </trkpt>
      <trkpt lat="60.7286" lon="4.97266">
        <ele>11.823956</ele>
        <time>2020-07-15T15:23:28.270Z</time>
      </trkpt>
      <trkpt lat="60.72885" lon="4.97247">
        <ele>10.298151</ele>
        <time>2020-07-15T15:23:31.491Z</time>
      </trkpt>
      <trkpt lat="60.72912" lon="4.9723">
        <ele>8.719899</ele>
        <time>2020-07-15T15:23:34.719Z</time>
      </trkpt>
      <trkpt lat="60.73063" lon="4.97165">
        <ele>3.368314</ele>
        <time>2020-07-15T15:23:53.883Z</time>
      </trkpt>
      <trkpt lat="60.73194" lon="4.97108">
        <ele>3.284434</ele>
        <time>2020-07-15T15:24:18.269Z</time>
      </trkpt>
      <trkpt lat="60.73214" lon="4.97095">
        <ele>3.917367</ele>
        <time>2020-07-15T15:24:22.964Z</time>
      </trkpt>
      <trkpt lat="60.73214" lon="4.97087">
        <ele>4.040555</ele>
        <time>2020-07-15T15:24:24.334Z</time>
      </trkpt>
      <trkpt lat="60.7337" lon="4.96908">
        <ele>11.282819</ele>
        <time>2020-07-15T15:25:26.473Z</time>
      </trkpt>
      <trkpt lat="60.73374" lon="4.96914">
        <ele>11.573494</ele>
        <time>2020-07-15T15:25:29.674Z</time>
      </trkpt>
      <trkpt lat="60.73411" lon="4.9687">
        <ele>13.844534</ele>
        <time>2020-07-15T15:25:45.767Z</time>
      </trkpt>
      <trkpt lat="60.73453" lon="4.96829">
        <ele>16.304469</ele>
        <time>2020-07-15T15:26:01.478Z</time>
      </trkpt>
      <trkpt lat="60.73521" lon="4.96782">
        <ele>17.684171</ele>
        <time>2020-07-15T15:26:22.948Z</time>
      </trkpt>
      <trkpt lat="60.7357" lon="4.96752">
        <ele>18.594156</ele>
        <time>2020-07-15T15:26:33.451Z</time>
      </trkpt>
      <trkpt lat="60.73601" lon="4.96734">
        <ele>19.171503</ele>
        <time>2020-07-15T15:26:38.999Z</time>
      </trkpt>
      <trkpt lat="60.73656" lon="4.9669">
        <ele>19.946098</ele>
        <time>2020-07-15T15:26:49.138Z</time>
      </trkpt>
      <trkpt lat="60.73701" lon="4.96642">
        <ele>20.389246</ele>
        <time>2020-07-15T15:26:57.503Z</time>
      </trkpt>
      <trkpt lat="60.73896" lon="4.96364">
        <ele>24.147304</ele>
        <time>2020-07-15T15:27:54.215Z</time>
      </trkpt>
      <trkpt lat="60.74052" lon="4.96217">
        <ele>27.82233</ele>
        <time>2020-07-15T15:28:39.092Z</time>
      </trkpt>
      <trkpt lat="60.74135" lon="4.96125">
        <ele>29.114762</ele>
        <time>2020-07-15T15:29:00.193Z</time>
      </trkpt>
      <trkpt lat="60.74184" lon="4.96057">
        <ele>29.428935</ele>
        <time>2020-07-15T15:29:11.743Z</time>
      </trkpt>
      <trkpt lat="60.74238" lon="4.95961">
        <ele>29.811489</ele>
        <time>2020-07-15T15:29:24.765Z</time>
      </trkpt>
      <trkpt lat="60.74245" lon="4.95948">
        <ele>29.747443</ele>
        <time>2020-07-15T15:29:26.387Z</time>
      </trkpt>
      <trkpt lat="60.74255" lon="4.95927">
        <ele>29.572887</ele>
        <time>2020-07-15T15:29:28.779Z</time>
      </trkpt>
      <trkpt lat="60.74319" lon="4.95791">
        <ele>28.47652</ele>
        <time>2020-07-15T15:29:42.999Z</time>
      </trkpt>
      <trkpt lat="60.74353" lon="4.95724">
        <ele>27.918255</ele>
        <time>2020-07-15T15:29:49.890Z</time>
      </trkpt>
      <trkpt lat="60.74359" lon="4.95711">
        <ele>27.809319</ele>
        <time>2020-07-15T15:29:51.082Z</time>
      </trkpt>
      <trkpt lat="60.74421" lon="4.95608">
        <ele>26.160949</ele>
        <time>2020-07-15T15:30:02.112Z</time>
      </trkpt>
      <trkpt lat="60.7447" lon="4.95548">
        <ele>24.909052</ele>
        <time>2020-07-15T15:30:09.848Z</time>
      </trkpt>
      <trkpt lat="60.74531" lon="4.95496">
        <ele>23.579741</ele>
        <time>2020-07-15T15:30:19.120Z</time>
      </trkpt>
      <trkpt lat="60.74609" lon="4.95463">
        <ele>22.660991</ele>
        <time>2020-07-15T15:30:31.046Z</time>
      </trkpt>
      <trkpt lat="60.74676" lon="4.95461">
        <ele>21.87626</ele>
        <time>2020-07-15T15:30:41.699Z</time>
      </trkpt>
      <trkpt lat="60.74737" lon="4.95475">
        <ele>21.205602</ele>
        <time>2020-07-15T15:30:51.538Z</time>
      </trkpt>
      <trkpt lat="60.75003" lon="4.95587">
        <ele>18.327076</ele>
        <time>2020-07-15T15:31:32.691Z</time>
      </trkpt>
      <trkpt lat="60.75016" lon="4.95594">
        <ele>18.19394</ele>
        <time>2020-07-15T15:31:34.575Z</time>
      </trkpt>
      <trkpt lat="60.75047" lon="4.95606">
        <ele>17.864804</ele>
        <time>2020-07-15T15:31:39.627Z</time>
      </trkpt>
      <trkpt lat="60.75131" lon="4.95642">
        <ele>18.107635</ele>
        <time>2020-07-15T15:31:54.735Z</time>
      </trkpt>
      <trkpt lat="60.75191" lon="4.95655">
        <ele>18.304048</ele>
        <time>2020-07-15T15:32:06.483Z</time>
      </trkpt>
      <trkpt lat="60.75208" lon="4.95655">
        <ele>18.359973</ele>
        <time>2020-07-15T15:32:10.228Z</time>
      </trkpt>
      <trkpt lat="60.7522" lon="4.95655">
        <ele>18.40151</ele>
        <time>2020-07-15T15:32:12.879Z</time>
      </trkpt>
      <trkpt lat="60.75259" lon="4.95648">
        <ele>19.050892</ele>
        <time>2020-07-15T15:32:21.398Z</time>
      </trkpt>
      <trkpt lat="60.7527" lon="4.95644">
        <ele>19.258286</ele>
        <time>2020-07-15T15:32:23.857Z</time>
      </trkpt>
      <trkpt lat="60.75294" lon="4.95636">
        <ele>19.732862</ele>
        <time>2020-07-15T15:32:29.335Z</time>
      </trkpt>
      <trkpt lat="60.7533" lon="4.95621">
        <ele>20.454273</ele>
        <time>2020-07-15T15:32:37.949Z</time>
      </trkpt>
      <trkpt lat="60.75487" lon="4.95555">
        <ele>23.578725</ele>
        <time>2020-07-15T15:33:20.282Z</time>
      </trkpt>
      <trkpt lat="60.75517" lon="4.95532">
        <ele>24.200655</ele>
        <time>2020-07-15T15:33:27.397Z</time>
      </trkpt>
      <trkpt lat="60.75521" lon="4.95528">
        <ele>24.287126</ele>
        <time>2020-07-15T15:33:29.540Z</time>
      </trkpt>
      <trkpt lat="60.75531" lon="4.95516">
        <ele>24.511805</ele>
        <time>2020-07-15T15:33:31.992Z</time>
      </trkpt>
      <trkpt lat="60.75566" lon="4.95461">
        <ele>25.365902</ele>
        <time>2020-07-15T15:33:41.922Z</time>
      </trkpt>
      <trkpt lat="60.75667" lon="4.95228">
        <ele>24.932047</ele>
        <time>2020-07-15T15:34:08.718Z</time>
      </trkpt>
      <trkpt lat="60.75813" lon="4.94937">
        <ele>21.448002</ele>
        <time>2020-07-15T15:34:37.177Z</time>
      </trkpt>
      <trkpt lat="60.75834" lon="4.94888">
        <ele>21.089349</ele>
        <time>2020-07-15T15:34:41.788Z</time>
      </trkpt>
      <trkpt lat="60.7586" lon="4.94825">
        <ele>20.730143</ele>
        <time>2020-07-15T15:34:47.799Z</time>
      </trkpt>
      <trkpt lat="60.76015" lon="4.94401">
        <ele>19.197252</ele>
        <time>2020-07-15T15:35:30.957Z</time>
      </trkpt>
      <trkpt lat="60.76028" lon="4.94365">
        <ele>19.118063</ele>
        <time>2020-07-15T15:35:34.732Z</time>
      </trkpt>
      <trkpt lat="60.76037" lon="4.94338">
        <ele>19.06573</ele>
        <time>2020-07-15T15:35:37.489Z</time>
      </trkpt>
      <trkpt lat="60.76048" lon="4.94309">
        <ele>19.045261</ele>
        <time>2020-07-15T15:35:40.560Z</time>
      </trkpt>
      <trkpt lat="60.76089" lon="4.94223">
        <ele>18.977495</ele>
        <time>2020-07-15T15:35:50.777Z</time>
      </trkpt>
      <trkpt lat="60.76102" lon="4.94204">
        <ele>18.959885</ele>
        <time>2020-07-15T15:35:53.437Z</time>
      </trkpt>
      <trkpt lat="60.76116" lon="4.94183">
        <ele>18.939125</ele>
        <time>2020-07-15T15:35:56.579Z</time>
      </trkpt>
      <trkpt lat="60.76143" lon="4.94144">
        <ele>18.901967</ele>
        <time>2020-07-15T15:36:02.229Z</time>
      </trkpt>
      <trkpt lat="60.76274" lon="4.9396">
        <ele>19.112441</ele>
        <time>2020-07-15T15:36:31.244Z</time>
      </trkpt>
      <trkpt lat="60.76327" lon="4.93875">
        <ele>19.271694</ele>
        <time>2020-07-15T15:36:44.117Z</time>
      </trkpt>
      <trkpt lat="60.76332" lon="4.93864">
        <ele>19.298116</ele>
        <time>2020-07-15T15:36:45.538Z</time>
      </trkpt>
      <trkpt lat="60.7634" lon="4.93845">
        <ele>19.345728</ele>
        <time>2020-07-15T15:36:47.906Z</time>
      </trkpt>
      <trkpt lat="60.76364" lon="4.93768">
        <ele>19.514862</ele>
        <time>2020-07-15T15:36:56.339Z</time>
      </trkpt>
      <trkpt lat="60.76386" lon="4.93655">
        <ele>19.741516</ele>
        <time>2020-07-15T15:37:07.805Z</time>
      </trkpt>
      <trkpt lat="60.76391" lon="4.9362">
        <ele>19.808427</ele>
        <time>2020-07-15T15:37:11.116Z</time>
      </trkpt>
      <trkpt lat="60.76419" lon="4.93406">
        <ele>20.145376</ele>
        <time>2020-07-15T15:37:31.740Z</time>
      </trkpt>
      <trkpt lat="60.7649" lon="4.92899">
        <ele>20.516025</ele>
        <time>2020-07-15T15:38:19.589Z</time>
      </trkpt>
      <trkpt lat="60.76495" lon="4.92865">
        <ele>20.525319</ele>
        <time>2020-07-15T15:38:22.406Z</time>
      </trkpt>
      <trkpt lat="60.76509" lon="4.92761">
        <ele>20.017025</ele>
        <time>2020-07-15T15:38:30.784Z</time>
      </trkpt>
      <trkpt lat="60.76515" lon="4.92701">
        <ele>19.706533</ele>
        <time>2020-07-15T15:38:35.505Z</time>
      </trkpt>
      <trkpt lat="60.76516" lon="4.92682">
        <ele>19.608644</ele>
        <time>2020-07-15T15:38:36.879Z</time>
      </trkpt>
      <trkpt lat="60.76517" lon="4.92667">
        <ele>19.530828</ele>
        <time>2020-07-15T15:38:37.981Z</time>
      </trkpt>
      <trkpt lat="60.76516" lon="4.9262">
        <ele>19.293993</ele>
        <time>2020-07-15T15:38:41.538Z</time>
      </trkpt>
      <trkpt lat="60.76515" lon="4.92602">
        <ele>19.20215</ele>
        <time>2020-07-15T15:38:42.843Z</time>
      </trkpt>
      <trkpt lat="60.76515" lon="4.92593">
        <ele>19.15482</ele>
        <time>2020-07-15T15:38:43.464Z</time>
      </trkpt>
      <trkpt lat="60.76509" lon="4.9254">
        <ele>18.882883</ele>
        <time>2020-07-15T15:38:47.417Z</time>
      </trkpt>
      <trkpt lat="60.7649" lon="4.9244">
        <ele>18.257883</ele>
        <time>2020-07-15T15:38:55.097Z</time>
      </trkpt>
      <trkpt lat="60.7646" lon="4.92289">
        <ele>17.218824</ele>
        <time>2020-07-15T15:39:07.074Z</time>
      </trkpt>
      <trkpt lat="60.76429" lon="4.92139">
        <ele>16.196956</ele>
        <time>2020-07-15T15:39:19.117Z</time>
      </trkpt>
      <trkpt lat="60.76413" lon="4.92055">
        <ele>15.669865</ele>
        <time>2020-07-15T15:39:25.859Z</time>
      </trkpt>
      <trkpt lat="60.76409" lon="4.92028">
        <ele>15.507658</ele>
        <time>2020-07-15T15:39:27.986Z</time>
      </trkpt>
      <trkpt lat="60.76408" lon="4.92013">
        <ele>15.417497</ele>
        <time>2020-07-15T15:39:29.115Z</time>
      </trkpt>
      <trkpt lat="60.76406" lon="4.91998">
        <ele>15.327581</ele>
        <time>2020-07-15T15:39:30.209Z</time>
      </trkpt>
      <trkpt lat="60.76405" lon="4.9193">
        <ele>14.931492</ele>
        <time>2020-07-15T15:39:35.249Z</time>
      </trkpt>
      <trkpt lat="60.76411" lon="4.91791">
        <ele>14.168923</ele>
        <time>2020-07-15T15:39:45.511Z</time>
      </trkpt>
      <trkpt lat="60.76414" lon="4.91755">
        <ele>14.159526</ele>
        <time>2020-07-15T15:39:48.198Z</time>
      </trkpt>
      <trkpt lat="60.7642" lon="4.91657">
        <ele>14.134245</ele>
        <time>2020-07-15T15:39:56.063Z</time>
      </trkpt>
      <trkpt lat="60.76425" lon="4.91572">
        <ele>14.111974</ele>
        <time>2020-07-15T15:40:03.651Z</time>
      </trkpt>
      <trkpt lat="60.76433" lon="4.91532">
        <ele>14.100762</ele>
        <time>2020-07-15T15:40:07.826Z</time>
      </trkpt>
      <trkpt lat="60.76435" lon="4.91528">
        <ele>14.099398</ele>
        <time>2020-07-15T15:40:08.173Z</time>
      </trkpt>
      <trkpt lat="60.76433" lon="4.91523">
        <ele>14.097886</ele>
        <time>2020-07-15T15:40:08.809Z</time>
      </trkpt>
      <trkpt lat="60.7642" lon="4.91496">
        <ele>14.088012</ele>
        <time>2020-07-15T15:40:12.753Z</time>
      </trkpt>
      <trkpt lat="60.76407" lon="4.91481">
        <ele>14.079833</ele>
        <time>2020-07-15T15:40:15.394Z</time>
      </trkpt>
      <trkpt lat="60.76394" lon="4.91471">
        <ele>14.159915</ele>
        <time>2020-07-15T15:40:18.229Z</time>
      </trkpt>
      <trkpt lat="60.76388" lon="4.91468">
        <ele>14.216804</ele>
        <time>2020-07-15T15:40:20.156Z</time>
      </trkpt>
      <trkpt lat="60.76357" lon="4.91477">
        <ele>14.551244</ele>
        <time>2020-07-15T15:40:26.346Z</time>
      </trkpt>
      <trkpt lat="60.76319" lon="4.91502">
        <ele>14.970278</ele>
        <time>2020-07-15T15:40:35.562Z</time>
      </trkpt>
      <trkpt lat="60.76277" lon="4.91606">
        <ele>15.664431</ele>
        <time>2020-07-15T15:40:49.299Z</time>
      </trkpt>
      <trkpt lat="60.76273" lon="4.91611">
        <ele>15.715709</ele>
        <time>2020-07-15T15:40:51.180Z</time>
      </trkpt>
      <trkpt lat="60.76273" lon="4.91619">
        <ele>15.759393</ele>
        <time>2020-07-15T15:40:52.187Z</time>
      </trkpt>
      <trkpt lat="60.76284" lon="4.91683">
        <ele>15.95298</ele>
        <time>2020-07-15T15:41:00.984Z</time>
      </trkpt>
      <trkpt lat="60.7631" lon="4.9174">
        <ele>15.906697</ele>
        <time>2020-07-15T15:41:10.404Z</time>
      </trkpt>
      <trkpt lat="60.76325" lon="4.91754">
        <ele>15.886247</ele>
        <time>2020-07-15T15:41:14.405Z</time>
      </trkpt>
      <trkpt lat="60.7633" lon="4.91736">
        <ele>15.874377</ele>
        <time>2020-07-15T15:41:21.217Z</time>
      </trkpt>
      <trkpt lat="60.7633" lon="4.91733">
        <ele>15.872363</ele>
        <time>2020-07-15T15:41:22.358Z</time>
      </trkpt>
      <trkpt lat="60.7633" lon="4.91733">
        <ele>15.872363</ele>
        <time>2020-07-15T15:41:22.370Z</time>
      </trkpt>
      <trkpt lat="60.7633" lon="4.91733">
        <ele>15.872363</ele>
        <time>2020-07-15T15:41:22.381Z</time>
      </trkpt>
      <trkpt lat="60.7633" lon="4.91736">
        <ele>15.870349</ele>
        <time>2020-07-15T15:41:23.522Z</time>
      </trkpt>
      <trkpt lat="60.76325" lon="4.91754">
        <ele>15.85848</ele>
        <time>2020-07-15T15:41:30.334Z</time>
      </trkpt>
      <trkpt lat="60.7631" lon="4.9174">
        <ele>15.838029</ele>
        <time>2020-07-15T15:41:34.276Z</time>
      </trkpt>
      <trkpt lat="60.76284" lon="4.91683">
        <ele>15.791746</ele>
        <time>2020-07-15T15:41:42.802Z</time>
      </trkpt>
      <trkpt lat="60.76273" lon="4.91619">
        <ele>15.751868</ele>
        <time>2020-07-15T15:41:49.695Z</time>
      </trkpt>
      <trkpt lat="60.76273" lon="4.91611">
        <ele>15.691463</ele>
        <time>2020-07-15T15:41:50.635Z</time>
      </trkpt>
      <trkpt lat="60.76277" lon="4.91606">
        <ele>15.598692</ele>
        <time>2020-07-15T15:41:51.201Z</time>
      </trkpt>
      <trkpt lat="60.76319" lon="4.91502">
        <ele>14.342813</ele>
        <time>2020-07-15T15:42:01.221Z</time>
      </trkpt>
      <trkpt lat="60.76357" lon="4.91477">
        <ele>13.584686</ele>
        <time>2020-07-15T15:42:06.671Z</time>
      </trkpt>
      <trkpt lat="60.76388" lon="4.91468">
        <ele>12.979609</ele>
        <time>2020-07-15T15:42:11.232Z</time>
      </trkpt>
      <trkpt lat="60.76394" lon="4.91471">
        <ele>12.876684</ele>
        <time>2020-07-15T15:42:11.859Z</time>
      </trkpt>
      <trkpt lat="60.76407" lon="4.91481">
        <ele>12.609671</ele>
        <time>2020-07-15T15:42:13.794Z</time>
      </trkpt>
      <trkpt lat="60.7642" lon="4.91496">
        <ele>12.313025</ele>
        <time>2020-07-15T15:42:16.005Z</time>
      </trkpt>
      <trkpt lat="60.76433" lon="4.91523">
        <ele>11.916971</ele>
        <time>2020-07-15T15:42:18.533Z</time>
      </trkpt>
      <trkpt lat="60.76435" lon="4.91528">
        <ele>11.856308</ele>
        <time>2020-07-15T15:42:18.905Z</time>
      </trkpt>
      <trkpt lat="60.76441" lon="4.91519">
        <ele>11.709322</ele>
        <time>2020-07-15T15:42:19.920Z</time>
      </trkpt>
      <trkpt lat="60.76445" lon="4.91515">
        <ele>11.609071</ele>
        <time>2020-07-15T15:42:20.602Z</time>
      </trkpt>
      <trkpt lat="60.76447" lon="4.91513">
        <ele>11.557357</ele>
        <time>2020-07-15T15:42:20.920Z</time>
      </trkpt>
      <trkpt lat="60.76459" lon="4.9151">
        <ele>11.305625</ele>
        <time>2020-07-15T15:42:22.497Z</time>
      </trkpt>
      <trkpt lat="60.76466" lon="4.91512">
        <ele>11.159515</ele>
        <time>2020-07-15T15:42:23.423Z</time>
      </trkpt>
      <trkpt lat="60.76485" lon="4.91524">
        <ele>10.738766</ele>
        <time>2020-07-15T15:42:26.166Z</time>
      </trkpt>
      <trkpt lat="60.76514" lon="4.91545">
        <ele>10.096549</ele>
        <time>2020-07-15T15:42:30.332Z</time>
      </trkpt>
      <trkpt lat="60.7653" lon="4.9155">
        <ele>9.734813</ele>
        <time>2020-07-15T15:42:32.647Z</time>
      </trkpt>
      <trkpt lat="60.76538" lon="4.91557">
        <ele>9.569044</ele>
        <time>2020-07-15T15:42:33.673Z</time>
      </trkpt>
      <trkpt lat="60.76576" lon="4.91557">
        <ele>8.756938</ele>
        <time>2020-07-15T15:42:39.208Z</time>
      </trkpt>
      <trkpt lat="60.766" lon="4.91558">
        <ele>8.562442</ele>
        <time>2020-07-15T15:42:42.882Z</time>
      </trkpt>
      <trkpt lat="60.76609" lon="4.91557">
        <ele>8.587075</ele>
        <time>2020-07-15T15:42:44.117Z</time>
      </trkpt>
      <trkpt lat="60.76659" lon="4.91528">
        <ele>8.738695</ele>
        <time>2020-07-15T15:42:53.024Z</time>
      </trkpt>
      <trkpt lat="60.76686" lon="4.91523">
        <ele>8.815352</ele>
        <time>2020-07-15T15:42:58.081Z</time>
      </trkpt>
      <trkpt lat="60.76688" lon="4.91524">
        <ele>8.821222</ele>
        <time>2020-07-15T15:42:58.338Z</time>
      </trkpt>
      <trkpt lat="60.76692" lon="4.91531">
        <ele>8.837473</ele>
        <time>2020-07-15T15:42:59.426Z</time>
      </trkpt>
      <trkpt lat="60.76707" lon="4.91546">
        <ele>8.88525</ele>
        <time>2020-07-15T15:43:02.946Z</time>
      </trkpt>
      <trkpt lat="60.76708" lon="4.91551">
        <ele>8.892968</ele>
        <time>2020-07-15T15:43:03.503Z</time>
      </trkpt>
      <trkpt lat="60.76719" lon="4.91567">
        <ele>8.932405</ele>
        <time>2020-07-15T15:43:05.944Z</time>
      </trkpt>
      <trkpt lat="60.76721" lon="4.91566">
        <ele>8.940398</ele>
        <time>2020-07-15T15:43:06.521Z</time>
      </trkpt>
      <trkpt lat="60.76735" lon="4.91591">
        <ele>8.994515</ele>
        <time>2020-07-15T15:43:11.214Z</time>
      </trkpt>
      <trkpt lat="60.76739" lon="4.91592">
        <ele>9.003812</ele>
        <time>2020-07-15T15:43:11.990Z</time>
      </trkpt>
      <trkpt lat="60.76742" lon="4.91602">
        <ele>9.021252</ele>
        <time>2020-07-15T15:43:13.260Z</time>
      </trkpt>
      <trkpt lat="60.76746" lon="4.91615">
        <ele>9.043201</ele>
        <time>2020-07-15T15:43:14.601Z</time>
      </trkpt>
      <trkpt lat="60.76751" lon="4.91627">
        <ele>9.213995</ele>
        <time>2020-07-15T15:43:16.343Z</time>
      </trkpt>
      <trkpt lat="60.76753" lon="4.91624">
        <ele>9.278718</ele>
        <time>2020-07-15T15:43:17.444Z</time>
      </trkpt>
      <trkpt lat="60.76822" lon="4.9173">
        <ele>11.384588</ele>
        <time>2020-07-15T15:43:40.767Z</time>
      </trkpt>
      <trkpt lat="60.76843" lon="4.9175">
        <ele>11.961373</ele>
        <time>2020-07-15T15:43:47.148Z</time>
      </trkpt>
      <trkpt lat="60.76847" lon="4.91752">
        <ele>12.048923</ele>
        <time>2020-07-15T15:43:48.542Z</time>
      </trkpt>
      <trkpt lat="60.76853" lon="4.91757">
        <ele>12.213875</ele>
        <time>2020-07-15T15:43:50.445Z</time>
      </trkpt>
      <trkpt lat="60.76866" lon="4.9177">
        <ele>12.557777</ele>
        <time>2020-07-15T15:43:53.674Z</time>
      </trkpt>
      <trkpt lat="60.76872" lon="4.91778">
        <ele>12.731191</ele>
        <time>2020-07-15T15:43:55.699Z</time>
      </trkpt>
      <trkpt lat="60.76877" lon="4.91795">
        <ele>12.978863</ele>
        <time>2020-07-15T15:43:59.161Z</time>
      </trkpt>
      <trkpt lat="60.76897" lon="4.91863">
        <ele>13.783178</ele>
        <time>2020-07-15T15:44:08.939Z</time>
      </trkpt>
      <trkpt lat="60.76921" lon="4.91903">
        <ele>14.333745</ele>
        <time>2020-07-15T15:44:16.749Z</time>
      </trkpt>
      <trkpt lat="60.76939" lon="4.91933">
        <ele>14.748477</ele>
        <time>2020-07-15T15:44:22.256Z</time>
      </trkpt>
      <trkpt lat="60.76946" lon="4.91945">
        <ele>14.91465</ele>
        <time>2020-07-15T15:44:24.647Z</time>
      </trkpt>
      <trkpt lat="60.76994" lon="4.92026">
        <ele>16.011969</ele>
        <time>2020-07-15T15:44:39.499Z</time>
      </trkpt>
      <trkpt lat="60.77031" lon="4.9206">
        <ele>16.692372</ele>
        <time>2020-07-15T15:44:48.693Z</time>
      </trkpt>
      <trkpt lat="60.77052" lon="4.92067">
        <ele>16.890254</ele>
        <time>2020-07-15T15:44:53.334Z</time>
      </trkpt>
      <trkpt lat="60.77131" lon="4.92054">
        <ele>17.643772</ele>
        <time>2020-07-15T15:45:10.472Z</time>
      </trkpt>
      <trkpt lat="60.77152" lon="4.92056">
        <ele>17.850032</ele>
        <time>2020-07-15T15:45:15.082Z</time>
      </trkpt>
      <trkpt lat="60.77174" lon="4.92071">
        <ele>18.072833</ele>
        <time>2020-07-15T15:45:20.053Z</time>
      </trkpt>
      <trkpt lat="60.77207" lon="4.92111">
        <ele>18.38075</ele>
        <time>2020-07-15T15:45:27.978Z</time>
      </trkpt>
      <trkpt lat="60.77328" lon="4.92296">
        <ele>18.970061</ele>
        <time>2020-07-15T15:45:58.044Z</time>
      </trkpt>
      <trkpt lat="60.7738" lon="4.92346">
        <ele>19.059068</ele>
        <time>2020-07-15T15:46:08.878Z</time>
      </trkpt>
      <trkpt lat="60.77389" lon="4.92359">
        <ele>19.063115</ele>
        <time>2020-07-15T15:46:10.879Z</time>
      </trkpt>
      <trkpt lat="60.77414" lon="4.92378">
        <ele>19.072905</ele>
        <time>2020-07-15T15:46:15.896Z</time>
      </trkpt>
      <trkpt lat="60.77497" lon="4.92485">
        <ele>19.108752</ele>
        <time>2020-07-15T15:46:33.993Z</time>
      </trkpt>
      <trkpt lat="60.77543" lon="4.92557">
        <ele>19.155721</ele>
        <time>2020-07-15T15:46:44.775Z</time>
      </trkpt>
      <trkpt lat="60.77548" lon="4.92574">
        <ele>19.164563</ele>
        <time>2020-07-15T15:46:46.716Z</time>
      </trkpt>
      <trkpt lat="60.77534" lon="4.92553">
        <ele>19.179744</ele>
        <time>2020-07-15T15:46:49.859Z</time>
      </trkpt>
      <trkpt lat="60.7753" lon="4.92559">
        <ele>19.183661</ele>
        <time>2020-07-15T15:46:50.938Z</time>
      </trkpt>
      <trkpt lat="60.7755" lon="4.92599">
        <ele>19.208109</ele>
        <time>2020-07-15T15:46:56.279Z</time>
      </trkpt>
      <trkpt lat="60.77568" lon="4.92627">
        <ele>19.227754</ele>
        <time>2020-07-15T15:47:00.561Z</time>
      </trkpt>
      <trkpt lat="60.77585" lon="4.92672">
        <ele>19.251843</ele>
        <time>2020-07-15T15:47:05.803Z</time>
      </trkpt>
      <trkpt lat="60.77696" lon="4.93224">
        <ele>19.270978</ele>
        <time>2020-07-15T15:48:00.076Z</time>
      </trkpt>
      <trkpt lat="60.77721" lon="4.93312">
        <ele>19.255375</ele>
        <time>2020-07-15T15:48:08.928Z</time>
      </trkpt>
      <trkpt lat="60.77725" lon="4.93316">
        <ele>19.25415</ele>
        <time>2020-07-15T15:48:09.562Z</time>
      </trkpt>
      <trkpt lat="60.77734" lon="4.93327">
        <ele>19.250966</ele>
        <time>2020-07-15T15:48:11.425Z</time>
      </trkpt>
      <trkpt lat="60.77777" lon="4.93282">
        <ele>19.602962</ele>
        <time>2020-07-15T15:48:20.560Z</time>
      </trkpt>
      <trkpt lat="60.77776" lon="4.93273">
        <ele>19.670062</ele>
        <time>2020-07-15T15:48:21.579Z</time>
      </trkpt>
      <trkpt lat="60.7778" lon="4.93268">
        <ele>19.741041</ele>
        <time>2020-07-15T15:48:22.904Z</time>
      </trkpt>
      <trkpt lat="60.77795" lon="4.93254">
        <ele>19.957875</ele>
        <time>2020-07-15T15:48:26.025Z</time>
      </trkpt>
      <trkpt lat="60.77806" lon="4.93245">
        <ele>20.123893</ele>
        <time>2020-07-15T15:48:28.483Z</time>
      </trkpt>
      <trkpt lat="60.77814" lon="4.9324">
        <ele>20.232067</ele>
        <time>2020-07-15T15:48:30.945Z</time>
      </trkpt>
      <trkpt lat="60.77832" lon="4.9324">
        <ele>20.469909</ele>
        <time>2020-07-15T15:48:34.496Z</time>
      </trkpt>
      <trkpt lat="60.77846" lon="4.93244">
        <ele>20.669271</ele>
        <time>2020-07-15T15:48:38.135Z</time>
      </trkpt>
      <trkpt lat="60.77878" lon="4.93252">
        <ele>21.10913</ele>
        <time>2020-07-15T15:48:45.338Z</time>
      </trkpt>
      <trkpt lat="60.77878" lon="4.93263">
        <ele>21.180983</ele>
        <time>2020-07-15T15:48:47.381Z</time>
      </trkpt>
      <trkpt lat="60.77907" lon="4.93267">
        <ele>21.579127</ele>
        <time>2020-07-15T15:48:53.994Z</time>
      </trkpt>
      <trkpt lat="60.77941" lon="4.93275">
        <ele>22.344357</ele>
        <time>2020-07-15T15:49:02.670Z</time>
      </trkpt>
      <trkpt lat="60.77949" lon="4.93275">
        <ele>22.5473</ele>
        <time>2020-07-15T15:49:05.758Z</time>
      </trkpt>
      <trkpt lat="60.78085" lon="4.93306">
        <ele>25.923875</ele>
        <time>2020-07-15T15:49:43.077Z</time>
      </trkpt>
      <trkpt lat="60.781" lon="4.93309">
        <ele>26.134387</ele>
        <time>2020-07-15T15:49:47.809Z</time>
      </trkpt>
      <trkpt lat="60.78102" lon="4.93298">
        <ele>26.142832</ele>
        <time>2020-07-15T15:49:48.722Z</time>
      </trkpt>
      <trkpt lat="60.78108" lon="4.93297">
        <ele>26.150708</ele>
        <time>2020-07-15T15:49:49.854Z</time>
      </trkpt>
      <trkpt lat="60.78162" lon="4.93284">
        <ele>26.227244</ele>
        <time>2020-07-15T15:50:01.044Z</time>
      </trkpt>
      <trkpt lat="60.78232" lon="4.93296">
        <ele>26.325658</ele>
        <time>2020-07-15T15:50:12.991Z</time>
      </trkpt>
      <trkpt lat="60.78239" lon="4.93297">
        <ele>26.335917</ele>
        <time>2020-07-15T15:50:14.697Z</time>
      </trkpt>
      <trkpt lat="60.78239" lon="4.93305">
        <ele>26.342027</ele>
        <time>2020-07-15T15:50:15.351Z</time>
      </trkpt>
      <trkpt lat="60.78242" lon="4.93305">
        <ele>26.34709</ele>
        <time>2020-07-15T15:50:15.797Z</time>
      </trkpt>
      <trkpt lat="60.78328" lon="4.93316">
        <ele>25.021118</ele>
        <time>2020-07-15T15:50:28.681Z</time>
      </trkpt>
      <trkpt lat="60.78378" lon="4.9334">
        <ele>23.915661</ele>
        <time>2020-07-15T15:50:36.172Z</time>
      </trkpt>
      <trkpt lat="60.78553" lon="4.93534">
        <ele>19.804682</ele>
        <time>2020-07-15T15:51:04.428Z</time>
      </trkpt>
      <trkpt lat="60.78583" lon="4.93568">
        <ele>19.099426</ele>
        <time>2020-07-15T15:51:09.939Z</time>
      </trkpt>
      <trkpt lat="60.78586" lon="4.93556">
        <ele>18.966072</ele>
        <time>2020-07-15T15:51:11.014Z</time>
      </trkpt>
      <trkpt lat="60.78583" lon="4.93549">
        <ele>18.881637</ele>
        <time>2020-07-15T15:51:11.689Z</time>
      </trkpt>
      <trkpt lat="60.78581" lon="4.93543">
        <ele>18.867637</ele>
        <time>2020-07-15T15:51:12.360Z</time>
      </trkpt>
      <trkpt lat="60.7858" lon="4.9354">
        <ele>18.867759</ele>
        <time>2020-07-15T15:51:12.606Z</time>
      </trkpt>
      <trkpt lat="60.78579" lon="4.93538">
        <ele>18.867877</ele>
        <time>2020-07-15T15:51:12.853Z</time>
      </trkpt>
      <trkpt lat="60.78586" lon="4.93536">
        <ele>18.868421</ele>
        <time>2020-07-15T15:51:13.834Z</time>
      </trkpt>
      <trkpt lat="60.78595" lon="4.93528">
        <ele>18.869293</ele>
        <time>2020-07-15T15:51:15.398Z</time>
      </trkpt>
      <trkpt lat="60.78607" lon="4.93509">
        <ele>18.870566</ele>
        <time>2020-07-15T15:51:17.844Z</time>
      </trkpt>
      <trkpt lat="60.78618" lon="4.93487">
        <ele>18.871955</ele>
        <time>2020-07-15T15:51:20.570Z</time>
      </trkpt>
      <trkpt lat="60.78736" lon="4.93253">
        <ele>18.750616</ele>
        <time>2020-07-15T15:51:52.123Z</time>
      </trkpt>
      <trkpt lat="60.78809" lon="4.93056">
        <ele>18.316572</ele>
        <time>2020-07-15T15:52:12.553Z</time>
      </trkpt>
      <trkpt lat="60.78819" lon="4.93031">
        <ele>18.260561</ele>
        <time>2020-07-15T15:52:15.071Z</time>
      </trkpt>
      <trkpt lat="60.78823" lon="4.93021">
        <ele>18.226969</ele>
        <time>2020-07-15T15:52:16.233Z</time>
      </trkpt>
      <trkpt lat="60.78842" lon="4.92983">
        <ele>17.685541</ele>
        <time>2020-07-15T15:52:19.871Z</time>
      </trkpt>
      <trkpt lat="60.78851" lon="4.92966">
        <ele>17.424316</ele>
        <time>2020-07-15T15:52:21.830Z</time>
      </trkpt>
      <trkpt lat="60.78867" lon="4.92937">
        <ele>16.98328</ele>
        <time>2020-07-15T15:52:24.668Z</time>
      </trkpt>
      <trkpt lat="60.78879" lon="4.92919">
        <ele>16.661192</ele>
        <time>2020-07-15T15:52:27.038Z</time>
      </trkpt>
      <trkpt lat="60.78887" lon="4.92908">
        <ele>16.454404</ele>
        <time>2020-07-15T15:52:28.294Z</time>
      </trkpt>
      <trkpt lat="60.78892" lon="4.92902">
        <ele>16.339779</ele>
        <time>2020-07-15T15:52:29.030Z</time>
      </trkpt>
      <trkpt lat="60.78938" lon="4.92851">
        <ele>15.242583</ele>
        <time>2020-07-15T15:52:36.314Z</time>
      </trkpt>
      <trkpt lat="60.78946" lon="4.92845">
        <ele>15.078399</ele>
        <time>2020-07-15T15:52:37.329Z</time>
      </trkpt>
      <trkpt lat="60.78982" lon="4.92814">
        <ele>14.356968</ele>
        <time>2020-07-15T15:52:42.546Z</time>
      </trkpt>
      <trkpt lat="60.79054" lon="4.92757">
        <ele>13.512048</ele>
        <time>2020-07-15T15:52:53.422Z</time>
      </trkpt>
      <trkpt lat="60.79065" lon="4.92749">
        <ele>13.386866</ele>
        <time>2020-07-15T15:52:55.222Z</time>
      </trkpt>
      <trkpt lat="60.79071" lon="4.92745">
        <ele>13.316645</ele>
        <time>2020-07-15T15:52:56.215Z</time>
      </trkpt>
      <trkpt lat="60.79116" lon="4.92708">
        <ele>12.775968</ele>
        <time>2020-07-15T15:53:04.436Z</time>
      </trkpt>
      <trkpt lat="60.79121" lon="4.92705">
        <ele>12.719445</ele>
        <time>2020-07-15T15:53:05.312Z</time>
      </trkpt>
      <trkpt lat="60.79132" lon="4.92697">
        <ele>12.590302</ele>
        <time>2020-07-15T15:53:07.443Z</time>
      </trkpt>
      <trkpt lat="60.79172" lon="4.92657">
        <ele>12.901025</ele>
        <time>2020-07-15T15:53:16.398Z</time>
      </trkpt>
      <trkpt lat="60.79222" lon="4.9255">
        <ele>13.725211</ele>
        <time>2020-07-15T15:53:32.701Z</time>
      </trkpt>
      <trkpt lat="60.79229" lon="4.92537">
        <ele>13.829772</ele>
        <time>2020-07-15T15:53:35.343Z</time>
      </trkpt>
      <trkpt lat="60.79236" lon="4.92525">
        <ele>13.929511</ele>
        <time>2020-07-15T15:53:37.250Z</time>
      </trkpt>
      <trkpt lat="60.79246" lon="4.9251">
        <ele>14.069798</ele>
        <time>2020-07-15T15:53:40.001Z</time>
      </trkpt>
      <trkpt lat="60.79253" lon="4.92504">
        <ele>14.156768</ele>
        <time>2020-07-15T15:53:41.793Z</time>
      </trkpt>
      <trkpt lat="60.79259" lon="4.92499">
        <ele>14.227603</ele>
        <time>2020-07-15T15:53:43.563Z</time>
      </trkpt>
      <trkpt lat="60.79343" lon="4.92468">
        <ele>14.269881</ele>
        <time>2020-07-15T15:54:00.872Z</time>
      </trkpt>
      <trkpt lat="60.79382" lon="4.92455">
        <ele>14.094217</ele>
        <time>2020-07-15T15:54:08.100Z</time>
      </trkpt>
      <trkpt lat="60.79411" lon="4.92445">
        <ele>13.958786</ele>
        <time>2020-07-15T15:54:12.738Z</time>
      </trkpt>
      <trkpt lat="60.79436" lon="4.92436">
        <ele>13.847979</ele>
        <time>2020-07-15T15:54:16.215Z</time>
      </trkpt>
      <trkpt lat="60.79529" lon="4.924">
        <ele>12.214072</ele>
        <time>2020-07-15T15:54:29.455Z</time>
      </trkpt>
      <trkpt lat="60.79542" lon="4.92394">
        <ele>11.908558</ele>
        <time>2020-07-15T15:54:31.241Z</time>
      </trkpt>
      <trkpt lat="60.79576" lon="4.92381">
        <ele>11.157248</ele>
        <time>2020-07-15T15:54:35.851Z</time>
      </trkpt>
      <trkpt lat="60.79616" lon="4.92363">
        <ele>10.232231</ele>
        <time>2020-07-15T15:54:41.676Z</time>
      </trkpt>
      <trkpt lat="60.79624" lon="4.92359">
        <ele>10.050023</ele>
        <time>2020-07-15T15:54:42.828Z</time>
      </trkpt>
      <trkpt lat="60.79652" lon="4.92337">
        <ele>9.432141</ele>
        <time>2020-07-15T15:54:47.098Z</time>
      </trkpt>
      <trkpt lat="60.79711" lon="4.92244">
        <ele>8.035044</ele>
        <time>2020-07-15T15:54:57.565Z</time>
      </trkpt>
      <trkpt lat="60.79724" lon="4.92228">
        <ele>7.739182</ele>
        <time>2020-07-15T15:54:59.914Z</time>
      </trkpt>
      <trkpt lat="60.79744" lon="4.92204">
        <ele>7.311984</ele>
        <time>2020-07-15T15:55:03.043Z</time>
      </trkpt>
      <trkpt lat="60.79777" lon="4.92158">
        <ele>6.559175</ele>
        <time>2020-07-15T15:55:08.812Z</time>
      </trkpt>
      <trkpt lat="60.79791" lon="4.9214">
        <ele>6.272292</ele>
        <time>2020-07-15T15:55:11.260Z</time>
      </trkpt>
      <trkpt lat="60.79804" lon="4.92125">
        <ele>6.04986</ele>
        <time>2020-07-15T15:55:13.367Z</time>
      </trkpt>
      <trkpt lat="60.79826" lon="4.92105">
        <ele>5.701123</ele>
        <time>2020-07-15T15:55:16.908Z</time>
      </trkpt>
      <trkpt lat="60.79856" lon="4.92112">
        <ele>5.257358</ele>
        <time>2020-07-15T15:55:21.352Z</time>
      </trkpt>
      <trkpt lat="60.79877" lon="4.92137">
        <ele>4.902661</ele>
        <time>2020-07-15T15:55:24.821Z</time>
      </trkpt>
      <trkpt lat="60.79893" lon="4.92154">
        <ele>4.646061</ele>
        <time>2020-07-15T15:55:27.470Z</time>
      </trkpt>
      <trkpt lat="60.79932" lon="4.92166">
        <ele>4.075697</ele>
        <time>2020-07-15T15:55:33.221Z</time>
      </trkpt>
      <trkpt lat="60.7996" lon="4.92156">
        <ele>3.690309</ele>
        <time>2020-07-15T15:55:37.583Z</time>
      </trkpt>
      <trkpt lat="60.8011" lon="4.92035">
        <ele>2.721543</ele>
        <time>2020-07-15T15:56:04.131Z</time>
      </trkpt>
      <trkpt lat="60.80164" lon="4.91972">
        <ele>2.367394</ele>
        <time>2020-07-15T15:56:14.498Z</time>
      </trkpt>
      <trkpt lat="60.80185" lon="4.91947">
        <ele>2.237632</ele>
        <time>2020-07-15T15:56:18.345Z</time>
      </trkpt>
      <trkpt lat="60.80252" lon="4.91863">
        <ele>1.800011</ele>
        <time>2020-07-15T15:56:31.181Z</time>
      </trkpt>
      <trkpt lat="60.80274" lon="4.91844">
        <ele>1.667403</ele>
        <time>2020-07-15T15:56:35.155Z</time>
      </trkpt>
      <trkpt lat="60.80284" lon="4.9184">
        <ele>1.614166</ele>
        <time>2020-07-15T15:56:36.708Z</time>
      </trkpt>
      <trkpt lat="60.80286" lon="4.91839">
        <ele>1.602414</ele>
        <time>2020-07-15T15:56:37.094Z</time>
      </trkpt>
      <trkpt lat="60.80298" lon="4.91839">
        <ele>1.546681</ele>
        <time>2020-07-15T15:56:38.950Z</time>
      </trkpt>
      <trkpt lat="60.80307" lon="4.91842">
        <ele>1.497571</ele>
        <time>2020-07-15T15:56:40.580Z</time>
      </trkpt>
      <trkpt lat="60.80318" lon="4.91846">
        <ele>1.441758</ele>
        <time>2020-07-15T15:56:42.323Z</time>
      </trkpt>
      <trkpt lat="60.80335" lon="4.91862">
        <ele>1.352803</ele>
        <time>2020-07-15T15:56:45.266Z</time>
      </trkpt>
      <trkpt lat="60.80356" lon="4.91905">
        <ele>1.20248</ele>
        <time>2020-07-15T15:56:50.190Z</time>
      </trkpt>
      <trkpt lat="60.80364" lon="4.91941">
        <ele>1.106665</ele>
        <time>2020-07-15T15:56:53.379Z</time>
      </trkpt>
      <trkpt lat="60.80367" lon="4.9201">
        <ele>0.939535</ele>
        <time>2020-07-15T15:56:58.986Z</time>
      </trkpt>
      <trkpt lat="60.80353" lon="4.9208">
        <ele>0.755266</ele>
        <time>2020-07-15T15:57:05.120Z</time>
      </trkpt>
      <trkpt lat="60.80287" lon="4.92298">
        <ele>0.452477</ele>
        <time>2020-07-15T15:57:26.583Z</time>
      </trkpt>
      <trkpt lat="60.80285" lon="4.92313">
        <ele>0.434392</ele>
        <time>2020-07-15T15:57:27.823Z</time>
      </trkpt>
      <trkpt lat="60.80281" lon="4.92338">
        <ele>0.403685</ele>
        <time>2020-07-15T15:57:30.166Z</time>
      </trkpt>
      <trkpt lat="60.80273" lon="4.92439">
        <ele>0.306213</ele>
        <time>2020-07-15T15:57:38.952Z</time>
      </trkpt>
      <trkpt lat="60.80271" lon="4.9247">
        <ele>0.294145</ele>
        <time>2020-07-15T15:57:41.490Z</time>
      </trkpt>
      <trkpt lat="60.80269" lon="4.92487">
        <ele>0.287285</ele>
        <time>2020-07-15T15:57:43.026Z</time>
      </trkpt>
      <trkpt lat="60.80258" lon="4.92639">
        <ele>0.226874</ele>
        <time>2020-07-15T15:57:56.232Z</time>
      </trkpt>
      <trkpt lat="60.80255" lon="4.92662">
        <ele>0.217811</ele>
        <time>2020-07-15T15:57:58.309Z</time>
      </trkpt>
      <trkpt lat="60.80252" lon="4.92678">
        <ele>0.210903</ele>
        <time>2020-07-15T15:57:59.829Z</time>
      </trkpt>
      <trkpt lat="60.80248" lon="4.92695">
        <ele>0.203473</ele>
        <time>2020-07-15T15:58:01.505Z</time>
      </trkpt>
      <trkpt lat="60.80246" lon="4.92703">
        <ele>0.199916</ele>
        <time>2020-07-15T15:58:02.260Z</time>
      </trkpt>
      <trkpt lat="60.80178" lon="4.92967">
        <ele>0.116862</ele>
        <time>2020-07-15T15:58:27.968Z</time>
      </trkpt>
      <trkpt lat="60.80161" lon="4.9302">
        <ele>0.101548</ele>
        <time>2020-07-15T15:58:33.389Z</time>
      </trkpt>
      <trkpt lat="60.80156" lon="4.93032">
        <ele>0.097657</ele>
        <time>2020-07-15T15:58:34.759Z</time>
      </trkpt>
      <trkpt lat="60.80144" lon="4.93059">
        <ele>0.088674</ele>
        <time>2020-07-15T15:58:37.940Z</time>
      </trkpt>
      <trkpt lat="60.80026" lon="4.93278">
        <ele>0.029849</ele>
        <time>2020-07-15T15:59:06.203Z</time>
      </trkpt>
      <trkpt lat="60.80013" lon="4.93301">
        <ele>0.023779</ele>
        <time>2020-07-15T15:59:09.230Z</time>
      </trkpt>
      <trkpt lat="60.80007" lon="4.93314">
        <ele>0.020625</ele>
        <time>2020-07-15T15:59:10.803Z</time>
      </trkpt>
      <trkpt lat="60.7983" lon="4.9356">
        <ele>0.075688</ele>
        <time>2020-07-15T15:59:49.135Z</time>
      </trkpt>
      <trkpt lat="60.79806" lon="4.93618">
        <ele>0.066759</ele>
        <time>2020-07-15T15:59:55.711Z</time>
      </trkpt>
      <trkpt lat="60.798" lon="4.93667">
        <ele>0.060791</ele>
        <time>2020-07-15T16:00:00.088Z</time>
      </trkpt>
      <trkpt lat="60.798" lon="4.93687">
        <ele>0.058384</ele>
        <time>2020-07-15T16:00:01.866Z</time>
      </trkpt>
      <trkpt lat="60.798" lon="4.93709">
        <ele>0.055787</ele>
        <time>2020-07-15T16:00:03.767Z</time>
      </trkpt>
      <trkpt lat="60.79801" lon="4.93774">
        <ele>0.048145</ele>
        <time>2020-07-15T16:00:09.399Z</time>
      </trkpt>
      <trkpt lat="60.79803" lon="4.9385">
        <ele>0.039127</ele>
        <time>2020-07-15T16:00:16.022Z</time>
      </trkpt>
      <trkpt lat="60.79803" lon="4.9392">
        <ele>0.037243</ele>
        <time>2020-07-15T16:00:22.114Z</time>
      </trkpt>
      <trkpt lat="60.79802" lon="4.9394">
        <ele>0.03679</ele>
        <time>2020-07-15T16:00:23.859Z</time>
      </trkpt>
      <trkpt lat="60.798" lon="4.93961">
        <ele>0.036317</ele>
        <time>2020-07-15T16:00:25.696Z</time>
      </trkpt>
      <trkpt lat="60.79778" lon="4.94035">
        <ele>0.034384</ele>
        <time>2020-07-15T16:00:33.189Z</time>
      </trkpt>
      <trkpt lat="60.79704" lon="4.9423">
        <ele>0.254339</ele>
        <time>2020-07-15T16:00:54.715Z</time>
      </trkpt>
      <trkpt lat="60.7969" lon="4.94289">
        <ele>0.454594</ele>
        <time>2020-07-15T16:01:00.862Z</time>
      </trkpt>
      <trkpt lat="60.79687" lon="4.94309">
        <ele>0.518325</ele>
        <time>2020-07-15T16:01:02.721Z</time>
      </trkpt>
      <trkpt lat="60.79685" lon="4.94335">
        <ele>0.597358</ele>
        <time>2020-07-15T16:01:05.069Z</time>
      </trkpt>
      <trkpt lat="60.79686" lon="4.94531">
        <ele>1.251335</ele>
        <time>2020-07-15T16:01:25.150Z</time>
      </trkpt>
      <trkpt lat="60.79684" lon="4.9456">
        <ele>1.461869</ele>
        <time>2020-07-15T16:01:28.231Z</time>
      </trkpt>
      <trkpt lat="60.79682" lon="4.94581">
        <ele>1.611564</ele>
        <time>2020-07-15T16:01:30.838Z</time>
      </trkpt>
      <trkpt lat="60.79675" lon="4.94626">
        <ele>1.956398</ele>
        <time>2020-07-15T16:01:35.915Z</time>
      </trkpt>
      <trkpt lat="60.7964" lon="4.94759">
        <ele>3.044812</ele>
        <time>2020-07-15T16:01:53.156Z</time>
      </trkpt>
      <trkpt lat="60.79619" lon="4.94846">
        <ele>3.743224</ele>
        <time>2020-07-15T16:02:04.381Z</time>
      </trkpt>
      <trkpt lat="60.79603" lon="4.94897">
        <ele>3.98131</ele>
        <time>2020-07-15T16:02:10.672Z</time>
      </trkpt>
      <trkpt lat="60.79569" lon="4.94955">
        <ele>4.278894</ele>
        <time>2020-07-15T16:02:19.324Z</time>
      </trkpt>
      <trkpt lat="60.79566" lon="4.94958">
        <ele>4.302996</ele>
        <time>2020-07-15T16:02:20.186Z</time>
      </trkpt>
      <trkpt lat="60.79555" lon="4.94969">
        <ele>4.386747</ele>
        <time>2020-07-15T16:02:22.397Z</time>
      </trkpt>
      <trkpt lat="60.79511" lon="4.94973">
        <ele>4.684168</ele>
        <time>2020-07-15T16:02:30.657Z</time>
      </trkpt>
      <trkpt lat="60.79468" lon="4.94973">
        <ele>4.971862</ele>
        <time>2020-07-15T16:02:38.824Z</time>
      </trkpt>
      <trkpt lat="60.79462" lon="4.94973">
        <ele>5.015873</ele>
        <time>2020-07-15T16:02:39.989Z</time>
      </trkpt>
      <trkpt lat="60.7943" lon="4.94983">
        <ele>5.671032</ele>
        <time>2020-07-15T16:02:46.582Z</time>
      </trkpt>
      <trkpt lat="60.79425" lon="4.94986">
        <ele>5.775479</ele>
        <time>2020-07-15T16:02:47.623Z</time>
      </trkpt>
      <trkpt lat="60.79413" lon="4.94994">
        <ele>6.035036</ele>
        <time>2020-07-15T16:02:50.021Z</time>
      </trkpt>
      <trkpt lat="60.7938" lon="4.9503">
        <ele>6.812212</ele>
        <time>2020-07-15T16:02:58.112Z</time>
      </trkpt>
      <trkpt lat="60.79378" lon="4.95034">
        <ele>6.873241</ele>
        <time>2020-07-15T16:02:58.838Z</time>
      </trkpt>
      <trkpt lat="60.79364" lon="4.95057">
        <ele>7.250649</ele>
        <time>2020-07-15T16:03:03.047Z</time>
      </trkpt>
      <trkpt lat="60.79296" lon="4.95167">
        <ele>9.498689</ele>
        <time>2020-07-15T16:03:26.701Z</time>
      </trkpt>
      <trkpt lat="60.79169" lon="4.95304">
        <ele>17.207298</ele>
        <time>2020-07-15T16:04:19.393Z</time>
      </trkpt>
      <trkpt lat="60.79148" lon="4.95333">
        <ele>18.563966</ele>
        <time>2020-07-15T16:04:28.970Z</time>
      </trkpt>
      <trkpt lat="60.79131" lon="4.9537">
        <ele>19.654937</ele>
        <time>2020-07-15T16:04:37.194Z</time>
      </trkpt>
      <trkpt lat="60.79127" lon="4.95384">
        <ele>20.023955</ele>
        <time>2020-07-15T16:04:40.991Z</time>
      </trkpt>
      <trkpt lat="60.79122" lon="4.95398">
        <ele>20.372113</ele>
        <time>2020-07-15T16:04:44.386Z</time>
      </trkpt>
      <trkpt lat="60.7909" lon="4.9551">
        <ele>23.145553</ele>
        <time>2020-07-15T16:05:05.598Z</time>
      </trkpt>
      <trkpt lat="60.7907" lon="4.95563">
        <ele>24.60046</ele>
        <time>2020-07-15T16:05:16.201Z</time>
      </trkpt>
      <trkpt lat="60.78816" lon="4.95924">
        <ele>31.20851</ele>
        <time>2020-07-15T16:06:29.932Z</time>
      </trkpt>
      <trkpt lat="60.78782" lon="4.95986">
        <ele>31.855735</ele>
        <time>2020-07-15T16:06:39.548Z</time>
      </trkpt>
      <trkpt lat="60.78749" lon="4.96086">
        <ele>32.619458</ele>
        <time>2020-07-15T16:06:51.797Z</time>
      </trkpt>
      <trkpt lat="60.78738" lon="4.96125">
        <ele>32.800892</ele>
        <time>2020-07-15T16:06:56.409Z</time>
      </trkpt>
      <trkpt lat="60.78713" lon="4.96212">
        <ele>33.210398</ele>
        <time>2020-07-15T16:07:06.759Z</time>
      </trkpt>
      <trkpt lat="60.78671" lon="4.96364">
        <ele>33.907487</ele>
        <time>2020-07-15T16:07:23.928Z</time>
      </trkpt>
      <trkpt lat="60.78663" lon="4.96397">
        <ele>34.018229</ele>
        <time>2020-07-15T16:07:27.707Z</time>
      </trkpt>
      <trkpt lat="60.7866" lon="4.96407">
        <ele>34.035189</ele>
        <time>2020-07-15T16:07:28.853Z</time>
      </trkpt>
      <trkpt lat="60.78573" lon="4.96736">
        <ele>34.397367</ele>
        <time>2020-07-15T16:08:03.068Z</time>
      </trkpt>
      <trkpt lat="60.78567" lon="4.96764">
        <ele>34.270833</ele>
        <time>2020-07-15T16:08:05.586Z</time>
      </trkpt>
      <trkpt lat="60.78556" lon="4.96813">
        <ele>34.05642</ele>
        <time>2020-07-15T16:08:09.921Z</time>
      </trkpt>
      <trkpt lat="60.78549" lon="4.96868">
        <ele>33.82792</ele>
        <time>2020-07-15T16:08:14.380Z</time>
      </trkpt>
      <trkpt lat="60.78548" lon="4.96881">
        <ele>33.77067</ele>
        <time>2020-07-15T16:08:15.511Z</time>
      </trkpt>
      <trkpt lat="60.78547" lon="4.96897">
        <ele>33.705817</ele>
        <time>2020-07-15T16:08:16.693Z</time>
      </trkpt>
      <trkpt lat="60.78553" lon="4.96968">
        <ele>33.417673</ele>
        <time>2020-07-15T16:08:22.126Z</time>
      </trkpt>
      <trkpt lat="60.78574" lon="4.97054">
        <ele>32.993622</ele>
        <time>2020-07-15T16:08:29.182Z</time>
      </trkpt>
      <trkpt lat="60.7862" lon="4.97132">
        <ele>31.353255</ele>
        <time>2020-07-15T16:08:37.546Z</time>
      </trkpt>
      <trkpt lat="60.78665" lon="4.97176">
        <ele>29.975691</ele>
        <time>2020-07-15T16:08:44.296Z</time>
      </trkpt>
      <trkpt lat="60.78726" lon="4.97206">
        <ele>28.238886</ele>
        <time>2020-07-15T16:08:52.535Z</time>
      </trkpt>
      <trkpt lat="60.78745" lon="4.97208">
        <ele>27.41206</ele>
        <time>2020-07-15T16:08:54.957Z</time>
      </trkpt>
      <trkpt lat="60.78922" lon="4.97181">
        <ele>18.585239</ele>
        <time>2020-07-15T16:09:16.147Z</time>
      </trkpt>
      <trkpt lat="60.78946" lon="4.97176">
        <ele>17.745107</ele>
        <time>2020-07-15T16:09:19.004Z</time>
      </trkpt>
      <trkpt lat="60.78957" lon="4.97174">
        <ele>17.348101</ele>
        <time>2020-07-15T16:09:20.303Z</time>
      </trkpt>
      <trkpt lat="60.79034" lon="4.97168">
        <ele>14.55989</ele>
        <time>2020-07-15T16:09:30.422Z</time>
      </trkpt>
      <trkpt lat="60.7904" lon="4.97169">
        <ele>14.347175</ele>
        <time>2020-07-15T16:09:31.095Z</time>
      </trkpt>
      <trkpt lat="60.7905" lon="4.97171">
        <ele>13.983166</ele>
        <time>2020-07-15T16:09:33.821Z</time>
      </trkpt>
      <trkpt lat="60.79114" lon="4.972">
        <ele>12.042673</ele>
        <time>2020-07-15T16:09:42.402Z</time>
      </trkpt>
      <trkpt lat="60.7915" lon="4.97229">
        <ele>11.30575</ele>
        <time>2020-07-15T16:09:48.091Z</time>
      </trkpt>
      <trkpt lat="60.79187" lon="4.97272">
        <ele>10.487673</ele>
        <time>2020-07-15T16:09:54.282Z</time>
      </trkpt>
      <trkpt lat="60.79199" lon="4.97288">
        <ele>10.208122</ele>
        <time>2020-07-15T16:09:56.076Z</time>
      </trkpt>
      <trkpt lat="60.79235" lon="4.97345">
        <ele>9.324686</ele>
        <time>2020-07-15T16:10:02.249Z</time>
      </trkpt>
      <trkpt lat="60.79329" lon="4.97488">
        <ele>10.797534</ele>
        <time>2020-07-15T16:10:24.317Z</time>
      </trkpt>
      <trkpt lat="60.79343" lon="4.97509">
        <ele>11.099906</ele>
        <time>2020-07-15T16:10:29.124Z</time>
      </trkpt>
      <trkpt lat="60.79351" lon="4.97519">
        <ele>11.254758</ele>
        <time>2020-07-15T16:10:30.794Z</time>
      </trkpt>
      <trkpt lat="60.7937" lon="4.97541">
        <ele>11.62722</ele>
        <time>2020-07-15T16:10:38.200Z</time>
      </trkpt>
      <trkpt lat="60.79395" lon="4.97564">
        <ele>12.088627</ele>
        <time>2020-07-15T16:10:46.567Z</time>
      </trkpt>
      <trkpt lat="60.79443" lon="4.97581">
        <ele>14.089249</ele>
        <time>2020-07-15T16:11:04.392Z</time>
      </trkpt>
      <trkpt lat="60.79484" lon="4.97574">
        <ele>15.809046</ele>
        <time>2020-07-15T16:11:19.060Z</time>
      </trkpt>
      <trkpt lat="60.79562" lon="4.97534">
        <ele>19.171464</ele>
        <time>2020-07-15T16:11:44.530Z</time>
      </trkpt>
      <trkpt lat="60.79577" lon="4.9753">
        <ele>19.55304</ele>
        <time>2020-07-15T16:11:48.374Z</time>
      </trkpt>
      <trkpt lat="60.7959" lon="4.97528">
        <ele>19.415905</ele>
        <time>2020-07-15T16:11:50.406Z</time>
      </trkpt>
      <trkpt lat="60.79635" lon="4.97532">
        <ele>18.937362</ele>
        <time>2020-07-15T16:11:58.893Z</time>
      </trkpt>
      <trkpt lat="60.7968" lon="4.97551">
        <ele>18.460415</ele>
        <time>2020-07-15T16:12:05.741Z</time>
      </trkpt>
      <trkpt lat="60.79865" lon="4.97695">
        <ele>13.847276</ele>
        <time>2020-07-15T16:12:31.708Z</time>
      </trkpt>
      <trkpt lat="60.79899" lon="4.97723">
        <ele>12.733022</ele>
        <time>2020-07-15T16:12:36.558Z</time>
      </trkpt>
      <trkpt lat="60.79988" lon="4.97794">
        <ele>10.399085</ele>
        <time>2020-07-15T16:12:49.415Z</time>
      </trkpt>
      <trkpt lat="60.80003" lon="4.97807">
        <ele>10.015644</ele>
        <time>2020-07-15T16:12:51.624Z</time>
      </trkpt>
      <trkpt lat="60.80073" lon="4.97854">
        <ele>8.304532</ele>
        <time>2020-07-15T16:13:01.892Z</time>
      </trkpt>
      <trkpt lat="60.80234" lon="4.97927">
        <ele>5.925488</ele>
        <time>2020-07-15T16:13:25.994Z</time>
      </trkpt>
      <trkpt lat="60.80239" lon="4.97931">
        <ele>5.848828</ele>
        <time>2020-07-15T16:13:26.766Z</time>
      </trkpt>
      <trkpt lat="60.80249" lon="4.97937">
        <ele>5.708966</ele>
        <time>2020-07-15T16:13:28.367Z</time>
      </trkpt>
      <trkpt lat="60.80289" lon="4.97974">
        <ele>5.655707</ele>
        <time>2020-07-15T16:13:35.798Z</time>
      </trkpt>
      <trkpt lat="60.80303" lon="4.9799">
        <ele>5.703063</ele>
        <time>2020-07-15T16:13:38.482Z</time>
      </trkpt>
      <trkpt lat="60.80305" lon="4.97981">
        <ele>5.716954</ele>
        <time>2020-07-15T16:13:39.292Z</time>
      </trkpt>
      <trkpt lat="60.8031" lon="4.9796">
        <ele>5.751352</ele>
        <time>2020-07-15T16:13:41.490Z</time>
      </trkpt>
      <trkpt lat="60.80312" lon="4.97964">
        <ele>5.759706</ele>
        <time>2020-07-15T16:13:42.230Z</time>
      </trkpt>
      <trkpt lat="60.80381" lon="4.98126">
        <ele>6.064974</ele>
        <time>2020-07-15T16:14:04.055Z</time>
      </trkpt>
      <trkpt lat="60.80436" lon="4.98313">
        <ele>7.037767</ele>
        <time>2020-07-15T16:14:27.755Z</time>
      </trkpt>
      <trkpt lat="60.80437" lon="4.98322">
        <ele>7.080568</ele>
        <time>2020-07-15T16:14:29.139Z</time>
      </trkpt>
      <trkpt lat="60.80438" lon="4.98331">
        <ele>7.124448</ele>
        <time>2020-07-15T16:14:30.033Z</time>
      </trkpt>
      <trkpt lat="60.80438" lon="4.98468">
        <ele>7.763571</ele>
        <time>2020-07-15T16:14:44.129Z</time>
      </trkpt>
      <trkpt lat="60.80426" lon="4.98638">
        <ele>8.216337</ele>
        <time>2020-07-15T16:15:00.810Z</time>
      </trkpt>
      <trkpt lat="60.80421" lon="4.98639">
        <ele>8.240349</ele>
        <time>2020-07-15T16:15:01.652Z</time>
      </trkpt>
      <trkpt lat="60.80415" lon="4.98635">
        <ele>8.272695</ele>
        <time>2020-07-15T16:15:02.659Z</time>
      </trkpt>
      <trkpt lat="60.80413" lon="4.98658">
        <ele>8.330098</ele>
        <time>2020-07-15T16:15:04.769Z</time>
      </trkpt>
      <trkpt lat="60.8038" lon="4.98979">
        <ele>10.283396</ele>
        <time>2020-07-15T16:15:37.126Z</time>
      </trkpt>
      <trkpt lat="60.80378" lon="4.99011">
        <ele>10.57951</ele>
        <time>2020-07-15T16:15:41.091Z</time>
      </trkpt>
      <trkpt lat="60.80357" lon="4.99268">
        <ele>13.531455</ele>
        <time>2020-07-15T16:16:15.579Z</time>
      </trkpt>
      <trkpt lat="60.80353" lon="4.99312">
        <ele>14.208295</ele>
        <time>2020-07-15T16:16:21.966Z</time>
      </trkpt>
      <trkpt lat="60.80339" lon="4.99477">
        <ele>16.757415</ele>
        <time>2020-07-15T16:16:45.084Z</time>
      </trkpt>
      <trkpt lat="60.80335" lon="4.99522">
        <ele>17.444697</ele>
        <time>2020-07-15T16:16:51.248Z</time>
      </trkpt>
      <trkpt lat="60.80318" lon="4.99727">
        <ele>20.239252</ele>
        <time>2020-07-15T16:17:18.962Z</time>
      </trkpt>
      <trkpt lat="60.80316" lon="4.99749">
        <ele>20.543933</ele>
        <time>2020-07-15T16:17:21.838Z</time>
      </trkpt>
      <trkpt lat="60.80314" lon="4.99766">
        <ele>20.768115</ele>
        <time>2020-07-15T16:17:24.203Z</time>
      </trkpt>
      <trkpt lat="60.80296" lon="4.9989">
        <ele>22.483513</ele>
        <time>2020-07-15T16:17:39.821Z</time>
      </trkpt>
      <trkpt lat="60.80268" lon="5.00012">
        <ele>24.156613</ele>
        <time>2020-07-15T16:17:56.947Z</time>
      </trkpt>
      <trkpt lat="60.8022" lon="5.00145">
        <ele>26.193992</ele>
        <time>2020-07-15T16:18:18.125Z</time>
      </trkpt>
      <trkpt lat="60.80176" lon="5.00248">
        <ele>27.654234</ele>
        <time>2020-07-15T16:18:35.676Z</time>
      </trkpt>
      <trkpt lat="60.80125" lon="5.00361">
        <ele>28.927227</ele>
        <time>2020-07-15T16:18:53.890Z</time>
      </trkpt>
      <trkpt lat="60.80128" lon="5.00379">
        <ele>29.082429</ele>
        <time>2020-07-15T16:18:55.963Z</time>
      </trkpt>
      <trkpt lat="60.80138" lon="5.0039">
        <ele>29.26631</ele>
        <time>2020-07-15T16:18:58.190Z</time>
      </trkpt>
      <trkpt lat="60.80143" lon="5.00392">
        <ele>29.35423</ele>
        <time>2020-07-15T16:18:59.304Z</time>
      </trkpt>
      <trkpt lat="60.80148" lon="5.00401">
        <ele>29.477743</ele>
        <time>2020-07-15T16:19:01.063Z</time>
      </trkpt>
      <trkpt lat="60.80198" lon="5.00476">
        <ele>30.25519</ele>
        <time>2020-07-15T16:19:13.698Z</time>
      </trkpt>
      <trkpt lat="60.8024" lon="5.00511">
        <ele>30.324921</ele>
        <time>2020-07-15T16:19:22.679Z</time>
      </trkpt>
      <trkpt lat="60.80257" lon="5.00521">
        <ele>30.351927</ele>
        <time>2020-07-15T16:19:25.966Z</time>
      </trkpt>
      <trkpt lat="60.8027" lon="5.00526">
        <ele>30.373311</ele>
        <time>2020-07-15T16:19:28.342Z</time>
      </trkpt>
      <trkpt lat="60.80305" lon="5.00532">
        <ele>30.425724</ele>
        <time>2020-07-15T16:19:34.286Z</time>
      </trkpt>
      <trkpt lat="60.80341" lon="5.00525">
        <ele>30.482487</ele>
        <time>2020-07-15T16:19:40.492Z</time>
      </trkpt>
      <trkpt lat="60.80454" lon="5.00451">
        <ele>30.058468</ele>
        <time>2020-07-15T16:20:00.167Z</time>
      </trkpt>
      <trkpt lat="60.80499" lon="5.00435">
        <ele>29.860623</ele>
        <time>2020-07-15T16:20:07.885Z</time>
      </trkpt>
      <trkpt lat="60.80544" lon="5.00439">
        <ele>29.610692</ele>
        <time>2020-07-15T16:20:15.325Z</time>
      </trkpt>
      <trkpt lat="60.80633" lon="5.00475">
        <ele>28.87132</ele>
        <time>2020-07-15T16:20:29.969Z</time>
      </trkpt>
      <trkpt lat="60.80677" lon="5.00482">
        <ele>28.517338</ele>
        <time>2020-07-15T16:20:36.732Z</time>
      </trkpt>
      <trkpt lat="60.80719" lon="5.00477">
        <ele>28.08855</ele>
        <time>2020-07-15T16:20:43.180Z</time>
      </trkpt>
      <trkpt lat="60.80808" lon="5.00444">
        <ele>26.733402</ele>
        <time>2020-07-15T16:20:56.522Z</time>
      </trkpt>
      <trkpt lat="60.80856" lon="5.0044">
        <ele>26.006414</ele>
        <time>2020-07-15T16:21:03.571Z</time>
      </trkpt>
      <trkpt lat="60.80901" lon="5.0045">
        <ele>25.189744</ele>
        <time>2020-07-15T16:21:10.146Z</time>
      </trkpt>
      <trkpt lat="60.80939" lon="5.00472">
        <ele>24.277751</ele>
        <time>2020-07-15T16:21:15.762Z</time>
      </trkpt>
      <trkpt lat="60.81128" lon="5.00616">
        <ele>18.221864</ele>
        <time>2020-07-15T16:21:42.966Z</time>
      </trkpt>
      <trkpt lat="60.81153" lon="5.00634">
        <ele>17.127323</ele>
        <time>2020-07-15T16:21:46.317Z</time>
      </trkpt>
      <trkpt lat="60.81162" lon="5.00642">
        <ele>16.743222</ele>
        <time>2020-07-15T16:21:47.495Z</time>
      </trkpt>
      <trkpt lat="60.81165" lon="5.00644">
        <ele>16.598704</ele>
        <time>2020-07-15T16:21:47.938Z</time>
      </trkpt>
      <trkpt lat="60.81197" lon="5.00667">
        <ele>15.23783</ele>
        <time>2020-07-15T16:21:52.036Z</time>
      </trkpt>
      <trkpt lat="60.81242" lon="5.0069">
        <ele>13.140035</ele>
        <time>2020-07-15T16:21:57.483Z</time>
      </trkpt>
      <trkpt lat="60.81276" lon="5.00694">
        <ele>11.373289</ele>
        <time>2020-07-15T16:22:01.439Z</time>
      </trkpt>
      <trkpt lat="60.81309" lon="5.00686">
        <ele>9.619526</ele>
        <time>2020-07-15T16:22:05.378Z</time>
      </trkpt>
      <trkpt lat="60.81342" lon="5.00667">
        <ele>7.829567</ele>
        <time>2020-07-15T16:22:09.433Z</time>
      </trkpt>
      <trkpt lat="60.81357" lon="5.00655">
        <ele>6.986314</ele>
        <time>2020-07-15T16:22:11.337Z</time>
      </trkpt>
      <trkpt lat="60.81365" lon="5.0065">
        <ele>6.553493</ele>
        <time>2020-07-15T16:22:12.406Z</time>
      </trkpt>
      <trkpt lat="60.81371" lon="5.00642">
        <ele>6.146326</ele>
        <time>2020-07-15T16:22:13.425Z</time>
      </trkpt>
      <trkpt lat="60.81378" lon="5.00625">
        <ele>5.583637</ele>
        <time>2020-07-15T16:22:14.748Z</time>
      </trkpt>
      <trkpt lat="60.8139" lon="5.006">
        <ele>4.699085</ele>
        <time>2020-07-15T16:22:16.852Z</time>
      </trkpt>
      <trkpt lat="60.81449" lon="5.005">
        <ele>2.993535</ele>
        <time>2020-07-15T16:22:26.834Z</time>
      </trkpt>
      <trkpt lat="60.81459" lon="5.00493">
        <ele>2.756394</ele>
        <time>2020-07-15T16:22:28.346Z</time>
      </trkpt>
      <trkpt lat="60.81472" lon="5.00487">
        <ele>2.479317</ele>
        <time>2020-07-15T16:22:29.976Z</time>
      </trkpt>
      <trkpt lat="60.81482" lon="5.0048">
        <ele>2.23411</ele>
        <time>2020-07-15T16:22:31.676Z</time>
      </trkpt>
      <trkpt lat="60.81513" lon="5.00463">
        <ele>1.539957</ele>
        <time>2020-07-15T16:22:36.152Z</time>
      </trkpt>
      <trkpt lat="60.8154" lon="5.00456">
        <ele>0.965953</ele>
        <time>2020-07-15T16:22:39.843Z</time>
      </trkpt>
      <trkpt lat="60.81593" lon="5.00461">
        <ele>0.594352</ele>
        <time>2020-07-15T16:22:47.229Z</time>
      </trkpt>
      <trkpt lat="60.81641" lon="5.00492">
        <ele>0.445862</ele>
        <time>2020-07-15T16:22:54.331Z</time>
      </trkpt>
      <trkpt lat="60.81693" lon="5.0055">
        <ele>0.275074</ele>
        <time>2020-07-15T16:23:02.485Z</time>
      </trkpt>
      <trkpt lat="60.81761" lon="5.0066">
        <ele>0.134204</ele>
        <time>2020-07-15T16:23:14.578Z</time>
      </trkpt>
      <trkpt lat="60.81829" lon="5.00833">
        <ele>0.02814</ele>
        <time>2020-07-15T16:23:29.715Z</time>
      </trkpt>
      <trkpt lat="60.81877" lon="5.0098">
        <ele>0.008902</ele>
        <time>2020-07-15T16:23:41.753Z</time>
      </trkpt>
      <trkpt lat="60.81935" lon="5.01108">
        <ele>0.001821</ele>
        <time>2020-07-15T16:23:53.619Z</time>
      </trkpt>
      <trkpt lat="60.81983" lon="5.01197">
        <time>2020-07-15T16:24:02.600Z</time>
      </trkpt>
      <trkpt lat="60.82048" lon="5.0126">
        <time>2020-07-15T16:24:12.608Z</time>
      </trkpt>
      <trkpt lat="60.82134" lon="5.01281">
        <time>2020-07-15T16:24:24.707Z</time>
      </trkpt>
      <trkpt lat="60.82224" lon="5.01265">
        <time>2020-07-15T16:24:37.209Z</time>
      </trkpt>
      <trkpt lat="60.8231" lon="5.01274">
        <time>2020-07-15T16:24:49.243Z</time>
      </trkpt>
      <trkpt lat="60.82386" lon="5.01332">
        <time>2020-07-15T16:25:00.518Z</time>
      </trkpt>
      <trkpt lat="60.82495" lon="5.01476">
        <time>2020-07-15T16:25:18.672Z</time>
      </trkpt>
      <trkpt lat="60.84929" lon="5.06058">
        <time>2020-07-15T16:32:59.054Z</time>
      </trkpt>
      <trkpt lat="60.85065" lon="5.06239">
        <time>2020-07-15T16:33:21.620Z</time>
      </trkpt>
      <trkpt lat="60.85212" lon="5.06377">
        <ele>0.014861</ele>
        <time>2020-07-15T16:33:44.177Z</time>
      </trkpt>
      <trkpt lat="60.85291" lon="5.06437">
        <ele>0.030753</ele>
        <time>2020-07-15T16:33:55.894Z</time>
      </trkpt>
      <trkpt lat="60.85385" lon="5.06475">
        <ele>0.211323</ele>
        <time>2020-07-15T16:34:09.182Z</time>
      </trkpt>
      <trkpt lat="60.85501" lon="5.06492">
        <ele>0.521335</ele>
        <time>2020-07-15T16:34:25.380Z</time>
      </trkpt>
      <trkpt lat="60.85566" lon="5.06471">
        <ele>0.879031</ele>
        <time>2020-07-15T16:34:34.553Z</time>
      </trkpt>
      <trkpt lat="60.85618" lon="5.06437">
        <ele>1.1745</ele>
        <time>2020-07-15T16:34:42.115Z</time>
      </trkpt>
      <trkpt lat="60.8567" lon="5.06396">
        <ele>1.398107</ele>
        <time>2020-07-15T16:34:49.929Z</time>
      </trkpt>
      <trkpt lat="60.85683" lon="5.06385">
        <ele>1.370715</ele>
        <time>2020-07-15T16:34:52.517Z</time>
      </trkpt>
      <trkpt lat="60.85708" lon="5.06366">
        <ele>1.319366</ele>
        <time>2020-07-15T16:34:57.356Z</time>
      </trkpt>
      <trkpt lat="60.85724" lon="5.06366">
        <ele>1.290218</ele>
        <time>2020-07-15T16:34:59.837Z</time>
      </trkpt>
      <trkpt lat="60.85736" lon="5.06393">
        <ele>1.254896</ele>
        <time>2020-07-15T16:35:03.224Z</time>
      </trkpt>
      <trkpt lat="60.85735" lon="5.06432">
        <ele>1.217662</ele>
        <time>2020-07-15T16:35:06.429Z</time>
      </trkpt>
      <trkpt lat="60.8572" lon="5.06458">
        <ele>1.180992</ele>
        <time>2020-07-15T16:35:09.948Z</time>
      </trkpt>
      <trkpt lat="60.85707" lon="5.06475">
        <ele>1.150624</ele>
        <time>2020-07-15T16:35:12.440Z</time>
      </trkpt>
      <trkpt lat="60.85678" lon="5.06513">
        <ele>1.084693</ele>
        <time>2020-07-15T16:35:18.101Z</time>
      </trkpt>
      <trkpt lat="60.85551" lon="5.0663">
        <ele>1.390193</ele>
        <time>2020-07-15T16:35:40.847Z</time>
      </trkpt>
      <trkpt lat="60.85527" lon="5.06657">
        <ele>1.455053</ele>
        <time>2020-07-15T16:35:46.716Z</time>
      </trkpt>
      <trkpt lat="60.85505" lon="5.0668">
        <ele>1.772829</ele>
        <time>2020-07-15T16:35:52.585Z</time>
      </trkpt>
      <trkpt lat="60.85495" lon="5.06692">
        <ele>2.391778</ele>
        <time>2020-07-15T16:35:55.687Z</time>
      </trkpt>
      <trkpt lat="60.85475" lon="5.06717">
        <ele>3.582783</ele>
        <time>2020-07-15T16:36:01.901Z</time>
      </trkpt>
      <trkpt lat="60.85465" lon="5.06732">
        <ele>4.257313</ele>
        <time>2020-07-15T16:36:05.634Z</time>
      </trkpt>
      <trkpt lat="60.85455" lon="5.06747">
        <ele>4.893543</ele>
        <time>2020-07-15T16:36:09.448Z</time>
      </trkpt>
      <trkpt lat="60.85441" lon="5.06769">
        <ele>5.785848</ele>
        <time>2020-07-15T16:36:14.411Z</time>
      </trkpt>
      <trkpt lat="60.8543" lon="5.06789">
        <ele>6.566287</ele>
        <time>2020-07-15T16:36:19.677Z</time>
      </trkpt>
      <trkpt lat="60.85359" lon="5.06929">
        <ele>11.995927</ele>
        <time>2020-07-15T16:37:01.123Z</time>
      </trkpt>
      <trkpt lat="60.85307" lon="5.07061">
        <ele>18.154476</ele>
        <time>2020-07-15T16:37:37.828Z</time>
      </trkpt>
      <trkpt lat="60.853" lon="5.07078">
        <ele>18.942104</ele>
        <time>2020-07-15T16:37:44.298Z</time>
      </trkpt>
      <trkpt lat="60.85294" lon="5.07094">
        <ele>19.654022</ele>
        <time>2020-07-15T16:37:47.887Z</time>
      </trkpt>
      <trkpt lat="60.85237" lon="5.0728">
        <ele>25.282499</ele>
        <time>2020-07-15T16:38:27.927Z</time>
      </trkpt>
      <trkpt lat="60.85175" lon="5.07549">
        <ele>28.500288</ele>
        <time>2020-07-15T16:38:59.068Z</time>
      </trkpt>
      <trkpt lat="60.85154" lon="5.07622">
        <ele>28.402686</ele>
        <time>2020-07-15T16:39:06.053Z</time>
      </trkpt>
      <trkpt lat="60.85108" lon="5.07734">
        <ele>28.231757</ele>
        <time>2020-07-15T16:39:17.921Z</time>
      </trkpt>
      <trkpt lat="60.84991" lon="5.07917">
        <ele>28.095076</ele>
        <time>2020-07-15T16:39:41.935Z</time>
      </trkpt>
      <trkpt lat="60.84953" lon="5.07988">
        <ele>28.091398</ele>
        <time>2020-07-15T16:39:50.890Z</time>
      </trkpt>
      <trkpt lat="60.849" lon="5.08131">
        <ele>29.592997</ele>
        <time>2020-07-15T16:40:09.011Z</time>
      </trkpt>
      <trkpt lat="60.84861" lon="5.08271">
        <ele>31.939301</ele>
        <time>2020-07-15T16:40:30.158Z</time>
      </trkpt>
      <trkpt lat="60.84854" lon="5.08304">
        <ele>32.455388</ele>
        <time>2020-07-15T16:40:35.483Z</time>
      </trkpt>
      <trkpt lat="60.84847" lon="5.08336">
        <ele>32.959512</ele>
        <time>2020-07-15T16:40:41.157Z</time>
      </trkpt>
      <trkpt lat="60.8482" lon="5.08504">
        <ele>38.369137</ele>
        <time>2020-07-15T16:41:13.572Z</time>
      </trkpt>
      <trkpt lat="60.84803" lon="5.08585">
        <ele>41.394957</ele>
        <time>2020-07-15T16:41:32.258Z</time>
      </trkpt>
      <trkpt lat="60.84774" lon="5.08676">
        <ele>45.114746</ele>
        <time>2020-07-15T16:41:56.044Z</time>
      </trkpt>
      <trkpt lat="60.84717" lon="5.08812">
        <ele>49.831049</ele>
        <time>2020-07-15T16:42:31.647Z</time>
      </trkpt>
      <trkpt lat="60.84698" lon="5.0887">
        <ele>51.581748</ele>
        <time>2020-07-15T16:42:43.565Z</time>
      </trkpt>
      <trkpt lat="60.84683" lon="5.0897">
        <ele>54.189433</ele>
        <time>2020-07-15T16:42:58.988Z</time>
      </trkpt>
      <trkpt lat="60.84683" lon="5.08989">
        <ele>54.642575</ele>
        <time>2020-07-15T16:43:01.813Z</time>
      </trkpt>
      <trkpt lat="60.84684" lon="5.09006">
        <ele>55.078553</ele>
        <time>2020-07-15T16:43:03.107Z</time>
      </trkpt>
      <trkpt lat="60.84697" lon="5.09071">
        <ele>55.3231</ele>
        <time>2020-07-15T16:43:10.987Z</time>
      </trkpt>
      <trkpt lat="60.84714" lon="5.09107">
        <ele>55.377053</ele>
        <time>2020-07-15T16:43:16.206Z</time>
      </trkpt>
      <trkpt lat="60.84802" lon="5.09215">
        <ele>55.601397</ele>
        <time>2020-07-15T16:43:32.447Z</time>
      </trkpt>
      <trkpt lat="60.84834" lon="5.09275">
        <ele>55.776565</ele>
        <time>2020-07-15T16:43:39.686Z</time>
      </trkpt>
      <trkpt lat="60.84885" lon="5.09346">
        <ele>56.140921</ele>
        <time>2020-07-15T16:43:50.785Z</time>
      </trkpt>
      <trkpt lat="60.84957" lon="5.09403">
        <ele>56.599208</ele>
        <time>2020-07-15T16:44:07.172Z</time>
      </trkpt>
      <trkpt lat="60.85076" lon="5.09439">
        <ele>58.692322</ele>
        <time>2020-07-15T16:44:35.061Z</time>
      </trkpt>
      <trkpt lat="60.85084" lon="5.09448">
        <ele>58.872608</ele>
        <time>2020-07-15T16:44:37.824Z</time>
      </trkpt>
      <trkpt lat="60.85091" lon="5.09457">
        <ele>59.044196</ele>
        <time>2020-07-15T16:44:40.395Z</time>
      </trkpt>
      <trkpt lat="60.8512" lon="5.09522">
        <ele>59.883203</ele>
        <time>2020-07-15T16:44:50.870Z</time>
      </trkpt>
      <trkpt lat="60.85132" lon="5.09605">
        <ele>60.48519</ele>
        <time>2020-07-15T16:45:01.155Z</time>
      </trkpt>
      <trkpt lat="60.85134" lon="5.09632">
        <ele>60.61248</ele>
        <time>2020-07-15T16:45:04.405Z</time>
      </trkpt>
      <trkpt lat="60.85133" lon="5.09644">
        <ele>60.671802</ele>
        <time>2020-07-15T16:45:06.741Z</time>
      </trkpt>
      <trkpt lat="60.8511" lon="5.09796">
        <ele>61.427283</ele>
        <time>2020-07-15T16:45:23.737Z</time>
      </trkpt>
      <trkpt lat="60.85063" lon="5.09965">
        <ele>61.025718</ele>
        <time>2020-07-15T16:45:39.810Z</time>
      </trkpt>
      <trkpt lat="60.85051" lon="5.1003">
        <ele>60.071956</ele>
        <time>2020-07-15T16:45:44.634Z</time>
      </trkpt>
      <trkpt lat="60.85046" lon="5.10061">
        <ele>59.620749</ele>
        <time>2020-07-15T16:45:46.719Z</time>
      </trkpt>
      <trkpt lat="60.85038" lon="5.10115">
        <ele>58.856534</ele>
        <time>2020-07-15T16:45:50.346Z</time>
      </trkpt>
      <trkpt lat="60.85021" lon="5.10304">
        <ele>55.503945</ele>
        <time>2020-07-15T16:46:01.989Z</time>
      </trkpt>
      <trkpt lat="60.85004" lon="5.10385">
        <ele>53.145445</ele>
        <time>2020-07-15T16:46:07.017Z</time>
      </trkpt>
      <trkpt lat="60.8495" lon="5.10567">
        <ele>47.381756</ele>
        <time>2020-07-15T16:46:19.321Z</time>
      </trkpt>
      <trkpt lat="60.84941" lon="5.10653">
        <ele>45.291959</ele>
        <time>2020-07-15T16:46:24.378Z</time>
      </trkpt>
      <trkpt lat="60.84941" lon="5.1076">
        <ele>42.8311</ele>
        <time>2020-07-15T16:46:30.608Z</time>
      </trkpt>
      <trkpt lat="60.84959" lon="5.10861">
        <ele>40.353508</ele>
        <time>2020-07-15T16:46:37.044Z</time>
      </trkpt>
      <trkpt lat="60.84982" lon="5.10935">
        <ele>38.411694</ele>
        <time>2020-07-15T16:46:42.463Z</time>
      </trkpt>
      <trkpt lat="60.85072" lon="5.11105">
        <ele>35.64647</ele>
        <time>2020-07-15T16:46:59.395Z</time>
      </trkpt>
      <trkpt lat="60.85076" lon="5.11109">
        <ele>35.547827</ele>
        <time>2020-07-15T16:47:00.104Z</time>
      </trkpt>
      <trkpt lat="60.85087" lon="5.11123">
        <ele>35.255554</ele>
        <time>2020-07-15T16:47:01.945Z</time>
      </trkpt>
      <trkpt lat="60.85162" lon="5.11217">
        <ele>33.842228</ele>
        <time>2020-07-15T16:47:14.875Z</time>
      </trkpt>
      <trkpt lat="60.85209" lon="5.11262">
        <ele>33.257147</ele>
        <time>2020-07-15T16:47:22.805Z</time>
      </trkpt>
      <trkpt lat="60.85221" lon="5.11269">
        <ele>33.108005</ele>
        <time>2020-07-15T16:47:24.652Z</time>
      </trkpt>
      <trkpt lat="60.85243" lon="5.11281">
        <ele>32.856585</ele>
        <time>2020-07-15T16:47:28.179Z</time>
      </trkpt>
      <trkpt lat="60.85373" lon="5.11301">
        <ele>32.621517</ele>
        <time>2020-07-15T16:47:49.500Z</time>
      </trkpt>
      <trkpt lat="60.85396" lon="5.11323">
        <ele>32.690136</ele>
        <time>2020-07-15T16:47:54.929Z</time>
      </trkpt>
      <trkpt lat="60.85412" lon="5.11356">
        <ele>32.750026</ele>
        <time>2020-07-15T16:47:59.420Z</time>
      </trkpt>
      <trkpt lat="60.85445" lon="5.1131">
        <ele>32.859469</ele>
        <time>2020-07-15T16:48:09.060Z</time>
      </trkpt>
      <trkpt lat="60.85506" lon="5.1127">
        <ele>32.261469</ele>
        <time>2020-07-15T16:48:21.842Z</time>
      </trkpt>
      <trkpt lat="60.85559" lon="5.11275">
        <ele>31.723031</ele>
        <time>2020-07-15T16:48:30.375Z</time>
      </trkpt>
      <trkpt lat="60.85574" lon="5.11282">
        <ele>31.563731</ele>
        <time>2020-07-15T16:48:32.810Z</time>
      </trkpt>
      <trkpt lat="60.856" lon="5.113">
        <ele>31.289455</ele>
        <time>2020-07-15T16:48:36.547Z</time>
      </trkpt>
      <trkpt lat="60.85627" lon="5.11323">
        <ele>30.800514</ele>
        <time>2020-07-15T16:48:40.243Z</time>
      </trkpt>
      <trkpt lat="60.8563" lon="5.11326">
        <ele>30.658318</ele>
        <time>2020-07-15T16:48:40.672Z</time>
      </trkpt>
      <trkpt lat="60.8565" lon="5.11343">
        <ele>29.683535</ele>
        <time>2020-07-15T16:48:43.340Z</time>
      </trkpt>
      <trkpt lat="60.85699" lon="5.11387">
        <ele>27.318378</ele>
        <time>2020-07-15T16:48:49.958Z</time>
      </trkpt>
      <trkpt lat="60.85773" lon="5.11449">
        <ele>23.808189</ele>
        <time>2020-07-15T16:48:59.451Z</time>
      </trkpt>
      <trkpt lat="60.8585" lon="5.11513">
        <ele>21.924635</ele>
        <time>2020-07-15T16:49:10.355Z</time>
      </trkpt>
      <trkpt lat="60.85989" lon="5.11625">
        <ele>19.760777</ele>
        <time>2020-07-15T16:49:34.597Z</time>
      </trkpt>
      <trkpt lat="60.8606" lon="5.11644">
        <ele>19.396502</ele>
        <time>2020-07-15T16:49:46.770Z</time>
      </trkpt>
      <trkpt lat="60.8611" lon="5.11645">
        <ele>19.144845</ele>
        <time>2020-07-15T16:49:54.849Z</time>
      </trkpt>
      <trkpt lat="60.86192" lon="5.11642">
        <ele>18.717788</ele>
        <time>2020-07-15T16:50:08.130Z</time>
      </trkpt>
      <trkpt lat="60.86204" lon="5.11642">
        <ele>18.659694</ele>
        <time>2020-07-15T16:50:09.936Z</time>
      </trkpt>
      <trkpt lat="60.86233" lon="5.11641">
        <ele>18.508748</ele>
        <time>2020-07-15T16:50:14.644Z</time>
      </trkpt>
      <trkpt lat="60.86312" lon="5.11654">
        <ele>18.095594</ele>
        <time>2020-07-15T16:50:27.928Z</time>
      </trkpt>
      <trkpt lat="60.86329" lon="5.1166">
        <ele>18.011138</ele>
        <time>2020-07-15T16:50:30.826Z</time>
      </trkpt>
      <trkpt lat="60.86356" lon="5.11674">
        <ele>17.876135</ele>
        <time>2020-07-15T16:50:35.615Z</time>
      </trkpt>
      <trkpt lat="60.86454" lon="5.11736">
        <ele>17.37941</ele>
        <time>2020-07-15T16:50:53.190Z</time>
      </trkpt>
      <trkpt lat="60.86476" lon="5.11748">
        <ele>17.268149</ele>
        <time>2020-07-15T16:50:57.047Z</time>
      </trkpt>
      <trkpt lat="60.86526" lon="5.11781">
        <ele>16.076932</ele>
        <time>2020-07-15T16:51:04.754Z</time>
      </trkpt>
      <trkpt lat="60.8658" lon="5.11813">
        <ele>14.591348</ele>
        <time>2020-07-15T16:51:12.437Z</time>
      </trkpt>
      <trkpt lat="60.86588" lon="5.11818">
        <ele>14.352789</ele>
        <time>2020-07-15T16:51:13.685Z</time>
      </trkpt>
      <trkpt lat="60.86627" lon="5.11827">
        <ele>13.334529</ele>
        <time>2020-07-15T16:51:18.733Z</time>
      </trkpt>
      <trkpt lat="60.86632" lon="5.11827">
        <ele>13.186602</ele>
        <time>2020-07-15T16:51:19.445Z</time>
      </trkpt>
      <trkpt lat="60.86641" lon="5.11828">
        <ele>12.964338</ele>
        <time>2020-07-15T16:51:20.450Z</time>
      </trkpt>
      <trkpt lat="60.86676" lon="5.11824">
        <ele>11.788774</ele>
        <time>2020-07-15T16:51:24.817Z</time>
      </trkpt>
      <trkpt lat="60.86743" lon="5.11794">
        <ele>8.920449</ele>
        <time>2020-07-15T16:51:33.245Z</time>
      </trkpt>
      <trkpt lat="60.86822" lon="5.11756">
        <ele>5.528129</ele>
        <time>2020-07-15T16:51:43.358Z</time>
      </trkpt>
      <trkpt lat="60.86843" lon="5.11747">
        <ele>4.814346</ele>
        <time>2020-07-15T16:51:46.124Z</time>
      </trkpt>
      <trkpt lat="60.86894" lon="5.11727">
        <ele>3.792184</ele>
        <time>2020-07-15T16:51:53.084Z</time>
      </trkpt>
      <trkpt lat="60.86935" lon="5.11735">
        <ele>2.984766</ele>
        <time>2020-07-15T16:51:58.783Z</time>
      </trkpt>
      <trkpt lat="60.86945" lon="5.11739">
        <ele>2.79975</ele>
        <time>2020-07-15T16:52:00.062Z</time>
      </trkpt>
      <trkpt lat="60.86993" lon="5.11758">
        <ele>1.835595</ele>
        <time>2020-07-15T16:52:07.706Z</time>
      </trkpt>
      <trkpt lat="60.87182" lon="5.1184">
        <ele>1.305431</ele>
        <time>2020-07-15T16:52:42.035Z</time>
      </trkpt>
      <trkpt lat="60.87196" lon="5.11847">
        <ele>1.299854</ele>
        <time>2020-07-15T16:52:44.736Z</time>
      </trkpt>
      <trkpt lat="60.87212" lon="5.11855">
        <ele>1.299577</ele>
        <time>2020-07-15T16:52:47.724Z</time>
      </trkpt>
      <trkpt lat="60.87392" lon="5.12082">
        <ele>1.352516</ele>
        <time>2020-07-15T16:53:25.298Z</time>
      </trkpt>
      <trkpt lat="60.87409" lon="5.12098">
        <ele>1.371</ele>
        <time>2020-07-15T16:53:28.533Z</time>
      </trkpt>
      <trkpt lat="60.87429" lon="5.12114">
        <ele>1.392247</ele>
        <time>2020-07-15T16:53:32.113Z</time>
      </trkpt>
      <trkpt lat="60.87522" lon="5.12151">
        <ele>1.627705</ele>
        <time>2020-07-15T16:53:49.667Z</time>
      </trkpt>
      <trkpt lat="60.87577" lon="5.1217">
        <ele>2.374465</ele>
        <time>2020-07-15T16:54:00.897Z</time>
      </trkpt>
      <trkpt lat="60.8759" lon="5.12176">
        <ele>2.549427</ele>
        <time>2020-07-15T16:54:03.860Z</time>
      </trkpt>
      <trkpt lat="60.87626" lon="5.12191">
        <ele>3.041878</ele>
        <time>2020-07-15T16:54:12.185Z</time>
      </trkpt>
      <trkpt lat="60.8765" lon="5.12214">
        <ele>3.402162</ele>
        <time>2020-07-15T16:54:18.500Z</time>
      </trkpt>
      <trkpt lat="60.8766" lon="5.12232">
        <ele>3.582302</ele>
        <time>2020-07-15T16:54:21.868Z</time>
      </trkpt>
      <trkpt lat="60.87674" lon="5.1228">
        <ele>3.950912</ele>
        <time>2020-07-15T16:54:29.315Z</time>
      </trkpt>
      <trkpt lat="60.87682" lon="5.1236">
        <ele>4.595228</ele>
        <time>2020-07-15T16:54:38.806Z</time>
      </trkpt>
      <trkpt lat="60.87681" lon="5.12555">
        <ele>6.116811</ele>
        <time>2020-07-15T16:55:00.708Z</time>
      </trkpt>
      <trkpt lat="60.87683" lon="5.12573">
        <ele>6.265851</ele>
        <time>2020-07-15T16:55:03.551Z</time>
      </trkpt>
      <trkpt lat="60.87684" lon="5.12582">
        <ele>6.334308</ele>
        <time>2020-07-15T16:55:04.084Z</time>
      </trkpt>
      <trkpt lat="60.87691" lon="5.12618">
        <ele>6.642236</ele>
        <time>2020-07-15T16:55:08.104Z</time>
      </trkpt>
      <trkpt lat="60.87708" lon="5.12662">
        <ele>6.891621</ele>
        <time>2020-07-15T16:55:13.677Z</time>
      </trkpt>
      <trkpt lat="60.8773" lon="5.12694">
        <ele>7.058358</ele>
        <time>2020-07-15T16:55:19.203Z</time>
      </trkpt>
      <trkpt lat="60.87774" lon="5.12735">
        <ele>7.362933</ele>
        <time>2020-07-15T16:55:28.799Z</time>
      </trkpt>
      <trkpt lat="60.87797" lon="5.1278">
        <ele>7.559004</ele>
        <time>2020-07-15T16:55:34.919Z</time>
      </trkpt>
      <trkpt lat="60.87819" lon="5.1285">
        <ele>7.811559</ele>
        <time>2020-07-15T16:55:42.861Z</time>
      </trkpt>
      <trkpt lat="60.87825" lon="5.12931">
        <ele>7.69389</ele>
        <time>2020-07-15T16:55:51.312Z</time>
      </trkpt>
      <trkpt lat="60.87819" lon="5.13236">
        <ele>6.569155</ele>
        <time>2020-07-15T16:56:14.429Z</time>
      </trkpt>
      <trkpt lat="60.87821" lon="5.13249">
        <ele>6.503534</ele>
        <time>2020-07-15T16:56:15.736Z</time>
      </trkpt>
      <trkpt lat="60.87823" lon="5.13262">
        <ele>6.378175</ele>
        <time>2020-07-15T16:56:16.483Z</time>
      </trkpt>
      <trkpt lat="60.87837" lon="5.13309">
        <ele>5.892133</ele>
        <time>2020-07-15T16:56:21.508Z</time>
      </trkpt>
      <trkpt lat="60.87872" lon="5.13349">
        <ele>5.16638</ele>
        <time>2020-07-15T16:56:27.078Z</time>
      </trkpt>
      <trkpt lat="60.87875" lon="5.1335">
        <ele>5.110078</ele>
        <time>2020-07-15T16:56:27.399Z</time>
      </trkpt>
      <trkpt lat="60.87886" lon="5.13352">
        <ele>4.921332</ele>
        <time>2020-07-15T16:56:28.998Z</time>
      </trkpt>
      <trkpt lat="60.87912" lon="5.13343">
        <ele>4.433009</ele>
        <time>2020-07-15T16:56:32.607Z</time>
      </trkpt>
      <trkpt lat="60.87986" lon="5.13277">
        <ele>3.51261</ele>
        <time>2020-07-15T16:56:44.607Z</time>
      </trkpt>
      <trkpt lat="60.88011" lon="5.13281">
        <ele>3.859842</ele>
        <time>2020-07-15T16:56:48.977Z</time>
      </trkpt>
      <trkpt lat="60.88038" lon="5.133">
        <ele>4.258051</ele>
        <time>2020-07-15T16:56:55.036Z</time>
      </trkpt>
      <trkpt lat="60.88067" lon="5.13356">
        <ele>4.815461</ele>
        <time>2020-07-15T16:57:04.724Z</time>
      </trkpt>
      <trkpt lat="60.88101" lon="5.13507">
        <ele>6.101983</ele>
        <time>2020-07-15T16:57:26.677Z</time>
      </trkpt>
      <trkpt lat="60.88116" lon="5.13553">
        <ele>6.860315</ele>
        <time>2020-07-15T16:57:33.240Z</time>
      </trkpt>
      <trkpt lat="60.88132" lon="5.13575">
        <ele>7.406711</ele>
        <time>2020-07-15T16:57:38.705Z</time>
      </trkpt>
      <trkpt lat="60.88152" lon="5.13585">
        <ele>8.003955</ele>
        <time>2020-07-15T16:57:43.982Z</time>
      </trkpt>
      <trkpt lat="60.88156" lon="5.13585">
        <ele>8.117468</ele>
        <time>2020-07-15T16:57:45.737Z</time>
      </trkpt>
      <trkpt lat="60.88161" lon="5.13586">
        <ele>8.247924</ele>
        <time>2020-07-15T16:57:46.741Z</time>
      </trkpt>
      <trkpt lat="60.88206" lon="5.13569">
        <ele>9.532275</ele>
        <time>2020-07-15T16:57:58.506Z</time>
      </trkpt>
      <trkpt lat="60.88442" lon="5.13436">
        <ele>17.192698</ele>
        <time>2020-07-15T16:59:06.322Z</time>
      </trkpt>
      <trkpt lat="60.88453" lon="5.13425">
        <ele>17.649385</ele>
        <time>2020-07-15T16:59:10.075Z</time>
      </trkpt>
      <trkpt lat="60.88532" lon="5.1334">
        <ele>21.013147</ele>
        <time>2020-07-15T16:59:38.732Z</time>
      </trkpt>
      <trkpt lat="60.88658" lon="5.13284">
        <ele>24.055936</ele>
        <time>2020-07-15T17:00:15.314Z</time>
      </trkpt>
      <trkpt lat="60.8868" lon="5.13253">
        <ele>24.372766</ele>
        <time>2020-07-15T17:00:20.877Z</time>
      </trkpt>
      <trkpt lat="60.88728" lon="5.13118">
        <ele>25.319766</ele>
        <time>2020-07-15T17:00:34.590Z</time>
      </trkpt>
      <trkpt lat="60.8875" lon="5.13088">
        <ele>25.04559</ele>
        <time>2020-07-15T17:00:38.715Z</time>
      </trkpt>
      <trkpt lat="60.88884" lon="5.13047">
        <ele>23.216891</ele>
        <time>2020-07-15T17:00:58.716Z</time>
      </trkpt>
      <trkpt lat="60.88924" lon="5.13053">
        <ele>22.449094</ele>
        <time>2020-07-15T17:01:04.624Z</time>
      </trkpt>
      <trkpt lat="60.88974" lon="5.13097">
        <ele>21.117892</ele>
        <time>2020-07-15T17:01:12.378Z</time>
      </trkpt>
      <trkpt lat="60.89061" lon="5.13271">
        <ele>17.862055</ele>
        <time>2020-07-15T17:01:28.632Z</time>
      </trkpt>
      <trkpt lat="60.89085" lon="5.13299">
        <ele>16.706414</ele>
        <time>2020-07-15T17:01:32.063Z</time>
      </trkpt>
      <trkpt lat="60.89111" lon="5.13311">
        <ele>15.564893</ele>
        <time>2020-07-15T17:01:35.402Z</time>
      </trkpt>
      <trkpt lat="60.89138" lon="5.13307">
        <ele>14.420133</ele>
        <time>2020-07-15T17:01:38.719Z</time>
      </trkpt>
      <trkpt lat="60.89152" lon="5.133">
        <ele>13.839314</ele>
        <time>2020-07-15T17:01:40.381Z</time>
      </trkpt>
      <trkpt lat="60.89175" lon="5.13273">
        <ele>12.704071</ele>
        <time>2020-07-15T17:01:43.566Z</time>
      </trkpt>
      <trkpt lat="60.89218" lon="5.13203">
        <ele>10.737336</ele>
        <time>2020-07-15T17:01:50.292Z</time>
      </trkpt>
      <trkpt lat="60.89272" lon="5.13079">
        <ele>9.607083</ele>
        <time>2020-07-15T17:02:01.246Z</time>
      </trkpt>
      <trkpt lat="60.89276" lon="5.13064">
        <ele>9.479951</ele>
        <time>2020-07-15T17:02:02.396Z</time>
      </trkpt>
      <trkpt lat="60.89285" lon="5.13032">
        <ele>9.227568</ele>
        <time>2020-07-15T17:02:05.651Z</time>
      </trkpt>
      <trkpt lat="60.89307" lon="5.12929">
        <ele>8.462155</ele>
        <time>2020-07-15T17:02:15.977Z</time>
      </trkpt>
      <trkpt lat="60.89314" lon="5.12895">
        <ele>8.840444</ele>
        <time>2020-07-15T17:02:20.681Z</time>
      </trkpt>
      <trkpt lat="60.89318" lon="5.12876">
        <ele>9.192101</ele>
        <time>2020-07-15T17:02:23.370Z</time>
      </trkpt>
      <trkpt lat="60.89333" lon="5.1283">
        <ele>10.170781</ele>
        <time>2020-07-15T17:02:30.355Z</time>
      </trkpt>
      <trkpt lat="60.89352" lon="5.12791">
        <ele>11.160947</ele>
        <time>2020-07-15T17:02:38.144Z</time>
      </trkpt>
      <trkpt lat="60.89375" lon="5.12761">
        <ele>12.161526</ele>
        <time>2020-07-15T17:02:47.223Z</time>
      </trkpt>
      <trkpt lat="60.89401" lon="5.12742">
        <ele>13.143077</ele>
        <time>2020-07-15T17:02:56.527Z</time>
      </trkpt>
      <trkpt lat="60.89639" lon="5.12626">
        <ele>23.628921</ele>
        <time>2020-07-15T17:04:14.745Z</time>
      </trkpt>
      <trkpt lat="60.89673" lon="5.12616">
        <ele>25.200762</ele>
        <time>2020-07-15T17:04:25.703Z</time>
      </trkpt>
      <trkpt lat="60.89706" lon="5.1263">
        <ele>26.743624</ele>
        <time>2020-07-15T17:04:36.698Z</time>
      </trkpt>
      <trkpt lat="60.89726" lon="5.12654">
        <ele>27.770706</ele>
        <time>2020-07-15T17:04:44.083Z</time>
      </trkpt>
      <trkpt lat="60.89748" lon="5.127">
        <ele>29.221823</ele>
        <time>2020-07-15T17:04:54.668Z</time>
      </trkpt>
      <trkpt lat="60.89797" lon="5.12899">
        <ele>32.889442</ele>
        <time>2020-07-15T17:05:30.397Z</time>
      </trkpt>
      <trkpt lat="60.89827" lon="5.12955">
        <ele>33.947168</ele>
        <time>2020-07-15T17:05:41.826Z</time>
      </trkpt>
      <trkpt lat="60.89861" lon="5.13002">
        <ele>35.022445</ele>
        <time>2020-07-15T17:05:51.718Z</time>
      </trkpt>
      <trkpt lat="60.89914" lon="5.13028">
        <ele>35.127083</ele>
        <time>2020-07-15T17:06:01.778Z</time>
      </trkpt>
      <trkpt lat="60.90104" lon="5.13055">
        <ele>28.661598</ele>
        <time>2020-07-15T17:06:25.799Z</time>
      </trkpt>
      <trkpt lat="60.90131" lon="5.13069">
        <ele>27.477573</ele>
        <time>2020-07-15T17:06:29.033Z</time>
      </trkpt>
      <trkpt lat="60.90155" lon="5.13093">
        <ele>26.305654</ele>
        <time>2020-07-15T17:06:32.260Z</time>
      </trkpt>
      <trkpt lat="60.90187" lon="5.13145">
        <ele>24.540692</ele>
        <time>2020-07-15T17:06:37.190Z</time>
      </trkpt>
      <trkpt lat="60.90203" lon="5.13191">
        <ele>23.358353</ele>
        <time>2020-07-15T17:06:40.572Z</time>
      </trkpt>
      <trkpt lat="60.90246" lon="5.13363">
        <ele>21.589591</ele>
        <time>2020-07-15T17:06:53.230Z</time>
      </trkpt>
      <trkpt lat="60.90265" lon="5.13403">
        <ele>21.314472</ele>
        <time>2020-07-15T17:06:57.342Z</time>
      </trkpt>
      <trkpt lat="60.90287" lon="5.13434">
        <ele>21.036736</ele>
        <time>2020-07-15T17:07:01.912Z</time>
      </trkpt>
      <trkpt lat="60.90313" lon="5.13455">
        <ele>20.755608</ele>
        <time>2020-07-15T17:07:07.181Z</time>
      </trkpt>
      <trkpt lat="60.90474" lon="5.13516">
        <ele>22.744633</ele>
        <time>2020-07-15T17:07:45.553Z</time>
      </trkpt>
      <trkpt lat="60.90513" lon="5.13539">
        <ele>23.436056</ele>
        <time>2020-07-15T17:07:55.950Z</time>
      </trkpt>
      <trkpt lat="60.90674" lon="5.13689">
        <ele>25.272053</ele>
        <time>2020-07-15T17:08:33.594Z</time>
      </trkpt>
      <trkpt lat="60.90696" lon="5.13704">
        <ele>25.508269</ele>
        <time>2020-07-15T17:08:37.683Z</time>
      </trkpt>
      <trkpt lat="60.907" lon="5.13706">
        <ele>25.542491</ele>
        <time>2020-07-15T17:08:38.285Z</time>
      </trkpt>
      <trkpt lat="60.90712" lon="5.13715">
        <ele>25.674556</ele>
        <time>2020-07-15T17:08:40.184Z</time>
      </trkpt>
      <trkpt lat="60.90778" lon="5.13752">
        <ele>26.350435</ele>
        <time>2020-07-15T17:08:53.532Z</time>
      </trkpt>
      <trkpt lat="60.90855" lon="5.13796">
        <ele>27.209981</ele>
        <time>2020-07-15T17:09:10.166Z</time>
      </trkpt>
      <trkpt lat="60.9087" lon="5.13806">
        <ele>27.930494</ele>
        <time>2020-07-15T17:09:15.113Z</time>
      </trkpt>
      <trkpt lat="60.90923" lon="5.13825">
        <ele>30.329826</ele>
        <time>2020-07-15T17:09:32.002Z</time>
      </trkpt>
      <trkpt lat="60.90977" lon="5.13807">
        <ele>32.75542</ele>
        <time>2020-07-15T17:09:50.591Z</time>
      </trkpt>
      <trkpt lat="60.91007" lon="5.13782">
        <ele>34.2066</ele>
        <time>2020-07-15T17:10:02.530Z</time>
      </trkpt>
      <trkpt lat="60.91015" lon="5.13775">
        <ele>34.587076</ele>
        <time>2020-07-15T17:10:05.737Z</time>
      </trkpt>
      <trkpt lat="60.91026" lon="5.1376">
        <ele>35.168997</ele>
        <time>2020-07-15T17:10:11.382Z</time>
      </trkpt>
      <trkpt lat="60.91131" lon="5.1363">
        <ele>39.436703</ele>
        <time>2020-07-15T17:10:50.902Z</time>
      </trkpt>
      <trkpt lat="60.9115" lon="5.13608">
        <ele>40.199226</ele>
        <time>2020-07-15T17:10:57.282Z</time>
      </trkpt>
      <trkpt lat="60.91154" lon="5.13603">
        <ele>40.361214</ele>
        <time>2020-07-15T17:10:58.270Z</time>
      </trkpt>
      <trkpt lat="60.91201" lon="5.13545">
        <ele>40.788855</ele>
        <time>2020-07-15T17:11:09.165Z</time>
      </trkpt>
      <trkpt lat="60.91331" lon="5.1339">
        <ele>37.080714</ele>
        <time>2020-07-15T17:11:28.835Z</time>
      </trkpt>
      <trkpt lat="60.91346" lon="5.13377">
        <ele>36.46505</ele>
        <time>2020-07-15T17:11:30.834Z</time>
      </trkpt>
      <trkpt lat="60.91356" lon="5.13369">
        <ele>36.008681</ele>
        <time>2020-07-15T17:11:32.063Z</time>
      </trkpt>
      <trkpt lat="60.91421" lon="5.1333">
        <ele>33.080995</ele>
        <time>2020-07-15T17:11:40.319Z</time>
      </trkpt>
      <trkpt lat="60.91442" lon="5.13321">
        <ele>32.165117</ele>
        <time>2020-07-15T17:11:42.938Z</time>
      </trkpt>
      <trkpt lat="60.91461" lon="5.13313">
        <ele>31.316976</ele>
        <time>2020-07-15T17:11:45.268Z</time>
      </trkpt>
      <trkpt lat="60.91528" lon="5.1328">
        <ele>28.758446</ele>
        <time>2020-07-15T17:11:54.178Z</time>
      </trkpt>
      <trkpt lat="60.91563" lon="5.13271">
        <ele>27.925222</ele>
        <time>2020-07-15T17:11:59.356Z</time>
      </trkpt>
      <trkpt lat="60.91589" lon="5.13283">
        <ele>27.299114</ele>
        <time>2020-07-15T17:12:02.725Z</time>
      </trkpt>
      <trkpt lat="60.91619" lon="5.13311">
        <ele>26.535969</ele>
        <time>2020-07-15T17:12:07.429Z</time>
      </trkpt>
      <trkpt lat="60.91642" lon="5.13336">
        <ele>25.930611</ele>
        <time>2020-07-15T17:12:11.564Z</time>
      </trkpt>
      <trkpt lat="60.91655" lon="5.13351">
        <ele>25.579354</ele>
        <time>2020-07-15T17:12:13.471Z</time>
      </trkpt>
      <trkpt lat="60.91663" lon="5.13357">
        <ele>25.384835</ele>
        <time>2020-07-15T17:12:15.224Z</time>
      </trkpt>
      <trkpt lat="60.91668" lon="5.13361">
        <ele>25.258614</ele>
        <time>2020-07-15T17:12:16.111Z</time>
      </trkpt>
      <trkpt lat="60.91708" lon="5.13368">
        <ele>24.264134</ele>
        <time>2020-07-15T17:12:21.934Z</time>
      </trkpt>
      <trkpt lat="60.91719" lon="5.13363">
        <ele>23.987695</ele>
        <time>2020-07-15T17:12:23.673Z</time>
      </trkpt>
      <trkpt lat="60.91721" lon="5.13362">
        <ele>23.915379</ele>
        <time>2020-07-15T17:12:23.966Z</time>
      </trkpt>
      <trkpt lat="60.91806" lon="5.1327">
        <ele>21.515688</ele>
        <time>2020-07-15T17:12:37.532Z</time>
      </trkpt>
      <trkpt lat="60.92006" lon="5.1319">
        <ele>14.038478</ele>
        <time>2020-07-15T17:13:03.379Z</time>
      </trkpt>
      <trkpt lat="60.92031" lon="5.13167">
        <ele>12.991987</ele>
        <time>2020-07-15T17:13:06.705Z</time>
      </trkpt>
      <trkpt lat="60.92087" lon="5.13087">
        <ele>10.472542</ele>
        <time>2020-07-15T17:13:15.011Z</time>
      </trkpt>
      <trkpt lat="60.92112" lon="5.13067">
        <ele>9.473568</ele>
        <time>2020-07-15T17:13:18.370Z</time>
      </trkpt>
      <trkpt lat="60.92138" lon="5.13058">
        <ele>8.469185</ele>
        <time>2020-07-15T17:13:21.789Z</time>
      </trkpt>
      <trkpt lat="60.92203" lon="5.13069">
        <ele>6.83843</ele>
        <time>2020-07-15T17:13:30.327Z</time>
      </trkpt>
      <trkpt lat="60.92342" lon="5.13032">
        <ele>7.833189</ele>
        <time>2020-07-15T17:13:57.668Z</time>
      </trkpt>
      <trkpt lat="60.92395" lon="5.13047">
        <ele>9.485522</ele>
        <time>2020-07-15T17:14:15.492Z</time>
      </trkpt>
      <trkpt lat="60.92472" lon="5.13104">
        <ele>13.350974</ele>
        <time>2020-07-15T17:14:44.625Z</time>
      </trkpt>
      <trkpt lat="60.92516" lon="5.1317">
        <ele>15.919975</ele>
        <time>2020-07-15T17:15:04.440Z</time>
      </trkpt>
      <trkpt lat="60.92594" lon="5.13325">
        <ele>17.161305</ele>
        <time>2020-07-15T17:15:34.484Z</time>
      </trkpt>
      <trkpt lat="60.92618" lon="5.13351">
        <ele>17.346507</ele>
        <time>2020-07-15T17:15:38.962Z</time>
      </trkpt>
      <trkpt lat="60.92631" lon="5.13357">
        <ele>17.440745</ele>
        <time>2020-07-15T17:15:41.027Z</time>
      </trkpt>
      <trkpt lat="60.92672" lon="5.13352">
        <ele>17.716785</ele>
        <time>2020-07-15T17:15:46.362Z</time>
      </trkpt>
      <trkpt lat="60.92732" lon="5.1329">
        <ele>14.918736</ele>
        <time>2020-07-15T17:15:54.527Z</time>
      </trkpt>
      <trkpt lat="60.92835" lon="5.13222">
        <ele>10.191869</ele>
        <time>2020-07-15T17:16:07.706Z</time>
      </trkpt>
      <trkpt lat="60.92846" lon="5.13217">
        <ele>9.827711</ele>
        <time>2020-07-15T17:16:09.011Z</time>
      </trkpt>
      <trkpt lat="60.92848" lon="5.13215">
        <ele>9.785708</ele>
        <time>2020-07-15T17:16:09.705Z</time>
      </trkpt>
      <trkpt lat="60.92889" lon="5.13212">
        <ele>9.097985</ele>
        <time>2020-07-15T17:16:15.153Z</time>
      </trkpt>
      <trkpt lat="60.9294" lon="5.13247">
        <ele>8.173217</ele>
        <time>2020-07-15T17:16:23.336Z</time>
      </trkpt>
      <trkpt lat="60.92962" lon="5.1328">
        <ele>7.713071</ele>
        <time>2020-07-15T17:16:27.869Z</time>
      </trkpt>
      <trkpt lat="60.93028" lon="5.1342">
        <ele>6.228786</ele>
        <time>2020-07-15T17:16:43.075Z</time>
      </trkpt>
      <trkpt lat="60.93039" lon="5.13431">
        <ele>6.061762</ele>
        <time>2020-07-15T17:16:45.372Z</time>
      </trkpt>
      <trkpt lat="60.93053" lon="5.13443">
        <ele>5.843025</ele>
        <time>2020-07-15T17:16:47.541Z</time>
      </trkpt>
      <trkpt lat="60.93066" lon="5.13452">
        <ele>5.654111</ele>
        <time>2020-07-15T17:16:49.602Z</time>
      </trkpt>
      <trkpt lat="60.93128" lon="5.13492">
        <ele>4.731984</ele>
        <time>2020-07-15T17:16:59.049Z</time>
      </trkpt>
      <trkpt lat="60.93131" lon="5.13495">
        <ele>4.68488</ele>
        <time>2020-07-15T17:16:59.470Z</time>
      </trkpt>
      <trkpt lat="60.93291" lon="5.13555">
        <ele>1.996263</ele>
        <time>2020-07-15T17:17:22.166Z</time>
      </trkpt>
      <trkpt lat="60.93313" lon="5.13558">
        <ele>1.623554</ele>
        <time>2020-07-15T17:17:25.604Z</time>
      </trkpt>
      <trkpt lat="60.93318" lon="5.13559">
        <ele>1.529704</ele>
        <time>2020-07-15T17:17:26.486Z</time>
      </trkpt>
      <trkpt lat="60.93323" lon="5.13558">
        <ele>1.4566</ele>
        <time>2020-07-15T17:17:27.185Z</time>
      </trkpt>
      <trkpt lat="60.93332" lon="5.13557">
        <ele>1.303427</ele>
        <time>2020-07-15T17:17:28.589Z</time>
      </trkpt>
      <trkpt lat="60.93488" lon="5.1339">
        <ele>0.615648</ele>
        <time>2020-07-15T17:17:58.230Z</time>
      </trkpt>
      <trkpt lat="60.93515" lon="5.13381">
        <ele>0.616239</ele>
        <time>2020-07-15T17:18:03.186Z</time>
      </trkpt>
      <trkpt lat="60.93528" lon="5.13386">
        <ele>0.634888</ele>
        <time>2020-07-15T17:18:05.664Z</time>
      </trkpt>
      <trkpt lat="60.93552" lon="5.13412">
        <ele>0.672241</ele>
        <time>2020-07-15T17:18:10.649Z</time>
      </trkpt>
      <trkpt lat="60.93569" lon="5.13455">
        <ele>0.709501</ele>
        <time>2020-07-15T17:18:15.643Z</time>
      </trkpt>
      <trkpt lat="60.93573" lon="5.13526">
        <ele>0.757085</ele>
        <time>2020-07-15T17:18:22.024Z</time>
      </trkpt>
      <trkpt lat="60.93568" lon="5.13564">
        <ele>0.783863</ele>
        <time>2020-07-15T17:18:25.609Z</time>
      </trkpt>
      <trkpt lat="60.93553" lon="5.13611">
        <ele>0.821339</ele>
        <time>2020-07-15T17:18:30.638Z</time>
      </trkpt>
      <trkpt lat="60.93537" lon="5.13648">
        <ele>0.912845</ele>
        <time>2020-07-15T17:18:35.143Z</time>
      </trkpt>
      <trkpt lat="60.93526" lon="5.13673">
        <ele>1.011729</ele>
        <time>2020-07-15T17:18:38.179Z</time>
      </trkpt>
      <trkpt lat="60.93509" lon="5.13717">
        <ele>1.174713</ele>
        <time>2020-07-15T17:18:43.293Z</time>
      </trkpt>
      <trkpt lat="60.93508" lon="5.13724">
        <ele>1.196736</ele>
        <time>2020-07-15T17:18:43.989Z</time>
      </trkpt>
      <trkpt lat="60.93503" lon="5.13742">
        <ele>1.25599</ele>
        <time>2020-07-15T17:18:45.840Z</time>
      </trkpt>
      <trkpt lat="60.93492" lon="5.13823">
        <ele>1.500302</ele>
        <time>2020-07-15T17:18:53.633Z</time>
      </trkpt>
      <trkpt lat="60.93484" lon="5.13934">
        <ele>1.827846</ele>
        <time>2020-07-15T17:19:04.815Z</time>
      </trkpt>
      <trkpt lat="60.93481" lon="5.13979">
        <ele>2.144353</ele>
        <time>2020-07-15T17:19:09.469Z</time>
      </trkpt>
      <trkpt lat="60.93478" lon="5.14017">
        <ele>2.696457</ele>
        <time>2020-07-15T17:19:13.685Z</time>
      </trkpt>
      <trkpt lat="60.93477" lon="5.14064">
        <ele>3.393148</ele>
        <time>2020-07-15T17:19:18.607Z</time>
      </trkpt>
      <trkpt lat="60.93479" lon="5.14085">
        <ele>3.699448</ele>
        <time>2020-07-15T17:19:21.025Z</time>
      </trkpt>
      <trkpt lat="60.93484" lon="5.14126">
        <ele>4.320714</ele>
        <time>2020-07-15T17:19:26.622Z</time>
      </trkpt>
      <trkpt lat="60.93488" lon="5.14147">
        <ele>4.648737</ele>
        <time>2020-07-15T17:19:29.583Z</time>
      </trkpt>
      <trkpt lat="60.93496" lon="5.14177">
        <ele>5.145406</ele>
        <time>2020-07-15T17:19:34.488Z</time>
      </trkpt>
      <trkpt lat="60.93499" lon="5.14185">
        <ele>5.294808</ele>
        <time>2020-07-15T17:19:35.765Z</time>
      </trkpt>
      <trkpt lat="60.93513" lon="5.14221">
        <ele>5.970241</ele>
        <time>2020-07-15T17:19:42.644Z</time>
      </trkpt>
      <trkpt lat="60.93556" lon="5.14329">
        <ele>8.244097</ele>
        <time>2020-07-15T17:20:04.991Z</time>
      </trkpt>
      <trkpt lat="60.93557" lon="5.14334">
        <ele>8.349829</ele>
        <time>2020-07-15T17:20:06.298Z</time>
      </trkpt>
      <trkpt lat="60.93582" lon="5.14394">
        <ele>9.876341</ele>
        <time>2020-07-15T17:20:19.018Z</time>
      </trkpt>
      <trkpt lat="60.93622" lon="5.14468">
        <ele>12.039968</ele>
        <time>2020-07-15T17:20:35.439Z</time>
      </trkpt>
      <trkpt lat="60.93625" lon="5.14472">
        <ele>12.181734</ele>
        <time>2020-07-15T17:20:37.424Z</time>
      </trkpt>
      <trkpt lat="60.9363" lon="5.14477">
        <ele>12.404587</ele>
        <time>2020-07-15T17:20:38.787Z</time>
      </trkpt>
      <trkpt lat="60.93634" lon="5.14481">
        <ele>12.574003</ele>
        <time>2020-07-15T17:20:40.130Z</time>
      </trkpt>
      <trkpt lat="60.93673" lon="5.14506">
        <ele>14.225418</ele>
        <time>2020-07-15T17:20:52.514Z</time>
      </trkpt>
      <trkpt lat="60.93682" lon="5.14507">
        <ele>14.543135</ele>
        <time>2020-07-15T17:20:54.775Z</time>
      </trkpt>
      <trkpt lat="60.93687" lon="5.14508">
        <ele>14.56108</ele>
        <time>2020-07-15T17:20:55.884Z</time>
      </trkpt>
      <trkpt lat="60.93727" lon="5.14498">
        <ele>14.714812</ele>
        <time>2020-07-15T17:21:06.046Z</time>
      </trkpt>
      <trkpt lat="60.93817" lon="5.14433">
        <ele>15.078504</ele>
        <time>2020-07-15T17:21:24.409Z</time>
      </trkpt>
      <trkpt lat="60.93878" lon="5.1437">
        <ele>14.470343</ele>
        <time>2020-07-15T17:21:33.700Z</time>
      </trkpt>
      <trkpt lat="60.93923" lon="5.14308">
        <ele>13.100688</ele>
        <time>2020-07-15T17:21:40.802Z</time>
      </trkpt>
      <trkpt lat="60.93941" lon="5.14277">
        <ele>12.503636</ele>
        <time>2020-07-15T17:21:43.967Z</time>
      </trkpt>
      <trkpt lat="60.93953" lon="5.14253">
        <ele>12.080464</ele>
        <time>2020-07-15T17:21:46.116Z</time>
      </trkpt>
      <trkpt lat="60.94014" lon="5.14138">
        <ele>11.264272</ele>
        <time>2020-07-15T17:21:57.273Z</time>
      </trkpt>
      <trkpt lat="60.94024" lon="5.1412">
        <ele>11.556155</ele>
        <time>2020-07-15T17:21:59.406Z</time>
      </trkpt>
      <trkpt lat="60.94035" lon="5.14105">
        <ele>11.827716</ele>
        <time>2020-07-15T17:22:01.599Z</time>
      </trkpt>
      <trkpt lat="60.94073" lon="5.14075">
        <ele>12.672939</ele>
        <time>2020-07-15T17:22:12.029Z</time>
      </trkpt>
      <trkpt lat="60.94155" lon="5.1407">
        <ele>14.383342</ele>
        <time>2020-07-15T17:22:38.228Z</time>
      </trkpt>
      <trkpt lat="60.9416" lon="5.14067">
        <ele>14.499036</ele>
        <time>2020-07-15T17:22:39.813Z</time>
      </trkpt>
      <trkpt lat="60.9417" lon="5.1406">
        <ele>14.863944</ele>
        <time>2020-07-15T17:22:45.582Z</time>
      </trkpt>
      <trkpt lat="60.94194" lon="5.14038">
        <ele>15.707438</ele>
        <time>2020-07-15T17:22:52.104Z</time>
      </trkpt>
      <trkpt lat="60.94198" lon="5.14033">
        <ele>15.865383</ele>
        <time>2020-07-15T17:22:54.032Z</time>
      </trkpt>
      <trkpt lat="60.94206" lon="5.14024">
        <ele>16.161479</ele>
        <time>2020-07-15T17:22:59.030Z</time>
      </trkpt>
      <trkpt lat="60.94227" lon="5.1399">
        <ele>17.054498</ele>
        <time>2020-07-15T17:23:04.663Z</time>
      </trkpt>
      <trkpt lat="60.94232" lon="5.1398">
        <ele>17.276281</ele>
        <time>2020-07-15T17:23:08.368Z</time>
      </trkpt>
      <trkpt lat="60.94243" lon="5.13958">
        <ele>17.780016</ele>
        <time>2020-07-15T17:23:10.714Z</time>
      </trkpt>
      <trkpt lat="60.94281" lon="5.13885">
        <ele>19.498495</ele>
        <time>2020-07-15T17:23:26.860Z</time>
      </trkpt>
      <trkpt lat="60.94331" lon="5.13791">
        <ele>21.237801</ele>
        <time>2020-07-15T17:23:42.333Z</time>
      </trkpt>
      <trkpt lat="60.9434" lon="5.13773">
        <ele>21.506244</ele>
        <time>2020-07-15T17:23:45.041Z</time>
      </trkpt>
      <trkpt lat="60.94409" lon="5.13652">
        <ele>23.442704</ele>
        <time>2020-07-15T17:24:02.430Z</time>
      </trkpt>
      <trkpt lat="60.94455" lon="5.13609">
        <ele>25.631555</ele>
        <time>2020-07-15T17:24:18.462Z</time>
      </trkpt>
      <trkpt lat="60.94504" lon="5.13585">
        <ele>30.268615</ele>
        <time>2020-07-15T17:24:40.656Z</time>
      </trkpt>
      <trkpt lat="60.94659" lon="5.13568">
        <ele>45.330304</ele>
        <time>2020-07-15T17:26:03.872Z</time>
      </trkpt>
      <trkpt lat="60.9471" lon="5.1357">
        <ele>50.918935</ele>
        <time>2020-07-15T17:26:33.303Z</time>
      </trkpt>
      <trkpt lat="60.94763" lon="5.13598">
        <ele>56.937344</ele>
        <time>2020-07-15T17:27:03.264Z</time>
      </trkpt>
      <trkpt lat="60.94817" lon="5.13659">
        <ele>61.772833</ele>
        <time>2020-07-15T17:27:32.315Z</time>
      </trkpt>
      <trkpt lat="60.94848" lon="5.13713">
        <ele>63.552394</ele>
        <time>2020-07-15T17:27:48.522Z</time>
      </trkpt>
      <trkpt lat="60.9488" lon="5.138">
        <ele>65.909441</ele>
        <time>2020-07-15T17:28:06.154Z</time>
      </trkpt>
      <trkpt lat="60.9497" lon="5.14108">
        <ele>66.461942</ele>
        <time>2020-07-15T17:28:34.120Z</time>
      </trkpt>
      <trkpt lat="60.94993" lon="5.14204">
        <ele>65.575337</ele>
        <time>2020-07-15T17:28:40.805Z</time>
      </trkpt>
      <trkpt lat="60.94997" lon="5.14259">
        <ele>64.873103</ele>
        <time>2020-07-15T17:28:44.263Z</time>
      </trkpt>
      <trkpt lat="60.94996" lon="5.14345">
        <ele>63.525272</ele>
        <time>2020-07-15T17:28:49.539Z</time>
      </trkpt>
      <trkpt lat="60.94971" lon="5.14622">
        <ele>59.572697</ele>
        <time>2020-07-15T17:29:07.418Z</time>
      </trkpt>
      <trkpt lat="60.94964" lon="5.14677">
        <ele>59.582188</ele>
        <time>2020-07-15T17:29:11.432Z</time>
      </trkpt>
      <trkpt lat="60.94961" lon="5.14715">
        <ele>59.588661</ele>
        <time>2020-07-15T17:29:14.256Z</time>
      </trkpt>
      <trkpt lat="60.9496" lon="5.14794">
        <ele>59.602123</ele>
        <time>2020-07-15T17:29:20.896Z</time>
      </trkpt>
      <trkpt lat="60.94973" lon="5.14913">
        <ele>59.622581</ele>
        <time>2020-07-15T17:29:33.618Z</time>
      </trkpt>
      <trkpt lat="60.94995" lon="5.14988">
        <ele>60.483698</ele>
        <time>2020-07-15T17:29:44.889Z</time>
      </trkpt>
      <trkpt lat="60.95045" lon="5.15107">
        <ele>63.532629</ele>
        <time>2020-07-15T17:30:08.291Z</time>
      </trkpt>
      <trkpt lat="60.95072" lon="5.15153">
        <ele>64.913147</ele>
        <time>2020-07-15T17:30:19.673Z</time>
      </trkpt>
      <trkpt lat="60.95348" lon="5.15518">
        <ele>80.21892</ele>
        <time>2020-07-15T17:32:09.035Z</time>
      </trkpt>
      <trkpt lat="60.95428" lon="5.15658">
        <ele>85.267362</ele>
        <time>2020-07-15T17:32:42.129Z</time>
      </trkpt>
      <trkpt lat="60.9553" lon="5.1578">
        <ele>91.59732</ele>
        <time>2020-07-15T17:33:22.913Z</time>
      </trkpt>
      <trkpt lat="60.95556" lon="5.1583">
        <ele>93.50283</ele>
        <time>2020-07-15T17:33:36.372Z</time>
      </trkpt>
      <trkpt lat="60.95599" lon="5.15998">
        <ele>100.72959</ele>
        <time>2020-07-15T17:34:13.903Z</time>
      </trkpt>
      <trkpt lat="60.95623" lon="5.16058">
        <ele>103.689965</ele>
        <time>2020-07-15T17:34:30.186Z</time>
      </trkpt>
      <trkpt lat="60.95661" lon="5.16127">
        <ele>107.629389</ele>
        <time>2020-07-15T17:34:54.263Z</time>
      </trkpt>
      <trkpt lat="60.9574" lon="5.16214">
        <ele>115.424171</ele>
        <time>2020-07-15T17:35:38.084Z</time>
      </trkpt>
      <trkpt lat="60.95802" lon="5.16283">
        <ele>121.466964</ele>
        <time>2020-07-15T17:36:09.319Z</time>
      </trkpt>
      <trkpt lat="60.95817" lon="5.16305">
        <ele>123.065361</ele>
        <time>2020-07-15T17:36:17.370Z</time>
      </trkpt>
      <trkpt lat="60.9583" lon="5.16329">
        <ele>123.972762</ele>
        <time>2020-07-15T17:36:24.244Z</time>
      </trkpt>
      <trkpt lat="60.95848" lon="5.16391">
        <ele>125.705473</ele>
        <time>2020-07-15T17:36:37.851Z</time>
      </trkpt>
      <trkpt lat="60.95866" lon="5.16522">
        <ele>128.961532</ele>
        <time>2020-07-15T17:37:00.377Z</time>
      </trkpt>
      <trkpt lat="60.95877" lon="5.16568">
        <ele>130.200156</ele>
        <time>2020-07-15T17:37:07.923Z</time>
      </trkpt>
      <trkpt lat="60.95906" lon="5.16612">
        <ele>131.988327</ele>
        <time>2020-07-15T17:37:16.957Z</time>
      </trkpt>
      <trkpt lat="60.95964" lon="5.16634">
        <ele>133.085868</ele>
        <time>2020-07-15T17:37:32.214Z</time>
      </trkpt>
      <trkpt lat="60.95994" lon="5.16649">
        <ele>133.648061</ele>
        <time>2020-07-15T17:37:40.015Z</time>
      </trkpt>
      <trkpt lat="60.96005" lon="5.16656">
        <ele>133.858289</ele>
        <time>2020-07-15T17:37:43.167Z</time>
      </trkpt>
      <trkpt lat="60.96051" lon="5.16702">
        <ele>134.795031</ele>
        <time>2020-07-15T17:37:55.727Z</time>
      </trkpt>
      <trkpt lat="60.96063" lon="5.16713">
        <ele>135.032547</ele>
        <time>2020-07-15T17:37:59.145Z</time>
      </trkpt>
      <trkpt lat="60.96306" lon="5.16931">
        <ele>126.943612</ele>
        <time>2020-07-15T17:38:41.384Z</time>
      </trkpt>
      <trkpt lat="60.96536" lon="5.1714">
        <ele>95.686967</ele>
        <time>2020-07-15T17:39:08.765Z</time>
      </trkpt>
      <trkpt lat="60.96548" lon="5.17151">
        <ele>93.70355</ele>
        <time>2020-07-15T17:39:10.254Z</time>
      </trkpt>
      <trkpt lat="60.96562" lon="5.17163">
        <ele>91.499632</ele>
        <time>2020-07-15T17:39:11.795Z</time>
      </trkpt>
      <trkpt lat="60.96608" lon="5.17223">
        <ele>86.498116</ele>
        <time>2020-07-15T17:39:17.557Z</time>
      </trkpt>
      <trkpt lat="60.96626" lon="5.17261">
        <ele>84.441257</ele>
        <time>2020-07-15T17:39:20.308Z</time>
      </trkpt>
      <trkpt lat="60.96645" lon="5.17319">
        <ele>81.725856</ele>
        <time>2020-07-15T17:39:24.065Z</time>
      </trkpt>
      <trkpt lat="60.96662" lon="5.17412">
        <ele>77.837965</ele>
        <time>2020-07-15T17:39:29.919Z</time>
      </trkpt>
      <trkpt lat="60.96668" lon="5.175">
        <ele>75.134849</ele>
        <time>2020-07-15T17:39:37.137Z</time>
      </trkpt>
      <trkpt lat="60.96659" lon="5.17796">
        <ele>70.508746</ele>
        <time>2020-07-15T17:39:57.449Z</time>
      </trkpt>
      <trkpt lat="60.96666" lon="5.18002">
        <ele>61.255023</ele>
        <time>2020-07-15T17:40:08.727Z</time>
      </trkpt>
      <trkpt lat="60.96683" lon="5.18094">
        <ele>56.060673</ele>
        <time>2020-07-15T17:40:13.825Z</time>
      </trkpt>
      <trkpt lat="60.96734" lon="5.1824">
        <ele>45.244958</ele>
        <time>2020-07-15T17:40:22.905Z</time>
      </trkpt>
      <trkpt lat="60.96744" lon="5.18295">
        <ele>40.959098</ele>
        <time>2020-07-15T17:40:25.902Z</time>
      </trkpt>
      <trkpt lat="60.96741" lon="5.18372">
        <ele>35.423745</ele>
        <time>2020-07-15T17:40:29.726Z</time>
      </trkpt>
      <trkpt lat="60.96697" lon="5.18568">
        <ele>21.45976</ele>
        <time>2020-07-15T17:40:40.670Z</time>
      </trkpt>
      <trkpt lat="60.96694" lon="5.18594">
        <ele>20.38541</ele>
        <time>2020-07-15T17:40:42.030Z</time>
      </trkpt>
      <trkpt lat="60.96691" lon="5.18616">
        <ele>19.465247</ele>
        <time>2020-07-15T17:40:43.231Z</time>
      </trkpt>
      <trkpt lat="60.9669" lon="5.18639">
        <ele>18.545028</ele>
        <time>2020-07-15T17:40:44.510Z</time>
      </trkpt>
      <trkpt lat="60.9669" lon="5.18646">
        <ele>18.268983</ele>
        <time>2020-07-15T17:40:44.851Z</time>
      </trkpt>
      <trkpt lat="60.96694" lon="5.18711">
        <ele>15.642729</ele>
        <time>2020-07-15T17:40:48.498Z</time>
      </trkpt>
      <trkpt lat="60.967" lon="5.18819">
        <ele>11.310683</ele>
        <time>2020-07-15T17:40:54.565Z</time>
      </trkpt>
      <trkpt lat="60.96706" lon="5.18912">
        <ele>8.859717</ele>
        <time>2020-07-15T17:41:00.379Z</time>
      </trkpt>
      <trkpt lat="60.96709" lon="5.1893">
        <ele>8.955483</ele>
        <time>2020-07-15T17:41:02.486Z</time>
      </trkpt>
      <trkpt lat="60.96713" lon="5.18948">
        <ele>9.054627</ele>
        <time>2020-07-15T17:41:03.864Z</time>
      </trkpt>
      <trkpt lat="60.96732" lon="5.18999">
        <ele>9.374769</ele>
        <time>2020-07-15T17:41:11.168Z</time>
      </trkpt>
      <trkpt lat="60.96792" lon="5.19147">
        <ele>10.327064</ele>
        <time>2020-07-15T17:41:37.729Z</time>
      </trkpt>
      <trkpt lat="60.96827" lon="5.19321">
        <ele>9.695837</ele>
        <time>2020-07-15T17:41:56.481Z</time>
      </trkpt>
      <trkpt lat="60.96854" lon="5.19381">
        <ele>9.203017</ele>
        <time>2020-07-15T17:42:02.310Z</time>
      </trkpt>
      <trkpt lat="60.9686" lon="5.19385">
        <ele>9.131253</ele>
        <time>2020-07-15T17:42:03.432Z</time>
      </trkpt>
      <trkpt lat="60.96867" lon="5.19391">
        <ele>9.037712</ele>
        <time>2020-07-15T17:42:04.358Z</time>
      </trkpt>
      <trkpt lat="60.969" lon="5.19381">
        <ele>8.624156</ele>
        <time>2020-07-15T17:42:08.852Z</time>
      </trkpt>
      <trkpt lat="60.96906" lon="5.19374">
        <ele>8.53766</ele>
        <time>2020-07-15T17:42:09.680Z</time>
      </trkpt>
      <trkpt lat="60.96912" lon="5.19368">
        <ele>8.4616</ele>
        <time>2020-07-15T17:42:10.369Z</time>
      </trkpt>
      <trkpt lat="60.96927" lon="5.1933">
        <ele>7.876278</ele>
        <time>2020-07-15T17:42:13.656Z</time>
      </trkpt>
      <trkpt lat="60.96933" lon="5.1929">
        <ele>7.196254</ele>
        <time>2020-07-15T17:42:16.122Z</time>
      </trkpt>
      <trkpt lat="60.96926" lon="5.19147">
        <ele>4.850005</ele>
        <time>2020-07-15T17:42:24.708Z</time>
      </trkpt>
      <trkpt lat="60.96933" lon="5.19072">
        <ele>3.610146</ele>
        <time>2020-07-15T17:42:29.422Z</time>
      </trkpt>
      <trkpt lat="60.96942" lon="5.19028">
        <ele>2.824752</ele>
        <time>2020-07-15T17:42:32.844Z</time>
      </trkpt>
      <trkpt lat="60.96991" lon="5.18874">
        <ele>3.078193</ele>
        <time>2020-07-15T17:42:46.719Z</time>
      </trkpt>
      <trkpt lat="60.97072" lon="5.18739">
        <ele>4.200585</ele>
        <time>2020-07-15T17:43:12.428Z</time>
      </trkpt>
      <trkpt lat="60.97116" lon="5.18602">
        <ele>8.770598</ele>
        <time>2020-07-15T17:43:39.655Z</time>
      </trkpt>
      <trkpt lat="60.97121" lon="5.18591">
        <ele>9.201215</ele>
        <time>2020-07-15T17:43:41.376Z</time>
      </trkpt>
      <trkpt lat="60.97126" lon="5.18581">
        <ele>9.564852</ele>
        <time>2020-07-15T17:43:46.322Z</time>
      </trkpt>
      <trkpt lat="60.97161" lon="5.18535">
        <ele>11.99982</ele>
        <time>2020-07-15T17:44:02.259Z</time>
      </trkpt>
      <trkpt lat="60.9719" lon="5.18519">
        <ele>13.748193</ele>
        <time>2020-07-15T17:44:14.819Z</time>
      </trkpt>
      <trkpt lat="60.97214" lon="5.18519">
        <ele>15.112226</ele>
        <time>2020-07-15T17:44:23.151Z</time>
      </trkpt>
      <trkpt lat="60.97243" lon="5.18532">
        <ele>16.677186</ele>
        <time>2020-07-15T17:44:36.260Z</time>
      </trkpt>
      <trkpt lat="60.97367" lon="5.18631">
        <ele>23.738124</ele>
        <time>2020-07-15T17:45:23.337Z</time>
      </trkpt>
      <trkpt lat="60.97379" lon="5.18638">
        <ele>24.246202</ele>
        <time>2020-07-15T17:45:26.197Z</time>
      </trkpt>
      <trkpt lat="60.97398" lon="5.18654">
        <ele>24.44297</ele>
        <time>2020-07-15T17:45:31.496Z</time>
      </trkpt>
      <trkpt lat="60.97404" lon="5.1866">
        <ele>24.511849</ele>
        <time>2020-07-15T17:45:33.404Z</time>
      </trkpt>
      <trkpt lat="60.97417" lon="5.1867">
        <ele>24.640445</ele>
        <time>2020-07-15T17:45:36.372Z</time>
      </trkpt>
      <trkpt lat="60.97439" lon="5.18686">
        <ele>24.867505</ele>
        <time>2020-07-15T17:45:41.706Z</time>
      </trkpt>
      <trkpt lat="60.97632" lon="5.18831">
        <ele>26.22191</ele>
        <time>2020-07-15T17:46:17.377Z</time>
      </trkpt>
      <trkpt lat="60.97763" lon="5.18846">
        <ele>26.77251</ele>
        <time>2020-07-15T17:46:43.882Z</time>
      </trkpt>
      <trkpt lat="60.97869" lon="5.18892">
        <ele>27.473966</ele>
        <time>2020-07-15T17:47:07.620Z</time>
      </trkpt>
      <trkpt lat="60.97977" lon="5.18856">
        <ele>26.413502</ele>
        <time>2020-07-15T17:47:24.845Z</time>
      </trkpt>
      <trkpt lat="60.97982" lon="5.18853">
        <ele>26.333314</ele>
        <time>2020-07-15T17:47:25.485Z</time>
      </trkpt>
      <trkpt lat="60.97996" lon="5.18844">
        <ele>26.114808</ele>
        <time>2020-07-15T17:47:27.595Z</time>
      </trkpt>
      <trkpt lat="60.98022" lon="5.18829">
        <ele>25.702311</ele>
        <time>2020-07-15T17:47:31.566Z</time>
      </trkpt>
      <trkpt lat="60.98064" lon="5.188">
        <ele>25.03818</ele>
        <time>2020-07-15T17:47:37.747Z</time>
      </trkpt>
      <trkpt lat="60.98123" lon="5.18763">
        <ele>23.720985</ele>
        <time>2020-07-15T17:47:45.910Z</time>
      </trkpt>
      <trkpt lat="60.98194" lon="5.18714">
        <ele>22.064233</ele>
        <time>2020-07-15T17:47:56.051Z</time>
      </trkpt>
      <trkpt lat="60.98252" lon="5.18674">
        <ele>21.050372</ele>
        <time>2020-07-15T17:48:04.792Z</time>
      </trkpt>
      <trkpt lat="60.98275" lon="5.1866">
        <ele>21.250903</ele>
        <time>2020-07-15T17:48:08.383Z</time>
      </trkpt>
      <trkpt lat="60.98345" lon="5.18612">
        <ele>21.878283</ele>
        <time>2020-07-15T17:48:22.829Z</time>
      </trkpt>
      <trkpt lat="60.9836" lon="5.18602">
        <ele>22.011646</ele>
        <time>2020-07-15T17:48:26.623Z</time>
      </trkpt>
      <trkpt lat="60.98412" lon="5.18569">
        <ele>22.47625</ele>
        <time>2020-07-15T17:48:40.054Z</time>
      </trkpt>
      <trkpt lat="60.98423" lon="5.1856">
        <ele>22.758046</ele>
        <time>2020-07-15T17:48:44.184Z</time>
      </trkpt>
      <trkpt lat="60.98476" lon="5.18535">
        <ele>24.119063</ele>
        <time>2020-07-15T17:48:59.850Z</time>
      </trkpt>
      <trkpt lat="60.98531" lon="5.1853">
        <ele>25.496673</ele>
        <time>2020-07-15T17:49:15.857Z</time>
      </trkpt>
      <trkpt lat="60.98563" lon="5.1852">
        <ele>26.312421</ele>
        <time>2020-07-15T17:49:23.958Z</time>
      </trkpt>
      <trkpt lat="60.98579" lon="5.18511">
        <ele>26.732375</ele>
        <time>2020-07-15T17:49:26.840Z</time>
      </trkpt>
      <trkpt lat="60.98596" lon="5.18499">
        <ele>26.961972</ele>
        <time>2020-07-15T17:49:31.130Z</time>
      </trkpt>
      <trkpt lat="60.98634" lon="5.18465">
        <ele>26.80609</ele>
        <time>2020-07-15T17:49:38.574Z</time>
      </trkpt>
      <trkpt lat="60.9864" lon="5.1846">
        <ele>26.781869</ele>
        <time>2020-07-15T17:49:39.364Z</time>
      </trkpt>
      <trkpt lat="60.98706" lon="5.18401">
        <ele>26.5084</ele>
        <time>2020-07-15T17:49:50.920Z</time>
      </trkpt>
      <trkpt lat="60.98777" lon="5.18304">
        <ele>26.698586</ele>
        <time>2020-07-15T17:50:04.042Z</time>
      </trkpt>
      <trkpt lat="60.98803" lon="5.18294">
        <ele>27.007869</ele>
        <time>2020-07-15T17:50:09.264Z</time>
      </trkpt>
      <trkpt lat="60.98828" lon="5.18301">
        <ele>27.302091</ele>
        <time>2020-07-15T17:50:14.698Z</time>
      </trkpt>
      <trkpt lat="60.98851" lon="5.18323">
        <ele>27.606866</ele>
        <time>2020-07-15T17:50:20.795Z</time>
      </trkpt>
      <trkpt lat="60.98936" lon="5.18477">
        <ele>29.022005</ele>
        <time>2020-07-15T17:50:49.362Z</time>
      </trkpt>
      <trkpt lat="60.98963" lon="5.18515">
        <ele>29.484682</ele>
        <time>2020-07-15T17:50:58.065Z</time>
      </trkpt>
      <trkpt lat="60.99236" lon="5.18845">
        <ele>30.509652</ele>
        <time>2020-07-15T17:52:00.796Z</time>
      </trkpt>
      <trkpt lat="60.9926" lon="5.18867">
        <ele>29.566184</ele>
        <time>2020-07-15T17:52:04.335Z</time>
      </trkpt>
      <trkpt lat="60.993" lon="5.18885">
        <ele>28.116047</ele>
        <time>2020-07-15T17:52:09.481Z</time>
      </trkpt>
      <trkpt lat="60.99332" lon="5.18887">
        <ele>26.95699</ele>
        <time>2020-07-15T17:52:13.397Z</time>
      </trkpt>
      <trkpt lat="60.9939" lon="5.18876">
        <ele>24.653494</ele>
        <time>2020-07-15T17:52:20.162Z</time>
      </trkpt>
      <trkpt lat="60.99483" lon="5.18889">
        <ele>19.063701</ele>
        <time>2020-07-15T17:52:30.979Z</time>
      </trkpt>
      <trkpt lat="60.99519" lon="5.18866">
        <ele>16.843173</ele>
        <time>2020-07-15T17:52:35.355Z</time>
      </trkpt>
      <trkpt lat="60.99537" lon="5.18829">
        <ele>15.303166</ele>
        <time>2020-07-15T17:52:38.429Z</time>
      </trkpt>
      <trkpt lat="60.99543" lon="5.18803">
        <ele>14.505734</ele>
        <time>2020-07-15T17:52:40.098Z</time>
      </trkpt>
      <trkpt lat="60.99559" lon="5.1865">
        <ele>13.696675</ele>
        <time>2020-07-15T17:52:49.913Z</time>
      </trkpt>
      <trkpt lat="60.99579" lon="5.18548">
        <ele>13.129349</ele>
        <time>2020-07-15T17:52:58.775Z</time>
      </trkpt>
      <trkpt lat="60.99608" lon="5.18492">
        <ele>12.703075</ele>
        <time>2020-07-15T17:53:08.221Z</time>
      </trkpt>
      <trkpt lat="60.99645" lon="5.1847">
        <ele>13.803028</ele>
        <time>2020-07-15T17:53:18.780Z</time>
      </trkpt>
      <trkpt lat="60.99673" lon="5.1847">
        <ele>15.028408</ele>
        <time>2020-07-15T17:53:27.530Z</time>
      </trkpt>
      <trkpt lat="60.99719" lon="5.18485">
        <ele>17.062429</ele>
        <time>2020-07-15T17:53:43.039Z</time>
      </trkpt>
      <trkpt lat="60.99767" lon="5.18528">
        <ele>19.326748</ele>
        <time>2020-07-15T17:54:01.507Z</time>
      </trkpt>
      <trkpt lat="60.99808" lon="5.18589">
        <ele>21.253002</ele>
        <time>2020-07-15T17:54:19.530Z</time>
      </trkpt>
      <trkpt lat="60.99923" lon="5.18796">
        <ele>26.342372</ele>
        <time>2020-07-15T17:55:02.318Z</time>
      </trkpt>
      <trkpt lat="60.99957" lon="5.18836">
        <ele>27.09872</ele>
        <time>2020-07-15T17:55:09.647Z</time>
      </trkpt>
      <trkpt lat="60.99989" lon="5.18848">
        <ele>27.71381</ele>
        <time>2020-07-15T17:55:16.561Z</time>
      </trkpt>
      <trkpt lat="61.00009" lon="5.18844">
        <ele>28.092919</ele>
        <time>2020-07-15T17:55:21.445Z</time>
      </trkpt>
      <trkpt lat="61.00039" lon="5.18823">
        <ele>28.703548</ele>
        <time>2020-07-15T17:55:30.033Z</time>
      </trkpt>
      <trkpt lat="61.00063" lon="5.18794">
        <ele>29.235323</ele>
        <time>2020-07-15T17:55:37.885Z</time>
      </trkpt>
      <trkpt lat="61.0007" lon="5.18782">
        <ele>29.419683</ele>
        <time>2020-07-15T17:55:39.147Z</time>
      </trkpt>
      <trkpt lat="61.00073" lon="5.18777">
        <ele>29.489935</ele>
        <time>2020-07-15T17:55:39.705Z</time>
      </trkpt>
      <trkpt lat="61.00094" lon="5.18825">
        <ele>29.957917</ele>
        <time>2020-07-15T17:55:47.616Z</time>
      </trkpt>
      <trkpt lat="61.00107" lon="5.18853">
        <ele>30.141816</ele>
        <time>2020-07-15T17:55:51.600Z</time>
      </trkpt>
      <trkpt lat="61.0011" lon="5.1886">
        <ele>30.189514</ele>
        <time>2020-07-15T17:55:54.510Z</time>
      </trkpt>
      <trkpt lat="61.00134" lon="5.18915">
        <ele>30.541937</ele>
        <time>2020-07-15T17:56:02.918Z</time>
      </trkpt>
      <trkpt lat="61.00147" lon="5.1894">
        <ele>30.717205</ele>
        <time>2020-07-15T17:56:05.709Z</time>
      </trkpt>
      <trkpt lat="61.00166" lon="5.18963">
        <ele>30.94033</ele>
        <time>2020-07-15T17:56:12.370Z</time>
      </trkpt>
      <trkpt lat="61.00256" lon="5.18954">
        <ele>30.992608</ele>
        <time>2020-07-15T17:56:29.555Z</time>
      </trkpt>
      <trkpt lat="61.00296" lon="5.18991">
        <ele>29.8291</ele>
        <time>2020-07-15T17:56:35.797Z</time>
      </trkpt>
      <trkpt lat="61.00305" lon="5.19001">
        <ele>29.539261</ele>
        <time>2020-07-15T17:56:37.246Z</time>
      </trkpt>
      <trkpt lat="61.00317" lon="5.1901">
        <ele>29.188019</ele>
        <time>2020-07-15T17:56:39.078Z</time>
      </trkpt>
      <trkpt lat="61.0033" lon="5.19021">
        <ele>28.828866</ele>
        <time>2020-07-15T17:56:41.144Z</time>
      </trkpt>
      <trkpt lat="61.0035" lon="5.19033">
        <ele>28.259473</ele>
        <time>2020-07-15T17:56:43.897Z</time>
      </trkpt>
      <trkpt lat="61.00372" lon="5.19062">
        <ele>27.57955</ele>
        <time>2020-07-15T17:56:47.480Z</time>
      </trkpt>
      <trkpt lat="61.00394" lon="5.19138">
        <ele>26.184691</ele>
        <time>2020-07-15T17:56:53.297Z</time>
      </trkpt>
      <trkpt lat="61.00394" lon="5.19144">
        <ele>26.06275</ele>
        <time>2020-07-15T17:56:53.604Z</time>
      </trkpt>
      <trkpt lat="61.00396" lon="5.19153">
        <ele>25.859865</ele>
        <time>2020-07-15T17:56:54.144Z</time>
      </trkpt>
      <trkpt lat="61.00408" lon="5.19204">
        <ele>24.63537</ele>
        <time>2020-07-15T17:56:57.693Z</time>
      </trkpt>
      <trkpt lat="61.00412" lon="5.19259">
        <ele>23.45957</ele>
        <time>2020-07-15T17:57:01.000Z</time>
      </trkpt>
      <trkpt lat="61.00418" lon="5.19271">
        <ele>23.105336</ele>
        <time>2020-07-15T17:57:02.068Z</time>
      </trkpt>
      <trkpt lat="61.00421" lon="5.19272">
        <ele>22.972912</ele>
        <time>2020-07-15T17:57:02.445Z</time>
      </trkpt>
      <trkpt lat="61.00422" lon="5.19271">
        <ele>22.89257</ele>
        <time>2020-07-15T17:57:02.647Z</time>
      </trkpt>
      <trkpt lat="61.00451" lon="5.19203">
        <ele>20.96678</ele>
        <time>2020-07-15T17:57:08.371Z</time>
      </trkpt>
      <trkpt lat="61.00477" lon="5.19175">
        <ele>19.688121</ele>
        <time>2020-07-15T17:57:12.245Z</time>
      </trkpt>
      <trkpt lat="61.00482" lon="5.19174">
        <ele>19.478826</ele>
        <time>2020-07-15T17:57:12.802Z</time>
      </trkpt>
      <trkpt lat="61.00493" lon="5.1917">
        <ele>18.967646</ele>
        <time>2020-07-15T17:57:15.347Z</time>
      </trkpt>
      <trkpt lat="61.00495" lon="5.19167">
        <ele>18.929486</ele>
        <time>2020-07-15T17:57:15.750Z</time>
      </trkpt>
      <trkpt lat="61.00499" lon="5.19157">
        <ele>19.065134</ele>
        <time>2020-07-15T17:57:16.628Z</time>
      </trkpt>
      <trkpt lat="61.00507" lon="5.19167">
        <ele>19.258636</ele>
        <time>2020-07-15T17:57:17.762Z</time>
      </trkpt>
      <trkpt lat="61.00536" lon="5.19198">
        <ele>19.944261</ele>
        <time>2020-07-15T17:57:22.585Z</time>
      </trkpt>
      <trkpt lat="61.00567" lon="5.19226">
        <ele>20.635061</ele>
        <time>2020-07-15T17:57:27.521Z</time>
      </trkpt>
      <trkpt lat="61.00572" lon="5.1923">
        <ele>20.764759</ele>
        <time>2020-07-15T17:57:29.280Z</time>
      </trkpt>
      <trkpt lat="61.00578" lon="5.19234">
        <ele>20.897398</ele>
        <time>2020-07-15T17:57:30.223Z</time>
      </trkpt>
      <trkpt lat="61.0058" lon="5.19234">
        <ele>20.927554</ele>
        <time>2020-07-15T17:57:31.543Z</time>
      </trkpt>
      <trkpt lat="61.007" lon="5.19292">
        <ele>26.039164</ele>
        <time>2020-07-15T17:58:15.568Z</time>
      </trkpt>
      <trkpt lat="61.0071" lon="5.19298">
        <ele>26.985853</ele>
        <time>2020-07-15T17:58:20.480Z</time>
      </trkpt>
      <trkpt lat="61.0073" lon="5.19309">
        <ele>28.671131</ele>
        <time>2020-07-15T17:58:31.390Z</time>
      </trkpt>
      <trkpt lat="61.00793" lon="5.19382">
        <ele>34.86843</ele>
        <time>2020-07-15T17:59:07.027Z</time>
      </trkpt>
      <trkpt lat="61.00842" lon="5.19452">
        <ele>38.585924</ele>
        <time>2020-07-15T17:59:35.559Z</time>
      </trkpt>
      <trkpt lat="61.00857" lon="5.19473">
        <ele>39.074562</ele>
        <time>2020-07-15T17:59:44.128Z</time>
      </trkpt>
      <trkpt lat="61.00864" lon="5.19483">
        <ele>39.307103</ele>
        <time>2020-07-15T17:59:46.991Z</time>
      </trkpt>
      <trkpt lat="61.00878" lon="5.195">
        <ele>39.762111</ele>
        <time>2020-07-15T17:59:52.907Z</time>
      </trkpt>
      <trkpt lat="61.00879" lon="5.19498">
        <ele>39.798325</ele>
        <time>2020-07-15T17:59:53.540Z</time>
      </trkpt>
      <trkpt lat="61.00885" lon="5.19475">
        <ele>40.147424</ele>
        <time>2020-07-15T17:59:58.129Z</time>
      </trkpt>
      <trkpt lat="61.00891" lon="5.19452">
        <ele>40.51331</ele>
        <time>2020-07-15T18:00:02.371Z</time>
      </trkpt>
      <trkpt lat="61.00898" lon="5.19428">
        <ele>40.878337</ele>
        <time>2020-07-15T18:00:04.212Z</time>
      </trkpt>
      <trkpt lat="61.00906" lon="5.19399">
        <ele>41.321628</ele>
        <time>2020-07-15T18:00:08.318Z</time>
      </trkpt>
      <trkpt lat="61.00917" lon="5.19349">
        <ele>42.061417</ele>
        <time>2020-07-15T18:00:12.276Z</time>
      </trkpt>
      <trkpt lat="61.00931" lon="5.19262">
        <ele>41.777609</ele>
        <time>2020-07-15T18:00:18.361Z</time>
      </trkpt>
      <trkpt lat="61.00931" lon="5.19178">
        <ele>38.409597</ele>
        <time>2020-07-15T18:00:23.126Z</time>
      </trkpt>
      <trkpt lat="61.00928" lon="5.19157">
        <ele>37.552246</ele>
        <time>2020-07-15T18:00:24.458Z</time>
      </trkpt>
      <trkpt lat="61.00927" lon="5.19146">
        <ele>37.113357</ele>
        <time>2020-07-15T18:00:25.000Z</time>
      </trkpt>
      <trkpt lat="61.00908" lon="5.19065">
        <ele>33.494209</ele>
        <time>2020-07-15T18:00:29.842Z</time>
      </trkpt>
      <trkpt lat="61.00779" lon="5.18738">
        <ele>15.739843</ele>
        <time>2020-07-15T18:00:51.961Z</time>
      </trkpt>
      <trkpt lat="61.00746" lon="5.18617">
        <ele>11.652272</ele>
        <time>2020-07-15T18:01:00.060Z</time>
      </trkpt>
      <trkpt lat="61.00633" lon="5.17894">
        <ele>9.214278</ele>
        <time>2020-07-15T18:02:02.088Z</time>
      </trkpt>
      <trkpt lat="61.00619" lon="5.17731">
        <ele>10.353215</ele>
        <time>2020-07-15T18:02:18.780Z</time>
      </trkpt>
      <trkpt lat="61.00618" lon="5.17709">
        <ele>10.504151</ele>
        <time>2020-07-15T18:02:21.793Z</time>
      </trkpt>
      <trkpt lat="61.00615" lon="5.17668">
        <ele>10.787552</ele>
        <time>2020-07-15T18:02:26.462Z</time>
      </trkpt>
      <trkpt lat="61.00606" lon="5.17605">
        <ele>11.23656</ele>
        <time>2020-07-15T18:02:35.067Z</time>
      </trkpt>
      <trkpt lat="61.0058" lon="5.17535">
        <ele>13.083616</ele>
        <time>2020-07-15T18:02:47.577Z</time>
      </trkpt>
      <trkpt lat="61.00502" lon="5.17468">
        <ele>16.89566</ele>
        <time>2020-07-15T18:03:15.993Z</time>
      </trkpt>
      <trkpt lat="61.00467" lon="5.17413">
        <ele>18.87131</ele>
        <time>2020-07-15T18:03:31.005Z</time>
      </trkpt>
      <trkpt lat="61.00426" lon="5.17328">
        <ele>21.298404</ele>
        <time>2020-07-15T18:03:51.234Z</time>
      </trkpt>
      <trkpt lat="61.00386" lon="5.17273">
        <ele>23.265279</ele>
        <time>2020-07-15T18:04:06.543Z</time>
      </trkpt>
      <trkpt lat="61.00363" lon="5.17255">
        <ele>24.264858</ele>
        <time>2020-07-15T18:04:13.600Z</time>
      </trkpt>
      <trkpt lat="61.00315" lon="5.17237">
        <ele>26.262451</ele>
        <time>2020-07-15T18:04:26.793Z</time>
      </trkpt>
      <trkpt lat="61.00194" lon="5.17226">
        <ele>31.388756</ele>
        <time>2020-07-15T18:05:02.468Z</time>
      </trkpt>
      <trkpt lat="61.00168" lon="5.17216">
        <ele>32.508948</ele>
        <time>2020-07-15T18:05:11.414Z</time>
      </trkpt>
      <trkpt lat="61.00133" lon="5.17183">
        <ele>34.139245</ele>
        <time>2020-07-15T18:05:24.757Z</time>
      </trkpt>
      <trkpt lat="61.0011" lon="5.17146">
        <ele>35.306841</ele>
        <time>2020-07-15T18:05:35.671Z</time>
      </trkpt>
      <trkpt lat="61.00062" lon="5.17022">
        <ele>38.284552</ele>
        <time>2020-07-15T18:06:02.571Z</time>
      </trkpt>
      <trkpt lat="61.00037" lon="5.16974">
        <ele>39.629658</ele>
        <time>2020-07-15T18:06:13.600Z</time>
      </trkpt>
      <trkpt lat="61.00003" lon="5.1695">
        <ele>40.995206</ele>
        <time>2020-07-15T18:06:23.422Z</time>
      </trkpt>
      <trkpt lat="60.99834" lon="5.16928">
        <ele>38.264241</ele>
        <time>2020-07-15T18:06:47.944Z</time>
      </trkpt>
      <trkpt lat="60.99794" lon="5.16914">
        <ele>36.575629</ele>
        <time>2020-07-15T18:06:52.824Z</time>
      </trkpt>
      <trkpt lat="60.99765" lon="5.16888">
        <ele>34.644382</ele>
        <time>2020-07-15T18:06:56.542Z</time>
      </trkpt>
      <trkpt lat="60.99741" lon="5.16855">
        <ele>32.855372</ele>
        <time>2020-07-15T18:06:59.960Z</time>
      </trkpt>
      <trkpt lat="60.99677" lon="5.16729">
        <ele>27.461357</ele>
        <time>2020-07-15T18:07:10.043Z</time>
      </trkpt>
      <trkpt lat="60.9964" lon="5.167">
        <ele>25.62805</ele>
        <time>2020-07-15T18:07:14.558Z</time>
      </trkpt>
      <trkpt lat="60.99584" lon="5.16691">
        <ele>23.352751</ele>
        <time>2020-07-15T18:07:21.106Z</time>
      </trkpt>
      <trkpt lat="60.99494" lon="5.16635">
        <ele>19.526323</ele>
        <time>2020-07-15T18:07:33.355Z</time>
      </trkpt>
      <trkpt lat="60.99222" lon="5.16529">
        <ele>28.797548</ele>
        <time>2020-07-15T18:08:56.693Z</time>
      </trkpt>
      <trkpt lat="60.99038" lon="5.16504">
        <ele>34.000344</ele>
        <time>2020-07-15T18:09:55.951Z</time>
      </trkpt>
      <trkpt lat="60.98964" lon="5.16514">
        <ele>35.295791</ele>
        <time>2020-07-15T18:10:07.839Z</time>
      </trkpt>
      <trkpt lat="60.98838" lon="5.16589">
        <ele>30.840575</ele>
        <time>2020-07-15T18:10:24.292Z</time>
      </trkpt>
      <trkpt lat="60.98677" lon="5.16643">
        <ele>25.628913</ele>
        <time>2020-07-15T18:10:45.091Z</time>
      </trkpt>
      <trkpt lat="60.98599" lon="5.16646">
        <ele>23.417916</ele>
        <time>2020-07-15T18:10:55.938Z</time>
      </trkpt>
      <trkpt lat="60.98537" lon="5.16635">
        <ele>22.68008</ele>
        <time>2020-07-15T18:11:05.002Z</time>
      </trkpt>
      <trkpt lat="60.98296" lon="5.16567">
        <ele>20.207577</ele>
        <time>2020-07-15T18:11:43.879Z</time>
      </trkpt>
      <trkpt lat="60.9816" lon="5.16466">
        <ele>18.18087</ele>
        <time>2020-07-15T18:12:05.688Z</time>
      </trkpt>
      <trkpt lat="60.98089" lon="5.16423">
        <ele>16.967692</ele>
        <time>2020-07-15T18:12:16.113Z</time>
      </trkpt>
      <trkpt lat="60.98" lon="5.16386">
        <ele>14.923378</ele>
        <time>2020-07-15T18:12:28.531Z</time>
      </trkpt>
      <trkpt lat="60.97906" lon="5.16362">
        <ele>12.738857</ele>
        <time>2020-07-15T18:12:41.550Z</time>
      </trkpt>
      <trkpt lat="60.97628" lon="5.16207">
        <ele>6.699875</ele>
        <time>2020-07-15T18:13:21.703Z</time>
      </trkpt>
      <trkpt lat="60.97605" lon="5.16189">
        <ele>6.217625</ele>
        <time>2020-07-15T18:13:25.190Z</time>
      </trkpt>
      <trkpt lat="60.97588" lon="5.16173">
        <ele>5.850811</ele>
        <time>2020-07-15T18:13:27.736Z</time>
      </trkpt>
      <trkpt lat="60.97544" lon="5.16103">
        <ele>5.223297</ele>
        <time>2020-07-15T18:13:36.032Z</time>
      </trkpt>
      <trkpt lat="60.97528" lon="5.16066">
        <ele>5.183189</ele>
        <time>2020-07-15T18:13:39.707Z</time>
      </trkpt>
      <trkpt lat="60.97503" lon="5.15988">
        <ele>5.10865</ele>
        <time>2020-07-15T18:13:47.073Z</time>
      </trkpt>
      <trkpt lat="60.97443" lon="5.15646">
        <ele>5.768296</ele>
        <time>2020-07-15T18:14:23.533Z</time>
      </trkpt>
      <trkpt lat="60.97438" lon="5.15628">
        <ele>5.855819</ele>
        <time>2020-07-15T18:14:26.526Z</time>
      </trkpt>
      <trkpt lat="60.97431" lon="5.15607">
        <ele>5.959405</ele>
        <time>2020-07-15T18:14:28.460Z</time>
      </trkpt>
      <trkpt lat="60.97383" lon="5.15461">
        <ele>6.568604</ele>
        <time>2020-07-15T18:14:45.996Z</time>
      </trkpt>
      <trkpt lat="60.97264" lon="5.14945">
        <ele>7.221136</ele>
        <time>2020-07-15T18:15:36.080Z</time>
      </trkpt>
      <trkpt lat="60.97245" lon="5.14819">
        <ele>7.439833</ele>
        <time>2020-07-15T18:15:48.293Z</time>
      </trkpt>
      <trkpt lat="60.97202" lon="5.14447">
        <ele>10.214607</ele>
        <time>2020-07-15T18:16:30.143Z</time>
      </trkpt>
      <trkpt lat="60.97189" lon="5.14399">
        <ele>10.894296</ele>
        <time>2020-07-15T18:16:37.336Z</time>
      </trkpt>
      <trkpt lat="60.97133" lon="5.1431">
        <ele>12.65372</ele>
        <time>2020-07-15T18:16:56.006Z</time>
      </trkpt>
      <trkpt lat="60.97116" lon="5.14258">
        <ele>13.433436</ele>
        <time>2020-07-15T18:17:04.304Z</time>
      </trkpt>
      <trkpt lat="60.97103" lon="5.14194">
        <ele>14.274182</ele>
        <time>2020-07-15T18:17:13.186Z</time>
      </trkpt>
      <trkpt lat="60.97084" lon="5.14051">
        <ele>15.671472</ele>
        <time>2020-07-15T18:17:31.731Z</time>
      </trkpt>
      <trkpt lat="60.9699" lon="5.13724">
        <ele>18.931878</ele>
        <time>2020-07-15T18:18:13.221Z</time>
      </trkpt>
      <trkpt lat="60.96963" lon="5.13593">
        <ele>20.079173</ele>
        <time>2020-07-15T18:18:29.588Z</time>
      </trkpt>
      <trkpt lat="60.96948" lon="5.13484">
        <ele>20.840705</ele>
        <time>2020-07-15T18:18:43.034Z</time>
      </trkpt>
      <trkpt lat="60.96932" lon="5.13253">
        <ele>20.91509</ele>
        <time>2020-07-15T18:19:06.713Z</time>
      </trkpt>
      <trkpt lat="60.96933" lon="5.13189">
        <ele>20.935423</ele>
        <time>2020-07-15T18:19:11.541Z</time>
      </trkpt>
      <trkpt lat="60.9695" lon="5.13108">
        <ele>20.371031</ele>
        <time>2020-07-15T18:19:17.665Z</time>
      </trkpt>
      <trkpt lat="60.97043" lon="5.12827">
        <ele>14.678397</ele>
        <time>2020-07-15T18:19:38.046Z</time>
      </trkpt>
      <trkpt lat="60.97076" lon="5.12517">
        <ele>14.456101</ele>
        <time>2020-07-15T18:20:03.752Z</time>
      </trkpt>
      <trkpt lat="60.97077" lon="5.12508">
        <ele>14.450048</ele>
        <time>2020-07-15T18:20:05.402Z</time>
      </trkpt>
      <trkpt lat="60.97077" lon="5.12486">
        <ele>14.434578</ele>
        <time>2020-07-15T18:20:08.846Z</time>
      </trkpt>
      <trkpt lat="60.97076" lon="5.12296">
        <ele>16.477063</ele>
        <time>2020-07-15T18:20:34.055Z</time>
      </trkpt>
      <trkpt lat="60.97075" lon="5.12088">
        <ele>18.785894</ele>
        <time>2020-07-15T18:21:03.137Z</time>
      </trkpt>
      <trkpt lat="60.97073" lon="5.11855">
        <ele>16.710383</ele>
        <time>2020-07-15T18:21:19.757Z</time>
      </trkpt>
      <trkpt lat="60.97073" lon="5.11708">
        <ele>15.186186</ele>
        <time>2020-07-15T18:21:28.736Z</time>
      </trkpt>
      <trkpt lat="60.97075" lon="5.11662">
        <ele>14.207432</ele>
        <time>2020-07-15T18:21:31.603Z</time>
      </trkpt>
      <trkpt lat="60.97075" lon="5.11651">
        <ele>13.974319</ele>
        <time>2020-07-15T18:21:32.190Z</time>
      </trkpt>
      <trkpt lat="60.97094" lon="5.11458">
        <ele>9.854348</ele>
        <time>2020-07-15T18:21:43.791Z</time>
      </trkpt>
      <trkpt lat="60.97126" lon="5.11292">
        <ele>7.742677</ele>
        <time>2020-07-15T18:21:54.966Z</time>
      </trkpt>
      <trkpt lat="60.9713" lon="5.11269">
        <ele>7.727174</ele>
        <time>2020-07-15T18:21:56.474Z</time>
      </trkpt>
      <trkpt lat="60.97137" lon="5.11218">
        <ele>7.694126</ele>
        <time>2020-07-15T18:22:00.539Z</time>
      </trkpt>
      <trkpt lat="60.97189" lon="5.1001">
        <ele>7.604365</ele>
        <time>2020-07-15T18:23:51.836Z</time>
      </trkpt>
      <trkpt lat="60.97213" lon="5.09892">
        <ele>7.938088</ele>
        <time>2020-07-15T18:24:03.696Z</time>
      </trkpt>
      <trkpt lat="60.97234" lon="5.09825">
        <ele>8.543632</ele>
        <time>2020-07-15T18:24:11.709Z</time>
      </trkpt>
      <trkpt lat="60.97274" lon="5.0973">
        <ele>9.470588</ele>
        <time>2020-07-15T18:24:24.275Z</time>
      </trkpt>
      <trkpt lat="60.97287" lon="5.09702">
        <ele>9.767088</ele>
        <time>2020-07-15T18:24:28.546Z</time>
      </trkpt>
      <trkpt lat="60.97301" lon="5.09677">
        <ele>10.052015</ele>
        <time>2020-07-15T18:24:33.250Z</time>
      </trkpt>
      <trkpt lat="60.97361" lon="5.09582">
        <ele>12.16977</ele>
        <time>2020-07-15T18:24:54.332Z</time>
      </trkpt>
      <trkpt lat="60.97393" lon="5.09544">
        <ele>13.626781</ele>
        <time>2020-07-15T18:25:05.762Z</time>
      </trkpt>
      <trkpt lat="60.97416" lon="5.09521">
        <ele>14.643294</ele>
        <time>2020-07-15T18:25:13.828Z</time>
      </trkpt>
      <trkpt lat="60.97429" lon="5.09507">
        <ele>15.219034</ele>
        <time>2020-07-15T18:25:18.848Z</time>
      </trkpt>
      <trkpt lat="60.97518" lon="5.09448">
        <ele>18.091144</ele>
        <time>2020-07-15T18:25:49.067Z</time>
      </trkpt>
      <trkpt lat="60.97606" lon="5.09429">
        <ele>19.347876</ele>
        <time>2020-07-15T18:26:11.988Z</time>
      </trkpt>
      <trkpt lat="60.97645" lon="5.09427">
        <ele>19.890251</ele>
        <time>2020-07-15T18:26:18.007Z</time>
      </trkpt>
      <trkpt lat="60.97756" lon="5.09421">
        <ele>16.968612</ele>
        <time>2020-07-15T18:26:32.711Z</time>
      </trkpt>
      <trkpt lat="60.97798" lon="5.09422">
        <ele>15.443043</ele>
        <time>2020-07-15T18:26:37.836Z</time>
      </trkpt>
      <trkpt lat="60.97996" lon="5.09461">
        <ele>8.122378</ele>
        <time>2020-07-15T18:27:02.553Z</time>
      </trkpt>
      <trkpt lat="60.98073" lon="5.09478">
        <ele>6.396711</ele>
        <time>2020-07-15T18:27:13.634Z</time>
      </trkpt>
      <trkpt lat="60.98096" lon="5.09484">
        <ele>6.084357</ele>
        <time>2020-07-15T18:27:17.184Z</time>
      </trkpt>
      <trkpt lat="60.98149" lon="5.09485">
        <ele>5.399621</ele>
        <time>2020-07-15T18:27:25.157Z</time>
      </trkpt>
      <trkpt lat="60.98201" lon="5.09452">
        <ele>4.680473</ele>
        <time>2020-07-15T18:27:34.020Z</time>
      </trkpt>
      <trkpt lat="60.98218" lon="5.09433">
        <ele>4.577335</ele>
        <time>2020-07-15T18:27:37.123Z</time>
      </trkpt>
      <trkpt lat="60.98229" lon="5.09416">
        <ele>4.50361</ele>
        <time>2020-07-15T18:27:39.619Z</time>
      </trkpt>
      <trkpt lat="60.98266" lon="5.09345">
        <ele>4.245297</ele>
        <time>2020-07-15T18:27:47.995Z</time>
      </trkpt>
      <trkpt lat="60.9832" lon="5.09182">
        <ele>3.758275</ele>
        <time>2020-07-15T18:28:03.999Z</time>
      </trkpt>
      <trkpt lat="60.98331" lon="5.09134">
        <ele>3.695668</ele>
        <time>2020-07-15T18:28:08.113Z</time>
      </trkpt>
      <trkpt lat="60.98335" lon="5.09115">
        <ele>3.67286</ele>
        <time>2020-07-15T18:28:09.693Z</time>
      </trkpt>
      <trkpt lat="60.98355" lon="5.08975">
        <ele>3.509814</ele>
        <time>2020-07-15T18:28:20.539Z</time>
      </trkpt>
      <trkpt lat="60.98361" lon="5.08904">
        <ele>3.429582</ele>
        <time>2020-07-15T18:28:26.048Z</time>
      </trkpt>
      <trkpt lat="60.98366" lon="5.08801">
        <ele>3.596606</ele>
        <time>2020-07-15T18:28:36.104Z</time>
      </trkpt>
      <trkpt lat="60.98373" lon="5.08702">
        <ele>4.762561</ele>
        <time>2020-07-15T18:28:49.725Z</time>
      </trkpt>
      <trkpt lat="60.98375" lon="5.08676">
        <ele>5.069752</ele>
        <time>2020-07-15T18:28:53.073Z</time>
      </trkpt>
      <trkpt lat="60.98378" lon="5.08641">
        <ele>5.478634</ele>
        <time>2020-07-15T18:28:58.940Z</time>
      </trkpt>
      <trkpt lat="60.98381" lon="5.08588">
        <ele>6.098246</ele>
        <time>2020-07-15T18:29:04.342Z</time>
      </trkpt>
      <trkpt lat="60.98389" lon="5.08468">
        <ele>7.50996</ele>
        <time>2020-07-15T18:29:20.550Z</time>
      </trkpt>
      <trkpt lat="60.98388" lon="5.08427">
        <ele>7.700932</ele>
        <time>2020-07-15T18:29:25.019Z</time>
      </trkpt>
      <trkpt lat="60.98387" lon="5.08424">
        <ele>7.706027</ele>
        <time>2020-07-15T18:29:26.457Z</time>
      </trkpt>
      <trkpt lat="60.98382" lon="5.08414">
        <ele>7.728422</ele>
        <time>2020-07-15T18:29:27.365Z</time>
      </trkpt>
      <trkpt lat="60.98365" lon="5.08401">
        <ele>7.792285</ele>
        <time>2020-07-15T18:29:31.612Z</time>
      </trkpt>
      <trkpt lat="60.98341" lon="5.08399">
        <ele>7.873254</ele>
        <time>2020-07-15T18:29:38.136Z</time>
      </trkpt>
      <trkpt lat="60.98229" lon="5.08417">
        <ele>8.255945</ele>
        <time>2020-07-15T18:29:56.839Z</time>
      </trkpt>
      <trkpt lat="60.98179" lon="5.08416">
        <ele>7.294474</ele>
        <time>2020-07-15T18:30:03.408Z</time>
      </trkpt>
      <trkpt lat="60.98174" lon="5.08415">
        <ele>7.199441</ele>
        <time>2020-07-15T18:30:03.939Z</time>
      </trkpt>
      <trkpt lat="60.98131" lon="5.08404">
        <ele>6.295746</ele>
        <time>2020-07-15T18:30:09.956Z</time>
      </trkpt>
      <trkpt lat="60.98059" lon="5.08385">
        <ele>4.816187</ele>
        <time>2020-07-15T18:30:20.138Z</time>
      </trkpt>
      <trkpt lat="60.98034" lon="5.08348">
        <ele>4.416255</ele>
        <time>2020-07-15T18:30:24.606Z</time>
      </trkpt>
      <trkpt lat="60.98015" lon="5.083">
        <ele>4.175174</ele>
        <time>2020-07-15T18:30:29.335Z</time>
      </trkpt>
      <trkpt lat="60.98001" lon="5.08255">
        <ele>3.962618</ele>
        <time>2020-07-15T18:30:33.567Z</time>
      </trkpt>
      <trkpt lat="60.97999" lon="5.08247">
        <ele>3.929452</ele>
        <time>2020-07-15T18:30:34.206Z</time>
      </trkpt>
      <trkpt lat="60.97991" lon="5.08208">
        <ele>3.760213</ele>
        <time>2020-07-15T18:30:37.658Z</time>
      </trkpt>
      <trkpt lat="60.97987" lon="5.08183">
        <ele>3.659056</ele>
        <time>2020-07-15T18:30:39.759Z</time>
      </trkpt>
      <trkpt lat="60.97981" lon="5.08101">
        <ele>3.332077</ele>
        <time>2020-07-15T18:30:46.528Z</time>
      </trkpt>
      <trkpt lat="60.9798" lon="5.08085">
        <ele>3.267074</ele>
        <time>2020-07-15T18:30:47.832Z</time>
      </trkpt>
      <trkpt lat="60.9798" lon="5.08018">
        <ele>3.095524</ele>
        <time>2020-07-15T18:30:53.093Z</time>
      </trkpt>
      <trkpt lat="60.97982" lon="5.07988">
        <ele>3.076943</ele>
        <time>2020-07-15T18:30:55.426Z</time>
      </trkpt>
      <trkpt lat="60.97983" lon="5.07976">
        <ele>3.069293</ele>
        <time>2020-07-15T18:30:56.339Z</time>
      </trkpt>
      <trkpt lat="60.97986" lon="5.07954">
        <ele>3.054483</ele>
        <time>2020-07-15T18:30:58.210Z</time>
      </trkpt>
      <trkpt lat="60.97994" lon="5.07897">
        <ele>3.016963</ele>
        <time>2020-07-15T18:31:02.807Z</time>
      </trkpt>
      <trkpt lat="60.97998" lon="5.07862">
        <ele>2.994817</ele>
        <time>2020-07-15T18:31:05.726Z</time>
      </trkpt>
      <trkpt lat="60.98001" lon="5.07835">
        <ele>2.977119</ele>
        <time>2020-07-15T18:31:07.915Z</time>
      </trkpt>
      <trkpt lat="60.98003" lon="5.07805">
        <ele>2.958312</ele>
        <time>2020-07-15T18:31:10.417Z</time>
      </trkpt>
      <trkpt lat="60.98006" lon="5.07777">
        <ele>2.940234</ele>
        <time>2020-07-15T18:31:12.736Z</time>
      </trkpt>
      <trkpt lat="60.9801" lon="5.07751">
        <ele>2.92284</ele>
        <time>2020-07-15T18:31:14.911Z</time>
      </trkpt>
      <trkpt lat="60.98034" lon="5.07632">
        <ele>3.463325</ele>
        <time>2020-07-15T18:31:28.730Z</time>
      </trkpt>
      <trkpt lat="60.98055" lon="5.07499">
        <ele>4.802733</ele>
        <time>2020-07-15T18:31:43.380Z</time>
      </trkpt>
      <trkpt lat="60.98073" lon="5.07482">
        <ele>5.18056</ele>
        <time>2020-07-15T18:31:48.095Z</time>
      </trkpt>
      <trkpt lat="60.98082" lon="5.07484">
        <ele>5.359348</ele>
        <time>2020-07-15T18:31:49.934Z</time>
      </trkpt>
      <trkpt lat="60.98085" lon="5.07486">
        <ele>5.428841</ele>
        <time>2020-07-15T18:31:50.949Z</time>
      </trkpt>
      <trkpt lat="60.98091" lon="5.07489">
        <ele>5.546575</ele>
        <time>2020-07-15T18:31:53.114Z</time>
      </trkpt>
      <trkpt lat="60.98121" lon="5.07507">
        <ele>6.156727</ele>
        <time>2020-07-15T18:32:00.905Z</time>
      </trkpt>
      <trkpt lat="60.9813" lon="5.07508">
        <ele>6.346226</ele>
        <time>2020-07-15T18:32:04.072Z</time>
      </trkpt>
      <trkpt lat="60.98132" lon="5.07503">
        <ele>6.401472</ele>
        <time>2020-07-15T18:32:04.707Z</time>
      </trkpt>
      <trkpt lat="60.98135" lon="5.07485">
        <ele>6.765637</ele>
        <time>2020-07-15T18:32:07.268Z</time>
      </trkpt>
      <trkpt lat="60.98138" lon="5.07402">
        <ele>8.495694</ele>
        <time>2020-07-15T18:32:19.996Z</time>
      </trkpt>
      <trkpt lat="60.98142" lon="5.07359">
        <ele>9.389838</ele>
        <time>2020-07-15T18:32:27.084Z</time>
      </trkpt>
      <trkpt lat="60.98144" lon="5.07334">
        <ele>9.913609</ele>
        <time>2020-07-15T18:32:31.514Z</time>
      </trkpt>
      <trkpt lat="60.9816" lon="5.07215">
        <ele>12.475082</ele>
        <time>2020-07-15T18:32:51.055Z</time>
      </trkpt>
      <trkpt lat="60.98161" lon="5.07155">
        <ele>13.714262</ele>
        <time>2020-07-15T18:32:59.950Z</time>
      </trkpt>
      <trkpt lat="60.98158" lon="5.07119">
        <ele>14.304496</ele>
        <time>2020-07-15T18:33:06.302Z</time>
      </trkpt>
      <trkpt lat="60.98158" lon="5.0711">
        <ele>14.406997</ele>
        <time>2020-07-15T18:33:07.526Z</time>
      </trkpt>
      <trkpt lat="60.98156" lon="5.07104">
        <ele>14.47928</ele>
        <time>2020-07-15T18:33:08.382Z</time>
      </trkpt>
      <trkpt lat="60.98151" lon="5.07083">
        <ele>14.737207</ele>
        <time>2020-07-15T18:33:11.285Z</time>
      </trkpt>
      <trkpt lat="60.98146" lon="5.07054">
        <ele>15.080581</ele>
        <time>2020-07-15T18:33:16.603Z</time>
      </trkpt>
      <trkpt lat="60.98137" lon="5.07016">
        <ele>15.557339</ele>
        <time>2020-07-15T18:33:22.370Z</time>
      </trkpt>
      <trkpt lat="60.98132" lon="5.06999">
        <ele>15.784849</ele>
        <time>2020-07-15T18:33:25.336Z</time>
      </trkpt>
      <trkpt lat="60.9812" lon="5.06947">
        <ele>16.420359</ele>
        <time>2020-07-15T18:33:32.752Z</time>
      </trkpt>
      <trkpt lat="60.98117" lon="5.06928">
        <ele>16.642705</ele>
        <time>2020-07-15T18:33:35.524Z</time>
      </trkpt>
      <trkpt lat="60.98115" lon="5.06919">
        <ele>16.75836</ele>
        <time>2020-07-15T18:33:37.101Z</time>
      </trkpt>
      <trkpt lat="60.98107" lon="5.06802">
        <ele>18.077147</ele>
        <time>2020-07-15T18:33:49.705Z</time>
      </trkpt>
      <trkpt lat="60.98106" lon="5.06792">
        <ele>18.188405</ele>
        <time>2020-07-15T18:33:50.386Z</time>
      </trkpt>
      <trkpt lat="60.98103" lon="5.06763">
        <ele>18.021736</ele>
        <time>2020-07-15T18:33:52.340Z</time>
      </trkpt>
      <trkpt lat="60.98094" lon="5.06635">
        <ele>16.892571</ele>
        <time>2020-07-15T18:34:01.015Z</time>
      </trkpt>
      <trkpt lat="60.98096" lon="5.06617">
        <ele>16.735479</ele>
        <time>2020-07-15T18:34:02.560Z</time>
      </trkpt>
      <trkpt lat="60.98108" lon="5.06592">
        <ele>16.441621</ele>
        <time>2020-07-15T18:34:05.147Z</time>
      </trkpt>
      <trkpt lat="60.98108" lon="5.06586">
        <ele>16.388493</ele>
        <time>2020-07-15T18:34:05.604Z</time>
      </trkpt>
      <trkpt lat="60.98105" lon="5.06574">
        <ele>16.277181</ele>
        <time>2020-07-15T18:34:06.296Z</time>
      </trkpt>
      <trkpt lat="60.9809" lon="5.06514">
        <ele>15.679348</ele>
        <time>2020-07-15T18:34:11.048Z</time>
      </trkpt>
      <trkpt lat="60.98082" lon="5.06454">
        <ele>15.144494</ele>
        <time>2020-07-15T18:34:15.366Z</time>
      </trkpt>
      <trkpt lat="60.98075" lon="5.06367">
        <ele>14.680406</ele>
        <time>2020-07-15T18:34:20.931Z</time>
      </trkpt>
      <trkpt lat="60.98072" lon="5.06328">
        <ele>14.498547</ele>
        <time>2020-07-15T18:34:23.917Z</time>
      </trkpt>
      <trkpt lat="60.98017" lon="5.05519">
        <ele>10.803706</ele>
        <time>2020-07-15T18:35:27.690Z</time>
      </trkpt>
      <trkpt lat="60.97991" lon="5.04802">
        <ele>7.102347</ele>
        <time>2020-07-15T18:36:21.120Z</time>
      </trkpt>
      <trkpt lat="60.97962" lon="5.04489">
        <ele>6.138431</ele>
        <time>2020-07-15T18:36:44.666Z</time>
      </trkpt>
      <trkpt lat="60.97966" lon="5.04386">
        <ele>6.268666</ele>
        <time>2020-07-15T18:36:54.299Z</time>
      </trkpt>
      <trkpt lat="60.97977" lon="5.04323">
        <ele>6.352925</ele>
        <time>2020-07-15T18:37:01.810Z</time>
      </trkpt>
      <trkpt lat="60.98003" lon="5.04272">
        <ele>6.446574</ele>
        <time>2020-07-15T18:37:09.392Z</time>
      </trkpt>
      <trkpt lat="60.98025" lon="5.04258">
        <ele>6.489849</ele>
        <time>2020-07-15T18:37:14.935Z</time>
      </trkpt>
      <trkpt lat="60.98049" lon="5.04259">
        <ele>6.530364</ele>
        <time>2020-07-15T18:37:18.937Z</time>
      </trkpt>
      <trkpt lat="60.98061" lon="5.04264">
        <ele>6.551167</ele>
        <time>2020-07-15T18:37:22.333Z</time>
      </trkpt>
      <trkpt lat="60.9808" lon="5.04275">
        <ele>6.584176</ele>
        <time>2020-07-15T18:37:25.380Z</time>
      </trkpt>
      <trkpt lat="60.98097" lon="5.04283">
        <ele>6.613943</ele>
        <time>2020-07-15T18:37:29.584Z</time>
      </trkpt>
      <trkpt lat="60.98125" lon="5.04291">
        <ele>6.660467</ele>
        <time>2020-07-15T18:37:34.273Z</time>
      </trkpt>
      <trkpt lat="60.98127" lon="5.0429">
        <ele>6.665128</ele>
        <time>2020-07-15T18:37:35.407Z</time>
      </trkpt>
      <trkpt lat="60.98142" lon="5.04285">
        <ele>6.689728</ele>
        <time>2020-07-15T18:37:37.443Z</time>
      </trkpt>
      <trkpt lat="60.98172" lon="5.04263">
        <ele>6.743828</ele>
        <time>2020-07-15T18:37:43.287Z</time>
      </trkpt>
      <trkpt lat="60.98251" lon="5.0416">
        <ele>5.725288</ele>
        <time>2020-07-15T18:37:57.327Z</time>
      </trkpt>
      <trkpt lat="60.98276" lon="5.04137">
        <ele>5.374513</ele>
        <time>2020-07-15T18:38:01.024Z</time>
      </trkpt>
      <trkpt lat="60.98299" lon="5.04125">
        <ele>5.071036</ele>
        <time>2020-07-15T18:38:04.490Z</time>
      </trkpt>
      <trkpt lat="60.98364" lon="5.04128">
        <ele>4.387856</ele>
        <time>2020-07-15T18:38:14.518Z</time>
      </trkpt>
      <trkpt lat="60.98394" lon="5.04116">
        <ele>4.256385</ele>
        <time>2020-07-15T18:38:19.532Z</time>
      </trkpt>
      <trkpt lat="60.98444" lon="5.04054">
        <ele>4.00882</ele>
        <time>2020-07-15T18:38:29.379Z</time>
      </trkpt>
      <trkpt lat="60.98505" lon="5.03904">
        <ele>3.778565</ele>
        <time>2020-07-15T18:38:45.695Z</time>
      </trkpt>
      <trkpt lat="60.98558" lon="5.0384">
        <ele>4.015685</ele>
        <time>2020-07-15T18:38:56.875Z</time>
      </trkpt>
      <trkpt lat="60.98571" lon="5.03828">
        <ele>4.071266</ele>
        <time>2020-07-15T18:38:59.996Z</time>
      </trkpt>
      <trkpt lat="60.98583" lon="5.03814">
        <ele>4.124452</ele>
        <time>2020-07-15T18:39:02.176Z</time>
      </trkpt>
      <trkpt lat="60.98624" lon="5.03738">
        <ele>4.336428</ele>
        <time>2020-07-15T18:39:13.888Z</time>
      </trkpt>
      <trkpt lat="60.98639" lon="5.03718">
        <ele>4.44785</ele>
        <time>2020-07-15T18:39:16.776Z</time>
      </trkpt>
      <trkpt lat="60.9864" lon="5.03716">
        <ele>4.474335</ele>
        <time>2020-07-15T18:39:17.610Z</time>
      </trkpt>
      <trkpt lat="60.98678" lon="5.03698">
        <ele>5.04635</ele>
        <time>2020-07-15T18:39:25.549Z</time>
      </trkpt>
      <trkpt lat="60.98692" lon="5.03698">
        <ele>5.259341</ele>
        <time>2020-07-15T18:39:28.853Z</time>
      </trkpt>
      <trkpt lat="60.98696" lon="5.03698">
        <ele>5.314449</ele>
        <time>2020-07-15T18:39:29.632Z</time>
      </trkpt>
      <trkpt lat="60.98731" lon="5.03689">
        <ele>5.846241</ele>
        <time>2020-07-15T18:39:37.540Z</time>
      </trkpt>
      <trkpt lat="60.98794" lon="5.03619">
        <ele>6.910489</ele>
        <time>2020-07-15T18:39:54.746Z</time>
      </trkpt>
      <trkpt lat="60.9883" lon="5.03613">
        <ele>7.422873</ele>
        <time>2020-07-15T18:40:03.420Z</time>
      </trkpt>
      <trkpt lat="60.98909" lon="5.03637">
        <ele>8.558032</ele>
        <time>2020-07-15T18:40:21.915Z</time>
      </trkpt>
      <trkpt lat="60.98975" lon="5.03733">
        <ele>9.642545</ele>
        <time>2020-07-15T18:40:39.310Z</time>
      </trkpt>
      <trkpt lat="60.98991" lon="5.03747">
        <ele>9.749696</ele>
        <time>2020-07-15T18:40:42.869Z</time>
      </trkpt>
      <trkpt lat="60.99011" lon="5.03745">
        <ele>9.866152</ele>
        <time>2020-07-15T18:40:46.765Z</time>
      </trkpt>
      <trkpt lat="60.99017" lon="5.03743">
        <ele>9.907797</ele>
        <time>2020-07-15T18:40:48.038Z</time>
      </trkpt>
      <trkpt lat="60.99028" lon="5.03739">
        <ele>9.971308</ele>
        <time>2020-07-15T18:40:50.071Z</time>
      </trkpt>
      <trkpt lat="60.99035" lon="5.03733">
        <ele>10.016349</ele>
        <time>2020-07-15T18:40:51.179Z</time>
      </trkpt>
      <trkpt lat="60.99074" lon="5.03711">
        <ele>10.259744</ele>
        <time>2020-07-15T18:40:58.973Z</time>
      </trkpt>
      <trkpt lat="60.99099" lon="5.03716">
        <ele>10.410868</ele>
        <time>2020-07-15T18:41:03.735Z</time>
      </trkpt>
      <trkpt lat="60.99118" lon="5.03734">
        <ele>10.536722</ele>
        <time>2020-07-15T18:41:07.659Z</time>
      </trkpt>
      <trkpt lat="60.99162" lon="5.03837">
        <ele>11.332587</ele>
        <time>2020-07-15T18:41:21.776Z</time>
      </trkpt>
      <trkpt lat="60.99177" lon="5.03851">
        <ele>11.589594</ele>
        <time>2020-07-15T18:41:25.293Z</time>
      </trkpt>
      <trkpt lat="60.9924" lon="5.03875">
        <ele>12.582553</ele>
        <time>2020-07-15T18:41:40.260Z</time>
      </trkpt>
      <trkpt lat="60.9925" lon="5.03879">
        <ele>12.744364</ele>
        <time>2020-07-15T18:41:42.822Z</time>
      </trkpt>
      <trkpt lat="60.99263" lon="5.03884">
        <ele>12.942316</ele>
        <time>2020-07-15T18:41:46.194Z</time>
      </trkpt>
      <trkpt lat="60.99274" lon="5.03886">
        <ele>13.108253</ele>
        <time>2020-07-15T18:41:48.265Z</time>
      </trkpt>
      <trkpt lat="60.99292" lon="5.03884">
        <ele>13.38509</ele>
        <time>2020-07-15T18:41:52.564Z</time>
      </trkpt>
      <trkpt lat="60.99303" lon="5.0388">
        <ele>13.616155</ele>
        <time>2020-07-15T18:41:55.418Z</time>
      </trkpt>
      <trkpt lat="60.99335" lon="5.03848">
        <ele>14.476464</ele>
        <time>2020-07-15T18:42:04.233Z</time>
      </trkpt>
      <trkpt lat="60.99418" lon="5.03703">
        <ele>17.079645</ele>
        <time>2020-07-15T18:42:31.614Z</time>
      </trkpt>
      <trkpt lat="60.99435" lon="5.03688">
        <ele>17.52718</ele>
        <time>2020-07-15T18:42:35.847Z</time>
      </trkpt>
      <trkpt lat="60.99454" lon="5.03685">
        <ele>18.386476</ele>
        <time>2020-07-15T18:42:40.429Z</time>
      </trkpt>
      <trkpt lat="60.99475" lon="5.03698">
        <ele>19.905404</ele>
        <time>2020-07-15T18:42:46.233Z</time>
      </trkpt>
      <trkpt lat="60.99488" lon="5.03721">
        <ele>21.102416</ele>
        <time>2020-07-15T18:42:52.426Z</time>
      </trkpt>
      <trkpt lat="60.99535" lon="5.03862">
        <ele>26.944917</ele>
        <time>2020-07-15T18:43:26.624Z</time>
      </trkpt>
      <trkpt lat="60.99559" lon="5.03889">
        <ele>28.844842</ele>
        <time>2020-07-15T18:43:41.861Z</time>
      </trkpt>
      <trkpt lat="60.99587" lon="5.0389">
        <ele>30.74861</ele>
        <time>2020-07-15T18:43:55.176Z</time>
      </trkpt>
      <trkpt lat="60.99594" lon="5.03886">
        <ele>31.239025</ele>
        <time>2020-07-15T18:44:00.755Z</time>
      </trkpt>
      <trkpt lat="60.99615" lon="5.03873">
        <ele>32.611919</ele>
        <time>2020-07-15T18:44:10.483Z</time>
      </trkpt>
      <trkpt lat="60.99655" lon="5.03853">
        <ele>35.251748</ele>
        <time>2020-07-15T18:44:29.974Z</time>
      </trkpt>
      <trkpt lat="60.99681" lon="5.03852">
        <ele>36.863377</ele>
        <time>2020-07-15T18:44:40.879Z</time>
      </trkpt>
      <trkpt lat="60.99699" lon="5.03856">
        <ele>38.061357</ele>
        <time>2020-07-15T18:44:49.752Z</time>
      </trkpt>
      <trkpt lat="60.99721" lon="5.03864">
        <ele>39.457385</ele>
        <time>2020-07-15T18:44:56.291Z</time>
      </trkpt>
      <trkpt lat="60.99783" lon="5.03887">
        <ele>40.141357</ele>
        <time>2020-07-15T18:45:09.941Z</time>
      </trkpt>
      <trkpt lat="60.99826" lon="5.03862">
        <ele>37.287471</ele>
        <time>2020-07-15T18:45:15.675Z</time>
      </trkpt>
      <trkpt lat="60.99929" lon="5.03743">
        <ele>29.455546</ele>
        <time>2020-07-15T18:45:28.516Z</time>
      </trkpt>
      <trkpt lat="61.00031" lon="5.03539">
        <ele>16.473796</ele>
        <time>2020-07-15T18:45:43.931Z</time>
      </trkpt>
      <trkpt lat="61.0006" lon="5.03483">
        <ele>13.618989</ele>
        <time>2020-07-15T18:45:48.556Z</time>
      </trkpt>
      <trkpt lat="61.00067" lon="5.03467">
        <ele>13.39474</ele>
        <time>2020-07-15T18:45:50.057Z</time>
      </trkpt>
      <trkpt lat="61.00103" lon="5.03422">
        <ele>12.53237</ele>
        <time>2020-07-15T18:45:55.601Z</time>
      </trkpt>
      <trkpt lat="61.00127" lon="5.03407">
        <ele>12.010874</ele>
        <time>2020-07-15T18:45:59.066Z</time>
      </trkpt>
      <trkpt lat="61.0013" lon="5.03405">
        <ele>11.935204</ele>
        <time>2020-07-15T18:46:00.215Z</time>
      </trkpt>
      <trkpt lat="61.00139" lon="5.03402">
        <ele>11.760736</ele>
        <time>2020-07-15T18:46:01.412Z</time>
      </trkpt>
      <trkpt lat="61.00176" lon="5.03402">
        <ele>10.984292</ele>
        <time>2020-07-15T18:46:07.554Z</time>
      </trkpt>
      <trkpt lat="61.00208" lon="5.03421">
        <ele>10.294282</ele>
        <time>2020-07-15T18:46:14.098Z</time>
      </trkpt>
      <trkpt lat="61.00219" lon="5.03432">
        <ele>10.055203</ele>
        <time>2020-07-15T18:46:16.387Z</time>
      </trkpt>
      <trkpt lat="61.00234" lon="5.03448">
        <ele>9.769438</ele>
        <time>2020-07-15T18:46:19.875Z</time>
      </trkpt>
      <trkpt lat="61.00269" lon="5.03471">
        <ele>9.145551</ele>
        <time>2020-07-15T18:46:26.230Z</time>
      </trkpt>
      <trkpt lat="61.00288" lon="5.0347">
        <ele>8.83421</ele>
        <time>2020-07-15T18:46:29.025Z</time>
      </trkpt>
      <trkpt lat="61.00308" lon="5.03452">
        <ele>8.468023</ele>
        <time>2020-07-15T18:46:32.081Z</time>
      </trkpt>
      <trkpt lat="61.00329" lon="5.03408">
        <ele>7.963371</ele>
        <time>2020-07-15T18:46:36.211Z</time>
      </trkpt>
      <trkpt lat="61.00376" lon="5.03247">
        <ele>6.071553</ele>
        <time>2020-07-15T18:46:48.024Z</time>
      </trkpt>
      <trkpt lat="61.00404" lon="5.03202">
        <ele>5.148311</ele>
        <time>2020-07-15T18:46:52.657Z</time>
      </trkpt>
      <trkpt lat="61.00422" lon="5.03195">
        <ele>4.680327</ele>
        <time>2020-07-15T18:46:55.026Z</time>
      </trkpt>
      <trkpt lat="61.00449" lon="5.03205">
        <ele>3.954345</ele>
        <time>2020-07-15T18:46:58.789Z</time>
      </trkpt>
      <trkpt lat="61.00483" lon="5.03235">
        <ele>3.008764</ele>
        <time>2020-07-15T18:47:03.859Z</time>
      </trkpt>
      <trkpt lat="61.00538" lon="5.03253">
        <ele>2.849476</ele>
        <time>2020-07-15T18:47:12.171Z</time>
      </trkpt>
      <trkpt lat="61.00556" lon="5.03275">
        <ele>3.134378</ele>
        <time>2020-07-15T18:47:15.558Z</time>
      </trkpt>
      <trkpt lat="61.00598" lon="5.03366">
        <ele>3.972339</ele>
        <time>2020-07-15T18:47:27.310Z</time>
      </trkpt>
      <trkpt lat="61.00617" lon="5.03383">
        <ele>4.25605</ele>
        <time>2020-07-15T18:47:31.653Z</time>
      </trkpt>
      <trkpt lat="61.00656" lon="5.0339">
        <ele>4.798389</ele>
        <time>2020-07-15T18:47:40.255Z</time>
      </trkpt>
      <trkpt lat="61.00691" lon="5.03384">
        <ele>8.440708</ele>
        <time>2020-07-15T18:47:56.231Z</time>
      </trkpt>
      <trkpt lat="61.00798" lon="5.03327">
        <ele>21.469043</ele>
        <time>2020-07-15T18:48:58.463Z</time>
      </trkpt>
      <trkpt lat="61.00815" lon="5.03319">
        <ele>23.605429</ele>
        <time>2020-07-15T18:49:08.500Z</time>
      </trkpt>
      <trkpt lat="61.00827" lon="5.03315">
        <ele>24.939245</ele>
        <time>2020-07-15T18:49:18.831Z</time>
      </trkpt>
      <trkpt lat="61.00899" lon="5.03312">
        <ele>34.06369</ele>
        <time>2020-07-15T18:50:13.921Z</time>
      </trkpt>
      <trkpt lat="61.0097" lon="5.0328">
        <ele>43.292644</ele>
        <time>2020-07-15T18:51:01.011Z</time>
      </trkpt>
      <trkpt lat="61.00993" lon="5.0327">
        <ele>46.290509</ele>
        <time>2020-07-15T18:51:11.803Z</time>
      </trkpt>
      <trkpt lat="61.01023" lon="5.0326">
        <ele>49.075278</ele>
        <time>2020-07-15T18:51:21.101Z</time>
      </trkpt>
      <trkpt lat="61.01053" lon="5.03237">
        <ele>48.861722</ele>
        <time>2020-07-15T18:51:29.011Z</time>
      </trkpt>
      <trkpt lat="61.01092" lon="5.03156">
        <ele>48.49968</ele>
        <time>2020-07-15T18:51:37.767Z</time>
      </trkpt>
      <trkpt lat="61.01121" lon="5.03118">
        <ele>48.272784</ele>
        <time>2020-07-15T18:51:42.489Z</time>
      </trkpt>
      <trkpt lat="61.01159" lon="5.03083">
        <ele>47.994476</ele>
        <time>2020-07-15T18:51:47.446Z</time>
      </trkpt>
      <trkpt lat="61.01188" lon="5.03092">
        <ele>47.584613</ele>
        <time>2020-07-15T18:51:51.021Z</time>
      </trkpt>
      <trkpt lat="61.01197" lon="5.03111">
        <ele>47.354383</ele>
        <time>2020-07-15T18:51:52.801Z</time>
      </trkpt>
      <trkpt lat="61.01204" lon="5.03151">
        <ele>47.01038</ele>
        <time>2020-07-15T18:51:55.528Z</time>
      </trkpt>
      <trkpt lat="61.01224" lon="5.03447">
        <ele>44.54891</ele>
        <time>2020-07-15T18:52:19.298Z</time>
      </trkpt>
      <trkpt lat="61.01266" lon="5.03771">
        <ele>41.888695</ele>
        <time>2020-07-15T18:52:43.057Z</time>
      </trkpt>
      <trkpt lat="61.01272" lon="5.03911">
        <ele>40.009229</ele>
        <time>2020-07-15T18:52:51.881Z</time>
      </trkpt>
      <trkpt lat="61.01283" lon="5.0395">
        <ele>39.398715</ele>
        <time>2020-07-15T18:52:54.734Z</time>
      </trkpt>
      <trkpt lat="61.01303" lon="5.03976">
        <ele>38.75201</ele>
        <time>2020-07-15T18:52:57.768Z</time>
      </trkpt>
      <trkpt lat="61.01325" lon="5.03983">
        <ele>38.146435</ele>
        <time>2020-07-15T18:53:00.602Z</time>
      </trkpt>
      <trkpt lat="61.01349" lon="5.0397">
        <ele>37.459044</ele>
        <time>2020-07-15T18:53:03.868Z</time>
      </trkpt>
      <trkpt lat="61.01433" lon="5.03885">
        <ele>38.318046</ele>
        <time>2020-07-15T18:53:17.906Z</time>
      </trkpt>
      <trkpt lat="61.01462" lon="5.03866">
        <ele>38.856408</ele>
        <time>2020-07-15T18:53:25.201Z</time>
      </trkpt>
      <trkpt lat="61.01489" lon="5.03868">
        <ele>39.329737</ele>
        <time>2020-07-15T18:53:32.920Z</time>
      </trkpt>
      <trkpt lat="61.01522" lon="5.03891">
        <ele>39.930117</ele>
        <time>2020-07-15T18:53:44.326Z</time>
      </trkpt>
      <trkpt lat="61.0154" lon="5.03921">
        <ele>41.066012</ele>
        <time>2020-07-15T18:53:53.061Z</time>
      </trkpt>
      <trkpt lat="61.01555" lon="5.03965">
        <ele>43.067925</ele>
        <time>2020-07-15T18:54:03.728Z</time>
      </trkpt>
      <trkpt lat="61.016" lon="5.04231">
        <ele>53.573077</ele>
        <time>2020-07-15T18:55:07.148Z</time>
      </trkpt>
      <trkpt lat="61.01614" lon="5.04263">
        <ele>54.306572</ele>
        <time>2020-07-15T18:55:16.034Z</time>
      </trkpt>
      <trkpt lat="61.01664" lon="5.04336">
        <ele>55.607521</ele>
        <time>2020-07-15T18:55:36.071Z</time>
      </trkpt>
      <trkpt lat="61.01694" lon="5.04439">
        <ele>56.841234</ele>
        <time>2020-07-15T18:55:47.914Z</time>
      </trkpt>
      <trkpt lat="61.01723" lon="5.04466">
        <ele>57.509943</ele>
        <time>2020-07-15T18:55:52.501Z</time>
      </trkpt>
      <trkpt lat="61.01787" lon="5.04478">
        <ele>57.087128</ele>
        <time>2020-07-15T18:56:00.881Z</time>
      </trkpt>
      <trkpt lat="61.01823" lon="5.04475">
        <ele>56.607766</ele>
        <time>2020-07-15T18:56:05.479Z</time>
      </trkpt>
      <trkpt lat="61.01843" lon="5.04451">
        <ele>56.302728</ele>
        <time>2020-07-15T18:56:08.566Z</time>
      </trkpt>
      <trkpt lat="61.01878" lon="5.04362">
        <ele>55.559556</ele>
        <time>2020-07-15T18:56:17.162Z</time>
      </trkpt>
      <trkpt lat="61.01909" lon="5.04311">
        <ele>57.08556</ele>
        <time>2020-07-15T18:56:27.993Z</time>
      </trkpt>
      <trkpt lat="61.01953" lon="5.04297">
        <ele>59.957971</ele>
        <time>2020-07-15T18:56:44.191Z</time>
      </trkpt>
      <trkpt lat="61.01988" lon="5.04312">
        <ele>62.257964</ele>
        <time>2020-07-15T18:56:59.169Z</time>
      </trkpt>
      <trkpt lat="61.02016" lon="5.04346">
        <ele>64.385178</ele>
        <time>2020-07-15T18:57:14.138Z</time>
      </trkpt>
      <trkpt lat="61.02043" lon="5.0441">
        <ele>67.00706</ele>
        <time>2020-07-15T18:57:33.869Z</time>
      </trkpt>
      <trkpt lat="61.02066" lon="5.04524">
        <ele>70.37763</ele>
        <time>2020-07-15T18:58:01.684Z</time>
      </trkpt>
      <trkpt lat="61.02088" lon="5.04692">
        <ele>75.099839</ele>
        <time>2020-07-15T18:58:32.015Z</time>
      </trkpt>
      <trkpt lat="61.02097" lon="5.04723">
        <ele>76.093244</ele>
        <time>2020-07-15T18:58:36.619Z</time>
      </trkpt>
      <trkpt lat="61.02121" lon="5.04784">
        <ele>76.693326</ele>
        <time>2020-07-15T18:58:44.541Z</time>
      </trkpt>
      <trkpt lat="61.02155" lon="5.04871">
        <ele>75.588601</ele>
        <time>2020-07-15T18:58:52.708Z</time>
      </trkpt>
      <trkpt lat="61.02232" lon="5.05094">
        <ele>72.244972</ele>
        <time>2020-07-15T18:59:09.685Z</time>
      </trkpt>
      <trkpt lat="61.02243" lon="5.05176">
        <ele>70.436675</ele>
        <time>2020-07-15T18:59:14.819Z</time>
      </trkpt>
      <trkpt lat="61.02218" lon="5.05325">
        <ele>67.088344</ele>
        <time>2020-07-15T18:59:24.428Z</time>
      </trkpt>
      <trkpt lat="61.02142" lon="5.0559">
        <ele>57.820338</ele>
        <time>2020-07-15T18:59:42.291Z</time>
      </trkpt>
      <trkpt lat="61.02145" lon="5.05614">
        <ele>56.995616</ele>
        <time>2020-07-15T18:59:43.669Z</time>
      </trkpt>
      <trkpt lat="61.02155" lon="5.05611">
        <ele>56.345373</ele>
        <time>2020-07-15T18:59:44.748Z</time>
      </trkpt>
      <trkpt lat="61.02162" lon="5.05597">
        <ele>55.661748</ele>
        <time>2020-07-15T18:59:45.890Z</time>
      </trkpt>
      <trkpt lat="61.0221" lon="5.05476">
        <ele>48.59775</ele>
        <time>2020-07-15T18:59:54.244Z</time>
      </trkpt>
      <trkpt lat="61.02285" lon="5.05321">
        <ele>36.61822</ele>
        <time>2020-07-15T19:00:05.473Z</time>
      </trkpt>
      <trkpt lat="61.02322" lon="5.05248">
        <ele>30.894317</ele>
        <time>2020-07-15T19:00:11.007Z</time>
      </trkpt>
      <trkpt lat="61.02354" lon="5.05206">
        <ele>26.962941</ele>
        <time>2020-07-15T19:00:15.034Z</time>
      </trkpt>
      <trkpt lat="61.02369" lon="5.05189">
        <ele>25.158921</ele>
        <time>2020-07-15T19:00:16.889Z</time>
      </trkpt>
      <trkpt lat="61.02384" lon="5.0517">
        <ele>23.337511</ele>
        <time>2020-07-15T19:00:18.784Z</time>
      </trkpt>
      <trkpt lat="61.02411" lon="5.05124">
        <ele>19.685202</ele>
        <time>2020-07-15T19:00:22.594Z</time>
      </trkpt>
      <trkpt lat="61.02427" lon="5.05076">
        <ele>16.747789</ele>
        <time>2020-07-15T19:00:25.664Z</time>
      </trkpt>
      <trkpt lat="61.02443" lon="5.04996">
        <ele>13.22057</ele>
        <time>2020-07-15T19:00:30.279Z</time>
      </trkpt>
      <trkpt lat="61.02452" lon="5.04898">
        <ele>10.59101</ele>
        <time>2020-07-15T19:00:35.825Z</time>
      </trkpt>
      <trkpt lat="61.02458" lon="5.04888">
        <ele>10.196999</ele>
        <time>2020-07-15T19:00:36.745Z</time>
      </trkpt>
      <trkpt lat="61.02464" lon="5.04895">
        <ele>9.791543</ele>
        <time>2020-07-15T19:00:37.661Z</time>
      </trkpt>
      <trkpt lat="61.02463" lon="5.04966">
        <ele>7.925052</ele>
        <time>2020-07-15T19:00:41.951Z</time>
      </trkpt>
      <trkpt lat="61.02464" lon="5.04986">
        <ele>7.387513</ele>
        <time>2020-07-15T19:00:43.092Z</time>
      </trkpt>
      <trkpt lat="61.02464" lon="5.05">
        <ele>7.031129</ele>
        <time>2020-07-15T19:00:43.964Z</time>
      </trkpt>
      <trkpt lat="61.02472" lon="5.05057">
        <ele>5.483668</ele>
        <time>2020-07-15T19:00:47.672Z</time>
      </trkpt>
      <trkpt lat="61.02472" lon="5.05059">
        <ele>5.427111</ele>
        <time>2020-07-15T19:00:47.793Z</time>
      </trkpt>
      <trkpt lat="61.02474" lon="5.05066">
        <ele>5.224426</ele>
        <time>2020-07-15T19:00:48.326Z</time>
      </trkpt>
      <trkpt lat="61.02479" lon="5.05078">
        <ele>4.807209</ele>
        <time>2020-07-15T19:00:49.494Z</time>
      </trkpt>
      <trkpt lat="61.02483" lon="5.05087">
        <ele>4.493462</ele>
        <time>2020-07-15T19:00:50.365Z</time>
      </trkpt>
      <trkpt lat="61.02488" lon="5.05097">
        <ele>4.543764</ele>
        <time>2020-07-15T19:00:51.471Z</time>
      </trkpt>
      <trkpt lat="61.02491" lon="5.05101">
        <ele>4.595673</ele>
        <time>2020-07-15T19:00:51.842Z</time>
      </trkpt>
      <trkpt lat="61.02499" lon="5.0511">
        <ele>4.746462</ele>
        <time>2020-07-15T19:00:52.937Z</time>
      </trkpt>
      <trkpt lat="61.02516" lon="5.05127">
        <ele>5.067489</ele>
        <time>2020-07-15T19:00:56.011Z</time>
      </trkpt>
      <trkpt lat="61.02523" lon="5.05134">
        <ele>5.200162</ele>
        <time>2020-07-15T19:00:57.117Z</time>
      </trkpt>
      <trkpt lat="61.02546" lon="5.05155">
        <ele>5.627483</ele>
        <time>2020-07-15T19:01:01.975Z</time>
      </trkpt>
      <trkpt lat="61.02662" lon="5.05258">
        <ele>7.801839</ele>
        <time>2020-07-15T19:01:40.146Z</time>
      </trkpt>
      <trkpt lat="61.02669" lon="5.05264">
        <ele>7.936727</ele>
        <time>2020-07-15T19:01:42.742Z</time>
      </trkpt>
      <trkpt lat="61.02673" lon="5.05268">
        <ele>8.031318</ele>
        <time>2020-07-15T19:01:44.082Z</time>
      </trkpt>
      <trkpt lat="61.02678" lon="5.05272">
        <ele>8.131018</ele>
        <time>2020-07-15T19:01:46.917Z</time>
      </trkpt>
      <trkpt lat="61.02683" lon="5.05276">
        <ele>8.225968</ele>
        <time>2020-07-15T19:01:48.749Z</time>
      </trkpt>
      <trkpt lat="61.02738" lon="5.05334">
        <ele>9.357215</ele>
        <time>2020-07-15T19:02:03.713Z</time>
      </trkpt>
      <trkpt lat="61.02744" lon="5.05336">
        <ele>9.48042</ele>
        <time>2020-07-15T19:02:06.351Z</time>
      </trkpt>
      <trkpt lat="61.02749" lon="5.05337">
        <ele>9.569188</ele>
        <time>2020-07-15T19:02:06.981Z</time>
      </trkpt>
      <trkpt lat="61.02771" lon="5.0532">
        <ele>10.000895</ele>
        <time>2020-07-15T19:02:11.735Z</time>
      </trkpt>
      <trkpt lat="61.02822" lon="5.05214">
        <ele>10.324</ele>
        <time>2020-07-15T19:02:24.230Z</time>
      </trkpt>
      <trkpt lat="61.02852" lon="5.05175">
        <ele>9.713157</ele>
        <time>2020-07-15T19:02:28.941Z</time>
      </trkpt>
      <trkpt lat="61.02856" lon="5.05169">
        <ele>9.622955</ele>
        <time>2020-07-15T19:02:29.671Z</time>
      </trkpt>
      <trkpt lat="61.02867" lon="5.05157">
        <ele>9.407483</ele>
        <time>2020-07-15T19:02:31.199Z</time>
      </trkpt>
      <trkpt lat="61.0289" lon="5.05122">
        <ele>8.920499</ele>
        <time>2020-07-15T19:02:34.782Z</time>
      </trkpt>
      <trkpt lat="61.02903" lon="5.05106">
        <ele>8.666005</ele>
        <time>2020-07-15T19:02:36.930Z</time>
      </trkpt>
      <trkpt lat="61.02914" lon="5.05087">
        <ele>8.413868</ele>
        <time>2020-07-15T19:02:38.728Z</time>
      </trkpt>
      <trkpt lat="61.02938" lon="5.05015">
        <ele>7.772552</ele>
        <time>2020-07-15T19:02:45.140Z</time>
      </trkpt>
      <trkpt lat="61.02989" lon="5.04811">
        <ele>10.216031</ele>
        <time>2020-07-15T19:03:12.976Z</time>
      </trkpt>
      <trkpt lat="61.02995" lon="5.04787">
        <ele>10.502306</ele>
        <time>2020-07-15T19:03:16.776Z</time>
      </trkpt>
      <trkpt lat="61.03001" lon="5.04764">
        <ele>10.771264</ele>
        <time>2020-07-15T19:03:20.617Z</time>
      </trkpt>
      <trkpt lat="61.03012" lon="5.04725">
        <ele>11.264415</ele>
        <time>2020-07-15T19:03:26.632Z</time>
      </trkpt>
      <trkpt lat="61.0303" lon="5.04638">
        <ele>13.096267</ele>
        <time>2020-07-15T19:03:38.741Z</time>
      </trkpt>
      <trkpt lat="61.0303" lon="5.04632">
        <ele>13.234128</ele>
        <time>2020-07-15T19:03:40.648Z</time>
      </trkpt>
      <trkpt lat="61.0303" lon="5.04614">
        <ele>13.714201</ele>
        <time>2020-07-15T19:03:43.102Z</time>
      </trkpt>
      <trkpt lat="61.03023" lon="5.04521">
        <ele>16.112845</ele>
        <time>2020-07-15T19:03:59.579Z</time>
      </trkpt>
      <trkpt lat="61.03022" lon="5.04508">
        <ele>16.425683</ele>
        <time>2020-07-15T19:04:01.247Z</time>
      </trkpt>
      <trkpt lat="61.03022" lon="5.04508">
        <ele>16.428234</ele>
        <time>2020-07-15T19:04:01.485Z</time>
      </trkpt>
      <trkpt lat="61.03022" lon="5.04508">
        <ele>16.430785</ele>
        <time>2020-07-15T19:04:01.519Z</time>
      </trkpt>
      <trkpt lat="61.0302" lon="5.04494">
        <ele>16.815681</ele>
        <time>2020-07-15T19:04:03.125Z</time>
      </trkpt>
      <trkpt lat="61.0301" lon="5.04408">
        <ele>19.075707</ele>
        <time>2020-07-15T19:04:21.014Z</time>
      </trkpt>
      <trkpt lat="61.03009" lon="5.04347">
        <ele>20.630071</ele>
        <time>2020-07-15T19:04:31.443Z</time>
      </trkpt>
      <trkpt lat="61.03013" lon="5.04326">
        <ele>21.196597</ele>
        <time>2020-07-15T19:04:37.365Z</time>
      </trkpt>
      <trkpt lat="61.03015" lon="5.04318">
        <ele>21.333569</ele>
        <time>2020-07-15T19:04:40.307Z</time>
      </trkpt>
      <trkpt lat="61.03053" lon="5.04219">
        <ele>23.436284</ele>
        <time>2020-07-15T19:04:58.535Z</time>
      </trkpt>
      <trkpt lat="61.03055" lon="5.04215">
        <ele>23.54197</ele>
        <time>2020-07-15T19:05:00.423Z</time>
      </trkpt>
      <trkpt lat="61.03064" lon="5.04189">
        <ele>24.066836</ele>
        <time>2020-07-15T19:05:05.402Z</time>
      </trkpt>
      <trkpt lat="61.03093" lon="5.04123">
        <ele>25.532481</ele>
        <time>2020-07-15T19:05:16.172Z</time>
      </trkpt>
      <trkpt lat="61.03118" lon="5.04057">
        <ele>26.914932</ele>
        <time>2020-07-15T19:05:26.226Z</time>
      </trkpt>
      <trkpt lat="61.03136" lon="5.04013">
        <ele>27.091854</ele>
        <time>2020-07-15T19:05:31.893Z</time>
      </trkpt>
      <trkpt lat="61.03151" lon="5.03973">
        <ele>26.799593</ele>
        <time>2020-07-15T19:05:36.273Z</time>
      </trkpt>
      <trkpt lat="61.03173" lon="5.03916">
        <ele>26.371118</ele>
        <time>2020-07-15T19:05:41.436Z</time>
      </trkpt>
      <trkpt lat="61.03216" lon="5.03861">
        <ele>25.773438</ele>
        <time>2020-07-15T19:05:48.238Z</time>
      </trkpt>
      <trkpt lat="61.03262" lon="5.03784">
        <ele>25.240343</ele>
        <time>2020-07-15T19:05:56.025Z</time>
      </trkpt>
      <trkpt lat="61.03306" lon="5.03736">
        <ele>26.02314</ele>
        <time>2020-07-15T19:06:06.374Z</time>
      </trkpt>
      <trkpt lat="61.03343" lon="5.03673">
        <ele>26.771105</ele>
        <time>2020-07-15T19:06:18.609Z</time>
      </trkpt>
      <trkpt lat="61.03369" lon="5.03653">
        <ele>27.208939</ele>
        <time>2020-07-15T19:06:26.085Z</time>
      </trkpt>
      <trkpt lat="61.034" lon="5.03652">
        <ele>27.702033</ele>
        <time>2020-07-15T19:06:34.802Z</time>
      </trkpt>
      <trkpt lat="61.03428" lon="5.03674">
        <ele>28.115809</ele>
        <time>2020-07-15T19:06:43.283Z</time>
      </trkpt>
      <trkpt lat="61.0347" lon="5.03756">
        <ele>28.791481</ele>
        <time>2020-07-15T19:06:58.485Z</time>
      </trkpt>
      <trkpt lat="61.0354" lon="5.03859">
        <ele>29.802349</ele>
        <time>2020-07-15T19:07:16.276Z</time>
      </trkpt>
      <trkpt lat="61.03598" lon="5.04001">
        <ele>28.505618</ele>
        <time>2020-07-15T19:07:29.314Z</time>
      </trkpt>
      <trkpt lat="61.03632" lon="5.04059">
        <ele>27.4668</ele>
        <time>2020-07-15T19:07:35.216Z</time>
      </trkpt>
      <trkpt lat="61.03719" lon="5.04189">
        <ele>24.697392</ele>
        <time>2020-07-15T19:07:49.309Z</time>
      </trkpt>
      <trkpt lat="61.03771" lon="5.04243">
        <ele>22.969342</ele>
        <time>2020-07-15T19:07:57.047Z</time>
      </trkpt>
      <trkpt lat="61.0383" lon="5.04262">
        <ele>21.200169</ele>
        <time>2020-07-15T19:08:04.990Z</time>
      </trkpt>
      <trkpt lat="61.03858" lon="5.04255">
        <ele>20.299034</ele>
        <time>2020-07-15T19:08:08.785Z</time>
      </trkpt>
      <trkpt lat="61.03883" lon="5.04239">
        <ele>19.254298</ele>
        <time>2020-07-15T19:08:12.263Z</time>
      </trkpt>
      <trkpt lat="61.03913" lon="5.04207">
        <ele>17.883051</ele>
        <time>2020-07-15T19:08:16.491Z</time>
      </trkpt>
      <trkpt lat="61.0395" lon="5.04123">
        <ele>15.667381</ele>
        <time>2020-07-15T19:08:23.256Z</time>
      </trkpt>
      <trkpt lat="61.03977" lon="5.04083">
        <ele>14.352679</ele>
        <time>2020-07-15T19:08:27.482Z</time>
      </trkpt>
      <trkpt lat="61.03995" lon="5.04066">
        <ele>13.551977</ele>
        <time>2020-07-15T19:08:29.865Z</time>
      </trkpt>
      <trkpt lat="61.0401" lon="5.04068">
        <ele>13.05946</ele>
        <time>2020-07-15T19:08:31.922Z</time>
      </trkpt>
      <trkpt lat="61.04013" lon="5.0407">
        <ele>13.002255</ele>
        <time>2020-07-15T19:08:32.157Z</time>
      </trkpt>
      <trkpt lat="61.04018" lon="5.04076">
        <ele>12.856441</ele>
        <time>2020-07-15T19:08:32.915Z</time>
      </trkpt>
      <trkpt lat="61.04059" lon="5.04215">
        <ele>10.964165</ele>
        <time>2020-07-15T19:08:43.140Z</time>
      </trkpt>
      <trkpt lat="61.04073" lon="5.04233">
        <ele>10.570384</ele>
        <time>2020-07-15T19:08:45.632Z</time>
      </trkpt>
      <trkpt lat="61.04087" lon="5.04234">
        <ele>10.215274</ele>
        <time>2020-07-15T19:08:47.481Z</time>
      </trkpt>
      <trkpt lat="61.04111" lon="5.04205">
        <ele>9.555026</ele>
        <time>2020-07-15T19:08:51.410Z</time>
      </trkpt>
      <trkpt lat="61.04163" lon="5.04091">
        <ele>9.926603</ele>
        <time>2020-07-15T19:09:07.323Z</time>
      </trkpt>
      <trkpt lat="61.04255" lon="5.03983">
        <ele>11.974227</ele>
        <time>2020-07-15T19:09:36.572Z</time>
      </trkpt>
      <trkpt lat="61.04284" lon="5.03966">
        <ele>12.41617</ele>
        <time>2020-07-15T19:09:44.224Z</time>
      </trkpt>
      <trkpt lat="61.04309" lon="5.03968">
        <ele>12.375552</ele>
        <time>2020-07-15T19:09:49.725Z</time>
      </trkpt>
      <trkpt lat="61.04343" lon="5.03965">
        <ele>12.319527</ele>
        <time>2020-07-15T19:09:56.372Z</time>
      </trkpt>
      <trkpt lat="61.04434" lon="5.03963">
        <ele>12.170212</ele>
        <time>2020-07-15T19:10:11.876Z</time>
      </trkpt>
      <trkpt lat="61.04441" lon="5.03962">
        <ele>12.157933</ele>
        <time>2020-07-15T19:10:12.824Z</time>
      </trkpt>
      <trkpt lat="61.04454" lon="5.03966">
        <ele>12.136439</ele>
        <time>2020-07-15T19:10:14.819Z</time>
      </trkpt>
      <trkpt lat="61.04507" lon="5.04008">
        <ele>10.707791</ele>
        <time>2020-07-15T19:10:22.063Z</time>
      </trkpt>
      <trkpt lat="61.04555" lon="5.04082">
        <ele>9.134739</ele>
        <time>2020-07-15T19:10:29.854Z</time>
      </trkpt>
      <trkpt lat="61.04569" lon="5.04106">
        <ele>8.654198</ele>
        <time>2020-07-15T19:10:32.158Z</time>
      </trkpt>
      <trkpt lat="61.04585" lon="5.04135">
        <ele>8.098064</ele>
        <time>2020-07-15T19:10:35.057Z</time>
      </trkpt>
      <trkpt lat="61.0465" lon="5.04256">
        <ele>6.802253</ele>
        <time>2020-07-15T19:10:48.384Z</time>
      </trkpt>
      <trkpt lat="61.04667" lon="5.04285">
        <ele>6.589758</ele>
        <time>2020-07-15T19:10:51.725Z</time>
      </trkpt>
      <trkpt lat="61.04691" lon="5.04331">
        <ele>6.274238</ele>
        <time>2020-07-15T19:10:56.710Z</time>
      </trkpt>
      <trkpt lat="61.04715" lon="5.04369">
        <ele>5.98618</ele>
        <time>2020-07-15T19:11:01.638Z</time>
      </trkpt>
      <trkpt lat="61.04733" lon="5.04401">
        <ele>5.757747</ele>
        <time>2020-07-15T19:11:05.766Z</time>
      </trkpt>
      <trkpt lat="61.0475" lon="5.04436">
        <ele>5.709303</ele>
        <time>2020-07-15T19:11:09.721Z</time>
      </trkpt>
      <trkpt lat="61.04766" lon="5.04465">
        <ele>5.790522</ele>
        <time>2020-07-15T19:11:13.281Z</time>
      </trkpt>
      <trkpt lat="61.04784" lon="5.04499">
        <ele>5.883543</ele>
        <time>2020-07-15T19:11:17.557Z</time>
      </trkpt>
      <trkpt lat="61.048" lon="5.04521">
        <ele>5.958808</ele>
        <time>2020-07-15T19:11:20.873Z</time>
      </trkpt>
      <trkpt lat="61.04862" lon="5.04615">
        <ele>6.258121</ele>
        <time>2020-07-15T19:11:36.864Z</time>
      </trkpt>
      <trkpt lat="61.04896" lon="5.04752">
        <ele>7.124594</ele>
        <time>2020-07-15T19:11:52.311Z</time>
      </trkpt>
      <trkpt lat="61.04906" lon="5.04779">
        <ele>7.377224</ele>
        <time>2020-07-15T19:11:55.938Z</time>
      </trkpt>
      <trkpt lat="61.04916" lon="5.04808">
        <ele>7.65111</ele>
        <time>2020-07-15T19:12:00.226Z</time>
      </trkpt>
      <trkpt lat="61.04944" lon="5.04862">
        <ele>8.239881</ele>
        <time>2020-07-15T19:12:09.174Z</time>
      </trkpt>
      <trkpt lat="61.04975" lon="5.04899">
        <ele>8.790488</ele>
        <time>2020-07-15T19:12:17.759Z</time>
      </trkpt>
      <trkpt lat="61.0502" lon="5.04906">
        <ele>9.404812</ele>
        <time>2020-07-15T19:12:28.589Z</time>
      </trkpt>
      <trkpt lat="61.05052" lon="5.04882">
        <ele>9.826072</ele>
        <time>2020-07-15T19:12:36.916Z</time>
      </trkpt>
      <trkpt lat="61.05141" lon="5.0473">
        <ele>11.237057</ele>
        <time>2020-07-15T19:13:01.599Z</time>
      </trkpt>
      <trkpt lat="61.0518" lon="5.0446">
        <ele>10.824501</ele>
        <time>2020-07-15T19:13:25.326Z</time>
      </trkpt>
      <trkpt lat="61.05201" lon="5.04401">
        <ele>10.687538</ele>
        <time>2020-07-15T19:13:30.692Z</time>
      </trkpt>
      <trkpt lat="61.05269" lon="5.04362">
        <ele>10.511188</ele>
        <time>2020-07-15T19:13:41.127Z</time>
      </trkpt>
      <trkpt lat="61.05353" lon="5.04233">
        <ele>10.290794</ele>
        <time>2020-07-15T19:13:58.115Z</time>
      </trkpt>
      <trkpt lat="61.05383" lon="5.04208">
        <ele>10.595822</ele>
        <time>2020-07-15T19:14:06.550Z</time>
      </trkpt>
      <trkpt lat="61.05407" lon="5.042">
        <ele>11.246175</ele>
        <time>2020-07-15T19:14:12.694Z</time>
      </trkpt>
      <trkpt lat="61.05434" lon="5.04201">
        <ele>11.996768</ele>
        <time>2020-07-15T19:14:19.526Z</time>
      </trkpt>
      <trkpt lat="61.05451" lon="5.04206">
        <ele>12.460594</ele>
        <time>2020-07-15T19:14:25.579Z</time>
      </trkpt>
      <trkpt lat="61.05468" lon="5.04217">
        <ele>12.960122</ele>
        <time>2020-07-15T19:14:29.673Z</time>
      </trkpt>
      <trkpt lat="61.05486" lon="5.04233">
        <ele>13.489527</ele>
        <time>2020-07-15T19:14:36.102Z</time>
      </trkpt>
      <trkpt lat="61.05511" lon="5.04252">
        <ele>14.234794</ele>
        <time>2020-07-15T19:14:43.369Z</time>
      </trkpt>
      <trkpt lat="61.05599" lon="5.0433">
        <ele>15.710146</ele>
        <time>2020-07-15T19:15:09.346Z</time>
      </trkpt>
      <trkpt lat="61.05607" lon="5.04333">
        <ele>15.779836</ele>
        <time>2020-07-15T19:15:11.699Z</time>
      </trkpt>
      <trkpt lat="61.05625" lon="5.04337">
        <ele>15.93319</ele>
        <time>2020-07-15T19:15:16.016Z</time>
      </trkpt>
      <trkpt lat="61.05639" lon="5.04341">
        <ele>16.053082</ele>
        <time>2020-07-15T19:15:18.655Z</time>
      </trkpt>
      <trkpt lat="61.05653" lon="5.04348">
        <ele>16.176085</ele>
        <time>2020-07-15T19:15:21.578Z</time>
      </trkpt>
      <trkpt lat="61.05758" lon="5.04434">
        <ele>16.03993</ele>
        <time>2020-07-15T19:15:37.960Z</time>
      </trkpt>
      <trkpt lat="61.05791" lon="5.04441">
        <ele>15.559424</ele>
        <time>2020-07-15T19:15:42.803Z</time>
      </trkpt>
      <trkpt lat="61.05833" lon="5.04421">
        <ele>14.950958</ele>
        <time>2020-07-15T19:15:49.053Z</time>
      </trkpt>
      <trkpt lat="61.0588" lon="5.04474">
        <ele>14.198248</ele>
        <time>2020-07-15T19:15:57.170Z</time>
      </trkpt>
      <trkpt lat="61.05908" lon="5.04531">
        <ele>14.05212</ele>
        <time>2020-07-15T19:16:03.555Z</time>
      </trkpt>
      <trkpt lat="61.05931" lon="5.04555">
        <ele>13.969637</ele>
        <time>2020-07-15T19:16:07.839Z</time>
      </trkpt>
      <trkpt lat="61.05949" lon="5.04589">
        <ele>13.887855</ele>
        <time>2020-07-15T19:16:12.616Z</time>
      </trkpt>
      <trkpt lat="61.05976" lon="5.04694">
        <ele>13.699625</ele>
        <time>2020-07-15T19:16:21.968Z</time>
      </trkpt>
      <trkpt lat="61.05978" lon="5.04799">
        <ele>13.5756</ele>
        <time>2020-07-15T19:16:31.520Z</time>
      </trkpt>
      <trkpt lat="61.0598" lon="5.04816">
        <ele>13.569442</ele>
        <time>2020-07-15T19:16:33.042Z</time>
      </trkpt>
      <trkpt lat="61.05991" lon="5.0483">
        <ele>13.560748</ele>
        <time>2020-07-15T19:16:34.961Z</time>
      </trkpt>
      <trkpt lat="61.06009" lon="5.04833">
        <ele>13.548406</ele>
        <time>2020-07-15T19:16:38.904Z</time>
      </trkpt>
      <trkpt lat="61.06026" lon="5.04838">
        <ele>13.536642</ele>
        <time>2020-07-15T19:16:41.458Z</time>
      </trkpt>
      <trkpt lat="61.06056" lon="5.0487">
        <ele>13.513143</ele>
        <time>2020-07-15T19:16:47.577Z</time>
      </trkpt>
      <trkpt lat="61.06097" lon="5.04983">
        <ele>13.466564</ele>
        <time>2020-07-15T19:16:59.390Z</time>
      </trkpt>
      <trkpt lat="61.06191" lon="5.05385">
        <ele>13.852483</ele>
        <time>2020-07-15T19:17:38.972Z</time>
      </trkpt>
      <trkpt lat="61.06268" lon="5.0561">
        <ele>14.498892</ele>
        <time>2020-07-15T19:18:05.301Z</time>
      </trkpt>
      <trkpt lat="61.0627" lon="5.05618">
        <ele>14.519554</ele>
        <time>2020-07-15T19:18:05.927Z</time>
      </trkpt>
      <trkpt lat="61.06275" lon="5.05652">
        <ele>14.581678</ele>
        <time>2020-07-15T19:18:09.668Z</time>
      </trkpt>
      <trkpt lat="61.06283" lon="5.05726">
        <ele>14.642592</ele>
        <time>2020-07-15T19:18:17.071Z</time>
      </trkpt>
      <trkpt lat="61.06333" lon="5.0605">
        <ele>14.244628</ele>
        <time>2020-07-15T19:18:47.489Z</time>
      </trkpt>
      <trkpt lat="61.06353" lon="5.06215">
        <ele>12.401879</ele>
        <time>2020-07-15T19:18:58.796Z</time>
      </trkpt>
      <trkpt lat="61.06375" lon="5.06287">
        <ele>11.478413</ele>
        <time>2020-07-15T19:19:04.182Z</time>
      </trkpt>
      <trkpt lat="61.06407" lon="5.06358">
        <ele>10.367222</ele>
        <time>2020-07-15T19:19:10.186Z</time>
      </trkpt>
      <trkpt lat="61.06447" lon="5.06446">
        <ele>8.849128</ele>
        <time>2020-07-15T19:19:17.778Z</time>
      </trkpt>
      <trkpt lat="61.06457" lon="5.06516">
        <ele>7.931583</ele>
        <time>2020-07-15T19:19:22.447Z</time>
      </trkpt>
      <trkpt lat="61.06452" lon="5.06737">
        <ele>6.927571</ele>
        <time>2020-07-15T19:19:37.989Z</time>
      </trkpt>
      <trkpt lat="61.06432" lon="5.06813">
        <ele>7.69095</ele>
        <time>2020-07-15T19:19:47.066Z</time>
      </trkpt>
      <trkpt lat="61.06427" lon="5.06859">
        <ele>8.119237</ele>
        <time>2020-07-15T19:19:51.945Z</time>
      </trkpt>
      <trkpt lat="61.06435" lon="5.07034">
        <ele>10.19746</ele>
        <time>2020-07-15T19:20:18.912Z</time>
      </trkpt>
      <trkpt lat="61.06435" lon="5.07094">
        <ele>12.319044</ele>
        <time>2020-07-15T19:20:27.894Z</time>
      </trkpt>
      <trkpt lat="61.06433" lon="5.07107">
        <ele>12.826937</ele>
        <time>2020-07-15T19:20:31.992Z</time>
      </trkpt>
      <trkpt lat="61.0642" lon="5.07155">
        <ele>14.757986</ele>
        <time>2020-07-15T19:20:40.898Z</time>
      </trkpt>
      <trkpt lat="61.06382" lon="5.07204">
        <ele>18.052319</ele>
        <time>2020-07-15T19:21:01.026Z</time>
      </trkpt>
      <trkpt lat="61.06365" lon="5.07238">
        <ele>19.788975</ele>
        <time>2020-07-15T19:21:10.284Z</time>
      </trkpt>
      <trkpt lat="61.06332" lon="5.0745">
        <ele>29.188904</ele>
        <time>2020-07-15T19:22:04.279Z</time>
      </trkpt>
      <trkpt lat="61.06319" lon="5.07443">
        <ele>30.476453</ele>
        <time>2020-07-15T19:22:11.811Z</time>
      </trkpt>
      <trkpt lat="61.06304" lon="5.0737">
        <ele>34.149827</ele>
        <time>2020-07-15T19:22:30.418Z</time>
      </trkpt>
      <trkpt lat="61.06288" lon="5.0735">
        <ele>35.938806</ele>
        <time>2020-07-15T19:22:38.144Z</time>
      </trkpt>
      <trkpt lat="61.06285" lon="5.07349">
        <ele>36.227095</ele>
        <time>2020-07-15T19:22:40.534Z</time>
      </trkpt>
      <trkpt lat="61.06274" lon="5.07336">
        <ele>37.479424</ele>
        <time>2020-07-15T19:22:47.117Z</time>
      </trkpt>
      <trkpt lat="61.06272" lon="5.07317">
        <ele>38.400051</ele>
        <time>2020-07-15T19:22:51.100Z</time>
      </trkpt>
      <trkpt lat="61.06276" lon="5.07281">
        <ele>40.078472</ele>
        <time>2020-07-15T19:22:59.783Z</time>
      </trkpt>
      <trkpt lat="61.06271" lon="5.07272">
        <ele>40.657357</ele>
        <time>2020-07-15T19:23:03.171Z</time>
      </trkpt>
      <trkpt lat="61.06264" lon="5.0728">
        <ele>41.381341</ele>
        <time>2020-07-15T19:23:06.791Z</time>
      </trkpt>
      <trkpt lat="61.06258" lon="5.07357">
        <ele>44.540384</ele>
        <time>2020-07-15T19:23:23.850Z</time>
      </trkpt>
      <trkpt lat="61.06231" lon="5.07429">
        <ele>48.254824</ele>
        <time>2020-07-15T19:23:43.619Z</time>
      </trkpt>
      <trkpt lat="61.06218" lon="5.07507">
        <ele>51.610718</ele>
        <time>2020-07-15T19:24:02.099Z</time>
      </trkpt>
      <trkpt lat="61.06203" lon="5.07517">
        <ele>52.93693</ele>
        <time>2020-07-15T19:24:08.401Z</time>
      </trkpt>
      <trkpt lat="61.0619" lon="5.075">
        <ele>54.183808</ele>
        <time>2020-07-15T19:24:14.693Z</time>
      </trkpt>
      <trkpt lat="61.06186" lon="5.07467">
        <ele>55.66268</ele>
        <time>2020-07-15T19:24:21.340Z</time>
      </trkpt>
      <trkpt lat="61.06188" lon="5.07345">
        <ele>61.323757</ele>
        <time>2020-07-15T19:24:47.401Z</time>
      </trkpt>
      <trkpt lat="61.06195" lon="5.07298">
        <ele>63.588573</ele>
        <time>2020-07-15T19:24:58.267Z</time>
      </trkpt>
      <trkpt lat="61.06193" lon="5.07286">
        <ele>64.197898</ele>
        <time>2020-07-15T19:25:01.479Z</time>
      </trkpt>
      <trkpt lat="61.06187" lon="5.07284">
        <ele>64.77036</ele>
        <time>2020-07-15T19:25:04.479Z</time>
      </trkpt>
      <trkpt lat="61.06166" lon="5.07397">
        <ele>70.378963</ele>
        <time>2020-07-15T19:25:34.275Z</time>
      </trkpt>
      <trkpt lat="61.06124" lon="5.07459">
        <ele>76.454625</ele>
        <time>2020-07-15T19:26:03.542Z</time>
      </trkpt>
      <trkpt lat="61.06126" lon="5.07533">
        <ele>81.082841</ele>
        <time>2020-07-15T19:26:24.501Z</time>
      </trkpt>
      <trkpt lat="61.06092" lon="5.07629">
        <ele>88.51245</ele>
        <time>2020-07-15T19:26:59.373Z</time>
      </trkpt>
      <trkpt lat="61.06061" lon="5.07693">
        <ele>94.203482</ele>
        <time>2020-07-15T19:27:27.231Z</time>
      </trkpt>
      <trkpt lat="61.06034" lon="5.07718">
        <ele>97.984687</ele>
        <time>2020-07-15T19:27:45.804Z</time>
      </trkpt>
      <trkpt lat="61.05835" lon="5.07841">
        <ele>123.469877</ele>
        <time>2020-07-15T19:29:46.886Z</time>
      </trkpt>
      <trkpt lat="61.05781" lon="5.07841">
        <ele>129.1053</ele>
        <time>2020-07-15T19:30:14.812Z</time>
      </trkpt>
      <trkpt lat="61.05761" lon="5.0786">
        <ele>131.378239</ele>
        <time>2020-07-15T19:30:25.702Z</time>
      </trkpt>
      <trkpt lat="61.05745" lon="5.07896">
        <ele>133.868721</ele>
        <time>2020-07-15T19:30:36.784Z</time>
      </trkpt>
      <trkpt lat="61.05736" lon="5.07929">
        <ele>135.772861</ele>
        <time>2020-07-15T19:30:45.574Z</time>
      </trkpt>
      <trkpt lat="61.05723" lon="5.07972">
        <ele>138.000224</ele>
        <time>2020-07-15T19:30:56.535Z</time>
      </trkpt>
      <trkpt lat="61.05689" lon="5.08118">
        <ele>143.80408</ele>
        <time>2020-07-15T19:31:29.876Z</time>
      </trkpt>
      <trkpt lat="61.05632" lon="5.08277">
        <ele>150.695128</ele>
        <time>2020-07-15T19:32:08.699Z</time>
      </trkpt>
      <trkpt lat="61.05614" lon="5.08375">
        <ele>152.873385</ele>
        <time>2020-07-15T19:32:26.058Z</time>
      </trkpt>
      <trkpt lat="61.05604" lon="5.08405">
        <ele>153.606594</ele>
        <time>2020-07-15T19:32:32.324Z</time>
      </trkpt>
      <trkpt lat="61.05593" lon="5.08448">
        <ele>154.611397</ele>
        <time>2020-07-15T19:32:39.529Z</time>
      </trkpt>
      <trkpt lat="61.05578" lon="5.08507">
        <ele>155.960104</ele>
        <time>2020-07-15T19:32:48.868Z</time>
      </trkpt>
      <trkpt lat="61.05575" lon="5.08524">
        <ele>156.332124</ele>
        <time>2020-07-15T19:32:51.842Z</time>
      </trkpt>
      <trkpt lat="61.05573" lon="5.08538">
        <ele>156.63354</ele>
        <time>2020-07-15T19:32:53.971Z</time>
      </trkpt>
      <trkpt lat="61.05571" lon="5.08581">
        <ele>157.530952</ele>
        <time>2020-07-15T19:32:59.329Z</time>
      </trkpt>
      <trkpt lat="61.05571" lon="5.08634">
        <ele>158.253734</ele>
        <time>2020-07-15T19:33:06.188Z</time>
      </trkpt>
      <trkpt lat="61.05591" lon="5.08868">
        <ele>159.519603</ele>
        <time>2020-07-15T19:33:31.082Z</time>
      </trkpt>
      <trkpt lat="61.05606" lon="5.09004">
        <ele>160.029368</ele>
        <time>2020-07-15T19:33:43.303Z</time>
      </trkpt>
      <trkpt lat="61.05643" lon="5.09245">
        <ele>159.373671</ele>
        <time>2020-07-15T19:34:04.821Z</time>
      </trkpt>
      <trkpt lat="61.05648" lon="5.09275">
        <ele>159.292574</ele>
        <time>2020-07-15T19:34:06.970Z</time>
      </trkpt>
      <trkpt lat="61.05653" lon="5.09299">
        <ele>159.223605</ele>
        <time>2020-07-15T19:34:08.996Z</time>
      </trkpt>
      <trkpt lat="61.05672" lon="5.09432">
        <ele>157.084162</ele>
        <time>2020-07-15T19:34:18.400Z</time>
      </trkpt>
      <trkpt lat="61.05667" lon="5.09501">
        <ele>155.742976</ele>
        <time>2020-07-15T19:34:22.805Z</time>
      </trkpt>
      <trkpt lat="61.0566" lon="5.09533">
        <ele>155.067026</ele>
        <time>2020-07-15T19:34:25.044Z</time>
      </trkpt>
      <trkpt lat="61.05656" lon="5.09553">
        <ele>154.648283</ele>
        <time>2020-07-15T19:34:26.293Z</time>
      </trkpt>
      <trkpt lat="61.05636" lon="5.09673">
        <ele>152.204475</ele>
        <time>2020-07-15T19:34:33.740Z</time>
      </trkpt>
      <trkpt lat="61.05643" lon="5.09884">
        <ele>143.322754</ele>
        <time>2020-07-15T19:34:45.247Z</time>
      </trkpt>
      <trkpt lat="61.05653" lon="5.09981">
        <ele>139.033624</ele>
        <time>2020-07-15T19:34:50.494Z</time>
      </trkpt>
      <trkpt lat="61.057" lon="5.10167">
        <ele>128.163893</ele>
        <time>2020-07-15T19:35:01.444Z</time>
      </trkpt>
      <trkpt lat="61.05756" lon="5.10296">
        <ele>118.439099</ele>
        <time>2020-07-15T19:35:10.389Z</time>
      </trkpt>
      <trkpt lat="61.05773" lon="5.10358">
        <ele>114.482364</ele>
        <time>2020-07-15T19:35:14.063Z</time>
      </trkpt>
      <trkpt lat="61.05764" lon="5.10426">
        <ele>110.742564</ele>
        <time>2020-07-15T19:35:17.698Z</time>
      </trkpt>
      <trkpt lat="61.05688" lon="5.10697">
        <ele>94.131968</ele>
        <time>2020-07-15T19:35:34.109Z</time>
      </trkpt>
      <trkpt lat="61.05685" lon="5.10753">
        <ele>91.493469</ele>
        <time>2020-07-15T19:35:37.115Z</time>
      </trkpt>
      <trkpt lat="61.05691" lon="5.10849">
        <ele>86.991402</ele>
        <time>2020-07-15T19:35:42.270Z</time>
      </trkpt>
      <trkpt lat="61.0571" lon="5.10893">
        <ele>84.217565</ele>
        <time>2020-07-15T19:35:45.465Z</time>
      </trkpt>
      <trkpt lat="61.05837" lon="5.11119">
        <ele>67.331392</ele>
        <time>2020-07-15T19:36:03.861Z</time>
      </trkpt>
      <trkpt lat="61.0584" lon="5.11126">
        <ele>66.917381</ele>
        <time>2020-07-15T19:36:04.274Z</time>
      </trkpt>
      <trkpt lat="61.05842" lon="5.11132">
        <ele>66.519161</ele>
        <time>2020-07-15T19:36:04.672Z</time>
      </trkpt>
      <trkpt lat="61.05854" lon="5.11197">
        <ele>63.057441</ele>
        <time>2020-07-15T19:36:08.370Z</time>
      </trkpt>
      <trkpt lat="61.05845" lon="5.11262">
        <ele>59.715836</ele>
        <time>2020-07-15T19:36:11.947Z</time>
      </trkpt>
      <trkpt lat="61.05828" lon="5.11298">
        <ele>57.644941</ele>
        <time>2020-07-15T19:36:14.582Z</time>
      </trkpt>
      <trkpt lat="61.05777" lon="5.11368">
        <ele>52.591053</ele>
        <time>2020-07-15T19:36:21.227Z</time>
      </trkpt>
      <trkpt lat="61.0576" lon="5.11408">
        <ele>50.443461</ele>
        <time>2020-07-15T19:36:24.210Z</time>
      </trkpt>
      <trkpt lat="61.0575" lon="5.11453">
        <ele>48.486357</ele>
        <time>2020-07-15T19:36:26.955Z</time>
      </trkpt>
      <trkpt lat="61.0575" lon="5.11541">
        <ele>44.972823</ele>
        <time>2020-07-15T19:36:31.969Z</time>
      </trkpt>
      <trkpt lat="61.0576" lon="5.11626">
        <ele>43.34325</ele>
        <time>2020-07-15T19:36:37.087Z</time>
      </trkpt>
      <trkpt lat="61.05792" lon="5.11749">
        <ele>41.133314</ele>
        <time>2020-07-15T19:36:45.794Z</time>
      </trkpt>
      <trkpt lat="61.05816" lon="5.11815">
        <ele>39.84234</ele>
        <time>2020-07-15T19:36:51.325Z</time>
      </trkpt>
      <trkpt lat="61.05865" lon="5.11909">
        <ele>38.324593</ele>
        <time>2020-07-15T19:37:01.405Z</time>
      </trkpt>
      <trkpt lat="61.05867" lon="5.12012">
        <ele>37.743876</ele>
        <time>2020-07-15T19:37:09.100Z</time>
      </trkpt>
      <trkpt lat="61.05871" lon="5.1203">
        <ele>37.629905</ele>
        <time>2020-07-15T19:37:10.627Z</time>
      </trkpt>
      <trkpt lat="61.0591" lon="5.12058">
        <ele>37.153356</ele>
        <time>2020-07-15T19:37:16.957Z</time>
      </trkpt>
      <trkpt lat="61.05924" lon="5.12088">
        <ele>36.919582</ele>
        <time>2020-07-15T19:37:20.037Z</time>
      </trkpt>
      <trkpt lat="61.05938" lon="5.12155">
        <ele>36.526677</ele>
        <time>2020-07-15T19:37:25.464Z</time>
      </trkpt>
      <trkpt lat="61.05961" lon="5.12327">
        <ele>35.756293</ele>
        <time>2020-07-15T19:37:38.612Z</time>
      </trkpt>
      <trkpt lat="61.05964" lon="5.12359">
        <ele>35.61599</ele>
        <time>2020-07-15T19:37:41.056Z</time>
      </trkpt>
      <trkpt lat="61.05961" lon="5.12396">
        <ele>35.456682</ele>
        <time>2020-07-15T19:37:43.834Z</time>
      </trkpt>
      <trkpt lat="61.05919" lon="5.12538">
        <ele>35.016307</ele>
        <time>2020-07-15T19:37:57.011Z</time>
      </trkpt>
      <trkpt lat="61.05908" lon="5.12608">
        <ele>35.047977</ele>
        <time>2020-07-15T19:38:03.260Z</time>
      </trkpt>
      <trkpt lat="61.05893" lon="5.12742">
        <ele>35.106302</ele>
        <time>2020-07-15T19:38:15.506Z</time>
      </trkpt>
      <trkpt lat="61.05894" lon="5.12806">
        <ele>35.133922</ele>
        <time>2020-07-15T19:38:21.563Z</time>
      </trkpt>
      <trkpt lat="61.05883" lon="5.12907">
        <ele>35.408619</ele>
        <time>2020-07-15T19:38:31.479Z</time>
      </trkpt>
      <trkpt lat="61.05883" lon="5.1298">
        <ele>35.698172</ele>
        <time>2020-07-15T19:38:38.722Z</time>
      </trkpt>
      <trkpt lat="61.05892" lon="5.13048">
        <ele>35.975822</ele>
        <time>2020-07-15T19:38:45.771Z</time>
      </trkpt>
      <trkpt lat="61.05907" lon="5.13103">
        <ele>36.22497</ele>
        <time>2020-07-15T19:38:52.111Z</time>
      </trkpt>
      <trkpt lat="61.05965" lon="5.13203">
        <ele>36.979964</ele>
        <time>2020-07-15T19:39:07.642Z</time>
      </trkpt>
      <trkpt lat="61.05974" lon="5.13228">
        <ele>37.175843</ele>
        <time>2020-07-15T19:39:10.919Z</time>
      </trkpt>
      <trkpt lat="61.05979" lon="5.13284">
        <ele>37.538016</ele>
        <time>2020-07-15T19:39:16.687Z</time>
      </trkpt>
      <trkpt lat="61.05982" lon="5.13437">
        <ele>38.519248</ele>
        <time>2020-07-15T19:39:32.822Z</time>
      </trkpt>
      <trkpt lat="61.05991" lon="5.13497">
        <ele>38.919662</ele>
        <time>2020-07-15T19:39:39.661Z</time>
      </trkpt>
      <trkpt lat="61.05996" lon="5.13508">
        <ele>39.03111</ele>
        <time>2020-07-15T19:39:41.387Z</time>
      </trkpt>
      <trkpt lat="61.06005" lon="5.13528">
        <ele>39.428763</ele>
        <time>2020-07-15T19:39:44.687Z</time>
      </trkpt>
      <trkpt lat="61.06032" lon="5.1362">
        <ele>40.982709</ele>
        <time>2020-07-15T19:39:58.182Z</time>
      </trkpt>
      <trkpt lat="61.06071" lon="5.13717">
        <ele>42.778417</ele>
        <time>2020-07-15T19:40:15.856Z</time>
      </trkpt>
      <trkpt lat="61.06081" lon="5.13828">
        <ele>44.38912</ele>
        <time>2020-07-15T19:40:32.009Z</time>
      </trkpt>
      <trkpt lat="61.06096" lon="5.1391">
        <ele>45.378527</ele>
        <time>2020-07-15T19:40:44.219Z</time>
      </trkpt>
      <trkpt lat="61.06111" lon="5.13967">
        <ele>46.117368</ele>
        <time>2020-07-15T19:40:53.063Z</time>
      </trkpt>
      <trkpt lat="61.0614" lon="5.14034">
        <ele>47.120125</ele>
        <time>2020-07-15T19:41:04.510Z</time>
      </trkpt>
      <trkpt lat="61.0615" lon="5.14108">
        <ele>47.989165</ele>
        <time>2020-07-15T19:41:13.295Z</time>
      </trkpt>
      <trkpt lat="61.06159" lon="5.1413">
        <ele>48.303291</ele>
        <time>2020-07-15T19:41:16.031Z</time>
      </trkpt>
      <trkpt lat="61.06178" lon="5.14149">
        <ele>48.579306</ele>
        <time>2020-07-15T19:41:20.076Z</time>
      </trkpt>
      <trkpt lat="61.06196" lon="5.14149">
        <ele>48.658439</ele>
        <time>2020-07-15T19:41:22.782Z</time>
      </trkpt>
      <trkpt lat="61.06262" lon="5.14087">
        <ele>48.989043</ele>
        <time>2020-07-15T19:41:34.890Z</time>
      </trkpt>
      <trkpt lat="61.06301" lon="5.14066">
        <ele>49.173033</ele>
        <time>2020-07-15T19:41:42.930Z</time>
      </trkpt>
      <trkpt lat="61.06336" lon="5.14061">
        <ele>49.334463</ele>
        <time>2020-07-15T19:41:50.239Z</time>
      </trkpt>
      <trkpt lat="61.06358" lon="5.14062">
        <ele>49.840085</ele>
        <time>2020-07-15T19:41:55.062Z</time>
      </trkpt>
      <trkpt lat="61.06374" lon="5.14066">
        <ele>50.214687</ele>
        <time>2020-07-15T19:41:59.492Z</time>
      </trkpt>
      <trkpt lat="61.06436" lon="5.14103">
        <ele>51.78042</ele>
        <time>2020-07-15T19:42:14.772Z</time>
      </trkpt>
      <trkpt lat="61.06453" lon="5.14126">
        <ele>52.289768</ele>
        <time>2020-07-15T19:42:20.551Z</time>
      </trkpt>
      <trkpt lat="61.06473" lon="5.14176">
        <ele>53.038989</ele>
        <time>2020-07-15T19:42:28.785Z</time>
      </trkpt>
      <trkpt lat="61.06475" lon="5.14188">
        <ele>53.194649</ele>
        <time>2020-07-15T19:42:31.438Z</time>
      </trkpt>
      <trkpt lat="61.06478" lon="5.14202">
        <ele>53.376283</ele>
        <time>2020-07-15T19:42:33.005Z</time>
      </trkpt>
      <trkpt lat="61.06474" lon="5.14277">
        <ele>54.194613</ele>
        <time>2020-07-15T19:42:44.872Z</time>
      </trkpt>
      <trkpt lat="61.06473" lon="5.14334">
        <ele>54.777897</ele>
        <time>2020-07-15T19:42:53.029Z</time>
      </trkpt>
      <trkpt lat="61.06476" lon="5.14388">
        <ele>55.331979</ele>
        <time>2020-07-15T19:42:58.971Z</time>
      </trkpt>
      <trkpt lat="61.06491" lon="5.1449">
        <ele>56.422583</ele>
        <time>2020-07-15T19:43:12.293Z</time>
      </trkpt>
      <trkpt lat="61.06495" lon="5.14572">
        <ele>57.263781</ele>
        <time>2020-07-15T19:43:20.345Z</time>
      </trkpt>
      <trkpt lat="61.06505" lon="5.14627">
        <ele>57.20489</ele>
        <time>2020-07-15T19:43:26.102Z</time>
      </trkpt>
      <trkpt lat="61.06484" lon="5.14751">
        <ele>55.956226</ele>
        <time>2020-07-15T19:43:36.595Z</time>
      </trkpt>
      <trkpt lat="61.06483" lon="5.14795">
        <ele>55.530527</ele>
        <time>2020-07-15T19:43:39.516Z</time>
      </trkpt>
      <trkpt lat="61.0649" lon="5.14815">
        <ele>55.286805</ele>
        <time>2020-07-15T19:43:41.204Z</time>
      </trkpt>
      <trkpt lat="61.06503" lon="5.14823">
        <ele>55.030794</ele>
        <time>2020-07-15T19:43:42.926Z</time>
      </trkpt>
      <trkpt lat="61.06566" lon="5.14806">
        <ele>53.403325</ele>
        <time>2020-07-15T19:43:50.999Z</time>
      </trkpt>
      <trkpt lat="61.06572" lon="5.14806">
        <ele>53.071058</ele>
        <time>2020-07-15T19:43:51.705Z</time>
      </trkpt>
      <trkpt lat="61.06597" lon="5.14811">
        <ele>51.686062</ele>
        <time>2020-07-15T19:43:54.744Z</time>
      </trkpt>
      <trkpt lat="61.06654" lon="5.14796">
        <ele>48.483006</ele>
        <time>2020-07-15T19:44:01.646Z</time>
      </trkpt>
      <trkpt lat="61.06695" lon="5.1476">
        <ele>46.030039</ele>
        <time>2020-07-15T19:44:06.759Z</time>
      </trkpt>
      <trkpt lat="61.06771" lon="5.14624">
        <ele>40.368917</ele>
        <time>2020-07-15T19:44:18.561Z</time>
      </trkpt>
      <trkpt lat="61.06791" lon="5.14603">
        <ele>39.066123</ele>
        <time>2020-07-15T19:44:21.417Z</time>
      </trkpt>
      <trkpt lat="61.06797" lon="5.14599">
        <ele>38.718453</ele>
        <time>2020-07-15T19:44:22.150Z</time>
      </trkpt>
      <trkpt lat="61.06806" lon="5.14595">
        <ele>38.178066</ele>
        <time>2020-07-15T19:44:23.239Z</time>
      </trkpt>
      <trkpt lat="61.06834" lon="5.14586">
        <ele>36.581776</ele>
        <time>2020-07-15T19:44:26.514Z</time>
      </trkpt>
      <trkpt lat="61.06865" lon="5.14544">
        <ele>34.454878</ele>
        <time>2020-07-15T19:44:30.915Z</time>
      </trkpt>
      <trkpt lat="61.06946" lon="5.14506">
        <ele>31.595457</ele>
        <time>2020-07-15T19:44:40.952Z</time>
      </trkpt>
      <trkpt lat="61.06947" lon="5.14505">
        <ele>31.545087</ele>
        <time>2020-07-15T19:44:41.115Z</time>
      </trkpt>
      <trkpt lat="61.06967" lon="5.14497">
        <ele>30.939695</ele>
        <time>2020-07-15T19:44:43.733Z</time>
      </trkpt>
      <trkpt lat="61.07018" lon="5.14473">
        <ele>29.326738</ele>
        <time>2020-07-15T19:44:50.956Z</time>
      </trkpt>
      <trkpt lat="61.0708" lon="5.14431">
        <ele>28.962568</ele>
        <time>2020-07-15T19:45:02.191Z</time>
      </trkpt>
      <trkpt lat="61.07093" lon="5.14438">
        <ele>29.282902</ele>
        <time>2020-07-15T19:45:04.416Z</time>
      </trkpt>
      <trkpt lat="61.07148" lon="5.14497">
        <ele>30.756806</ele>
        <time>2020-07-15T19:45:21.385Z</time>
      </trkpt>
      <trkpt lat="61.07197" lon="5.14621">
        <ele>32.549796</ele>
        <time>2020-07-15T19:45:45.186Z</time>
      </trkpt>
      <trkpt lat="61.07201" lon="5.14657">
        <ele>32.787467</ele>
        <time>2020-07-15T19:45:50.664Z</time>
      </trkpt>
      <trkpt lat="61.07202" lon="5.14788">
        <ele>33.613312</ele>
        <time>2020-07-15T19:46:08.243Z</time>
      </trkpt>
      <trkpt lat="61.07208" lon="5.14833">
        <ele>33.910329</ele>
        <time>2020-07-15T19:46:13.970Z</time>
      </trkpt>
      <trkpt lat="61.07277" lon="5.15077">
        <ele>32.846268</ele>
        <time>2020-07-15T19:46:34.437Z</time>
      </trkpt>
      <trkpt lat="61.07291" lon="5.15182">
        <ele>31.174021</ele>
        <time>2020-07-15T19:46:41.212Z</time>
      </trkpt>
      <trkpt lat="61.07297" lon="5.15203">
        <ele>30.811775</ele>
        <time>2020-07-15T19:46:42.528Z</time>
      </trkpt>
      <trkpt lat="61.07315" lon="5.1527">
        <ele>29.639779</ele>
        <time>2020-07-15T19:46:47.102Z</time>
      </trkpt>
      <trkpt lat="61.0732" lon="5.15306">
        <ele>29.041598</ele>
        <time>2020-07-15T19:46:49.464Z</time>
      </trkpt>
      <trkpt lat="61.07322" lon="5.1546">
        <ele>26.262622</ele>
        <time>2020-07-15T19:46:58.612Z</time>
      </trkpt>
      <trkpt lat="61.07325" lon="5.15502">
        <ele>25.500388</ele>
        <time>2020-07-15T19:47:01.075Z</time>
      </trkpt>
      <trkpt lat="61.07327" lon="5.15511">
        <ele>25.330226</ele>
        <time>2020-07-15T19:47:01.674Z</time>
      </trkpt>
      <trkpt lat="61.07332" lon="5.15551">
        <ele>24.587884</ele>
        <time>2020-07-15T19:47:04.329Z</time>
      </trkpt>
      <trkpt lat="61.07333" lon="5.15565">
        <ele>24.321573</ele>
        <time>2020-07-15T19:47:05.273Z</time>
      </trkpt>
      <trkpt lat="61.07335" lon="5.15598">
        <ele>23.725529</ele>
        <time>2020-07-15T19:47:07.546Z</time>
      </trkpt>
      <trkpt lat="61.07335" lon="5.15607">
        <ele>23.566584</ele>
        <time>2020-07-15T19:47:08.085Z</time>
      </trkpt>
      <trkpt lat="61.07332" lon="5.15674">
        <ele>22.413171</ele>
        <time>2020-07-15T19:47:12.655Z</time>
      </trkpt>
      <trkpt lat="61.07298" lon="5.15805">
        <ele>20.939592</ele>
        <time>2020-07-15T19:47:22.591Z</time>
      </trkpt>
      <trkpt lat="61.07281" lon="5.15904">
        <ele>19.891092</ele>
        <time>2020-07-15T19:47:29.838Z</time>
      </trkpt>
      <trkpt lat="61.07279" lon="5.15924">
        <ele>19.685569</ele>
        <time>2020-07-15T19:47:31.284Z</time>
      </trkpt>
      <trkpt lat="61.07277" lon="5.1594">
        <ele>19.526555</ele>
        <time>2020-07-15T19:47:32.447Z</time>
      </trkpt>
      <trkpt lat="61.07267" lon="5.16002">
        <ele>18.879486</ele>
        <time>2020-07-15T19:47:37.001Z</time>
      </trkpt>
      <trkpt lat="61.07236" lon="5.16234">
        <ele>16.339671</ele>
        <time>2020-07-15T19:47:53.296Z</time>
      </trkpt>
      <trkpt lat="61.07195" lon="5.16501">
        <ele>13.800629</ele>
        <time>2020-07-15T19:48:11.951Z</time>
      </trkpt>
      <trkpt lat="61.07169" lon="5.1675">
        <ele>12.027606</ele>
        <time>2020-07-15T19:48:30.593Z</time>
      </trkpt>
      <trkpt lat="61.07144" lon="5.16841">
        <ele>11.96618</ele>
        <time>2020-07-15T19:48:39.146Z</time>
      </trkpt>
      <trkpt lat="61.07089" lon="5.16955">
        <ele>11.869946</ele>
        <time>2020-07-15T19:48:53.356Z</time>
      </trkpt>
      <trkpt lat="61.07074" lon="5.16998">
        <ele>11.838237</ele>
        <time>2020-07-15T19:48:58.237Z</time>
      </trkpt>
      <trkpt lat="61.07063" lon="5.1705">
        <ele>11.887327</ele>
        <time>2020-07-15T19:49:03.431Z</time>
      </trkpt>
      <trkpt lat="61.07016" lon="5.1738">
        <ele>12.741609</ele>
        <time>2020-07-15T19:49:35.511Z</time>
      </trkpt>
      <trkpt lat="61.07009" lon="5.17489">
        <ele>13.633303</ele>
        <time>2020-07-15T19:49:46.717Z</time>
      </trkpt>
      <trkpt lat="61.07004" lon="5.17565">
        <ele>14.262032</ele>
        <time>2020-07-15T19:49:55.487Z</time>
      </trkpt>
      <trkpt lat="61.07003" lon="5.1758">
        <ele>14.383051</ele>
        <time>2020-07-15T19:49:57.160Z</time>
      </trkpt>
      <trkpt lat="61.07002" lon="5.17592">
        <ele>14.485747</ele>
        <time>2020-07-15T19:49:59.102Z</time>
      </trkpt>
      <trkpt lat="61.06984" lon="5.17685">
        <ele>15.305894</ele>
        <time>2020-07-15T19:50:11.364Z</time>
      </trkpt>
      <trkpt lat="61.06939" lon="5.17797">
        <ele>15.81644</ele>
        <time>2020-07-15T19:50:28.510Z</time>
      </trkpt>
      <trkpt lat="61.06927" lon="5.17824">
        <ele>15.827868</ele>
        <time>2020-07-15T19:50:32.288Z</time>
      </trkpt>
      <trkpt lat="61.06923" lon="5.17832">
        <ele>15.831455</ele>
        <time>2020-07-15T19:50:33.715Z</time>
      </trkpt>
      <trkpt lat="61.06917" lon="5.17845">
        <ele>15.837122</ele>
        <time>2020-07-15T19:50:35.635Z</time>
      </trkpt>
      <trkpt lat="61.06897" lon="5.17909">
        <ele>15.860995</ele>
        <time>2020-07-15T19:50:42.532Z</time>
      </trkpt>
      <trkpt lat="61.0689" lon="5.17958">
        <ele>15.876748</ele>
        <time>2020-07-15T19:50:46.644Z</time>
      </trkpt>
      <trkpt lat="61.06887" lon="5.18189">
        <ele>14.216879</ele>
        <time>2020-07-15T19:51:01.846Z</time>
      </trkpt>
      <trkpt lat="61.06898" lon="5.18299">
        <ele>12.863167</ele>
        <time>2020-07-15T19:51:08.871Z</time>
      </trkpt>
      <trkpt lat="61.06918" lon="5.18406">
        <ele>11.485454</ele>
        <time>2020-07-15T19:51:16.519Z</time>
      </trkpt>
      <trkpt lat="61.06928" lon="5.18465">
        <ele>11.428769</ele>
        <time>2020-07-15T19:51:21.099Z</time>
      </trkpt>
      <trkpt lat="61.06943" lon="5.18556">
        <ele>11.448337</ele>
        <time>2020-07-15T19:51:28.276Z</time>
      </trkpt>
      <trkpt lat="61.06945" lon="5.18569">
        <ele>11.450981</ele>
        <time>2020-07-15T19:51:29.494Z</time>
      </trkpt>
      <trkpt lat="61.06947" lon="5.18582">
        <ele>11.453837</ele>
        <time>2020-07-15T19:51:30.709Z</time>
      </trkpt>
      <trkpt lat="61.06949" lon="5.1859">
        <ele>11.455605</ele>
        <time>2020-07-15T19:51:31.405Z</time>
      </trkpt>
      <trkpt lat="61.06951" lon="5.18598">
        <ele>11.457446</ele>
        <time>2020-07-15T19:51:32.112Z</time>
      </trkpt>
      <trkpt lat="61.06953" lon="5.18605">
        <ele>11.458922</ele>
        <time>2020-07-15T19:51:33.020Z</time>
      </trkpt>
      <trkpt lat="61.06978" lon="5.18667">
        <ele>11.475469</ele>
        <time>2020-07-15T19:51:41.570Z</time>
      </trkpt>
      <trkpt lat="61.0706" lon="5.18788">
        <ele>10.935132</ele>
        <time>2020-07-15T19:52:05.289Z</time>
      </trkpt>
      <trkpt lat="61.07084" lon="5.18816">
        <ele>10.682554</ele>
        <time>2020-07-15T19:52:09.390Z</time>
      </trkpt>
      <trkpt lat="61.07093" lon="5.18827">
        <ele>10.579608</ele>
        <time>2020-07-15T19:52:11.665Z</time>
      </trkpt>
      <trkpt lat="61.07129" lon="5.1886">
        <ele>10.216416</ele>
        <time>2020-07-15T19:52:17.335Z</time>
      </trkpt>
      <trkpt lat="61.07159" lon="5.18877">
        <ele>9.92758</ele>
        <time>2020-07-15T19:52:21.347Z</time>
      </trkpt>
      <trkpt lat="61.07165" lon="5.18881">
        <ele>9.870808</ele>
        <time>2020-07-15T19:52:22.339Z</time>
      </trkpt>
      <trkpt lat="61.07168" lon="5.18877">
        <ele>9.832644</ele>
        <time>2020-07-15T19:52:22.759Z</time>
      </trkpt>
      <trkpt lat="61.07229" lon="5.18787">
        <ele>7.057008</ele>
        <time>2020-07-15T19:52:32.262Z</time>
      </trkpt>
      <trkpt lat="61.07251" lon="5.18774">
        <ele>6.192447</ele>
        <time>2020-07-15T19:52:35.403Z</time>
      </trkpt>
      <trkpt lat="61.07279" lon="5.18783">
        <ele>5.109531</ele>
        <time>2020-07-15T19:52:38.891Z</time>
      </trkpt>
      <trkpt lat="61.07298" lon="5.18803">
        <ele>4.308329</ele>
        <time>2020-07-15T19:52:41.365Z</time>
      </trkpt>
      <trkpt lat="61.07327" lon="5.18825">
        <ele>3.149222</ele>
        <time>2020-07-15T19:52:45.461Z</time>
      </trkpt>
      <trkpt lat="61.07342" lon="5.18839">
        <ele>2.858359</ele>
        <time>2020-07-15T19:52:47.665Z</time>
      </trkpt>
      <trkpt lat="61.07394" lon="5.18902">
        <ele>1.977534</ele>
        <time>2020-07-15T19:52:56.099Z</time>
      </trkpt>
      <trkpt lat="61.07415" lon="5.18923">
        <ele>1.64784</ele>
        <time>2020-07-15T19:52:59.592Z</time>
      </trkpt>
      <trkpt lat="61.07436" lon="5.18933">
        <ele>1.32917</ele>
        <time>2020-07-15T19:53:02.933Z</time>
      </trkpt>
      <trkpt lat="61.07768" lon="5.19011">
        <ele>0.120059</ele>
        <time>2020-07-15T19:53:49.513Z</time>
      </trkpt>
      <trkpt lat="61.07866" lon="5.19156">
        <ele>0.035184</ele>
        <time>2020-07-15T19:54:06.219Z</time>
      </trkpt>
      <trkpt lat="61.10083" lon="5.25803">
        <time>2020-07-15T20:03:10.599Z</time>
      </trkpt>
      <trkpt lat="61.10319" lon="5.26411">
        <time>2020-07-15T20:04:03.139Z</time>
      </trkpt>
      <trkpt lat="61.1133" lon="5.28121">
        <ele>0.133758</ele>
        <time>2020-07-15T20:07:05.065Z</time>
      </trkpt>
      <trkpt lat="61.11406" lon="5.28299">
        <ele>0.454095</ele>
        <time>2020-07-15T20:07:21.061Z</time>
      </trkpt>
      <trkpt lat="61.11415" lon="5.28321">
        <ele>0.493666</ele>
        <time>2020-07-15T20:07:23.850Z</time>
      </trkpt>
      <trkpt lat="61.11419" lon="5.2834">
        <ele>0.596296</ele>
        <time>2020-07-15T20:07:25.911Z</time>
      </trkpt>
      <trkpt lat="61.1142" lon="5.28346">
        <ele>0.674727</ele>
        <time>2020-07-15T20:07:26.541Z</time>
      </trkpt>
      <trkpt lat="61.11421" lon="5.28358">
        <ele>0.826339</ele>
        <time>2020-07-15T20:07:27.760Z</time>
      </trkpt>
      <trkpt lat="61.11414" lon="5.28359">
        <ele>1.009988</ele>
        <time>2020-07-15T20:07:29.222Z</time>
      </trkpt>
      <trkpt lat="61.1141" lon="5.28361">
        <ele>1.106794</ele>
        <time>2020-07-15T20:07:29.995Z</time>
      </trkpt>
      <trkpt lat="61.1141" lon="5.2838">
        <ele>1.346008</ele>
        <time>2020-07-15T20:07:32.010Z</time>
      </trkpt>
      <trkpt lat="61.11411" lon="5.28436">
        <ele>2.049677</ele>
        <time>2020-07-15T20:07:38.062Z</time>
      </trkpt>
      <trkpt lat="61.11409" lon="5.28462">
        <ele>2.376935</ele>
        <time>2020-07-15T20:07:41.037Z</time>
      </trkpt>
      <trkpt lat="61.11404" lon="5.28488">
        <ele>2.722517</ele>
        <time>2020-07-15T20:07:44.219Z</time>
      </trkpt>
      <trkpt lat="61.11396" lon="5.28527">
        <ele>3.263816</ele>
        <time>2020-07-15T20:07:49.305Z</time>
      </trkpt>
      <trkpt lat="61.1136" lon="5.28546">
        <ele>4.231872</ele>
        <time>2020-07-15T20:07:58.966Z</time>
      </trkpt>
      <trkpt lat="61.11278" lon="5.28586">
        <ele>7.960224</ele>
        <time>2020-07-15T20:08:28.354Z</time>
      </trkpt>
      <trkpt lat="61.11259" lon="5.28604">
        <ele>9.173525</ele>
        <time>2020-07-15T20:08:36.865Z</time>
      </trkpt>
      <trkpt lat="61.1125" lon="5.28643">
        <ele>10.445477</ele>
        <time>2020-07-15T20:08:45.765Z</time>
      </trkpt>
      <trkpt lat="61.11254" lon="5.28673">
        <ele>11.311241</ele>
        <time>2020-07-15T20:08:50.654Z</time>
      </trkpt>
      <trkpt lat="61.11263" lon="5.28694">
        <ele>12.13344</ele>
        <time>2020-07-15T20:08:54.902Z</time>
      </trkpt>
      <trkpt lat="61.11269" lon="5.28699">
        <ele>12.494471</ele>
        <time>2020-07-15T20:08:58.667Z</time>
      </trkpt>
      <trkpt lat="61.11271" lon="5.28701">
        <ele>12.636319</ele>
        <time>2020-07-15T20:09:00.306Z</time>
      </trkpt>
      <trkpt lat="61.11329" lon="5.28718">
        <ele>16.023842</ele>
        <time>2020-07-15T20:09:20.366Z</time>
      </trkpt>
      <trkpt lat="61.11349" lon="5.28742">
        <ele>17.012393</ele>
        <time>2020-07-15T20:09:29.832Z</time>
      </trkpt>
      <trkpt lat="61.11361" lon="5.2878">
        <ele>17.98757</ele>
        <time>2020-07-15T20:09:38.079Z</time>
      </trkpt>
      <trkpt lat="61.11383" lon="5.28924">
        <ele>21.189758</ele>
        <time>2020-07-15T20:10:02.830Z</time>
      </trkpt>
      <trkpt lat="61.11407" lon="5.28988">
        <ele>22.892178</ele>
        <time>2020-07-15T20:10:12.756Z</time>
      </trkpt>
      <trkpt lat="61.11418" lon="5.29019">
        <ele>23.684988</ele>
        <time>2020-07-15T20:10:17.542Z</time>
      </trkpt>
      <trkpt lat="61.1142" lon="5.29023">
        <ele>23.683997</ele>
        <time>2020-07-15T20:10:18.526Z</time>
      </trkpt>
      <trkpt lat="61.11439" lon="5.2908">
        <ele>23.672458</ele>
        <time>2020-07-15T20:10:25.999Z</time>
      </trkpt>
      <trkpt lat="61.11455" lon="5.29151">
        <ele>23.659322</ele>
        <time>2020-07-15T20:10:34.167Z</time>
      </trkpt>
      <trkpt lat="61.11481" lon="5.29391">
        <ele>23.18535</ele>
        <time>2020-07-15T20:10:52.688Z</time>
      </trkpt>
      <trkpt lat="61.11495" lon="5.29874">
        <ele>15.367629</ele>
        <time>2020-07-15T20:11:22.642Z</time>
      </trkpt>
      <trkpt lat="61.11508" lon="5.30032">
        <ele>12.431656</ele>
        <time>2020-07-15T20:11:32.461Z</time>
      </trkpt>
      <trkpt lat="61.11505" lon="5.30272">
        <ele>8.360358</ele>
        <time>2020-07-15T20:11:47.138Z</time>
      </trkpt>
      <trkpt lat="61.11513" lon="5.30394">
        <ele>6.345631</ele>
        <time>2020-07-15T20:11:54.907Z</time>
      </trkpt>
      <trkpt lat="61.1152" lon="5.30461">
        <ele>5.219221</ele>
        <time>2020-07-15T20:11:59.333Z</time>
      </trkpt>
      <trkpt lat="61.11524" lon="5.30504">
        <ele>4.759527</ele>
        <time>2020-07-15T20:12:02.173Z</time>
      </trkpt>
      <trkpt lat="61.11545" lon="5.30644">
        <ele>3.552847</ele>
        <time>2020-07-15T20:12:12.107Z</time>
      </trkpt>
      <trkpt lat="61.11599" lon="5.30802">
        <ele>1.978645</ele>
        <time>2020-07-15T20:12:26.198Z</time>
      </trkpt>
      <trkpt lat="61.11611" lon="5.30865">
        <ele>1.806707</ele>
        <time>2020-07-15T20:12:31.580Z</time>
      </trkpt>
      <trkpt lat="61.11627" lon="5.31001">
        <ele>1.471315</ele>
        <time>2020-07-15T20:12:42.677Z</time>
      </trkpt>
      <trkpt lat="61.117" lon="5.31332">
        <ele>0.966509</ele>
        <time>2020-07-15T20:13:12.786Z</time>
      </trkpt>
      <trkpt lat="61.11748" lon="5.31479">
        <ele>0.873546</ele>
        <time>2020-07-15T20:13:28.070Z</time>
      </trkpt>
      <trkpt lat="61.11838" lon="5.31695">
        <ele>0.899924</ele>
        <time>2020-07-15T20:13:52.960Z</time>
      </trkpt>
      <trkpt lat="61.11875" lon="5.31799">
        <ele>0.930425</ele>
        <time>2020-07-15T20:14:03.851Z</time>
      </trkpt>
      <trkpt lat="61.11937" lon="5.32123">
        <ele>1.209479</ele>
        <time>2020-07-15T20:14:34.211Z</time>
      </trkpt>
      <trkpt lat="61.11957" lon="5.32203">
        <ele>1.693314</ele>
        <time>2020-07-15T20:14:42.892Z</time>
      </trkpt>
      <trkpt lat="61.11964" lon="5.32226">
        <ele>1.839756</ele>
        <time>2020-07-15T20:14:45.609Z</time>
      </trkpt>
      <trkpt lat="61.11971" lon="5.32245">
        <ele>1.966133</ele>
        <time>2020-07-15T20:14:48.097Z</time>
      </trkpt>
      <trkpt lat="61.12011" lon="5.32345">
        <ele>2.663339</ele>
        <time>2020-07-15T20:15:01.904Z</time>
      </trkpt>
      <trkpt lat="61.12037" lon="5.32384">
        <ele>3.028793</ele>
        <time>2020-07-15T20:15:09.606Z</time>
      </trkpt>
      <trkpt lat="61.12069" lon="5.32414">
        <ele>3.589076</ele>
        <time>2020-07-15T20:15:18.118Z</time>
      </trkpt>
      <trkpt lat="61.12183" lon="5.32448">
        <ele>5.55705</ele>
        <time>2020-07-15T20:15:46.031Z</time>
      </trkpt>
      <trkpt lat="61.12281" lon="5.32443">
        <ele>6.642838</ele>
        <time>2020-07-15T20:16:06.616Z</time>
      </trkpt>
      <trkpt lat="61.12286" lon="5.32446">
        <ele>6.6791</ele>
        <time>2020-07-15T20:16:07.905Z</time>
      </trkpt>
      <trkpt lat="61.12293" lon="5.32448">
        <ele>6.732938</ele>
        <time>2020-07-15T20:16:08.898Z</time>
      </trkpt>
      <trkpt lat="61.12309" lon="5.32455">
        <ele>6.854644</ele>
        <time>2020-07-15T20:16:12.206Z</time>
      </trkpt>
      <trkpt lat="61.12372" lon="5.32513">
        <ele>7.375452</ele>
        <time>2020-07-15T20:16:25.911Z</time>
      </trkpt>
      <trkpt lat="61.12398" lon="5.32524">
        <ele>7.568678</ele>
        <time>2020-07-15T20:16:30.889Z</time>
      </trkpt>
      <trkpt lat="61.12437" lon="5.32534">
        <ele>7.848389</ele>
        <time>2020-07-15T20:16:38.717Z</time>
      </trkpt>
      <trkpt lat="61.12461" lon="5.3254">
        <ele>8.016892</ele>
        <time>2020-07-15T20:16:43.789Z</time>
      </trkpt>
      <trkpt lat="61.12498" lon="5.32547">
        <ele>8.283474</ele>
        <time>2020-07-15T20:16:51.463Z</time>
      </trkpt>
      <trkpt lat="61.12518" lon="5.32549">
        <ele>8.423608</ele>
        <time>2020-07-15T20:16:55.272Z</time>
      </trkpt>
      <trkpt lat="61.12558" lon="5.32527">
        <ele>8.71234</ele>
        <time>2020-07-15T20:17:03.716Z</time>
      </trkpt>
      <trkpt lat="61.1256" lon="5.32524">
        <ele>8.730295</ele>
        <time>2020-07-15T20:17:04.598Z</time>
      </trkpt>
      <trkpt lat="61.12563" lon="5.32521">
        <ele>8.755524</ele>
        <time>2020-07-15T20:17:05.306Z</time>
      </trkpt>
      <trkpt lat="61.12592" lon="5.32494">
        <ele>8.894645</ele>
        <time>2020-07-15T20:17:11.292Z</time>
      </trkpt>
      <trkpt lat="61.1263" lon="5.32476">
        <ele>9.043197</ele>
        <time>2020-07-15T20:17:18.975Z</time>
      </trkpt>
      <trkpt lat="61.12675" lon="5.32468">
        <ele>9.215503</ele>
        <time>2020-07-15T20:17:27.527Z</time>
      </trkpt>
      <trkpt lat="61.12712" lon="5.32474">
        <ele>9.355654</ele>
        <time>2020-07-15T20:17:34.432Z</time>
      </trkpt>
      <trkpt lat="61.12722" lon="5.3248">
        <ele>9.395967</ele>
        <time>2020-07-15T20:17:36.184Z</time>
      </trkpt>
      <trkpt lat="61.12733" lon="5.32488">
        <ele>9.438368</ele>
        <time>2020-07-15T20:17:38.083Z</time>
      </trkpt>
      <trkpt lat="61.12776" lon="5.32508">
        <ele>9.529422</ele>
        <time>2020-07-15T20:17:46.227Z</time>
      </trkpt>
      <trkpt lat="61.12807" lon="5.325">
        <ele>9.575596</ele>
        <time>2020-07-15T20:17:52.099Z</time>
      </trkpt>
      <trkpt lat="61.12833" lon="5.32468">
        <ele>9.620837</ele>
        <time>2020-07-15T20:17:58.051Z</time>
      </trkpt>
      <trkpt lat="61.12866" lon="5.3237">
        <ele>9.705299</ele>
        <time>2020-07-15T20:18:08.679Z</time>
      </trkpt>
      <trkpt lat="61.12886" lon="5.32339">
        <ele>9.742439</ele>
        <time>2020-07-15T20:18:13.504Z</time>
      </trkpt>
      <trkpt lat="61.12925" lon="5.3232">
        <ele>9.620075</ele>
        <time>2020-07-15T20:18:20.053Z</time>
      </trkpt>
      <trkpt lat="61.12981" lon="5.3233">
        <ele>9.434797</ele>
        <time>2020-07-15T20:18:29.532Z</time>
      </trkpt>
      <trkpt lat="61.12993" lon="5.32339">
        <ele>9.391971</ele>
        <time>2020-07-15T20:18:31.540Z</time>
      </trkpt>
      <trkpt lat="61.12998" lon="5.32344">
        <ele>9.37334</ele>
        <time>2020-07-15T20:18:32.282Z</time>
      </trkpt>
      <trkpt lat="61.13051" lon="5.32444">
        <ele>9.164839</ele>
        <time>2020-07-15T20:18:44.102Z</time>
      </trkpt>
      <trkpt lat="61.13129" lon="5.32633">
        <ele>9.581922</ele>
        <time>2020-07-15T20:19:07.928Z</time>
      </trkpt>
      <trkpt lat="61.13163" lon="5.32733">
        <ele>9.740218</ele>
        <time>2020-07-15T20:19:19.114Z</time>
      </trkpt>
      <trkpt lat="61.13165" lon="5.32738">
        <ele>9.70943</ele>
        <time>2020-07-15T20:19:20.423Z</time>
      </trkpt>
      <trkpt lat="61.1317" lon="5.32751">
        <ele>9.624383</ele>
        <time>2020-07-15T20:19:21.972Z</time>
      </trkpt>
      <trkpt lat="61.13186" lon="5.32837">
        <ele>9.163532</ele>
        <time>2020-07-15T20:19:29.452Z</time>
      </trkpt>
      <trkpt lat="61.13185" lon="5.32877">
        <ele>8.964923</ele>
        <time>2020-07-15T20:19:32.616Z</time>
      </trkpt>
      <trkpt lat="61.13171" lon="5.32978">
        <ele>8.43776</ele>
        <time>2020-07-15T20:19:40.138Z</time>
      </trkpt>
      <trkpt lat="61.1317" lon="5.32989">
        <ele>8.385264</ele>
        <time>2020-07-15T20:19:40.752Z</time>
      </trkpt>
      <trkpt lat="61.13165" lon="5.33025">
        <ele>8.194492</ele>
        <time>2020-07-15T20:19:43.772Z</time>
      </trkpt>
      <trkpt lat="61.13156" lon="5.33177">
        <ele>7.066554</ele>
        <time>2020-07-15T20:19:53.798Z</time>
      </trkpt>
      <trkpt lat="61.13154" lon="5.33198">
        <ele>6.878844</ele>
        <time>2020-07-15T20:19:55.226Z</time>
      </trkpt>
      <trkpt lat="61.13153" lon="5.33203">
        <ele>6.827536</ele>
        <time>2020-07-15T20:19:55.561Z</time>
      </trkpt>
      <trkpt lat="61.1315" lon="5.33247">
        <ele>6.444143</ele>
        <time>2020-07-15T20:19:58.471Z</time>
      </trkpt>
      <trkpt lat="61.1315" lon="5.33263">
        <ele>6.295487</ele>
        <time>2020-07-15T20:19:59.638Z</time>
      </trkpt>
      <trkpt lat="61.1315" lon="5.33279">
        <ele>6.158322</ele>
        <time>2020-07-15T20:20:00.602Z</time>
      </trkpt>
      <trkpt lat="61.13152" lon="5.33306">
        <ele>5.9206</ele>
        <time>2020-07-15T20:20:02.405Z</time>
      </trkpt>
      <trkpt lat="61.13153" lon="5.33324">
        <ele>5.756837</ele>
        <time>2020-07-15T20:20:03.734Z</time>
      </trkpt>
      <trkpt lat="61.13165" lon="5.33429">
        <ele>4.813548</ele>
        <time>2020-07-15T20:20:11.662Z</time>
      </trkpt>
      <trkpt lat="61.13182" lon="5.33512">
        <ele>4.650323</ele>
        <time>2020-07-15T20:20:18.782Z</time>
      </trkpt>
      <trkpt lat="61.13197" lon="5.33555">
        <ele>4.65816</ele>
        <time>2020-07-15T20:20:23.516Z</time>
      </trkpt>
      <trkpt lat="61.13237" lon="5.33625">
        <ele>4.67415</ele>
        <time>2020-07-15T20:20:33.336Z</time>
      </trkpt>
      <trkpt lat="61.1324" lon="5.33629">
        <ele>4.675185</ele>
        <time>2020-07-15T20:20:34.089Z</time>
      </trkpt>
      <trkpt lat="61.13316" lon="5.33747">
        <ele>5.1285</ele>
        <time>2020-07-15T20:20:51.762Z</time>
      </trkpt>
      <trkpt lat="61.13361" lon="5.33805">
        <ele>5.859481</ele>
        <time>2020-07-15T20:21:02.601Z</time>
      </trkpt>
      <trkpt lat="61.13399" lon="5.33873">
        <ele>6.566143</ele>
        <time>2020-07-15T20:21:13.561Z</time>
      </trkpt>
      <trkpt lat="61.13424" lon="5.33889">
        <ele>6.936119</ele>
        <time>2020-07-15T20:21:20.330Z</time>
      </trkpt>
      <trkpt lat="61.13448" lon="5.33891">
        <ele>7.355886</ele>
        <time>2020-07-15T20:21:26.521Z</time>
      </trkpt>
      <trkpt lat="61.13457" lon="5.33888">
        <ele>7.679707</ele>
        <time>2020-07-15T20:21:29.325Z</time>
      </trkpt>
      <trkpt lat="61.13515" lon="5.33876">
        <ele>9.614698</ele>
        <time>2020-07-15T20:21:45.957Z</time>
      </trkpt>
      <trkpt lat="61.1354" lon="5.33866">
        <ele>10.488636</ele>
        <time>2020-07-15T20:21:53.590Z</time>
      </trkpt>
      <trkpt lat="61.1356" lon="5.33855">
        <ele>11.180697</ele>
        <time>2020-07-15T20:22:00.456Z</time>
      </trkpt>
      <trkpt lat="61.13624" lon="5.33825">
        <ele>13.282596</ele>
        <time>2020-07-15T20:22:20.037Z</time>
      </trkpt>
      <trkpt lat="61.13646" lon="5.33818">
        <ele>13.342535</ele>
        <time>2020-07-15T20:22:25.371Z</time>
      </trkpt>
      <trkpt lat="61.13663" lon="5.33815">
        <ele>13.388098</ele>
        <time>2020-07-15T20:22:30.462Z</time>
      </trkpt>
      <trkpt lat="61.13696" lon="5.33804">
        <ele>13.481286</ele>
        <time>2020-07-15T20:22:37.808Z</time>
      </trkpt>
      <trkpt lat="61.13745" lon="5.33809">
        <ele>13.614754</ele>
        <time>2020-07-15T20:22:45.534Z</time>
      </trkpt>
      <trkpt lat="61.13803" lon="5.33867">
        <ele>13.466658</ele>
        <time>2020-07-15T20:22:55.273Z</time>
      </trkpt>
      <trkpt lat="61.13808" lon="5.33872">
        <ele>13.275333</ele>
        <time>2020-07-15T20:22:55.999Z</time>
      </trkpt>
      <trkpt lat="61.13812" lon="5.33876">
        <ele>13.157748</ele>
        <time>2020-07-15T20:22:56.484Z</time>
      </trkpt>
      <trkpt lat="61.13827" lon="5.33892">
        <ele>12.620029</ele>
        <time>2020-07-15T20:22:58.912Z</time>
      </trkpt>
      <trkpt lat="61.13848" lon="5.33915">
        <ele>11.895728</ele>
        <time>2020-07-15T20:23:01.835Z</time>
      </trkpt>
      <trkpt lat="61.13866" lon="5.33943">
        <ele>11.193667</ele>
        <time>2020-07-15T20:23:04.778Z</time>
      </trkpt>
      <trkpt lat="61.13888" lon="5.33999">
        <ele>10.13217</ele>
        <time>2020-07-15T20:23:09.124Z</time>
      </trkpt>
      <trkpt lat="61.13925" lon="5.34142">
        <ele>8.382976</ele>
        <time>2020-07-15T20:23:19.201Z</time>
      </trkpt>
      <trkpt lat="61.13933" lon="5.34186">
        <ele>8.620805</ele>
        <time>2020-07-15T20:23:22.358Z</time>
      </trkpt>
      <trkpt lat="61.13949" lon="5.34263">
        <ele>9.04834</ele>
        <time>2020-07-15T20:23:30.022Z</time>
      </trkpt>
      <trkpt lat="61.13963" lon="5.34334">
        <ele>9.431668</ele>
        <time>2020-07-15T20:23:37.681Z</time>
      </trkpt>
      <trkpt lat="61.14" lon="5.34427">
        <ele>10.048966</ele>
        <time>2020-07-15T20:23:51.648Z</time>
      </trkpt>
      <trkpt lat="61.14005" lon="5.34436">
        <ele>10.272651</ele>
        <time>2020-07-15T20:23:53.196Z</time>
      </trkpt>
      <trkpt lat="61.14017" lon="5.34463">
        <ele>12.505218</ele>
        <time>2020-07-15T20:23:59.216Z</time>
      </trkpt>
      <trkpt lat="61.14099" lon="5.34645">
        <ele>27.562577</ele>
        <time>2020-07-15T20:25:08.151Z</time>
      </trkpt>
      <trkpt lat="61.14109" lon="5.34684">
        <ele>30.282394</ele>
        <time>2020-07-15T20:25:27.627Z</time>
      </trkpt>
      <trkpt lat="61.14112" lon="5.34698">
        <ele>31.198651</ele>
        <time>2020-07-15T20:25:33.066Z</time>
      </trkpt>
      <trkpt lat="61.14116" lon="5.34723">
        <ele>32.750478</ele>
        <time>2020-07-15T20:25:44.153Z</time>
      </trkpt>
      <trkpt lat="61.14133" lon="5.34854">
        <ele>41.994505</ele>
        <time>2020-07-15T20:26:33.707Z</time>
      </trkpt>
      <trkpt lat="61.14133" lon="5.34883">
        <ele>44.013926</ele>
        <time>2020-07-15T20:26:42.775Z</time>
      </trkpt>
      <trkpt lat="61.14131" lon="5.34893">
        <ele>44.749859</ele>
        <time>2020-07-15T20:26:47.645Z</time>
      </trkpt>
      <trkpt lat="61.1412" lon="5.34932">
        <ele>47.784471</ele>
        <time>2020-07-15T20:27:01.844Z</time>
      </trkpt>
      <trkpt lat="61.14117" lon="5.34945">
        <ele>48.808415</ele>
        <time>2020-07-15T20:27:05.679Z</time>
      </trkpt>
      <trkpt lat="61.14122" lon="5.34956">
        <ele>49.878287</ele>
        <time>2020-07-15T20:27:12.424Z</time>
      </trkpt>
      <trkpt lat="61.14135" lon="5.34986">
        <ele>52.644734</ele>
        <time>2020-07-15T20:27:24.428Z</time>
      </trkpt>
      <trkpt lat="61.14146" lon="5.35017">
        <ele>55.246893</ele>
        <time>2020-07-15T20:27:36.214Z</time>
      </trkpt>
      <trkpt lat="61.1415" lon="5.3503">
        <ele>56.274401</ele>
        <time>2020-07-15T20:27:38.363Z</time>
      </trkpt>
      <trkpt lat="61.14188" lon="5.35266">
        <ele>54.280916</ele>
        <time>2020-07-15T20:28:05.514Z</time>
      </trkpt>
      <trkpt lat="61.14226" lon="5.35413">
        <ele>50.783714</ele>
        <time>2020-07-15T20:28:14.041Z</time>
      </trkpt>
      <trkpt lat="61.14247" lon="5.35471">
        <ele>46.750561</ele>
        <time>2020-07-15T20:28:17.710Z</time>
      </trkpt>
      <trkpt lat="61.14258" lon="5.35487">
        <ele>45.127074</ele>
        <time>2020-07-15T20:28:19.135Z</time>
      </trkpt>
      <trkpt lat="61.14267" lon="5.35496">
        <ele>44.043411</ele>
        <time>2020-07-15T20:28:20.160Z</time>
      </trkpt>
      <trkpt lat="61.14273" lon="5.35501">
        <ele>43.300294</ele>
        <time>2020-07-15T20:28:20.867Z</time>
      </trkpt>
      <trkpt lat="61.14278" lon="5.35506">
        <ele>42.615434</ele>
        <time>2020-07-15T20:28:21.506Z</time>
      </trkpt>
      <trkpt lat="61.1429" lon="5.35513">
        <ele>41.16306</ele>
        <time>2020-07-15T20:28:22.785Z</time>
      </trkpt>
      <trkpt lat="61.1431" lon="5.35517">
        <ele>38.77632</ele>
        <time>2020-07-15T20:28:25.050Z</time>
      </trkpt>
      <trkpt lat="61.14333" lon="5.35503">
        <ele>36.019837</ele>
        <time>2020-07-15T20:28:27.541Z</time>
      </trkpt>
      <trkpt lat="61.14381" lon="5.35423">
        <ele>30.100819</ele>
        <time>2020-07-15T20:28:34.171Z</time>
      </trkpt>
      <trkpt lat="61.14468" lon="5.35221">
        <ele>24.185633</ele>
        <time>2020-07-15T20:28:50.683Z</time>
      </trkpt>
      <trkpt lat="61.14537" lon="5.34963">
        <ele>22.342388</ele>
        <time>2020-07-15T20:29:13.438Z</time>
      </trkpt>
      <trkpt lat="61.14596" lon="5.34791">
        <ele>22.992151</ele>
        <time>2020-07-15T20:29:33.289Z</time>
      </trkpt>
      <trkpt lat="61.14625" lon="5.34734">
        <ele>24.072771</ele>
        <time>2020-07-15T20:29:42.255Z</time>
      </trkpt>
      <trkpt lat="61.14664" lon="5.34677">
        <ele>25.390947</ele>
        <time>2020-07-15T20:29:55.570Z</time>
      </trkpt>
      <trkpt lat="61.14715" lon="5.34632">
        <ele>26.931011</ele>
        <time>2020-07-15T20:30:14.182Z</time>
      </trkpt>
      <trkpt lat="61.14741" lon="5.3462">
        <ele>27.888869</ele>
        <time>2020-07-15T20:30:22.911Z</time>
      </trkpt>
      <trkpt lat="61.14807" lon="5.34603">
        <ele>30.347431</ele>
        <time>2020-07-15T20:30:42.404Z</time>
      </trkpt>
      <trkpt lat="61.1482" lon="5.34598">
        <ele>30.832799</ele>
        <time>2020-07-15T20:30:46.478Z</time>
      </trkpt>
      <trkpt lat="61.14854" lon="5.34578">
        <ele>32.159117</ele>
        <time>2020-07-15T20:30:57.032Z</time>
      </trkpt>
      <trkpt lat="61.14869" lon="5.34562">
        <ele>32.786476</ele>
        <time>2020-07-15T20:31:02.381Z</time>
      </trkpt>
      <trkpt lat="61.14891" lon="5.34537">
        <ele>33.719604</ele>
        <time>2020-07-15T20:31:09.522Z</time>
      </trkpt>
      <trkpt lat="61.14905" lon="5.34518">
        <ele>34.483227</ele>
        <time>2020-07-15T20:31:13.827Z</time>
      </trkpt>
      <trkpt lat="61.14972" lon="5.34379">
        <ele>38.954836</ele>
        <time>2020-07-15T20:31:37.902Z</time>
      </trkpt>
      <trkpt lat="61.15001" lon="5.34337">
        <ele>40.614723</ele>
        <time>2020-07-15T20:31:50.469Z</time>
      </trkpt>
      <trkpt lat="61.15046" lon="5.34317">
        <ele>43.550853</ele>
        <time>2020-07-15T20:32:12.527Z</time>
      </trkpt>
      <trkpt lat="61.15075" lon="5.34326">
        <ele>46.725659</ele>
        <time>2020-07-15T20:32:26.574Z</time>
      </trkpt>
      <trkpt lat="61.15098" lon="5.34344">
        <ele>49.257958</ele>
        <time>2020-07-15T20:32:37.854Z</time>
      </trkpt>
      <trkpt lat="61.15101" lon="5.34348">
        <ele>49.689441</ele>
        <time>2020-07-15T20:32:40.076Z</time>
      </trkpt>
      <trkpt lat="61.15113" lon="5.34365">
        <ele>51.271139</ele>
        <time>2020-07-15T20:32:50.535Z</time>
      </trkpt>
      <trkpt lat="61.15171" lon="5.34491">
        <ele>60.178611</ele>
        <time>2020-07-15T20:33:35.695Z</time>
      </trkpt>
      <trkpt lat="61.15219" lon="5.34573">
        <ele>63.81964</ele>
        <time>2020-07-15T20:34:11.669Z</time>
      </trkpt>
      <trkpt lat="61.15294" lon="5.34757">
        <ele>69.314394</ele>
        <time>2020-07-15T20:34:44.105Z</time>
      </trkpt>
      <trkpt lat="61.15367" lon="5.34848">
        <ele>67.133232</ele>
        <time>2020-07-15T20:34:54.827Z</time>
      </trkpt>
      <trkpt lat="61.15422" lon="5.34906">
        <ele>64.75747</ele>
        <time>2020-07-15T20:35:02.564Z</time>
      </trkpt>
      <trkpt lat="61.15433" lon="5.34916">
        <ele>64.328384</ele>
        <time>2020-07-15T20:35:03.815Z</time>
      </trkpt>
      <trkpt lat="61.15467" lon="5.34949">
        <ele>62.914005</ele>
        <time>2020-07-15T20:35:08.369Z</time>
      </trkpt>
      <trkpt lat="61.15554" lon="5.35019">
        <ele>59.654888</ele>
        <time>2020-07-15T20:35:19.928Z</time>
      </trkpt>
      <trkpt lat="61.15599" lon="5.35053">
        <ele>57.996385</ele>
        <time>2020-07-15T20:35:26.345Z</time>
      </trkpt>
      <trkpt lat="61.15606" lon="5.35022">
        <ele>57.429616</ele>
        <time>2020-07-15T20:35:28.495Z</time>
      </trkpt>
      <trkpt lat="61.15649" lon="5.34843">
        <ele>55.762461</ele>
        <time>2020-07-15T20:35:44.200Z</time>
      </trkpt>
      <trkpt lat="61.15659" lon="5.34746">
        <ele>55.127186</ele>
        <time>2020-07-15T20:35:50.761Z</time>
      </trkpt>
      <trkpt lat="61.1566" lon="5.34719">
        <ele>54.954092</ele>
        <time>2020-07-15T20:35:53.644Z</time>
      </trkpt>
      <trkpt lat="61.15659" lon="5.34704">
        <ele>54.855381</ele>
        <time>2020-07-15T20:35:54.608Z</time>
      </trkpt>
      <trkpt lat="61.15651" lon="5.34619">
        <ele>54.378356</ele>
        <time>2020-07-15T20:36:00.845Z</time>
      </trkpt>
      <trkpt lat="61.15611" lon="5.34451">
        <ele>53.972062</ele>
        <time>2020-07-15T20:36:14.952Z</time>
      </trkpt>
      <trkpt lat="61.15596" lon="5.34407">
        <ele>53.855524</ele>
        <time>2020-07-15T20:36:18.985Z</time>
      </trkpt>
      <trkpt lat="61.15577" lon="5.3438">
        <ele>53.749543</ele>
        <time>2020-07-15T20:36:22.825Z</time>
      </trkpt>
      <trkpt lat="61.15554" lon="5.34366">
        <ele>53.643364</ele>
        <time>2020-07-15T20:36:26.972Z</time>
      </trkpt>
      <trkpt lat="61.15503" lon="5.34376">
        <ele>55.534108</ele>
        <time>2020-07-15T20:36:38.568Z</time>
      </trkpt>
      <trkpt lat="61.15496" lon="5.34356">
        <ele>56.051656</ele>
        <time>2020-07-15T20:36:41.712Z</time>
      </trkpt>
      <trkpt lat="61.15506" lon="5.34322">
        <ele>56.906981</ele>
        <time>2020-07-15T20:36:47.644Z</time>
      </trkpt>
      <trkpt lat="61.15531" lon="5.34292">
        <ele>58.161295</ele>
        <time>2020-07-15T20:36:57.068Z</time>
      </trkpt>
      <trkpt lat="61.15549" lon="5.34282">
        <ele>59.00232</ele>
        <time>2020-07-15T20:37:04.056Z</time>
      </trkpt>
      <trkpt lat="61.15596" lon="5.34272">
        <ele>61.086437</ele>
        <time>2020-07-15T20:37:22.706Z</time>
      </trkpt>
      <trkpt lat="61.15634" lon="5.34278">
        <ele>63.857815</ele>
        <time>2020-07-15T20:37:38.619Z</time>
      </trkpt>
      <trkpt lat="61.15645" lon="5.34306">
        <ele>65.352689</ele>
        <time>2020-07-15T20:37:46.371Z</time>
      </trkpt>
      <trkpt lat="61.15669" lon="5.34404">
        <ele>69.779487</ele>
        <time>2020-07-15T20:38:09.791Z</time>
      </trkpt>
      <trkpt lat="61.15724" lon="5.34515">
        <ele>76.302192</ele>
        <time>2020-07-15T20:38:46.384Z</time>
      </trkpt>
      <trkpt lat="61.15739" lon="5.3453">
        <ele>77.750351</ele>
        <time>2020-07-15T20:38:54.282Z</time>
      </trkpt>
      <trkpt lat="61.15746" lon="5.34518">
        <ele>78.565665</ele>
        <time>2020-07-15T20:38:58.502Z</time>
      </trkpt>
      <trkpt lat="61.15743" lon="5.34498">
        <ele>79.479772</ele>
        <time>2020-07-15T20:39:03.066Z</time>
      </trkpt>
      <trkpt lat="61.15713" lon="5.34441">
        <ele>83.200438</ele>
        <time>2020-07-15T20:39:21.857Z</time>
      </trkpt>
      <trkpt lat="61.15699" lon="5.34384">
        <ele>85.971091</ele>
        <time>2020-07-15T20:39:35.913Z</time>
      </trkpt>
      <trkpt lat="61.15697" lon="5.34343">
        <ele>87.771653</ele>
        <time>2020-07-15T20:39:45.358Z</time>
      </trkpt>
      <trkpt lat="61.15708" lon="5.34305">
        <ele>89.688333</ele>
        <time>2020-07-15T20:39:55.310Z</time>
      </trkpt>
      <trkpt lat="61.15722" lon="5.3429">
        <ele>91.093678</ele>
        <time>2020-07-15T20:40:02.890Z</time>
      </trkpt>
      <trkpt lat="61.15734" lon="5.34288">
        <ele>92.240535</ele>
        <time>2020-07-15T20:40:08.917Z</time>
      </trkpt>
      <trkpt lat="61.15781" lon="5.34339">
        <ele>96.291614</ele>
        <time>2020-07-15T20:40:34.187Z</time>
      </trkpt>
      <trkpt lat="61.15815" lon="5.34352">
        <ele>98.790197</ele>
        <time>2020-07-15T20:40:49.583Z</time>
      </trkpt>
      <trkpt lat="61.15868" lon="5.34306">
        <ele>103.038922</ele>
        <time>2020-07-15T20:41:12.500Z</time>
      </trkpt>
      <trkpt lat="61.15894" lon="5.34262">
        <ele>105.518656</ele>
        <time>2020-07-15T20:41:24.764Z</time>
      </trkpt>
      <trkpt lat="61.15903" lon="5.34238">
        <ele>106.450122</ele>
        <time>2020-07-15T20:41:30.527Z</time>
      </trkpt>
      <trkpt lat="61.15904" lon="5.34232">
        <ele>106.585484</ele>
        <time>2020-07-15T20:41:31.109Z</time>
      </trkpt>
      <trkpt lat="61.15921" lon="5.34059">
        <ele>110.268373</ele>
        <time>2020-07-15T20:41:58.523Z</time>
      </trkpt>
      <trkpt lat="61.15927" lon="5.34017">
        <ele>111.203136</ele>
        <time>2020-07-15T20:42:05.320Z</time>
      </trkpt>
      <trkpt lat="61.15946" lon="5.33955">
        <ele>112.719156</ele>
        <time>2020-07-15T20:42:15.638Z</time>
      </trkpt>
      <trkpt lat="61.15983" lon="5.3389">
        <ele>114.768465</ele>
        <time>2020-07-15T20:42:29.027Z</time>
      </trkpt>
      <trkpt lat="61.16115" lon="5.33745">
        <ele>120.772215</ele>
        <time>2020-07-15T20:43:16.199Z</time>
      </trkpt>
      <trkpt lat="61.1614" lon="5.33708">
        <ele>121.629851</ele>
        <time>2020-07-15T20:43:26.014Z</time>
      </trkpt>
      <trkpt lat="61.16167" lon="5.33638">
        <ele>122.437457</ele>
        <time>2020-07-15T20:43:38.466Z</time>
      </trkpt>
      <trkpt lat="61.16185" lon="5.33567">
        <ele>123.167794</ele>
        <time>2020-07-15T20:43:47.972Z</time>
      </trkpt>
      <trkpt lat="61.1619" lon="5.33541">
        <ele>123.42072</ele>
        <time>2020-07-15T20:43:51.744Z</time>
      </trkpt>
      <trkpt lat="61.16196" lon="5.33517">
        <ele>123.659478</ele>
        <time>2020-07-15T20:43:53.966Z</time>
      </trkpt>
      <trkpt lat="61.16228" lon="5.33368">
        <ele>124.29291</ele>
        <time>2020-07-15T20:44:07.313Z</time>
      </trkpt>
      <trkpt lat="61.16233" lon="5.33326">
        <ele>123.998277</ele>
        <time>2020-07-15T20:44:11.148Z</time>
      </trkpt>
      <trkpt lat="61.16233" lon="5.33303">
        <ele>123.84256</ele>
        <time>2020-07-15T20:44:12.658Z</time>
      </trkpt>
      <trkpt lat="61.16233" lon="5.33281">
        <ele>123.689524</ele>
        <time>2020-07-15T20:44:14.286Z</time>
      </trkpt>
      <trkpt lat="61.16228" lon="5.33239">
        <ele>123.391302</ele>
        <time>2020-07-15T20:44:17.634Z</time>
      </trkpt>
      <trkpt lat="61.16216" lon="5.33166">
        <ele>122.863314</ele>
        <time>2020-07-15T20:44:23.134Z</time>
      </trkpt>
      <trkpt lat="61.16211" lon="5.33141">
        <ele>122.679374</ele>
        <time>2020-07-15T20:44:24.937Z</time>
      </trkpt>
      <trkpt lat="61.16192" lon="5.33015">
        <ele>120.887331</ele>
        <time>2020-07-15T20:44:33.476Z</time>
      </trkpt>
      <trkpt lat="61.16188" lon="5.32923">
        <ele>118.515312</ele>
        <time>2020-07-15T20:44:39.374Z</time>
      </trkpt>
      <trkpt lat="61.16189" lon="5.32879">
        <ele>117.401112</ele>
        <time>2020-07-15T20:44:42.109Z</time>
      </trkpt>
      <trkpt lat="61.1619" lon="5.3286">
        <ele>116.898484</ele>
        <time>2020-07-15T20:44:43.294Z</time>
      </trkpt>
      <trkpt lat="61.16193" lon="5.32832">
        <ele>116.167364</ele>
        <time>2020-07-15T20:44:45.001Z</time>
      </trkpt>
      <trkpt lat="61.1621" lon="5.32748">
        <ele>113.846531</ele>
        <time>2020-07-15T20:44:49.952Z</time>
      </trkpt>
      <trkpt lat="61.16235" lon="5.326">
        <ele>106.841694</ele>
        <time>2020-07-15T20:44:58.315Z</time>
      </trkpt>
      <trkpt lat="61.16239" lon="5.32547">
        <ele>104.007263</ele>
        <time>2020-07-15T20:45:01.087Z</time>
      </trkpt>
      <trkpt lat="61.16239" lon="5.32515">
        <ele>102.28048</ele>
        <time>2020-07-15T20:45:02.722Z</time>
      </trkpt>
      <trkpt lat="61.16224" lon="5.32351">
        <ele>93.32433</ele>
        <time>2020-07-15T20:45:11.334Z</time>
      </trkpt>
      <trkpt lat="61.16245" lon="5.32182">
        <ele>86.552175</ele>
        <time>2020-07-15T20:45:20.327Z</time>
      </trkpt>
      <trkpt lat="61.16246" lon="5.32117">
        <ele>84.077301</ele>
        <time>2020-07-15T20:45:24.039Z</time>
      </trkpt>
      <trkpt lat="61.16245" lon="5.32104">
        <ele>83.586998</ele>
        <time>2020-07-15T20:45:24.702Z</time>
      </trkpt>
      <trkpt lat="61.1624" lon="5.32062">
        <ele>81.966075</ele>
        <time>2020-07-15T20:45:27.267Z</time>
      </trkpt>
      <trkpt lat="61.16235" lon="5.3196">
        <ele>78.536594</ele>
        <time>2020-07-15T20:45:33.383Z</time>
      </trkpt>
      <trkpt lat="61.16243" lon="5.31882">
        <ele>78.614397</ele>
        <time>2020-07-15T20:45:38.577Z</time>
      </trkpt>
      <trkpt lat="61.16321" lon="5.31544">
        <ele>79.492772</ele>
        <time>2020-07-15T20:46:20.890Z</time>
      </trkpt>
      <trkpt lat="61.16344" lon="5.31289">
        <ele>81.163311</ele>
        <time>2020-07-15T20:46:49.919Z</time>
      </trkpt>
      <trkpt lat="61.16368" lon="5.31196">
        <ele>80.350463</ele>
        <time>2020-07-15T20:46:59.174Z</time>
      </trkpt>
      <trkpt lat="61.16432" lon="5.31075">
        <ele>78.394858</ele>
        <time>2020-07-15T20:47:10.957Z</time>
      </trkpt>
      <trkpt lat="61.16442" lon="5.31034">
        <ele>77.897586</ele>
        <time>2020-07-15T20:47:13.783Z</time>
      </trkpt>
      <trkpt lat="61.16444" lon="5.30985">
        <ele>77.366592</ele>
        <time>2020-07-15T20:47:16.721Z</time>
      </trkpt>
      <trkpt lat="61.16441" lon="5.30967">
        <ele>77.051606</ele>
        <time>2020-07-15T20:47:17.870Z</time>
      </trkpt>
      <trkpt lat="61.1643" lon="5.30919">
        <ele>75.578269</ele>
        <time>2020-07-15T20:47:20.995Z</time>
      </trkpt>
      <trkpt lat="61.16385" lon="5.30755">
        <ele>70.358684</ele>
        <time>2020-07-15T20:47:31.792Z</time>
      </trkpt>
      <trkpt lat="61.16368" lon="5.30638">
        <ele>66.955552</ele>
        <time>2020-07-15T20:47:38.694Z</time>
      </trkpt>
      <trkpt lat="61.16363" lon="5.30556">
        <ele>63.934751</ele>
        <time>2020-07-15T20:47:43.191Z</time>
      </trkpt>
      <trkpt lat="61.16368" lon="5.30507">
        <ele>62.055958</ele>
        <time>2020-07-15T20:47:45.973Z</time>
      </trkpt>
      <trkpt lat="61.16382" lon="5.30459">
        <ele>60.017925</ele>
        <time>2020-07-15T20:47:48.948Z</time>
      </trkpt>
      <trkpt lat="61.16433" lon="5.30362">
        <ele>54.694302</ele>
        <time>2020-07-15T20:47:56.729Z</time>
      </trkpt>
      <trkpt lat="61.16441" lon="5.30341">
        <ele>53.674002</ele>
        <time>2020-07-15T20:47:58.212Z</time>
      </trkpt>
      <trkpt lat="61.16449" lon="5.3032">
        <ele>52.748881</ele>
        <time>2020-07-15T20:47:59.612Z</time>
      </trkpt>
      <trkpt lat="61.16487" lon="5.30233">
        <ele>49.232421</ele>
        <time>2020-07-15T20:48:06.153Z</time>
      </trkpt>
      <trkpt lat="61.16553" lon="5.30169">
        <ele>44.719492</ele>
        <time>2020-07-15T20:48:14.578Z</time>
      </trkpt>
      <trkpt lat="61.16566" lon="5.3016">
        <ele>43.900574</ele>
        <time>2020-07-15T20:48:16.039Z</time>
      </trkpt>
      <trkpt lat="61.16576" lon="5.30153">
        <ele>43.241508</ele>
        <time>2020-07-15T20:48:17.479Z</time>
      </trkpt>
      <trkpt lat="61.166" lon="5.30127">
        <ele>41.791703</ele>
        <time>2020-07-15T20:48:21.175Z</time>
      </trkpt>
      <trkpt lat="61.16639" lon="5.3005">
        <ele>40.747715</ele>
        <time>2020-07-15T20:48:28.770Z</time>
      </trkpt>
      <trkpt lat="61.16652" lon="5.30011">
        <ele>40.296422</ele>
        <time>2020-07-15T20:48:31.972Z</time>
      </trkpt>
      <trkpt lat="61.16654" lon="5.30005">
        <ele>40.231992</ele>
        <time>2020-07-15T20:48:32.481Z</time>
      </trkpt>
      <trkpt lat="61.16675" lon="5.29962">
        <ele>39.650554</ele>
        <time>2020-07-15T20:48:36.829Z</time>
      </trkpt>
      <trkpt lat="61.16693" lon="5.29941">
        <ele>39.23826</ele>
        <time>2020-07-15T20:48:40.284Z</time>
      </trkpt>
      <trkpt lat="61.16714" lon="5.29924">
        <ele>38.798726</ele>
        <time>2020-07-15T20:48:43.851Z</time>
      </trkpt>
      <trkpt lat="61.16729" lon="5.29916">
        <ele>38.499753</ele>
        <time>2020-07-15T20:48:46.132Z</time>
      </trkpt>
      <trkpt lat="61.16754" lon="5.29903">
        <ele>37.856075</ele>
        <time>2020-07-15T20:48:50.041Z</time>
      </trkpt>
      <trkpt lat="61.16767" lon="5.29897">
        <ele>37.522657</ele>
        <time>2020-07-15T20:48:51.796Z</time>
      </trkpt>
      <trkpt lat="61.16816" lon="5.2986">
        <ele>36.154473</ele>
        <time>2020-07-15T20:48:59.347Z</time>
      </trkpt>
      <trkpt lat="61.16843" lon="5.29829">
        <ele>35.356774</ele>
        <time>2020-07-15T20:49:03.563Z</time>
      </trkpt>
      <trkpt lat="61.16852" lon="5.29819">
        <ele>35.083549</ele>
        <time>2020-07-15T20:49:05.034Z</time>
      </trkpt>
      <trkpt lat="61.16861" lon="5.29812">
        <ele>34.842805</ele>
        <time>2020-07-15T20:49:06.297Z</time>
      </trkpt>
      <trkpt lat="61.16868" lon="5.29804">
        <ele>34.630362</ele>
        <time>2020-07-15T20:49:07.216Z</time>
      </trkpt>
      <trkpt lat="61.1688" lon="5.29795">
        <ele>34.309113</ele>
        <time>2020-07-15T20:49:09.059Z</time>
      </trkpt>
      <trkpt lat="61.16897" lon="5.29784">
        <ele>33.846906</ele>
        <time>2020-07-15T20:49:11.412Z</time>
      </trkpt>
      <trkpt lat="61.16904" lon="5.2978">
        <ele>33.622285</ele>
        <time>2020-07-15T20:49:12.185Z</time>
      </trkpt>
      <trkpt lat="61.16952" lon="5.29771">
        <ele>31.264163</ele>
        <time>2020-07-15T20:49:18.121Z</time>
      </trkpt>
      <trkpt lat="61.16975" lon="5.29773">
        <ele>30.133046</ele>
        <time>2020-07-15T20:49:20.939Z</time>
      </trkpt>
      <trkpt lat="61.16993" lon="5.29777">
        <ele>29.274495</ele>
        <time>2020-07-15T20:49:23.118Z</time>
      </trkpt>
      <trkpt lat="61.17002" lon="5.29773">
        <ele>28.844969</ele>
        <time>2020-07-15T20:49:24.272Z</time>
      </trkpt>
      <trkpt lat="61.17004" lon="5.29768">
        <ele>28.686741</ele>
        <time>2020-07-15T20:49:24.660Z</time>
      </trkpt>
      <trkpt lat="61.17006" lon="5.29761">
        <ele>28.504858</ele>
        <time>2020-07-15T20:49:25.053Z</time>
      </trkpt>
      <trkpt lat="61.17023" lon="5.29698">
        <ele>26.800718</ele>
        <time>2020-07-15T20:49:29.333Z</time>
      </trkpt>
      <trkpt lat="61.1703" lon="5.29688">
        <ele>26.384378</ele>
        <time>2020-07-15T20:49:30.325Z</time>
      </trkpt>
      <trkpt lat="61.17034" lon="5.29682">
        <ele>26.136909</ele>
        <time>2020-07-15T20:49:30.938Z</time>
      </trkpt>
      <trkpt lat="61.17099" lon="5.29628">
        <ele>23.502865</ele>
        <time>2020-07-15T20:49:39.471Z</time>
      </trkpt>
      <trkpt lat="61.17116" lon="5.2961">
        <ele>22.878834</ele>
        <time>2020-07-15T20:49:42.068Z</time>
      </trkpt>
      <trkpt lat="61.17132" lon="5.29609">
        <ele>22.353613</ele>
        <time>2020-07-15T20:49:43.947Z</time>
      </trkpt>
      <trkpt lat="61.17275" lon="5.29624">
        <ele>19.140317</ele>
        <time>2020-07-15T20:50:03.981Z</time>
      </trkpt>
      <trkpt lat="61.17293" lon="5.29641">
        <ele>19.130675</ele>
        <time>2020-07-15T20:50:07.349Z</time>
      </trkpt>
      <trkpt lat="61.17311" lon="5.29693">
        <ele>19.115693</ele>
        <time>2020-07-15T20:50:14.500Z</time>
      </trkpt>
      <trkpt lat="61.17322" lon="5.29793">
        <ele>19.091985</ele>
        <time>2020-07-15T20:50:25.546Z</time>
      </trkpt>
      <trkpt lat="61.17367" lon="5.2991">
        <ele>18.012184</ele>
        <time>2020-07-15T20:50:38.989Z</time>
      </trkpt>
      <trkpt lat="61.17372" lon="5.29931">
        <ele>17.678491</ele>
        <time>2020-07-15T20:50:41.628Z</time>
      </trkpt>
      <trkpt lat="61.17377" lon="5.29952">
        <ele>17.358514</ele>
        <time>2020-07-15T20:50:43.006Z</time>
      </trkpt>
      <trkpt lat="61.17394" lon="5.29996">
        <ele>16.561457</ele>
        <time>2020-07-15T20:50:46.835Z</time>
      </trkpt>
      <trkpt lat="61.1742" lon="5.30014">
        <ele>15.764949</ele>
        <time>2020-07-15T20:50:50.135Z</time>
      </trkpt>
      <trkpt lat="61.17428" lon="5.30014">
        <ele>15.535895</ele>
        <time>2020-07-15T20:50:52.053Z</time>
      </trkpt>
      <trkpt lat="61.17435" lon="5.3001">
        <ele>15.319416</ele>
        <time>2020-07-15T20:50:52.900Z</time>
      </trkpt>
      <trkpt lat="61.17449" lon="5.29997">
        <ele>14.879389</ele>
        <time>2020-07-15T20:50:54.657Z</time>
      </trkpt>
      <trkpt lat="61.17462" lon="5.29964">
        <ele>14.282664</ele>
        <time>2020-07-15T20:50:57.394Z</time>
      </trkpt>
      <trkpt lat="61.17468" lon="5.29945">
        <ele>13.973779</ele>
        <time>2020-07-15T20:50:58.579Z</time>
      </trkpt>
      <trkpt lat="61.1748" lon="5.2988">
        <ele>12.891872</ele>
        <time>2020-07-15T20:51:02.626Z</time>
      </trkpt>
      <trkpt lat="61.175" lon="5.29806">
        <ele>11.576615</ele>
        <time>2020-07-15T20:51:07.450Z</time>
      </trkpt>
      <trkpt lat="61.17521" lon="5.29772">
        <ele>10.711304</ele>
        <time>2020-07-15T20:51:10.651Z</time>
      </trkpt>
      <trkpt lat="61.17548" lon="5.29753">
        <ele>9.810614</ele>
        <time>2020-07-15T20:51:14.186Z</time>
      </trkpt>
      <trkpt lat="61.17583" lon="5.2976">
        <ele>8.670389</ele>
        <time>2020-07-15T20:51:19.305Z</time>
      </trkpt>
      <trkpt lat="61.17597" lon="5.29768">
        <ele>8.191203</ele>
        <time>2020-07-15T20:51:21.528Z</time>
      </trkpt>
      <trkpt lat="61.17607" lon="5.29774">
        <ele>8.347414</ele>
        <time>2020-07-15T20:51:25.258Z</time>
      </trkpt>
      <trkpt lat="61.17683" lon="5.29831">
        <ele>12.278007</ele>
        <time>2020-07-15T20:51:49.480Z</time>
      </trkpt>
      <trkpt lat="61.17704" lon="5.29852">
        <ele>13.389193</ele>
        <time>2020-07-15T20:51:57.543Z</time>
      </trkpt>
      <trkpt lat="61.17717" lon="5.29866">
        <ele>14.132868</ele>
        <time>2020-07-15T20:52:04.051Z</time>
      </trkpt>
      <trkpt lat="61.17775" lon="5.29919">
        <ele>17.211625</ele>
        <time>2020-07-15T20:52:30.235Z</time>
      </trkpt>
      <trkpt lat="61.1783" lon="5.29948">
        <ele>20.105329</ele>
        <time>2020-07-15T20:52:53.827Z</time>
      </trkpt>
      <trkpt lat="61.17851" lon="5.29959">
        <ele>21.213337</ele>
        <time>2020-07-15T20:53:02.770Z</time>
      </trkpt>
      <trkpt lat="61.17861" lon="5.29963">
        <ele>21.718131</ele>
        <time>2020-07-15T20:53:05.795Z</time>
      </trkpt>
      <trkpt lat="61.17892" lon="5.29979">
        <ele>23.351398</ele>
        <time>2020-07-15T20:53:15.601Z</time>
      </trkpt>
      <trkpt lat="61.17946" lon="5.30006">
        <ele>25.981329</ele>
        <time>2020-07-15T20:53:31.522Z</time>
      </trkpt>
      <trkpt lat="61.17965" lon="5.30018">
        <ele>25.957086</ele>
        <time>2020-07-15T20:53:35.403Z</time>
      </trkpt>
      <trkpt lat="61.17978" lon="5.30027">
        <ele>25.941513</ele>
        <time>2020-07-15T20:53:38.880Z</time>
      </trkpt>
      <trkpt lat="61.17998" lon="5.30045">
        <ele>25.914509</ele>
        <time>2020-07-15T20:53:42.945Z</time>
      </trkpt>
      <trkpt lat="61.18062" lon="5.30133">
        <ele>25.821007</ele>
        <time>2020-07-15T20:53:55.305Z</time>
      </trkpt>
      <trkpt lat="61.1808" lon="5.30161">
        <ele>25.79434</ele>
        <time>2020-07-15T20:53:58.568Z</time>
      </trkpt>
      <trkpt lat="61.18088" lon="5.30176">
        <ele>25.780878</ele>
        <time>2020-07-15T20:54:00.043Z</time>
      </trkpt>
      <trkpt lat="61.18138" lon="5.30262">
        <ele>25.001975</ele>
        <time>2020-07-15T20:54:09.290Z</time>
      </trkpt>
      <trkpt lat="61.18177" lon="5.30359">
        <ele>24.152065</ele>
        <time>2020-07-15T20:54:18.341Z</time>
      </trkpt>
      <trkpt lat="61.18196" lon="5.3042">
        <ele>23.663892</ele>
        <time>2020-07-15T20:54:23.694Z</time>
      </trkpt>
      <trkpt lat="61.18204" lon="5.30471">
        <ele>23.306543</ele>
        <time>2020-07-15T20:54:27.994Z</time>
      </trkpt>
      <trkpt lat="61.18206" lon="5.30622">
        <ele>21.701839</ele>
        <time>2020-07-15T20:54:38.953Z</time>
      </trkpt>
      <trkpt lat="61.18205" lon="5.3068">
        <ele>21.069349</ele>
        <time>2020-07-15T20:54:43.042Z</time>
      </trkpt>
      <trkpt lat="61.18205" lon="5.30707">
        <ele>20.781786</ele>
        <time>2020-07-15T20:54:44.696Z</time>
      </trkpt>
      <trkpt lat="61.18216" lon="5.30772">
        <ele>20.035835</ele>
        <time>2020-07-15T20:54:49.178Z</time>
      </trkpt>
      <trkpt lat="61.18248" lon="5.30868">
        <ele>18.39374</ele>
        <time>2020-07-15T20:54:56.465Z</time>
      </trkpt>
      <trkpt lat="61.18361" lon="5.31059">
        <ele>12.509738</ele>
        <time>2020-07-15T20:55:14.357Z</time>
      </trkpt>
      <trkpt lat="61.18384" lon="5.31108">
        <ele>11.604705</ele>
        <time>2020-07-15T20:55:18.703Z</time>
      </trkpt>
      <trkpt lat="61.18417" lon="5.31207">
        <ele>10.615195</ele>
        <time>2020-07-15T20:55:26.625Z</time>
      </trkpt>
      <trkpt lat="61.18462" lon="5.3137">
        <ele>9.050853</ele>
        <time>2020-07-15T20:55:40.925Z</time>
      </trkpt>
      <trkpt lat="61.185" lon="5.31417">
        <ele>8.764733</ele>
        <time>2020-07-15T20:55:48.295Z</time>
      </trkpt>
      <trkpt lat="61.18538" lon="5.3143">
        <ele>8.66723</ele>
        <time>2020-07-15T20:55:54.964Z</time>
      </trkpt>
      <trkpt lat="61.18545" lon="5.3143">
        <ele>8.649709</ele>
        <time>2020-07-15T20:55:56.449Z</time>
      </trkpt>
      <trkpt lat="61.18616" lon="5.31415">
        <ele>8.467569</ele>
        <time>2020-07-15T20:56:08.717Z</time>
      </trkpt>
      <trkpt lat="61.18648" lon="5.31408">
        <ele>8.394697</ele>
        <time>2020-07-15T20:56:14.213Z</time>
      </trkpt>
      <trkpt lat="61.18685" lon="5.314">
        <ele>8.509235</ele>
        <time>2020-07-15T20:56:21.071Z</time>
      </trkpt>
      <trkpt lat="61.18727" lon="5.31391">
        <ele>8.638973</ele>
        <time>2020-07-15T20:56:28.388Z</time>
      </trkpt>
      <trkpt lat="61.18859" lon="5.31359">
        <ele>8.8385</ele>
        <time>2020-07-15T20:56:55.033Z</time>
      </trkpt>
      <trkpt lat="61.189" lon="5.31305">
        <ele>8.687109</ele>
        <time>2020-07-15T20:57:04.146Z</time>
      </trkpt>
      <trkpt lat="61.18916" lon="5.31238">
        <ele>8.572169</ele>
        <time>2020-07-15T20:57:10.348Z</time>
      </trkpt>
      <trkpt lat="61.18917" lon="5.31234">
        <ele>8.564825</ele>
        <time>2020-07-15T20:57:11.505Z</time>
      </trkpt>
      <trkpt lat="61.18918" lon="5.31226">
        <ele>8.553245</ele>
        <time>2020-07-15T20:57:11.912Z</time>
      </trkpt>
      <trkpt lat="61.18912" lon="5.31056">
        <ele>7.842189</ele>
        <time>2020-07-15T20:57:24.279Z</time>
      </trkpt>
      <trkpt lat="61.18917" lon="5.30963">
        <ele>6.921024</ele>
        <time>2020-07-15T20:57:30.596Z</time>
      </trkpt>
      <trkpt lat="61.18965" lon="5.30588">
        <ele>3.873577</ele>
        <time>2020-07-15T20:57:56.548Z</time>
      </trkpt>
      <trkpt lat="61.18974" lon="5.30511">
        <ele>3.456427</ele>
        <time>2020-07-15T20:58:02.482Z</time>
      </trkpt>
      <trkpt lat="61.18984" lon="5.30454">
        <ele>3.13405</ele>
        <time>2020-07-15T20:58:07.260Z</time>
      </trkpt>
      <trkpt lat="61.19047" lon="5.30196">
        <ele>3.984274</ele>
        <time>2020-07-15T20:58:35.207Z</time>
      </trkpt>
      <trkpt lat="61.19102" lon="5.30051">
        <ele>4.935124</ele>
        <time>2020-07-15T20:58:57.161Z</time>
      </trkpt>
      <trkpt lat="61.19175" lon="5.29884">
        <ele>5.711362</ele>
        <time>2020-07-15T20:59:20.370Z</time>
      </trkpt>
      <trkpt lat="61.19192" lon="5.2985">
        <ele>5.877558</ele>
        <time>2020-07-15T20:59:24.802Z</time>
      </trkpt>
      <trkpt lat="61.19245" lon="5.29738">
        <ele>5.478219</ele>
        <time>2020-07-15T20:59:36.696Z</time>
      </trkpt>
      <trkpt lat="61.19286" lon="5.29652">
        <ele>4.620494</ele>
        <time>2020-07-15T20:59:45.188Z</time>
      </trkpt>
      <trkpt lat="61.19335" lon="5.29548">
        <ele>3.579277</ele>
        <time>2020-07-15T20:59:54.767Z</time>
      </trkpt>
      <trkpt lat="61.19386" lon="5.2945">
        <ele>3.94971</ele>
        <time>2020-07-15T21:00:05.586Z</time>
      </trkpt>
      <trkpt lat="61.19449" lon="5.29378">
        <ele>4.541573</ele>
        <time>2020-07-15T21:00:21.485Z</time>
      </trkpt>
      <trkpt lat="61.19481" lon="5.29324">
        <ele>4.873623</ele>
        <time>2020-07-15T21:00:31.605Z</time>
      </trkpt>
      <trkpt lat="61.19694" lon="5.28718">
        <ele>16.541796</ele>
        <time>2020-07-15T21:02:17.574Z</time>
      </trkpt>
      <trkpt lat="61.19767" lon="5.28592">
        <ele>15.930107</ele>
        <time>2020-07-15T21:02:35.597Z</time>
      </trkpt>
      <trkpt lat="61.19812" lon="5.28526">
        <ele>15.475332</ele>
        <time>2020-07-15T21:02:43.432Z</time>
      </trkpt>
      <trkpt lat="61.19829" lon="5.28491">
        <ele>15.279758</ele>
        <time>2020-07-15T21:02:46.548Z</time>
      </trkpt>
      <trkpt lat="61.19895" lon="5.28254">
        <ele>10.427711</ele>
        <time>2020-07-15T21:03:03.187Z</time>
      </trkpt>
      <trkpt lat="61.19908" lon="5.28124">
        <ele>7.979629</ele>
        <time>2020-07-15T21:03:11.180Z</time>
      </trkpt>
      <trkpt lat="61.19928" lon="5.28042">
        <ele>6.689886</ele>
        <time>2020-07-15T21:03:16.794Z</time>
      </trkpt>
      <trkpt lat="61.19963" lon="5.27951">
        <ele>5.035296</ele>
        <time>2020-07-15T21:03:24.225Z</time>
      </trkpt>
      <trkpt lat="61.20017" lon="5.27848">
        <ele>2.889539</ele>
        <time>2020-07-15T21:03:34.343Z</time>
      </trkpt>
      <trkpt lat="61.20076" lon="5.27718">
        <ele>1.837162</ele>
        <time>2020-07-15T21:03:46.926Z</time>
      </trkpt>
      <trkpt lat="61.20101" lon="5.27631">
        <ele>1.240324</ele>
        <time>2020-07-15T21:03:54.564Z</time>
      </trkpt>
      <trkpt lat="61.20105" lon="5.27595">
        <ele>1.026223</ele>
        <time>2020-07-15T21:03:57.286Z</time>
      </trkpt>
      <trkpt lat="61.20108" lon="5.27559">
        <ele>0.808854</ele>
        <time>2020-07-15T21:04:00.273Z</time>
      </trkpt>
      <trkpt lat="61.20117" lon="5.27468">
        <ele>0.722024</ele>
        <time>2020-07-15T21:04:07.632Z</time>
      </trkpt>
      <trkpt lat="61.20132" lon="5.27406">
        <ele>0.752287</ele>
        <time>2020-07-15T21:04:13.385Z</time>
      </trkpt>
      <trkpt lat="61.20203" lon="5.27236">
        <ele>0.850287</ele>
        <time>2020-07-15T21:04:33.545Z</time>
      </trkpt>
      <trkpt lat="61.20279" lon="5.27056">
        <ele>1.98785</ele>
        <time>2020-07-15T21:04:58.620Z</time>
      </trkpt>
      <trkpt lat="61.20324" lon="5.26949">
        <ele>2.670255</ele>
        <time>2020-07-15T21:05:13.199Z</time>
      </trkpt>
      <trkpt lat="61.20337" lon="5.2692">
        <ele>2.650561</ele>
        <time>2020-07-15T21:05:17.184Z</time>
      </trkpt>
      <trkpt lat="61.20355" lon="5.26873">
        <ele>2.619414</ele>
        <time>2020-07-15T21:05:22.886Z</time>
      </trkpt>
      <trkpt lat="61.20361" lon="5.2686">
        <ele>2.610629</ele>
        <time>2020-07-15T21:05:24.678Z</time>
      </trkpt>
      <trkpt lat="61.20385" lon="5.26798">
        <ele>2.570444</ele>
        <time>2020-07-15T21:05:31.424Z</time>
      </trkpt>
      <trkpt lat="61.20388" lon="5.26788">
        <ele>2.564493</ele>
        <time>2020-07-15T21:05:32.515Z</time>
      </trkpt>
      <trkpt lat="61.20397" lon="5.26763">
        <ele>2.549066</ele>
        <time>2020-07-15T21:05:34.824Z</time>
      </trkpt>
      <trkpt lat="61.20449" lon="5.26591">
        <ele>2.133715</ele>
        <time>2020-07-15T21:05:50.330Z</time>
      </trkpt>
      <trkpt lat="61.20461" lon="5.26553">
        <ele>1.908864</ele>
        <time>2020-07-15T21:05:53.498Z</time>
      </trkpt>
      <trkpt lat="61.20476" lon="5.26495">
        <ele>1.589157</ele>
        <time>2020-07-15T21:05:58.165Z</time>
      </trkpt>
      <trkpt lat="61.20511" lon="5.26368">
        <ele>0.873672</ele>
        <time>2020-07-15T21:06:09.123Z</time>
      </trkpt>
      <trkpt lat="61.20527" lon="5.26296">
        <ele>0.623618</ele>
        <time>2020-07-15T21:06:15.185Z</time>
      </trkpt>
      <trkpt lat="61.20556" lon="5.26146">
        <ele>0.468756</ele>
        <time>2020-07-15T21:06:28.795Z</time>
      </trkpt>
      <trkpt lat="61.20571" lon="5.26066">
        <ele>0.387208</ele>
        <time>2020-07-15T21:06:36.081Z</time>
      </trkpt>
      <trkpt lat="61.20638" lon="5.25792">
        <ele>0.255636</ele>
        <time>2020-07-15T21:07:02.560Z</time>
      </trkpt>
      <trkpt lat="61.20649" lon="5.25751">
        <ele>0.24608</ele>
        <time>2020-07-15T21:07:06.540Z</time>
      </trkpt>
      <trkpt lat="61.20656" lon="5.25724">
        <ele>0.239751</ele>
        <time>2020-07-15T21:07:09.125Z</time>
      </trkpt>
      <trkpt lat="61.2071" lon="5.25505">
        <ele>0.168275</ele>
        <time>2020-07-15T21:07:29.937Z</time>
      </trkpt>
      <trkpt lat="61.20739" lon="5.25393">
        <ele>0.126448</ele>
        <time>2020-07-15T21:07:40.646Z</time>
      </trkpt>
      <trkpt lat="61.2077" lon="5.25265">
        <ele>0.111625</ele>
        <time>2020-07-15T21:07:52.890Z</time>
      </trkpt>
      <trkpt lat="61.20777" lon="5.25241">
        <ele>0.116742</ele>
        <time>2020-07-15T21:07:55.259Z</time>
      </trkpt>
      <trkpt lat="61.20815" lon="5.25081">
        <ele>0.149746</ele>
        <time>2020-07-15T21:08:10.858Z</time>
      </trkpt>
      <trkpt lat="61.20854" lon="5.24969">
        <ele>0.188487</ele>
        <time>2020-07-15T21:08:22.932Z</time>
      </trkpt>
      <trkpt lat="61.20859" lon="5.24953">
        <ele>0.199896</ele>
        <time>2020-07-15T21:08:24.632Z</time>
      </trkpt>
      <trkpt lat="61.20865" lon="5.24941">
        <ele>0.209687</ele>
        <time>2020-07-15T21:08:26.197Z</time>
      </trkpt>
      <trkpt lat="61.2092" lon="5.24791">
        <ele>0.319034</ele>
        <time>2020-07-15T21:08:42.762Z</time>
      </trkpt>
      <trkpt lat="61.20955" lon="5.2468">
        <ele>0.404372</ele>
        <time>2020-07-15T21:08:54.245Z</time>
      </trkpt>
      <trkpt lat="61.21011" lon="5.24408">
        <ele>0.722129</ele>
        <time>2020-07-15T21:09:20.313Z</time>
      </trkpt>
      <trkpt lat="61.2103" lon="5.24323">
        <ele>0.902351</ele>
        <time>2020-07-15T21:09:29.175Z</time>
      </trkpt>
      <trkpt lat="61.21066" lon="5.24176">
        <ele>1.453018</ele>
        <time>2020-07-15T21:09:44.873Z</time>
      </trkpt>
      <trkpt lat="61.21089" lon="5.24087">
        <ele>1.793287</ele>
        <time>2020-07-15T21:09:54.769Z</time>
      </trkpt>
      <trkpt lat="61.21148" lon="5.23874">
        <ele>3.088178</ele>
        <time>2020-07-15T21:10:19.504Z</time>
      </trkpt>
      <trkpt lat="61.21185" lon="5.23731">
        <ele>4.084513</ele>
        <time>2020-07-15T21:10:36.435Z</time>
      </trkpt>
      <trkpt lat="61.21244" lon="5.23521">
        <ele>6.4675</ele>
        <time>2020-07-15T21:11:06.299Z</time>
      </trkpt>
      <trkpt lat="61.2127" lon="5.23457">
        <ele>7.341012</ele>
        <time>2020-07-15T21:11:16.259Z</time>
      </trkpt>
      <trkpt lat="61.21273" lon="5.23451">
        <ele>7.443384</ele>
        <time>2020-07-15T21:11:17.951Z</time>
      </trkpt>
      <trkpt lat="61.21289" lon="5.23431">
        <ele>7.85281</ele>
        <time>2020-07-15T21:11:22.493Z</time>
      </trkpt>
      <trkpt lat="61.2132" lon="5.23377">
        <ele>8.563799</ele>
        <time>2020-07-15T21:11:31.953Z</time>
      </trkpt>
      <trkpt lat="61.21332" lon="5.23325">
        <ele>8.962703</ele>
        <time>2020-07-15T21:11:38.493Z</time>
      </trkpt>
      <trkpt lat="61.21387" lon="5.22924">
        <ele>12.379094</ele>
        <time>2020-07-15T21:12:22.011Z</time>
      </trkpt>
      <trkpt lat="61.21388" lon="5.22916">
        <ele>12.470682</ele>
        <time>2020-07-15T21:12:22.735Z</time>
      </trkpt>
      <trkpt lat="61.21404" lon="5.22803">
        <ele>13.719412</ele>
        <time>2020-07-15T21:12:37.438Z</time>
      </trkpt>
      <trkpt lat="61.21421" lon="5.22733">
        <ele>14.549223</ele>
        <time>2020-07-15T21:12:47.883Z</time>
      </trkpt>
      <trkpt lat="61.21442" lon="5.22688">
        <ele>15.525992</ele>
        <time>2020-07-15T21:12:56.615Z</time>
      </trkpt>
      <trkpt lat="61.21455" lon="5.22673">
        <ele>16.077731</ele>
        <time>2020-07-15T21:13:01.019Z</time>
      </trkpt>
      <trkpt lat="61.21472" lon="5.22662">
        <ele>16.767609</ele>
        <time>2020-07-15T21:13:06.614Z</time>
      </trkpt>
      <trkpt lat="61.2158" lon="5.22635">
        <ele>20.854038</ele>
        <time>2020-07-15T21:13:40.917Z</time>
      </trkpt>
      <trkpt lat="61.21707" lon="5.22539">
        <ele>23.813358</ele>
        <time>2020-07-15T21:14:16.703Z</time>
      </trkpt>
      <trkpt lat="61.21713" lon="5.22537">
        <ele>23.929239</ele>
        <time>2020-07-15T21:14:19.241Z</time>
      </trkpt>
      <trkpt lat="61.21742" lon="5.22521">
        <ele>24.516111</ele>
        <time>2020-07-15T21:14:24.370Z</time>
      </trkpt>
      <trkpt lat="61.21773" lon="5.22475">
        <ele>24.974929</ele>
        <time>2020-07-15T21:14:31.070Z</time>
      </trkpt>
      <trkpt lat="61.21809" lon="5.22325">
        <ele>24.468869</ele>
        <time>2020-07-15T21:14:43.788Z</time>
      </trkpt>
      <trkpt lat="61.21854" lon="5.22259">
        <ele>24.123922</ele>
        <time>2020-07-15T21:14:52.029Z</time>
      </trkpt>
      <trkpt lat="61.21866" lon="5.22246">
        <ele>24.038815</ele>
        <time>2020-07-15T21:14:53.928Z</time>
      </trkpt>
      <trkpt lat="61.21921" lon="5.22182">
        <ele>24.539033</ele>
        <time>2020-07-15T21:15:05.805Z</time>
      </trkpt>
      <trkpt lat="61.21931" lon="5.2217">
        <ele>24.697922</ele>
        <time>2020-07-15T21:15:07.870Z</time>
      </trkpt>
      <trkpt lat="61.21956" lon="5.2214">
        <ele>25.106916</ele>
        <time>2020-07-15T21:15:14.377Z</time>
      </trkpt>
      <trkpt lat="61.21982" lon="5.22102">
        <ele>25.562895</ele>
        <time>2020-07-15T21:15:22.226Z</time>
      </trkpt>
      <trkpt lat="61.21995" lon="5.22068">
        <ele>25.866612</ele>
        <time>2020-07-15T21:15:27.496Z</time>
      </trkpt>
      <trkpt lat="61.2201" lon="5.21976">
        <ele>26.523971</ele>
        <time>2020-07-15T21:15:40.128Z</time>
      </trkpt>
      <trkpt lat="61.22022" lon="5.219">
        <ele>26.945073</ele>
        <time>2020-07-15T21:15:50.065Z</time>
      </trkpt>
      <trkpt lat="61.22028" lon="5.2186">
        <ele>27.165107</ele>
        <time>2020-07-15T21:15:55.031Z</time>
      </trkpt>
      <trkpt lat="61.22082" lon="5.2154">
        <ele>28.179168</ele>
        <time>2020-07-15T21:16:26.070Z</time>
      </trkpt>
      <trkpt lat="61.22132" lon="5.2131">
        <ele>27.438799</ele>
        <time>2020-07-15T21:16:44.875Z</time>
      </trkpt>
      <trkpt lat="61.22135" lon="5.21274">
        <ele>27.354505</ele>
        <time>2020-07-15T21:16:47.534Z</time>
      </trkpt>
      <trkpt lat="61.22137" lon="5.21258">
        <ele>27.348819</ele>
        <time>2020-07-15T21:16:48.878Z</time>
      </trkpt>
      <trkpt lat="61.22162" lon="5.21049">
        <ele>27.278273</ele>
        <time>2020-07-15T21:17:05.790Z</time>
      </trkpt>
      <trkpt lat="61.22174" lon="5.21017">
        <ele>27.265218</ele>
        <time>2020-07-15T21:17:09.001Z</time>
      </trkpt>
      <trkpt lat="61.22203" lon="5.20982">
        <ele>27.24238</ele>
        <time>2020-07-15T21:17:15.579Z</time>
      </trkpt>
      <trkpt lat="61.2222" lon="5.20913">
        <ele>27.901552</ele>
        <time>2020-07-15T21:17:24.126Z</time>
      </trkpt>
      <trkpt lat="61.22218" lon="5.20773">
        <ele>29.607822</ele>
        <time>2020-07-15T21:17:42.352Z</time>
      </trkpt>
      <trkpt lat="61.2222" lon="5.20763">
        <ele>29.741842</ele>
        <time>2020-07-15T21:17:43.238Z</time>
      </trkpt>
      <trkpt lat="61.2222" lon="5.2076">
        <ele>29.780974</ele>
        <time>2020-07-15T21:17:43.947Z</time>
      </trkpt>
      <trkpt lat="61.22225" lon="5.20735">
        <ele>30.108805</ele>
        <time>2020-07-15T21:17:47.688Z</time>
      </trkpt>
      <trkpt lat="61.22238" lon="5.20689">
        <ele>30.762119</ele>
        <time>2020-07-15T21:17:54.902Z</time>
      </trkpt>
      <trkpt lat="61.22245" lon="5.20666">
        <ele>31.088856</ele>
        <time>2020-07-15T21:17:58.613Z</time>
      </trkpt>
      <trkpt lat="61.22247" lon="5.20656">
        <ele>31.225163</ele>
        <time>2020-07-15T21:18:00.543Z</time>
      </trkpt>
      <trkpt lat="61.22259" lon="5.20618">
        <ele>31.770021</ele>
        <time>2020-07-15T21:18:05.686Z</time>
      </trkpt>
      <trkpt lat="61.22261" lon="5.20609">
        <ele>31.90294</ele>
        <time>2020-07-15T21:18:07.188Z</time>
      </trkpt>
      <trkpt lat="61.2227" lon="5.20588">
        <ele>32.265968</ele>
        <time>2020-07-15T21:18:11.449Z</time>
      </trkpt>
      <trkpt lat="61.22303" lon="5.20517">
        <ele>33.550758</ele>
        <time>2020-07-15T21:18:23.549Z</time>
      </trkpt>
      <trkpt lat="61.22316" lon="5.2049">
        <ele>34.045773</ele>
        <time>2020-07-15T21:18:28.941Z</time>
      </trkpt>
      <trkpt lat="61.22331" lon="5.20461">
        <ele>34.613327</ele>
        <time>2020-07-15T21:18:34.214Z</time>
      </trkpt>
      <trkpt lat="61.22335" lon="5.20453">
        <ele>34.751479</ele>
        <time>2020-07-15T21:18:35.680Z</time>
      </trkpt>
      <trkpt lat="61.22369" lon="5.20312">
        <ele>36.77863</ele>
        <time>2020-07-15T21:18:56.073Z</time>
      </trkpt>
      <trkpt lat="61.22378" lon="5.20293">
        <ele>37.040052</ele>
        <time>2020-07-15T21:18:58.995Z</time>
      </trkpt>
      <trkpt lat="61.22382" lon="5.20289">
        <ele>37.141213</ele>
        <time>2020-07-15T21:18:59.736Z</time>
      </trkpt>
      <trkpt lat="61.22386" lon="5.20287">
        <ele>37.220399</ele>
        <time>2020-07-15T21:19:00.910Z</time>
      </trkpt>
      <trkpt lat="61.22399" lon="5.20294">
        <ele>37.486273</ele>
        <time>2020-07-15T21:19:04.248Z</time>
      </trkpt>
      <trkpt lat="61.22417" lon="5.20319">
        <ele>37.935942</ele>
        <time>2020-07-15T21:19:09.085Z</time>
      </trkpt>
      <trkpt lat="61.22424" lon="5.2033">
        <ele>38.119434</ele>
        <time>2020-07-15T21:19:11.006Z</time>
      </trkpt>
      <trkpt lat="61.22427" lon="5.20335">
        <ele>38.194206</ele>
        <time>2020-07-15T21:19:12.110Z</time>
      </trkpt>
      <trkpt lat="61.22443" lon="5.20371">
        <ele>38.67583</ele>
        <time>2020-07-15T21:19:17.093Z</time>
      </trkpt>
      <trkpt lat="61.22452" lon="5.2041">
        <ele>39.099259</ele>
        <time>2020-07-15T21:19:22.260Z</time>
      </trkpt>
      <trkpt lat="61.22475" lon="5.20605">
        <ele>41.147948</ele>
        <time>2020-07-15T21:19:47.018Z</time>
      </trkpt>
      <trkpt lat="61.22478" lon="5.20655">
        <ele>41.6847</ele>
        <time>2020-07-15T21:19:53.080Z</time>
      </trkpt>
      <trkpt lat="61.22478" lon="5.2081">
        <ele>43.348088</ele>
        <time>2020-07-15T21:20:11.352Z</time>
      </trkpt>
      <trkpt lat="61.2248" lon="5.20863">
        <ele>43.921997</ele>
        <time>2020-07-15T21:20:17.795Z</time>
      </trkpt>
      <trkpt lat="61.22488" lon="5.20944">
        <ele>44.836361</ele>
        <time>2020-07-15T21:20:27.663Z</time>
      </trkpt>
      <trkpt lat="61.22514" lon="5.21116">
        <ele>46.902445</ele>
        <time>2020-07-15T21:20:49.747Z</time>
      </trkpt>
      <trkpt lat="61.22518" lon="5.21249">
        <ele>48.424667</ele>
        <time>2020-07-15T21:21:06.146Z</time>
      </trkpt>
      <trkpt lat="61.22517" lon="5.21461">
        <ele>50.628472</ele>
        <time>2020-07-15T21:21:32.865Z</time>
      </trkpt>
      <trkpt lat="61.22547" lon="5.21601">
        <ele>52.209749</ele>
        <time>2020-07-15T21:21:50.856Z</time>
      </trkpt>
      <trkpt lat="61.22553" lon="5.21652">
        <ele>52.58341</ele>
        <time>2020-07-15T21:21:56.704Z</time>
      </trkpt>
      <trkpt lat="61.22565" lon="5.22076">
        <ele>54.502007</ele>
        <time>2020-07-15T21:22:37.621Z</time>
      </trkpt>
      <trkpt lat="61.22562" lon="5.2218">
        <ele>55.118092</ele>
        <time>2020-07-15T21:22:47.520Z</time>
      </trkpt>
      <trkpt lat="61.22565" lon="5.22205">
        <ele>55.266834</ele>
        <time>2020-07-15T21:22:50.048Z</time>
      </trkpt>
      <trkpt lat="61.22598" lon="5.22312">
        <ele>56.020243</ele>
        <time>2020-07-15T21:23:03.773Z</time>
      </trkpt>
      <trkpt lat="61.2263" lon="5.22446">
        <ele>58.334405</ele>
        <time>2020-07-15T21:23:22.532Z</time>
      </trkpt>
      <trkpt lat="61.22657" lon="5.22478">
        <ele>59.533765</ele>
        <time>2020-07-15T21:23:31.433Z</time>
      </trkpt>
      <trkpt lat="61.22866" lon="5.22534">
        <ele>69.073589</ele>
        <time>2020-07-15T21:24:42.691Z</time>
      </trkpt>
      <trkpt lat="61.23014" lon="5.226">
        <ele>75.933289</ele>
        <time>2020-07-15T21:25:35.006Z</time>
      </trkpt>
      <trkpt lat="61.23042" lon="5.2262">
        <ele>77.133124</ele>
        <time>2020-07-15T21:25:44.164Z</time>
      </trkpt>
      <trkpt lat="61.23085" lon="5.22685">
        <ele>79.338412</ele>
        <time>2020-07-15T21:25:58.147Z</time>
      </trkpt>
      <trkpt lat="61.23089" lon="5.22687">
        <ele>79.521892</ele>
        <time>2020-07-15T21:26:00.361Z</time>
      </trkpt>
      <trkpt lat="61.23094" lon="5.22687">
        <ele>79.717489</ele>
        <time>2020-07-15T21:26:01.402Z</time>
      </trkpt>
      <trkpt lat="61.23099" lon="5.22687">
        <ele>79.887343</ele>
        <time>2020-07-15T21:26:02.822Z</time>
      </trkpt>
      <trkpt lat="61.23104" lon="5.22686">
        <ele>80.033625</ele>
        <time>2020-07-15T21:26:04.051Z</time>
      </trkpt>
      <trkpt lat="61.23111" lon="5.22684">
        <ele>80.232178</ele>
        <time>2020-07-15T21:26:05.306Z</time>
      </trkpt>
      <trkpt lat="61.23132" lon="5.22662">
        <ele>80.882949</ele>
        <time>2020-07-15T21:26:11.936Z</time>
      </trkpt>
      <trkpt lat="61.23169" lon="5.2259">
        <ele>82.299066</ele>
        <time>2020-07-15T21:26:23.848Z</time>
      </trkpt>
      <trkpt lat="61.23179" lon="5.22559">
        <ele>82.800602</ele>
        <time>2020-07-15T21:26:29.271Z</time>
      </trkpt>
      <trkpt lat="61.23189" lon="5.22492">
        <ele>83.747092</ele>
        <time>2020-07-15T21:26:38.303Z</time>
      </trkpt>
      <trkpt lat="61.23187" lon="5.22363">
        <ele>86.058264</ele>
        <time>2020-07-15T21:26:55.077Z</time>
      </trkpt>
      <trkpt lat="61.23191" lon="5.22335">
        <ele>86.775784</ele>
        <time>2020-07-15T21:26:59.452Z</time>
      </trkpt>
      <trkpt lat="61.2321" lon="5.22316">
        <ele>87.855768</ele>
        <time>2020-07-15T21:27:06.281Z</time>
      </trkpt>
      <trkpt lat="61.23237" lon="5.22305">
        <ele>89.285591</ele>
        <time>2020-07-15T21:27:15.941Z</time>
      </trkpt>
      <trkpt lat="61.23308" lon="5.22309">
        <ele>92.884383</ele>
        <time>2020-07-15T21:27:42.159Z</time>
      </trkpt>
      <trkpt lat="61.23334" lon="5.22319">
        <ele>94.251863</ele>
        <time>2020-07-15T21:27:52.467Z</time>
      </trkpt>
      <trkpt lat="61.2342" lon="5.2238">
        <ele>99.238232</ele>
        <time>2020-07-15T21:28:26.965Z</time>
      </trkpt>
      <trkpt lat="61.23463" lon="5.22449">
        <ele>102.163626</ele>
        <time>2020-07-15T21:28:45.271Z</time>
      </trkpt>
      <trkpt lat="61.23484" lon="5.22468">
        <ele>103.428707</ele>
        <time>2020-07-15T21:28:52.836Z</time>
      </trkpt>
      <trkpt lat="61.23631" lon="5.22536">
        <ele>109.127076</ele>
        <time>2020-07-15T21:29:37.074Z</time>
      </trkpt>
      <trkpt lat="61.23657" lon="5.22524">
        <ele>110.11431</ele>
        <time>2020-07-15T21:29:44.253Z</time>
      </trkpt>
      <trkpt lat="61.23707" lon="5.22463">
        <ele>113.403966</ele>
        <time>2020-07-15T21:30:01.004Z</time>
      </trkpt>
      <trkpt lat="61.23742" lon="5.22468">
        <ele>115.512152</ele>
        <time>2020-07-15T21:30:13.589Z</time>
      </trkpt>
      <trkpt lat="61.23778" lon="5.22491">
        <ele>117.811185</ele>
        <time>2020-07-15T21:30:29.800Z</time>
      </trkpt>
      <trkpt lat="61.23831" lon="5.22573">
        <ele>121.921631</ele>
        <time>2020-07-15T21:30:56.676Z</time>
      </trkpt>
      <trkpt lat="61.23844" lon="5.22591">
        <ele>123.19873</ele>
        <time>2020-07-15T21:31:05.367Z</time>
      </trkpt>
      <trkpt lat="61.23854" lon="5.22601">
        <ele>124.021588</ele>
        <time>2020-07-15T21:31:08.899Z</time>
      </trkpt>
      <trkpt lat="61.23865" lon="5.2261">
        <ele>124.962429</ele>
        <time>2020-07-15T21:31:13.234Z</time>
      </trkpt>
      <trkpt lat="61.23872" lon="5.22614">
        <ele>125.545337</ele>
        <time>2020-07-15T21:31:18.147Z</time>
      </trkpt>
      <trkpt lat="61.23897" lon="5.22619">
        <ele>127.529723</ele>
        <time>2020-07-15T21:31:27.425Z</time>
      </trkpt>
      <trkpt lat="61.23966" lon="5.22593">
        <ele>133.059596</ele>
        <time>2020-07-15T21:31:59.028Z</time>
      </trkpt>
      <trkpt lat="61.23986" lon="5.22595">
        <ele>134.674269</ele>
        <time>2020-07-15T21:32:09.767Z</time>
      </trkpt>
      <trkpt lat="61.24044" lon="5.22638">
        <ele>138.492532</ele>
        <time>2020-07-15T21:32:33.163Z</time>
      </trkpt>
      <trkpt lat="61.24089" lon="5.2269">
        <ele>141.501516</ele>
        <time>2020-07-15T21:32:51.007Z</time>
      </trkpt>
      <trkpt lat="61.24104" lon="5.22692">
        <ele>142.344939</ele>
        <time>2020-07-15T21:32:56.020Z</time>
      </trkpt>
      <trkpt lat="61.24197" lon="5.22667">
        <ele>147.250018</ele>
        <time>2020-07-15T21:33:28.569Z</time>
      </trkpt>
      <trkpt lat="61.24243" lon="5.2263">
        <ele>149.221085</ele>
        <time>2020-07-15T21:33:44.520Z</time>
      </trkpt>
      <trkpt lat="61.24309" lon="5.22557">
        <ele>152.220871</ele>
        <time>2020-07-15T21:34:06.911Z</time>
      </trkpt>
      <trkpt lat="61.24324" lon="5.22547">
        <ele>152.834033</ele>
        <time>2020-07-15T21:34:11.559Z</time>
      </trkpt>
      <trkpt lat="61.24329" lon="5.22546">
        <ele>153.039775</ele>
        <time>2020-07-15T21:34:12.954Z</time>
      </trkpt>
      <trkpt lat="61.24393" lon="5.22522">
        <ele>153.746912</ele>
        <time>2020-07-15T21:34:28.726Z</time>
      </trkpt>
      <trkpt lat="61.24482" lon="5.22456">
        <ele>154.584032</ele>
        <time>2020-07-15T21:34:46.811Z</time>
      </trkpt>
      <trkpt lat="61.24515" lon="5.22432">
        <ele>154.730908</ele>
        <time>2020-07-15T21:34:52.339Z</time>
      </trkpt>
      <trkpt lat="61.24576" lon="5.22381">
        <ele>154.287325</ele>
        <time>2020-07-15T21:35:02.516Z</time>
      </trkpt>
      <trkpt lat="61.24612" lon="5.22338">
        <ele>154.006114</ele>
        <time>2020-07-15T21:35:09.024Z</time>
      </trkpt>
      <trkpt lat="61.24637" lon="5.22277">
        <ele>153.743884</ele>
        <time>2020-07-15T21:35:15.145Z</time>
      </trkpt>
      <trkpt lat="61.24652" lon="5.2222">
        <ele>153.54558</ele>
        <time>2020-07-15T21:35:20.395Z</time>
      </trkpt>
      <trkpt lat="61.24669" lon="5.22107">
        <ele>153.254058</ele>
        <time>2020-07-15T21:35:30.320Z</time>
      </trkpt>
      <trkpt lat="61.24677" lon="5.22013">
        <ele>153.018328</ele>
        <time>2020-07-15T21:35:38.469Z</time>
      </trkpt>
      <trkpt lat="61.2468" lon="5.21915">
        <ele>152.775096</ele>
        <time>2020-07-15T21:35:46.064Z</time>
      </trkpt>
      <trkpt lat="61.24676" lon="5.21835">
        <ele>152.436049</ele>
        <time>2020-07-15T21:35:52.063Z</time>
      </trkpt>
      <trkpt lat="61.24688" lon="5.21704">
        <ele>151.569606</ele>
        <time>2020-07-15T21:36:01.463Z</time>
      </trkpt>
      <trkpt lat="61.24692" lon="5.21687">
        <ele>151.446725</ele>
        <time>2020-07-15T21:36:02.853Z</time>
      </trkpt>
      <trkpt lat="61.24696" lon="5.21675">
        <ele>151.352347</ele>
        <time>2020-07-15T21:36:03.742Z</time>
      </trkpt>
      <trkpt lat="61.2471" lon="5.21649">
        <ele>151.094069</ele>
        <time>2020-07-15T21:36:06.722Z</time>
      </trkpt>
      <trkpt lat="61.24727" lon="5.21636">
        <ele>150.849472</ele>
        <time>2020-07-15T21:36:09.296Z</time>
      </trkpt>
      <trkpt lat="61.24775" lon="5.2162">
        <ele>150.232153</ele>
        <time>2020-07-15T21:36:16.626Z</time>
      </trkpt>
      <trkpt lat="61.24814" lon="5.21622">
        <ele>150.15757</ele>
        <time>2020-07-15T21:36:22.606Z</time>
      </trkpt>
      <trkpt lat="61.24826" lon="5.21623">
        <ele>150.135683</ele>
        <time>2020-07-15T21:36:24.535Z</time>
      </trkpt>
      <trkpt lat="61.24882" lon="5.21647">
        <ele>150.026246</ele>
        <time>2020-07-15T21:36:34.048Z</time>
      </trkpt>
      <trkpt lat="61.24934" lon="5.21635">
        <ele>149.92741</ele>
        <time>2020-07-15T21:36:44.111Z</time>
      </trkpt>
      <trkpt lat="61.25015" lon="5.21658">
        <ele>150.382248</ele>
        <time>2020-07-15T21:37:01.422Z</time>
      </trkpt>
      <trkpt lat="61.25052" lon="5.21708">
        <ele>150.709277</ele>
        <time>2020-07-15T21:37:10.682Z</time>
      </trkpt>
      <trkpt lat="61.2518" lon="5.2184">
        <ele>151.119617</ele>
        <time>2020-07-15T21:37:38.381Z</time>
      </trkpt>
      <trkpt lat="61.25218" lon="5.21892">
        <ele>151.0451</ele>
        <time>2020-07-15T21:37:46.333Z</time>
      </trkpt>
      <trkpt lat="61.25343" lon="5.2217">
        <ele>149.820984</ele>
        <time>2020-07-15T21:38:14.978Z</time>
      </trkpt>
      <trkpt lat="61.25386" lon="5.22363">
        <ele>149.193893</ele>
        <time>2020-07-15T21:38:30.722Z</time>
      </trkpt>
      <trkpt lat="61.25406" lon="5.22412">
        <ele>149.13445</ele>
        <time>2020-07-15T21:38:35.615Z</time>
      </trkpt>
      <trkpt lat="61.25553" lon="5.22474">
        <ele>149.605329</ele>
        <time>2020-07-15T21:39:03.696Z</time>
      </trkpt>
      <trkpt lat="61.25649" lon="5.22563">
        <ele>151.209853</ele>
        <time>2020-07-15T21:39:28.383Z</time>
      </trkpt>
      <trkpt lat="61.25796" lon="5.22574">
        <ele>154.415096</ele>
        <time>2020-07-15T21:40:06.848Z</time>
      </trkpt>
      <trkpt lat="61.25898" lon="5.22593">
        <ele>156.248716</ele>
        <time>2020-07-15T21:40:32.343Z</time>
      </trkpt>
      <trkpt lat="61.26021" lon="5.2264">
        <ele>157.356417</ele>
        <time>2020-07-15T21:40:57.470Z</time>
      </trkpt>
      <trkpt lat="61.26046" lon="5.22662">
        <ele>157.382332</ele>
        <time>2020-07-15T21:41:02.093Z</time>
      </trkpt>
      <trkpt lat="61.26069" lon="5.22694">
        <ele>157.133351</ele>
        <time>2020-07-15T21:41:06.464Z</time>
      </trkpt>
      <trkpt lat="61.26092" lon="5.22729">
        <ele>156.87114</ele>
        <time>2020-07-15T21:41:10.887Z</time>
      </trkpt>
      <trkpt lat="61.26123" lon="5.2278">
        <ele>156.50856</ele>
        <time>2020-07-15T21:41:17.084Z</time>
      </trkpt>
      <trkpt lat="61.26207" lon="5.22906">
        <ele>155.435603</ele>
        <time>2020-07-15T21:41:32.543Z</time>
      </trkpt>
      <trkpt lat="61.2626" lon="5.22943">
        <ele>154.707772</ele>
        <time>2020-07-15T21:41:41.092Z</time>
      </trkpt>
      <trkpt lat="61.26311" lon="5.23024">
        <ele>153.868876</ele>
        <time>2020-07-15T21:41:50.647Z</time>
      </trkpt>
      <trkpt lat="61.26319" lon="5.23032">
        <ele>153.751368</ele>
        <time>2020-07-15T21:41:52.032Z</time>
      </trkpt>
      <trkpt lat="61.26323" lon="5.23036">
        <ele>153.690368</ele>
        <time>2020-07-15T21:41:52.632Z</time>
      </trkpt>
      <trkpt lat="61.26394" lon="5.23075">
        <ele>152.771081</ele>
        <time>2020-07-15T21:42:03.458Z</time>
      </trkpt>
      <trkpt lat="61.26433" lon="5.2307">
        <ele>152.286519</ele>
        <time>2020-07-15T21:42:09.220Z</time>
      </trkpt>
      <trkpt lat="61.26454" lon="5.23048">
        <ele>151.991725</ele>
        <time>2020-07-15T21:42:12.870Z</time>
      </trkpt>
      <trkpt lat="61.26514" lon="5.2293">
        <ele>151.071563</ele>
        <time>2020-07-15T21:42:25.622Z</time>
      </trkpt>
      <trkpt lat="61.2656" lon="5.22896">
        <ele>150.677262</ele>
        <time>2020-07-15T21:42:33.569Z</time>
      </trkpt>
      <trkpt lat="61.26612" lon="5.22878">
        <ele>150.26013</ele>
        <time>2020-07-15T21:42:42.329Z</time>
      </trkpt>
      <trkpt lat="61.26637" lon="5.2286">
        <ele>150.046554</ele>
        <time>2020-07-15T21:42:46.560Z</time>
      </trkpt>
      <trkpt lat="61.26652" lon="5.22842">
        <ele>149.904412</ele>
        <time>2020-07-15T21:42:49.356Z</time>
      </trkpt>
      <trkpt lat="61.26659" lon="5.22831">
        <ele>149.836151</ele>
        <time>2020-07-15T21:42:50.583Z</time>
      </trkpt>
      <trkpt lat="61.26685" lon="5.22771">
        <ele>148.641129</ele>
        <time>2020-07-15T21:42:56.458Z</time>
      </trkpt>
      <trkpt lat="61.26708" lon="5.22693">
        <ele>147.243715</ele>
        <time>2020-07-15T21:43:02.653Z</time>
      </trkpt>
      <trkpt lat="61.26722" lon="5.22653">
        <ele>146.476288</ele>
        <time>2020-07-15T21:43:05.834Z</time>
      </trkpt>
      <trkpt lat="61.26746" lon="5.22603">
        <ele>145.38085</ele>
        <time>2020-07-15T21:43:10.200Z</time>
      </trkpt>
      <trkpt lat="61.26778" lon="5.22528">
        <ele>143.378685</ele>
        <time>2020-07-15T21:43:16.050Z</time>
      </trkpt>
      <trkpt lat="61.26813" lon="5.2248">
        <ele>139.089098</ele>
        <time>2020-07-15T21:43:20.943Z</time>
      </trkpt>
      <trkpt lat="61.2684" lon="5.22415">
        <ele>134.786229</ele>
        <time>2020-07-15T21:43:25.402Z</time>
      </trkpt>
      <trkpt lat="61.26891" lon="5.22327">
        <ele>127.952404</ele>
        <time>2020-07-15T21:43:32.454Z</time>
      </trkpt>
      <trkpt lat="61.26902" lon="5.22313">
        <ele>126.654785</ele>
        <time>2020-07-15T21:43:33.777Z</time>
      </trkpt>
      <trkpt lat="61.26927" lon="5.22309">
        <ele>123.877443</ele>
        <time>2020-07-15T21:43:36.481Z</time>
      </trkpt>
      <trkpt lat="61.2695" lon="5.22325">
        <ele>121.164251</ele>
        <time>2020-07-15T21:43:39.019Z</time>
      </trkpt>
      <trkpt lat="61.26964" lon="5.2233">
        <ele>119.503649</ele>
        <time>2020-07-15T21:43:40.553Z</time>
      </trkpt>
      <trkpt lat="61.26989" lon="5.22336">
        <ele>116.694964</ele>
        <time>2020-07-15T21:43:43.208Z</time>
      </trkpt>
      <trkpt lat="61.27015" lon="5.22321">
        <ele>113.636916</ele>
        <time>2020-07-15T21:43:46.084Z</time>
      </trkpt>
      <trkpt lat="61.27091" lon="5.22239">
        <ele>104.758227</ele>
        <time>2020-07-15T21:43:55.297Z</time>
      </trkpt>
      <trkpt lat="61.27105" lon="5.22216">
        <ele>104.071966</ele>
        <time>2020-07-15T21:43:57.316Z</time>
      </trkpt>
      <trkpt lat="61.27175" lon="5.22022">
        <ele>99.477025</ele>
        <time>2020-07-15T21:44:12.802Z</time>
      </trkpt>
      <trkpt lat="61.27205" lon="5.21906">
        <ele>97.880548</ele>
        <time>2020-07-15T21:44:22.584Z</time>
      </trkpt>
      <trkpt lat="61.27262" lon="5.21751">
        <ele>97.133249</ele>
        <time>2020-07-15T21:44:38.487Z</time>
      </trkpt>
      <trkpt lat="61.27307" lon="5.21593">
        <ele>95.878815</ele>
        <time>2020-07-15T21:44:52.366Z</time>
      </trkpt>
      <trkpt lat="61.27321" lon="5.2157">
        <ele>95.417865</ele>
        <time>2020-07-15T21:44:54.909Z</time>
      </trkpt>
      <trkpt lat="61.27347" lon="5.21554">
        <ele>94.709871</ele>
        <time>2020-07-15T21:44:58.758Z</time>
      </trkpt>
      <trkpt lat="61.2738" lon="5.21534">
        <ele>93.836972</ele>
        <time>2020-07-15T21:45:03.302Z</time>
      </trkpt>
      <trkpt lat="61.27398" lon="5.2152">
        <ele>93.331819</ele>
        <time>2020-07-15T21:45:05.792Z</time>
      </trkpt>
      <trkpt lat="61.27438" lon="5.21494">
        <ele>92.2514</ele>
        <time>2020-07-15T21:45:11.145Z</time>
      </trkpt>
      <trkpt lat="61.27483" lon="5.21525">
        <ele>90.060261</ele>
        <time>2020-07-15T21:45:17.085Z</time>
      </trkpt>
      <trkpt lat="61.2751" lon="5.21524">
        <ele>88.6798</ele>
        <time>2020-07-15T21:45:20.344Z</time>
      </trkpt>
      <trkpt lat="61.27527" lon="5.21511">
        <ele>87.727361</ele>
        <time>2020-07-15T21:45:22.587Z</time>
      </trkpt>
      <trkpt lat="61.27621" lon="5.21386">
        <ele>81.857843</ele>
        <time>2020-07-15T21:45:35.917Z</time>
      </trkpt>
      <trkpt lat="61.27637" lon="5.21344">
        <ele>80.302619</ele>
        <time>2020-07-15T21:45:38.931Z</time>
      </trkpt>
      <trkpt lat="61.27668" lon="5.21209">
        <ele>75.919119</ele>
        <time>2020-07-15T21:45:47.418Z</time>
      </trkpt>
      <trkpt lat="61.2769" lon="5.21158">
        <ele>73.927705</ele>
        <time>2020-07-15T21:45:51.259Z</time>
      </trkpt>
      <trkpt lat="61.27757" lon="5.21101">
        <ele>69.692473</ele>
        <time>2020-07-15T21:45:59.606Z</time>
      </trkpt>
      <trkpt lat="61.27835" lon="5.21055">
        <ele>65.16214</ele>
        <time>2020-07-15T21:46:09.241Z</time>
      </trkpt>
      <trkpt lat="61.27851" lon="5.21042">
        <ele>64.230417</ele>
        <time>2020-07-15T21:46:11.179Z</time>
      </trkpt>
      <trkpt lat="61.27873" lon="5.21021">
        <ele>62.85285</ele>
        <time>2020-07-15T21:46:14.300Z</time>
      </trkpt>
      <trkpt lat="61.2792" lon="5.20973">
        <ele>61.093517</ele>
        <time>2020-07-15T21:46:20.828Z</time>
      </trkpt>
      <trkpt lat="61.27967" lon="5.20967">
        <ele>60.074682</ele>
        <time>2020-07-15T21:46:27.101Z</time>
      </trkpt>
      <trkpt lat="61.27982" lon="5.20947">
        <ele>59.687363</ele>
        <time>2020-07-15T21:46:29.382Z</time>
      </trkpt>
      <trkpt lat="61.28063" lon="5.20739">
        <ele>57.983554</ele>
        <time>2020-07-15T21:46:50.842Z</time>
      </trkpt>
      <trkpt lat="61.28178" lon="5.20297">
        <ele>58.028647</ele>
        <time>2020-07-15T21:47:36.694Z</time>
      </trkpt>
      <trkpt lat="61.2826" lon="5.20151">
        <ele>57.036</ele>
        <time>2020-07-15T21:47:54.037Z</time>
      </trkpt>
      <trkpt lat="61.28266" lon="5.20138">
        <ele>56.836993</ele>
        <time>2020-07-15T21:47:55.214Z</time>
      </trkpt>
      <trkpt lat="61.2827" lon="5.20127">
        <ele>56.675751</ele>
        <time>2020-07-15T21:47:56.210Z</time>
      </trkpt>
      <trkpt lat="61.28274" lon="5.20112">
        <ele>56.466173</ele>
        <time>2020-07-15T21:47:57.627Z</time>
      </trkpt>
      <trkpt lat="61.28279" lon="5.20096">
        <ele>56.249055</ele>
        <time>2020-07-15T21:47:58.973Z</time>
      </trkpt>
      <trkpt lat="61.28281" lon="5.20086">
        <ele>56.110837</ele>
        <time>2020-07-15T21:47:59.693Z</time>
      </trkpt>
      <trkpt lat="61.28294" lon="5.20032">
        <ele>55.408023</ele>
        <time>2020-07-15T21:48:03.591Z</time>
      </trkpt>
      <trkpt lat="61.28309" lon="5.19967">
        <ele>54.557506</ele>
        <time>2020-07-15T21:48:08.111Z</time>
      </trkpt>
      <trkpt lat="61.28316" lon="5.19937">
        <ele>54.157656</ele>
        <time>2020-07-15T21:48:10.176Z</time>
      </trkpt>
      <trkpt lat="61.28349" lon="5.19829">
        <ele>51.64403</ele>
        <time>2020-07-15T21:48:17.881Z</time>
      </trkpt>
      <trkpt lat="61.28355" lon="5.19806">
        <ele>50.999911</ele>
        <time>2020-07-15T21:48:19.388Z</time>
      </trkpt>
      <trkpt lat="61.28358" lon="5.19789">
        <ele>50.535646</ele>
        <time>2020-07-15T21:48:20.447Z</time>
      </trkpt>
      <trkpt lat="61.28374" lon="5.19656">
        <ele>47.114622</ele>
        <time>2020-07-15T21:48:28.480Z</time>
      </trkpt>
      <trkpt lat="61.28414" lon="5.19405">
        <ele>39.603654</ele>
        <time>2020-07-15T21:48:43.233Z</time>
      </trkpt>
      <trkpt lat="61.28427" lon="5.1935">
        <ele>37.709574</ele>
        <time>2020-07-15T21:48:46.651Z</time>
      </trkpt>
      <trkpt lat="61.28435" lon="5.19317">
        <ele>36.550473</ele>
        <time>2020-07-15T21:48:48.692Z</time>
      </trkpt>
      <trkpt lat="61.28457" lon="5.19218">
        <ele>33.17055</ele>
        <time>2020-07-15T21:48:54.705Z</time>
      </trkpt>
      <trkpt lat="61.28507" lon="5.19096">
        <ele>31.516164</ele>
        <time>2020-07-15T21:49:04.139Z</time>
      </trkpt>
      <trkpt lat="61.28522" lon="5.19005">
        <ele>30.811186</ele>
        <time>2020-07-15T21:49:11.896Z</time>
      </trkpt>
      <trkpt lat="61.28526" lon="5.18966">
        <ele>30.51252</ele>
        <time>2020-07-15T21:49:14.465Z</time>
      </trkpt>
      <trkpt lat="61.2853" lon="5.18948">
        <ele>30.370615</ele>
        <time>2020-07-15T21:49:17.453Z</time>
      </trkpt>
      <trkpt lat="61.28554" lon="5.18892">
        <ele>29.810852</ele>
        <time>2020-07-15T21:49:26.484Z</time>
      </trkpt>
      <trkpt lat="61.28618" lon="5.18827">
        <ele>31.049515</ele>
        <time>2020-07-15T21:49:45.743Z</time>
      </trkpt>
      <trkpt lat="61.28621" lon="5.18825">
        <ele>31.119869</ele>
        <time>2020-07-15T21:49:48.571Z</time>
      </trkpt>
      <trkpt lat="61.28626" lon="5.18825">
        <ele>31.20527</ele>
        <time>2020-07-15T21:49:50.265Z</time>
      </trkpt>
      <trkpt lat="61.28689" lon="5.18862">
        <ele>32.38617</ele>
        <time>2020-07-15T21:50:04.813Z</time>
      </trkpt>
      <trkpt lat="61.28725" lon="5.18854">
        <ele>33.047841</ele>
        <time>2020-07-15T21:50:12.613Z</time>
      </trkpt>
      <trkpt lat="61.28758" lon="5.18835">
        <ele>31.593941</ele>
        <time>2020-07-15T21:50:17.820Z</time>
      </trkpt>
      <trkpt lat="61.28769" lon="5.18826">
        <ele>31.117827</ele>
        <time>2020-07-15T21:50:21.082Z</time>
      </trkpt>
      <trkpt lat="61.28776" lon="5.18817">
        <ele>30.76888</ele>
        <time>2020-07-15T21:50:22.005Z</time>
      </trkpt>
      <trkpt lat="61.28798" lon="5.18779">
        <ele>29.533494</ele>
        <time>2020-07-15T21:50:25.704Z</time>
      </trkpt>
      <trkpt lat="61.28814" lon="5.18731">
        <ele>28.351534</ele>
        <time>2020-07-15T21:50:28.999Z</time>
      </trkpt>
      <trkpt lat="61.28841" lon="5.18547">
        <ele>24.097018</ele>
        <time>2020-07-15T21:50:39.570Z</time>
      </trkpt>
      <trkpt lat="61.28852" lon="5.18455">
        <ele>21.481553</ele>
        <time>2020-07-15T21:50:44.864Z</time>
      </trkpt>
      <trkpt lat="61.28868" lon="5.1832">
        <ele>17.660618</ele>
        <time>2020-07-15T21:50:52.778Z</time>
      </trkpt>
      <trkpt lat="61.28886" lon="5.18225">
        <ele>15.060028</ele>
        <time>2020-07-15T21:50:58.812Z</time>
      </trkpt>
      <trkpt lat="61.28889" lon="5.18216">
        <ele>14.992071</ele>
        <time>2020-07-15T21:50:59.411Z</time>
      </trkpt>
      <trkpt lat="61.28894" lon="5.18207">
        <ele>14.9097</ele>
        <time>2020-07-15T21:51:00.260Z</time>
      </trkpt>
      <trkpt lat="61.289" lon="5.18196">
        <ele>14.809938</ele>
        <time>2020-07-15T21:51:01.298Z</time>
      </trkpt>
      <trkpt lat="61.28904" lon="5.18188">
        <ele>14.728356</ele>
        <time>2020-07-15T21:51:02.153Z</time>
      </trkpt>
      <trkpt lat="61.28912" lon="5.18178">
        <ele>14.612685</ele>
        <time>2020-07-15T21:51:03.428Z</time>
      </trkpt>
      <trkpt lat="61.28955" lon="5.18141">
        <ele>14.011127</ele>
        <time>2020-07-15T21:51:09.996Z</time>
      </trkpt>
      <trkpt lat="61.28975" lon="5.181">
        <ele>13.65584</ele>
        <time>2020-07-15T21:51:14.669Z</time>
      </trkpt>
      <trkpt lat="61.28993" lon="5.18039">
        <ele>13.210931</ele>
        <time>2020-07-15T21:51:20.942Z</time>
      </trkpt>
      <trkpt lat="61.29018" lon="5.17953">
        <ele>13.084212</ele>
        <time>2020-07-15T21:51:30.758Z</time>
      </trkpt>
      <trkpt lat="61.29087" lon="5.17726">
        <ele>15.202125</ele>
        <time>2020-07-15T21:52:01.731Z</time>
      </trkpt>
      <trkpt lat="61.29105" lon="5.17695">
        <ele>15.575384</ele>
        <time>2020-07-15T21:52:07.272Z</time>
      </trkpt>
      <trkpt lat="61.29132" lon="5.1767">
        <ele>15.996453</ele>
        <time>2020-07-15T21:52:14.406Z</time>
      </trkpt>
      <trkpt lat="61.29161" lon="5.17664">
        <ele>16.366044</ele>
        <time>2020-07-15T21:52:21.145Z</time>
      </trkpt>
      <trkpt lat="61.29259" lon="5.1768">
        <ele>17.608049</ele>
        <time>2020-07-15T21:52:42.608Z</time>
      </trkpt>
      <trkpt lat="61.29358" lon="5.17734">
        <ele>18.337346</ele>
        <time>2020-07-15T21:53:03.020Z</time>
      </trkpt>
      <trkpt lat="61.29432" lon="5.17763">
        <ele>18.676479</ele>
        <time>2020-07-15T21:53:17.181Z</time>
      </trkpt>
      <trkpt lat="61.29499" lon="5.17735">
        <ele>18.842452</ele>
        <time>2020-07-15T21:53:29.649Z</time>
      </trkpt>
      <trkpt lat="61.2955" lon="5.17731">
        <ele>18.853663</ele>
        <time>2020-07-15T21:53:39.041Z</time>
      </trkpt>
      <trkpt lat="61.29604" lon="5.17699">
        <ele>18.865929</ele>
        <time>2020-07-15T21:53:49.278Z</time>
      </trkpt>
      <trkpt lat="61.29625" lon="5.17667">
        <ele>18.871599</ele>
        <time>2020-07-15T21:53:53.944Z</time>
      </trkpt>
      <trkpt lat="61.29689" lon="5.1752">
        <ele>18.189827</ele>
        <time>2020-07-15T21:54:09.828Z</time>
      </trkpt>
      <trkpt lat="61.29707" lon="5.175">
        <ele>18.01655</ele>
        <time>2020-07-15T21:54:13.239Z</time>
      </trkpt>
      <trkpt lat="61.29726" lon="5.17493">
        <ele>17.853177</ele>
        <time>2020-07-15T21:54:16.088Z</time>
      </trkpt>
      <trkpt lat="61.29738" lon="5.17491">
        <ele>17.757209</ele>
        <time>2020-07-15T21:54:17.881Z</time>
      </trkpt>
      <trkpt lat="61.29759" lon="5.17487">
        <ele>17.575055</ele>
        <time>2020-07-15T21:54:21.055Z</time>
      </trkpt>
      <trkpt lat="61.29848" lon="5.17471">
        <ele>15.899697</ele>
        <time>2020-07-15T21:54:34.082Z</time>
      </trkpt>
      <trkpt lat="61.29862" lon="5.17467">
        <ele>15.587652</ele>
        <time>2020-07-15T21:54:35.925Z</time>
      </trkpt>
      <trkpt lat="61.29874" lon="5.17462">
        <ele>15.310478</ele>
        <time>2020-07-15T21:54:37.539Z</time>
      </trkpt>
      <trkpt lat="61.29978" lon="5.17412">
        <ele>12.876308</ele>
        <time>2020-07-15T21:54:51.889Z</time>
      </trkpt>
      <trkpt lat="61.29999" lon="5.17401">
        <ele>12.388659</ele>
        <time>2020-07-15T21:54:54.785Z</time>
      </trkpt>
      <trkpt lat="61.30004" lon="5.17399">
        <ele>12.284156</ele>
        <time>2020-07-15T21:54:55.442Z</time>
      </trkpt>
      <trkpt lat="61.30023" lon="5.17389">
        <ele>11.833938</ele>
        <time>2020-07-15T21:54:58.185Z</time>
      </trkpt>
      <trkpt lat="61.30094" lon="5.17327">
        <ele>10.142226</ele>
        <time>2020-07-15T21:55:08.851Z</time>
      </trkpt>
      <trkpt lat="61.30101" lon="5.17327">
        <ele>9.969084</ele>
        <time>2020-07-15T21:55:09.872Z</time>
      </trkpt>
      <trkpt lat="61.301" lon="5.17315">
        <ele>9.841879</ele>
        <time>2020-07-15T21:55:10.791Z</time>
      </trkpt>
      <trkpt lat="61.30092" lon="5.17086">
        <ele>8.240975</ele>
        <time>2020-07-15T21:55:26.966Z</time>
      </trkpt>
      <trkpt lat="61.30098" lon="5.1703">
        <ele>7.907342</ele>
        <time>2020-07-15T21:55:31.096Z</time>
      </trkpt>
      <trkpt lat="61.30192" lon="5.16809">
        <ele>6.929141</ele>
        <time>2020-07-15T21:55:54.049Z</time>
      </trkpt>
      <trkpt lat="61.30202" lon="5.16764">
        <ele>6.879408</ele>
        <time>2020-07-15T21:55:58.175Z</time>
      </trkpt>
      <trkpt lat="61.30207" lon="5.16693">
        <ele>6.808273</ele>
        <time>2020-07-15T21:56:04.208Z</time>
      </trkpt>
      <trkpt lat="61.30209" lon="5.16603">
        <ele>6.718318</ele>
        <time>2020-07-15T21:56:12.049Z</time>
      </trkpt>
      <trkpt lat="61.30209" lon="5.16551">
        <ele>6.818346</ele>
        <time>2020-07-15T21:56:16.718Z</time>
      </trkpt>
      <trkpt lat="61.30194" lon="5.16369">
        <ele>7.316889</ele>
        <time>2020-07-15T21:56:33.936Z</time>
      </trkpt>
      <trkpt lat="61.30189" lon="5.16225">
        <ele>7.707098</ele>
        <time>2020-07-15T21:56:48.226Z</time>
      </trkpt>
      <trkpt lat="61.30188" lon="5.16175">
        <ele>7.874444</ele>
        <time>2020-07-15T21:56:53.188Z</time>
      </trkpt>
      <trkpt lat="61.30185" lon="5.16102">
        <ele>8.122043</ele>
        <time>2020-07-15T21:57:00.450Z</time>
      </trkpt>
      <trkpt lat="61.30183" lon="5.16062">
        <ele>8.260745</ele>
        <time>2020-07-15T21:57:04.427Z</time>
      </trkpt>
      <trkpt lat="61.30182" lon="5.16048">
        <ele>8.30623</ele>
        <time>2020-07-15T21:57:05.736Z</time>
      </trkpt>
      <trkpt lat="61.30182" lon="5.16026">
        <ele>8.38175</ele>
        <time>2020-07-15T21:57:08.067Z</time>
      </trkpt>
      <trkpt lat="61.3017" lon="5.1594">
        <ele>8.68534</ele>
        <time>2020-07-15T21:57:16.711Z</time>
      </trkpt>
      <trkpt lat="61.30155" lon="5.15905">
        <ele>8.844389</ele>
        <time>2020-07-15T21:57:21.138Z</time>
      </trkpt>
      <trkpt lat="61.3013" lon="5.15861">
        <ele>8.976625</ele>
        <time>2020-07-15T21:57:27.564Z</time>
      </trkpt>
      <trkpt lat="61.30101" lon="5.15806">
        <ele>8.921571</ele>
        <time>2020-07-15T21:57:35.161Z</time>
      </trkpt>
      <trkpt lat="61.29976" lon="5.15577">
        <ele>8.580105</ele>
        <time>2020-07-15T21:58:02.805Z</time>
      </trkpt>
      <trkpt lat="61.29964" lon="5.15552">
        <ele>8.503105</ele>
        <time>2020-07-15T21:58:05.608Z</time>
      </trkpt>
      <trkpt lat="61.29954" lon="5.15535">
        <ele>8.450775</ele>
        <time>2020-07-15T21:58:07.530Z</time>
      </trkpt>
      <trkpt lat="61.29927" lon="5.15493">
        <ele>8.30346</ele>
        <time>2020-07-15T21:58:13.231Z</time>
      </trkpt>
      <trkpt lat="61.29882" lon="5.15441">
        <ele>8.079866</ele>
        <time>2020-07-15T21:58:21.928Z</time>
      </trkpt>
      <trkpt lat="61.29814" lon="5.154">
        <ele>7.803564</ele>
        <time>2020-07-15T21:58:33.846Z</time>
      </trkpt>
      <trkpt lat="61.29792" lon="5.15394">
        <ele>7.721984</ele>
        <time>2020-07-15T21:58:37.889Z</time>
      </trkpt>
      <trkpt lat="61.29772" lon="5.1539">
        <ele>7.648188</ele>
        <time>2020-07-15T21:58:41.370Z</time>
      </trkpt>
      <trkpt lat="61.29711" lon="5.15372">
        <ele>7.42041</ele>
        <time>2020-07-15T21:58:51.810Z</time>
      </trkpt>
      <trkpt lat="61.29688" lon="5.15351">
        <ele>7.325406</ele>
        <time>2020-07-15T21:58:56.081Z</time>
      </trkpt>
      <trkpt lat="61.29665" lon="5.15314">
        <ele>7.03222</ele>
        <time>2020-07-15T21:59:00.705Z</time>
      </trkpt>
      <trkpt lat="61.29432" lon="5.14758">
        <ele>2.666491</ele>
        <time>2020-07-15T21:59:53.369Z</time>
      </trkpt>
      <trkpt lat="61.29379" lon="5.1458">
        <ele>2.1757</ele>
        <time>2020-07-15T22:00:09.904Z</time>
      </trkpt>
      <trkpt lat="61.29365" lon="5.14522">
        <ele>2.023328</ele>
        <time>2020-07-15T22:00:15.342Z</time>
      </trkpt>
      <trkpt lat="61.29354" lon="5.14473">
        <ele>1.896142</ele>
        <time>2020-07-15T22:00:19.987Z</time>
      </trkpt>
      <trkpt lat="61.29348" lon="5.14451">
        <ele>1.887292</ele>
        <time>2020-07-15T22:00:22.282Z</time>
      </trkpt>
      <trkpt lat="61.29334" lon="5.14401">
        <ele>1.957787</ele>
        <time>2020-07-15T22:00:27.292Z</time>
      </trkpt>
      <trkpt lat="61.29326" lon="5.14382">
        <ele>1.98774</ele>
        <time>2020-07-15T22:00:29.560Z</time>
      </trkpt>
      <trkpt lat="61.29308" lon="5.14341">
        <ele>2.055861</ele>
        <time>2020-07-15T22:00:34.554Z</time>
      </trkpt>
      <trkpt lat="61.29257" lon="5.1428">
        <ele>2.204948</ele>
        <time>2020-07-15T22:00:45.814Z</time>
      </trkpt>
      <trkpt lat="61.29236" lon="5.14261">
        <ele>2.262439</ele>
        <time>2020-07-15T22:00:50.208Z</time>
      </trkpt>
      <trkpt lat="61.2923" lon="5.14253">
        <ele>2.280183</ele>
        <time>2020-07-15T22:00:51.474Z</time>
      </trkpt>
      <trkpt lat="61.29207" lon="5.14231">
        <ele>2.33538</ele>
        <time>2020-07-15T22:00:56.255Z</time>
      </trkpt>
      <trkpt lat="61.29183" lon="5.14205">
        <ele>2.370853</ele>
        <time>2020-07-15T22:01:01.207Z</time>
      </trkpt>
      <trkpt lat="61.29151" lon="5.14151">
        <ele>2.424518</ele>
        <time>2020-07-15T22:01:08.644Z</time>
      </trkpt>
      <trkpt lat="61.2912" lon="5.14052">
        <ele>2.499283</ele>
        <time>2020-07-15T22:01:18.990Z</time>
      </trkpt>
      <trkpt lat="61.29104" lon="5.13944">
        <ele>2.567218</ele>
        <time>2020-07-15T22:01:28.881Z</time>
      </trkpt>
      <trkpt lat="61.29085" lon="5.13733">
        <ele>2.656909</ele>
        <time>2020-07-15T22:01:47.399Z</time>
      </trkpt>
      <trkpt lat="61.29073" lon="5.13672">
        <ele>2.684253</ele>
        <time>2020-07-15T22:01:53.139Z</time>
      </trkpt>
      <trkpt lat="61.29045" lon="5.13613">
        <ele>2.725055</ele>
        <time>2020-07-15T22:02:00.564Z</time>
      </trkpt>
      <trkpt lat="61.2898" lon="5.13542">
        <ele>2.986209</ele>
        <time>2020-07-15T22:02:13.983Z</time>
      </trkpt>
      <trkpt lat="61.28971" lon="5.13531">
        <ele>3.024843</ele>
        <time>2020-07-15T22:02:15.994Z</time>
      </trkpt>
      <trkpt lat="61.28964" lon="5.13518">
        <ele>3.05954</ele>
        <time>2020-07-15T22:02:17.812Z</time>
      </trkpt>
      <trkpt lat="61.28943" lon="5.1347">
        <ele>3.172319</ele>
        <time>2020-07-15T22:02:23.695Z</time>
      </trkpt>
      <trkpt lat="61.28938" lon="5.13454">
        <ele>3.204844</ele>
        <time>2020-07-15T22:02:25.434Z</time>
      </trkpt>
      <trkpt lat="61.28934" lon="5.13443">
        <ele>3.227567</ele>
        <time>2020-07-15T22:02:26.651Z</time>
      </trkpt>
      <trkpt lat="61.28931" lon="5.1343">
        <ele>3.252043</ele>
        <time>2020-07-15T22:02:27.941Z</time>
      </trkpt>
      <trkpt lat="61.28929" lon="5.13417">
        <ele>3.27584</ele>
        <time>2020-07-15T22:02:29.250Z</time>
      </trkpt>
      <trkpt lat="61.28927" lon="5.13406">
        <ele>3.297036</ele>
        <time>2020-07-15T22:02:30.414Z</time>
      </trkpt>
      <trkpt lat="61.28926" lon="5.13392">
        <ele>3.321696</ele>
        <time>2020-07-15T22:02:31.744Z</time>
      </trkpt>
      <trkpt lat="61.28931" lon="5.13311">
        <ele>3.637757</ele>
        <time>2020-07-15T22:02:39.684Z</time>
      </trkpt>
      <trkpt lat="61.28962" lon="5.13185">
        <ele>4.315551</ele>
        <time>2020-07-15T22:02:53.784Z</time>
      </trkpt>
      <trkpt lat="61.29006" lon="5.13004">
        <ele>5.372517</ele>
        <time>2020-07-15T22:03:14.695Z</time>
      </trkpt>
      <trkpt lat="61.29144" lon="5.12448">
        <ele>10.95858</ele>
        <time>2020-07-15T22:04:25.229Z</time>
      </trkpt>
      <trkpt lat="61.29259" lon="5.11986">
        <ele>17.362291</ele>
        <time>2020-07-15T22:05:33.628Z</time>
      </trkpt>
      <trkpt lat="61.29287" lon="5.11873">
        <ele>18.155486</ele>
        <time>2020-07-15T22:05:48.066Z</time>
      </trkpt>
      <trkpt lat="61.29324" lon="5.11726">
        <ele>19.18828</ele>
        <time>2020-07-15T22:06:04.339Z</time>
      </trkpt>
      <trkpt lat="61.29346" lon="5.11634">
        <ele>19.01703</ele>
        <time>2020-07-15T22:06:12.680Z</time>
      </trkpt>
      <trkpt lat="61.29352" lon="5.11614">
        <ele>18.893215</ele>
        <time>2020-07-15T22:06:14.542Z</time>
      </trkpt>
      <trkpt lat="61.29377" lon="5.11512">
        <ele>18.293514</ele>
        <time>2020-07-15T22:06:22.937Z</time>
      </trkpt>
      <trkpt lat="61.29384" lon="5.11483">
        <ele>18.129536</ele>
        <time>2020-07-15T22:06:25.223Z</time>
      </trkpt>
      <trkpt lat="61.29388" lon="5.11462">
        <ele>18.010833</ele>
        <time>2020-07-15T22:06:26.759Z</time>
      </trkpt>
      <trkpt lat="61.29405" lon="5.11314">
        <ele>17.230405</ele>
        <time>2020-07-15T22:06:37.257Z</time>
      </trkpt>
      <trkpt lat="61.29406" lon="5.11204">
        <ele>16.68255</ele>
        <time>2020-07-15T22:06:44.929Z</time>
      </trkpt>
      <trkpt lat="61.29401" lon="5.11136">
        <ele>16.345866</ele>
        <time>2020-07-15T22:06:49.728Z</time>
      </trkpt>
      <trkpt lat="61.29376" lon="5.10977">
        <ele>15.652009</ele>
        <time>2020-07-15T22:07:02.859Z</time>
      </trkpt>
      <trkpt lat="61.29299" lon="5.10601">
        <ele>17.843938</ele>
        <time>2020-07-15T22:07:46.139Z</time>
      </trkpt>
      <trkpt lat="61.29296" lon="5.10558">
        <ele>18.143521</ele>
        <time>2020-07-15T22:07:51.311Z</time>
      </trkpt>
      <trkpt lat="61.29301" lon="5.10518">
        <ele>18.426929</ele>
        <time>2020-07-15T22:07:55.855Z</time>
      </trkpt>
      <trkpt lat="61.29304" lon="5.10501">
        <ele>18.550055</ele>
        <time>2020-07-15T22:07:58.730Z</time>
      </trkpt>
      <trkpt lat="61.29308" lon="5.10491">
        <ele>18.640765</ele>
        <time>2020-07-15T22:07:59.657Z</time>
      </trkpt>
      <trkpt lat="61.29327" lon="5.10461">
        <ele>18.982257</ele>
        <time>2020-07-15T22:08:05.240Z</time>
      </trkpt>
      <trkpt lat="61.2937" lon="5.1042">
        <ele>19.655926</ele>
        <time>2020-07-15T22:08:15.782Z</time>
      </trkpt>
      <trkpt lat="61.29382" lon="5.10397">
        <ele>19.892674</ele>
        <time>2020-07-15T22:08:19.098Z</time>
      </trkpt>
      <trkpt lat="61.29389" lon="5.1036">
        <ele>20.086523</ele>
        <time>2020-07-15T22:08:23.487Z</time>
      </trkpt>
      <trkpt lat="61.29391" lon="5.10278">
        <ele>20.001818</ele>
        <time>2020-07-15T22:08:31.400Z</time>
      </trkpt>
      <trkpt lat="61.29371" lon="5.09997">
        <ele>19.6886</ele>
        <time>2020-07-15T22:08:54.238Z</time>
      </trkpt>
      <trkpt lat="61.29393" lon="5.09729">
        <ele>16.781779</ele>
        <time>2020-07-15T22:09:12.397Z</time>
      </trkpt>
      <trkpt lat="61.29405" lon="5.09585">
        <ele>15.047322</ele>
        <time>2020-07-15T22:09:21.642Z</time>
      </trkpt>
      <trkpt lat="61.29414" lon="5.09477">
        <ele>13.468307</ele>
        <time>2020-07-15T22:09:28.507Z</time>
      </trkpt>
      <trkpt lat="61.29433" lon="5.09263">
        <ele>10.329836</ele>
        <time>2020-07-15T22:09:42.245Z</time>
      </trkpt>
      <trkpt lat="61.29455" lon="5.09011">
        <ele>8.452555</ele>
        <time>2020-07-15T22:10:00.093Z</time>
      </trkpt>
      <trkpt lat="61.29461" lon="5.0894">
        <ele>7.926903</ele>
        <time>2020-07-15T22:10:05.591Z</time>
      </trkpt>
      <trkpt lat="61.2948" lon="5.08714">
        <ele>6.813964</ele>
        <time>2020-07-15T22:10:23.490Z</time>
      </trkpt>
      <trkpt lat="61.29498" lon="5.08524">
        <ele>5.998739</ele>
        <time>2020-07-15T22:10:38.309Z</time>
      </trkpt>
      <trkpt lat="61.29504" lon="5.08526">
        <ele>5.882785</ele>
        <time>2020-07-15T22:10:39.124Z</time>
      </trkpt>
      <trkpt lat="61.29622" lon="5.08497">
        <ele>3.698267</ele>
        <time>2020-07-15T22:10:56.041Z</time>
      </trkpt>
      <trkpt lat="61.29687" lon="5.08465">
        <ele>2.55867</ele>
        <time>2020-07-15T22:11:05.286Z</time>
      </trkpt>
      <trkpt lat="61.29709" lon="5.08451">
        <ele>2.269008</ele>
        <time>2020-07-15T22:11:08.584Z</time>
      </trkpt>
      <trkpt lat="61.2973" lon="5.08439">
        <ele>1.998172</ele>
        <time>2020-07-15T22:11:11.788Z</time>
      </trkpt>
      <trkpt lat="61.29769" lon="5.08426">
        <ele>1.497681</ele>
        <time>2020-07-15T22:11:17.759Z</time>
      </trkpt>
      <trkpt lat="61.29789" lon="5.0844">
        <ele>1.231248</ele>
        <time>2020-07-15T22:11:21.014Z</time>
      </trkpt>
      <trkpt lat="61.29798" lon="5.0846">
        <ele>1.069666</ele>
        <time>2020-07-15T22:11:22.988Z</time>
      </trkpt>
      <trkpt lat="61.29807" lon="5.08534">
        <ele>0.608706</ele>
        <time>2020-07-15T22:11:28.791Z</time>
      </trkpt>
      <trkpt lat="61.2981" lon="5.08568">
        <ele>0.447916</ele>
        <time>2020-07-15T22:11:31.455Z</time>
      </trkpt>
      <trkpt lat="61.29844" lon="5.0877">
        <ele>0.243492</ele>
        <time>2020-07-15T22:11:45.749Z</time>
      </trkpt>
      <trkpt lat="61.29875" lon="5.08883">
        <ele>0.118999</ele>
        <time>2020-07-15T22:11:54.444Z</time>
      </trkpt>
      <trkpt lat="61.29919" lon="5.08991">
        <ele>0.069417</ele>
        <time>2020-07-15T22:12:03.915Z</time>
      </trkpt>
      <trkpt lat="61.29982" lon="5.09101">
        <ele>0.028336</ele>
        <time>2020-07-15T22:12:15.409Z</time>
      </trkpt>
      <trkpt lat="61.30033" lon="5.09129">
        <ele>0.0078</ele>
        <time>2020-07-15T22:12:22.756Z</time>
      </trkpt>
      <trkpt lat="61.30196" lon="5.09061">
        <ele>5.4E-5</ele>
        <time>2020-07-15T22:12:45.869Z</time>
      </trkpt>
      <trkpt lat="61.31122" lon="5.0819">
        <time>2020-07-15T22:15:07.457Z</time>
      </trkpt>
      <trkpt lat="61.32197" lon="5.0733">
        <time>2020-07-15T22:17:47.905Z</time>
      </trkpt>
      <trkpt lat="61.32561" lon="5.07073">
        <time>2020-07-15T22:18:41.457Z</time>
      </trkpt>
      <trkpt lat="61.33032" lon="5.06917">
        <time>2020-07-15T22:19:47.911Z</time>
      </trkpt>
      <trkpt lat="61.34124" lon="5.0682">
        <time>2020-07-15T22:22:20.102Z</time>
      </trkpt>
      <trkpt lat="61.34302" lon="5.06742">
        <time>2020-07-15T22:22:45.515Z</time>
      </trkpt>
      <trkpt lat="61.34379" lon="5.06671">
        <ele>0.162542</ele>
        <time>2020-07-15T22:22:57.264Z</time>
      </trkpt>
      <trkpt lat="61.34424" lon="5.06612">
        <ele>0.283183</ele>
        <time>2020-07-15T22:23:04.566Z</time>
      </trkpt>
      <trkpt lat="61.34474" lon="5.06529">
        <ele>0.687155</ele>
        <time>2020-07-15T22:23:13.533Z</time>
      </trkpt>
      <trkpt lat="61.34526" lon="5.0644">
        <ele>3.129984</ele>
        <time>2020-07-15T22:23:22.952Z</time>
      </trkpt>
      <trkpt lat="61.34542" lon="5.06433">
        <ele>3.723081</ele>
        <time>2020-07-15T22:23:28.319Z</time>
      </trkpt>
      <trkpt lat="61.34555" lon="5.06425">
        <ele>4.208576</ele>
        <time>2020-07-15T22:23:32.096Z</time>
      </trkpt>
      <trkpt lat="61.34578" lon="5.06386">
        <ele>5.268349</ele>
        <time>2020-07-15T22:23:42.864Z</time>
      </trkpt>
      <trkpt lat="61.3458" lon="5.06378">
        <ele>5.43585</ele>
        <time>2020-07-15T22:23:44.315Z</time>
      </trkpt>
      <trkpt lat="61.34583" lon="5.06352">
        <ele>5.895179</ele>
        <time>2020-07-15T22:23:49.030Z</time>
      </trkpt>
      <trkpt lat="61.34585" lon="5.06319">
        <ele>6.481256</ele>
        <time>2020-07-15T22:23:55.290Z</time>
      </trkpt>
      <trkpt lat="61.34587" lon="5.06304">
        <ele>6.745499</ele>
        <time>2020-07-15T22:23:57.667Z</time>
      </trkpt>
      <trkpt lat="61.34594" lon="5.06298">
        <ele>7.036987</ele>
        <time>2020-07-15T22:24:00.212Z</time>
      </trkpt>
      <trkpt lat="61.34606" lon="5.06287">
        <ele>7.598072</ele>
        <time>2020-07-15T22:24:05.919Z</time>
      </trkpt>
      <trkpt lat="61.34654" lon="5.06244">
        <ele>9.892495</ele>
        <time>2020-07-15T22:24:24.765Z</time>
      </trkpt>
      <trkpt lat="61.34674" lon="5.06227">
        <ele>10.844805</ele>
        <time>2020-07-15T22:24:32.820Z</time>
      </trkpt>
      <trkpt lat="61.3468" lon="5.06221">
        <ele>11.141796</ele>
        <time>2020-07-15T22:24:34.853Z</time>
      </trkpt>
      <trkpt lat="61.34697" lon="5.06308">
        <ele>13.108251</ele>
        <time>2020-07-15T22:24:48.662Z</time>
      </trkpt>
      <trkpt lat="61.34715" lon="5.064">
        <ele>14.628637</ele>
        <time>2020-07-15T22:25:01.652Z</time>
      </trkpt>
      <trkpt lat="61.3474" lon="5.06536">
        <ele>13.45646</ele>
        <time>2020-07-15T22:25:13.807Z</time>
      </trkpt>
      <trkpt lat="61.34763" lon="5.06653">
        <ele>12.446843</ele>
        <time>2020-07-15T22:25:21.582Z</time>
      </trkpt>
      <trkpt lat="61.34766" lon="5.06671">
        <ele>12.291592</ele>
        <time>2020-07-15T22:25:22.855Z</time>
      </trkpt>
      <trkpt lat="61.34767" lon="5.06681">
        <ele>12.208357</ele>
        <time>2020-07-15T22:25:23.448Z</time>
      </trkpt>
      <trkpt lat="61.34768" lon="5.06688">
        <ele>12.154349</ele>
        <time>2020-07-15T22:25:23.857Z</time>
      </trkpt>
      <trkpt lat="61.34782" lon="5.06764">
        <ele>11.32628</ele>
        <time>2020-07-15T22:25:28.713Z</time>
      </trkpt>
      <trkpt lat="61.34794" lon="5.06817">
        <ele>10.557063</ele>
        <time>2020-07-15T22:25:32.222Z</time>
      </trkpt>
      <trkpt lat="61.34796" lon="5.06836">
        <ele>10.301555</ele>
        <time>2020-07-15T22:25:33.448Z</time>
      </trkpt>
      <trkpt lat="61.34797" lon="5.06852">
        <ele>10.087215</ele>
        <time>2020-07-15T22:25:34.373Z</time>
      </trkpt>
      <trkpt lat="61.34788" lon="5.06983">
        <ele>8.351968</ele>
        <time>2020-07-15T22:25:42.990Z</time>
      </trkpt>
      <trkpt lat="61.34772" lon="5.07146">
        <ele>6.977725</ele>
        <time>2020-07-15T22:25:54.599Z</time>
      </trkpt>
      <trkpt lat="61.3477" lon="5.07172">
        <ele>7.039869</ele>
        <time>2020-07-15T22:25:56.806Z</time>
      </trkpt>
      <trkpt lat="61.34768" lon="5.07207">
        <ele>7.1216</ele>
        <time>2020-07-15T22:25:59.916Z</time>
      </trkpt>
      <trkpt lat="61.34762" lon="5.0725">
        <ele>7.226223</ele>
        <time>2020-07-15T22:26:03.978Z</time>
      </trkpt>
      <trkpt lat="61.34757" lon="5.07286">
        <ele>7.314173</ele>
        <time>2020-07-15T22:26:07.657Z</time>
      </trkpt>
      <trkpt lat="61.34746" lon="5.07339">
        <ele>7.449279</ele>
        <time>2020-07-15T22:26:13.645Z</time>
      </trkpt>
      <trkpt lat="61.34734" lon="5.0743">
        <ele>7.671075</ele>
        <time>2020-07-15T22:26:23.802Z</time>
      </trkpt>
      <trkpt lat="61.34723" lon="5.07553">
        <ele>8.454376</ele>
        <time>2020-07-15T22:26:37.953Z</time>
      </trkpt>
      <trkpt lat="61.34718" lon="5.076">
        <ele>8.808324</ele>
        <time>2020-07-15T22:26:43.612Z</time>
      </trkpt>
      <trkpt lat="61.34713" lon="5.07637">
        <ele>9.093322</ele>
        <time>2020-07-15T22:26:47.735Z</time>
      </trkpt>
      <trkpt lat="61.34707" lon="5.07659">
        <ele>9.276574</ele>
        <time>2020-07-15T22:26:50.794Z</time>
      </trkpt>
      <trkpt lat="61.34702" lon="5.07679">
        <ele>9.441764</ele>
        <time>2020-07-15T22:26:52.842Z</time>
      </trkpt>
      <trkpt lat="61.34691" lon="5.07712">
        <ele>9.735928</ele>
        <time>2020-07-15T22:26:57.266Z</time>
      </trkpt>
      <trkpt lat="61.34676" lon="5.07735">
        <ele>10.025374</ele>
        <time>2020-07-15T22:27:01.325Z</time>
      </trkpt>
      <trkpt lat="61.3464" lon="5.07755">
        <ele>10.560096</ele>
        <time>2020-07-15T22:27:09.446Z</time>
      </trkpt>
      <trkpt lat="61.34629" lon="5.0777">
        <ele>10.696018</ele>
        <time>2020-07-15T22:27:12.369Z</time>
      </trkpt>
      <trkpt lat="61.34612" lon="5.07856">
        <ele>11.156465</ele>
        <time>2020-07-15T22:27:21.909Z</time>
      </trkpt>
      <trkpt lat="61.34604" lon="5.07959">
        <ele>11.673654</ele>
        <time>2020-07-15T22:27:32.164Z</time>
      </trkpt>
      <trkpt lat="61.3461" lon="5.08208">
        <ele>12.590271</ele>
        <time>2020-07-15T22:27:57.561Z</time>
      </trkpt>
      <trkpt lat="61.34609" lon="5.0829">
        <ele>12.762523</ele>
        <time>2020-07-15T22:28:05.280Z</time>
      </trkpt>
      <trkpt lat="61.34601" lon="5.08442">
        <ele>13.084664</ele>
        <time>2020-07-15T22:28:18.523Z</time>
      </trkpt>
      <trkpt lat="61.3459" lon="5.08565">
        <ele>13.187477</ele>
        <time>2020-07-15T22:28:28.855Z</time>
      </trkpt>
      <trkpt lat="61.34583" lon="5.08628">
        <ele>13.217939</ele>
        <time>2020-07-15T22:28:34.119Z</time>
      </trkpt>
      <trkpt lat="61.3458" lon="5.08668">
        <ele>13.236757</ele>
        <time>2020-07-15T22:28:37.460Z</time>
      </trkpt>
      <trkpt lat="61.34584" lon="5.0882">
        <ele>13.308501</ele>
        <time>2020-07-15T22:28:51.512Z</time>
      </trkpt>
      <trkpt lat="61.34606" lon="5.08976">
        <ele>14.125035</ele>
        <time>2020-07-15T22:29:06.953Z</time>
      </trkpt>
      <trkpt lat="61.34609" lon="5.08995">
        <ele>14.238659</ele>
        <time>2020-07-15T22:29:09.245Z</time>
      </trkpt>
      <trkpt lat="61.34612" lon="5.09019">
        <ele>14.380542</ele>
        <time>2020-07-15T22:29:11.828Z</time>
      </trkpt>
      <trkpt lat="61.34622" lon="5.09079">
        <ele>14.737839</ele>
        <time>2020-07-15T22:29:18.337Z</time>
      </trkpt>
      <trkpt lat="61.34627" lon="5.09102">
        <ele>14.879161</ele>
        <time>2020-07-15T22:29:20.895Z</time>
      </trkpt>
      <trkpt lat="61.34632" lon="5.09131">
        <ele>15.051751</ele>
        <time>2020-07-15T22:29:24.099Z</time>
      </trkpt>
      <trkpt lat="61.34634" lon="5.09171">
        <ele>15.281033</ele>
        <time>2020-07-15T22:29:28.544Z</time>
      </trkpt>
      <trkpt lat="61.34632" lon="5.09174">
        <ele>15.314805</ele>
        <time>2020-07-15T22:29:29.100Z</time>
      </trkpt>
      <trkpt lat="61.34643" lon="5.09241">
        <ele>15.972786</ele>
        <time>2020-07-15T22:29:37.835Z</time>
      </trkpt>
      <trkpt lat="61.34673" lon="5.09434">
        <ele>18.167731</ele>
        <time>2020-07-15T22:30:02.418Z</time>
      </trkpt>
      <trkpt lat="61.34675" lon="5.09447">
        <ele>18.327526</ele>
        <time>2020-07-15T22:30:04.662Z</time>
      </trkpt>
      <trkpt lat="61.34684" lon="5.09498">
        <ele>18.903938</ele>
        <time>2020-07-15T22:30:11.195Z</time>
      </trkpt>
      <trkpt lat="61.34687" lon="5.09519">
        <ele>19.14476</ele>
        <time>2020-07-15T22:30:14.452Z</time>
      </trkpt>
      <trkpt lat="61.34711" lon="5.09663">
        <ele>19.59564</ele>
        <time>2020-07-15T22:30:31.802Z</time>
      </trkpt>
      <trkpt lat="61.34727" lon="5.09762">
        <ele>19.677446</ele>
        <time>2020-07-15T22:30:41.189Z</time>
      </trkpt>
      <trkpt lat="61.34735" lon="5.09824">
        <ele>19.726881</ele>
        <time>2020-07-15T22:30:46.263Z</time>
      </trkpt>
      <trkpt lat="61.34738" lon="5.09857">
        <ele>19.753137</ele>
        <time>2020-07-15T22:30:48.634Z</time>
      </trkpt>
      <trkpt lat="61.34745" lon="5.09927">
        <ele>19.46661</ele>
        <time>2020-07-15T22:30:53.600Z</time>
      </trkpt>
      <trkpt lat="61.34749" lon="5.09956">
        <ele>18.944284</ele>
        <time>2020-07-15T22:30:55.619Z</time>
      </trkpt>
      <trkpt lat="61.34759" lon="5.10044">
        <ele>17.3756</ele>
        <time>2020-07-15T22:31:01.351Z</time>
      </trkpt>
      <trkpt lat="61.34765" lon="5.10092">
        <ele>16.495902</ele>
        <time>2020-07-15T22:31:04.389Z</time>
      </trkpt>
      <trkpt lat="61.34781" lon="5.10155">
        <ele>15.249983</ele>
        <time>2020-07-15T22:31:08.616Z</time>
      </trkpt>
      <trkpt lat="61.34809" lon="5.10205">
        <ele>13.902484</ele>
        <time>2020-07-15T22:31:13.215Z</time>
      </trkpt>
      <trkpt lat="61.34837" lon="5.10239">
        <ele>12.616577</ele>
        <time>2020-07-15T22:31:17.029Z</time>
      </trkpt>
      <trkpt lat="61.34914" lon="5.10296">
        <ele>8.898465</ele>
        <time>2020-07-15T22:31:26.941Z</time>
      </trkpt>
      <trkpt lat="61.34932" lon="5.10323">
        <ele>7.88145</ele>
        <time>2020-07-15T22:31:29.698Z</time>
      </trkpt>
      <trkpt lat="61.34942" lon="5.10362">
        <ele>6.920087</ele>
        <time>2020-07-15T22:31:32.352Z</time>
      </trkpt>
      <trkpt lat="61.34948" lon="5.10407">
        <ele>5.907546</ele>
        <time>2020-07-15T22:31:35.028Z</time>
      </trkpt>
      <trkpt lat="61.3495" lon="5.10427">
        <ele>5.469371</ele>
        <time>2020-07-15T22:31:36.365Z</time>
      </trkpt>
      <trkpt lat="61.34954" lon="5.10471">
        <ele>4.815754</ele>
        <time>2020-07-15T22:31:39.097Z</time>
      </trkpt>
      <trkpt lat="61.34968" lon="5.10536">
        <ele>4.163718</ele>
        <time>2020-07-15T22:31:43.638Z</time>
      </trkpt>
      <trkpt lat="61.34973" lon="5.10547">
        <ele>4.034226</ele>
        <time>2020-07-15T22:31:44.489Z</time>
      </trkpt>
      <trkpt lat="61.34991" lon="5.10577">
        <ele>3.597045</ele>
        <time>2020-07-15T22:31:47.793Z</time>
      </trkpt>
      <trkpt lat="61.35035" lon="5.1064">
        <ele>2.591213</ele>
        <time>2020-07-15T22:31:55.181Z</time>
      </trkpt>
      <trkpt lat="61.35051" lon="5.10664">
        <ele>2.220793</ele>
        <time>2020-07-15T22:31:58.881Z</time>
      </trkpt>
      <trkpt lat="61.35115" lon="5.10759">
        <ele>2.075061</ele>
        <time>2020-07-15T22:32:13.922Z</time>
      </trkpt>
      <trkpt lat="61.35225" lon="5.10968">
        <ele>3.696673</ele>
        <time>2020-07-15T22:32:45.420Z</time>
      </trkpt>
      <trkpt lat="61.3526" lon="5.11019">
        <ele>4.833578</ele>
        <time>2020-07-15T22:32:55.937Z</time>
      </trkpt>
      <trkpt lat="61.35275" lon="5.11036">
        <ele>5.291034</ele>
        <time>2020-07-15T22:33:00.125Z</time>
      </trkpt>
      <trkpt lat="61.35296" lon="5.11063">
        <ele>5.954107</ele>
        <time>2020-07-15T22:33:07.051Z</time>
      </trkpt>
      <trkpt lat="61.35463" lon="5.11272">
        <ele>10.919745</ele>
        <time>2020-07-15T22:34:03.797Z</time>
      </trkpt>
      <trkpt lat="61.35509" lon="5.11305">
        <ele>12.099447</ele>
        <time>2020-07-15T22:34:13.997Z</time>
      </trkpt>
      <trkpt lat="61.35521" lon="5.11307">
        <ele>12.408276</ele>
        <time>2020-07-15T22:34:17.378Z</time>
      </trkpt>
      <trkpt lat="61.35526" lon="5.11308">
        <ele>12.433677</ele>
        <time>2020-07-15T22:34:18.255Z</time>
      </trkpt>
      <trkpt lat="61.3554" lon="5.11308">
        <ele>12.28871</ele>
        <time>2020-07-15T22:34:20.302Z</time>
      </trkpt>
      <trkpt lat="61.35609" lon="5.11306">
        <ele>11.597201</ele>
        <time>2020-07-15T22:34:31.312Z</time>
      </trkpt>
      <trkpt lat="61.3565" lon="5.1132">
        <ele>11.174414</ele>
        <time>2020-07-15T22:34:37.434Z</time>
      </trkpt>
      <trkpt lat="61.35681" lon="5.11366">
        <ele>10.792418</ele>
        <time>2020-07-15T22:34:42.764Z</time>
      </trkpt>
      <trkpt lat="61.35704" lon="5.11447">
        <ele>10.357557</ele>
        <time>2020-07-15T22:34:49.268Z</time>
      </trkpt>
      <trkpt lat="61.35707" lon="5.11467">
        <ele>10.261897</ele>
        <time>2020-07-15T22:34:50.681Z</time>
      </trkpt>
      <trkpt lat="61.35711" lon="5.1149">
        <ele>10.146884</ele>
        <time>2020-07-15T22:34:52.509Z</time>
      </trkpt>
      <trkpt lat="61.35717" lon="5.11526">
        <ele>9.976138</ele>
        <time>2020-07-15T22:34:55.226Z</time>
      </trkpt>
      <trkpt lat="61.35723" lon="5.11565">
        <ele>9.786394</ele>
        <time>2020-07-15T22:34:58.239Z</time>
      </trkpt>
      <trkpt lat="61.35749" lon="5.11661">
        <ele>9.281774</ele>
        <time>2020-07-15T22:35:06.494Z</time>
      </trkpt>
      <trkpt lat="61.35773" lon="5.11708">
        <ele>8.970225</ele>
        <time>2020-07-15T22:35:11.780Z</time>
      </trkpt>
      <trkpt lat="61.35803" lon="5.11745">
        <ele>9.733271</ele>
        <time>2020-07-15T22:35:18.398Z</time>
      </trkpt>
      <trkpt lat="61.35826" lon="5.11759">
        <ele>10.34267</ele>
        <time>2020-07-15T22:35:23.483Z</time>
      </trkpt>
      <trkpt lat="61.35917" lon="5.11789">
        <ele>12.692265</ele>
        <time>2020-07-15T22:35:47.419Z</time>
      </trkpt>
      <trkpt lat="61.3596" lon="5.11803">
        <ele>14.229755</ele>
        <time>2020-07-15T22:36:01.673Z</time>
      </trkpt>
      <trkpt lat="61.36084" lon="5.11842">
        <ele>22.372838</ele>
        <time>2020-07-15T22:36:54.977Z</time>
      </trkpt>
      <trkpt lat="61.36166" lon="5.11837">
        <ele>25.387079</ele>
        <time>2020-07-15T22:37:24.081Z</time>
      </trkpt>
      <trkpt lat="61.36183" lon="5.11836">
        <ele>25.477708</ele>
        <time>2020-07-15T22:37:31.255Z</time>
      </trkpt>
      <trkpt lat="61.36187" lon="5.11787">
        <ele>25.605699</ele>
        <time>2020-07-15T22:37:35.902Z</time>
      </trkpt>
      <trkpt lat="61.3619" lon="5.11746">
        <ele>25.712185</ele>
        <time>2020-07-15T22:37:41.270Z</time>
      </trkpt>
      <trkpt lat="61.36205" lon="5.11676">
        <ele>25.906277</ele>
        <time>2020-07-15T22:37:48.078Z</time>
      </trkpt>
      <trkpt lat="61.36305" lon="5.11416">
        <ele>18.419639</ele>
        <time>2020-07-15T22:38:06.554Z</time>
      </trkpt>
      <trkpt lat="61.3632" lon="5.11383">
        <ele>16.996489</ele>
        <time>2020-07-15T22:38:09.004Z</time>
      </trkpt>
      <trkpt lat="61.36331" lon="5.11363">
        <ele>16.022755</ele>
        <time>2020-07-15T22:38:10.622Z</time>
      </trkpt>
      <trkpt lat="61.36377" lon="5.11313">
        <ele>13.534897</ele>
        <time>2020-07-15T22:38:16.611Z</time>
      </trkpt>
      <trkpt lat="61.36404" lon="5.11307">
        <ele>12.812968</ele>
        <time>2020-07-15T22:38:19.813Z</time>
      </trkpt>
      <trkpt lat="61.36446" lon="5.11317">
        <ele>11.669496</ele>
        <time>2020-07-15T22:38:25.155Z</time>
      </trkpt>
      <trkpt lat="61.36475" lon="5.11342">
        <ele>10.838737</ele>
        <time>2020-07-15T22:38:29.409Z</time>
      </trkpt>
      <trkpt lat="61.3649" lon="5.11365">
        <ele>10.339948</ele>
        <time>2020-07-15T22:38:33.330Z</time>
      </trkpt>
      <trkpt lat="61.36546" lon="5.11509">
        <ele>10.485776</ele>
        <time>2020-07-15T22:38:55.588Z</time>
      </trkpt>
      <trkpt lat="61.36565" lon="5.11529">
        <ele>10.932323</ele>
        <time>2020-07-15T22:39:01.639Z</time>
      </trkpt>
      <trkpt lat="61.36596" lon="5.11529">
        <ele>11.58214</ele>
        <time>2020-07-15T22:39:10.725Z</time>
      </trkpt>
      <trkpt lat="61.36623" lon="5.11493">
        <ele>12.248308</ele>
        <time>2020-07-15T22:39:20.305Z</time>
      </trkpt>
      <trkpt lat="61.3672" lon="5.11193">
        <ele>12.024002</ele>
        <time>2020-07-15T22:39:52.049Z</time>
      </trkpt>
      <trkpt lat="61.36732" lon="5.11164">
        <ele>11.865445</ele>
        <time>2020-07-15T22:39:54.384Z</time>
      </trkpt>
      <trkpt lat="61.36774" lon="5.11079">
        <ele>10.941393</ele>
        <time>2020-07-15T22:40:01.896Z</time>
      </trkpt>
      <trkpt lat="61.36834" lon="5.10959">
        <ele>8.965599</ele>
        <time>2020-07-15T22:40:12.424Z</time>
      </trkpt>
      <trkpt lat="61.36878" lon="5.10892">
        <ele>7.67162</ele>
        <time>2020-07-15T22:40:20.131Z</time>
      </trkpt>
      <trkpt lat="61.36902" lon="5.10878">
        <ele>7.647976</ele>
        <time>2020-07-15T22:40:24.718Z</time>
      </trkpt>
      <trkpt lat="61.36927" lon="5.10879">
        <ele>8.495953</ele>
        <time>2020-07-15T22:40:30.229Z</time>
      </trkpt>
      <trkpt lat="61.37035" lon="5.10933">
        <ele>12.227928</ele>
        <time>2020-07-15T22:41:03.649Z</time>
      </trkpt>
      <trkpt lat="61.3706" lon="5.10936">
        <ele>13.060924</ele>
        <time>2020-07-15T22:41:12.725Z</time>
      </trkpt>
      <trkpt lat="61.37085" lon="5.10926">
        <ele>14.295241</ele>
        <time>2020-07-15T22:41:22.122Z</time>
      </trkpt>
      <trkpt lat="61.37128" lon="5.10874">
        <ele>17.176665</ele>
        <time>2020-07-15T22:41:41.026Z</time>
      </trkpt>
      <trkpt lat="61.37164" lon="5.10795">
        <ele>20.201029</ele>
        <time>2020-07-15T22:42:01.702Z</time>
      </trkpt>
      <trkpt lat="61.37203" lon="5.1073">
        <ele>23.085048</ele>
        <time>2020-07-15T22:42:20.100Z</time>
      </trkpt>
      <trkpt lat="61.3725" lon="5.10696">
        <ele>23.950461</ele>
        <time>2020-07-15T22:42:35.705Z</time>
      </trkpt>
      <trkpt lat="61.37288" lon="5.10684">
        <ele>24.184467</ele>
        <time>2020-07-15T22:42:45.315Z</time>
      </trkpt>
      <trkpt lat="61.37359" lon="5.1066">
        <ele>24.618817</ele>
        <time>2020-07-15T22:42:57.179Z</time>
      </trkpt>
      <trkpt lat="61.37427" lon="5.10638">
        <ele>22.63621</ele>
        <time>2020-07-15T22:43:06.110Z</time>
      </trkpt>
      <trkpt lat="61.37454" lon="5.10636">
        <ele>21.081829</ele>
        <time>2020-07-15T22:43:09.297Z</time>
      </trkpt>
      <trkpt lat="61.3748" lon="5.10647">
        <ele>19.551875</ele>
        <time>2020-07-15T22:43:12.387Z</time>
      </trkpt>
      <trkpt lat="61.37538" lon="5.10695">
        <ele>15.960537</ele>
        <time>2020-07-15T22:43:19.547Z</time>
      </trkpt>
      <trkpt lat="61.37622" lon="5.10689">
        <ele>12.052178</ele>
        <time>2020-07-15T22:43:29.254Z</time>
      </trkpt>
      <trkpt lat="61.37661" lon="5.10701">
        <ele>10.408043</ele>
        <time>2020-07-15T22:43:33.992Z</time>
      </trkpt>
      <trkpt lat="61.37693" lon="5.10733">
        <ele>8.879342</ele>
        <time>2020-07-15T22:43:38.641Z</time>
      </trkpt>
      <trkpt lat="61.37762" lon="5.10848">
        <ele>6.942328</ele>
        <time>2020-07-15T22:43:51.546Z</time>
      </trkpt>
      <trkpt lat="61.37899" lon="5.10945">
        <ele>7.106075</ele>
        <time>2020-07-15T22:44:21.006Z</time>
      </trkpt>
      <trkpt lat="61.37958" lon="5.10946">
        <ele>7.925847</ele>
        <time>2020-07-15T22:44:32.246Z</time>
      </trkpt>
      <trkpt lat="61.3806" lon="5.1091">
        <ele>9.365618</ele>
        <time>2020-07-15T22:44:55.322Z</time>
      </trkpt>
      <trkpt lat="61.3807" lon="5.10907">
        <ele>9.5031</ele>
        <time>2020-07-15T22:44:57.219Z</time>
      </trkpt>
      <trkpt lat="61.38087" lon="5.10903">
        <ele>10.08633</ele>
        <time>2020-07-15T22:45:02.472Z</time>
      </trkpt>
      <trkpt lat="61.38103" lon="5.10897">
        <ele>10.703244</ele>
        <time>2020-07-15T22:45:07.173Z</time>
      </trkpt>
      <trkpt lat="61.38112" lon="5.10895">
        <ele>11.032104</ele>
        <time>2020-07-15T22:45:09.838Z</time>
      </trkpt>
      <trkpt lat="61.38125" lon="5.10892">
        <ele>11.490695</ele>
        <time>2020-07-15T22:45:14.376Z</time>
      </trkpt>
      <trkpt lat="61.38171" lon="5.10895">
        <ele>13.165759</ele>
        <time>2020-07-15T22:45:28.534Z</time>
      </trkpt>
      <trkpt lat="61.38259" lon="5.10916">
        <ele>16.025435</ele>
        <time>2020-07-15T22:45:55.975Z</time>
      </trkpt>
      <trkpt lat="61.38308" lon="5.1091">
        <ele>15.953999</ele>
        <time>2020-07-15T22:46:10.194Z</time>
      </trkpt>
      <trkpt lat="61.38348" lon="5.10878">
        <ele>15.89276</ele>
        <time>2020-07-15T22:46:19.081Z</time>
      </trkpt>
      <trkpt lat="61.38367" lon="5.10852">
        <ele>15.85937</ele>
        <time>2020-07-15T22:46:22.560Z</time>
      </trkpt>
      <trkpt lat="61.38415" lon="5.10744">
        <ele>15.283325</ele>
        <time>2020-07-15T22:46:31.343Z</time>
      </trkpt>
      <trkpt lat="61.38442" lon="5.10703">
        <ele>14.140838</ele>
        <time>2020-07-15T22:46:35.342Z</time>
      </trkpt>
      <trkpt lat="61.38464" lon="5.10687">
        <ele>13.34896</ele>
        <time>2020-07-15T22:46:38.144Z</time>
      </trkpt>
      <trkpt lat="61.38502" lon="5.10677">
        <ele>12.062896</ele>
        <time>2020-07-15T22:46:42.820Z</time>
      </trkpt>
      <trkpt lat="61.38552" lon="5.10679">
        <ele>10.328762</ele>
        <time>2020-07-15T22:46:49.863Z</time>
      </trkpt>
      <trkpt lat="61.38594" lon="5.107">
        <ele>9.556655</ele>
        <time>2020-07-15T22:46:56.517Z</time>
      </trkpt>
      <trkpt lat="61.38664" lon="5.10836">
        <ele>9.209554</ele>
        <time>2020-07-15T22:47:11.904Z</time>
      </trkpt>
      <trkpt lat="61.38671" lon="5.10842">
        <ele>9.17907</ele>
        <time>2020-07-15T22:47:15.586Z</time>
      </trkpt>
      <trkpt lat="61.38678" lon="5.10847">
        <ele>9.152036</ele>
        <time>2020-07-15T22:47:17.022Z</time>
      </trkpt>
      <trkpt lat="61.38687" lon="5.10852">
        <ele>9.118165</ele>
        <time>2020-07-15T22:47:18.237Z</time>
      </trkpt>
      <trkpt lat="61.38719" lon="5.10856">
        <ele>9.003487</ele>
        <time>2020-07-15T22:47:25.277Z</time>
      </trkpt>
      <trkpt lat="61.38758" lon="5.10847">
        <ele>8.427461</ele>
        <time>2020-07-15T22:47:31.923Z</time>
      </trkpt>
      <trkpt lat="61.38962" lon="5.10738">
        <ele>5.432178</ele>
        <time>2020-07-15T22:48:01.113Z</time>
      </trkpt>
      <trkpt lat="61.38991" lon="5.10734">
        <ele>5.144994</ele>
        <time>2020-07-15T22:48:05.600Z</time>
      </trkpt>
      <trkpt lat="61.39031" lon="5.10762">
        <ele>4.730899</ele>
        <time>2020-07-15T22:48:12.579Z</time>
      </trkpt>
      <trkpt lat="61.39123" lon="5.1091">
        <ele>4.560655</ele>
        <time>2020-07-15T22:48:34.710Z</time>
      </trkpt>
      <trkpt lat="61.39157" lon="5.10937">
        <ele>4.692952</ele>
        <time>2020-07-15T22:48:41.797Z</time>
      </trkpt>
      <trkpt lat="61.39196" lon="5.10942">
        <ele>4.830761</ele>
        <time>2020-07-15T22:48:49.126Z</time>
      </trkpt>
      <trkpt lat="61.39242" lon="5.10933">
        <ele>4.988668</ele>
        <time>2020-07-15T22:48:58.089Z</time>
      </trkpt>
      <trkpt lat="61.39249" lon="5.10932">
        <ele>5.00778</ele>
        <time>2020-07-15T22:48:59.251Z</time>
      </trkpt>
      <trkpt lat="61.39266" lon="5.10931">
        <ele>5.05755</ele>
        <time>2020-07-15T22:49:02.520Z</time>
      </trkpt>
      <trkpt lat="61.39314" lon="5.10948">
        <ele>5.199975</ele>
        <time>2020-07-15T22:49:11.826Z</time>
      </trkpt>
      <trkpt lat="61.39388" lon="5.11">
        <ele>5.424393</ele>
        <time>2020-07-15T22:49:26.386Z</time>
      </trkpt>
      <trkpt lat="61.39418" lon="5.11012">
        <ele>5.351366</ele>
        <time>2020-07-15T22:49:32.537Z</time>
      </trkpt>
      <trkpt lat="61.39449" lon="5.11012">
        <ele>5.122238</ele>
        <time>2020-07-15T22:49:37.929Z</time>
      </trkpt>
      <trkpt lat="61.39553" lon="5.10976">
        <ele>4.350049</ele>
        <time>2020-07-15T22:49:53.875Z</time>
      </trkpt>
      <trkpt lat="61.39576" lon="5.10968">
        <ele>4.177965</ele>
        <time>2020-07-15T22:49:57.340Z</time>
      </trkpt>
      <trkpt lat="61.39615" lon="5.10957">
        <ele>4.02544</ele>
        <time>2020-07-15T22:50:03.631Z</time>
      </trkpt>
      <trkpt lat="61.39624" lon="5.10955">
        <ele>3.993292</ele>
        <time>2020-07-15T22:50:05.232Z</time>
      </trkpt>
      <trkpt lat="61.39809" lon="5.10951">
        <ele>3.78572</ele>
        <time>2020-07-15T22:50:37.687Z</time>
      </trkpt>
      <trkpt lat="61.39845" lon="5.10929">
        <ele>3.977014</ele>
        <time>2020-07-15T22:50:45.963Z</time>
      </trkpt>
      <trkpt lat="61.39908" lon="5.1085">
        <ele>4.352661</ele>
        <time>2020-07-15T22:51:00.854Z</time>
      </trkpt>
      <trkpt lat="61.3995" lon="5.10833">
        <ele>4.501895</ele>
        <time>2020-07-15T22:51:08.880Z</time>
      </trkpt>
      <trkpt lat="61.40015" lon="5.1082">
        <ele>4.627912</ele>
        <time>2020-07-15T22:51:20.219Z</time>
      </trkpt>
      <trkpt lat="61.40029" lon="5.10818">
        <ele>4.655089</ele>
        <time>2020-07-15T22:51:22.892Z</time>
      </trkpt>
      <trkpt lat="61.4004" lon="5.10816">
        <ele>4.677186</ele>
        <time>2020-07-15T22:51:24.632Z</time>
      </trkpt>
      <trkpt lat="61.40102" lon="5.10793">
        <ele>4.80022</ele>
        <time>2020-07-15T22:51:35.873Z</time>
      </trkpt>
      <trkpt lat="61.40177" lon="5.10722">
        <ele>5.784597</ele>
        <time>2020-07-15T22:51:53.745Z</time>
      </trkpt>
      <trkpt lat="61.40206" lon="5.10718">
        <ele>6.149383</ele>
        <time>2020-07-15T22:52:00.560Z</time>
      </trkpt>
      <trkpt lat="61.40236" lon="5.10733">
        <ele>6.530948</ele>
        <time>2020-07-15T22:52:07.600Z</time>
      </trkpt>
      <trkpt lat="61.40269" lon="5.1076">
        <ele>6.966829</ele>
        <time>2020-07-15T22:52:15.675Z</time>
      </trkpt>
      <trkpt lat="61.40277" lon="5.10767">
        <ele>7.060944</ele>
        <time>2020-07-15T22:52:17.993Z</time>
      </trkpt>
      <trkpt lat="61.40285" lon="5.10773">
        <ele>7.106405</ele>
        <time>2020-07-15T22:52:19.911Z</time>
      </trkpt>
      <trkpt lat="61.4031" lon="5.10779">
        <ele>7.245151</ele>
        <time>2020-07-15T22:52:25.272Z</time>
      </trkpt>
      <trkpt lat="61.40366" lon="5.10764">
        <ele>7.553803</ele>
        <time>2020-07-15T22:52:36.783Z</time>
      </trkpt>
      <trkpt lat="61.40414" lon="5.10792">
        <ele>7.823136</ele>
        <time>2020-07-15T22:52:46.322Z</time>
      </trkpt>
      <trkpt lat="61.40439" lon="5.10795">
        <ele>7.961169</ele>
        <time>2020-07-15T22:52:50.517Z</time>
      </trkpt>
      <trkpt lat="61.40457" lon="5.10788">
        <ele>8.062687</ele>
        <time>2020-07-15T22:52:53.358Z</time>
      </trkpt>
      <trkpt lat="61.40513" lon="5.10737">
        <ele>8.416539</ele>
        <time>2020-07-15T22:53:03.320Z</time>
      </trkpt>
      <trkpt lat="61.40645" lon="5.10716">
        <ele>9.638523</ele>
        <time>2020-07-15T22:53:31.330Z</time>
      </trkpt>
      <trkpt lat="61.40675" lon="5.10731">
        <ele>10.51762</ele>
        <time>2020-07-15T22:53:39.322Z</time>
      </trkpt>
      <trkpt lat="61.40829" lon="5.10898">
        <ele>15.538502</ele>
        <time>2020-07-15T22:54:29.252Z</time>
      </trkpt>
      <trkpt lat="61.40895" lon="5.10931">
        <ele>17.515174</ele>
        <time>2020-07-15T22:54:48.513Z</time>
      </trkpt>
      <trkpt lat="61.41023" lon="5.1094">
        <ele>19.331612</ele>
        <time>2020-07-15T22:55:20.806Z</time>
      </trkpt>
      <trkpt lat="61.41061" lon="5.10977">
        <ele>19.243805</ele>
        <time>2020-07-15T22:55:28.251Z</time>
      </trkpt>
      <trkpt lat="61.41083" lon="5.11028">
        <ele>19.174812</ele>
        <time>2020-07-15T22:55:33.478Z</time>
      </trkpt>
      <trkpt lat="61.41115" lon="5.11131">
        <ele>18.479262</ele>
        <time>2020-07-15T22:55:41.234Z</time>
      </trkpt>
      <trkpt lat="61.41126" lon="5.11164">
        <ele>17.680667</ele>
        <time>2020-07-15T22:55:43.856Z</time>
      </trkpt>
      <trkpt lat="61.41137" lon="5.11195">
        <ele>16.939101</ele>
        <time>2020-07-15T22:55:46.033Z</time>
      </trkpt>
      <trkpt lat="61.4117" lon="5.11268">
        <ele>14.935095</ele>
        <time>2020-07-15T22:55:52.151Z</time>
      </trkpt>
      <trkpt lat="61.41185" lon="5.11291">
        <ele>14.189359</ele>
        <time>2020-07-15T22:55:54.271Z</time>
      </trkpt>
      <trkpt lat="61.41249" lon="5.1139">
        <ele>11.22162</ele>
        <time>2020-07-15T22:56:03.879Z</time>
      </trkpt>
      <trkpt lat="61.41346" lon="5.11538">
        <ele>8.459286</ele>
        <time>2020-07-15T22:56:19.989Z</time>
      </trkpt>
      <trkpt lat="61.41358" lon="5.11557">
        <ele>8.108457</ele>
        <time>2020-07-15T22:56:22.581Z</time>
      </trkpt>
      <trkpt lat="61.4139" lon="5.11622">
        <ele>7.827623</ele>
        <time>2020-07-15T22:56:31.255Z</time>
      </trkpt>
      <trkpt lat="61.41397" lon="5.11639">
        <ele>8.018215</ele>
        <time>2020-07-15T22:56:33.251Z</time>
      </trkpt>
      <trkpt lat="61.41403" lon="5.11654">
        <ele>8.179248</ele>
        <time>2020-07-15T22:56:35.234Z</time>
      </trkpt>
      <trkpt lat="61.41408" lon="5.1167">
        <ele>8.338532</ele>
        <time>2020-07-15T22:56:37.357Z</time>
      </trkpt>
      <trkpt lat="61.41412" lon="5.11685">
        <ele>8.487373</ele>
        <time>2020-07-15T22:56:39.327Z</time>
      </trkpt>
      <trkpt lat="61.41417" lon="5.11704">
        <ele>8.681176</ele>
        <time>2020-07-15T22:56:41.650Z</time>
      </trkpt>
      <trkpt lat="61.41422" lon="5.11724">
        <ele>8.866892</ele>
        <time>2020-07-15T22:56:44.219Z</time>
      </trkpt>
      <trkpt lat="61.41426" lon="5.11743">
        <ele>9.045958</ele>
        <time>2020-07-15T22:56:46.927Z</time>
      </trkpt>
      <trkpt lat="61.41437" lon="5.11816">
        <ele>9.696479</ele>
        <time>2020-07-15T22:56:56.274Z</time>
      </trkpt>
      <trkpt lat="61.41457" lon="5.12058">
        <ele>11.635257</ele>
        <time>2020-07-15T22:57:27.409Z</time>
      </trkpt>
      <trkpt lat="61.41513" lon="5.12395">
        <ele>13.219206</ele>
        <time>2020-07-15T22:58:03.108Z</time>
      </trkpt>
      <trkpt lat="61.41691" lon="5.13184">
        <ele>11.131788</ele>
        <time>2020-07-15T22:59:10.173Z</time>
      </trkpt>
      <trkpt lat="61.41709" lon="5.1325">
        <ele>10.889884</ele>
        <time>2020-07-15T22:59:16.247Z</time>
      </trkpt>
      <trkpt lat="61.41761" lon="5.13368">
        <ele>10.172136</ele>
        <time>2020-07-15T22:59:28.495Z</time>
      </trkpt>
      <trkpt lat="61.4182" lon="5.13443">
        <ele>9.376404</ele>
        <time>2020-07-15T22:59:39.014Z</time>
      </trkpt>
      <trkpt lat="61.41858" lon="5.1346">
        <ele>8.928095</ele>
        <time>2020-07-15T22:59:44.718Z</time>
      </trkpt>
      <trkpt lat="61.41933" lon="5.13426">
        <ele>8.970895</ele>
        <time>2020-07-15T22:59:55.996Z</time>
      </trkpt>
      <trkpt lat="61.41965" lon="5.13433">
        <ele>9.217224</ele>
        <time>2020-07-15T23:00:02.389Z</time>
      </trkpt>
      <trkpt lat="61.42067" lon="5.13569">
        <ele>10.696742</ele>
        <time>2020-07-15T23:00:30.541Z</time>
      </trkpt>
      <trkpt lat="61.42074" lon="5.13583">
        <ele>11.017915</ele>
        <time>2020-07-15T23:00:33.815Z</time>
      </trkpt>
      <trkpt lat="61.42078" lon="5.13593">
        <ele>11.225525</ele>
        <time>2020-07-15T23:00:35.608Z</time>
      </trkpt>
      <trkpt lat="61.42097" lon="5.1366">
        <ele>12.4963</ele>
        <time>2020-07-15T23:00:46.249Z</time>
      </trkpt>
      <trkpt lat="61.42104" lon="5.13698">
        <ele>13.144103</ele>
        <time>2020-07-15T23:00:51.420Z</time>
      </trkpt>
      <trkpt lat="61.42107" lon="5.13715">
        <ele>13.44043</ele>
        <time>2020-07-15T23:00:54.595Z</time>
      </trkpt>
      <trkpt lat="61.42111" lon="5.13743">
        <ele>13.911672</ele>
        <time>2020-07-15T23:00:58.336Z</time>
      </trkpt>
      <trkpt lat="61.42142" lon="5.14156">
        <ele>22.21806</ele>
        <time>2020-07-15T23:02:00.443Z</time>
      </trkpt>
      <trkpt lat="61.42144" lon="5.1439">
        <ele>27.342019</ele>
        <time>2020-07-15T23:02:40.360Z</time>
      </trkpt>
      <trkpt lat="61.42144" lon="5.14546">
        <ele>30.767533</ele>
        <time>2020-07-15T23:03:05.754Z</time>
      </trkpt>
      <trkpt lat="61.42145" lon="5.1461">
        <ele>32.19399</ele>
        <time>2020-07-15T23:03:15.566Z</time>
      </trkpt>
      <trkpt lat="61.42184" lon="5.14982">
        <ele>34.733582</ele>
        <time>2020-07-15T23:03:56.618Z</time>
      </trkpt>
      <trkpt lat="61.42246" lon="5.15186">
        <ele>31.820812</ele>
        <time>2020-07-15T23:04:12.688Z</time>
      </trkpt>
      <trkpt lat="61.4228" lon="5.15217">
        <ele>30.862652</ele>
        <time>2020-07-15T23:04:17.309Z</time>
      </trkpt>
      <trkpt lat="61.42421" lon="5.15229">
        <ele>24.737116</ele>
        <time>2020-07-15T23:04:34.405Z</time>
      </trkpt>
      <trkpt lat="61.42434" lon="5.15236">
        <ele>24.070312</ele>
        <time>2020-07-15T23:04:36.044Z</time>
      </trkpt>
      <trkpt lat="61.42444" lon="5.15247">
        <ele>23.55448</ele>
        <time>2020-07-15T23:04:37.342Z</time>
      </trkpt>
      <trkpt lat="61.42463" lon="5.15276">
        <ele>22.428671</ele>
        <time>2020-07-15T23:04:40.223Z</time>
      </trkpt>
      <trkpt lat="61.42559" lon="5.15476">
        <ele>17.251875</ele>
        <time>2020-07-15T23:04:57.175Z</time>
      </trkpt>
      <trkpt lat="61.42601" lon="5.15637">
        <ele>14.511435</ele>
        <time>2020-07-15T23:05:09.091Z</time>
      </trkpt>
      <trkpt lat="61.42612" lon="5.15726">
        <ele>13.809967</ele>
        <time>2020-07-15T23:05:15.183Z</time>
      </trkpt>
      <trkpt lat="61.42626" lon="5.16017">
        <ele>11.619056</ele>
        <time>2020-07-15T23:05:36.677Z</time>
      </trkpt>
      <trkpt lat="61.42646" lon="5.16227">
        <ele>10.101159</ele>
        <time>2020-07-15T23:05:52.915Z</time>
      </trkpt>
      <trkpt lat="61.42654" lon="5.16297">
        <ele>9.593914</ele>
        <time>2020-07-15T23:05:57.560Z</time>
      </trkpt>
      <trkpt lat="61.42657" lon="5.16333">
        <ele>9.334169</ele>
        <time>2020-07-15T23:05:59.900Z</time>
      </trkpt>
      <trkpt lat="61.42659" lon="5.16357">
        <ele>8.968234</ele>
        <time>2020-07-15T23:06:01.527Z</time>
      </trkpt>
      <trkpt lat="61.42662" lon="5.16394">
        <ele>8.403488</ele>
        <time>2020-07-15T23:06:03.801Z</time>
      </trkpt>
      <trkpt lat="61.42667" lon="5.16433">
        <ele>7.784224</ele>
        <time>2020-07-15T23:06:06.436Z</time>
      </trkpt>
      <trkpt lat="61.42678" lon="5.165">
        <ele>6.703118</ele>
        <time>2020-07-15T23:06:10.956Z</time>
      </trkpt>
      <trkpt lat="61.4268" lon="5.16512">
        <ele>6.495177</ele>
        <time>2020-07-15T23:06:11.738Z</time>
      </trkpt>
      <trkpt lat="61.42687" lon="5.16541">
        <ele>6.014326</ele>
        <time>2020-07-15T23:06:13.723Z</time>
      </trkpt>
      <trkpt lat="61.42694" lon="5.16567">
        <ele>5.549963</ele>
        <time>2020-07-15T23:06:15.709Z</time>
      </trkpt>
      <trkpt lat="61.42703" lon="5.16594">
        <ele>5.053799</ele>
        <time>2020-07-15T23:06:17.617Z</time>
      </trkpt>
      <trkpt lat="61.42716" lon="5.16628">
        <ele>4.396102</ele>
        <time>2020-07-15T23:06:20.239Z</time>
      </trkpt>
      <trkpt lat="61.42764" lon="5.16727">
        <ele>3.159491</ele>
        <time>2020-07-15T23:06:28.959Z</time>
      </trkpt>
      <trkpt lat="61.42775" lon="5.16742">
        <ele>3.022357</ele>
        <time>2020-07-15T23:06:30.630Z</time>
      </trkpt>
      <trkpt lat="61.42785" lon="5.16754">
        <ele>2.906537</ele>
        <time>2020-07-15T23:06:32.184Z</time>
      </trkpt>
      <trkpt lat="61.42792" lon="5.16762">
        <ele>2.822361</ele>
        <time>2020-07-15T23:06:33.361Z</time>
      </trkpt>
      <trkpt lat="61.42806" lon="5.16774">
        <ele>2.655097</ele>
        <time>2020-07-15T23:06:35.742Z</time>
      </trkpt>
      <trkpt lat="61.42817" lon="5.1678">
        <ele>2.54306</ele>
        <time>2020-07-15T23:06:37.438Z</time>
      </trkpt>
      <trkpt lat="61.42828" lon="5.16786">
        <ele>2.425545</ele>
        <time>2020-07-15T23:06:39.331Z</time>
      </trkpt>
      <trkpt lat="61.42832" lon="5.16786">
        <ele>2.377076</ele>
        <time>2020-07-15T23:06:40.094Z</time>
      </trkpt>
      <trkpt lat="61.42844" lon="5.16788">
        <ele>2.251978</ele>
        <time>2020-07-15T23:06:42.316Z</time>
      </trkpt>
      <trkpt lat="61.4286" lon="5.16786">
        <ele>2.082779</ele>
        <time>2020-07-15T23:06:45.360Z</time>
      </trkpt>
      <trkpt lat="61.42872" lon="5.16782">
        <ele>1.961594</ele>
        <time>2020-07-15T23:06:47.413Z</time>
      </trkpt>
      <trkpt lat="61.42879" lon="5.16778">
        <ele>1.881753</ele>
        <time>2020-07-15T23:06:48.951Z</time>
      </trkpt>
      <trkpt lat="61.42893" lon="5.16767">
        <ele>1.726189</ele>
        <time>2020-07-15T23:06:51.768Z</time>
      </trkpt>
      <trkpt lat="61.42971" lon="5.16688">
        <ele>6.08954</ele>
        <time>2020-07-15T23:07:16.328Z</time>
      </trkpt>
      <trkpt lat="61.43001" lon="5.16658">
        <ele>7.790596</ele>
        <time>2020-07-15T23:07:28.274Z</time>
      </trkpt>
      <trkpt lat="61.43049" lon="5.16611">
        <ele>10.489027</ele>
        <time>2020-07-15T23:07:51.383Z</time>
      </trkpt>
      <trkpt lat="61.4306" lon="5.166">
        <ele>11.3397</ele>
        <time>2020-07-15T23:07:56.151Z</time>
      </trkpt>
      <trkpt lat="61.43075" lon="5.16585">
        <ele>12.850171</ele>
        <time>2020-07-15T23:08:03.632Z</time>
      </trkpt>
      <trkpt lat="61.43113" lon="5.16523">
        <ele>17.319093</ele>
        <time>2020-07-15T23:08:27.745Z</time>
      </trkpt>
      <trkpt lat="61.43133" lon="5.16437">
        <ele>21.51288</ele>
        <time>2020-07-15T23:08:49.658Z</time>
      </trkpt>
      <trkpt lat="61.43143" lon="5.16415">
        <ele>22.867484</ele>
        <time>2020-07-15T23:08:56.333Z</time>
      </trkpt>
      <trkpt lat="61.43146" lon="5.16415">
        <ele>23.126056</ele>
        <time>2020-07-15T23:08:58.934Z</time>
      </trkpt>
      <trkpt lat="61.43149" lon="5.16417">
        <ele>23.422291</ele>
        <time>2020-07-15T23:09:00.706Z</time>
      </trkpt>
      <trkpt lat="61.43153" lon="5.1644">
        <ele>24.467481</ele>
        <time>2020-07-15T23:09:05.770Z</time>
      </trkpt>
      <trkpt lat="61.43147" lon="5.16493">
        <ele>26.870371</ele>
        <time>2020-07-15T23:09:19.884Z</time>
      </trkpt>
      <trkpt lat="61.43143" lon="5.16518">
        <ele>28.041445</ele>
        <time>2020-07-15T23:09:24.707Z</time>
      </trkpt>
      <trkpt lat="61.43132" lon="5.16574">
        <ele>30.763153</ele>
        <time>2020-07-15T23:09:37.278Z</time>
      </trkpt>
      <trkpt lat="61.43107" lon="5.16728">
        <ele>37.978222</ele>
        <time>2020-07-15T23:10:11.120Z</time>
      </trkpt>
      <trkpt lat="61.431" lon="5.17025">
        <ele>51.890096</ele>
        <time>2020-07-15T23:11:25.810Z</time>
      </trkpt>
      <trkpt lat="61.43098" lon="5.17048">
        <ele>53.018448</ele>
        <time>2020-07-15T23:11:33.378Z</time>
      </trkpt>
      <trkpt lat="61.43096" lon="5.17086">
        <ele>54.9288</ele>
        <time>2020-07-15T23:11:42.595Z</time>
      </trkpt>
      <trkpt lat="61.43082" lon="5.17187">
        <ele>60.040743</ele>
        <time>2020-07-15T23:12:08.286Z</time>
      </trkpt>
      <trkpt lat="61.43035" lon="5.17387">
        <ele>66.217928</ele>
        <time>2020-07-15T23:12:52.685Z</time>
      </trkpt>
      <trkpt lat="61.43029" lon="5.17464">
        <ele>67.897919</ele>
        <time>2020-07-15T23:13:01.493Z</time>
      </trkpt>
      <trkpt lat="61.43023" lon="5.1774">
        <ele>72.298739</ele>
        <time>2020-07-15T23:13:31.596Z</time>
      </trkpt>
      <trkpt lat="61.42953" lon="5.18156">
        <ele>78.710246</ele>
        <time>2020-07-15T23:14:28.781Z</time>
      </trkpt>
      <trkpt lat="61.42943" lon="5.18288">
        <ele>81.12332</ele>
        <time>2020-07-15T23:14:49.288Z</time>
      </trkpt>
      <trkpt lat="61.42926" lon="5.18357">
        <ele>82.965683</ele>
        <time>2020-07-15T23:15:02.730Z</time>
      </trkpt>
      <trkpt lat="61.42894" lon="5.18444">
        <ele>85.983378</ele>
        <time>2020-07-15T23:15:22.042Z</time>
      </trkpt>
      <trkpt lat="61.42883" lon="5.18497">
        <ele>87.547355</ele>
        <time>2020-07-15T23:15:32.252Z</time>
      </trkpt>
      <trkpt lat="61.42879" lon="5.18541">
        <ele>88.770789</ele>
        <time>2020-07-15T23:15:39.529Z</time>
      </trkpt>
      <trkpt lat="61.42876" lon="5.18566">
        <ele>89.470287</ele>
        <time>2020-07-15T23:15:44.537Z</time>
      </trkpt>
      <trkpt lat="61.42872" lon="5.18607">
        <ele>90.616235</ele>
        <time>2020-07-15T23:15:51.411Z</time>
      </trkpt>
      <trkpt lat="61.42863" lon="5.18742">
        <ele>94.981885</ele>
        <time>2020-07-15T23:16:15.377Z</time>
      </trkpt>
      <trkpt lat="61.42874" lon="5.18842">
        <ele>98.545644</ele>
        <time>2020-07-15T23:16:34.590Z</time>
      </trkpt>
      <trkpt lat="61.429" lon="5.18906">
        <ele>101.409261</ele>
        <time>2020-07-15T23:16:51.355Z</time>
      </trkpt>
      <trkpt lat="61.4295" lon="5.18993">
        <ele>106.698779</ele>
        <time>2020-07-15T23:17:20.255Z</time>
      </trkpt>
      <trkpt lat="61.42956" lon="5.19019">
        <ele>108.176187</ele>
        <time>2020-07-15T23:17:27.039Z</time>
      </trkpt>
      <trkpt lat="61.42978" lon="5.19239">
        <ele>119.569178</ele>
        <time>2020-07-15T23:18:22.406Z</time>
      </trkpt>
      <trkpt lat="61.42996" lon="5.19309">
        <ele>123.623671</ele>
        <time>2020-07-15T23:18:43.696Z</time>
      </trkpt>
      <trkpt lat="61.43043" lon="5.19421">
        <ele>131.761373</ele>
        <time>2020-07-15T23:19:27.229Z</time>
      </trkpt>
      <trkpt lat="61.43058" lon="5.19504">
        <ele>136.649707</ele>
        <time>2020-07-15T23:19:51.829Z</time>
      </trkpt>
      <trkpt lat="61.43062" lon="5.19565">
        <ele>140.009254</ele>
        <time>2020-07-15T23:20:07.864Z</time>
      </trkpt>
      <trkpt lat="61.43058" lon="5.19714">
        <ele>145.675152</ele>
        <time>2020-07-15T23:20:41.621Z</time>
      </trkpt>
      <trkpt lat="61.43073" lon="5.19897">
        <ele>148.663265</ele>
        <time>2020-07-15T23:21:16.044Z</time>
      </trkpt>
      <trkpt lat="61.43071" lon="5.19954">
        <ele>149.592249</ele>
        <time>2020-07-15T23:21:20.645Z</time>
      </trkpt>
      <trkpt lat="61.43059" lon="5.20004">
        <ele>150.487564</ele>
        <time>2020-07-15T23:21:23.995Z</time>
      </trkpt>
      <trkpt lat="61.43021" lon="5.20067">
        <ele>146.016788</ele>
        <time>2020-07-15T23:21:29.508Z</time>
      </trkpt>
      <trkpt lat="61.4301" lon="5.20142">
        <ele>142.010038</ele>
        <time>2020-07-15T23:21:33.509Z</time>
      </trkpt>
      <trkpt lat="61.43005" lon="5.20222">
        <ele>137.814006</ele>
        <time>2020-07-15T23:21:37.590Z</time>
      </trkpt>
      <trkpt lat="61.42991" lon="5.20481">
        <ele>126.601904</ele>
        <time>2020-07-15T23:21:51.340Z</time>
      </trkpt>
      <trkpt lat="61.4299" lon="5.20549">
        <ele>124.237537</ele>
        <time>2020-07-15T23:21:54.914Z</time>
      </trkpt>
      <trkpt lat="61.43003" lon="5.20629">
        <ele>121.336413</ele>
        <time>2020-07-15T23:21:59.658Z</time>
      </trkpt>
      <trkpt lat="61.43115" lon="5.21131">
        <ele>122.614889</ele>
        <time>2020-07-15T23:23:06.790Z</time>
      </trkpt>
      <trkpt lat="61.43145" lon="5.21222">
        <ele>123.442439</ele>
        <time>2020-07-15T23:23:20.862Z</time>
      </trkpt>
      <trkpt lat="61.43177" lon="5.21301">
        <ele>124.225066</ele>
        <time>2020-07-15T23:23:32.123Z</time>
      </trkpt>
      <trkpt lat="61.43231" lon="5.21387">
        <ele>124.224454</ele>
        <time>2020-07-15T23:23:44.376Z</time>
      </trkpt>
      <trkpt lat="61.43401" lon="5.21495">
        <ele>121.90839</ele>
        <time>2020-07-15T23:24:08.494Z</time>
      </trkpt>
      <trkpt lat="61.4346" lon="5.2153">
        <ele>122.580225</ele>
        <time>2020-07-15T23:24:18.757Z</time>
      </trkpt>
      <trkpt lat="61.43476" lon="5.21538">
        <ele>122.752075</ele>
        <time>2020-07-15T23:24:22.381Z</time>
      </trkpt>
      <trkpt lat="61.43485" lon="5.21544">
        <ele>122.863491</ele>
        <time>2020-07-15T23:24:24.592Z</time>
      </trkpt>
      <trkpt lat="61.43667" lon="5.21649">
        <ele>128.651354</ele>
        <time>2020-07-15T23:25:25.149Z</time>
      </trkpt>
      <trkpt lat="61.44117" lon="5.21918">
        <ele>145.852741</ele>
        <time>2020-07-15T23:27:38.097Z</time>
      </trkpt>
      <trkpt lat="61.44164" lon="5.21919">
        <ele>148.44289</ele>
        <time>2020-07-15T23:27:55.951Z</time>
      </trkpt>
      <trkpt lat="61.44275" lon="5.21859">
        <ele>153.442658</ele>
        <time>2020-07-15T23:28:42.050Z</time>
      </trkpt>
      <trkpt lat="61.44332" lon="5.21861">
        <ele>154.438187</ele>
        <time>2020-07-15T23:29:00.956Z</time>
      </trkpt>
      <trkpt lat="61.44427" lon="5.21914">
        <ele>154.95803</ele>
        <time>2020-07-15T23:29:16.584Z</time>
      </trkpt>
      <trkpt lat="61.44614" lon="5.22079">
        <ele>135.68252</ele>
        <time>2020-07-15T23:29:38.707Z</time>
      </trkpt>
      <trkpt lat="61.44646" lon="5.22097">
        <ele>131.658151</ele>
        <time>2020-07-15T23:29:42.178Z</time>
      </trkpt>
      <trkpt lat="61.44727" lon="5.22124">
        <ele>121.60777</ele>
        <time>2020-07-15T23:29:50.877Z</time>
      </trkpt>
      <trkpt lat="61.44873" lon="5.22124">
        <ele>103.963918</ele>
        <time>2020-07-15T23:30:06.327Z</time>
      </trkpt>
      <trkpt lat="61.44933" lon="5.22097">
        <ele>96.540809</ele>
        <time>2020-07-15T23:30:12.900Z</time>
      </trkpt>
      <trkpt lat="61.44951" lon="5.22071">
        <ele>94.663747</ele>
        <time>2020-07-15T23:30:15.286Z</time>
      </trkpt>
      <trkpt lat="61.44972" lon="5.22023">
        <ele>92.154678</ele>
        <time>2020-07-15T23:30:18.685Z</time>
      </trkpt>
      <trkpt lat="61.45016" lon="5.21856">
        <ele>84.834592</ele>
        <time>2020-07-15T23:30:28.950Z</time>
      </trkpt>
      <trkpt lat="61.45024" lon="5.21767">
        <ele>81.45191</ele>
        <time>2020-07-15T23:30:34.176Z</time>
      </trkpt>
      <trkpt lat="61.45035" lon="5.21713">
        <ele>79.677409</ele>
        <time>2020-07-15T23:30:37.787Z</time>
      </trkpt>
      <trkpt lat="61.4512" lon="5.21452">
        <ele>69.943597</ele>
        <time>2020-07-15T23:30:55.614Z</time>
      </trkpt>
      <trkpt lat="61.45137" lon="5.21423">
        <ele>67.448643</ele>
        <time>2020-07-15T23:30:58.054Z</time>
      </trkpt>
      <trkpt lat="61.45141" lon="5.21423">
        <ele>67.036095</ele>
        <time>2020-07-15T23:30:58.450Z</time>
      </trkpt>
      <trkpt lat="61.45145" lon="5.21425">
        <ele>66.6063</ele>
        <time>2020-07-15T23:30:58.853Z</time>
      </trkpt>
      <trkpt lat="61.4515" lon="5.2145">
        <ele>65.173307</ele>
        <time>2020-07-15T23:31:00.376Z</time>
      </trkpt>
      <trkpt lat="61.45143" lon="5.21545">
        <ele>60.080873</ele>
        <time>2020-07-15T23:31:05.237Z</time>
      </trkpt>
      <trkpt lat="61.45145" lon="5.21593">
        <ele>57.510196</ele>
        <time>2020-07-15T23:31:07.720Z</time>
      </trkpt>
      <trkpt lat="61.45149" lon="5.2162">
        <ele>56.014291</ele>
        <time>2020-07-15T23:31:09.130Z</time>
      </trkpt>
      <trkpt lat="61.45154" lon="5.21646">
        <ele>54.540977</ele>
        <time>2020-07-15T23:31:10.494Z</time>
      </trkpt>
      <trkpt lat="61.45158" lon="5.21665">
        <ele>53.40468</ele>
        <time>2020-07-15T23:31:11.744Z</time>
      </trkpt>
      <trkpt lat="61.45163" lon="5.21689">
        <ele>52.049039</ele>
        <time>2020-07-15T23:31:13.017Z</time>
      </trkpt>
      <trkpt lat="61.45169" lon="5.21719">
        <ele>50.356608</ele>
        <time>2020-07-15T23:31:14.628Z</time>
      </trkpt>
      <trkpt lat="61.45194" lon="5.21849">
        <ele>45.861761</ele>
        <time>2020-07-15T23:31:22.008Z</time>
      </trkpt>
      <trkpt lat="61.45214" lon="5.21914">
        <ele>43.424545</ele>
        <time>2020-07-15T23:31:26.099Z</time>
      </trkpt>
      <trkpt lat="61.45234" lon="5.2195">
        <ele>41.674036</ele>
        <time>2020-07-15T23:31:29.379Z</time>
      </trkpt>
      <trkpt lat="61.45284" lon="5.22011">
        <ele>38.436151</ele>
        <time>2020-07-15T23:31:38.063Z</time>
      </trkpt>
      <trkpt lat="61.45314" lon="5.22047">
        <ele>38.514391</ele>
        <time>2020-07-15T23:31:43.985Z</time>
      </trkpt>
      <trkpt lat="61.45373" lon="5.22115">
        <ele>38.665002</ele>
        <time>2020-07-15T23:31:56.771Z</time>
      </trkpt>
      <trkpt lat="61.45404" lon="5.22169">
        <ele>38.754643</ele>
        <time>2020-07-15T23:32:05.141Z</time>
      </trkpt>
      <trkpt lat="61.45416" lon="5.22239">
        <ele>38.909142</ele>
        <time>2020-07-15T23:32:12.906Z</time>
      </trkpt>
      <trkpt lat="61.45411" lon="5.2236">
        <ele>39.667052</ele>
        <time>2020-07-15T23:32:26.134Z</time>
      </trkpt>
      <trkpt lat="61.45385" lon="5.22747">
        <ele>41.126979</ele>
        <time>2020-07-15T23:33:07.122Z</time>
      </trkpt>
      <trkpt lat="61.45382" lon="5.22902">
        <ele>41.094658</ele>
        <time>2020-07-15T23:33:19.407Z</time>
      </trkpt>
      <trkpt lat="61.45385" lon="5.22979">
        <ele>41.015311</ele>
        <time>2020-07-15T23:33:24.866Z</time>
      </trkpt>
      <trkpt lat="61.45388" lon="5.2309">
        <ele>39.970914</ele>
        <time>2020-07-15T23:33:32.415Z</time>
      </trkpt>
      <trkpt lat="61.4539" lon="5.23135">
        <ele>39.547321</ele>
        <time>2020-07-15T23:33:35.404Z</time>
      </trkpt>
      <trkpt lat="61.45391" lon="5.23173">
        <ele>39.190342</ele>
        <time>2020-07-15T23:33:37.922Z</time>
      </trkpt>
      <trkpt lat="61.45394" lon="5.23228">
        <ele>38.669792</ele>
        <time>2020-07-15T23:33:41.535Z</time>
      </trkpt>
      <trkpt lat="61.4541" lon="5.23538">
        <ele>36.235835</ele>
        <time>2020-07-15T23:34:02.751Z</time>
      </trkpt>
      <trkpt lat="61.4544" lon="5.23685">
        <ele>35.148076</ele>
        <time>2020-07-15T23:34:14.464Z</time>
      </trkpt>
      <trkpt lat="61.45446" lon="5.23705">
        <ele>34.989252</ele>
        <time>2020-07-15T23:34:16.263Z</time>
      </trkpt>
      <trkpt lat="61.45456" lon="5.23745">
        <ele>34.91087</ele>
        <time>2020-07-15T23:34:19.689Z</time>
      </trkpt>
      <trkpt lat="61.4549" lon="5.2387">
        <ele>34.688809</ele>
        <time>2020-07-15T23:34:31.058Z</time>
      </trkpt>
      <trkpt lat="61.45515" lon="5.23957">
        <ele>34.534076</ele>
        <time>2020-07-15T23:34:39.271Z</time>
      </trkpt>
      <trkpt lat="61.45521" lon="5.23977">
        <ele>34.496933</ele>
        <time>2020-07-15T23:34:41.452Z</time>
      </trkpt>
      <trkpt lat="61.45597" lon="5.24263">
        <ele>35.296326</ele>
        <time>2020-07-15T23:35:10.912Z</time>
      </trkpt>
      <trkpt lat="61.45631" lon="5.24351">
        <ele>35.682007</ele>
        <time>2020-07-15T23:35:23.419Z</time>
      </trkpt>
      <trkpt lat="61.45671" lon="5.2442">
        <ele>36.4167</ele>
        <time>2020-07-15T23:35:35.312Z</time>
      </trkpt>
      <trkpt lat="61.4568" lon="5.24432">
        <ele>36.563683</ele>
        <time>2020-07-15T23:35:38.147Z</time>
      </trkpt>
      <trkpt lat="61.45717" lon="5.24484">
        <ele>37.191855</ele>
        <time>2020-07-15T23:35:48.459Z</time>
      </trkpt>
      <trkpt lat="61.4573" lon="5.24499">
        <ele>37.400501</ele>
        <time>2020-07-15T23:35:51.582Z</time>
      </trkpt>
      <trkpt lat="61.45741" lon="5.24516">
        <ele>37.592283</ele>
        <time>2020-07-15T23:35:55.150Z</time>
      </trkpt>
      <trkpt lat="61.45757" lon="5.24535">
        <ele>37.851653</ele>
        <time>2020-07-15T23:35:59.120Z</time>
      </trkpt>
      <trkpt lat="61.4611" lon="5.25">
        <ele>39.893657</ele>
        <time>2020-07-15T23:37:20.237Z</time>
      </trkpt>
      <trkpt lat="61.46123" lon="5.25016">
        <ele>39.825951</ele>
        <time>2020-07-15T23:37:22.696Z</time>
      </trkpt>
      <trkpt lat="61.4614" lon="5.25037">
        <ele>39.735999</ele>
        <time>2020-07-15T23:37:25.932Z</time>
      </trkpt>
      <trkpt lat="61.46426" lon="5.25414">
        <ele>37.924875</ele>
        <time>2020-07-15T23:38:19.678Z</time>
      </trkpt>
      <trkpt lat="61.4647" lon="5.25451">
        <ele>37.938455</ele>
        <time>2020-07-15T23:38:28.848Z</time>
      </trkpt>
      <trkpt lat="61.46532" lon="5.25488">
        <ele>37.956627</ele>
        <time>2020-07-15T23:38:41.183Z</time>
      </trkpt>
      <trkpt lat="61.4658" lon="5.25517">
        <ele>37.336656</ele>
        <time>2020-07-15T23:38:50.605Z</time>
      </trkpt>
      <trkpt lat="61.46615" lon="5.25539">
        <ele>36.464686</ele>
        <time>2020-07-15T23:38:57.071Z</time>
      </trkpt>
      <trkpt lat="61.46692" lon="5.25584">
        <ele>34.576964</ele>
        <time>2020-07-15T23:39:07.813Z</time>
      </trkpt>
      <trkpt lat="61.46755" lon="5.25623">
        <ele>32.344171</ele>
        <time>2020-07-15T23:39:15.656Z</time>
      </trkpt>
      <trkpt lat="61.46796" lon="5.25648">
        <ele>30.342124</ele>
        <time>2020-07-15T23:39:20.647Z</time>
      </trkpt>
      <trkpt lat="61.46818" lon="5.25665">
        <ele>29.216974</ele>
        <time>2020-07-15T23:39:23.513Z</time>
      </trkpt>
      <trkpt lat="61.46835" lon="5.2568">
        <ele>28.37359</ele>
        <time>2020-07-15T23:39:25.577Z</time>
      </trkpt>
      <trkpt lat="61.4684" lon="5.25687">
        <ele>28.089104</ele>
        <time>2020-07-15T23:39:26.329Z</time>
      </trkpt>
      <trkpt lat="61.46849" lon="5.257">
        <ele>27.570228</ele>
        <time>2020-07-15T23:39:27.652Z</time>
      </trkpt>
      <trkpt lat="61.46879" lon="5.25747">
        <ele>25.807473</ele>
        <time>2020-07-15T23:39:32.319Z</time>
      </trkpt>
      <trkpt lat="61.46902" lon="5.25797">
        <ele>25.705391</ele>
        <time>2020-07-15T23:39:36.902Z</time>
      </trkpt>
      <trkpt lat="61.4694" lon="5.25919">
        <ele>27.121142</ele>
        <time>2020-07-15T23:39:50.166Z</time>
      </trkpt>
      <trkpt lat="61.46948" lon="5.25948">
        <ele>27.451543</ele>
        <time>2020-07-15T23:39:54.811Z</time>
      </trkpt>
      <trkpt lat="61.46975" lon="5.26052">
        <ele>28.610573</ele>
        <time>2020-07-15T23:40:14.215Z</time>
      </trkpt>
      <trkpt lat="61.47022" lon="5.26241">
        <ele>34.020498</ele>
        <time>2020-07-15T23:40:53.036Z</time>
      </trkpt>
      <trkpt lat="61.47052" lon="5.26517">
        <ele>41.843346</ele>
        <time>2020-07-15T23:41:42.292Z</time>
      </trkpt>
      <trkpt lat="61.47065" lon="5.26649">
        <ele>45.395322</ele>
        <time>2020-07-15T23:42:04.695Z</time>
      </trkpt>
      <trkpt lat="61.47076" lon="5.26766">
        <ele>48.511697</ele>
        <time>2020-07-15T23:42:24.678Z</time>
      </trkpt>
      <trkpt lat="61.47079" lon="5.26916">
        <ele>52.589539</ele>
        <time>2020-07-15T23:42:50.197Z</time>
      </trkpt>
      <trkpt lat="61.47045" lon="5.27312">
        <ele>63.03199</ele>
        <time>2020-07-15T23:44:00.986Z</time>
      </trkpt>
      <trkpt lat="61.47041" lon="5.27374">
        <ele>64.461747</ele>
        <time>2020-07-15T23:44:11.342Z</time>
      </trkpt>
      <trkpt lat="61.47035" lon="5.27414">
        <ele>65.407855</ele>
        <time>2020-07-15T23:44:17.793Z</time>
      </trkpt>
      <trkpt lat="61.47014" lon="5.27678">
        <ele>69.036611</ele>
        <time>2020-07-15T23:44:55.119Z</time>
      </trkpt>
      <trkpt lat="61.46915" lon="5.28652">
        <ele>72.010542</ele>
        <time>2020-07-15T23:46:24.499Z</time>
      </trkpt>
      <trkpt lat="61.46914" lon="5.28679">
        <ele>72.248503</ele>
        <time>2020-07-15T23:46:27.205Z</time>
      </trkpt>
      <trkpt lat="61.46914" lon="5.28679">
        <ele>72.248503</ele>
        <time>2020-07-15T23:46:27.234Z</time>
      </trkpt>
      <trkpt lat="61.46911" lon="5.28719">
        <ele>72.603891</ele>
        <time>2020-07-15T23:46:30.193Z</time>
      </trkpt>
      <trkpt lat="61.46904" lon="5.28891">
        <ele>74.11403</ele>
        <time>2020-07-15T23:46:45.791Z</time>
      </trkpt>
      <trkpt lat="61.46895" lon="5.28963">
        <ele>74.761548</ele>
        <time>2020-07-15T23:46:54.999Z</time>
      </trkpt>
      <trkpt lat="61.46871" lon="5.29052">
        <ele>77.217833</ele>
        <time>2020-07-15T23:47:11.666Z</time>
      </trkpt>
      <trkpt lat="61.46839" lon="5.29136">
        <ele>82.289186</ele>
        <time>2020-07-15T23:47:35.221Z</time>
      </trkpt>
      <trkpt lat="61.46789" lon="5.29342">
        <ele>93.260947</ele>
        <time>2020-07-15T23:48:38.359Z</time>
      </trkpt>
      <trkpt lat="61.46711" lon="5.29536">
        <ele>105.224882</ele>
        <time>2020-07-15T23:49:44.058Z</time>
      </trkpt>
      <trkpt lat="61.46686" lon="5.29582">
        <ele>108.549016</ele>
        <time>2020-07-15T23:49:58.575Z</time>
      </trkpt>
      <trkpt lat="61.46661" lon="5.29641">
        <ele>111.583063</ele>
        <time>2020-07-15T23:50:13.325Z</time>
      </trkpt>
      <trkpt lat="61.46615" lon="5.2982">
        <ele>116.351114</ele>
        <time>2020-07-15T23:50:45.347Z</time>
      </trkpt>
      <trkpt lat="61.46527" lon="5.30049">
        <ele>121.821344</ele>
        <time>2020-07-15T23:51:28.441Z</time>
      </trkpt>
      <trkpt lat="61.46446" lon="5.30343">
        <ele>123.178994</ele>
        <time>2020-07-15T23:52:09.733Z</time>
      </trkpt>
      <trkpt lat="61.46416" lon="5.30455">
        <ele>121.078234</ele>
        <time>2020-07-15T23:52:17.772Z</time>
      </trkpt>
      <trkpt lat="61.46378" lon="5.3059">
        <ele>117.652843</ele>
        <time>2020-07-15T23:52:26.350Z</time>
      </trkpt>
      <trkpt lat="61.4633" lon="5.30834">
        <ele>101.70048</ele>
        <time>2020-07-15T23:52:39.720Z</time>
      </trkpt>
      <trkpt lat="61.46296" lon="5.30956">
        <ele>92.818999</ele>
        <time>2020-07-15T23:52:46.775Z</time>
      </trkpt>
      <trkpt lat="61.46283" lon="5.31022">
        <ele>88.015442</ele>
        <time>2020-07-15T23:52:50.328Z</time>
      </trkpt>
      <trkpt lat="61.46225" lon="5.31399">
        <ele>65.073236</ele>
        <time>2020-07-15T23:53:10.226Z</time>
      </trkpt>
      <trkpt lat="61.46209" lon="5.31446">
        <ele>62.659156</ele>
        <time>2020-07-15T23:53:13.323Z</time>
      </trkpt>
      <trkpt lat="61.46162" lon="5.31545">
        <ele>56.915132</ele>
        <time>2020-07-15T23:53:21.127Z</time>
      </trkpt>
      <trkpt lat="61.46149" lon="5.31579">
        <ele>55.338566</ele>
        <time>2020-07-15T23:53:23.755Z</time>
      </trkpt>
      <trkpt lat="61.46146" lon="5.31588">
        <ele>55.56349</ele>
        <time>2020-07-15T23:53:24.480Z</time>
      </trkpt>
      <trkpt lat="61.46143" lon="5.31598">
        <ele>55.795592</ele>
        <time>2020-07-15T23:53:25.227Z</time>
      </trkpt>
      <trkpt lat="61.46137" lon="5.31616">
        <ele>56.236734</ele>
        <time>2020-07-15T23:53:26.733Z</time>
      </trkpt>
      <trkpt lat="61.46127" lon="5.31645">
        <ele>56.931003</ele>
        <time>2020-07-15T23:53:29.216Z</time>
      </trkpt>
      <trkpt lat="61.46119" lon="5.31677">
        <ele>57.652597</ele>
        <time>2020-07-15T23:53:32.029Z</time>
      </trkpt>
      <trkpt lat="61.46103" lon="5.31734">
        <ele>58.942856</ele>
        <time>2020-07-15T23:53:37.711Z</time>
      </trkpt>
      <trkpt lat="61.46096" lon="5.31761">
        <ele>59.54427</ele>
        <time>2020-07-15T23:53:41.357Z</time>
      </trkpt>
      <trkpt lat="61.46032" lon="5.31995">
        <ele>71.557794</ele>
        <time>2020-07-15T23:54:50.312Z</time>
      </trkpt>
      <trkpt lat="61.46026" lon="5.32025">
        <ele>74.22082</ele>
        <time>2020-07-15T23:55:02.368Z</time>
      </trkpt>
      <trkpt lat="61.46022" lon="5.32043">
        <ele>75.784621</ele>
        <time>2020-07-15T23:55:09.501Z</time>
      </trkpt>
      <trkpt lat="61.46018" lon="5.32079">
        <ele>78.801734</ele>
        <time>2020-07-15T23:55:22.648Z</time>
      </trkpt>
      <trkpt lat="61.46014" lon="5.3211">
        <ele>81.379931</ele>
        <time>2020-07-15T23:55:34.935Z</time>
      </trkpt>
      <trkpt lat="61.46009" lon="5.32167">
        <ele>86.037172</ele>
        <time>2020-07-15T23:55:58.399Z</time>
      </trkpt>
      <trkpt lat="61.46009" lon="5.32257">
        <ele>93.172918</ele>
        <time>2020-07-15T23:56:35.177Z</time>
      </trkpt>
      <trkpt lat="61.46017" lon="5.32354">
        <ele>98.337191</ele>
        <time>2020-07-15T23:57:15.118Z</time>
      </trkpt>
      <trkpt lat="61.46028" lon="5.32438">
        <ele>102.92275</ele>
        <time>2020-07-15T23:57:46.922Z</time>
      </trkpt>
      <trkpt lat="61.46043" lon="5.3252">
        <ele>107.512274</ele>
        <time>2020-07-15T23:58:09.670Z</time>
      </trkpt>
      <trkpt lat="61.46131" lon="5.32883">
        <ele>106.147041</ele>
        <time>2020-07-15T23:58:35.426Z</time>
      </trkpt>
      <trkpt lat="61.46145" lon="5.32977">
        <ele>104.306211</ele>
        <time>2020-07-15T23:58:40.913Z</time>
      </trkpt>
      <trkpt lat="61.46148" lon="5.32999">
        <ele>104.027802</ele>
        <time>2020-07-15T23:58:42.076Z</time>
      </trkpt>
      <trkpt lat="61.46158" lon="5.33099">
        <ele>102.762364</ele>
        <time>2020-07-15T23:58:47.912Z</time>
      </trkpt>
      <trkpt lat="61.4616" lon="5.33187">
        <ele>101.674068</ele>
        <time>2020-07-15T23:58:53.129Z</time>
      </trkpt>
      <trkpt lat="61.4616" lon="5.33397">
        <ele>102.088665</ele>
        <time>2020-07-15T23:59:19.127Z</time>
      </trkpt>
      <trkpt lat="61.46151" lon="5.33508">
        <ele>105.191191</ele>
        <time>2020-07-15T23:59:43.537Z</time>
      </trkpt>
      <trkpt lat="61.46089" lon="5.33826">
        <ele>109.925605</ele>
        <time>2020-07-16T00:00:44.887Z</time>
      </trkpt>
      <trkpt lat="61.46029" lon="5.34192">
        <ele>99.617916</ele>
        <time>2020-07-16T00:01:07.116Z</time>
      </trkpt>
      <trkpt lat="61.4602" lon="5.34288">
        <ele>93.918105</ele>
        <time>2020-07-16T00:01:11.973Z</time>
      </trkpt>
      <trkpt lat="61.46016" lon="5.34611">
        <ele>71.297634</ele>
        <time>2020-07-16T00:01:27.766Z</time>
      </trkpt>
      <trkpt lat="61.45993" lon="5.34812">
        <ele>58.414374</ele>
        <time>2020-07-16T00:01:38.184Z</time>
      </trkpt>
      <trkpt lat="61.4599" lon="5.34882">
        <ele>57.954005</ele>
        <time>2020-07-16T00:01:42.019Z</time>
      </trkpt>
      <trkpt lat="61.46002" lon="5.35202">
        <ele>57.109227</ele>
        <time>2020-07-16T00:02:21.948Z</time>
      </trkpt>
      <trkpt lat="61.46011" lon="5.3528">
        <ele>58.414543</ele>
        <time>2020-07-16T00:02:37.476Z</time>
      </trkpt>
      <trkpt lat="61.46027" lon="5.35356">
        <ele>59.772025</ele>
        <time>2020-07-16T00:02:51.428Z</time>
      </trkpt>
      <trkpt lat="61.46035" lon="5.35393">
        <ele>60.431552</ele>
        <time>2020-07-16T00:02:59.086Z</time>
      </trkpt>
      <trkpt lat="61.46038" lon="5.3541">
        <ele>60.737311</ele>
        <time>2020-07-16T00:03:00.372Z</time>
      </trkpt>
      <trkpt lat="61.46049" lon="5.35503">
        <ele>62.303357</ele>
        <time>2020-07-16T00:03:09.982Z</time>
      </trkpt>
      <trkpt lat="61.46052" lon="5.35621">
        <ele>60.797249</ele>
        <time>2020-07-16T00:03:19.755Z</time>
      </trkpt>
      <trkpt lat="61.46053" lon="5.35666">
        <ele>60.192091</ele>
        <time>2020-07-16T00:03:22.498Z</time>
      </trkpt>
      <trkpt lat="61.46054" lon="5.35801">
        <ele>58.373973</ele>
        <time>2020-07-16T00:03:30.329Z</time>
      </trkpt>
      <trkpt lat="61.46055" lon="5.35831">
        <ele>57.967732</ele>
        <time>2020-07-16T00:03:32.023Z</time>
      </trkpt>
      <trkpt lat="61.4606" lon="5.36068">
        <ele>56.294006</ele>
        <time>2020-07-16T00:03:46.659Z</time>
      </trkpt>
      <trkpt lat="61.46061" lon="5.36158">
        <ele>55.816228</ele>
        <time>2020-07-16T00:03:54.329Z</time>
      </trkpt>
      <trkpt lat="61.46062" lon="5.36207">
        <ele>55.555899</ele>
        <time>2020-07-16T00:04:00.030Z</time>
      </trkpt>
      <trkpt lat="61.46063" lon="5.36376">
        <ele>56.566383</ele>
        <time>2020-07-16T00:04:21.241Z</time>
      </trkpt>
      <trkpt lat="61.46057" lon="5.36504">
        <ele>57.965528</ele>
        <time>2020-07-16T00:04:38.496Z</time>
      </trkpt>
      <trkpt lat="61.46049" lon="5.3658">
        <ele>58.815454</ele>
        <time>2020-07-16T00:04:47.744Z</time>
      </trkpt>
      <trkpt lat="61.46044" lon="5.3663">
        <ele>59.375391</ele>
        <time>2020-07-16T00:04:53.418Z</time>
      </trkpt>
      <trkpt lat="61.4603" lon="5.36811">
        <ele>58.892352</ele>
        <time>2020-07-16T00:05:10.469Z</time>
      </trkpt>
      <trkpt lat="61.46025" lon="5.37037">
        <ele>58.044168</ele>
        <time>2020-07-16T00:05:25.958Z</time>
      </trkpt>
      <trkpt lat="61.46037" lon="5.37358">
        <ele>54.792302</ele>
        <time>2020-07-16T00:05:46.799Z</time>
      </trkpt>
      <trkpt lat="61.46039" lon="5.37414">
        <ele>54.83459</ele>
        <time>2020-07-16T00:05:50.841Z</time>
      </trkpt>
      <trkpt lat="61.46039" lon="5.37454">
        <ele>55.161328</ele>
        <time>2020-07-16T00:05:54.586Z</time>
      </trkpt>
      <trkpt lat="61.46037" lon="5.37548">
        <ele>55.925624</ele>
        <time>2020-07-16T00:06:03.609Z</time>
      </trkpt>
      <trkpt lat="61.4603" lon="5.37632">
        <ele>56.616286</ele>
        <time>2020-07-16T00:06:13.386Z</time>
      </trkpt>
      <trkpt lat="61.46022" lon="5.37692">
        <ele>57.116507</ele>
        <time>2020-07-16T00:06:21.499Z</time>
      </trkpt>
      <trkpt lat="61.46015" lon="5.37748">
        <ele>57.582212</ele>
        <time>2020-07-16T00:06:29.972Z</time>
      </trkpt>
      <trkpt lat="61.45977" lon="5.38038">
        <ele>66.43685</ele>
        <time>2020-07-16T00:07:22.099Z</time>
      </trkpt>
      <trkpt lat="61.4596" lon="5.38231">
        <ele>73.015963</ele>
        <time>2020-07-16T00:08:04.891Z</time>
      </trkpt>
      <trkpt lat="61.45955" lon="5.3827">
        <ele>74.462187</ele>
        <time>2020-07-16T00:08:14.237Z</time>
      </trkpt>
      <trkpt lat="61.4595" lon="5.383">
        <ele>75.620264</ele>
        <time>2020-07-16T00:08:20.766Z</time>
      </trkpt>
      <trkpt lat="61.45934" lon="5.38379">
        <ele>78.708183</ele>
        <time>2020-07-16T00:08:38.800Z</time>
      </trkpt>
      <trkpt lat="61.45925" lon="5.38418">
        <ele>80.24291</ele>
        <time>2020-07-16T00:08:48.652Z</time>
      </trkpt>
      <trkpt lat="61.45729" lon="5.39195">
        <ele>99.66705</ele>
        <time>2020-07-16T00:10:58.969Z</time>
      </trkpt>
      <trkpt lat="61.45697" lon="5.39283">
        <ele>102.901265</ele>
        <time>2020-07-16T00:11:15.382Z</time>
      </trkpt>
      <trkpt lat="61.4558" lon="5.39559">
        <ele>116.76305</ele>
        <time>2020-07-16T00:12:31.800Z</time>
      </trkpt>
      <trkpt lat="61.45568" lon="5.39587">
        <ele>118.547401</ele>
        <time>2020-07-16T00:12:41.567Z</time>
      </trkpt>
      <trkpt lat="61.45563" lon="5.396">
        <ele>119.308385</ele>
        <time>2020-07-16T00:12:44.739Z</time>
      </trkpt>
      <trkpt lat="61.45556" lon="5.39617">
        <ele>120.386175</ele>
        <time>2020-07-16T00:12:51.265Z</time>
      </trkpt>
      <trkpt lat="61.45518" lon="5.39729">
        <ele>126.896211</ele>
        <time>2020-07-16T00:13:26.917Z</time>
      </trkpt>
      <trkpt lat="61.45476" lon="5.39871">
        <ele>135.146109</ele>
        <time>2020-07-16T00:14:13.165Z</time>
      </trkpt>
      <trkpt lat="61.45386" lon="5.40218">
        <ele>150.245038</ele>
        <time>2020-07-16T00:15:39.811Z</time>
      </trkpt>
      <trkpt lat="61.45351" lon="5.40392">
        <ele>155.021418</ele>
        <time>2020-07-16T00:16:05.316Z</time>
      </trkpt>
      <trkpt lat="61.45331" lon="5.4056">
        <ele>153.192581</ele>
        <time>2020-07-16T00:16:18.036Z</time>
      </trkpt>
      <trkpt lat="61.45286" lon="5.41266">
        <ele>142.239974</ele>
        <time>2020-07-16T00:17:00.266Z</time>
      </trkpt>
      <trkpt lat="61.45283" lon="5.41309">
        <ele>141.894889</ele>
        <time>2020-07-16T00:17:03.352Z</time>
      </trkpt>
      <trkpt lat="61.45282" lon="5.41325">
        <ele>141.773951</ele>
        <time>2020-07-16T00:17:04.587Z</time>
      </trkpt>
      <trkpt lat="61.45272" lon="5.41416">
        <ele>141.043466</ele>
        <time>2020-07-16T00:17:12.655Z</time>
      </trkpt>
      <trkpt lat="61.45227" lon="5.41713">
        <ele>139.369311</ele>
        <time>2020-07-16T00:17:42.895Z</time>
      </trkpt>
      <trkpt lat="61.45221" lon="5.4176">
        <ele>139.150902</ele>
        <time>2020-07-16T00:17:47.146Z</time>
      </trkpt>
      <trkpt lat="61.45216" lon="5.41798">
        <ele>138.976588</ele>
        <time>2020-07-16T00:17:49.465Z</time>
      </trkpt>
      <trkpt lat="61.45216" lon="5.41937">
        <ele>136.159358</ele>
        <time>2020-07-16T00:17:57.824Z</time>
      </trkpt>
      <trkpt lat="61.45229" lon="5.42146">
        <ele>129.342972</ele>
        <time>2020-07-16T00:18:09.247Z</time>
      </trkpt>
      <trkpt lat="61.45172" lon="5.42674">
        <ele>109.985537</ele>
        <time>2020-07-16T00:18:38.341Z</time>
      </trkpt>
      <trkpt lat="61.45157" lon="5.4278">
        <ele>106.775679</ele>
        <time>2020-07-16T00:18:44.576Z</time>
      </trkpt>
      <trkpt lat="61.45112" lon="5.42964">
        <ele>100.979574</ele>
        <time>2020-07-16T00:18:56.479Z</time>
      </trkpt>
      <trkpt lat="61.45051" lon="5.4331">
        <ele>93.782315</ele>
        <time>2020-07-16T00:19:18.565Z</time>
      </trkpt>
      <trkpt lat="61.45003" lon="5.4375">
        <ele>88.410743</ele>
        <time>2020-07-16T00:19:47.854Z</time>
      </trkpt>
      <trkpt lat="61.44981" lon="5.43897">
        <ele>87.398723</ele>
        <time>2020-07-16T00:19:59.317Z</time>
      </trkpt>
      <trkpt lat="61.44969" lon="5.43952">
        <ele>87.000568</ele>
        <time>2020-07-16T00:20:03.948Z</time>
      </trkpt>
      <trkpt lat="61.44958" lon="5.44002">
        <ele>86.635848</ele>
        <time>2020-07-16T00:20:08.131Z</time>
      </trkpt>
      <trkpt lat="61.44925" lon="5.44152">
        <ele>85.031486</ele>
        <time>2020-07-16T00:20:20.100Z</time>
      </trkpt>
      <trkpt lat="61.44903" lon="5.44312">
        <ele>83.333729</ele>
        <time>2020-07-16T00:20:30.875Z</time>
      </trkpt>
      <trkpt lat="61.44855" lon="5.44594">
        <ele>79.116163</ele>
        <time>2020-07-16T00:20:49.662Z</time>
      </trkpt>
      <trkpt lat="61.448" lon="5.45036">
        <ele>70.348948</ele>
        <time>2020-07-16T00:21:18.130Z</time>
      </trkpt>
      <trkpt lat="61.44742" lon="5.45393">
        <ele>57.323848</ele>
        <time>2020-07-16T00:21:38.326Z</time>
      </trkpt>
      <trkpt lat="61.4474" lon="5.45416">
        <ele>56.438004</ele>
        <time>2020-07-16T00:21:39.521Z</time>
      </trkpt>
      <trkpt lat="61.44735" lon="5.4544">
        <ele>55.473967</ele>
        <time>2020-07-16T00:21:40.996Z</time>
      </trkpt>
      <trkpt lat="61.44705" lon="5.45579">
        <ele>52.293776</ele>
        <time>2020-07-16T00:21:49.553Z</time>
      </trkpt>
      <trkpt lat="61.4468" lon="5.45734">
        <ele>49.132307</ele>
        <time>2020-07-16T00:21:59.403Z</time>
      </trkpt>
      <trkpt lat="61.44653" lon="5.45863">
        <ele>47.633572</ele>
        <time>2020-07-16T00:22:12.094Z</time>
      </trkpt>
      <trkpt lat="61.44583" lon="5.46078">
        <ele>47.304243</ele>
        <time>2020-07-16T00:22:33.973Z</time>
      </trkpt>
      <trkpt lat="61.44528" lon="5.46203">
        <ele>46.555651</ele>
        <time>2020-07-16T00:22:47.480Z</time>
      </trkpt>
      <trkpt lat="61.44519" lon="5.46234">
        <ele>46.348989</ele>
        <time>2020-07-16T00:22:49.975Z</time>
      </trkpt>
      <trkpt lat="61.44505" lon="5.46285">
        <ele>46.013181</ele>
        <time>2020-07-16T00:22:54.182Z</time>
      </trkpt>
      <trkpt lat="61.44492" lon="5.4633">
        <ele>45.718521</ele>
        <time>2020-07-16T00:22:57.829Z</time>
      </trkpt>
      <trkpt lat="61.44476" lon="5.46386">
        <ele>45.353161</ele>
        <time>2020-07-16T00:23:02.193Z</time>
      </trkpt>
      <trkpt lat="61.4446" lon="5.46441">
        <ele>44.894297</ele>
        <time>2020-07-16T00:23:06.867Z</time>
      </trkpt>
      <trkpt lat="61.44449" lon="5.46475">
        <ele>44.520491</ele>
        <time>2020-07-16T00:23:09.807Z</time>
      </trkpt>
      <trkpt lat="61.4444" lon="5.46497">
        <ele>44.257857</ele>
        <time>2020-07-16T00:23:11.815Z</time>
      </trkpt>
      <trkpt lat="61.44402" lon="5.46602">
        <ele>43.044521</ele>
        <time>2020-07-16T00:23:20.723Z</time>
      </trkpt>
      <trkpt lat="61.44388" lon="5.46637">
        <ele>42.630449</ele>
        <time>2020-07-16T00:23:23.619Z</time>
      </trkpt>
      <trkpt lat="61.44381" lon="5.46657">
        <ele>42.401633</ele>
        <time>2020-07-16T00:23:25.266Z</time>
      </trkpt>
      <trkpt lat="61.44374" lon="5.46682">
        <ele>42.128045</ele>
        <time>2020-07-16T00:23:27.250Z</time>
      </trkpt>
      <trkpt lat="61.44364" lon="5.46728">
        <ele>41.666218</ele>
        <time>2020-07-16T00:23:30.524Z</time>
      </trkpt>
      <trkpt lat="61.44359" lon="5.46764">
        <ele>41.392235</ele>
        <time>2020-07-16T00:23:33.099Z</time>
      </trkpt>
      <trkpt lat="61.44357" lon="5.46789">
        <ele>41.207582</ele>
        <time>2020-07-16T00:23:34.894Z</time>
      </trkpt>
      <trkpt lat="61.44353" lon="5.46831">
        <ele>40.898459</ele>
        <time>2020-07-16T00:23:38.020Z</time>
      </trkpt>
      <trkpt lat="61.44351" lon="5.46853">
        <ele>40.741194</ele>
        <time>2020-07-16T00:23:39.536Z</time>
      </trkpt>
      <trkpt lat="61.44349" lon="5.46878">
        <ele>40.558806</ele>
        <time>2020-07-16T00:23:41.351Z</time>
      </trkpt>
      <trkpt lat="61.44324" lon="5.47193">
        <ele>38.327061</ele>
        <time>2020-07-16T00:24:04.099Z</time>
      </trkpt>
      <trkpt lat="61.44323" lon="5.47208">
        <ele>38.227188</ele>
        <time>2020-07-16T00:24:05.256Z</time>
      </trkpt>
      <trkpt lat="61.44318" lon="5.47272">
        <ele>37.809436</ele>
        <time>2020-07-16T00:24:10.099Z</time>
      </trkpt>
      <trkpt lat="61.44316" lon="5.47302">
        <ele>37.614732</ele>
        <time>2020-07-16T00:24:12.361Z</time>
      </trkpt>
      <trkpt lat="61.44312" lon="5.47364">
        <ele>37.209689</ele>
        <time>2020-07-16T00:24:16.961Z</time>
      </trkpt>
      <trkpt lat="61.44306" lon="5.47441">
        <ele>36.70542</ele>
        <time>2020-07-16T00:24:22.492Z</time>
      </trkpt>
      <trkpt lat="61.44289" lon="5.47625">
        <ele>34.239537</ele>
        <time>2020-07-16T00:24:35.083Z</time>
      </trkpt>
      <trkpt lat="61.44249" lon="5.47934">
        <ele>28.832471</ele>
        <time>2020-07-16T00:24:54.532Z</time>
      </trkpt>
      <trkpt lat="61.44238" lon="5.48181">
        <ele>23.281698</ele>
        <time>2020-07-16T00:25:09.061Z</time>
      </trkpt>
      <trkpt lat="61.44229" lon="5.48396">
        <ele>17.818587</ele>
        <time>2020-07-16T00:25:21.274Z</time>
      </trkpt>
      <trkpt lat="61.44226" lon="5.48474">
        <ele>15.813073</ele>
        <time>2020-07-16T00:25:25.717Z</time>
      </trkpt>
      <trkpt lat="61.44223" lon="5.48534">
        <ele>14.263703</ele>
        <time>2020-07-16T00:25:29.122Z</time>
      </trkpt>
      <trkpt lat="61.44207" lon="5.48946">
        <ele>5.810525</ele>
        <time>2020-07-16T00:25:53.573Z</time>
      </trkpt>
      <trkpt lat="61.44185" lon="5.49198">
        <ele>5.221963</ele>
        <time>2020-07-16T00:26:12.020Z</time>
      </trkpt>
      <trkpt lat="61.44178" lon="5.49278">
        <ele>5.103322</ele>
        <time>2020-07-16T00:26:20.230Z</time>
      </trkpt>
      <trkpt lat="61.44167" lon="5.4939">
        <ele>6.880529</ele>
        <time>2020-07-16T00:26:33.923Z</time>
      </trkpt>
      <trkpt lat="61.44143" lon="5.49647">
        <ele>14.56663</ele>
        <time>2020-07-16T00:27:23.087Z</time>
      </trkpt>
      <trkpt lat="61.44136" lon="5.49729">
        <ele>17.452012</ele>
        <time>2020-07-16T00:27:42.055Z</time>
      </trkpt>
      <trkpt lat="61.44133" lon="5.49771">
        <ele>19.30881</ele>
        <time>2020-07-16T00:27:51.755Z</time>
      </trkpt>
      <trkpt lat="61.44131" lon="5.49799">
        <ele>20.522063</ele>
        <time>2020-07-16T00:27:58.541Z</time>
      </trkpt>
      <trkpt lat="61.44131" lon="5.49835">
        <ele>22.072071</ele>
        <time>2020-07-16T00:28:07.326Z</time>
      </trkpt>
      <trkpt lat="61.4414" lon="5.49921">
        <ele>25.870016</ele>
        <time>2020-07-16T00:28:27.721Z</time>
      </trkpt>
      <trkpt lat="61.44192" lon="5.50088">
        <ele>33.694351</ele>
        <time>2020-07-16T00:29:12.740Z</time>
      </trkpt>
      <trkpt lat="61.44201" lon="5.50138">
        <ele>35.180771</ele>
        <time>2020-07-16T00:29:22.455Z</time>
      </trkpt>
      <trkpt lat="61.44204" lon="5.50187">
        <ele>36.545798</ele>
        <time>2020-07-16T00:29:30.570Z</time>
      </trkpt>
      <trkpt lat="61.44181" lon="5.50383">
        <ele>42.145423</ele>
        <time>2020-07-16T00:30:02.490Z</time>
      </trkpt>
      <trkpt lat="61.44177" lon="5.50732">
        <ele>50.506029</ele>
        <time>2020-07-16T00:30:56.994Z</time>
      </trkpt>
      <trkpt lat="61.44156" lon="5.50969">
        <ele>58.982301</ele>
        <time>2020-07-16T00:31:40.581Z</time>
      </trkpt>
      <trkpt lat="61.44142" lon="5.51233">
        <ele>69.327545</ele>
        <time>2020-07-16T00:32:43.825Z</time>
      </trkpt>
      <trkpt lat="61.44136" lon="5.51307">
        <ele>72.34829</ele>
        <time>2020-07-16T00:33:01.806Z</time>
      </trkpt>
      <trkpt lat="61.44133" lon="5.51349">
        <ele>74.115858</ele>
        <time>2020-07-16T00:33:12.286Z</time>
      </trkpt>
      <trkpt lat="61.44127" lon="5.51419">
        <ele>76.966364</ele>
        <time>2020-07-16T00:33:28.703Z</time>
      </trkpt>
      <trkpt lat="61.4411" lon="5.51861">
        <ele>87.478463</ele>
        <time>2020-07-16T00:34:41.298Z</time>
      </trkpt>
      <trkpt lat="61.44124" lon="5.52022">
        <ele>85.437942</ele>
        <time>2020-07-16T00:34:52.157Z</time>
      </trkpt>
      <trkpt lat="61.44124" lon="5.52079">
        <ele>84.199169</ele>
        <time>2020-07-16T00:34:55.568Z</time>
      </trkpt>
      <trkpt lat="61.441" lon="5.52564">
        <ele>69.016754</ele>
        <time>2020-07-16T00:35:22.172Z</time>
      </trkpt>
      <trkpt lat="61.44031" lon="5.53198">
        <ele>42.845849</ele>
        <time>2020-07-16T00:35:56.616Z</time>
      </trkpt>
      <trkpt lat="61.44022" lon="5.53307">
        <ele>38.732948</ele>
        <time>2020-07-16T00:36:02.660Z</time>
      </trkpt>
      <trkpt lat="61.44025" lon="5.53459">
        <ele>35.068749</ele>
        <time>2020-07-16T00:36:11.195Z</time>
      </trkpt>
      <trkpt lat="61.44072" lon="5.53971">
        <ele>34.606866</ele>
        <time>2020-07-16T00:36:48.949Z</time>
      </trkpt>
      <trkpt lat="61.44067" lon="5.54153">
        <ele>38.606574</ele>
        <time>2020-07-16T00:37:25.121Z</time>
      </trkpt>
      <trkpt lat="61.44059" lon="5.54354">
        <ele>51.897092</ele>
        <time>2020-07-16T00:38:25.005Z</time>
      </trkpt>
      <trkpt lat="61.44008" lon="5.54891">
        <ele>89.057434</ele>
        <time>2020-07-16T00:41:30.539Z</time>
      </trkpt>
      <trkpt lat="61.43981" lon="5.553">
        <ele>94.158546</ele>
        <time>2020-07-16T00:42:14.865Z</time>
      </trkpt>
      <trkpt lat="61.43973" lon="5.55473">
        <ele>92.010173</ele>
        <time>2020-07-16T00:42:24.925Z</time>
      </trkpt>
      <trkpt lat="61.43971" lon="5.55508">
        <ele>91.573038</ele>
        <time>2020-07-16T00:42:26.968Z</time>
      </trkpt>
      <trkpt lat="61.4397" lon="5.55518">
        <ele>91.450963</ele>
        <time>2020-07-16T00:42:27.543Z</time>
      </trkpt>
      <trkpt lat="61.43964" lon="5.55641">
        <ele>91.09211</ele>
        <time>2020-07-16T00:42:35.416Z</time>
      </trkpt>
      <trkpt lat="61.43969" lon="5.55775">
        <ele>94.858034</ele>
        <time>2020-07-16T00:42:51.063Z</time>
      </trkpt>
      <trkpt lat="61.43992" lon="5.55991">
        <ele>101.10445</ele>
        <time>2020-07-16T00:43:45.891Z</time>
      </trkpt>
      <trkpt lat="61.43999" lon="5.56072">
        <ele>103.851016</ele>
        <time>2020-07-16T00:44:05.942Z</time>
      </trkpt>
      <trkpt lat="61.44006" lon="5.56212">
        <ele>108.552736</ele>
        <time>2020-07-16T00:44:36.161Z</time>
      </trkpt>
      <trkpt lat="61.44014" lon="5.56352">
        <ele>113.266663</ele>
        <time>2020-07-16T00:45:00.656Z</time>
      </trkpt>
      <trkpt lat="61.44042" lon="5.5672">
        <ele>111.578654</ele>
        <time>2020-07-16T00:45:26.313Z</time>
      </trkpt>
      <trkpt lat="61.44055" lon="5.57102">
        <ele>106.805656</ele>
        <time>2020-07-16T00:45:50.510Z</time>
      </trkpt>
      <trkpt lat="61.44056" lon="5.57235">
        <ele>107.052267</ele>
        <time>2020-07-16T00:45:59.977Z</time>
      </trkpt>
      <trkpt lat="61.44048" lon="5.57454">
        <ele>107.481349</ele>
        <time>2020-07-16T00:46:21.774Z</time>
      </trkpt>
      <trkpt lat="61.44067" lon="5.57824">
        <ele>114.762957</ele>
        <time>2020-07-16T00:47:18.814Z</time>
      </trkpt>
      <trkpt lat="61.4405" lon="5.58163">
        <ele>123.971443</ele>
        <time>2020-07-16T00:48:18.887Z</time>
      </trkpt>
      <trkpt lat="61.43993" lon="5.58804">
        <ele>142.077993</ele>
        <time>2020-07-16T00:50:11.911Z</time>
      </trkpt>
      <trkpt lat="61.43919" lon="5.59211">
        <ele>153.605315</ele>
        <time>2020-07-16T00:51:30.312Z</time>
      </trkpt>
      <trkpt lat="61.43875" lon="5.59509">
        <ele>159.202334</ele>
        <time>2020-07-16T00:52:12.893Z</time>
      </trkpt>
      <trkpt lat="61.43868" lon="5.59568">
        <ele>160.070817</ele>
        <time>2020-07-16T00:52:19.737Z</time>
      </trkpt>
      <trkpt lat="61.43844" lon="5.59871">
        <ele>165.541558</ele>
        <time>2020-07-16T00:52:58.192Z</time>
      </trkpt>
      <trkpt lat="61.43839" lon="5.6003">
        <ele>168.680784</ele>
        <time>2020-07-16T00:53:23.695Z</time>
      </trkpt>
      <trkpt lat="61.43834" lon="5.60234">
        <ele>178.169265</ele>
        <time>2020-07-16T00:54:05.958Z</time>
      </trkpt>
      <trkpt lat="61.43829" lon="5.60348">
        <ele>183.779989</ele>
        <time>2020-07-16T00:54:38.288Z</time>
      </trkpt>
      <trkpt lat="61.43818" lon="5.60458">
        <ele>189.53814</ele>
        <time>2020-07-16T00:55:11.550Z</time>
      </trkpt>
      <trkpt lat="61.43806" lon="5.60528">
        <ele>193.598342</ele>
        <time>2020-07-16T00:55:32.951Z</time>
      </trkpt>
      <trkpt lat="61.43787" lon="5.60639">
        <ele>200.084483</ele>
        <time>2020-07-16T00:56:06.481Z</time>
      </trkpt>
      <trkpt lat="61.43777" lon="5.60713">
        <ele>204.321782</ele>
        <time>2020-07-16T00:56:27.569Z</time>
      </trkpt>
      <trkpt lat="61.4373" lon="5.61403">
        <ele>226.202388</ele>
        <time>2020-07-16T00:58:37.275Z</time>
      </trkpt>
      <trkpt lat="61.43729" lon="5.61513">
        <ele>228.683213</ele>
        <time>2020-07-16T00:58:49.890Z</time>
      </trkpt>
      <trkpt lat="61.43736" lon="5.61693">
        <ele>229.238879</ele>
        <time>2020-07-16T00:59:06.767Z</time>
      </trkpt>
      <trkpt lat="61.43732" lon="5.61785">
        <ele>229.349747</ele>
        <time>2020-07-16T00:59:13.770Z</time>
      </trkpt>
      <trkpt lat="61.43683" lon="5.62204">
        <ele>230.133479</ele>
        <time>2020-07-16T00:59:50.258Z</time>
      </trkpt>
      <trkpt lat="61.43683" lon="5.62339">
        <ele>231.027733</ele>
        <time>2020-07-16T01:00:05.995Z</time>
      </trkpt>
      <trkpt lat="61.43689" lon="5.6251">
        <ele>232.867682</ele>
        <time>2020-07-16T01:00:27.494Z</time>
      </trkpt>
      <trkpt lat="61.43686" lon="5.62614">
        <ele>233.988492</ele>
        <time>2020-07-16T01:00:41.168Z</time>
      </trkpt>
      <trkpt lat="61.43611" lon="5.63201">
        <ele>238.18278</ele>
        <time>2020-07-16T01:01:47.612Z</time>
      </trkpt>
      <trkpt lat="61.43603" lon="5.63292">
        <ele>238.55574</ele>
        <time>2020-07-16T01:01:55.971Z</time>
      </trkpt>
      <trkpt lat="61.43602" lon="5.63404">
        <ele>238.792704</ele>
        <time>2020-07-16T01:02:05.534Z</time>
      </trkpt>
      <trkpt lat="61.43627" lon="5.63735">
        <ele>237.78865</ele>
        <time>2020-07-16T01:02:31.418Z</time>
      </trkpt>
      <trkpt lat="61.43626" lon="5.63849">
        <ele>236.759569</ele>
        <time>2020-07-16T01:02:39.707Z</time>
      </trkpt>
      <trkpt lat="61.43615" lon="5.64126">
        <ele>234.032805</ele>
        <time>2020-07-16T01:02:58.126Z</time>
      </trkpt>
      <trkpt lat="61.43613" lon="5.64175">
        <ele>233.168331</ele>
        <time>2020-07-16T01:03:01.240Z</time>
      </trkpt>
      <trkpt lat="61.43613" lon="5.64229">
        <ele>232.227364</ele>
        <time>2020-07-16T01:03:04.558Z</time>
      </trkpt>
      <trkpt lat="61.43612" lon="5.64423">
        <ele>228.832481</ele>
        <time>2020-07-16T01:03:16.236Z</time>
      </trkpt>
      <trkpt lat="61.43612" lon="5.64506">
        <ele>227.364374</ele>
        <time>2020-07-16T01:03:21.242Z</time>
      </trkpt>
      <trkpt lat="61.43613" lon="5.64561">
        <ele>226.295353</ele>
        <time>2020-07-16T01:03:24.579Z</time>
      </trkpt>
      <trkpt lat="61.43615" lon="5.64594">
        <ele>225.644446</ele>
        <time>2020-07-16T01:03:26.603Z</time>
      </trkpt>
      <trkpt lat="61.43627" lon="5.64669">
        <ele>224.122264</ele>
        <time>2020-07-16T01:03:31.355Z</time>
      </trkpt>
      <trkpt lat="61.43665" lon="5.64836">
        <ele>220.525466</ele>
        <time>2020-07-16T01:03:42.486Z</time>
      </trkpt>
      <trkpt lat="61.43693" lon="5.64955">
        <ele>217.784269</ele>
        <time>2020-07-16T01:03:50.418Z</time>
      </trkpt>
      <trkpt lat="61.43716" lon="5.65064">
        <ele>215.291349</ele>
        <time>2020-07-16T01:03:57.425Z</time>
      </trkpt>
      <trkpt lat="61.43751" lon="5.65291">
        <ele>211.240343</ele>
        <time>2020-07-16T01:04:11.455Z</time>
      </trkpt>
      <trkpt lat="61.43756" lon="5.65366">
        <ele>210.370501</ele>
        <time>2020-07-16T01:04:16.191Z</time>
      </trkpt>
      <trkpt lat="61.43756" lon="5.65471">
        <ele>209.171203</ele>
        <time>2020-07-16T01:04:23.396Z</time>
      </trkpt>
      <trkpt lat="61.43757" lon="5.65498">
        <ele>208.869489</ele>
        <time>2020-07-16T01:04:25.220Z</time>
      </trkpt>
      <trkpt lat="61.43758" lon="5.6552">
        <ele>208.61254</ele>
        <time>2020-07-16T01:04:26.976Z</time>
      </trkpt>
      <trkpt lat="61.43769" lon="5.65593">
        <ele>208.149941</ele>
        <time>2020-07-16T01:04:33.549Z</time>
      </trkpt>
      <trkpt lat="61.43791" lon="5.65655">
        <ele>208.329958</ele>
        <time>2020-07-16T01:04:41.255Z</time>
      </trkpt>
      <trkpt lat="61.43797" lon="5.65665">
        <ele>208.369065</ele>
        <time>2020-07-16T01:04:43.407Z</time>
      </trkpt>
      <trkpt lat="61.4381" lon="5.65683">
        <ele>208.446755</ele>
        <time>2020-07-16T01:04:46.938Z</time>
      </trkpt>
      <trkpt lat="61.4382" lon="5.65691">
        <ele>208.497889</ele>
        <time>2020-07-16T01:04:49.187Z</time>
      </trkpt>
      <trkpt lat="61.43834" lon="5.65699">
        <ele>208.570129</ele>
        <time>2020-07-16T01:04:52.403Z</time>
      </trkpt>
      <trkpt lat="61.43874" lon="5.65694">
        <ele>208.769509</ele>
        <time>2020-07-16T01:05:01.106Z</time>
      </trkpt>
      <trkpt lat="61.43914" lon="5.65657">
        <ele>208.804098</ele>
        <time>2020-07-16T01:05:09.666Z</time>
      </trkpt>
      <trkpt lat="61.43949" lon="5.65617">
        <ele>207.063541</ele>
        <time>2020-07-16T01:05:15.735Z</time>
      </trkpt>
      <trkpt lat="61.43964" lon="5.65596">
        <ele>206.241647</ele>
        <time>2020-07-16T01:05:18.170Z</time>
      </trkpt>
      <trkpt lat="61.43985" lon="5.65543">
        <ele>204.80711</ele>
        <time>2020-07-16T01:05:22.240Z</time>
      </trkpt>
      <trkpt lat="61.43992" lon="5.65514">
        <ele>204.150481</ele>
        <time>2020-07-16T01:05:24.119Z</time>
      </trkpt>
      <trkpt lat="61.44004" lon="5.65401">
        <ele>201.721233</ele>
        <time>2020-07-16T01:05:30.622Z</time>
      </trkpt>
      <trkpt lat="61.44008" lon="5.65366">
        <ele>200.848217</ele>
        <time>2020-07-16T01:05:32.544Z</time>
      </trkpt>
      <trkpt lat="61.44015" lon="5.65342">
        <ele>199.73913</ele>
        <time>2020-07-16T01:05:33.955Z</time>
      </trkpt>
      <trkpt lat="61.44022" lon="5.65322">
        <ele>198.701078</ele>
        <time>2020-07-16T01:05:35.312Z</time>
      </trkpt>
      <trkpt lat="61.44045" lon="5.65288">
        <ele>196.33148</ele>
        <time>2020-07-16T01:05:38.383Z</time>
      </trkpt>
      <trkpt lat="61.44116" lon="5.65236">
        <ele>189.956513</ele>
        <time>2020-07-16T01:05:46.646Z</time>
      </trkpt>
      <trkpt lat="61.44136" lon="5.65225">
        <ele>188.185075</ele>
        <time>2020-07-16T01:05:48.892Z</time>
      </trkpt>
      <trkpt lat="61.44164" lon="5.65217">
        <ele>185.783786</ele>
        <time>2020-07-16T01:05:52.176Z</time>
      </trkpt>
      <trkpt lat="61.44183" lon="5.65214">
        <ele>185.220527</ele>
        <time>2020-07-16T01:05:54.407Z</time>
      </trkpt>
      <trkpt lat="61.44213" lon="5.65214">
        <ele>184.321897</ele>
        <time>2020-07-16T01:05:57.863Z</time>
      </trkpt>
      <trkpt lat="61.44386" lon="5.65226">
        <ele>181.879578</ele>
        <time>2020-07-16T01:06:23.567Z</time>
      </trkpt>
      <trkpt lat="61.44457" lon="5.65239">
        <ele>184.267676</ele>
        <time>2020-07-16T01:06:47.356Z</time>
      </trkpt>
      <trkpt lat="61.44592" lon="5.65335">
        <ele>188.379624</ele>
        <time>2020-07-16T01:07:37.675Z</time>
      </trkpt>
      <trkpt lat="61.44639" lon="5.65351">
        <ele>189.553203</ele>
        <time>2020-07-16T01:07:49.497Z</time>
      </trkpt>
      <trkpt lat="61.44827" lon="5.6532">
        <ele>192.338849</ele>
        <time>2020-07-16T01:08:17.995Z</time>
      </trkpt>
      <trkpt lat="61.44857" lon="5.65334">
        <ele>192.661572</ele>
        <time>2020-07-16T01:08:26.039Z</time>
      </trkpt>
      <trkpt lat="61.44877" lon="5.65364">
        <ele>194.258373</ele>
        <time>2020-07-16T01:08:35.037Z</time>
      </trkpt>
      <trkpt lat="61.44885" lon="5.6539">
        <ele>196.669033</ele>
        <time>2020-07-16T01:08:41.669Z</time>
      </trkpt>
      <trkpt lat="61.44891" lon="5.65424">
        <ele>199.555268</ele>
        <time>2020-07-16T01:08:50.306Z</time>
      </trkpt>
      <trkpt lat="61.44901" lon="5.65574">
        <ele>211.386199</ele>
        <time>2020-07-16T01:09:39.111Z</time>
      </trkpt>
      <trkpt lat="61.44905" lon="5.65601">
        <ele>213.640119</ele>
        <time>2020-07-16T01:09:50.878Z</time>
      </trkpt>
      <trkpt lat="61.44923" lon="5.65651">
        <ele>218.523091</ele>
        <time>2020-07-16T01:10:18.016Z</time>
      </trkpt>
      <trkpt lat="61.44946" lon="5.65673">
        <ele>222.678045</ele>
        <time>2020-07-16T01:10:40.544Z</time>
      </trkpt>
      <trkpt lat="61.4496" lon="5.65676">
        <ele>226.243658</ele>
        <time>2020-07-16T01:10:53.670Z</time>
      </trkpt>
      <trkpt lat="61.45024" lon="5.65659">
        <ele>242.418249</ele>
        <time>2020-07-16T01:11:53.170Z</time>
      </trkpt>
      <trkpt lat="61.45049" lon="5.65672">
        <ele>248.859649</ele>
        <time>2020-07-16T01:12:16.918Z</time>
      </trkpt>
      <trkpt lat="61.45065" lon="5.65716">
        <ele>255.488973</ele>
        <time>2020-07-16T01:12:41.255Z</time>
      </trkpt>
      <trkpt lat="61.4508" lon="5.65805">
        <ele>266.659672</ele>
        <time>2020-07-16T01:13:22.078Z</time>
      </trkpt>
      <trkpt lat="61.45093" lon="5.65853">
        <ele>269.686443</ele>
        <time>2020-07-16T01:13:44.709Z</time>
      </trkpt>
      <trkpt lat="61.45164" lon="5.65968">
        <ele>278.668538</ele>
        <time>2020-07-16T01:14:35.953Z</time>
      </trkpt>
      <trkpt lat="61.45173" lon="5.65993">
        <ele>280.190234</ele>
        <time>2020-07-16T01:14:42.372Z</time>
      </trkpt>
      <trkpt lat="61.45178" lon="5.66013">
        <ele>281.265721</ele>
        <time>2020-07-16T01:14:44.978Z</time>
      </trkpt>
      <trkpt lat="61.45183" lon="5.66042">
        <ele>282.721689</ele>
        <time>2020-07-16T01:14:49.074Z</time>
      </trkpt>
      <trkpt lat="61.45195" lon="5.66159">
        <ele>283.074033</ele>
        <time>2020-07-16T01:14:58.036Z</time>
      </trkpt>
      <trkpt lat="61.45223" lon="5.66455">
        <ele>273.214798</ele>
        <time>2020-07-16T01:15:14.136Z</time>
      </trkpt>
      <trkpt lat="61.45248" lon="5.66571">
        <ele>267.602539</ele>
        <time>2020-07-16T01:15:20.626Z</time>
      </trkpt>
      <trkpt lat="61.45323" lon="5.66765">
        <ele>256.420095</ele>
        <time>2020-07-16T01:15:33.688Z</time>
      </trkpt>
      <trkpt lat="61.45334" lon="5.66802">
        <ele>255.392434</ele>
        <time>2020-07-16T01:15:36.145Z</time>
      </trkpt>
      <trkpt lat="61.45345" lon="5.66876">
        <ele>253.900667</ele>
        <time>2020-07-16T01:15:40.664Z</time>
      </trkpt>
      <trkpt lat="61.45348" lon="5.66925">
        <ele>252.925599</ele>
        <time>2020-07-16T01:15:43.648Z</time>
      </trkpt>
      <trkpt lat="61.45352" lon="5.67026">
        <ele>250.966859</ele>
        <time>2020-07-16T01:15:50.143Z</time>
      </trkpt>
      <trkpt lat="61.45365" lon="5.67164">
        <ele>248.185716</ele>
        <time>2020-07-16T01:16:00.006Z</time>
      </trkpt>
      <trkpt lat="61.45428" lon="5.67482">
        <ele>241.131262</ele>
        <time>2020-07-16T01:16:20.212Z</time>
      </trkpt>
      <trkpt lat="61.45443" lon="5.67563">
        <ele>240.197094</ele>
        <time>2020-07-16T01:16:25.078Z</time>
      </trkpt>
      <trkpt lat="61.45462" lon="5.67648">
        <ele>239.222281</ele>
        <time>2020-07-16T01:16:30.535Z</time>
      </trkpt>
      <trkpt lat="61.45485" lon="5.67737">
        <ele>238.177078</ele>
        <time>2020-07-16T01:16:36.718Z</time>
      </trkpt>
      <trkpt lat="61.45564" lon="5.67986">
        <ele>245.36322</ele>
        <time>2020-07-16T01:17:20.647Z</time>
      </trkpt>
      <trkpt lat="61.4558" lon="5.68063">
        <ele>248.7988</ele>
        <time>2020-07-16T01:17:43.606Z</time>
      </trkpt>
      <trkpt lat="61.45582" lon="5.68101">
        <ele>250.371222</ele>
        <time>2020-07-16T01:17:55.146Z</time>
      </trkpt>
      <trkpt lat="61.45575" lon="5.68248">
        <ele>259.290752</ele>
        <time>2020-07-16T01:18:43.807Z</time>
      </trkpt>
      <trkpt lat="61.45564" lon="5.68335">
        <ele>265.670232</ele>
        <time>2020-07-16T01:19:15.507Z</time>
      </trkpt>
      <trkpt lat="61.45545" lon="5.68401">
        <ele>271.209453</ele>
        <time>2020-07-16T01:19:42.013Z</time>
      </trkpt>
      <trkpt lat="61.45509" lon="5.68486">
        <ele>279.279827</ele>
        <time>2020-07-16T01:20:15.977Z</time>
      </trkpt>
      <trkpt lat="61.45491" lon="5.68553">
        <ele>280.796455</ele>
        <time>2020-07-16T01:20:34.459Z</time>
      </trkpt>
      <trkpt lat="61.45483" lon="5.68637">
        <ele>282.387501</ele>
        <time>2020-07-16T01:20:50.072Z</time>
      </trkpt>
      <trkpt lat="61.45486" lon="5.68706">
        <ele>283.699157</ele>
        <time>2020-07-16T01:20:59.107Z</time>
      </trkpt>
      <trkpt lat="61.45502" lon="5.68781">
        <ele>285.235137</ele>
        <time>2020-07-16T01:21:05.638Z</time>
      </trkpt>
      <trkpt lat="61.45601" lon="5.69094">
        <ele>284.42047</ele>
        <time>2020-07-16T01:21:29.117Z</time>
      </trkpt>
      <trkpt lat="61.45623" lon="5.69138">
        <ele>284.016372</ele>
        <time>2020-07-16T01:21:36.917Z</time>
      </trkpt>
      <trkpt lat="61.45642" lon="5.69159">
        <ele>285.836621</ele>
        <time>2020-07-16T01:21:43.413Z</time>
      </trkpt>
      <trkpt lat="61.45652" lon="5.69162">
        <ele>286.74379</ele>
        <time>2020-07-16T01:21:47.333Z</time>
      </trkpt>
      <trkpt lat="61.45662" lon="5.69162">
        <ele>287.59626</ele>
        <time>2020-07-16T01:21:50.145Z</time>
      </trkpt>
      <trkpt lat="61.45668" lon="5.6916">
        <ele>288.114604</ele>
        <time>2020-07-16T01:21:51.933Z</time>
      </trkpt>
      <trkpt lat="61.45682" lon="5.69153">
        <ele>289.316303</ele>
        <time>2020-07-16T01:21:58.732Z</time>
      </trkpt>
      <trkpt lat="61.45888" lon="5.6898">
        <ele>310.704955</ele>
        <time>2020-07-16T01:23:59.546Z</time>
      </trkpt>
      <trkpt lat="61.45937" lon="5.68948">
        <ele>316.286322</ele>
        <time>2020-07-16T01:24:25.578Z</time>
      </trkpt>
      <trkpt lat="61.46109" lon="5.6893">
        <ele>333.933691</ele>
        <time>2020-07-16T01:25:49.320Z</time>
      </trkpt>
      <trkpt lat="61.46165" lon="5.68946">
        <ele>340.113022</ele>
        <time>2020-07-16T01:26:20.187Z</time>
      </trkpt>
      <trkpt lat="61.46214" lon="5.6898">
        <ele>346.339836</ele>
        <time>2020-07-16T01:26:50.001Z</time>
      </trkpt>
      <trkpt lat="61.46259" lon="5.69031">
        <ele>352.538296</ele>
        <time>2020-07-16T01:27:20.478Z</time>
      </trkpt>
      <trkpt lat="61.46275" lon="5.6906">
        <ele>355.166123</ele>
        <time>2020-07-16T01:27:33.408Z</time>
      </trkpt>
      <trkpt lat="61.46301" lon="5.69127">
        <ele>359.834244</ele>
        <time>2020-07-16T01:27:56.542Z</time>
      </trkpt>
      <trkpt lat="61.46311" lon="5.69207">
        <ele>363.449428</ele>
        <time>2020-07-16T01:28:17.386Z</time>
      </trkpt>
      <trkpt lat="61.46308" lon="5.6929">
        <ele>367.040207</ele>
        <time>2020-07-16T01:28:36.128Z</time>
      </trkpt>
      <trkpt lat="61.463" lon="5.69341">
        <ele>369.358327</ele>
        <time>2020-07-16T01:28:47.259Z</time>
      </trkpt>
      <trkpt lat="61.46214" lon="5.69677">
        <ele>384.864483</ele>
        <time>2020-07-16T01:30:03.065Z</time>
      </trkpt>
      <trkpt lat="61.46209" lon="5.69711">
        <ele>386.268617</ele>
        <time>2020-07-16T01:30:10.515Z</time>
      </trkpt>
      <trkpt lat="61.46206" lon="5.69756">
        <ele>388.036643</ele>
        <time>2020-07-16T01:30:20.620Z</time>
      </trkpt>
      <trkpt lat="61.46196" lon="5.70105">
        <ele>404.20198</ele>
        <time>2020-07-16T01:31:45.275Z</time>
      </trkpt>
      <trkpt lat="61.46197" lon="5.70159">
        <ele>406.778584</ele>
        <time>2020-07-16T01:31:57.975Z</time>
      </trkpt>
      <trkpt lat="61.46209" lon="5.70255">
        <ele>411.189933</ele>
        <time>2020-07-16T01:32:20.721Z</time>
      </trkpt>
      <trkpt lat="61.4622" lon="5.70296">
        <ele>413.232057</ele>
        <time>2020-07-16T01:32:31.422Z</time>
      </trkpt>
      <trkpt lat="61.46248" lon="5.70363">
        <ele>417.14485</ele>
        <time>2020-07-16T01:32:51.526Z</time>
      </trkpt>
      <trkpt lat="61.46349" lon="5.70502">
        <ele>428.763585</ele>
        <time>2020-07-16T01:33:47.613Z</time>
      </trkpt>
      <trkpt lat="61.46387" lon="5.70576">
        <ele>434.133482</ele>
        <time>2020-07-16T01:34:12.134Z</time>
      </trkpt>
      <trkpt lat="61.46412" lon="5.70659">
        <ele>438.986306</ele>
        <time>2020-07-16T01:34:35.873Z</time>
      </trkpt>
      <trkpt lat="61.46443" lon="5.70885">
        <ele>453.165248</ele>
        <time>2020-07-16T01:35:43.177Z</time>
      </trkpt>
      <trkpt lat="61.4646" lon="5.70992">
        <ele>460.581771</ele>
        <time>2020-07-16T01:36:20.515Z</time>
      </trkpt>
      <trkpt lat="61.46634" lon="5.71679">
        <ele>499.347379</ele>
        <time>2020-07-16T01:40:07.033Z</time>
      </trkpt>
      <trkpt lat="61.46672" lon="5.71821">
        <ele>493.991606</ele>
        <time>2020-07-16T01:40:15.117Z</time>
      </trkpt>
      <trkpt lat="61.46693" lon="5.7191">
        <ele>483.939048</ele>
        <time>2020-07-16T01:40:19.959Z</time>
      </trkpt>
      <trkpt lat="61.4671" lon="5.71974">
        <ele>476.661905</ele>
        <time>2020-07-16T01:40:23.483Z</time>
      </trkpt>
      <trkpt lat="61.46736" lon="5.72035">
        <ele>468.487648</ele>
        <time>2020-07-16T01:40:27.450Z</time>
      </trkpt>
      <trkpt lat="61.46773" lon="5.72089">
        <ele>459.436741</ele>
        <time>2020-07-16T01:40:32.039Z</time>
      </trkpt>
      <trkpt lat="61.46804" lon="5.72114">
        <ele>453.107706</ele>
        <time>2020-07-16T01:40:35.416Z</time>
      </trkpt>
      <trkpt lat="61.46904" lon="5.72146">
        <ele>433.852309</ele>
        <time>2020-07-16T01:40:45.884Z</time>
      </trkpt>
      <trkpt lat="61.46924" lon="5.72164">
        <ele>429.706837</ele>
        <time>2020-07-16T01:40:48.150Z</time>
      </trkpt>
      <trkpt lat="61.47042" lon="5.72323">
        <ele>408.580819</ele>
        <time>2020-07-16T01:41:02.632Z</time>
      </trkpt>
      <trkpt lat="61.47086" lon="5.72357">
        <ele>401.948002</ele>
        <time>2020-07-16T01:41:07.635Z</time>
      </trkpt>
      <trkpt lat="61.47096" lon="5.72365">
        <ele>401.09145</ele>
        <time>2020-07-16T01:41:08.756Z</time>
      </trkpt>
      <trkpt lat="61.47119" lon="5.72382">
        <ele>399.141138</ele>
        <time>2020-07-16T01:41:11.451Z</time>
      </trkpt>
      <trkpt lat="61.47167" lon="5.72438">
        <ele>394.832205</ele>
        <time>2020-07-16T01:41:17.424Z</time>
      </trkpt>
      <trkpt lat="61.47202" lon="5.72512">
        <ele>390.86445</ele>
        <time>2020-07-16T01:41:23.300Z</time>
      </trkpt>
      <trkpt lat="61.47217" lon="5.72566">
        <ele>388.525891</ele>
        <time>2020-07-16T01:41:26.844Z</time>
      </trkpt>
      <trkpt lat="61.47263" lon="5.72826">
        <ele>384.250284</ele>
        <time>2020-07-16T01:41:46.366Z</time>
      </trkpt>
      <trkpt lat="61.47432" lon="5.73401">
        <ele>368.722279</ele>
        <time>2020-07-16T01:42:25.439Z</time>
      </trkpt>
      <trkpt lat="61.47475" lon="5.73494">
        <ele>365.304036</ele>
        <time>2020-07-16T01:42:32.584Z</time>
      </trkpt>
      <trkpt lat="61.47586" lon="5.73675">
        <ele>359.067677</ele>
        <time>2020-07-16T01:42:49.437Z</time>
      </trkpt>
      <trkpt lat="61.47631" lon="5.73751">
        <ele>356.63848</ele>
        <time>2020-07-16T01:42:57.300Z</time>
      </trkpt>
      <trkpt lat="61.47647" lon="5.73778">
        <ele>356.324146</ele>
        <time>2020-07-16T01:43:00.273Z</time>
      </trkpt>
      <trkpt lat="61.47685" lon="5.73843">
        <ele>356.386291</ele>
        <time>2020-07-16T01:43:08.016Z</time>
      </trkpt>
      <trkpt lat="61.4774" lon="5.73981">
        <ele>356.496071</ele>
        <time>2020-07-16T01:43:25.550Z</time>
      </trkpt>
      <trkpt lat="61.47789" lon="5.74147">
        <ele>356.88516</ele>
        <time>2020-07-16T01:43:46.568Z</time>
      </trkpt>
      <trkpt lat="61.47816" lon="5.74276">
        <ele>357.272486</ele>
        <time>2020-07-16T01:44:00.631Z</time>
      </trkpt>
      <trkpt lat="61.47827" lon="5.74401">
        <ele>357.279461</ele>
        <time>2020-07-16T01:44:11.310Z</time>
      </trkpt>
      <trkpt lat="61.47825" lon="5.74598">
        <ele>354.180581</ele>
        <time>2020-07-16T01:44:24.743Z</time>
      </trkpt>
      <trkpt lat="61.47738" lon="5.75608">
        <ele>325.437003</ele>
        <time>2020-07-16T01:45:22.673Z</time>
      </trkpt>
      <trkpt lat="61.47729" lon="5.75667">
        <ele>322.768711</ele>
        <time>2020-07-16T01:45:25.878Z</time>
      </trkpt>
      <trkpt lat="61.4769" lon="5.75814">
        <ele>315.498185</ele>
        <time>2020-07-16T01:45:34.538Z</time>
      </trkpt>
      <trkpt lat="61.47687" lon="5.75849">
        <ele>313.92776</ele>
        <time>2020-07-16T01:45:36.410Z</time>
      </trkpt>
      <trkpt lat="61.47687" lon="5.75887">
        <ele>312.49867</ele>
        <time>2020-07-16T01:45:38.363Z</time>
      </trkpt>
      <trkpt lat="61.47699" lon="5.75941">
        <ele>310.283772</ele>
        <time>2020-07-16T01:45:41.390Z</time>
      </trkpt>
      <trkpt lat="61.47754" lon="5.76063">
        <ele>303.896942</ele>
        <time>2020-07-16T01:45:50.304Z</time>
      </trkpt>
      <trkpt lat="61.47809" lon="5.76334">
        <ele>298.758543</ele>
        <time>2020-07-16T01:46:08.180Z</time>
      </trkpt>
      <trkpt lat="61.47821" lon="5.76432">
        <ele>298.23213</ele>
        <time>2020-07-16T01:46:19.294Z</time>
      </trkpt>
      <trkpt lat="61.47822" lon="5.76501">
        <ele>297.873819</ele>
        <time>2020-07-16T01:46:26.413Z</time>
      </trkpt>
      <trkpt lat="61.47818" lon="5.76551">
        <ele>297.731795</ele>
        <time>2020-07-16T01:46:32.276Z</time>
      </trkpt>
      <trkpt lat="61.47815" lon="5.76572">
        <ele>297.714259</ele>
        <time>2020-07-16T01:46:34.405Z</time>
      </trkpt>
      <trkpt lat="61.47811" lon="5.7659">
        <ele>297.698344</ele>
        <time>2020-07-16T01:46:38.323Z</time>
      </trkpt>
      <trkpt lat="61.47776" lon="5.76716">
        <ele>297.582148</ele>
        <time>2020-07-16T01:46:53.148Z</time>
      </trkpt>
      <trkpt lat="61.47753" lon="5.76836">
        <ele>297.478713</ele>
        <time>2020-07-16T01:47:02.611Z</time>
      </trkpt>
      <trkpt lat="61.47749" lon="5.76887">
        <ele>296.693418</ele>
        <time>2020-07-16T01:47:06.279Z</time>
      </trkpt>
      <trkpt lat="61.47755" lon="5.77086">
        <ele>288.894376</ele>
        <time>2020-07-16T01:47:17.231Z</time>
      </trkpt>
      <trkpt lat="61.47737" lon="5.77329">
        <ele>275.332622</ele>
        <time>2020-07-16T01:47:29.841Z</time>
      </trkpt>
      <trkpt lat="61.47732" lon="5.77467">
        <ele>263.746822</ele>
        <time>2020-07-16T01:47:36.659Z</time>
      </trkpt>
      <trkpt lat="61.47732" lon="5.77625">
        <ele>250.131791</ele>
        <time>2020-07-16T01:47:44.348Z</time>
      </trkpt>
      <trkpt lat="61.47738" lon="5.77718">
        <ele>238.091219</ele>
        <time>2020-07-16T01:47:48.922Z</time>
      </trkpt>
      <trkpt lat="61.4777" lon="5.77837">
        <ele>220.785091</ele>
        <time>2020-07-16T01:47:55.551Z</time>
      </trkpt>
      <trkpt lat="61.47786" lon="5.77977">
        <ele>202.507398</ele>
        <time>2020-07-16T01:48:02.602Z</time>
      </trkpt>
      <trkpt lat="61.47797" lon="5.78039">
        <ele>195.743829</ele>
        <time>2020-07-16T01:48:05.846Z</time>
      </trkpt>
      <trkpt lat="61.47806" lon="5.78068">
        <ele>192.300642</ele>
        <time>2020-07-16T01:48:07.505Z</time>
      </trkpt>
      <trkpt lat="61.47836" lon="5.78135">
        <ele>182.958295</ele>
        <time>2020-07-16T01:48:11.945Z</time>
      </trkpt>
      <trkpt lat="61.47854" lon="5.78196">
        <ele>175.594959</ele>
        <time>2020-07-16T01:48:15.477Z</time>
      </trkpt>
      <trkpt lat="61.47861" lon="5.78257">
        <ele>169.298037</ele>
        <time>2020-07-16T01:48:18.520Z</time>
      </trkpt>
      <trkpt lat="61.4786" lon="5.78289">
        <ele>166.076486</ele>
        <time>2020-07-16T01:48:20.104Z</time>
      </trkpt>
      <trkpt lat="61.47858" lon="5.78362">
        <ele>162.823967</ele>
        <time>2020-07-16T01:48:23.756Z</time>
      </trkpt>
      <trkpt lat="61.47855" lon="5.7848">
        <ele>159.022337</ele>
        <time>2020-07-16T01:48:30.604Z</time>
      </trkpt>
      <trkpt lat="61.47852" lon="5.78582">
        <ele>155.747236</ele>
        <time>2020-07-16T01:48:36.591Z</time>
      </trkpt>
      <trkpt lat="61.47847" lon="5.78623">
        <ele>154.38333</ele>
        <time>2020-07-16T01:48:39.416Z</time>
      </trkpt>
      <trkpt lat="61.47841" lon="5.78658">
        <ele>153.177742</ele>
        <time>2020-07-16T01:48:41.802Z</time>
      </trkpt>
      <trkpt lat="61.4783" lon="5.78694">
        <ele>152.056462</ele>
        <time>2020-07-16T01:48:44.725Z</time>
      </trkpt>
      <trkpt lat="61.47807" lon="5.78739">
        <ele>150.580574</ele>
        <time>2020-07-16T01:48:48.721Z</time>
      </trkpt>
      <trkpt lat="61.47787" lon="5.78767">
        <ele>149.444573</ele>
        <time>2020-07-16T01:48:51.585Z</time>
      </trkpt>
      <trkpt lat="61.47755" lon="5.78805">
        <ele>147.69819</ele>
        <time>2020-07-16T01:48:56.046Z</time>
      </trkpt>
      <trkpt lat="61.4772" lon="5.78857">
        <ele>145.702312</ele>
        <time>2020-07-16T01:49:01.223Z</time>
      </trkpt>
      <trkpt lat="61.47708" lon="5.7888">
        <ele>144.925445</ele>
        <time>2020-07-16T01:49:03.179Z</time>
      </trkpt>
      <trkpt lat="61.47695" lon="5.78914">
        <ele>143.955842</ele>
        <time>2020-07-16T01:49:05.672Z</time>
      </trkpt>
      <trkpt lat="61.47681" lon="5.78965">
        <ele>142.619001</ele>
        <time>2020-07-16T01:49:08.985Z</time>
      </trkpt>
      <trkpt lat="61.47663" lon="5.79014">
        <ele>141.211344</ele>
        <time>2020-07-16T01:49:12.421Z</time>
      </trkpt>
      <trkpt lat="61.47614" lon="5.79062">
        <ele>138.67303</ele>
        <time>2020-07-16T01:49:18.789Z</time>
      </trkpt>
      <trkpt lat="61.47466" lon="5.79101">
        <ele>133.61564</ele>
        <time>2020-07-16T01:49:38.668Z</time>
      </trkpt>
      <trkpt lat="61.47405" lon="5.79089">
        <ele>132.127175</ele>
        <time>2020-07-16T01:49:47.680Z</time>
      </trkpt>
      <trkpt lat="61.47387" lon="5.79103">
        <ele>131.681485</ele>
        <time>2020-07-16T01:49:50.408Z</time>
      </trkpt>
      <trkpt lat="61.47364" lon="5.79141">
        <ele>130.234983</ele>
        <time>2020-07-16T01:49:54.612Z</time>
      </trkpt>
      <trkpt lat="61.4734" lon="5.79189">
        <ele>127.804899</ele>
        <time>2020-07-16T01:49:59.068Z</time>
      </trkpt>
      <trkpt lat="61.47306" lon="5.79221">
        <ele>125.050049</ele>
        <time>2020-07-16T01:50:03.571Z</time>
      </trkpt>
      <trkpt lat="61.47222" lon="5.79223">
        <ele>118.934135</ele>
        <time>2020-07-16T01:50:12.621Z</time>
      </trkpt>
      <trkpt lat="61.47214" lon="5.79232">
        <ele>118.233347</ele>
        <time>2020-07-16T01:50:13.618Z</time>
      </trkpt>
      <trkpt lat="61.47167" lon="5.79298">
        <ele>112.971885</ele>
        <time>2020-07-16T01:50:19.674Z</time>
      </trkpt>
      <trkpt lat="61.47162" lon="5.79307">
        <ele>112.300653</ele>
        <time>2020-07-16T01:50:20.477Z</time>
      </trkpt>
      <trkpt lat="61.47151" lon="5.79326">
        <ele>110.985771</ele>
        <time>2020-07-16T01:50:21.929Z</time>
      </trkpt>
      <trkpt lat="61.47128" lon="5.79425">
        <ele>106.058419</ele>
        <time>2020-07-16T01:50:27.686Z</time>
      </trkpt>
      <trkpt lat="61.47113" lon="5.79458">
        <ele>104.015898</ele>
        <time>2020-07-16T01:50:30.012Z</time>
      </trkpt>
      <trkpt lat="61.47095" lon="5.7946">
        <ele>102.291908</ele>
        <time>2020-07-16T01:50:32.160Z</time>
      </trkpt>
      <trkpt lat="61.47013" lon="5.7941">
        <ele>100.590821</ele>
        <time>2020-07-16T01:50:43.161Z</time>
      </trkpt>
      <trkpt lat="61.46934" lon="5.7943">
        <ele>99.846646</ele>
        <time>2020-07-16T01:51:02.984Z</time>
      </trkpt>
      <trkpt lat="61.46913" lon="5.79451">
        <ele>99.634841</ele>
        <time>2020-07-16T01:51:08.448Z</time>
      </trkpt>
      <trkpt lat="61.46887" lon="5.79496">
        <ele>98.837326</ele>
        <time>2020-07-16T01:51:15.853Z</time>
      </trkpt>
      <trkpt lat="61.46824" lon="5.79534">
        <ele>97.204897</ele>
        <time>2020-07-16T01:51:27.639Z</time>
      </trkpt>
      <trkpt lat="61.46791" lon="5.79574">
        <ele>96.266773</ele>
        <time>2020-07-16T01:51:32.307Z</time>
      </trkpt>
      <trkpt lat="61.46744" lon="5.79605">
        <ele>94.650593</ele>
        <time>2020-07-16T01:51:38.030Z</time>
      </trkpt>
      <trkpt lat="61.46695" lon="5.79664">
        <ele>87.711649</ele>
        <time>2020-07-16T01:51:44.489Z</time>
      </trkpt>
      <trkpt lat="61.46674" lon="5.79687">
        <ele>84.845677</ele>
        <time>2020-07-16T01:51:46.934Z</time>
      </trkpt>
      <trkpt lat="61.46662" lon="5.79696">
        <ele>83.30115</ele>
        <time>2020-07-16T01:51:48.305Z</time>
      </trkpt>
      <trkpt lat="61.46607" lon="5.79702">
        <ele>76.519504</ele>
        <time>2020-07-16T01:51:54.041Z</time>
      </trkpt>
      <trkpt lat="61.46593" lon="5.79711">
        <ele>74.806703</ele>
        <time>2020-07-16T01:51:55.515Z</time>
      </trkpt>
      <trkpt lat="61.46586" lon="5.79738">
        <ele>73.052399</ele>
        <time>2020-07-16T01:51:57.048Z</time>
      </trkpt>
      <trkpt lat="61.46588" lon="5.79781">
        <ele>70.897326</ele>
        <time>2020-07-16T01:51:59.194Z</time>
      </trkpt>
      <trkpt lat="61.46589" lon="5.7981">
        <ele>69.442705</ele>
        <time>2020-07-16T01:52:00.663Z</time>
      </trkpt>
      <trkpt lat="61.46589" lon="5.79851">
        <ele>67.34752</ele>
        <time>2020-07-16T01:52:02.744Z</time>
      </trkpt>
      <trkpt lat="61.46587" lon="5.79887">
        <ele>65.566312</ele>
        <time>2020-07-16T01:52:04.668Z</time>
      </trkpt>
      <trkpt lat="61.46583" lon="5.79918">
        <ele>63.940672</ele>
        <time>2020-07-16T01:52:06.303Z</time>
      </trkpt>
      <trkpt lat="61.46577" lon="5.79947">
        <ele>62.365399</ele>
        <time>2020-07-16T01:52:08.049Z</time>
      </trkpt>
      <trkpt lat="61.46561" lon="5.79996">
        <ele>59.392726</ele>
        <time>2020-07-16T01:52:11.169Z</time>
      </trkpt>
      <trkpt lat="61.46506" lon="5.80096">
        <ele>52.970904</ele>
        <time>2020-07-16T01:52:19.435Z</time>
      </trkpt>
      <trkpt lat="61.46474" lon="5.80267">
        <ele>47.925373</ele>
        <time>2020-07-16T01:52:30.659Z</time>
      </trkpt>
      <trkpt lat="61.46453" lon="5.80347">
        <ele>45.409095</ele>
        <time>2020-07-16T01:52:35.720Z</time>
      </trkpt>
      <trkpt lat="61.46449" lon="5.80369">
        <ele>44.782536</ele>
        <time>2020-07-16T01:52:36.906Z</time>
      </trkpt>
      <trkpt lat="61.46448" lon="5.80378">
        <ele>44.512885</ele>
        <time>2020-07-16T01:52:37.431Z</time>
      </trkpt>
      <trkpt lat="61.46448" lon="5.80392">
        <ele>44.132595</ele>
        <time>2020-07-16T01:52:38.259Z</time>
      </trkpt>
      <trkpt lat="61.46448" lon="5.8041">
        <ele>43.746837</ele>
        <time>2020-07-16T01:52:39.683Z</time>
      </trkpt>
      <trkpt lat="61.4645" lon="5.80428">
        <ele>43.334938</ele>
        <time>2020-07-16T01:52:40.688Z</time>
      </trkpt>
      <trkpt lat="61.46454" lon="5.80448">
        <ele>42.891418</ele>
        <time>2020-07-16T01:52:41.766Z</time>
      </trkpt>
      <trkpt lat="61.46468" lon="5.80505">
        <ele>41.531053</ele>
        <time>2020-07-16T01:52:45.374Z</time>
      </trkpt>
      <trkpt lat="61.46472" lon="5.80551">
        <ele>40.557957</ele>
        <time>2020-07-16T01:52:48.195Z</time>
      </trkpt>
      <trkpt lat="61.4647" lon="5.80572">
        <ele>40.11319</ele>
        <time>2020-07-16T01:52:49.278Z</time>
      </trkpt>
      <trkpt lat="61.46467" lon="5.80595">
        <ele>39.582573</ele>
        <time>2020-07-16T01:52:50.651Z</time>
      </trkpt>
      <trkpt lat="61.46461" lon="5.80618">
        <ele>39.039103</ele>
        <time>2020-07-16T01:52:52.690Z</time>
      </trkpt>
      <trkpt lat="61.46449" lon="5.80651">
        <ele>38.173311</ele>
        <time>2020-07-16T01:52:54.882Z</time>
      </trkpt>
      <trkpt lat="61.46413" lon="5.80748">
        <ele>36.854344</ele>
        <time>2020-07-16T01:53:03.002Z</time>
      </trkpt>
      <trkpt lat="61.46393" lon="5.80786">
        <ele>38.679927</ele>
        <time>2020-07-16T01:53:11.172Z</time>
      </trkpt>
      <trkpt lat="61.46325" lon="5.80864">
        <ele>43.745516</ele>
        <time>2020-07-16T01:53:45.442Z</time>
      </trkpt>
      <trkpt lat="61.46285" lon="5.80934">
        <ele>47.139467</ele>
        <time>2020-07-16T01:54:13.008Z</time>
      </trkpt>
      <trkpt lat="61.46229" lon="5.81014">
        <ele>50.601265</ele>
        <time>2020-07-16T01:54:43.388Z</time>
      </trkpt>
      <trkpt lat="61.46197" lon="5.81058">
        <ele>52.406503</ele>
        <time>2020-07-16T01:54:57.331Z</time>
      </trkpt>
      <trkpt lat="61.46189" lon="5.81072">
        <ele>52.930762</ele>
        <time>2020-07-16T01:54:58.948Z</time>
      </trkpt>
      <trkpt lat="61.4609" lon="5.8129">
        <ele>56.14524</ele>
        <time>2020-07-16T01:55:32.580Z</time>
      </trkpt>
      <trkpt lat="61.46031" lon="5.81393">
        <ele>55.752608</ele>
        <time>2020-07-16T01:55:48.504Z</time>
      </trkpt>
      <trkpt lat="61.46004" lon="5.81465">
        <ele>54.457251</ele>
        <time>2020-07-16T01:55:53.709Z</time>
      </trkpt>
      <trkpt lat="61.45983" lon="5.81542">
        <ele>49.513452</ele>
        <time>2020-07-16T01:55:58.457Z</time>
      </trkpt>
      <trkpt lat="61.45976" lon="5.81562">
        <ele>48.09201</ele>
        <time>2020-07-16T01:55:59.831Z</time>
      </trkpt>
      <trkpt lat="61.45974" lon="5.81588">
        <ele>46.633546</ele>
        <time>2020-07-16T01:56:01.260Z</time>
      </trkpt>
      <trkpt lat="61.45972" lon="5.81598">
        <ele>46.002984</ele>
        <time>2020-07-16T01:56:01.931Z</time>
      </trkpt>
      <trkpt lat="61.45943" lon="5.81654">
        <ele>41.406139</ele>
        <time>2020-07-16T01:56:06.350Z</time>
      </trkpt>
      <trkpt lat="61.4594" lon="5.8167">
        <ele>40.448887</ele>
        <time>2020-07-16T01:56:07.229Z</time>
      </trkpt>
      <trkpt lat="61.45944" lon="5.81847">
        <ele>29.483689</ele>
        <time>2020-07-16T01:56:16.368Z</time>
      </trkpt>
      <trkpt lat="61.45958" lon="5.81941">
        <ele>22.574232</ele>
        <time>2020-07-16T01:56:21.352Z</time>
      </trkpt>
      <trkpt lat="61.45973" lon="5.8201">
        <ele>17.119176</ele>
        <time>2020-07-16T01:56:25.300Z</time>
      </trkpt>
      <trkpt lat="61.4598" lon="5.82053">
        <ele>13.933323</ele>
        <time>2020-07-16T01:56:27.721Z</time>
      </trkpt>
      <trkpt lat="61.45983" lon="5.82161">
        <ele>7.608497</ele>
        <time>2020-07-16T01:56:33.666Z</time>
      </trkpt>
      <trkpt lat="61.4598" lon="5.822">
        <ele>7.107068</ele>
        <time>2020-07-16T01:56:35.915Z</time>
      </trkpt>
      <trkpt lat="61.45957" lon="5.82385">
        <ele>4.643708</ele>
        <time>2020-07-16T01:56:48.988Z</time>
      </trkpt>
      <trkpt lat="61.45931" lon="5.82487">
        <ele>3.153479</ele>
        <time>2020-07-16T01:57:01.096Z</time>
      </trkpt>
      <trkpt lat="61.45925" lon="5.82538">
        <ele>3.635669</ele>
        <time>2020-07-16T01:57:06.619Z</time>
      </trkpt>
      <trkpt lat="61.45906" lon="5.82628">
        <ele>4.912754</ele>
        <time>2020-07-16T01:57:18.728Z</time>
      </trkpt>
      <trkpt lat="61.45898" lon="5.82772">
        <ele>6.804321</ele>
        <time>2020-07-16T01:57:38.434Z</time>
      </trkpt>
      <trkpt lat="61.45893" lon="5.8279">
        <ele>7.077796</ele>
        <time>2020-07-16T01:57:41.069Z</time>
      </trkpt>
      <trkpt lat="61.45879" lon="5.82807">
        <ele>7.51781</ele>
        <time>2020-07-16T01:57:46.272Z</time>
      </trkpt>
      <trkpt lat="61.45862" lon="5.82816">
        <ele>8.023006</ele>
        <time>2020-07-16T01:57:51.394Z</time>
      </trkpt>
      <trkpt lat="61.45837" lon="5.82826">
        <ele>9.06577</ele>
        <time>2020-07-16T01:57:59.924Z</time>
      </trkpt>
      <trkpt lat="61.45749" lon="5.82918">
        <ele>13.160158</ele>
        <time>2020-07-16T01:58:33.403Z</time>
      </trkpt>
      <trkpt lat="61.45708" lon="5.82976">
        <ele>15.218466</ele>
        <time>2020-07-16T01:58:49.829Z</time>
      </trkpt>
      <trkpt lat="61.45696" lon="5.82985">
        <ele>15.377385</ele>
        <time>2020-07-16T01:58:53.860Z</time>
      </trkpt>
      <trkpt lat="61.45682" lon="5.82998">
        <ele>15.215086</ele>
        <time>2020-07-16T01:58:57.746Z</time>
      </trkpt>
      <trkpt lat="61.45655" lon="5.83032">
        <ele>14.892967</ele>
        <time>2020-07-16T01:59:05.241Z</time>
      </trkpt>
      <trkpt lat="61.45608" lon="5.83117">
        <ele>14.253459</ele>
        <time>2020-07-16T01:59:14.527Z</time>
      </trkpt>
      <trkpt lat="61.45589" lon="5.83158">
        <ele>13.972113</ele>
        <time>2020-07-16T01:59:18.184Z</time>
      </trkpt>
      <trkpt lat="61.45582" lon="5.83182">
        <ele>13.830355</ele>
        <time>2020-07-16T01:59:20.116Z</time>
      </trkpt>
      <trkpt lat="61.45574" lon="5.8324">
        <ele>13.395942</ele>
        <time>2020-07-16T01:59:23.896Z</time>
      </trkpt>
      <trkpt lat="61.45574" lon="5.83255">
        <ele>13.169152</ele>
        <time>2020-07-16T01:59:24.813Z</time>
      </trkpt>
      <trkpt lat="61.45575" lon="5.83263">
        <ele>13.048366</ele>
        <time>2020-07-16T01:59:25.289Z</time>
      </trkpt>
      <trkpt lat="61.45576" lon="5.83275">
        <ele>12.851887</ele>
        <time>2020-07-16T01:59:26.046Z</time>
      </trkpt>
      <trkpt lat="61.4558" lon="5.83289">
        <ele>12.599952</ele>
        <time>2020-07-16T01:59:27.220Z</time>
      </trkpt>
      <trkpt lat="61.45584" lon="5.83304">
        <ele>12.333676</ele>
        <time>2020-07-16T01:59:28.258Z</time>
      </trkpt>
      <trkpt lat="61.45591" lon="5.83315">
        <ele>12.047327</ele>
        <time>2020-07-16T01:59:29.427Z</time>
      </trkpt>
      <trkpt lat="61.45595" lon="5.83331">
        <ele>11.776724</ele>
        <time>2020-07-16T01:59:30.471Z</time>
      </trkpt>
      <trkpt lat="61.45601" lon="5.8334">
        <ele>11.547134</ele>
        <time>2020-07-16T01:59:31.537Z</time>
      </trkpt>
      <trkpt lat="61.45607" lon="5.83351">
        <ele>11.295996</ele>
        <time>2020-07-16T01:59:32.519Z</time>
      </trkpt>
      <trkpt lat="61.45591" lon="5.83438">
        <ele>9.86222</ele>
        <time>2020-07-16T01:59:38.189Z</time>
      </trkpt>
      <trkpt lat="61.45585" lon="5.83465">
        <ele>9.393149</ele>
        <time>2020-07-16T01:59:39.987Z</time>
      </trkpt>
      <trkpt lat="61.45539" lon="5.8361">
        <ele>8.292852</ele>
        <time>2020-07-16T01:59:51.637Z</time>
      </trkpt>
      <trkpt lat="61.45533" lon="5.83647">
        <ele>8.575366</ele>
        <time>2020-07-16T01:59:55.650Z</time>
      </trkpt>
      <trkpt lat="61.45525" lon="5.83683">
        <ele>8.861528</ele>
        <time>2020-07-16T02:00:00.293Z</time>
      </trkpt>
      <trkpt lat="61.45506" lon="5.8374">
        <ele>9.368994</ele>
        <time>2020-07-16T02:00:08.636Z</time>
      </trkpt>
      <trkpt lat="61.45476" lon="5.83805">
        <ele>10.010139</ele>
        <time>2020-07-16T02:00:20.485Z</time>
      </trkpt>
      <trkpt lat="61.45455" lon="5.83935">
        <ele>11.441483</ele>
        <time>2020-07-16T02:00:39.434Z</time>
      </trkpt>
      <trkpt lat="61.4545" lon="5.83953">
        <ele>11.727119</ele>
        <time>2020-07-16T02:00:42.567Z</time>
      </trkpt>
      <trkpt lat="61.45434" lon="5.83978">
        <ele>12.306774</ele>
        <time>2020-07-16T02:00:47.590Z</time>
      </trkpt>
      <trkpt lat="61.45426" lon="5.83986">
        <ele>12.562304</ele>
        <time>2020-07-16T02:00:50.469Z</time>
      </trkpt>
      <trkpt lat="61.45418" lon="5.83996">
        <ele>12.81871</ele>
        <time>2020-07-16T02:00:53.049Z</time>
      </trkpt>
      <trkpt lat="61.45392" lon="5.84057">
        <ele>13.926215</ele>
        <time>2020-07-16T02:01:03.399Z</time>
      </trkpt>
      <trkpt lat="61.45379" lon="5.84098">
        <ele>14.606312</ele>
        <time>2020-07-16T02:01:09.706Z</time>
      </trkpt>
      <trkpt lat="61.45345" lon="5.84191">
        <ele>15.680351</ele>
        <time>2020-07-16T02:01:24.264Z</time>
      </trkpt>
      <trkpt lat="61.45322" lon="5.84249">
        <ele>15.754264</ele>
        <time>2020-07-16T02:01:32.794Z</time>
      </trkpt>
      <trkpt lat="61.45308" lon="5.84287">
        <ele>15.801461</ele>
        <time>2020-07-16T02:01:37.107Z</time>
      </trkpt>
      <trkpt lat="61.45277" lon="5.8438">
        <ele>15.912187</ele>
        <time>2020-07-16T02:01:46.109Z</time>
      </trkpt>
      <trkpt lat="61.45271" lon="5.84387">
        <ele>15.926278</ele>
        <time>2020-07-16T02:01:47.113Z</time>
      </trkpt>
      <trkpt lat="61.45264" lon="5.84391">
        <ele>15.940578</ele>
        <time>2020-07-16T02:01:48.221Z</time>
      </trkpt>
      <trkpt lat="61.45255" lon="5.8439">
        <ele>15.959233</ele>
        <time>2020-07-16T02:01:49.595Z</time>
      </trkpt>
      <trkpt lat="61.45247" lon="5.84385">
        <ele>15.976624</ele>
        <time>2020-07-16T02:01:50.932Z</time>
      </trkpt>
      <trkpt lat="61.45245" lon="5.84402">
        <ele>15.993435</ele>
        <time>2020-07-16T02:01:52.137Z</time>
      </trkpt>
      <trkpt lat="61.45243" lon="5.84408">
        <ele>16.000621</ele>
        <time>2020-07-16T02:01:52.654Z</time>
      </trkpt>
      <trkpt lat="61.45234" lon="5.84429">
        <ele>15.7028</ele>
        <time>2020-07-16T02:01:54.825Z</time>
      </trkpt>
      <trkpt lat="61.45222" lon="5.84457">
        <ele>15.158477</ele>
        <time>2020-07-16T02:01:57.455Z</time>
      </trkpt>
      <trkpt lat="61.45205" lon="5.84505">
        <ele>14.263465</ele>
        <time>2020-07-16T02:02:01.850Z</time>
      </trkpt>
      <trkpt lat="61.45182" lon="5.84571">
        <ele>13.026536</ele>
        <time>2020-07-16T02:02:07.300Z</time>
      </trkpt>
      <trkpt lat="61.45173" lon="5.84594">
        <ele>12.579682</ele>
        <time>2020-07-16T02:02:09.152Z</time>
      </trkpt>
      <trkpt lat="61.45103" lon="5.84732">
        <ele>9.430423</ele>
        <time>2020-07-16T02:02:21.672Z</time>
      </trkpt>
      <trkpt lat="61.45066" lon="5.84797">
        <ele>7.629245</ele>
        <time>2020-07-16T02:02:27.940Z</time>
      </trkpt>
      <trkpt lat="61.45049" lon="5.8483">
        <ele>6.755986</ele>
        <time>2020-07-16T02:02:31.011Z</time>
      </trkpt>
      <trkpt lat="61.45024" lon="5.84903">
        <ele>5.153029</ele>
        <time>2020-07-16T02:02:36.760Z</time>
      </trkpt>
      <trkpt lat="61.4502" lon="5.84929">
        <ele>4.657372</ele>
        <time>2020-07-16T02:02:38.571Z</time>
      </trkpt>
      <trkpt lat="61.45022" lon="5.84947">
        <ele>4.324745</ele>
        <time>2020-07-16T02:02:39.824Z</time>
      </trkpt>
      <trkpt lat="61.45024" lon="5.84952">
        <ele>4.218615</ele>
        <time>2020-07-16T02:02:40.170Z</time>
      </trkpt>
      <trkpt lat="61.45026" lon="5.84955">
        <ele>4.103801</ele>
        <time>2020-07-16T02:02:40.589Z</time>
      </trkpt>
      <trkpt lat="61.45026" lon="5.84967">
        <ele>3.897679</ele>
        <time>2020-07-16T02:02:41.346Z</time>
      </trkpt>
      <trkpt lat="61.45026" lon="5.84983">
        <ele>3.637629</ele>
        <time>2020-07-16T02:02:42.423Z</time>
      </trkpt>
      <trkpt lat="61.45026" lon="5.84993">
        <ele>3.567397</ele>
        <time>2020-07-16T02:02:43.102Z</time>
      </trkpt>
      <trkpt lat="61.45027" lon="5.84992">
        <ele>3.550527</ele>
        <time>2020-07-16T02:02:43.240Z</time>
      </trkpt>
      <trkpt lat="61.45033" lon="5.8499">
        <ele>3.449881</ele>
        <time>2020-07-16T02:02:44.216Z</time>
      </trkpt>
      <trkpt lat="61.45076" lon="5.84994">
        <ele>2.821289</ele>
        <time>2020-07-16T02:02:50.318Z</time>
      </trkpt>
      <trkpt lat="61.45087" lon="5.84996">
        <ele>2.65321</ele>
        <time>2020-07-16T02:02:52.640Z</time>
      </trkpt>
      <trkpt lat="61.45212" lon="5.85015">
        <ele>0.935144</ele>
        <time>2020-07-16T02:03:19.226Z</time>
      </trkpt>
      <trkpt lat="61.45217" lon="5.85018">
        <ele>0.916888</ele>
        <time>2020-07-16T02:03:20.295Z</time>
      </trkpt>
      <trkpt lat="61.4522" lon="5.85024">
        <ele>0.900375</ele>
        <time>2020-07-16T02:03:21.253Z</time>
      </trkpt>
      <trkpt lat="61.45222" lon="5.85034">
        <ele>0.880266</ele>
        <time>2020-07-16T02:03:22.467Z</time>
      </trkpt>
      <trkpt lat="61.45228" lon="5.85035">
        <ele>0.857694</ele>
        <time>2020-07-16T02:03:23.793Z</time>
      </trkpt>
      <trkpt lat="61.45236" lon="5.85035">
        <ele>0.827853</ele>
        <time>2020-07-16T02:03:25.540Z</time>
      </trkpt>
      <trkpt lat="61.45241" lon="5.85036">
        <ele>0.810252</ele>
        <time>2020-07-16T02:03:26.593Z</time>
      </trkpt>
      <trkpt lat="61.45243" lon="5.85036">
        <ele>0.801074</ele>
        <time>2020-07-16T02:03:27.130Z</time>
      </trkpt>
      <trkpt lat="61.45248" lon="5.85025">
        <ele>0.772558</ele>
        <time>2020-07-16T02:03:28.846Z</time>
      </trkpt>
      <trkpt lat="61.45364" lon="5.85024">
        <ele>0.328151</ele>
        <time>2020-07-16T02:03:55.148Z</time>
      </trkpt>
      <trkpt lat="61.45368" lon="5.85027">
        <ele>0.313402</ele>
        <time>2020-07-16T02:03:56.007Z</time>
      </trkpt>
      <trkpt lat="61.45371" lon="5.85034">
        <ele>0.298109</ele>
        <time>2020-07-16T02:03:56.990Z</time>
      </trkpt>
      <trkpt lat="61.45375" lon="5.85034">
        <ele>0.293896</ele>
        <time>2020-07-16T02:03:57.912Z</time>
      </trkpt>
      <trkpt lat="61.45383" lon="5.85034">
        <ele>0.285985</ele>
        <time>2020-07-16T02:03:59.640Z</time>
      </trkpt>
      <trkpt lat="61.45388" lon="5.85033">
        <ele>0.280742</ele>
        <time>2020-07-16T02:04:00.826Z</time>
      </trkpt>
      <trkpt lat="61.4539" lon="5.85028">
        <ele>0.277081</ele>
        <time>2020-07-16T02:04:01.642Z</time>
      </trkpt>
      <trkpt lat="61.45394" lon="5.85025">
        <ele>0.273463</ele>
        <time>2020-07-16T02:04:02.469Z</time>
      </trkpt>
      <trkpt lat="61.45415" lon="5.85026">
        <ele>0.25137</ele>
        <time>2020-07-16T02:04:06.310Z</time>
      </trkpt>
      <trkpt lat="61.45533" lon="5.85027">
        <ele>0.129733</ele>
        <time>2020-07-16T02:04:27.964Z</time>
      </trkpt>
      <trkpt lat="61.45534" lon="5.85012">
        <ele>0.12271</ele>
        <time>2020-07-16T02:04:32.733Z</time>
      </trkpt>
      <trkpt lat="61.45542" lon="5.85016">
        <ele>0.114173</ele>
        <time>2020-07-16T02:04:34.303Z</time>
      </trkpt>
      <trkpt lat="61.4555" lon="5.8502">
        <ele>0.132575</ele>
        <time>2020-07-16T02:04:35.661Z</time>
      </trkpt>
      <trkpt lat="61.45552" lon="5.85026">
        <ele>0.141027</ele>
        <time>2020-07-16T02:04:36.291Z</time>
      </trkpt>
      <trkpt lat="61.45555" lon="5.85031">
        <ele>0.150596</ele>
        <time>2020-07-16T02:04:36.990Z</time>
      </trkpt>
      <trkpt lat="61.45566" lon="5.85031">
        <ele>0.178318</ele>
        <time>2020-07-16T02:04:39.027Z</time>
      </trkpt>
      <trkpt lat="61.45569" lon="5.85027">
        <ele>0.187561</ele>
        <time>2020-07-16T02:04:39.729Z</time>
      </trkpt>
      <trkpt lat="61.45572" lon="5.8502">
        <ele>0.198588</ele>
        <time>2020-07-16T02:04:40.533Z</time>
      </trkpt>
      <trkpt lat="61.45588" lon="5.85013">
        <ele>0.238319</ele>
        <time>2020-07-16T02:04:43.488Z</time>
      </trkpt>
      <trkpt lat="61.45588" lon="5.85027">
        <ele>0.254581</ele>
        <time>2020-07-16T02:04:48.150Z</time>
      </trkpt>
      <trkpt lat="61.45592" lon="5.85027">
        <ele>0.264063</ele>
        <time>2020-07-16T02:04:48.880Z</time>
      </trkpt>
      <trkpt lat="61.45595" lon="5.85027">
        <ele>0.271113</ele>
        <time>2020-07-16T02:04:49.429Z</time>
      </trkpt>
      <trkpt lat="61.45606" lon="5.85028">
        <ele>0.298829</ele>
        <time>2020-07-16T02:04:51.574Z</time>
      </trkpt>
      <trkpt lat="61.45609" lon="5.85028">
        <ele>0.304178</ele>
        <time>2020-07-16T02:04:52.025Z</time>
      </trkpt>
      <trkpt lat="61.457" lon="5.85029">
        <ele>0.527318</ele>
        <time>2020-07-16T02:05:09.703Z</time>
      </trkpt>
      <trkpt lat="61.45727" lon="5.8505">
        <ele>1.36833</ele>
        <time>2020-07-16T02:05:15.458Z</time>
      </trkpt>
      <trkpt lat="61.45745" lon="5.85034">
        <ele>2.240864</ele>
        <time>2020-07-16T02:05:19.625Z</time>
      </trkpt>
      <trkpt lat="61.45755" lon="5.85028">
        <ele>2.716656</ele>
        <time>2020-07-16T02:05:22.002Z</time>
      </trkpt>
      <trkpt lat="61.45767" lon="5.85022">
        <ele>3.234249</ele>
        <time>2020-07-16T02:05:24.596Z</time>
      </trkpt>
      <trkpt lat="61.45779" lon="5.85013">
        <ele>3.816136</ele>
        <time>2020-07-16T02:05:28.417Z</time>
      </trkpt>
      <trkpt lat="61.45822" lon="5.84973">
        <ele>5.900546</ele>
        <time>2020-07-16T02:05:45.257Z</time>
      </trkpt>
      <trkpt lat="61.45819" lon="5.84959">
        <ele>6.238586</ele>
        <time>2020-07-16T02:05:48.316Z</time>
      </trkpt>
      <trkpt lat="61.45848" lon="5.8493">
        <ele>7.673846</ele>
        <time>2020-07-16T02:06:01.438Z</time>
      </trkpt>
      <trkpt lat="61.45887" lon="5.8489">
        <ele>9.94784</ele>
        <time>2020-07-16T02:06:20.863Z</time>
      </trkpt>
      <trkpt lat="61.45907" lon="5.84865">
        <ele>11.359761</ele>
        <time>2020-07-16T02:06:32.528Z</time>
      </trkpt>
      <trkpt lat="61.45936" lon="5.84824">
        <ele>13.468439</ele>
        <time>2020-07-16T02:06:48.753Z</time>
      </trkpt>
      <trkpt lat="61.45997" lon="5.84725">
        <ele>18.081542</ele>
        <time>2020-07-16T02:07:18.201Z</time>
      </trkpt>
      <trkpt lat="61.4601" lon="5.84701">
        <ele>19.114697</ele>
        <time>2020-07-16T02:07:25.448Z</time>
      </trkpt>
      <trkpt lat="61.46204" lon="5.84355">
        <ele>11.80088</ele>
        <time>2020-07-16T02:07:58.540Z</time>
      </trkpt>
      <trkpt lat="61.46294" lon="5.84198">
        <ele>9.352183</ele>
        <time>2020-07-16T02:08:14.775Z</time>
      </trkpt>
      <trkpt lat="61.46328" lon="5.84124">
        <ele>11.040606</ele>
        <time>2020-07-16T02:08:27.863Z</time>
      </trkpt>
      <trkpt lat="61.46363" lon="5.83988">
        <ele>13.568391</ele>
        <time>2020-07-16T02:08:52.120Z</time>
      </trkpt>
      <trkpt lat="61.4639" lon="5.83874">
        <ele>15.594146</ele>
        <time>2020-07-16T02:09:13.209Z</time>
      </trkpt>
      <trkpt lat="61.46407" lon="5.83804">
        <ele>16.69547</ele>
        <time>2020-07-16T02:09:26.483Z</time>
      </trkpt>
      <trkpt lat="61.46415" lon="5.83757">
        <ele>17.388998</ele>
        <time>2020-07-16T02:09:33.661Z</time>
      </trkpt>
      <trkpt lat="61.46418" lon="5.83726">
        <ele>17.824822</ele>
        <time>2020-07-16T02:09:38.397Z</time>
      </trkpt>
      <trkpt lat="61.46425" lon="5.83664">
        <ele>18.725669</ele>
        <time>2020-07-16T02:09:47.102Z</time>
      </trkpt>
      <trkpt lat="61.4643" lon="5.83627">
        <ele>19.261473</ele>
        <time>2020-07-16T02:09:51.110Z</time>
      </trkpt>
      <trkpt lat="61.46434" lon="5.83609">
        <ele>19.535285</ele>
        <time>2020-07-16T02:09:53.442Z</time>
      </trkpt>
      <trkpt lat="61.46451" lon="5.83571">
        <ele>20.274417</ele>
        <time>2020-07-16T02:09:58.256Z</time>
      </trkpt>
      <trkpt lat="61.46456" lon="5.83572">
        <ele>20.406695</ele>
        <time>2020-07-16T02:09:59.121Z</time>
      </trkpt>
      <trkpt lat="61.4646" lon="5.83569">
        <ele>20.435936</ele>
        <time>2020-07-16T02:09:59.976Z</time>
      </trkpt>
      <trkpt lat="61.46463" lon="5.83563">
        <ele>20.298363</ele>
        <time>2020-07-16T02:10:00.812Z</time>
      </trkpt>
      <trkpt lat="61.46466" lon="5.83556">
        <ele>20.159952</ele>
        <time>2020-07-16T02:10:01.671Z</time>
      </trkpt>
      <trkpt lat="61.46466" lon="5.83551">
        <ele>20.085203</ele>
        <time>2020-07-16T02:10:02.145Z</time>
      </trkpt>
      <trkpt lat="61.46467" lon="5.83547">
        <ele>20.022077</ele>
        <time>2020-07-16T02:10:02.429Z</time>
      </trkpt>
      <trkpt lat="61.46466" lon="5.83537">
        <ele>19.883556</ele>
        <time>2020-07-16T02:10:03.042Z</time>
      </trkpt>
      <trkpt lat="61.46476" lon="5.8348">
        <ele>18.971321</ele>
        <time>2020-07-16T02:10:07.255Z</time>
      </trkpt>
      <trkpt lat="61.4651" lon="5.83336">
        <ele>16.575202</ele>
        <time>2020-07-16T02:10:17.103Z</time>
      </trkpt>
      <trkpt lat="61.46533" lon="5.83238">
        <ele>14.944944</ele>
        <time>2020-07-16T02:10:23.451Z</time>
      </trkpt>
      <trkpt lat="61.46543" lon="5.83184">
        <ele>13.678507</ele>
        <time>2020-07-16T02:10:26.715Z</time>
      </trkpt>
      <trkpt lat="61.4655" lon="5.83085">
        <ele>11.398166</ele>
        <time>2020-07-16T02:10:32.473Z</time>
      </trkpt>
      <trkpt lat="61.46549" lon="5.83027">
        <ele>10.061128</ele>
        <time>2020-07-16T02:10:35.852Z</time>
      </trkpt>
      <trkpt lat="61.46535" lon="5.82889">
        <ele>6.872435</ele>
        <time>2020-07-16T02:10:44.045Z</time>
      </trkpt>
      <trkpt lat="61.46535" lon="5.82798">
        <ele>5.538289</ele>
        <time>2020-07-16T02:10:49.619Z</time>
      </trkpt>
      <trkpt lat="61.46545" lon="5.82715">
        <ele>4.557299</ele>
        <time>2020-07-16T02:10:54.940Z</time>
      </trkpt>
      <trkpt lat="61.46566" lon="5.82639">
        <ele>3.544033</ele>
        <time>2020-07-16T02:11:00.696Z</time>
      </trkpt>
      <trkpt lat="61.46597" lon="5.82577">
        <ele>2.514809</ele>
        <time>2020-07-16T02:11:06.940Z</time>
      </trkpt>
      <trkpt lat="61.46634" lon="5.82535">
        <ele>2.267975</ele>
        <time>2020-07-16T02:11:13.680Z</time>
      </trkpt>
      <trkpt lat="61.46653" lon="5.82523">
        <ele>2.578187</ele>
        <time>2020-07-16T02:11:17.231Z</time>
      </trkpt>
      <trkpt lat="61.4675" lon="5.82501">
        <ele>4.071325</ele>
        <time>2020-07-16T02:11:39.059Z</time>
      </trkpt>
      <trkpt lat="61.46796" lon="5.82466">
        <ele>5.155104</ele>
        <time>2020-07-16T02:11:53.099Z</time>
      </trkpt>
      <trkpt lat="61.46854" lon="5.82382">
        <ele>9.853517</ele>
        <time>2020-07-16T02:12:16.102Z</time>
      </trkpt>
      <trkpt lat="61.46979" lon="5.82164">
        <ele>21.341312</ele>
        <time>2020-07-16T02:13:29.824Z</time>
      </trkpt>
      <trkpt lat="61.47006" lon="5.82109">
        <ele>24.27043</ele>
        <time>2020-07-16T02:13:48.210Z</time>
      </trkpt>
      <trkpt lat="61.47021" lon="5.82071">
        <ele>26.090726</ele>
        <time>2020-07-16T02:13:59.846Z</time>
      </trkpt>
      <trkpt lat="61.47032" lon="5.82033">
        <ele>27.767963</ele>
        <time>2020-07-16T02:14:08.423Z</time>
      </trkpt>
      <trkpt lat="61.47041" lon="5.81992">
        <ele>29.450642</ele>
        <time>2020-07-16T02:14:16.954Z</time>
      </trkpt>
      <trkpt lat="61.47045" lon="5.81969">
        <ele>30.375664</ele>
        <time>2020-07-16T02:14:20.898Z</time>
      </trkpt>
      <trkpt lat="61.47052" lon="5.81915">
        <ele>30.805548</ele>
        <time>2020-07-16T02:14:29.780Z</time>
      </trkpt>
      <trkpt lat="61.47062" lon="5.81809">
        <ele>30.993889</ele>
        <time>2020-07-16T02:14:42.728Z</time>
      </trkpt>
      <trkpt lat="61.47068" lon="5.81759">
        <ele>31.083737</ele>
        <time>2020-07-16T02:14:47.278Z</time>
      </trkpt>
      <trkpt lat="61.47075" lon="5.81718">
        <ele>31.159795</ele>
        <time>2020-07-16T02:14:49.942Z</time>
      </trkpt>
      <trkpt lat="61.47115" lon="5.81593">
        <ele>31.833106</ele>
        <time>2020-07-16T02:14:59.741Z</time>
      </trkpt>
      <trkpt lat="61.4715" lon="5.81537">
        <ele>33.65502</ele>
        <time>2020-07-16T02:15:07.715Z</time>
      </trkpt>
      <trkpt lat="61.47182" lon="5.81501">
        <ele>35.119234</ele>
        <time>2020-07-16T02:15:16.646Z</time>
      </trkpt>
      <trkpt lat="61.47189" lon="5.81492">
        <ele>35.447835</ele>
        <time>2020-07-16T02:15:18.930Z</time>
      </trkpt>
      <trkpt lat="61.47218" lon="5.81455">
        <ele>36.86659</ele>
        <time>2020-07-16T02:15:33.288Z</time>
      </trkpt>
      <trkpt lat="61.47255" lon="5.81397">
        <ele>38.734861</ele>
        <time>2020-07-16T02:15:56.412Z</time>
      </trkpt>
      <trkpt lat="61.47265" lon="5.81375">
        <ele>39.626114</ele>
        <time>2020-07-16T02:16:04.968Z</time>
      </trkpt>
      <trkpt lat="61.47279" lon="5.81335">
        <ele>41.062345</ele>
        <time>2020-07-16T02:16:16.695Z</time>
      </trkpt>
      <trkpt lat="61.47291" lon="5.81294">
        <ele>42.435347</ele>
        <time>2020-07-16T02:16:27.739Z</time>
      </trkpt>
      <trkpt lat="61.47309" lon="5.81225">
        <ele>44.698681</ele>
        <time>2020-07-16T02:16:47.377Z</time>
      </trkpt>
      <trkpt lat="61.47317" lon="5.8119">
        <ele>45.830048</ele>
        <time>2020-07-16T02:16:56.908Z</time>
      </trkpt>
      <trkpt lat="61.47362" lon="5.81061">
        <ele>47.99523</ele>
        <time>2020-07-16T02:17:15.859Z</time>
      </trkpt>
      <trkpt lat="61.47407" lon="5.80996">
        <ele>41.494521</ele>
        <time>2020-07-16T02:17:22.010Z</time>
      </trkpt>
      <trkpt lat="61.47458" lon="5.80952">
        <ele>34.957381</ele>
        <time>2020-07-16T02:17:27.985Z</time>
      </trkpt>
      <trkpt lat="61.47509" lon="5.80924">
        <ele>28.601717</ele>
        <time>2020-07-16T02:17:33.715Z</time>
      </trkpt>
      <trkpt lat="61.47556" lon="5.80897">
        <ele>22.893425</ele>
        <time>2020-07-16T02:17:38.779Z</time>
      </trkpt>
      <trkpt lat="61.4759" lon="5.80867">
        <ele>18.651987</ele>
        <time>2020-07-16T02:17:42.567Z</time>
      </trkpt>
      <trkpt lat="61.47698" lon="5.80728">
        <ele>6.478252</ele>
        <time>2020-07-16T02:17:56.724Z</time>
      </trkpt>
      <trkpt lat="61.47731" lon="5.8071">
        <ele>5.607436</ele>
        <time>2020-07-16T02:18:01.332Z</time>
      </trkpt>
      <trkpt lat="61.47769" lon="5.8071">
        <ele>4.646422</ele>
        <time>2020-07-16T02:18:06.705Z</time>
      </trkpt>
      <trkpt lat="61.47839" lon="5.80745">
        <ele>2.808874</ele>
        <time>2020-07-16T02:18:18.550Z</time>
      </trkpt>
      <trkpt lat="61.47889" lon="5.80797">
        <ele>3.547878</ele>
        <time>2020-07-16T02:18:30.797Z</time>
      </trkpt>
      <trkpt lat="61.47927" lon="5.80884">
        <ele>4.60509</ele>
        <time>2020-07-16T02:18:45.556Z</time>
      </trkpt>
      <trkpt lat="61.4795" lon="5.8097">
        <ele>5.476343</ele>
        <time>2020-07-16T02:18:58.944Z</time>
      </trkpt>
      <trkpt lat="61.48017" lon="5.81233">
        <ele>6.120215</ele>
        <time>2020-07-16T02:19:29.731Z</time>
      </trkpt>
      <trkpt lat="61.48019" lon="5.8124">
        <ele>6.12397</ele>
        <time>2020-07-16T02:19:30.118Z</time>
      </trkpt>
      <trkpt lat="61.48047" lon="5.8131">
        <ele>6.169121</ele>
        <time>2020-07-16T02:19:37.025Z</time>
      </trkpt>
      <trkpt lat="61.48083" lon="5.81361">
        <ele>5.566778</ele>
        <time>2020-07-16T02:19:43.228Z</time>
      </trkpt>
      <trkpt lat="61.48128" lon="5.81394">
        <ele>4.419152</ele>
        <time>2020-07-16T02:19:49.608Z</time>
      </trkpt>
      <trkpt lat="61.48174" lon="5.814">
        <ele>3.313276</ele>
        <time>2020-07-16T02:19:55.488Z</time>
      </trkpt>
      <trkpt lat="61.48226" lon="5.81391">
        <ele>2.055425</ele>
        <time>2020-07-16T02:20:02.716Z</time>
      </trkpt>
      <trkpt lat="61.48259" lon="5.81384">
        <ele>1.703108</ele>
        <time>2020-07-16T02:20:07.601Z</time>
      </trkpt>
      <trkpt lat="61.48322" lon="5.81397">
        <ele>1.330225</ele>
        <time>2020-07-16T02:20:17.185Z</time>
      </trkpt>
      <trkpt lat="61.48402" lon="5.81457">
        <ele>0.830398</ele>
        <time>2020-07-16T02:20:31.983Z</time>
      </trkpt>
      <trkpt lat="61.48475" lon="5.8152">
        <ele>1.973804</ele>
        <time>2020-07-16T02:20:49.565Z</time>
      </trkpt>
      <trkpt lat="61.4851" lon="5.81549">
        <ele>2.583162</ele>
        <time>2020-07-16T02:20:59.003Z</time>
      </trkpt>
      <trkpt lat="61.48636" lon="5.81654">
        <ele>4.261376</ele>
        <time>2020-07-16T02:21:32.018Z</time>
      </trkpt>
      <trkpt lat="61.48668" lon="5.8168">
        <ele>4.546234</ele>
        <time>2020-07-16T02:21:39.340Z</time>
      </trkpt>
      <trkpt lat="61.4869" lon="5.81692">
        <ele>4.727146</ele>
        <time>2020-07-16T02:21:43.623Z</time>
      </trkpt>
      <trkpt lat="61.48716" lon="5.817">
        <ele>4.948163</ele>
        <time>2020-07-16T02:21:48.685Z</time>
      </trkpt>
      <trkpt lat="61.48729" lon="5.81702">
        <ele>5.054867</ele>
        <time>2020-07-16T02:21:50.844Z</time>
      </trkpt>
      <trkpt lat="61.4875" lon="5.81703">
        <ele>5.16681</ele>
        <time>2020-07-16T02:21:54.261Z</time>
      </trkpt>
      <trkpt lat="61.48769" lon="5.817">
        <ele>4.956313</ele>
        <time>2020-07-16T02:21:57.289Z</time>
      </trkpt>
      <trkpt lat="61.48836" lon="5.8167">
        <ele>4.227271</ele>
        <time>2020-07-16T02:22:07.116Z</time>
      </trkpt>
      <trkpt lat="61.48906" lon="5.8159">
        <ele>3.374111</ele>
        <time>2020-07-16T02:22:18.986Z</time>
      </trkpt>
      <trkpt lat="61.48941" lon="5.81523">
        <ele>3.523126</ele>
        <time>2020-07-16T02:22:27.388Z</time>
      </trkpt>
      <trkpt lat="61.48966" lon="5.8146">
        <ele>3.784298</ele>
        <time>2020-07-16T02:22:34.915Z</time>
      </trkpt>
      <trkpt lat="61.49034" lon="5.81264">
        <ele>4.566996</ele>
        <time>2020-07-16T02:23:00.492Z</time>
      </trkpt>
      <trkpt lat="61.49095" lon="5.81084">
        <ele>5.405286</ele>
        <time>2020-07-16T02:23:22.862Z</time>
      </trkpt>
      <trkpt lat="61.4911" lon="5.81038">
        <ele>5.618151</ele>
        <time>2020-07-16T02:23:28.035Z</time>
      </trkpt>
      <trkpt lat="61.4912" lon="5.80999">
        <ele>5.786272</ele>
        <time>2020-07-16T02:23:32.125Z</time>
      </trkpt>
      <trkpt lat="61.49133" lon="5.809">
        <ele>5.722403</ele>
        <time>2020-07-16T02:23:40.918Z</time>
      </trkpt>
      <trkpt lat="61.49148" lon="5.80637">
        <ele>5.103349</ele>
        <time>2020-07-16T02:24:01.100Z</time>
      </trkpt>
      <trkpt lat="61.49162" lon="5.80569">
        <ele>4.956197</ele>
        <time>2020-07-16T02:24:06.799Z</time>
      </trkpt>
      <trkpt lat="61.49185" lon="5.80508">
        <ele>4.829915</ele>
        <time>2020-07-16T02:24:12.814Z</time>
      </trkpt>
      <trkpt lat="61.49199" lon="5.80483">
        <ele>4.76681</ele>
        <time>2020-07-16T02:24:16.048Z</time>
      </trkpt>
      <trkpt lat="61.49217" lon="5.8046">
        <ele>4.695498</ele>
        <time>2020-07-16T02:24:19.374Z</time>
      </trkpt>
      <trkpt lat="61.49287" lon="5.80403">
        <ele>4.440518</ele>
        <time>2020-07-16T02:24:32.309Z</time>
      </trkpt>
      <trkpt lat="61.49334" lon="5.80345">
        <ele>4.746044</ele>
        <time>2020-07-16T02:24:42.325Z</time>
      </trkpt>
      <trkpt lat="61.49407" lon="5.80175">
        <ele>5.605053</ele>
        <time>2020-07-16T02:25:04.090Z</time>
      </trkpt>
      <trkpt lat="61.49493" lon="5.80013">
        <ele>8.143776</ele>
        <time>2020-07-16T02:25:32.412Z</time>
      </trkpt>
      <trkpt lat="61.49574" lon="5.79776">
        <ele>12.318196</ele>
        <time>2020-07-16T02:26:11.574Z</time>
      </trkpt>
      <trkpt lat="61.49593" lon="5.79659">
        <ele>14.53853</ele>
        <time>2020-07-16T02:26:31.152Z</time>
      </trkpt>
      <trkpt lat="61.49599" lon="5.79559">
        <ele>16.342824</ele>
        <time>2020-07-16T02:26:46.278Z</time>
      </trkpt>
      <trkpt lat="61.496" lon="5.7953">
        <ele>16.870278</ele>
        <time>2020-07-16T02:26:50.989Z</time>
      </trkpt>
      <trkpt lat="61.49599" lon="5.795">
        <ele>17.260995</ele>
        <time>2020-07-16T02:26:55.404Z</time>
      </trkpt>
      <trkpt lat="61.49595" lon="5.79431">
        <ele>16.97916</ele>
        <time>2020-07-16T02:27:03.219Z</time>
      </trkpt>
      <trkpt lat="61.49588" lon="5.79354">
        <ele>16.661676</ele>
        <time>2020-07-16T02:27:10.228Z</time>
      </trkpt>
      <trkpt lat="61.49573" lon="5.79184">
        <ele>15.964824</ele>
        <time>2020-07-16T02:27:22.240Z</time>
      </trkpt>
      <trkpt lat="61.49566" lon="5.79116">
        <ele>15.295776</ele>
        <time>2020-07-16T02:27:26.289Z</time>
      </trkpt>
      <trkpt lat="61.49563" lon="5.78975">
        <ele>11.980164</ele>
        <time>2020-07-16T02:27:34.296Z</time>
      </trkpt>
      <trkpt lat="61.49576" lon="5.78902">
        <ele>10.165352</ele>
        <time>2020-07-16T02:27:38.586Z</time>
      </trkpt>
      <trkpt lat="61.49586" lon="5.78876">
        <ele>9.392196</ele>
        <time>2020-07-16T02:27:40.431Z</time>
      </trkpt>
      <trkpt lat="61.49611" lon="5.78829">
        <ele>7.72063</ele>
        <time>2020-07-16T02:27:44.494Z</time>
      </trkpt>
      <trkpt lat="61.49697" lon="5.78741">
        <ele>6.887354</ele>
        <time>2020-07-16T02:27:58.112Z</time>
      </trkpt>
      <trkpt lat="61.49777" lon="5.78599">
        <ele>6.932874</ele>
        <time>2020-07-16T02:28:22.023Z</time>
      </trkpt>
      <trkpt lat="61.49853" lon="5.78523">
        <ele>8.997945</ele>
        <time>2020-07-16T02:28:46.201Z</time>
      </trkpt>
      <trkpt lat="61.49875" lon="5.78474">
        <ele>9.792866</ele>
        <time>2020-07-16T02:28:55.183Z</time>
      </trkpt>
      <trkpt lat="61.49883" lon="5.78438">
        <ele>10.246432</ele>
        <time>2020-07-16T02:29:00.060Z</time>
      </trkpt>
      <trkpt lat="61.49893" lon="5.7835">
        <ele>11.20222</ele>
        <time>2020-07-16T02:29:10.505Z</time>
      </trkpt>
      <trkpt lat="61.49894" lon="5.78197">
        <ele>10.419373</ele>
        <time>2020-07-16T02:29:24.249Z</time>
      </trkpt>
      <trkpt lat="61.49887" lon="5.78098">
        <ele>9.909347</ele>
        <time>2020-07-16T02:29:31.261Z</time>
      </trkpt>
      <trkpt lat="61.49861" lon="5.77941">
        <ele>8.51703</ele>
        <time>2020-07-16T02:29:41.769Z</time>
      </trkpt>
      <trkpt lat="61.49851" lon="5.77834">
        <ele>6.762041</ele>
        <time>2020-07-16T02:29:48.226Z</time>
      </trkpt>
      <trkpt lat="61.49853" lon="5.77749">
        <ele>5.384518</ele>
        <time>2020-07-16T02:29:53.359Z</time>
      </trkpt>
      <trkpt lat="61.49863" lon="5.77656">
        <ele>3.833453</ele>
        <time>2020-07-16T02:29:59.354Z</time>
      </trkpt>
      <trkpt lat="61.49874" lon="5.77604">
        <ele>3.125539</ele>
        <time>2020-07-16T02:30:02.892Z</time>
      </trkpt>
      <trkpt lat="61.49937" lon="5.77334">
        <ele>1.492902</ele>
        <time>2020-07-16T02:30:24.323Z</time>
      </trkpt>
      <trkpt lat="61.49946" lon="5.773">
        <ele>1.280557</ele>
        <time>2020-07-16T02:30:28.095Z</time>
      </trkpt>
      <trkpt lat="61.49977" lon="5.77235">
        <ele>1.553008</ele>
        <time>2020-07-16T02:30:37.121Z</time>
      </trkpt>
      <trkpt lat="61.50053" lon="5.7714">
        <ele>2.492299</ele>
        <time>2020-07-16T02:30:56.236Z</time>
      </trkpt>
      <trkpt lat="61.50088" lon="5.77082">
        <ele>2.976564</ele>
        <time>2020-07-16T02:31:06.938Z</time>
      </trkpt>
      <trkpt lat="61.50127" lon="5.76988">
        <ele>3.325355</ele>
        <time>2020-07-16T02:31:19.565Z</time>
      </trkpt>
      <trkpt lat="61.50144" lon="5.76929">
        <ele>3.481726</ele>
        <time>2020-07-16T02:31:26.294Z</time>
      </trkpt>
      <trkpt lat="61.50155" lon="5.76884">
        <ele>3.597226</ele>
        <time>2020-07-16T02:31:31.370Z</time>
      </trkpt>
      <trkpt lat="61.50164" lon="5.76844">
        <ele>3.696489</ele>
        <time>2020-07-16T02:31:35.161Z</time>
      </trkpt>
      <trkpt lat="61.5018" lon="5.76737">
        <ele>3.949607</ele>
        <time>2020-07-16T02:31:44.579Z</time>
      </trkpt>
      <trkpt lat="61.50197" lon="5.76501">
        <ele>3.039533</ele>
        <time>2020-07-16T02:32:02.152Z</time>
      </trkpt>
      <trkpt lat="61.5022" lon="5.76372">
        <ele>2.506569</ele>
        <time>2020-07-16T02:32:12.208Z</time>
      </trkpt>
      <trkpt lat="61.5033" lon="5.7603">
        <ele>2.320268</ele>
        <time>2020-07-16T02:32:46.384Z</time>
      </trkpt>
      <trkpt lat="61.50359" lon="5.75909">
        <ele>3.041282</ele>
        <time>2020-07-16T02:32:59.470Z</time>
      </trkpt>
      <trkpt lat="61.50381" lon="5.75639">
        <ele>4.868014</ele>
        <time>2020-07-16T02:33:29.647Z</time>
      </trkpt>
      <trkpt lat="61.50423" lon="5.75294">
        <ele>8.761232</ele>
        <time>2020-07-16T02:34:13.400Z</time>
      </trkpt>
      <trkpt lat="61.50432" lon="5.75186">
        <ele>9.970534</ele>
        <time>2020-07-16T02:34:26.915Z</time>
      </trkpt>
      <trkpt lat="61.50433" lon="5.75104">
        <ele>10.864655</ele>
        <time>2020-07-16T02:34:36.701Z</time>
      </trkpt>
      <trkpt lat="61.50421" lon="5.74746">
        <ele>14.093421</ele>
        <time>2020-07-16T02:35:18.792Z</time>
      </trkpt>
      <trkpt lat="61.50428" lon="5.74528">
        <ele>15.088727</ele>
        <time>2020-07-16T02:35:41.338Z</time>
      </trkpt>
      <trkpt lat="61.50426" lon="5.74445">
        <ele>14.761418</ele>
        <time>2020-07-16T02:35:48.452Z</time>
      </trkpt>
      <trkpt lat="61.50404" lon="5.74175">
        <ele>13.391305</ele>
        <time>2020-07-16T02:36:07.586Z</time>
      </trkpt>
      <trkpt lat="61.50375" lon="5.73933">
        <ele>10.647622</ele>
        <time>2020-07-16T02:36:23.478Z</time>
      </trkpt>
      <trkpt lat="61.50377" lon="5.73713">
        <ele>9.254136</ele>
        <time>2020-07-16T02:36:38.524Z</time>
      </trkpt>
      <trkpt lat="61.50364" lon="5.73494">
        <ele>8.534443</ele>
        <time>2020-07-16T02:36:56.610Z</time>
      </trkpt>
      <trkpt lat="61.50358" lon="5.73177">
        <ele>8.808998</ele>
        <time>2020-07-16T02:37:27.187Z</time>
      </trkpt>
      <trkpt lat="61.50353" lon="5.73103">
        <ele>8.89809</ele>
        <time>2020-07-16T02:37:33.340Z</time>
      </trkpt>
      <trkpt lat="61.50348" lon="5.73028">
        <ele>8.390058</ele>
        <time>2020-07-16T02:37:39.262Z</time>
      </trkpt>
      <trkpt lat="61.50321" lon="5.72599">
        <ele>4.668993</ele>
        <time>2020-07-16T02:38:08.233Z</time>
      </trkpt>
      <trkpt lat="61.50328" lon="5.72489">
        <ele>3.488941</ele>
        <time>2020-07-16T02:38:15.353Z</time>
      </trkpt>
      <trkpt lat="61.5035" lon="5.72384">
        <ele>2.284954</ele>
        <time>2020-07-16T02:38:23.030Z</time>
      </trkpt>
      <trkpt lat="61.50356" lon="5.7236">
        <ele>1.999516</ele>
        <time>2020-07-16T02:38:24.747Z</time>
      </trkpt>
      <trkpt lat="61.50364" lon="5.72338">
        <ele>1.852543</ele>
        <time>2020-07-16T02:38:26.758Z</time>
      </trkpt>
      <trkpt lat="61.50418" lon="5.72229">
        <ele>1.118382</ele>
        <time>2020-07-16T02:38:37.850Z</time>
      </trkpt>
      <trkpt lat="61.50522" lon="5.72089">
        <ele>0.185652</ele>
        <time>2020-07-16T02:38:58.309Z</time>
      </trkpt>
      <trkpt lat="61.50526" lon="5.72083">
        <ele>0.183387</ele>
        <time>2020-07-16T02:38:59.202Z</time>
      </trkpt>
      <trkpt lat="61.50534" lon="5.72073">
        <ele>0.17915</ele>
        <time>2020-07-16T02:39:00.866Z</time>
      </trkpt>
      <trkpt lat="61.50639" lon="5.7193">
        <ele>0.121799</ele>
        <time>2020-07-16T02:39:23.497Z</time>
      </trkpt>
      <trkpt lat="61.50642" lon="5.71926">
        <ele>0.120225</ele>
        <time>2020-07-16T02:39:24.121Z</time>
      </trkpt>
      <trkpt lat="61.50652" lon="5.71914">
        <ele>0.131616</ele>
        <time>2020-07-16T02:39:26.263Z</time>
      </trkpt>
      <trkpt lat="61.50676" lon="5.7189">
        <ele>0.196856</ele>
        <time>2020-07-16T02:39:31.051Z</time>
      </trkpt>
      <trkpt lat="61.50702" lon="5.71878">
        <ele>0.263011</ele>
        <time>2020-07-16T02:39:35.971Z</time>
      </trkpt>
      <trkpt lat="61.50742" lon="5.71881">
        <ele>0.362156</ele>
        <time>2020-07-16T02:39:43.404Z</time>
      </trkpt>
      <trkpt lat="61.50782" lon="5.71899">
        <ele>0.464866</ele>
        <time>2020-07-16T02:39:51.233Z</time>
      </trkpt>
      <trkpt lat="61.50837" lon="5.71923">
        <ele>0.6201</ele>
        <time>2020-07-16T02:40:01.962Z</time>
      </trkpt>
      <trkpt lat="61.50853" lon="5.71931">
        <ele>0.676457</ele>
        <time>2020-07-16T02:40:05.092Z</time>
      </trkpt>
      <trkpt lat="61.50883" lon="5.71944">
        <ele>0.778697</ele>
        <time>2020-07-16T02:40:10.777Z</time>
      </trkpt>
      <trkpt lat="61.50908" lon="5.71954">
        <ele>0.865936</ele>
        <time>2020-07-16T02:40:15.669Z</time>
      </trkpt>
      <trkpt lat="61.50959" lon="5.71966">
        <ele>1.043397</ele>
        <time>2020-07-16T02:40:25.480Z</time>
      </trkpt>
      <trkpt lat="61.51062" lon="5.71961">
        <ele>1.897132</ele>
        <time>2020-07-16T02:40:44.608Z</time>
      </trkpt>
      <trkpt lat="61.51105" lon="5.71956">
        <ele>2.391097</ele>
        <time>2020-07-16T02:40:53.368Z</time>
      </trkpt>
      <trkpt lat="61.51112" lon="5.71955">
        <ele>2.4783</ele>
        <time>2020-07-16T02:40:55.015Z</time>
      </trkpt>
      <trkpt lat="61.51176" lon="5.71951">
        <ele>3.204585</ele>
        <time>2020-07-16T02:41:09.313Z</time>
      </trkpt>
      <trkpt lat="61.51193" lon="5.7195">
        <ele>3.795251</ele>
        <time>2020-07-16T02:41:13.491Z</time>
      </trkpt>
      <trkpt lat="61.51374" lon="5.71937">
        <ele>11.600666</ele>
        <time>2020-07-16T02:42:09.296Z</time>
      </trkpt>
      <trkpt lat="61.51438" lon="5.71909">
        <ele>16.575541</ele>
        <time>2020-07-16T02:42:37.985Z</time>
      </trkpt>
      <trkpt lat="61.51465" lon="5.71887">
        <ele>18.806561</ele>
        <time>2020-07-16T02:42:52.149Z</time>
      </trkpt>
      <trkpt lat="61.51471" lon="5.71882">
        <ele>19.314007</ele>
        <time>2020-07-16T02:42:54.651Z</time>
      </trkpt>
      <trkpt lat="61.51484" lon="5.71871">
        <ele>20.323096</ele>
        <time>2020-07-16T02:43:00.510Z</time>
      </trkpt>
      <trkpt lat="61.51488" lon="5.71868">
        <ele>20.676793</ele>
        <time>2020-07-16T02:43:02.690Z</time>
      </trkpt>
      <trkpt lat="61.51497" lon="5.7186">
        <ele>21.449051</ele>
        <time>2020-07-16T02:43:08.246Z</time>
      </trkpt>
      <trkpt lat="61.51535" lon="5.71832">
        <ele>24.297353</ele>
        <time>2020-07-16T02:43:25.801Z</time>
      </trkpt>
      <trkpt lat="61.51546" lon="5.71827">
        <ele>24.646415</ele>
        <time>2020-07-16T02:43:30.673Z</time>
      </trkpt>
      <trkpt lat="61.51554" lon="5.71824">
        <ele>24.895991</ele>
        <time>2020-07-16T02:43:33.886Z</time>
      </trkpt>
      <trkpt lat="61.51562" lon="5.71821">
        <ele>25.171796</ele>
        <time>2020-07-16T02:43:38.580Z</time>
      </trkpt>
      <trkpt lat="61.51586" lon="5.71817">
        <ele>25.938683</ele>
        <time>2020-07-16T02:43:47.306Z</time>
      </trkpt>
      <trkpt lat="61.51626" lon="5.71826">
        <ele>27.218789</ele>
        <time>2020-07-16T02:43:59.621Z</time>
      </trkpt>
      <trkpt lat="61.51664" lon="5.71852">
        <ele>28.471701</ele>
        <time>2020-07-16T02:44:08.782Z</time>
      </trkpt>
      <trkpt lat="61.51688" lon="5.71879">
        <ele>29.321599</ele>
        <time>2020-07-16T02:44:14.148Z</time>
      </trkpt>
      <trkpt lat="61.51695" lon="5.7189">
        <ele>29.617185</ele>
        <time>2020-07-16T02:44:15.475Z</time>
      </trkpt>
      <trkpt lat="61.51691" lon="5.7192">
        <ele>29.589267</ele>
        <time>2020-07-16T02:44:17.436Z</time>
      </trkpt>
      <trkpt lat="61.51701" lon="5.71929">
        <ele>29.195174</ele>
        <time>2020-07-16T02:44:19.052Z</time>
      </trkpt>
      <trkpt lat="61.51706" lon="5.71933">
        <ele>29.011897</ele>
        <time>2020-07-16T02:44:19.831Z</time>
      </trkpt>
      <trkpt lat="61.51711" lon="5.71939">
        <ele>28.776933</ele>
        <time>2020-07-16T02:44:20.517Z</time>
      </trkpt>
      <trkpt lat="61.51798" lon="5.7209">
        <ele>24.557668</ele>
        <time>2020-07-16T02:44:34.270Z</time>
      </trkpt>
      <trkpt lat="61.51859" lon="5.72226">
        <ele>22.235195</ele>
        <time>2020-07-16T02:44:45.780Z</time>
      </trkpt>
      <trkpt lat="61.51916" lon="5.72377">
        <ele>20.606466</ele>
        <time>2020-07-16T02:44:59.963Z</time>
      </trkpt>
      <trkpt lat="61.51921" lon="5.72394">
        <ele>20.436739</ele>
        <time>2020-07-16T02:45:02.077Z</time>
      </trkpt>
      <trkpt lat="61.51927" lon="5.72414">
        <ele>20.246175</ele>
        <time>2020-07-16T02:45:03.395Z</time>
      </trkpt>
      <trkpt lat="61.51935" lon="5.72439">
        <ele>19.983493</ele>
        <time>2020-07-16T02:45:06.174Z</time>
      </trkpt>
      <trkpt lat="61.51976" lon="5.72516">
        <ele>19.202329</ele>
        <time>2020-07-16T02:45:14.829Z</time>
      </trkpt>
      <trkpt lat="61.51987" lon="5.72554">
        <ele>18.910266</ele>
        <time>2020-07-16T02:45:18.447Z</time>
      </trkpt>
      <trkpt lat="61.51989" lon="5.72568">
        <ele>18.809647</ele>
        <time>2020-07-16T02:45:20.168Z</time>
      </trkpt>
      <trkpt lat="61.5198" lon="5.72576">
        <ele>18.670543</ele>
        <time>2020-07-16T02:45:21.807Z</time>
      </trkpt>
      <trkpt lat="61.52049" lon="5.73038">
        <ele>15.451604</ele>
        <time>2020-07-16T02:45:54.987Z</time>
      </trkpt>
      <trkpt lat="61.52067" lon="5.73153">
        <ele>15.05348</ele>
        <time>2020-07-16T02:46:04.768Z</time>
      </trkpt>
      <trkpt lat="61.52073" lon="5.73184">
        <ele>15.152265</ele>
        <time>2020-07-16T02:46:07.390Z</time>
      </trkpt>
      <trkpt lat="61.52081" lon="5.73217">
        <ele>15.261246</ele>
        <time>2020-07-16T02:46:10.945Z</time>
      </trkpt>
      <trkpt lat="61.52089" lon="5.73246">
        <ele>15.358355</ele>
        <time>2020-07-16T02:46:13.675Z</time>
      </trkpt>
      <trkpt lat="61.52103" lon="5.73294">
        <ele>15.528049</ele>
        <time>2020-07-16T02:46:19.326Z</time>
      </trkpt>
      <trkpt lat="61.52116" lon="5.73331">
        <ele>15.660087</ele>
        <time>2020-07-16T02:46:23.830Z</time>
      </trkpt>
      <trkpt lat="61.52155" lon="5.73422">
        <ele>16.024089</ele>
        <time>2020-07-16T02:46:36.580Z</time>
      </trkpt>
      <trkpt lat="61.52175" lon="5.7346">
        <ele>16.370635</ele>
        <time>2020-07-16T02:46:43.009Z</time>
      </trkpt>
      <trkpt lat="61.52304" lon="5.73704">
        <ele>18.561517</ele>
        <time>2020-07-16T02:47:21.522Z</time>
      </trkpt>
      <trkpt lat="61.5234" lon="5.73766">
        <ele>18.749668</ele>
        <time>2020-07-16T02:47:31.572Z</time>
      </trkpt>
      <trkpt lat="61.52449" lon="5.73946">
        <ele>19.128157</ele>
        <time>2020-07-16T02:47:56.544Z</time>
      </trkpt>
      <trkpt lat="61.52533" lon="5.74083">
        <ele>18.76656</ele>
        <time>2020-07-16T02:48:13.543Z</time>
      </trkpt>
      <trkpt lat="61.52559" lon="5.74136">
        <ele>18.644603</ele>
        <time>2020-07-16T02:48:19.724Z</time>
      </trkpt>
      <trkpt lat="61.52582" lon="5.74188">
        <ele>18.817914</ele>
        <time>2020-07-16T02:48:25.786Z</time>
      </trkpt>
      <trkpt lat="61.52616" lon="5.74268">
        <ele>19.3697</ele>
        <time>2020-07-16T02:48:35.740Z</time>
      </trkpt>
      <trkpt lat="61.52649" lon="5.74339">
        <ele>19.880357</ele>
        <time>2020-07-16T02:48:46.149Z</time>
      </trkpt>
      <trkpt lat="61.52685" lon="5.74398">
        <ele>20.377111</ele>
        <time>2020-07-16T02:48:56.900Z</time>
      </trkpt>
      <trkpt lat="61.52802" lon="5.74506">
        <ele>21.985386</ele>
        <time>2020-07-16T02:49:27.754Z</time>
      </trkpt>
      <trkpt lat="61.52857" lon="5.74579">
        <ele>22.827296</ele>
        <time>2020-07-16T02:49:41.353Z</time>
      </trkpt>
      <trkpt lat="61.52997" lon="5.74759">
        <ele>21.434087</ele>
        <time>2020-07-16T02:50:06.899Z</time>
      </trkpt>
      <trkpt lat="61.53047" lon="5.74823">
        <ele>20.779355</ele>
        <time>2020-07-16T02:50:15.295Z</time>
      </trkpt>
      <trkpt lat="61.53065" lon="5.74842">
        <ele>20.530758</ele>
        <time>2020-07-16T02:50:18.114Z</time>
      </trkpt>
      <trkpt lat="61.53121" lon="5.74897">
        <ele>19.762861</ele>
        <time>2020-07-16T02:50:27.239Z</time>
      </trkpt>
      <trkpt lat="61.53244" lon="5.75015">
        <ele>18.928478</ele>
        <time>2020-07-16T02:50:49.125Z</time>
      </trkpt>
      <trkpt lat="61.5328" lon="5.75063">
        <ele>18.866576</ele>
        <time>2020-07-16T02:50:57.016Z</time>
      </trkpt>
      <trkpt lat="61.53309" lon="5.75109">
        <ele>18.814232</ele>
        <time>2020-07-16T02:51:03.703Z</time>
      </trkpt>
      <trkpt lat="61.53312" lon="5.75114">
        <ele>18.80919</ele>
        <time>2020-07-16T02:51:04.316Z</time>
      </trkpt>
      <trkpt lat="61.53323" lon="5.75136">
        <ele>18.786831</ele>
        <time>2020-07-16T02:51:07.207Z</time>
      </trkpt>
      <trkpt lat="61.53335" lon="5.75167">
        <ele>18.894705</ele>
        <time>2020-07-16T02:51:10.722Z</time>
      </trkpt>
      <trkpt lat="61.53365" lon="5.75254">
        <ele>19.292357</ele>
        <time>2020-07-16T02:51:20.590Z</time>
      </trkpt>
      <trkpt lat="61.53371" lon="5.75279">
        <ele>19.395811</ele>
        <time>2020-07-16T02:51:23.233Z</time>
      </trkpt>
      <trkpt lat="61.53402" lon="5.75387">
        <ele>19.862295</ele>
        <time>2020-07-16T02:51:35.472Z</time>
      </trkpt>
      <trkpt lat="61.53414" lon="5.75426">
        <ele>20.034622</ele>
        <time>2020-07-16T02:51:40.161Z</time>
      </trkpt>
      <trkpt lat="61.53448" lon="5.75509">
        <ele>20.906348</ele>
        <time>2020-07-16T02:51:52.018Z</time>
      </trkpt>
      <trkpt lat="61.53479" lon="5.75555">
        <ele>21.718314</ele>
        <time>2020-07-16T02:52:01.400Z</time>
      </trkpt>
      <trkpt lat="61.53509" lon="5.75581">
        <ele>22.404541</ele>
        <time>2020-07-16T02:52:09.481Z</time>
      </trkpt>
      <trkpt lat="61.53545" lon="5.75598">
        <ele>23.194641</ele>
        <time>2020-07-16T02:52:18.983Z</time>
      </trkpt>
      <trkpt lat="61.53594" lon="5.75613">
        <ele>24.261683</ele>
        <time>2020-07-16T02:52:31.849Z</time>
      </trkpt>
      <trkpt lat="61.53601" lon="5.75616">
        <ele>24.424441</ele>
        <time>2020-07-16T02:52:33.874Z</time>
      </trkpt>
      <trkpt lat="61.53684" lon="5.75643">
        <ele>26.325219</ele>
        <time>2020-07-16T02:52:55.394Z</time>
      </trkpt>
      <trkpt lat="61.53699" lon="5.7565">
        <ele>26.688042</ele>
        <time>2020-07-16T02:52:59.377Z</time>
      </trkpt>
      <trkpt lat="61.53714" lon="5.75659">
        <ele>27.022287</ele>
        <time>2020-07-16T02:53:03.221Z</time>
      </trkpt>
      <trkpt lat="61.53731" lon="5.75672">
        <ele>27.438707</ele>
        <time>2020-07-16T02:53:07.560Z</time>
      </trkpt>
      <trkpt lat="61.53739" lon="5.75679">
        <ele>27.642683</ele>
        <time>2020-07-16T02:53:09.724Z</time>
      </trkpt>
      <trkpt lat="61.5376" lon="5.75699">
        <ele>28.1637</ele>
        <time>2020-07-16T02:53:14.875Z</time>
      </trkpt>
      <trkpt lat="61.53776" lon="5.75717">
        <ele>28.639656</ele>
        <time>2020-07-16T02:53:19.212Z</time>
      </trkpt>
      <trkpt lat="61.53791" lon="5.75737">
        <ele>29.082568</ele>
        <time>2020-07-16T02:53:23.234Z</time>
      </trkpt>
      <trkpt lat="61.53834" lon="5.75824">
        <ele>30.605244</ele>
        <time>2020-07-16T02:53:38.255Z</time>
      </trkpt>
      <trkpt lat="61.5386" lon="5.75906">
        <ele>31.79875</ele>
        <time>2020-07-16T02:53:50.569Z</time>
      </trkpt>
      <trkpt lat="61.53867" lon="5.75937">
        <ele>32.221692</ele>
        <time>2020-07-16T02:53:55.483Z</time>
      </trkpt>
      <trkpt lat="61.53872" lon="5.75964">
        <ele>32.574597</ele>
        <time>2020-07-16T02:53:59.142Z</time>
      </trkpt>
      <trkpt lat="61.53882" lon="5.76027">
        <ele>33.794737</ele>
        <time>2020-07-16T02:54:08.549Z</time>
      </trkpt>
      <trkpt lat="61.53886" lon="5.76059">
        <ele>34.433145</ele>
        <time>2020-07-16T02:54:13.039Z</time>
      </trkpt>
      <trkpt lat="61.53888" lon="5.76082">
        <ele>34.884232</ele>
        <time>2020-07-16T02:54:17.127Z</time>
      </trkpt>
      <trkpt lat="61.53892" lon="5.76168">
        <ele>36.546056</ele>
        <time>2020-07-16T02:54:29.935Z</time>
      </trkpt>
      <trkpt lat="61.53887" lon="5.76261">
        <ele>38.337304</ele>
        <time>2020-07-16T02:54:43.996Z</time>
      </trkpt>
      <trkpt lat="61.53874" lon="5.76386">
        <ele>40.55072</ele>
        <time>2020-07-16T02:55:03.869Z</time>
      </trkpt>
      <trkpt lat="61.53871" lon="5.76409">
        <ele>40.861129</ele>
        <time>2020-07-16T02:55:07.051Z</time>
      </trkpt>
      <trkpt lat="61.53846" lon="5.76651">
        <ele>44.159285</ele>
        <time>2020-07-16T02:55:39.023Z</time>
      </trkpt>
      <trkpt lat="61.53836" lon="5.76745">
        <ele>44.932946</ele>
        <time>2020-07-16T02:55:49.345Z</time>
      </trkpt>
      <trkpt lat="61.53832" lon="5.76783">
        <ele>44.867435</ele>
        <time>2020-07-16T02:55:53.114Z</time>
      </trkpt>
      <trkpt lat="61.53825" lon="5.76913">
        <ele>44.64524</ele>
        <time>2020-07-16T02:56:04.052Z</time>
      </trkpt>
      <trkpt lat="61.53826" lon="5.77004">
        <ele>44.490579</ele>
        <time>2020-07-16T02:56:10.976Z</time>
      </trkpt>
      <trkpt lat="61.53829" lon="5.7705">
        <ele>44.411666</ele>
        <time>2020-07-16T02:56:14.179Z</time>
      </trkpt>
      <trkpt lat="61.53832" lon="5.77087">
        <ele>44.323722</ele>
        <time>2020-07-16T02:56:16.812Z</time>
      </trkpt>
      <trkpt lat="61.53834" lon="5.77114">
        <ele>43.929256</ele>
        <time>2020-07-16T02:56:18.558Z</time>
      </trkpt>
      <trkpt lat="61.53843" lon="5.7718">
        <ele>42.9469</ele>
        <time>2020-07-16T02:56:23.065Z</time>
      </trkpt>
      <trkpt lat="61.53861" lon="5.77264">
        <ele>41.633299</ele>
        <time>2020-07-16T02:56:28.843Z</time>
      </trkpt>
      <trkpt lat="61.53901" lon="5.77445">
        <ele>38.74027</ele>
        <time>2020-07-16T02:56:41.061Z</time>
      </trkpt>
      <trkpt lat="61.53906" lon="5.77467">
        <ele>38.3346</ele>
        <time>2020-07-16T02:56:42.564Z</time>
      </trkpt>
      <trkpt lat="61.53979" lon="5.77786">
        <ele>32.727526</ele>
        <time>2020-07-16T02:57:04.196Z</time>
      </trkpt>
      <trkpt lat="61.53984" lon="5.77804">
        <ele>32.570054</ele>
        <time>2020-07-16T02:57:05.466Z</time>
      </trkpt>
      <trkpt lat="61.54071" lon="5.78189">
        <ele>29.85423</ele>
        <time>2020-07-16T02:57:35.770Z</time>
      </trkpt>
      <trkpt lat="61.54096" lon="5.78303">
        <ele>29.881016</ele>
        <time>2020-07-16T02:57:46.670Z</time>
      </trkpt>
      <trkpt lat="61.54097" lon="5.78307">
        <ele>29.882115</ele>
        <time>2020-07-16T02:57:47.133Z</time>
      </trkpt>
      <trkpt lat="61.54115" lon="5.78384">
        <ele>29.90036</ele>
        <time>2020-07-16T02:57:55.112Z</time>
      </trkpt>
      <trkpt lat="61.54151" lon="5.78478">
        <ele>30.238085</ele>
        <time>2020-07-16T02:58:07.053Z</time>
      </trkpt>
      <trkpt lat="61.54172" lon="5.7851">
        <ele>30.678082</ele>
        <time>2020-07-16T02:58:12.779Z</time>
      </trkpt>
      <trkpt lat="61.54227" lon="5.78569">
        <ele>31.700485</ele>
        <time>2020-07-16T02:58:27.012Z</time>
      </trkpt>
      <trkpt lat="61.54278" lon="5.78594">
        <ele>32.578013</ele>
        <time>2020-07-16T02:58:39.666Z</time>
      </trkpt>
      <trkpt lat="61.54324" lon="5.78587">
        <ele>33.512119</ele>
        <time>2020-07-16T02:58:51.193Z</time>
      </trkpt>
      <trkpt lat="61.54342" lon="5.78578">
        <ele>33.936417</ele>
        <time>2020-07-16T02:58:55.997Z</time>
      </trkpt>
      <trkpt lat="61.54354" lon="5.78569">
        <ele>34.242928</ele>
        <time>2020-07-16T02:58:59.281Z</time>
      </trkpt>
      <trkpt lat="61.54394" lon="5.78529">
        <ele>35.258557</ele>
        <time>2020-07-16T02:59:10.233Z</time>
      </trkpt>
      <trkpt lat="61.54403" lon="5.78517">
        <ele>35.513309</ele>
        <time>2020-07-16T02:59:13.221Z</time>
      </trkpt>
      <trkpt lat="61.5441" lon="5.7851">
        <ele>35.685887</ele>
        <time>2020-07-16T02:59:15.111Z</time>
      </trkpt>
      <trkpt lat="61.54442" lon="5.78473">
        <ele>36.539834</ele>
        <time>2020-07-16T02:59:24.543Z</time>
      </trkpt>
      <trkpt lat="61.54509" lon="5.78374">
        <ele>38.53613</ele>
        <time>2020-07-16T02:59:45.196Z</time>
      </trkpt>
      <trkpt lat="61.54568" lon="5.78277">
        <ele>40.389819</ele>
        <time>2020-07-16T03:00:04.040Z</time>
      </trkpt>
      <trkpt lat="61.54575" lon="5.78266">
        <ele>40.591971</ele>
        <time>2020-07-16T03:00:06.116Z</time>
      </trkpt>
      <trkpt lat="61.54582" lon="5.78254">
        <ele>40.828362</ele>
        <time>2020-07-16T03:00:08.564Z</time>
      </trkpt>
      <trkpt lat="61.54662" lon="5.78118">
        <ele>43.923701</ele>
        <time>2020-07-16T03:00:36.913Z</time>
      </trkpt>
      <trkpt lat="61.54721" lon="5.78017">
        <ele>46.360494</ele>
        <time>2020-07-16T03:00:58.766Z</time>
      </trkpt>
      <trkpt lat="61.54773" lon="5.7794">
        <ele>48.259196</ele>
        <time>2020-07-16T03:01:17.141Z</time>
      </trkpt>
      <trkpt lat="61.54823" lon="5.7789">
        <ele>49.803503</ele>
        <time>2020-07-16T03:01:32.749Z</time>
      </trkpt>
      <trkpt lat="61.54851" lon="5.77874">
        <ele>50.617296</ele>
        <time>2020-07-16T03:01:40.551Z</time>
      </trkpt>
      <trkpt lat="61.54896" lon="5.77856">
        <ele>51.894574</ele>
        <time>2020-07-16T03:01:52.154Z</time>
      </trkpt>
      <trkpt lat="61.54924" lon="5.77856">
        <ele>52.487147</ele>
        <time>2020-07-16T03:01:58.998Z</time>
      </trkpt>
      <trkpt lat="61.5498" lon="5.77872">
        <ele>53.150864</ele>
        <time>2020-07-16T03:02:11.904Z</time>
      </trkpt>
      <trkpt lat="61.55005" lon="5.77885">
        <ele>53.453051</ele>
        <time>2020-07-16T03:02:17.620Z</time>
      </trkpt>
      <trkpt lat="61.55111" lon="5.77936">
        <ele>54.46214</ele>
        <time>2020-07-16T03:02:39.521Z</time>
      </trkpt>
      <trkpt lat="61.55119" lon="5.7794">
        <ele>54.467896</ele>
        <time>2020-07-16T03:02:40.855Z</time>
      </trkpt>
      <trkpt lat="61.55225" lon="5.77992">
        <ele>54.552995</ele>
        <time>2020-07-16T03:03:00.507Z</time>
      </trkpt>
      <trkpt lat="61.55275" lon="5.78012">
        <ele>54.466039</ele>
        <time>2020-07-16T03:03:09.105Z</time>
      </trkpt>
      <trkpt lat="61.553" lon="5.78022">
        <ele>54.21415</ele>
        <time>2020-07-16T03:03:13.369Z</time>
      </trkpt>
      <trkpt lat="61.55319" lon="5.78028">
        <ele>54.027908</ele>
        <time>2020-07-16T03:03:16.369Z</time>
      </trkpt>
      <trkpt lat="61.55383" lon="5.78041">
        <ele>53.385912</ele>
        <time>2020-07-16T03:03:26.426Z</time>
      </trkpt>
      <trkpt lat="61.55435" lon="5.78039">
        <ele>52.875723</ele>
        <time>2020-07-16T03:03:34.007Z</time>
      </trkpt>
      <trkpt lat="61.55486" lon="5.78028">
        <ele>52.31248</ele>
        <time>2020-07-16T03:03:41.465Z</time>
      </trkpt>
      <trkpt lat="61.55499" lon="5.78022">
        <ele>52.167784</ele>
        <time>2020-07-16T03:03:43.284Z</time>
      </trkpt>
      <trkpt lat="61.55682" lon="5.77881">
        <ele>52.762194</ele>
        <time>2020-07-16T03:04:14.011Z</time>
      </trkpt>
      <trkpt lat="61.55704" lon="5.77857">
        <ele>53.444631</ele>
        <time>2020-07-16T03:04:19.725Z</time>
      </trkpt>
      <trkpt lat="61.55735" lon="5.77806">
        <ele>54.499693</ele>
        <time>2020-07-16T03:04:32.670Z</time>
      </trkpt>
      <trkpt lat="61.55751" lon="5.77772">
        <ele>55.111048</ele>
        <time>2020-07-16T03:04:41.676Z</time>
      </trkpt>
      <trkpt lat="61.55755" lon="5.77765">
        <ele>55.241293</ele>
        <time>2020-07-16T03:04:43.548Z</time>
      </trkpt>
      <trkpt lat="61.55762" lon="5.77746">
        <ele>55.563519</ele>
        <time>2020-07-16T03:04:48.272Z</time>
      </trkpt>
      <trkpt lat="61.55821" lon="5.77635">
        <ele>62.902883</ele>
        <time>2020-07-16T03:05:21.271Z</time>
      </trkpt>
      <trkpt lat="61.55826" lon="5.7763">
        <ele>63.423552</ele>
        <time>2020-07-16T03:05:24.837Z</time>
      </trkpt>
      <trkpt lat="61.55833" lon="5.77622">
        <ele>64.170441</ele>
        <time>2020-07-16T03:05:28.481Z</time>
      </trkpt>
      <trkpt lat="61.55858" lon="5.77603">
        <ele>66.769693</ele>
        <time>2020-07-16T03:05:41.565Z</time>
      </trkpt>
      <trkpt lat="61.5587" lon="5.77597">
        <ele>67.969258</ele>
        <time>2020-07-16T03:05:49.929Z</time>
      </trkpt>
      <trkpt lat="61.55909" lon="5.77591">
        <ele>71.721754</ele>
        <time>2020-07-16T03:06:10.506Z</time>
      </trkpt>
      <trkpt lat="61.55987" lon="5.77611">
        <ele>81.459062</ele>
        <time>2020-07-16T03:06:55.579Z</time>
      </trkpt>
      <trkpt lat="61.56009" lon="5.77619">
        <ele>84.355068</ele>
        <time>2020-07-16T03:07:07.412Z</time>
      </trkpt>
      <trkpt lat="61.56012" lon="5.77621">
        <ele>84.848942</ele>
        <time>2020-07-16T03:07:10.877Z</time>
      </trkpt>
      <trkpt lat="61.56065" lon="5.77637">
        <ele>91.677812</ele>
        <time>2020-07-16T03:07:42.645Z</time>
      </trkpt>
      <trkpt lat="61.56083" lon="5.77643">
        <ele>94.098716</ele>
        <time>2020-07-16T03:07:54.109Z</time>
      </trkpt>
      <trkpt lat="61.5609" lon="5.77644">
        <ele>95.037471</ele>
        <time>2020-07-16T03:07:59.794Z</time>
      </trkpt>
      <trkpt lat="61.56142" lon="5.77648">
        <ele>100.596424</ele>
        <time>2020-07-16T03:08:29.504Z</time>
      </trkpt>
      <trkpt lat="61.56158" lon="5.77647">
        <ele>102.277775</ele>
        <time>2020-07-16T03:08:41.064Z</time>
      </trkpt>
      <trkpt lat="61.56168" lon="5.77645">
        <ele>103.2848</ele>
        <time>2020-07-16T03:08:47.348Z</time>
      </trkpt>
      <trkpt lat="61.56245" lon="5.77619">
        <ele>111.276997</ele>
        <time>2020-07-16T03:09:26.887Z</time>
      </trkpt>
      <trkpt lat="61.56318" lon="5.77568">
        <ele>115.48517</ele>
        <time>2020-07-16T03:09:52.923Z</time>
      </trkpt>
      <trkpt lat="61.56347" lon="5.77538">
        <ele>116.0277</ele>
        <time>2020-07-16T03:09:59.207Z</time>
      </trkpt>
      <trkpt lat="61.56357" lon="5.77527">
        <ele>116.224524</ele>
        <time>2020-07-16T03:10:01.934Z</time>
      </trkpt>
      <trkpt lat="61.56363" lon="5.77521">
        <ele>116.336179</ele>
        <time>2020-07-16T03:10:03.528Z</time>
      </trkpt>
      <trkpt lat="61.5638" lon="5.77506">
        <ele>116.641288</ele>
        <time>2020-07-16T03:10:06.058Z</time>
      </trkpt>
      <trkpt lat="61.56628" lon="5.77256">
        <ele>120.442039</ele>
        <time>2020-07-16T03:10:55.809Z</time>
      </trkpt>
      <trkpt lat="61.56659" lon="5.7722">
        <ele>122.909126</ele>
        <time>2020-07-16T03:11:08.824Z</time>
      </trkpt>
      <trkpt lat="61.5669" lon="5.77168">
        <ele>125.635871</ele>
        <time>2020-07-16T03:11:25.153Z</time>
      </trkpt>
      <trkpt lat="61.56727" lon="5.77076">
        <ele>129.568918</ele>
        <time>2020-07-16T03:11:52.479Z</time>
      </trkpt>
      <trkpt lat="61.56756" lon="5.76964">
        <ele>135.970808</ele>
        <time>2020-07-16T03:12:25.476Z</time>
      </trkpt>
      <trkpt lat="61.56781" lon="5.76696">
        <ele>152.168888</ele>
        <time>2020-07-16T03:13:42.713Z</time>
      </trkpt>
      <trkpt lat="61.56853" lon="5.76332">
        <ele>175.890204</ele>
        <time>2020-07-16T03:15:36.806Z</time>
      </trkpt>
      <trkpt lat="61.56882" lon="5.76255">
        <ele>178.176588</ele>
        <time>2020-07-16T03:15:58.562Z</time>
      </trkpt>
      <trkpt lat="61.56922" lon="5.76186">
        <ele>180.505772</ele>
        <time>2020-07-16T03:16:17.254Z</time>
      </trkpt>
      <trkpt lat="61.5702" lon="5.76076">
        <ele>185.437362</ele>
        <time>2020-07-16T03:16:37.953Z</time>
      </trkpt>
      <trkpt lat="61.57055" lon="5.76058">
        <ele>186.914303</ele>
        <time>2020-07-16T03:16:43.026Z</time>
      </trkpt>
      <trkpt lat="61.57061" lon="5.76058">
        <ele>187.168008</ele>
        <time>2020-07-16T03:16:43.773Z</time>
      </trkpt>
      <trkpt lat="61.57068" lon="5.76059">
        <ele>187.45045</ele>
        <time>2020-07-16T03:16:48.805Z</time>
      </trkpt>
      <trkpt lat="61.571" lon="5.76075">
        <ele>188.792144</ele>
        <time>2020-07-16T03:16:58.363Z</time>
      </trkpt>
      <trkpt lat="61.57154" lon="5.76126">
        <ele>191.206299</ele>
        <time>2020-07-16T03:17:20.133Z</time>
      </trkpt>
      <trkpt lat="61.5719" lon="5.76135">
        <ele>195.297167</ele>
        <time>2020-07-16T03:17:37.873Z</time>
      </trkpt>
      <trkpt lat="61.57197" lon="5.76141">
        <ele>196.327639</ele>
        <time>2020-07-16T03:17:39.864Z</time>
      </trkpt>
      <trkpt lat="61.57201" lon="5.76133">
        <ele>197.061525</ele>
        <time>2020-07-16T03:17:44.723Z</time>
      </trkpt>
      <trkpt lat="61.57302" lon="5.76042">
        <ele>212.522168</ele>
        <time>2020-07-16T03:19:00.516Z</time>
      </trkpt>
      <trkpt lat="61.57325" lon="5.76001">
        <ele>216.754857</ele>
        <time>2020-07-16T03:19:21.376Z</time>
      </trkpt>
      <trkpt lat="61.57381" lon="5.75835">
        <ele>228.220373</ele>
        <time>2020-07-16T03:20:24.230Z</time>
      </trkpt>
      <trkpt lat="61.574" lon="5.75796">
        <ele>231.32924</ele>
        <time>2020-07-16T03:20:38.002Z</time>
      </trkpt>
      <trkpt lat="61.57429" lon="5.75767">
        <ele>235.144838</ele>
        <time>2020-07-16T03:20:53.370Z</time>
      </trkpt>
      <trkpt lat="61.57491" lon="5.75742">
        <ele>239.563352</ele>
        <time>2020-07-16T03:21:17.652Z</time>
      </trkpt>
      <trkpt lat="61.5751" lon="5.75723">
        <ele>240.365826</ele>
        <time>2020-07-16T03:21:24.181Z</time>
      </trkpt>
      <trkpt lat="61.57538" lon="5.7567">
        <ele>241.810954</ele>
        <time>2020-07-16T03:21:34.557Z</time>
      </trkpt>
      <trkpt lat="61.5756" lon="5.75589">
        <ele>243.503385</ele>
        <time>2020-07-16T03:21:45.483Z</time>
      </trkpt>
      <trkpt lat="61.57567" lon="5.75566">
        <ele>244.002957</ele>
        <time>2020-07-16T03:21:48.902Z</time>
      </trkpt>
      <trkpt lat="61.57574" lon="5.75546">
        <ele>244.452803</ele>
        <time>2020-07-16T03:21:51.026Z</time>
      </trkpt>
      <trkpt lat="61.57611" lon="5.7548">
        <ele>246.346314</ele>
        <time>2020-07-16T03:22:03.316Z</time>
      </trkpt>
      <trkpt lat="61.57647" lon="5.7545">
        <ele>247.886176</ele>
        <time>2020-07-16T03:22:15.085Z</time>
      </trkpt>
      <trkpt lat="61.57683" lon="5.75443">
        <ele>249.309883</ele>
        <time>2020-07-16T03:22:26.091Z</time>
      </trkpt>
      <trkpt lat="61.5773" lon="5.75462">
        <ele>251.174051</ele>
        <time>2020-07-16T03:22:40.787Z</time>
      </trkpt>
      <trkpt lat="61.57742" lon="5.75473">
        <ele>251.678967</ele>
        <time>2020-07-16T03:22:45.718Z</time>
      </trkpt>
      <trkpt lat="61.57747" lon="5.7548">
        <ele>251.942099</ele>
        <time>2020-07-16T03:22:47.740Z</time>
      </trkpt>
      <trkpt lat="61.57752" lon="5.75488">
        <ele>252.286592</ele>
        <time>2020-07-16T03:22:50.487Z</time>
      </trkpt>
      <trkpt lat="61.57779" lon="5.75531">
        <ele>254.825289</ele>
        <time>2020-07-16T03:23:02.528Z</time>
      </trkpt>
      <trkpt lat="61.57792" lon="5.75572">
        <ele>256.590757</ele>
        <time>2020-07-16T03:23:11.513Z</time>
      </trkpt>
      <trkpt lat="61.57804" lon="5.75636">
        <ele>259.087396</ele>
        <time>2020-07-16T03:23:24.845Z</time>
      </trkpt>
      <trkpt lat="61.57804" lon="5.75724">
        <ele>262.298256</ele>
        <time>2020-07-16T03:23:43.333Z</time>
      </trkpt>
      <trkpt lat="61.57807" lon="5.75734">
        <ele>262.690922</ele>
        <time>2020-07-16T03:23:45.379Z</time>
      </trkpt>
      <trkpt lat="61.57818" lon="5.75736">
        <ele>263.526544</ele>
        <time>2020-07-16T03:23:50.696Z</time>
      </trkpt>
      <trkpt lat="61.57829" lon="5.75692">
        <ele>265.345091</ele>
        <time>2020-07-16T03:24:00.234Z</time>
      </trkpt>
      <trkpt lat="61.57841" lon="5.75503">
        <ele>276.240732</ele>
        <time>2020-07-16T03:24:51.759Z</time>
      </trkpt>
      <trkpt lat="61.57852" lon="5.75407">
        <ele>281.970693</ele>
        <time>2020-07-16T03:25:18.828Z</time>
      </trkpt>
      <trkpt lat="61.57862" lon="5.75328">
        <ele>286.752173</ele>
        <time>2020-07-16T03:25:42.749Z</time>
      </trkpt>
      <trkpt lat="61.57863" lon="5.7531">
        <ele>287.831043</ele>
        <time>2020-07-16T03:25:47.548Z</time>
      </trkpt>
      <trkpt lat="61.57863" lon="5.75292">
        <ele>288.949143</ele>
        <time>2020-07-16T03:25:55.403Z</time>
      </trkpt>
      <trkpt lat="61.5786" lon="5.75226">
        <ele>293.075762</ele>
        <time>2020-07-16T03:26:13.634Z</time>
      </trkpt>
      <trkpt lat="61.57845" lon="5.75125">
        <ele>299.654825</ele>
        <time>2020-07-16T03:26:45.260Z</time>
      </trkpt>
      <trkpt lat="61.57772" lon="5.74823">
        <ele>319.365425</ele>
        <time>2020-07-16T03:28:16.779Z</time>
      </trkpt>
      <trkpt lat="61.57744" lon="5.74677">
        <ele>327.824766</ele>
        <time>2020-07-16T03:28:56.395Z</time>
      </trkpt>
      <trkpt lat="61.5774" lon="5.74636">
        <ele>330.041954</ele>
        <time>2020-07-16T03:29:08.006Z</time>
      </trkpt>
      <trkpt lat="61.5773" lon="5.74556">
        <ele>333.644196</ele>
        <time>2020-07-16T03:29:27.004Z</time>
      </trkpt>
      <trkpt lat="61.57707" lon="5.744">
        <ele>339.945198</ele>
        <time>2020-07-16T03:30:02.468Z</time>
      </trkpt>
      <trkpt lat="61.5766" lon="5.7423">
        <ele>347.703116</ele>
        <time>2020-07-16T03:30:39.133Z</time>
      </trkpt>
      <trkpt lat="61.57636" lon="5.74102">
        <ele>353.583426</ele>
        <time>2020-07-16T03:31:03.077Z</time>
      </trkpt>
      <trkpt lat="61.57624" lon="5.73923">
        <ele>361.375482</ele>
        <time>2020-07-16T03:31:47.390Z</time>
      </trkpt>
      <trkpt lat="61.57631" lon="5.73811">
        <ele>368.742117</ele>
        <time>2020-07-16T03:32:20.398Z</time>
      </trkpt>
      <trkpt lat="61.57643" lon="5.73738">
        <ele>374.258102</ele>
        <time>2020-07-16T03:32:44.111Z</time>
      </trkpt>
      <trkpt lat="61.5765" lon="5.73707">
        <ele>376.668963</ele>
        <time>2020-07-16T03:32:54.686Z</time>
      </trkpt>
      <trkpt lat="61.57654" lon="5.7369">
        <ele>378.061833</ele>
        <time>2020-07-16T03:33:02.765Z</time>
      </trkpt>
      <trkpt lat="61.57668" lon="5.73611">
        <ele>384.002758</ele>
        <time>2020-07-16T03:33:29.210Z</time>
      </trkpt>
      <trkpt lat="61.57671" lon="5.7353">
        <ele>389.882395</ele>
        <time>2020-07-16T03:33:56.410Z</time>
      </trkpt>
      <trkpt lat="61.57661" lon="5.73435">
        <ele>397.548445</ele>
        <time>2020-07-16T03:34:30.499Z</time>
      </trkpt>
      <trkpt lat="61.57643" lon="5.7334">
        <ele>405.541071</ele>
        <time>2020-07-16T03:35:05.438Z</time>
      </trkpt>
      <trkpt lat="61.57641" lon="5.73299">
        <ele>408.798878</ele>
        <time>2020-07-16T03:35:18.189Z</time>
      </trkpt>
      <trkpt lat="61.57647" lon="5.72815">
        <ele>446.738975</ele>
        <time>2020-07-16T03:38:02.359Z</time>
      </trkpt>
      <trkpt lat="61.57637" lon="5.72713">
        <ele>454.276887</ele>
        <time>2020-07-16T03:38:36.648Z</time>
      </trkpt>
      <trkpt lat="61.57611" lon="5.72634">
        <ele>461.042145</ele>
        <time>2020-07-16T03:39:06.101Z</time>
      </trkpt>
      <trkpt lat="61.57574" lon="5.72574">
        <ele>468.118009</ele>
        <time>2020-07-16T03:39:34.551Z</time>
      </trkpt>
      <trkpt lat="61.57539" lon="5.72558">
        <ele>473.4416</ele>
        <time>2020-07-16T03:39:57.530Z</time>
      </trkpt>
      <trkpt lat="61.57464" lon="5.72556">
        <ele>486.330086</ele>
        <time>2020-07-16T03:40:49.014Z</time>
      </trkpt>
      <trkpt lat="61.57428" lon="5.72523">
        <ele>493.093205</ele>
        <time>2020-07-16T03:41:17.431Z</time>
      </trkpt>
      <trkpt lat="61.57418" lon="5.72502">
        <ele>495.685303</ele>
        <time>2020-07-16T03:41:29.885Z</time>
      </trkpt>
      <trkpt lat="61.5735" lon="5.72312">
        <ele>511.651567</ele>
        <time>2020-07-16T03:43:03.579Z</time>
      </trkpt>
      <trkpt lat="61.57282" lon="5.72122">
        <ele>522.412325</ele>
        <time>2020-07-16T03:44:04.276Z</time>
      </trkpt>
      <trkpt lat="61.57177" lon="5.7183">
        <ele>502.555964</ele>
        <time>2020-07-16T03:44:22.810Z</time>
      </trkpt>
      <trkpt lat="61.57132" lon="5.71707">
        <ele>484.4978</ele>
        <time>2020-07-16T03:44:30.341Z</time>
      </trkpt>
      <trkpt lat="61.57116" lon="5.71645">
        <ele>474.493017</ele>
        <time>2020-07-16T03:44:33.816Z</time>
      </trkpt>
      <trkpt lat="61.5708" lon="5.71379">
        <ele>437.39462</ele>
        <time>2020-07-16T03:44:47.410Z</time>
      </trkpt>
      <trkpt lat="61.57023" lon="5.71116">
        <ele>403.896887</ele>
        <time>2020-07-16T03:45:01.422Z</time>
      </trkpt>
      <trkpt lat="61.57005" lon="5.70839">
        <ele>390.12365</ele>
        <time>2020-07-16T03:45:15.710Z</time>
      </trkpt>
      <trkpt lat="61.57004" lon="5.7078">
        <ele>387.397926</ele>
        <time>2020-07-16T03:45:19.253Z</time>
      </trkpt>
      <trkpt lat="61.57011" lon="5.70676">
        <ele>385.464187</ele>
        <time>2020-07-16T03:45:26.709Z</time>
      </trkpt>
      <trkpt lat="61.57034" lon="5.70569">
        <ele>386.555782</ele>
        <time>2020-07-16T03:45:38.664Z</time>
      </trkpt>
      <trkpt lat="61.57108" lon="5.70402">
        <ele>388.616136</ele>
        <time>2020-07-16T03:46:12.534Z</time>
      </trkpt>
      <trkpt lat="61.57132" lon="5.7036">
        <ele>388.981328</ele>
        <time>2020-07-16T03:46:22.839Z</time>
      </trkpt>
      <trkpt lat="61.57167" lon="5.7034">
        <ele>389.393024</ele>
        <time>2020-07-16T03:46:33.609Z</time>
      </trkpt>
      <trkpt lat="61.57239" lon="5.7037">
        <ele>390.230859</ele>
        <time>2020-07-16T03:46:48.659Z</time>
      </trkpt>
      <trkpt lat="61.57259" lon="5.70367">
        <ele>390.462048</ele>
        <time>2020-07-16T03:46:51.473Z</time>
      </trkpt>
      <trkpt lat="61.5728" lon="5.70346">
        <ele>389.50498</ele>
        <time>2020-07-16T03:46:54.469Z</time>
      </trkpt>
      <trkpt lat="61.57295" lon="5.70312">
        <ele>387.736067</ele>
        <time>2020-07-16T03:46:57.215Z</time>
      </trkpt>
      <trkpt lat="61.57308" lon="5.70258">
        <ele>385.537206</ele>
        <time>2020-07-16T03:47:00.499Z</time>
      </trkpt>
      <trkpt lat="61.57308" lon="5.70077">
        <ele>378.845701</ele>
        <time>2020-07-16T03:47:09.989Z</time>
      </trkpt>
      <trkpt lat="61.57318" lon="5.70023">
        <ele>376.703462</ele>
        <time>2020-07-16T03:47:12.955Z</time>
      </trkpt>
      <trkpt lat="61.57422" lon="5.69846">
        <ele>363.990705</ele>
        <time>2020-07-16T03:47:27.473Z</time>
      </trkpt>
      <trkpt lat="61.5744" lon="5.69807">
        <ele>361.532363</ele>
        <time>2020-07-16T03:47:30.379Z</time>
      </trkpt>
      <trkpt lat="61.57449" lon="5.6976">
        <ele>359.304001</ele>
        <time>2020-07-16T03:47:33.161Z</time>
      </trkpt>
      <trkpt lat="61.57453" lon="5.69678">
        <ele>356.781723</ele>
        <time>2020-07-16T03:47:37.715Z</time>
      </trkpt>
      <trkpt lat="61.5745" lon="5.69573">
        <ele>353.563851</ele>
        <time>2020-07-16T03:47:43.520Z</time>
      </trkpt>
      <trkpt lat="61.57424" lon="5.69351">
        <ele>346.678032</ele>
        <time>2020-07-16T03:47:56.450Z</time>
      </trkpt>
      <trkpt lat="61.57421" lon="5.69336">
        <ele>346.225506</ele>
        <time>2020-07-16T03:47:57.277Z</time>
      </trkpt>
      <trkpt lat="61.57415" lon="5.69328">
        <ele>345.822695</ele>
        <time>2020-07-16T03:47:58.092Z</time>
      </trkpt>
      <trkpt lat="61.57404" lon="5.69329">
        <ele>345.179909</ele>
        <time>2020-07-16T03:47:59.439Z</time>
      </trkpt>
      <trkpt lat="61.57398" lon="5.69349">
        <ele>344.512123</ele>
        <time>2020-07-16T03:48:00.838Z</time>
      </trkpt>
      <trkpt lat="61.57414" lon="5.69445">
        <ele>341.631927</ele>
        <time>2020-07-16T03:48:06.478Z</time>
      </trkpt>
      <trkpt lat="61.57412" lon="5.695">
        <ele>340.073028</ele>
        <time>2020-07-16T03:48:09.619Z</time>
      </trkpt>
      <trkpt lat="61.57406" lon="5.69535">
        <ele>339.036296</ele>
        <time>2020-07-16T03:48:11.638Z</time>
      </trkpt>
      <trkpt lat="61.57386" lon="5.69593">
        <ele>337.02419</ele>
        <time>2020-07-16T03:48:15.620Z</time>
      </trkpt>
      <trkpt lat="61.57364" lon="5.69618">
        <ele>335.671414</ele>
        <time>2020-07-16T03:48:18.705Z</time>
      </trkpt>
      <trkpt lat="61.57342" lon="5.69618">
        <ele>334.534618</ele>
        <time>2020-07-16T03:48:21.294Z</time>
      </trkpt>
      <trkpt lat="61.57261" lon="5.69566">
        <ele>330.039172</ele>
        <time>2020-07-16T03:48:31.471Z</time>
      </trkpt>
      <trkpt lat="61.57225" lon="5.6952">
        <ele>327.823687</ele>
        <time>2020-07-16T03:48:36.540Z</time>
      </trkpt>
      <trkpt lat="61.57175" lon="5.69399">
        <ele>325.456489</ele>
        <time>2020-07-16T03:48:46.031Z</time>
      </trkpt>
      <trkpt lat="61.57154" lon="5.69384">
        <ele>324.765182</ele>
        <time>2020-07-16T03:48:49.000Z</time>
      </trkpt>
      <trkpt lat="61.57131" lon="5.69391">
        <ele>324.042375</ele>
        <time>2020-07-16T03:48:52.188Z</time>
      </trkpt>
      <trkpt lat="61.57111" lon="5.69421">
        <ele>323.29468</ele>
        <time>2020-07-16T03:48:55.610Z</time>
      </trkpt>
      <trkpt lat="61.57102" lon="5.69449">
        <ele>322.806976</ele>
        <time>2020-07-16T03:48:57.979Z</time>
      </trkpt>
      <trkpt lat="61.5708" lon="5.69568">
        <ele>321.132318</ele>
        <time>2020-07-16T03:49:07.523Z</time>
      </trkpt>
      <trkpt lat="61.57058" lon="5.69656">
        <ele>319.89192</ele>
        <time>2020-07-16T03:49:14.108Z</time>
      </trkpt>
      <trkpt lat="61.57004" lon="5.69774">
        <ele>317.869508</ele>
        <time>2020-07-16T03:49:24.544Z</time>
      </trkpt>
      <trkpt lat="61.56989" lon="5.69791">
        <ele>317.172287</ele>
        <time>2020-07-16T03:49:26.798Z</time>
      </trkpt>
      <trkpt lat="61.56985" lon="5.69795">
        <ele>316.753653</ele>
        <time>2020-07-16T03:49:27.415Z</time>
      </trkpt>
      <trkpt lat="61.56974" lon="5.69805">
        <ele>315.751771</ele>
        <time>2020-07-16T03:49:28.745Z</time>
      </trkpt>
      <trkpt lat="61.56943" lon="5.69817">
        <ele>313.05569</ele>
        <time>2020-07-16T03:49:32.431Z</time>
      </trkpt>
      <trkpt lat="61.56916" lon="5.69796">
        <ele>310.525351</ele>
        <time>2020-07-16T03:49:35.751Z</time>
      </trkpt>
      <trkpt lat="61.56904" lon="5.69757">
        <ele>308.591027</ele>
        <time>2020-07-16T03:49:38.179Z</time>
      </trkpt>
      <trkpt lat="61.56897" lon="5.69687">
        <ele>305.66723</ele>
        <time>2020-07-16T03:49:41.816Z</time>
      </trkpt>
      <trkpt lat="61.56889" lon="5.69589">
        <ele>301.449359</ele>
        <time>2020-07-16T03:49:46.861Z</time>
      </trkpt>
      <trkpt lat="61.56876" lon="5.69421">
        <ele>292.068651</ele>
        <time>2020-07-16T03:49:55.519Z</time>
      </trkpt>
      <trkpt lat="61.56871" lon="5.69284">
        <ele>284.508391</ele>
        <time>2020-07-16T03:50:02.484Z</time>
      </trkpt>
      <trkpt lat="61.56899" lon="5.68934">
        <ele>267.689708</ele>
        <time>2020-07-16T03:50:21.059Z</time>
      </trkpt>
      <trkpt lat="61.56958" lon="5.68592">
        <ele>251.589591</ele>
        <time>2020-07-16T03:50:40.320Z</time>
      </trkpt>
      <trkpt lat="61.56955" lon="5.68529">
        <ele>248.827903</ele>
        <time>2020-07-16T03:50:43.600Z</time>
      </trkpt>
      <trkpt lat="61.56941" lon="5.68412">
        <ele>242.584841</ele>
        <time>2020-07-16T03:50:49.908Z</time>
      </trkpt>
      <trkpt lat="61.56931" lon="5.68328">
        <ele>237.836017</ele>
        <time>2020-07-16T03:50:54.307Z</time>
      </trkpt>
      <trkpt lat="61.56925" lon="5.68262">
        <ele>234.12089</ele>
        <time>2020-07-16T03:50:57.735Z</time>
      </trkpt>
      <trkpt lat="61.5691" lon="5.68131">
        <ele>226.747813</ele>
        <time>2020-07-16T03:51:04.576Z</time>
      </trkpt>
      <trkpt lat="61.56903" lon="5.6809">
        <ele>224.438904</ele>
        <time>2020-07-16T03:51:06.770Z</time>
      </trkpt>
      <trkpt lat="61.56894" lon="5.68048">
        <ele>221.972895</ele>
        <time>2020-07-16T03:51:09.114Z</time>
      </trkpt>
      <trkpt lat="61.5686" lon="5.67934">
        <ele>214.898082</ele>
        <time>2020-07-16T03:51:15.972Z</time>
      </trkpt>
      <trkpt lat="61.56793" lon="5.67775">
        <ele>204.234495</ele>
        <time>2020-07-16T03:51:26.929Z</time>
      </trkpt>
      <trkpt lat="61.56778" lon="5.677">
        <ele>200.834469</ele>
        <time>2020-07-16T03:51:31.254Z</time>
      </trkpt>
      <trkpt lat="61.56762" lon="5.6753">
        <ele>193.564951</ele>
        <time>2020-07-16T03:51:40.522Z</time>
      </trkpt>
      <trkpt lat="61.56717" lon="5.67367">
        <ele>186.189227</ele>
        <time>2020-07-16T03:51:50.564Z</time>
      </trkpt>
      <trkpt lat="61.56646" lon="5.66983">
        <ele>171.026454</ele>
        <time>2020-07-16T03:52:12.754Z</time>
      </trkpt>
      <trkpt lat="61.56632" lon="5.66825">
        <ele>165.423452</ele>
        <time>2020-07-16T03:52:21.510Z</time>
      </trkpt>
      <trkpt lat="61.56628" lon="5.66691">
        <ele>161.629087</ele>
        <time>2020-07-16T03:52:28.900Z</time>
      </trkpt>
      <trkpt lat="61.56634" lon="5.66635">
        <ele>160.317316</ele>
        <time>2020-07-16T03:52:32.162Z</time>
      </trkpt>
      <trkpt lat="61.56657" lon="5.66522">
        <ele>157.524826</ele>
        <time>2020-07-16T03:52:39.360Z</time>
      </trkpt>
      <trkpt lat="61.56663" lon="5.665">
        <ele>156.941642</ele>
        <time>2020-07-16T03:52:40.892Z</time>
      </trkpt>
      <trkpt lat="61.56672" lon="5.66479">
        <ele>156.319174</ele>
        <time>2020-07-16T03:52:42.520Z</time>
      </trkpt>
      <trkpt lat="61.56708" lon="5.66394">
        <ele>154.435881</ele>
        <time>2020-07-16T03:52:49.818Z</time>
      </trkpt>
      <trkpt lat="61.56717" lon="5.66367">
        <ele>154.235888</ele>
        <time>2020-07-16T03:52:51.883Z</time>
      </trkpt>
      <trkpt lat="61.56724" lon="5.6634">
        <ele>154.05198</ele>
        <time>2020-07-16T03:52:54.083Z</time>
      </trkpt>
      <trkpt lat="61.5673" lon="5.6631">
        <ele>153.857426</ele>
        <time>2020-07-16T03:52:56.187Z</time>
      </trkpt>
      <trkpt lat="61.56733" lon="5.66285">
        <ele>153.69946</ele>
        <time>2020-07-16T03:52:57.996Z</time>
      </trkpt>
      <trkpt lat="61.56735" lon="5.66261">
        <ele>153.551644</ele>
        <time>2020-07-16T03:52:59.823Z</time>
      </trkpt>
      <trkpt lat="61.56736" lon="5.66231">
        <ele>153.364991</ele>
        <time>2020-07-16T03:53:01.931Z</time>
      </trkpt>
      <trkpt lat="61.56737" lon="5.66211">
        <ele>153.246269</ele>
        <time>2020-07-16T03:53:03.397Z</time>
      </trkpt>
      <trkpt lat="61.5673" lon="5.66125">
        <ele>152.716422</ele>
        <time>2020-07-16T03:53:10.717Z</time>
      </trkpt>
      <trkpt lat="61.56726" lon="5.66094">
        <ele>152.517431</ele>
        <time>2020-07-16T03:53:13.441Z</time>
      </trkpt>
      <trkpt lat="61.56713" lon="5.66016">
        <ele>152.470776</ele>
        <time>2020-07-16T03:53:20.896Z</time>
      </trkpt>
      <trkpt lat="61.56707" lon="5.65965">
        <ele>152.530068</ele>
        <time>2020-07-16T03:53:25.647Z</time>
      </trkpt>
      <trkpt lat="61.56701" lon="5.65903">
        <ele>152.60024</ele>
        <time>2020-07-16T03:53:31.182Z</time>
      </trkpt>
      <trkpt lat="61.56706" lon="5.65806">
        <ele>152.709689</ele>
        <time>2020-07-16T03:53:39.793Z</time>
      </trkpt>
      <trkpt lat="61.56709" lon="5.65762">
        <ele>152.760491</ele>
        <time>2020-07-16T03:53:43.920Z</time>
      </trkpt>
      <trkpt lat="61.56713" lon="5.65732">
        <ele>152.795129</ele>
        <time>2020-07-16T03:53:46.693Z</time>
      </trkpt>
      <trkpt lat="61.56776" lon="5.65475">
        <ele>153.015967</ele>
        <time>2020-07-16T03:54:12.085Z</time>
      </trkpt>
      <trkpt lat="61.56808" lon="5.65353">
        <ele>153.114545</ele>
        <time>2020-07-16T03:54:23.986Z</time>
      </trkpt>
      <trkpt lat="61.56824" lon="5.65281">
        <ele>153.161316</ele>
        <time>2020-07-16T03:54:30.810Z</time>
      </trkpt>
      <trkpt lat="61.56845" lon="5.65159">
        <ele>153.238386</ele>
        <time>2020-07-16T03:54:42.282Z</time>
      </trkpt>
      <trkpt lat="61.56853" lon="5.65085">
        <ele>153.283693</ele>
        <time>2020-07-16T03:54:49.066Z</time>
      </trkpt>
      <trkpt lat="61.56858" lon="5.65024">
        <ele>153.320008</ele>
        <time>2020-07-16T03:54:54.446Z</time>
      </trkpt>
      <trkpt lat="61.56856" lon="5.64901">
        <ele>152.975372</ele>
        <time>2020-07-16T03:55:04.809Z</time>
      </trkpt>
      <trkpt lat="61.56854" lon="5.64841">
        <ele>152.791593</ele>
        <time>2020-07-16T03:55:09.699Z</time>
      </trkpt>
      <trkpt lat="61.5685" lon="5.6479">
        <ele>152.636304</ele>
        <time>2020-07-16T03:55:13.644Z</time>
      </trkpt>
      <trkpt lat="61.56834" lon="5.64661">
        <ele>152.237452</ele>
        <time>2020-07-16T03:55:23.400Z</time>
      </trkpt>
      <trkpt lat="61.56779" lon="5.64318">
        <ele>149.797764</ele>
        <time>2020-07-16T03:55:48.521Z</time>
      </trkpt>
      <trkpt lat="61.56757" lon="5.64181">
        <ele>149.285445</ele>
        <time>2020-07-16T03:55:58.959Z</time>
      </trkpt>
      <trkpt lat="61.56721" lon="5.63932">
        <ele>148.625096</ele>
        <time>2020-07-16T03:56:19.675Z</time>
      </trkpt>
      <trkpt lat="61.56716" lon="5.63712">
        <ele>149.694676</ele>
        <time>2020-07-16T03:56:41.500Z</time>
      </trkpt>
      <trkpt lat="61.56706" lon="5.63688">
        <ele>149.857365</ele>
        <time>2020-07-16T03:56:44.840Z</time>
      </trkpt>
      <trkpt lat="61.56721" lon="5.6365">
        <ele>150.104012</ele>
        <time>2020-07-16T03:56:50.281Z</time>
      </trkpt>
      <trkpt lat="61.56752" lon="5.63555">
        <ele>150.713475</ele>
        <time>2020-07-16T03:57:02.883Z</time>
      </trkpt>
      <trkpt lat="61.56804" lon="5.63368">
        <ele>152.029064</ele>
        <time>2020-07-16T03:57:26.833Z</time>
      </trkpt>
      <trkpt lat="61.56823" lon="5.63276">
        <ele>152.639945</ele>
        <time>2020-07-16T03:57:36.593Z</time>
      </trkpt>
      <trkpt lat="61.56832" lon="5.63184">
        <ele>152.819645</ele>
        <time>2020-07-16T03:57:45.175Z</time>
      </trkpt>
      <trkpt lat="61.56831" lon="5.63098">
        <ele>152.834906</ele>
        <time>2020-07-16T03:57:52.542Z</time>
      </trkpt>
      <trkpt lat="61.56805" lon="5.62865">
        <ele>152.909833</ele>
        <time>2020-07-16T03:58:12.036Z</time>
      </trkpt>
      <trkpt lat="61.56803" lon="5.62754">
        <ele>153.185795</ele>
        <time>2020-07-16T03:58:21.559Z</time>
      </trkpt>
      <trkpt lat="61.56809" lon="5.62675">
        <ele>153.383034</ele>
        <time>2020-07-16T03:58:28.780Z</time>
      </trkpt>
      <trkpt lat="61.56876" lon="5.62343">
        <ele>154.905556</ele>
        <time>2020-07-16T03:59:05.563Z</time>
      </trkpt>
      <trkpt lat="61.56882" lon="5.62273">
        <ele>155.31761</ele>
        <time>2020-07-16T03:59:13.114Z</time>
      </trkpt>
      <trkpt lat="61.56879" lon="5.62155">
        <ele>156.005557</ele>
        <time>2020-07-16T03:59:25.504Z</time>
      </trkpt>
      <trkpt lat="61.56866" lon="5.62082">
        <ele>156.319743</ele>
        <time>2020-07-16T03:59:33.474Z</time>
      </trkpt>
      <trkpt lat="61.56822" lon="5.61889">
        <ele>157.177487</ele>
        <time>2020-07-16T03:59:54.476Z</time>
      </trkpt>
      <trkpt lat="61.56812" lon="5.61792">
        <ele>157.549269</ele>
        <time>2020-07-16T04:00:03.688Z</time>
      </trkpt>
      <trkpt lat="61.56811" lon="5.61722">
        <ele>157.683565</ele>
        <time>2020-07-16T04:00:10.061Z</time>
      </trkpt>
      <trkpt lat="61.5681" lon="5.6155">
        <ele>158.013843</ele>
        <time>2020-07-16T04:00:25.678Z</time>
      </trkpt>
      <trkpt lat="61.56809" lon="5.61469">
        <ele>158.169485</ele>
        <time>2020-07-16T04:00:33.030Z</time>
      </trkpt>
      <trkpt lat="61.56811" lon="5.61339">
        <ele>158.399163</ele>
        <time>2020-07-16T04:00:44.812Z</time>
      </trkpt>
      <trkpt lat="61.56831" lon="5.61206">
        <ele>158.633008</ele>
        <time>2020-07-16T04:00:57.553Z</time>
      </trkpt>
      <trkpt lat="61.56851" lon="5.6114">
        <ele>158.766009</ele>
        <time>2020-07-16T04:01:04.767Z</time>
      </trkpt>
      <trkpt lat="61.56925" lon="5.60958">
        <ele>158.868792</ele>
        <time>2020-07-16T04:01:25.843Z</time>
      </trkpt>
      <trkpt lat="61.56947" lon="5.60851">
        <ele>158.856418</ele>
        <time>2020-07-16T04:01:35.618Z</time>
      </trkpt>
      <trkpt lat="61.5695" lon="5.60765">
        <ele>158.847233</ele>
        <time>2020-07-16T04:01:42.676Z</time>
      </trkpt>
      <trkpt lat="61.56945" lon="5.60686">
        <ele>158.648397</ele>
        <time>2020-07-16T04:01:49.035Z</time>
      </trkpt>
      <trkpt lat="61.56906" lon="5.60489">
        <ele>158.06659</ele>
        <time>2020-07-16T04:02:05.431Z</time>
      </trkpt>
      <trkpt lat="61.56896" lon="5.60415">
        <ele>157.854306</ele>
        <time>2020-07-16T04:02:11.288Z</time>
      </trkpt>
      <trkpt lat="61.56892" lon="5.60311">
        <ele>157.751028</ele>
        <time>2020-07-16T04:02:19.221Z</time>
      </trkpt>
      <trkpt lat="61.56896" lon="5.60215">
        <ele>157.683124</ele>
        <time>2020-07-16T04:02:27.096Z</time>
      </trkpt>
      <trkpt lat="61.56906" lon="5.60086">
        <ele>157.592049</ele>
        <time>2020-07-16T04:02:38.170Z</time>
      </trkpt>
      <trkpt lat="61.5691" lon="5.60042">
        <ele>157.56029</ele>
        <time>2020-07-16T04:02:42.210Z</time>
      </trkpt>
      <trkpt lat="61.56916" lon="5.5996">
        <ele>157.749279</ele>
        <time>2020-07-16T04:02:49.852Z</time>
      </trkpt>
      <trkpt lat="61.56918" lon="5.59887">
        <ele>157.973543</ele>
        <time>2020-07-16T04:02:56.805Z</time>
      </trkpt>
      <trkpt lat="61.56909" lon="5.59784">
        <ele>158.292603</ele>
        <time>2020-07-16T04:03:07.119Z</time>
      </trkpt>
      <trkpt lat="61.56895" lon="5.59712">
        <ele>158.530245</ele>
        <time>2020-07-16T04:03:15.010Z</time>
      </trkpt>
      <trkpt lat="61.56852" lon="5.59548">
        <ele>158.452774</ele>
        <time>2020-07-16T04:03:31.900Z</time>
      </trkpt>
      <trkpt lat="61.56846" lon="5.59511">
        <ele>158.37872</ele>
        <time>2020-07-16T04:03:35.288Z</time>
      </trkpt>
      <trkpt lat="61.56843" lon="5.5949">
        <ele>158.338605</ele>
        <time>2020-07-16T04:03:36.971Z</time>
      </trkpt>
      <trkpt lat="61.56841" lon="5.59469">
        <ele>158.298402</ele>
        <time>2020-07-16T04:03:38.721Z</time>
      </trkpt>
      <trkpt lat="61.5684" lon="5.5944">
        <ele>158.243092</ele>
        <time>2020-07-16T04:03:41.149Z</time>
      </trkpt>
      <trkpt lat="61.56839" lon="5.59407">
        <ele>158.180551</ele>
        <time>2020-07-16T04:03:43.687Z</time>
      </trkpt>
      <trkpt lat="61.5686" lon="5.59087">
        <ele>154.703821</ele>
        <time>2020-07-16T04:04:06.166Z</time>
      </trkpt>
      <trkpt lat="61.56859" lon="5.58957">
        <ele>152.766642</ele>
        <time>2020-07-16T04:04:13.900Z</time>
      </trkpt>
      <trkpt lat="61.56855" lon="5.58913">
        <ele>151.472865</ele>
        <time>2020-07-16T04:04:16.428Z</time>
      </trkpt>
      <trkpt lat="61.56848" lon="5.5885">
        <ele>148.226593</ele>
        <time>2020-07-16T04:04:19.950Z</time>
      </trkpt>
      <trkpt lat="61.56842" lon="5.58714">
        <ele>141.311391</ele>
        <time>2020-07-16T04:04:27.201Z</time>
      </trkpt>
      <trkpt lat="61.56866" lon="5.58404">
        <ele>121.735294</ele>
        <time>2020-07-16T04:04:42.812Z</time>
      </trkpt>
      <trkpt lat="61.5687" lon="5.58275">
        <ele>112.074813</ele>
        <time>2020-07-16T04:04:49.135Z</time>
      </trkpt>
      <trkpt lat="61.56871" lon="5.58212">
        <ele>107.369787</ele>
        <time>2020-07-16T04:04:52.236Z</time>
      </trkpt>
      <trkpt lat="61.56868" lon="5.58126">
        <ele>102.601883</ele>
        <time>2020-07-16T04:04:56.575Z</time>
      </trkpt>
      <trkpt lat="61.56863" lon="5.58">
        <ele>96.979334</ele>
        <time>2020-07-16T04:05:02.993Z</time>
      </trkpt>
      <trkpt lat="61.56862" lon="5.57952">
        <ele>94.851228</ele>
        <time>2020-07-16T04:05:05.501Z</time>
      </trkpt>
      <trkpt lat="61.5687" lon="5.57832">
        <ele>89.462922</ele>
        <time>2020-07-16T04:05:12.293Z</time>
      </trkpt>
      <trkpt lat="61.56912" lon="5.57568">
        <ele>85.299133</ele>
        <time>2020-07-16T04:05:31.702Z</time>
      </trkpt>
      <trkpt lat="61.56917" lon="5.57464">
        <ele>84.053925</ele>
        <time>2020-07-16T04:05:38.440Z</time>
      </trkpt>
      <trkpt lat="61.56916" lon="5.57431">
        <ele>83.587321</ele>
        <time>2020-07-16T04:05:40.551Z</time>
      </trkpt>
      <trkpt lat="61.56915" lon="5.5738">
        <ele>82.70623</ele>
        <time>2020-07-16T04:05:43.660Z</time>
      </trkpt>
      <trkpt lat="61.56913" lon="5.57328">
        <ele>81.795246</ele>
        <time>2020-07-16T04:05:46.738Z</time>
      </trkpt>
      <trkpt lat="61.56918" lon="5.57192">
        <ele>79.41865</ele>
        <time>2020-07-16T04:05:54.871Z</time>
      </trkpt>
      <trkpt lat="61.56928" lon="5.57092">
        <ele>77.646332</ele>
        <time>2020-07-16T04:06:00.968Z</time>
      </trkpt>
      <trkpt lat="61.56934" lon="5.5705">
        <ele>77.137571</ele>
        <time>2020-07-16T04:06:03.580Z</time>
      </trkpt>
      <trkpt lat="61.56943" lon="5.57001">
        <ele>76.885856</ele>
        <time>2020-07-16T04:06:07.065Z</time>
      </trkpt>
      <trkpt lat="61.56998" lon="5.56749">
        <ele>75.561201</ele>
        <time>2020-07-16T04:06:28.701Z</time>
      </trkpt>
      <trkpt lat="61.57013" lon="5.56647">
        <ele>75.672071</ele>
        <time>2020-07-16T04:06:38.972Z</time>
      </trkpt>
      <trkpt lat="61.57015" lon="5.56619">
        <ele>75.759921</ele>
        <time>2020-07-16T04:06:42.065Z</time>
      </trkpt>
      <trkpt lat="61.57015" lon="5.56586">
        <ele>75.86347</ele>
        <time>2020-07-16T04:06:44.996Z</time>
      </trkpt>
      <trkpt lat="61.57006" lon="5.56476">
        <ele>76.212653</ele>
        <time>2020-07-16T04:06:56.002Z</time>
      </trkpt>
      <trkpt lat="61.56972" lon="5.56324">
        <ele>76.750471</ele>
        <time>2020-07-16T04:07:12.200Z</time>
      </trkpt>
      <trkpt lat="61.56957" lon="5.56232">
        <ele>77.082923</ele>
        <time>2020-07-16T04:07:21.016Z</time>
      </trkpt>
      <trkpt lat="61.56941" lon="5.55909">
        <ele>78.259958</ele>
        <time>2020-07-16T04:07:52.537Z</time>
      </trkpt>
      <trkpt lat="61.56941" lon="5.5583">
        <ele>78.590354</ele>
        <time>2020-07-16T04:08:00.468Z</time>
      </trkpt>
      <trkpt lat="61.56943" lon="5.55801">
        <ele>78.712621</ele>
        <time>2020-07-16T04:08:03.302Z</time>
      </trkpt>
      <trkpt lat="61.56946" lon="5.55768">
        <ele>78.8496</ele>
        <time>2020-07-16T04:08:06.740Z</time>
      </trkpt>
      <trkpt lat="61.5696" lon="5.55683">
        <ele>79.227697</ele>
        <time>2020-07-16T04:08:15.706Z</time>
      </trkpt>
      <trkpt lat="61.57" lon="5.55507">
        <ele>79.468784</ele>
        <time>2020-07-16T04:08:34.452Z</time>
      </trkpt>
      <trkpt lat="61.57031" lon="5.55338">
        <ele>79.45845</ele>
        <time>2020-07-16T04:08:49.591Z</time>
      </trkpt>
      <trkpt lat="61.57064" lon="5.55075">
        <ele>77.352154</ele>
        <time>2020-07-16T04:09:09.321Z</time>
      </trkpt>
      <trkpt lat="61.57095" lon="5.54977">
        <ele>76.176287</ele>
        <time>2020-07-16T04:09:16.934Z</time>
      </trkpt>
      <trkpt lat="61.57191" lon="5.54812">
        <ele>70.363489</ele>
        <time>2020-07-16T04:09:32.216Z</time>
      </trkpt>
      <trkpt lat="61.57191" lon="5.54812">
        <ele>70.360964</ele>
        <time>2020-07-16T04:09:32.232Z</time>
      </trkpt>
      <trkpt lat="61.57225" lon="5.54756">
        <ele>68.051268</ele>
        <time>2020-07-16T04:09:37.387Z</time>
      </trkpt>
      <trkpt lat="61.57279" lon="5.54656">
        <ele>64.141782</ele>
        <time>2020-07-16T04:09:45.674Z</time>
      </trkpt>
      <trkpt lat="61.57324" lon="5.54551">
        <ele>60.430111</ele>
        <time>2020-07-16T04:09:53.453Z</time>
      </trkpt>
      <trkpt lat="61.57353" lon="5.54477">
        <ele>57.89408</ele>
        <time>2020-07-16T04:09:58.979Z</time>
      </trkpt>
      <trkpt lat="61.57378" lon="5.5441">
        <ele>56.084115</ele>
        <time>2020-07-16T04:10:04.057Z</time>
      </trkpt>
      <trkpt lat="61.57425" lon="5.54256">
        <ele>55.346839</ele>
        <time>2020-07-16T04:10:16.326Z</time>
      </trkpt>
      <trkpt lat="61.57435" lon="5.54214">
        <ele>55.16073</ele>
        <time>2020-07-16T04:10:20.237Z</time>
      </trkpt>
      <trkpt lat="61.57443" lon="5.54174">
        <ele>54.985376</ele>
        <time>2020-07-16T04:10:24.727Z</time>
      </trkpt>
      <trkpt lat="61.57451" lon="5.54121">
        <ele>54.761917</ele>
        <time>2020-07-16T04:10:30.685Z</time>
      </trkpt>
      <trkpt lat="61.57457" lon="5.54076">
        <ele>54.94341</ele>
        <time>2020-07-16T04:10:35.957Z</time>
      </trkpt>
      <trkpt lat="61.57459" lon="5.54057">
        <ele>55.285468</ele>
        <time>2020-07-16T04:10:38.207Z</time>
      </trkpt>
      <trkpt lat="61.57465" lon="5.53989">
        <ele>56.497267</ele>
        <time>2020-07-16T04:10:46.533Z</time>
      </trkpt>
      <trkpt lat="61.57475" lon="5.53745">
        <ele>60.750472</ele>
        <time>2020-07-16T04:11:21.409Z</time>
      </trkpt>
      <trkpt lat="61.57481" lon="5.53688">
        <ele>62.217594</ele>
        <time>2020-07-16T04:11:32.376Z</time>
      </trkpt>
      <trkpt lat="61.57496" lon="5.53599">
        <ele>65.276901</ele>
        <time>2020-07-16T04:11:49.970Z</time>
      </trkpt>
      <trkpt lat="61.57507" lon="5.53555">
        <ele>66.88407</ele>
        <time>2020-07-16T04:11:58.891Z</time>
      </trkpt>
      <trkpt lat="61.57523" lon="5.53496">
        <ele>69.058903</ele>
        <time>2020-07-16T04:12:11.838Z</time>
      </trkpt>
      <trkpt lat="61.57536" lon="5.53441">
        <ele>71.025828</ele>
        <time>2020-07-16T04:12:24.033Z</time>
      </trkpt>
      <trkpt lat="61.57544" lon="5.53399">
        <ele>72.491287</ele>
        <time>2020-07-16T04:12:33.107Z</time>
      </trkpt>
      <trkpt lat="61.57552" lon="5.53349">
        <ele>74.258742</ele>
        <time>2020-07-16T04:12:43.580Z</time>
      </trkpt>
      <trkpt lat="61.57559" lon="5.53241">
        <ele>78.036803</ele>
        <time>2020-07-16T04:13:07.007Z</time>
      </trkpt>
      <trkpt lat="61.5756" lon="5.52873">
        <ele>90.595069</ele>
        <time>2020-07-16T04:14:16.963Z</time>
      </trkpt>
      <trkpt lat="61.57582" lon="5.52602">
        <ele>99.424617</ele>
        <time>2020-07-16T04:15:09.652Z</time>
      </trkpt>
      <trkpt lat="61.57584" lon="5.52475">
        <ele>102.475929</ele>
        <time>2020-07-16T04:15:32.394Z</time>
      </trkpt>
      <trkpt lat="61.57572" lon="5.52373">
        <ele>104.999896</ele>
        <time>2020-07-16T04:15:49.872Z</time>
      </trkpt>
      <trkpt lat="61.57515" lon="5.52045">
        <ele>110.819404</ele>
        <time>2020-07-16T04:16:36.554Z</time>
      </trkpt>
      <trkpt lat="61.57469" lon="5.51723">
        <ele>114.658978</ele>
        <time>2020-07-16T04:17:14.242Z</time>
      </trkpt>
      <trkpt lat="61.57455" lon="5.51543">
        <ele>116.552608</ele>
        <time>2020-07-16T04:17:36.650Z</time>
      </trkpt>
      <trkpt lat="61.5746" lon="5.51405">
        <ele>118.124364</ele>
        <time>2020-07-16T04:17:53.934Z</time>
      </trkpt>
      <trkpt lat="61.57463" lon="5.51369">
        <ele>118.540701</ele>
        <time>2020-07-16T04:17:58.893Z</time>
      </trkpt>
      <trkpt lat="61.57469" lon="5.51329">
        <ele>119.028535</ele>
        <time>2020-07-16T04:18:04.162Z</time>
      </trkpt>
      <trkpt lat="61.57476" lon="5.51288">
        <ele>119.529341</ele>
        <time>2020-07-16T04:18:09.817Z</time>
      </trkpt>
      <trkpt lat="61.57483" lon="5.51254">
        <ele>119.958256</ele>
        <time>2020-07-16T04:18:14.244Z</time>
      </trkpt>
      <trkpt lat="61.57496" lon="5.51267">
        <ele>120.290113</ele>
        <time>2020-07-16T04:18:17.940Z</time>
      </trkpt>
      <trkpt lat="61.57499" lon="5.51267">
        <ele>120.367375</ele>
        <time>2020-07-16T04:18:18.826Z</time>
      </trkpt>
      <trkpt lat="61.57504" lon="5.5126">
        <ele>120.520754</ele>
        <time>2020-07-16T04:18:20.365Z</time>
      </trkpt>
      <trkpt lat="61.57514" lon="5.51224">
        <ele>120.991047</ele>
        <time>2020-07-16T04:18:25.224Z</time>
      </trkpt>
      <trkpt lat="61.57544" lon="5.51134">
        <ele>120.971545</ele>
        <time>2020-07-16T04:18:37.723Z</time>
      </trkpt>
      <trkpt lat="61.57688" lon="5.50814">
        <ele>118.39081</ele>
        <time>2020-07-16T04:19:11.754Z</time>
      </trkpt>
      <trkpt lat="61.57792" lon="5.50649">
        <ele>113.362613</ele>
        <time>2020-07-16T04:19:28.554Z</time>
      </trkpt>
      <trkpt lat="61.57818" lon="5.50592">
        <ele>110.949593</ele>
        <time>2020-07-16T04:19:33.170Z</time>
      </trkpt>
      <trkpt lat="61.57872" lon="5.5043">
        <ele>104.918398</ele>
        <time>2020-07-16T04:19:44.542Z</time>
      </trkpt>
      <trkpt lat="61.57971" lon="5.50065">
        <ele>90.96508</ele>
        <time>2020-07-16T04:20:08.461Z</time>
      </trkpt>
      <trkpt lat="61.57988" lon="5.49983">
        <ele>88.763795</ele>
        <time>2020-07-16T04:20:13.734Z</time>
      </trkpt>
      <trkpt lat="61.58003" lon="5.49859">
        <ele>85.629941</ele>
        <time>2020-07-16T04:20:21.485Z</time>
      </trkpt>
      <trkpt lat="61.58013" lon="5.49771">
        <ele>83.434932</ele>
        <time>2020-07-16T04:20:27.113Z</time>
      </trkpt>
      <trkpt lat="61.58024" lon="5.49677">
        <ele>81.442276</ele>
        <time>2020-07-16T04:20:33.221Z</time>
      </trkpt>
      <trkpt lat="61.58035" lon="5.49605">
        <ele>80.439666</ele>
        <time>2020-07-16T04:20:37.924Z</time>
      </trkpt>
      <trkpt lat="61.5805" lon="5.49533">
        <ele>79.385861</ele>
        <time>2020-07-16T04:20:42.925Z</time>
      </trkpt>
      <trkpt lat="61.58068" lon="5.49478">
        <ele>78.480251</ele>
        <time>2020-07-16T04:20:47.355Z</time>
      </trkpt>
      <trkpt lat="61.58096" lon="5.49407">
        <ele>77.234625</ele>
        <time>2020-07-16T04:20:53.794Z</time>
      </trkpt>
      <trkpt lat="61.58131" lon="5.4933">
        <ele>77.3987</ele>
        <time>2020-07-16T04:21:02.975Z</time>
      </trkpt>
      <trkpt lat="61.58168" lon="5.49267">
        <ele>78.134393</ele>
        <time>2020-07-16T04:21:12.934Z</time>
      </trkpt>
      <trkpt lat="61.58169" lon="5.49257">
        <ele>78.204866</ele>
        <time>2020-07-16T04:21:13.811Z</time>
      </trkpt>
      <trkpt lat="61.58162" lon="5.49236">
        <ele>78.387278</ele>
        <time>2020-07-16T04:21:15.838Z</time>
      </trkpt>
      <trkpt lat="61.58221" lon="5.49113">
        <ele>79.797483</ele>
        <time>2020-07-16T04:21:38.995Z</time>
      </trkpt>
      <trkpt lat="61.58279" lon="5.48979">
        <ele>84.541093</ele>
        <time>2020-07-16T04:22:08.679Z</time>
      </trkpt>
      <trkpt lat="61.58285" lon="5.48993">
        <ele>85.051959</ele>
        <time>2020-07-16T04:22:13.737Z</time>
      </trkpt>
      <trkpt lat="61.5829" lon="5.48986">
        <ele>85.402533</ele>
        <time>2020-07-16T04:22:16.245Z</time>
      </trkpt>
      <trkpt lat="61.58294" lon="5.48975">
        <ele>85.762172</ele>
        <time>2020-07-16T04:22:18.593Z</time>
      </trkpt>
      <trkpt lat="61.5831" lon="5.48952">
        <ele>86.822839</ele>
        <time>2020-07-16T04:22:26.573Z</time>
      </trkpt>
      <trkpt lat="61.58309" lon="5.48928">
        <ele>87.458485</ele>
        <time>2020-07-16T04:22:31.311Z</time>
      </trkpt>
      <trkpt lat="61.58307" lon="5.48923">
        <ele>87.664357</ele>
        <time>2020-07-16T04:22:32.748Z</time>
      </trkpt>
      <trkpt lat="61.58297" lon="5.48906">
        <ele>88.363216</ele>
        <time>2020-07-16T04:22:35.777Z</time>
      </trkpt>
      <trkpt lat="61.58294" lon="5.48899">
        <ele>88.62273</ele>
        <time>2020-07-16T04:22:39.036Z</time>
      </trkpt>
      <trkpt lat="61.58297" lon="5.48876">
        <ele>89.257525</ele>
        <time>2020-07-16T04:22:43.667Z</time>
      </trkpt>
      <trkpt lat="61.58334" lon="5.48807">
        <ele>90.787171</ele>
        <time>2020-07-16T04:23:00.336Z</time>
      </trkpt>
      <trkpt lat="61.5837" lon="5.4869">
        <ele>92.666048</ele>
        <time>2020-07-16T04:23:21.719Z</time>
      </trkpt>
      <trkpt lat="61.58395" lon="5.48605">
        <ele>94.011122</ele>
        <time>2020-07-16T04:23:34.424Z</time>
      </trkpt>
      <trkpt lat="61.58452" lon="5.48413">
        <ele>90.138157</ele>
        <time>2020-07-16T04:23:49.237Z</time>
      </trkpt>
      <trkpt lat="61.58482" lon="5.48331">
        <ele>87.571211</ele>
        <time>2020-07-16T04:23:55.229Z</time>
      </trkpt>
      <trkpt lat="61.58493" lon="5.48328">
        <ele>87.009564</ele>
        <time>2020-07-16T04:23:56.471Z</time>
      </trkpt>
      <trkpt lat="61.58495" lon="5.48299">
        <ele>86.279234</ele>
        <time>2020-07-16T04:23:58.006Z</time>
      </trkpt>
      <trkpt lat="61.58507" lon="5.48243">
        <ele>84.471458</ele>
        <time>2020-07-16T04:24:01.274Z</time>
      </trkpt>
      <trkpt lat="61.58531" lon="5.48188">
        <ele>81.535969</ele>
        <time>2020-07-16T04:24:05.214Z</time>
      </trkpt>
      <trkpt lat="61.58557" lon="5.4815">
        <ele>78.94563</ele>
        <time>2020-07-16T04:24:08.677Z</time>
      </trkpt>
      <trkpt lat="61.58651" lon="5.48052">
        <ele>70.294805</ele>
        <time>2020-07-16T04:24:20.485Z</time>
      </trkpt>
      <trkpt lat="61.58676" lon="5.48012">
        <ele>68.137459</ele>
        <time>2020-07-16T04:24:24.127Z</time>
      </trkpt>
      <trkpt lat="61.58695" lon="5.4796">
        <ele>66.007564</ele>
        <time>2020-07-16T04:24:27.735Z</time>
      </trkpt>
      <trkpt lat="61.58709" lon="5.47886">
        <ele>63.408883</ele>
        <time>2020-07-16T04:24:32.088Z</time>
      </trkpt>
      <trkpt lat="61.58743" lon="5.47692">
        <ele>56.595606</ele>
        <time>2020-07-16T04:24:43.581Z</time>
      </trkpt>
      <trkpt lat="61.5875" lon="5.4764">
        <ele>54.796246</ele>
        <time>2020-07-16T04:24:46.537Z</time>
      </trkpt>
      <trkpt lat="61.58754" lon="5.47605">
        <ele>53.579288</ele>
        <time>2020-07-16T04:24:48.469Z</time>
      </trkpt>
      <trkpt lat="61.58761" lon="5.47471">
        <ele>49.071528</ele>
        <time>2020-07-16T04:24:55.863Z</time>
      </trkpt>
      <trkpt lat="61.58762" lon="5.47307">
        <ele>43.630223</ele>
        <time>2020-07-16T04:25:04.765Z</time>
      </trkpt>
      <trkpt lat="61.58763" lon="5.47126">
        <ele>37.669759</ele>
        <time>2020-07-16T04:25:14.694Z</time>
      </trkpt>
      <trkpt lat="61.58763" lon="5.47028">
        <ele>34.467385</ele>
        <time>2020-07-16T04:25:20.092Z</time>
      </trkpt>
      <trkpt lat="61.58764" lon="5.46987">
        <ele>33.123941</ele>
        <time>2020-07-16T04:25:22.339Z</time>
      </trkpt>
      <trkpt lat="61.58793" lon="5.46762">
        <ele>25.197048</ele>
        <time>2020-07-16T04:25:35.116Z</time>
      </trkpt>
      <trkpt lat="61.58796" lon="5.46655">
        <ele>21.53916</ele>
        <time>2020-07-16T04:25:40.958Z</time>
      </trkpt>
      <trkpt lat="61.58794" lon="5.46553">
        <ele>18.029198</ele>
        <time>2020-07-16T04:25:46.458Z</time>
      </trkpt>
      <trkpt lat="61.58791" lon="5.46474">
        <ele>15.307116</ele>
        <time>2020-07-16T04:25:50.659Z</time>
      </trkpt>
      <trkpt lat="61.58791" lon="5.4635">
        <ele>11.009724</ele>
        <time>2020-07-16T04:25:57.317Z</time>
      </trkpt>
      <trkpt lat="61.58795" lon="5.463">
        <ele>9.253848</ele>
        <time>2020-07-16T04:26:00.171Z</time>
      </trkpt>
      <trkpt lat="61.58797" lon="5.46282">
        <ele>8.619342</ele>
        <time>2020-07-16T04:26:01.116Z</time>
      </trkpt>
      <trkpt lat="61.588" lon="5.46266">
        <ele>8.039964</ele>
        <time>2020-07-16T04:26:02.068Z</time>
      </trkpt>
      <trkpt lat="61.58806" lon="5.46233">
        <ele>6.94717</ele>
        <time>2020-07-16T04:26:04.178Z</time>
      </trkpt>
      <trkpt lat="61.58811" lon="5.46211">
        <ele>6.582526</ele>
        <time>2020-07-16T04:26:05.479Z</time>
      </trkpt>
      <trkpt lat="61.58814" lon="5.46212">
        <ele>6.482194</ele>
        <time>2020-07-16T04:26:05.895Z</time>
      </trkpt>
      <trkpt lat="61.58827" lon="5.46208">
        <ele>6.059685</ele>
        <time>2020-07-16T04:26:07.640Z</time>
      </trkpt>
      <trkpt lat="61.58831" lon="5.46203">
        <ele>5.901726</ele>
        <time>2020-07-16T04:26:08.302Z</time>
      </trkpt>
      <trkpt lat="61.58845" lon="5.46187">
        <ele>5.411846</ele>
        <time>2020-07-16T04:26:10.149Z</time>
      </trkpt>
      <trkpt lat="61.58882" lon="5.46163">
        <ele>4.201649</ele>
        <time>2020-07-16T04:26:15.113Z</time>
      </trkpt>
      <trkpt lat="61.58904" lon="5.46158">
        <ele>3.494657</ele>
        <time>2020-07-16T04:26:18.163Z</time>
      </trkpt>
      <trkpt lat="61.5893" lon="5.46154">
        <ele>2.671665</ele>
        <time>2020-07-16T04:26:21.612Z</time>
      </trkpt>
      <trkpt lat="61.58942" lon="5.46149">
        <ele>2.284906</ele>
        <time>2020-07-16T04:26:23.370Z</time>
      </trkpt>
      <trkpt lat="61.58949" lon="5.46145">
        <ele>2.059529</ele>
        <time>2020-07-16T04:26:24.483Z</time>
      </trkpt>
      <trkpt lat="61.58954" lon="5.46143">
        <ele>1.922326</ele>
        <time>2020-07-16T04:26:25.462Z</time>
      </trkpt>
      <trkpt lat="61.58979" lon="5.46117">
        <ele>1.505189</ele>
        <time>2020-07-16T04:26:30.217Z</time>
      </trkpt>
      <trkpt lat="61.58986" lon="5.46105">
        <ele>1.586603</ele>
        <time>2020-07-16T04:26:32.419Z</time>
      </trkpt>
      <trkpt lat="61.58996" lon="5.46086">
        <ele>1.700485</ele>
        <time>2020-07-16T04:26:34.701Z</time>
      </trkpt>
      <trkpt lat="61.59006" lon="5.46057">
        <ele>1.84148</ele>
        <time>2020-07-16T04:26:38.213Z</time>
      </trkpt>
      <trkpt lat="61.59016" lon="5.46014">
        <ele>2.034879</ele>
        <time>2020-07-16T04:26:42.687Z</time>
      </trkpt>
      <trkpt lat="61.59024" lon="5.45971">
        <ele>2.217012</ele>
        <time>2020-07-16T04:26:47.650Z</time>
      </trkpt>
      <trkpt lat="61.59093" lon="5.45641">
        <ele>5.540242</ele>
        <time>2020-07-16T04:27:26.433Z</time>
      </trkpt>
      <trkpt lat="61.5911" lon="5.45557">
        <ele>6.830544</ele>
        <time>2020-07-16T04:27:39.184Z</time>
      </trkpt>
      <trkpt lat="61.59126" lon="5.45484">
        <ele>7.975878</ele>
        <time>2020-07-16T04:27:51.521Z</time>
      </trkpt>
      <trkpt lat="61.59169" lon="5.4528">
        <ele>13.713139</ele>
        <time>2020-07-16T04:28:28.839Z</time>
      </trkpt>
      <trkpt lat="61.59198" lon="5.45144">
        <ele>17.754886</ele>
        <time>2020-07-16T04:28:57.431Z</time>
      </trkpt>
      <trkpt lat="61.5921" lon="5.45097">
        <ele>18.882804</ele>
        <time>2020-07-16T04:29:06.276Z</time>
      </trkpt>
      <trkpt lat="61.59231" lon="5.45023">
        <ele>20.184668</ele>
        <time>2020-07-16T04:29:19.631Z</time>
      </trkpt>
      <trkpt lat="61.59251" lon="5.44953">
        <ele>21.416017</ele>
        <time>2020-07-16T04:29:30.454Z</time>
      </trkpt>
      <trkpt lat="61.5926" lon="5.44911">
        <ele>22.111753</ele>
        <time>2020-07-16T04:29:35.710Z</time>
      </trkpt>
      <trkpt lat="61.59268" lon="5.44862">
        <ele>22.907167</ele>
        <time>2020-07-16T04:29:42.207Z</time>
      </trkpt>
      <trkpt lat="61.593" lon="5.44599">
        <ele>25.543898</ele>
        <time>2020-07-16T04:30:10.882Z</time>
      </trkpt>
      <trkpt lat="61.59307" lon="5.44555">
        <ele>25.876253</ele>
        <time>2020-07-16T04:30:15.720Z</time>
      </trkpt>
      <trkpt lat="61.59325" lon="5.44485">
        <ele>26.451107</ele>
        <time>2020-07-16T04:30:23.539Z</time>
      </trkpt>
      <trkpt lat="61.59365" lon="5.44361">
        <ele>28.382746</ele>
        <time>2020-07-16T04:30:40.743Z</time>
      </trkpt>
      <trkpt lat="61.59371" lon="5.44345">
        <ele>28.731933</ele>
        <time>2020-07-16T04:30:43.272Z</time>
      </trkpt>
      <trkpt lat="61.5938" lon="5.44319">
        <ele>29.304765</ele>
        <time>2020-07-16T04:30:47.751Z</time>
      </trkpt>
      <trkpt lat="61.59392" lon="5.44283">
        <ele>30.08334</ele>
        <time>2020-07-16T04:30:54.134Z</time>
      </trkpt>
      <trkpt lat="61.59422" lon="5.44186">
        <ele>32.12881</ele>
        <time>2020-07-16T04:31:10.922Z</time>
      </trkpt>
      <trkpt lat="61.59453" lon="5.44092">
        <ele>34.33416</ele>
        <time>2020-07-16T04:31:29.236Z</time>
      </trkpt>
      <trkpt lat="61.59507" lon="5.43927">
        <ele>39.263964</ele>
        <time>2020-07-16T04:32:05.948Z</time>
      </trkpt>
      <trkpt lat="61.59532" lon="5.43853">
        <ele>41.525551</ele>
        <time>2020-07-16T04:32:20.712Z</time>
      </trkpt>
      <trkpt lat="61.59544" lon="5.43819">
        <ele>42.546073</ele>
        <time>2020-07-16T04:32:26.963Z</time>
      </trkpt>
      <trkpt lat="61.59555" lon="5.43802">
        <ele>42.827301</ele>
        <time>2020-07-16T04:32:30.601Z</time>
      </trkpt>
      <trkpt lat="61.5956" lon="5.438">
        <ele>42.775732</ele>
        <time>2020-07-16T04:32:32.447Z</time>
      </trkpt>
      <trkpt lat="61.59576" lon="5.43814">
        <ele>42.603659</ele>
        <time>2020-07-16T04:32:36.707Z</time>
      </trkpt>
      <trkpt lat="61.59581" lon="5.43824">
        <ele>42.530731</ele>
        <time>2020-07-16T04:32:38.503Z</time>
      </trkpt>
      <trkpt lat="61.59584" lon="5.43787">
        <ele>42.345588</ele>
        <time>2020-07-16T04:32:42.828Z</time>
      </trkpt>
      <trkpt lat="61.59591" lon="5.43722">
        <ele>42.01833</ele>
        <time>2020-07-16T04:32:49.093Z</time>
      </trkpt>
      <trkpt lat="61.59602" lon="5.43637">
        <ele>41.5855</ele>
        <time>2020-07-16T04:32:55.592Z</time>
      </trkpt>
      <trkpt lat="61.59642" lon="5.43451">
        <ele>37.410564</ele>
        <time>2020-07-16T04:33:07.037Z</time>
      </trkpt>
      <trkpt lat="61.59685" lon="5.43283">
        <ele>30.048993</ele>
        <time>2020-07-16T04:33:17.021Z</time>
      </trkpt>
      <trkpt lat="61.59724" lon="5.43133">
        <ele>24.112742</ele>
        <time>2020-07-16T04:33:25.981Z</time>
      </trkpt>
      <trkpt lat="61.59788" lon="5.42874">
        <ele>15.311963</ele>
        <time>2020-07-16T04:33:42.259Z</time>
      </trkpt>
      <trkpt lat="61.59822" lon="5.42715">
        <ele>13.860661</ele>
        <time>2020-07-16T04:33:54.674Z</time>
      </trkpt>
      <trkpt lat="61.59829" lon="5.4268">
        <ele>13.586656</ele>
        <time>2020-07-16T04:33:57.628Z</time>
      </trkpt>
      <trkpt lat="61.59846" lon="5.42575">
        <ele>12.776759</ele>
        <time>2020-07-16T04:34:06.022Z</time>
      </trkpt>
      <trkpt lat="61.59901" lon="5.42199">
        <ele>12.030543</ele>
        <time>2020-07-16T04:34:36.366Z</time>
      </trkpt>
      <trkpt lat="61.59971" lon="5.41875">
        <ele>14.548565</ele>
        <time>2020-07-16T04:35:15.799Z</time>
      </trkpt>
      <trkpt lat="61.60014" lon="5.41771">
        <ele>15.228376</ele>
        <time>2020-07-16T04:35:33.979Z</time>
      </trkpt>
      <trkpt lat="61.60065" lon="5.41695">
        <ele>15.419215</ele>
        <time>2020-07-16T04:35:46.645Z</time>
      </trkpt>
      <trkpt lat="61.60079" lon="5.41676">
        <ele>15.471349</ele>
        <time>2020-07-16T04:35:50.621Z</time>
      </trkpt>
      <trkpt lat="61.60099" lon="5.41651">
        <ele>15.542816</ele>
        <time>2020-07-16T04:35:54.218Z</time>
      </trkpt>
      <trkpt lat="61.6013" lon="5.41604">
        <ele>15.661381</ele>
        <time>2020-07-16T04:36:00.311Z</time>
      </trkpt>
      <trkpt lat="61.60132" lon="5.416">
        <ele>15.668473</ele>
        <time>2020-07-16T04:36:00.584Z</time>
      </trkpt>
      <trkpt lat="61.60154" lon="5.41553">
        <ele>14.793293</ele>
        <time>2020-07-16T04:36:04.868Z</time>
      </trkpt>
      <trkpt lat="61.60205" lon="5.41374">
        <ele>11.483741</ele>
        <time>2020-07-16T04:36:17.251Z</time>
      </trkpt>
      <trkpt lat="61.6024" lon="5.41245">
        <ele>9.384901</ele>
        <time>2020-07-16T04:36:26.360Z</time>
      </trkpt>
      <trkpt lat="61.6025" lon="5.41207">
        <ele>9.005823</ele>
        <time>2020-07-16T04:36:29.479Z</time>
      </trkpt>
      <trkpt lat="61.60275" lon="5.41116">
        <ele>8.107561</ele>
        <time>2020-07-16T04:36:36.511Z</time>
      </trkpt>
      <trkpt lat="61.60329" lon="5.40917">
        <ele>6.466466</ele>
        <time>2020-07-16T04:36:52.562Z</time>
      </trkpt>
      <trkpt lat="61.60369" lon="5.4077">
        <ele>6.608052</ele>
        <time>2020-07-16T04:37:08.132Z</time>
      </trkpt>
      <trkpt lat="61.60409" lon="5.40623">
        <ele>6.74984</ele>
        <time>2020-07-16T04:37:23.378Z</time>
      </trkpt>
      <trkpt lat="61.60428" lon="5.40553">
        <ele>7.286775</ele>
        <time>2020-07-16T04:37:31.115Z</time>
      </trkpt>
      <trkpt lat="61.60444" lon="5.40485">
        <ele>7.819376</ele>
        <time>2020-07-16T04:37:40.035Z</time>
      </trkpt>
      <trkpt lat="61.60454" lon="5.40423">
        <ele>8.280011</ele>
        <time>2020-07-16T04:37:48.401Z</time>
      </trkpt>
      <trkpt lat="61.60461" lon="5.40332">
        <ele>8.929484</ele>
        <time>2020-07-16T04:37:58.594Z</time>
      </trkpt>
      <trkpt lat="61.60475" lon="5.40146">
        <ele>9.749401</ele>
        <time>2020-07-16T04:38:16.888Z</time>
      </trkpt>
      <trkpt lat="61.605" lon="5.40021">
        <ele>10.131592</ele>
        <time>2020-07-16T04:38:29.852Z</time>
      </trkpt>
      <trkpt lat="61.60532" lon="5.39911">
        <ele>10.473565</ele>
        <time>2020-07-16T04:38:41.380Z</time>
      </trkpt>
      <trkpt lat="61.60651" lon="5.39509">
        <ele>10.796038</ele>
        <time>2020-07-16T04:39:20.363Z</time>
      </trkpt>
      <trkpt lat="61.60682" lon="5.39391">
        <ele>11.456067</ele>
        <time>2020-07-16T04:39:31.897Z</time>
      </trkpt>
      <trkpt lat="61.60752" lon="5.39067">
        <ele>15.905363</ele>
        <time>2020-07-16T04:40:17.336Z</time>
      </trkpt>
      <trkpt lat="61.60763" lon="5.39024">
        <ele>16.769095</ele>
        <time>2020-07-16T04:40:25.345Z</time>
      </trkpt>
      <trkpt lat="61.6078" lon="5.38968">
        <ele>17.928902</ele>
        <time>2020-07-16T04:40:36.129Z</time>
      </trkpt>
      <trkpt lat="61.60799" lon="5.3891">
        <ele>19.035607</ele>
        <time>2020-07-16T04:40:47.128Z</time>
      </trkpt>
      <trkpt lat="61.60825" lon="5.38831">
        <ele>20.17477</ele>
        <time>2020-07-16T04:41:02.047Z</time>
      </trkpt>
      <trkpt lat="61.60832" lon="5.38808">
        <ele>20.509378</ele>
        <time>2020-07-16T04:41:06.135Z</time>
      </trkpt>
      <trkpt lat="61.60854" lon="5.38716">
        <ele>21.72934</ele>
        <time>2020-07-16T04:41:20.470Z</time>
      </trkpt>
      <trkpt lat="61.60868" lon="5.38569">
        <ele>23.001801</ele>
        <time>2020-07-16T04:41:34.758Z</time>
      </trkpt>
      <trkpt lat="61.60865" lon="5.37973">
        <ele>13.620725</ele>
        <time>2020-07-16T04:42:10.996Z</time>
      </trkpt>
      <trkpt lat="61.60867" lon="5.37845">
        <ele>11.336025</ele>
        <time>2020-07-16T04:42:18.530Z</time>
      </trkpt>
      <trkpt lat="61.60873" lon="5.3777">
        <ele>10.449485</ele>
        <time>2020-07-16T04:42:23.236Z</time>
      </trkpt>
      <trkpt lat="61.60879" lon="5.37734">
        <ele>10.062987</ele>
        <time>2020-07-16T04:42:25.602Z</time>
      </trkpt>
      <trkpt lat="61.60874" lon="5.37731">
        <ele>9.951133</ele>
        <time>2020-07-16T04:42:26.330Z</time>
      </trkpt>
      <trkpt lat="61.60868" lon="5.37725">
        <ele>9.808573</ele>
        <time>2020-07-16T04:42:27.369Z</time>
      </trkpt>
      <trkpt lat="61.60865" lon="5.37718">
        <ele>9.713987</ele>
        <time>2020-07-16T04:42:27.967Z</time>
      </trkpt>
      <trkpt lat="61.60864" lon="5.37709">
        <ele>9.609838</ele>
        <time>2020-07-16T04:42:28.636Z</time>
      </trkpt>
      <trkpt lat="61.60869" lon="5.37681">
        <ele>9.302273</ele>
        <time>2020-07-16T04:42:30.742Z</time>
      </trkpt>
      <trkpt lat="61.60904" lon="5.37582">
        <ele>8.039514</ele>
        <time>2020-07-16T04:42:39.753Z</time>
      </trkpt>
      <trkpt lat="61.60942" lon="5.37443">
        <ele>7.013557</ele>
        <time>2020-07-16T04:42:51.789Z</time>
      </trkpt>
      <trkpt lat="61.60954" lon="5.37348">
        <ele>6.767287</ele>
        <time>2020-07-16T04:43:00.357Z</time>
      </trkpt>
      <trkpt lat="61.60953" lon="5.37319">
        <ele>6.694758</ele>
        <time>2020-07-16T04:43:03.145Z</time>
      </trkpt>
      <trkpt lat="61.60953" lon="5.37262">
        <ele>6.549938</ele>
        <time>2020-07-16T04:43:08.111Z</time>
      </trkpt>
      <trkpt lat="61.60953" lon="5.37236">
        <ele>6.48496</ele>
        <time>2020-07-16T04:43:10.423Z</time>
      </trkpt>
      <trkpt lat="61.60953" lon="5.37209">
        <ele>6.417953</ele>
        <time>2020-07-16T04:43:12.480Z</time>
      </trkpt>
      <trkpt lat="61.60956" lon="5.37156">
        <ele>6.283856</ele>
        <time>2020-07-16T04:43:17.031Z</time>
      </trkpt>
      <trkpt lat="61.60999" lon="5.36894">
        <ele>5.265072</ele>
        <time>2020-07-16T04:43:38.148Z</time>
      </trkpt>
      <trkpt lat="61.61" lon="5.36832">
        <ele>5.035748</ele>
        <time>2020-07-16T04:43:43.276Z</time>
      </trkpt>
      <trkpt lat="61.60997" lon="5.36737">
        <ele>4.779252</ele>
        <time>2020-07-16T04:43:51.351Z</time>
      </trkpt>
      <trkpt lat="61.60996" lon="5.36714">
        <ele>4.740522</ele>
        <time>2020-07-16T04:43:53.251Z</time>
      </trkpt>
      <trkpt lat="61.60995" lon="5.36655">
        <ele>4.63904</ele>
        <time>2020-07-16T04:43:58.664Z</time>
      </trkpt>
      <trkpt lat="61.60998" lon="5.36596">
        <ele>4.537986</ele>
        <time>2020-07-16T04:44:04.191Z</time>
      </trkpt>
      <trkpt lat="61.61032" lon="5.36388">
        <ele>4.098925</ele>
        <time>2020-07-16T04:44:21.965Z</time>
      </trkpt>
      <trkpt lat="61.61035" lon="5.36374">
        <ele>4.044189</ele>
        <time>2020-07-16T04:44:23.117Z</time>
      </trkpt>
      <trkpt lat="61.61044" lon="5.36332">
        <ele>3.87371</ele>
        <time>2020-07-16T04:44:26.728Z</time>
      </trkpt>
      <trkpt lat="61.61045" lon="5.3632">
        <ele>3.830537</ele>
        <time>2020-07-16T04:44:27.879Z</time>
      </trkpt>
      <trkpt lat="61.61047" lon="5.36276">
        <ele>3.669208</ele>
        <time>2020-07-16T04:44:31.089Z</time>
      </trkpt>
      <trkpt lat="61.61044" lon="5.36164">
        <ele>3.260888</ele>
        <time>2020-07-16T04:44:39.935Z</time>
      </trkpt>
      <trkpt lat="61.61034" lon="5.36106">
        <ele>3.035503</ele>
        <time>2020-07-16T04:44:44.912Z</time>
      </trkpt>
      <trkpt lat="61.61031" lon="5.36049">
        <ele>2.836796</ele>
        <time>2020-07-16T04:44:49.553Z</time>
      </trkpt>
      <trkpt lat="61.6103" lon="5.35994">
        <ele>2.847605</ele>
        <time>2020-07-16T04:44:54.003Z</time>
      </trkpt>
      <trkpt lat="61.61041" lon="5.35922">
        <ele>2.862261</ele>
        <time>2020-07-16T04:45:00.190Z</time>
      </trkpt>
      <trkpt lat="61.61046" lon="5.35902">
        <ele>2.866704</ele>
        <time>2020-07-16T04:45:02.231Z</time>
      </trkpt>
      <trkpt lat="61.61053" lon="5.35878">
        <ele>2.871939</ele>
        <time>2020-07-16T04:45:04.674Z</time>
      </trkpt>
      <trkpt lat="61.61067" lon="5.35846">
        <ele>2.880546</ele>
        <time>2020-07-16T04:45:08.666Z</time>
      </trkpt>
      <trkpt lat="61.61075" lon="5.35827">
        <ele>2.88558</ele>
        <time>2020-07-16T04:45:11.096Z</time>
      </trkpt>
      <trkpt lat="61.61092" lon="5.3579">
        <ele>2.895325</ele>
        <time>2020-07-16T04:45:15.763Z</time>
      </trkpt>
      <trkpt lat="61.61103" lon="5.35764">
        <ele>2.902159</ele>
        <time>2020-07-16T04:45:19.125Z</time>
      </trkpt>
      <trkpt lat="61.61105" lon="5.3576">
        <ele>2.903396</ele>
        <time>2020-07-16T04:45:19.701Z</time>
      </trkpt>
      <trkpt lat="61.61132" lon="5.35704">
        <ele>3.252982</ele>
        <time>2020-07-16T04:45:27.447Z</time>
      </trkpt>
      <trkpt lat="61.61144" lon="5.35659">
        <ele>3.644305</ele>
        <time>2020-07-16T04:45:32.895Z</time>
      </trkpt>
      <trkpt lat="61.61149" lon="5.35607">
        <ele>4.04208</ele>
        <time>2020-07-16T04:45:38.744Z</time>
      </trkpt>
      <trkpt lat="61.61149" lon="5.3555">
        <ele>4.465544</ele>
        <time>2020-07-16T04:45:44.916Z</time>
      </trkpt>
      <trkpt lat="61.6114" lon="5.35483">
        <ele>4.992203</ele>
        <time>2020-07-16T04:45:52.761Z</time>
      </trkpt>
      <trkpt lat="61.61137" lon="5.35427">
        <ele>5.417655</ele>
        <time>2020-07-16T04:45:59.717Z</time>
      </trkpt>
      <trkpt lat="61.61141" lon="5.3538">
        <ele>5.784588</ele>
        <time>2020-07-16T04:46:05.782Z</time>
      </trkpt>
      <trkpt lat="61.61148" lon="5.3534">
        <ele>6.351824</ele>
        <time>2020-07-16T04:46:11.320Z</time>
      </trkpt>
      <trkpt lat="61.61167" lon="5.35267">
        <ele>7.439744</ele>
        <time>2020-07-16T04:46:22.357Z</time>
      </trkpt>
      <trkpt lat="61.61206" lon="5.35118">
        <ele>9.675251</ele>
        <time>2020-07-16T04:46:45.965Z</time>
      </trkpt>
      <trkpt lat="61.61213" lon="5.35091">
        <ele>10.067125</ele>
        <time>2020-07-16T04:46:49.981Z</time>
      </trkpt>
      <trkpt lat="61.61236" lon="5.35006">
        <ele>10.789746</ele>
        <time>2020-07-16T04:47:02.238Z</time>
      </trkpt>
      <trkpt lat="61.61251" lon="5.34941">
        <ele>10.920639</ele>
        <time>2020-07-16T04:47:09.625Z</time>
      </trkpt>
      <trkpt lat="61.61253" lon="5.34924">
        <ele>10.952098</ele>
        <time>2020-07-16T04:47:11.472Z</time>
      </trkpt>
      <trkpt lat="61.61261" lon="5.3487">
        <ele>11.053782</ele>
        <time>2020-07-16T04:47:16.334Z</time>
      </trkpt>
      <trkpt lat="61.61265" lon="5.34781">
        <ele>11.215789</ele>
        <time>2020-07-16T04:47:23.628Z</time>
      </trkpt>
      <trkpt lat="61.61269" lon="5.34695">
        <ele>11.371674</ele>
        <time>2020-07-16T04:47:30.396Z</time>
      </trkpt>
      <trkpt lat="61.61275" lon="5.34621">
        <ele>11.303422</ele>
        <time>2020-07-16T04:47:36.535Z</time>
      </trkpt>
      <trkpt lat="61.61303" lon="5.34494">
        <ele>11.136441</ele>
        <time>2020-07-16T04:47:47.737Z</time>
      </trkpt>
      <trkpt lat="61.61314" lon="5.34442">
        <ele>11.068172</ele>
        <time>2020-07-16T04:47:52.286Z</time>
      </trkpt>
      <trkpt lat="61.61327" lon="5.34348">
        <ele>10.952703</ele>
        <time>2020-07-16T04:48:01.184Z</time>
      </trkpt>
      <trkpt lat="61.61347" lon="5.3415">
        <ele>11.381259</ele>
        <time>2020-07-16T04:48:21.632Z</time>
      </trkpt>
      <trkpt lat="61.6135" lon="5.34004">
        <ele>11.729341</ele>
        <time>2020-07-16T04:48:35.386Z</time>
      </trkpt>
      <trkpt lat="61.61326" lon="5.33659">
        <ele>11.084462</ele>
        <time>2020-07-16T04:49:02.493Z</time>
      </trkpt>
      <trkpt lat="61.61326" lon="5.33567">
        <ele>11.007519</ele>
        <time>2020-07-16T04:49:09.371Z</time>
      </trkpt>
      <trkpt lat="61.61336" lon="5.33402">
        <ele>12.052469</ele>
        <time>2020-07-16T04:49:22.104Z</time>
      </trkpt>
      <trkpt lat="61.61359" lon="5.33207">
        <ele>13.490797</ele>
        <time>2020-07-16T04:49:46.309Z</time>
      </trkpt>
      <trkpt lat="61.61363" lon="5.33098">
        <ele>17.190422</ele>
        <time>2020-07-16T04:50:05.762Z</time>
      </trkpt>
      <trkpt lat="61.61362" lon="5.33059">
        <ele>18.529603</ele>
        <time>2020-07-16T04:50:13.012Z</time>
      </trkpt>
      <trkpt lat="61.61359" lon="5.33016">
        <ele>20.008583</ele>
        <time>2020-07-16T04:50:22.837Z</time>
      </trkpt>
      <trkpt lat="61.61354" lon="5.32974">
        <ele>21.482482</ele>
        <time>2020-07-16T04:50:31.598Z</time>
      </trkpt>
      <trkpt lat="61.61352" lon="5.32965">
        <ele>21.803589</ele>
        <time>2020-07-16T04:50:34.743Z</time>
      </trkpt>
      <trkpt lat="61.61337" lon="5.32892">
        <ele>24.535234</ele>
        <time>2020-07-16T04:50:51.756Z</time>
      </trkpt>
      <trkpt lat="61.61327" lon="5.32854">
        <ele>25.994406</ele>
        <time>2020-07-16T04:50:59.916Z</time>
      </trkpt>
      <trkpt lat="61.61333" lon="5.32845">
        <ele>26.476679</ele>
        <time>2020-07-16T04:51:03.836Z</time>
      </trkpt>
      <trkpt lat="61.6134" lon="5.32825">
        <ele>27.198786</ele>
        <time>2020-07-16T04:51:09.993Z</time>
      </trkpt>
      <trkpt lat="61.61338" lon="5.32779">
        <ele>28.505765</ele>
        <time>2020-07-16T04:51:19.109Z</time>
      </trkpt>
      <trkpt lat="61.61338" lon="5.32763">
        <ele>28.977449</ele>
        <time>2020-07-16T04:51:24.175Z</time>
      </trkpt>
      <trkpt lat="61.61337" lon="5.32753">
        <ele>29.265043</ele>
        <time>2020-07-16T04:51:26.090Z</time>
      </trkpt>
      <trkpt lat="61.61344" lon="5.32649">
        <ele>32.288448</ele>
        <time>2020-07-16T04:51:45.472Z</time>
      </trkpt>
      <trkpt lat="61.61356" lon="5.32576">
        <ele>34.499271</ele>
        <time>2020-07-16T04:51:58.246Z</time>
      </trkpt>
      <trkpt lat="61.61356" lon="5.32573">
        <ele>34.587812</ele>
        <time>2020-07-16T04:51:58.851Z</time>
      </trkpt>
      <trkpt lat="61.614" lon="5.32323">
        <ele>38.936302</ele>
        <time>2020-07-16T04:52:31.783Z</time>
      </trkpt>
      <trkpt lat="61.61409" lon="5.32249">
        <ele>39.753079</ele>
        <time>2020-07-16T04:52:40.028Z</time>
      </trkpt>
      <trkpt lat="61.6141" lon="5.3222">
        <ele>40.060071</ele>
        <time>2020-07-16T04:52:43.188Z</time>
      </trkpt>
      <trkpt lat="61.6141" lon="5.32193">
        <ele>40.352201</ele>
        <time>2020-07-16T04:52:46.073Z</time>
      </trkpt>
      <trkpt lat="61.61402" lon="5.32079">
        <ele>41.730208</ele>
        <time>2020-07-16T04:52:58.878Z</time>
      </trkpt>
      <trkpt lat="61.61371" lon="5.31853">
        <ele>44.951845</ele>
        <time>2020-07-16T04:53:28.410Z</time>
      </trkpt>
      <trkpt lat="61.61367" lon="5.31727">
        <ele>47.129455</ele>
        <time>2020-07-16T04:53:46.254Z</time>
      </trkpt>
      <trkpt lat="61.61375" lon="5.31649">
        <ele>49.22233</ele>
        <time>2020-07-16T04:53:59.162Z</time>
      </trkpt>
      <trkpt lat="61.61389" lon="5.3158">
        <ele>51.215183</ele>
        <time>2020-07-16T04:54:11.833Z</time>
      </trkpt>
      <trkpt lat="61.61412" lon="5.3151">
        <ele>53.481943</ele>
        <time>2020-07-16T04:54:26.514Z</time>
      </trkpt>
      <trkpt lat="61.61438" lon="5.31463">
        <ele>55.392017</ele>
        <time>2020-07-16T04:54:39.178Z</time>
      </trkpt>
      <trkpt lat="61.61446" lon="5.3145">
        <ele>55.981409</ele>
        <time>2020-07-16T04:54:43.399Z</time>
      </trkpt>
      <trkpt lat="61.61455" lon="5.31439">
        <ele>56.685889</ele>
        <time>2020-07-16T04:54:47.788Z</time>
      </trkpt>
      <trkpt lat="61.6157" lon="5.31342">
        <ele>66.843017</ele>
        <time>2020-07-16T04:55:41.459Z</time>
      </trkpt>
      <trkpt lat="61.61665" lon="5.31214">
        <ele>75.692529</ele>
        <time>2020-07-16T04:56:35.803Z</time>
      </trkpt>
      <trkpt lat="61.61697" lon="5.31191">
        <ele>78.234419</ele>
        <time>2020-07-16T04:56:51.490Z</time>
      </trkpt>
      <trkpt lat="61.61727" lon="5.31184">
        <ele>80.467929</ele>
        <time>2020-07-16T04:57:04.478Z</time>
      </trkpt>
      <trkpt lat="61.61759" lon="5.31192">
        <ele>82.938526</ele>
        <time>2020-07-16T04:57:17.212Z</time>
      </trkpt>
      <trkpt lat="61.61806" lon="5.31236">
        <ele>83.981468</ele>
        <time>2020-07-16T04:57:33.226Z</time>
      </trkpt>
      <trkpt lat="61.61835" lon="5.31297">
        <ele>83.274252</ele>
        <time>2020-07-16T04:57:41.744Z</time>
      </trkpt>
      <trkpt lat="61.61888" lon="5.31449">
        <ele>81.736707</ele>
        <time>2020-07-16T04:57:53.107Z</time>
      </trkpt>
      <trkpt lat="61.61924" lon="5.31507">
        <ele>79.45503</ele>
        <time>2020-07-16T04:57:58.300Z</time>
      </trkpt>
      <trkpt lat="61.61973" lon="5.31535">
        <ele>75.785291</ele>
        <time>2020-07-16T04:58:03.912Z</time>
      </trkpt>
      <trkpt lat="61.62024" lon="5.31523">
        <ele>72.020671</ele>
        <time>2020-07-16T04:58:09.662Z</time>
      </trkpt>
      <trkpt lat="61.62066" lon="5.31477">
        <ele>68.535748</ele>
        <time>2020-07-16T04:58:15.088Z</time>
      </trkpt>
      <trkpt lat="61.6214" lon="5.31349">
        <ele>65.574548</ele>
        <time>2020-07-16T04:58:26.824Z</time>
      </trkpt>
      <trkpt lat="61.62173" lon="5.31303">
        <ele>64.404044</ele>
        <time>2020-07-16T04:58:32.475Z</time>
      </trkpt>
      <trkpt lat="61.62282" lon="5.31196">
        <ele>65.15782</ele>
        <time>2020-07-16T04:58:55.820Z</time>
      </trkpt>
      <trkpt lat="61.62316" lon="5.31128">
        <ele>66.607335</ele>
        <time>2020-07-16T04:59:09.093Z</time>
      </trkpt>
      <trkpt lat="61.62353" lon="5.31005">
        <ele>69.24055</ele>
        <time>2020-07-16T04:59:32.905Z</time>
      </trkpt>
      <trkpt lat="61.62385" lon="5.30929">
        <ele>74.0188</ele>
        <time>2020-07-16T04:59:53.467Z</time>
      </trkpt>
      <trkpt lat="61.62417" lon="5.30889">
        <ele>77.711887</ele>
        <time>2020-07-16T05:00:11.713Z</time>
      </trkpt>
      <trkpt lat="61.62452" lon="5.30872">
        <ele>81.196362</ele>
        <time>2020-07-16T05:00:30.599Z</time>
      </trkpt>
      <trkpt lat="61.62497" lon="5.30881">
        <ele>85.74936</ele>
        <time>2020-07-16T05:00:57.158Z</time>
      </trkpt>
      <trkpt lat="61.62544" lon="5.3093">
        <ele>91.604682</ele>
        <time>2020-07-16T05:01:28.818Z</time>
      </trkpt>
      <trkpt lat="61.62577" lon="5.31018">
        <ele>97.75339</ele>
        <time>2020-07-16T05:02:01.743Z</time>
      </trkpt>
      <trkpt lat="61.62601" lon="5.31155">
        <ele>105.697319</ele>
        <time>2020-07-16T05:02:38.041Z</time>
      </trkpt>
      <trkpt lat="61.62612" lon="5.31251">
        <ele>108.044286</ele>
        <time>2020-07-16T05:02:58.331Z</time>
      </trkpt>
      <trkpt lat="61.62648" lon="5.31571">
        <ele>111.889854</ele>
        <time>2020-07-16T05:03:37.122Z</time>
      </trkpt>
      <trkpt lat="61.6266" lon="5.31661">
        <ele>108.730243</ele>
        <time>2020-07-16T05:03:43.088Z</time>
      </trkpt>
      <trkpt lat="61.6268" lon="5.31739">
        <ele>105.735145</ele>
        <time>2020-07-16T05:03:47.845Z</time>
      </trkpt>
      <trkpt lat="61.62718" lon="5.31834">
        <ele>101.509001</ele>
        <time>2020-07-16T05:03:54.244Z</time>
      </trkpt>
      <trkpt lat="61.62747" lon="5.31882">
        <ele>97.709957</ele>
        <time>2020-07-16T05:03:58.138Z</time>
      </trkpt>
      <trkpt lat="61.62764" lon="5.31903">
        <ele>94.897538</ele>
        <time>2020-07-16T05:04:00.235Z</time>
      </trkpt>
      <trkpt lat="61.6278" lon="5.31918">
        <ele>92.318536</ele>
        <time>2020-07-16T05:04:02.083Z</time>
      </trkpt>
      <trkpt lat="61.62878" lon="5.31975">
        <ele>77.815315</ele>
        <time>2020-07-16T05:04:12.617Z</time>
      </trkpt>
      <trkpt lat="61.62921" lon="5.3202">
        <ele>73.011762</ele>
        <time>2020-07-16T05:04:17.636Z</time>
      </trkpt>
      <trkpt lat="61.62954" lon="5.32095">
        <ele>70.369731</ele>
        <time>2020-07-16T05:04:23.031Z</time>
      </trkpt>
      <trkpt lat="61.62974" lon="5.32191">
        <ele>67.64008</ele>
        <time>2020-07-16T05:04:29.178Z</time>
      </trkpt>
      <trkpt lat="61.62976" lon="5.32259">
        <ele>65.876199</ele>
        <time>2020-07-16T05:04:34.025Z</time>
      </trkpt>
      <trkpt lat="61.62961" lon="5.3262">
        <ele>66.280946</ele>
        <time>2020-07-16T05:05:21.424Z</time>
      </trkpt>
      <trkpt lat="61.62946" lon="5.32723">
        <ele>65.119445</ele>
        <time>2020-07-16T05:05:28.921Z</time>
      </trkpt>
      <trkpt lat="61.62904" lon="5.32886">
        <ele>57.498455</ele>
        <time>2020-07-16T05:05:39.270Z</time>
      </trkpt>
      <trkpt lat="61.62901" lon="5.32912">
        <ele>56.386262</ele>
        <time>2020-07-16T05:05:40.752Z</time>
      </trkpt>
      <trkpt lat="61.629" lon="5.32932">
        <ele>55.56181</ele>
        <time>2020-07-16T05:05:41.724Z</time>
      </trkpt>
      <trkpt lat="61.62903" lon="5.33005">
        <ele>52.524833</ele>
        <time>2020-07-16T05:05:45.370Z</time>
      </trkpt>
      <trkpt lat="61.62915" lon="5.3305">
        <ele>49.825218</ele>
        <time>2020-07-16T05:05:47.918Z</time>
      </trkpt>
      <trkpt lat="61.6294" lon="5.331">
        <ele>44.316749</ele>
        <time>2020-07-16T05:05:51.426Z</time>
      </trkpt>
      <trkpt lat="61.62986" lon="5.33158">
        <ele>35.559244</ele>
        <time>2020-07-16T05:05:56.968Z</time>
      </trkpt>
      <trkpt lat="61.63018" lon="5.33198">
        <ele>29.535678</ele>
        <time>2020-07-16T05:06:00.817Z</time>
      </trkpt>
      <trkpt lat="61.6303" lon="5.33216">
        <ele>27.203094</ele>
        <time>2020-07-16T05:06:02.323Z</time>
      </trkpt>
      <trkpt lat="61.63085" lon="5.33316">
        <ele>19.317464</ele>
        <time>2020-07-16T05:06:10.029Z</time>
      </trkpt>
      <trkpt lat="61.63088" lon="5.33321">
        <ele>19.063226</ele>
        <time>2020-07-16T05:06:10.439Z</time>
      </trkpt>
      <trkpt lat="61.63098" lon="5.33333">
        <ele>18.340898</ele>
        <time>2020-07-16T05:06:11.612Z</time>
      </trkpt>
      <trkpt lat="61.63109" lon="5.33344">
        <ele>17.513222</ele>
        <time>2020-07-16T05:06:12.929Z</time>
      </trkpt>
      <trkpt lat="61.63432" lon="5.33527">
        <ele>8.403203</ele>
        <time>2020-07-16T05:06:59.092Z</time>
      </trkpt>
      <trkpt lat="61.63445" lon="5.33531">
        <ele>9.006741</ele>
        <time>2020-07-16T05:07:02.721Z</time>
      </trkpt>
      <trkpt lat="61.63455" lon="5.33532">
        <ele>9.465443</ele>
        <time>2020-07-16T05:07:06.768Z</time>
      </trkpt>
      <trkpt lat="61.63487" lon="5.3352">
        <ele>10.950054</ele>
        <time>2020-07-16T05:07:18.075Z</time>
      </trkpt>
      <trkpt lat="61.6352" lon="5.33477">
        <ele>12.703846</ele>
        <time>2020-07-16T05:07:33.784Z</time>
      </trkpt>
      <trkpt lat="61.63537" lon="5.33434">
        <ele>13.954735</ele>
        <time>2020-07-16T05:07:45.246Z</time>
      </trkpt>
      <trkpt lat="61.63567" lon="5.33325">
        <ele>18.682983</ele>
        <time>2020-07-16T05:08:15.461Z</time>
      </trkpt>
      <trkpt lat="61.63589" lon="5.33273">
        <ele>21.666779</ele>
        <time>2020-07-16T05:08:31.708Z</time>
      </trkpt>
      <trkpt lat="61.63675" lon="5.33162">
        <ele>30.813284</ele>
        <time>2020-07-16T05:09:18.662Z</time>
      </trkpt>
      <trkpt lat="61.63723" lon="5.33074">
        <ele>36.652138</ele>
        <time>2020-07-16T05:09:46.680Z</time>
      </trkpt>
      <trkpt lat="61.63746" lon="5.33013">
        <ele>39.99182</ele>
        <time>2020-07-16T05:10:03.469Z</time>
      </trkpt>
      <trkpt lat="61.63772" lon="5.3291">
        <ele>45.026276</ele>
        <time>2020-07-16T05:10:30.058Z</time>
      </trkpt>
      <trkpt lat="61.63777" lon="5.32874">
        <ele>46.653891</ele>
        <time>2020-07-16T05:10:38.085Z</time>
      </trkpt>
      <trkpt lat="61.63781" lon="5.32841">
        <ele>48.254452</ele>
        <time>2020-07-16T05:10:46.798Z</time>
      </trkpt>
      <trkpt lat="61.63806" lon="5.326">
        <ele>60.743613</ele>
        <time>2020-07-16T05:11:49.426Z</time>
      </trkpt>
      <trkpt lat="61.63821" lon="5.32537">
        <ele>64.289327</ele>
        <time>2020-07-16T05:12:08.379Z</time>
      </trkpt>
      <trkpt lat="61.63855" lon="5.32473">
        <ele>68.135337</ele>
        <time>2020-07-16T05:12:31.213Z</time>
      </trkpt>
      <trkpt lat="61.63887" lon="5.32451">
        <ele>70.220239</ele>
        <time>2020-07-16T05:12:45.707Z</time>
      </trkpt>
      <trkpt lat="61.63917" lon="5.32452">
        <ele>72.176428</ele>
        <time>2020-07-16T05:12:57.926Z</time>
      </trkpt>
      <trkpt lat="61.63948" lon="5.32471">
        <ele>74.178181</ele>
        <time>2020-07-16T05:13:09.123Z</time>
      </trkpt>
      <trkpt lat="61.63983" lon="5.32539">
        <ele>77.219568</ele>
        <time>2020-07-16T05:13:23.768Z</time>
      </trkpt>
      <trkpt lat="61.63998" lon="5.32599">
        <ele>78.530136</ele>
        <time>2020-07-16T05:13:32.353Z</time>
      </trkpt>
      <trkpt lat="61.6402" lon="5.32771">
        <ele>80.90051</ele>
        <time>2020-07-16T05:13:52.803Z</time>
      </trkpt>
      <trkpt lat="61.64053" lon="5.32869">
        <ele>82.4793</ele>
        <time>2020-07-16T05:14:08.006Z</time>
      </trkpt>
      <trkpt lat="61.64128" lon="5.32983">
        <ele>84.679599</ele>
        <time>2020-07-16T05:14:36.299Z</time>
      </trkpt>
      <trkpt lat="61.64179" lon="5.33014">
        <ele>85.889509</ele>
        <time>2020-07-16T05:14:49.393Z</time>
      </trkpt>
      <trkpt lat="61.64188" lon="5.33015">
        <ele>86.106265</ele>
        <time>2020-07-16T05:14:52.775Z</time>
      </trkpt>
      <trkpt lat="61.64197" lon="5.33014">
        <ele>86.302434</ele>
        <time>2020-07-16T05:14:53.950Z</time>
      </trkpt>
      <trkpt lat="61.64247" lon="5.32989">
        <ele>86.787912</ele>
        <time>2020-07-16T05:15:03.386Z</time>
      </trkpt>
      <trkpt lat="61.64283" lon="5.32943">
        <ele>86.06144</ele>
        <time>2020-07-16T05:15:10.513Z</time>
      </trkpt>
      <trkpt lat="61.64298" lon="5.32916">
        <ele>85.722005</ele>
        <time>2020-07-16T05:15:13.315Z</time>
      </trkpt>
      <trkpt lat="61.6431" lon="5.3289">
        <ele>85.418097</ele>
        <time>2020-07-16T05:15:15.922Z</time>
      </trkpt>
      <trkpt lat="61.64342" lon="5.328">
        <ele>84.498925</ele>
        <time>2020-07-16T05:15:22.781Z</time>
      </trkpt>
      <trkpt lat="61.64357" lon="5.32729">
        <ele>83.91739</ele>
        <time>2020-07-16T05:15:27.657Z</time>
      </trkpt>
      <trkpt lat="61.64366" lon="5.32658">
        <ele>83.629726</ele>
        <time>2020-07-16T05:15:32.298Z</time>
      </trkpt>
      <trkpt lat="61.6437" lon="5.32538">
        <ele>83.154444</ele>
        <time>2020-07-16T05:15:41.137Z</time>
      </trkpt>
      <trkpt lat="61.64356" lon="5.32382">
        <ele>82.531753</ele>
        <time>2020-07-16T05:15:55.253Z</time>
      </trkpt>
      <trkpt lat="61.64279" lon="5.31723">
        <ele>85.513813</ele>
        <time>2020-07-16T05:17:06.470Z</time>
      </trkpt>
      <trkpt lat="61.64273" lon="5.31564">
        <ele>84.912388</ele>
        <time>2020-07-16T05:17:18.423Z</time>
      </trkpt>
      <trkpt lat="61.64284" lon="5.31428">
        <ele>83.142801</ele>
        <time>2020-07-16T05:17:27.471Z</time>
      </trkpt>
      <trkpt lat="61.64335" lon="5.31113">
        <ele>77.93414</ele>
        <time>2020-07-16T05:17:47.358Z</time>
      </trkpt>
      <trkpt lat="61.64338" lon="5.30985">
        <ele>75.552071</ele>
        <time>2020-07-16T05:17:54.871Z</time>
      </trkpt>
      <trkpt lat="61.64323" lon="5.30867">
        <ele>73.727094</ele>
        <time>2020-07-16T05:18:02.292Z</time>
      </trkpt>
      <trkpt lat="61.64302" lon="5.30793">
        <ele>73.321892</ele>
        <time>2020-07-16T05:18:07.898Z</time>
      </trkpt>
      <trkpt lat="61.64275" lon="5.30735">
        <ele>72.94246</ele>
        <time>2020-07-16T05:18:13.541Z</time>
      </trkpt>
      <trkpt lat="61.64243" lon="5.30689">
        <ele>72.557568</ele>
        <time>2020-07-16T05:18:19.876Z</time>
      </trkpt>
      <trkpt lat="61.64212" lon="5.30662">
        <ele>72.229505</ele>
        <time>2020-07-16T05:18:26.357Z</time>
      </trkpt>
      <trkpt lat="61.64107" lon="5.30633">
        <ele>74.590875</ele>
        <time>2020-07-16T05:18:54.008Z</time>
      </trkpt>
      <trkpt lat="61.64056" lon="5.30594">
        <ele>76.015179</ele>
        <time>2020-07-16T05:19:09.866Z</time>
      </trkpt>
      <trkpt lat="61.64019" lon="5.30523">
        <ele>77.176455</ele>
        <time>2020-07-16T05:19:23.698Z</time>
      </trkpt>
      <trkpt lat="61.64008" lon="5.30488">
        <ele>77.509299</ele>
        <time>2020-07-16T05:19:28.784Z</time>
      </trkpt>
      <trkpt lat="61.63992" lon="5.30402">
        <ele>78.244217</ele>
        <time>2020-07-16T05:19:39.369Z</time>
      </trkpt>
      <trkpt lat="61.63981" lon="5.30279">
        <ele>79.233798</ele>
        <time>2020-07-16T05:19:52.230Z</time>
      </trkpt>
      <trkpt lat="61.63975" lon="5.30158">
        <ele>80.180378</ele>
        <time>2020-07-16T05:20:03.797Z</time>
      </trkpt>
      <trkpt lat="61.63978" lon="5.2995">
        <ele>81.755825</ele>
        <time>2020-07-16T05:20:24.813Z</time>
      </trkpt>
      <trkpt lat="61.63985" lon="5.29846">
        <ele>82.551445</ele>
        <time>2020-07-16T05:20:37.470Z</time>
      </trkpt>
      <trkpt lat="61.64009" lon="5.29702">
        <ele>83.759205</ele>
        <time>2020-07-16T05:20:57.986Z</time>
      </trkpt>
      <trkpt lat="61.64069" lon="5.29505">
        <ele>85.63042</ele>
        <time>2020-07-16T05:21:23.706Z</time>
      </trkpt>
      <trkpt lat="61.64091" lon="5.29412">
        <ele>84.865164</ele>
        <time>2020-07-16T05:21:31.416Z</time>
      </trkpt>
      <trkpt lat="61.64109" lon="5.29278">
        <ele>83.390045</ele>
        <time>2020-07-16T05:21:40.470Z</time>
      </trkpt>
      <trkpt lat="61.64113" lon="5.29177">
        <ele>82.311925</ele>
        <time>2020-07-16T05:21:46.615Z</time>
      </trkpt>
      <trkpt lat="61.6411" lon="5.29068">
        <ele>81.419205</ele>
        <time>2020-07-16T05:21:53.223Z</time>
      </trkpt>
      <trkpt lat="61.6409" lon="5.28882">
        <ele>80.279491</ele>
        <time>2020-07-16T05:22:05.674Z</time>
      </trkpt>
      <trkpt lat="61.64007" lon="5.28365">
        <ele>82.434878</ele>
        <time>2020-07-16T05:23:04.150Z</time>
      </trkpt>
      <trkpt lat="61.63983" lon="5.28241">
        <ele>83.294404</ele>
        <time>2020-07-16T05:23:20.755Z</time>
      </trkpt>
      <trkpt lat="61.63966" lon="5.28176">
        <ele>83.771013</ele>
        <time>2020-07-16T05:23:29.571Z</time>
      </trkpt>
      <trkpt lat="61.63863" lon="5.276">
        <ele>83.173011</ele>
        <time>2020-07-16T05:24:23.669Z</time>
      </trkpt>
      <trkpt lat="61.63856" lon="5.27521">
        <ele>82.149832</ele>
        <time>2020-07-16T05:24:28.712Z</time>
      </trkpt>
      <trkpt lat="61.63848" lon="5.27357">
        <ele>80.041213</ele>
        <time>2020-07-16T05:24:38.619Z</time>
      </trkpt>
      <trkpt lat="61.63874" lon="5.26993">
        <ele>72.847599</ele>
        <time>2020-07-16T05:25:00.196Z</time>
      </trkpt>
      <trkpt lat="61.63876" lon="5.26905">
        <ele>71.41513</ele>
        <time>2020-07-16T05:25:05.584Z</time>
      </trkpt>
      <trkpt lat="61.6387" lon="5.26823">
        <ele>70.351944</ele>
        <time>2020-07-16T05:25:10.819Z</time>
      </trkpt>
      <trkpt lat="61.63833" lon="5.26602">
        <ele>67.380324</ele>
        <time>2020-07-16T05:25:26.147Z</time>
      </trkpt>
      <trkpt lat="61.63823" lon="5.26507">
        <ele>66.774339</ele>
        <time>2020-07-16T05:25:32.798Z</time>
      </trkpt>
      <trkpt lat="61.63822" lon="5.26357">
        <ele>66.028644</ele>
        <time>2020-07-16T05:25:43.059Z</time>
      </trkpt>
      <trkpt lat="61.63834" lon="5.26027">
        <ele>65.783293</ele>
        <time>2020-07-16T05:26:12.373Z</time>
      </trkpt>
      <trkpt lat="61.63834" lon="5.25964">
        <ele>65.948519</ele>
        <time>2020-07-16T05:26:18.838Z</time>
      </trkpt>
      <trkpt lat="61.63833" lon="5.25909">
        <ele>66.092203</ele>
        <time>2020-07-16T05:26:24.338Z</time>
      </trkpt>
      <trkpt lat="61.63818" lon="5.25697">
        <ele>66.807402</ele>
        <time>2020-07-16T05:26:44.384Z</time>
      </trkpt>
      <trkpt lat="61.63788" lon="5.25362">
        <ele>67.838162</ele>
        <time>2020-07-16T05:27:17.694Z</time>
      </trkpt>
      <trkpt lat="61.63774" lon="5.25211">
        <ele>68.04433</ele>
        <time>2020-07-16T05:27:33.663Z</time>
      </trkpt>
      <trkpt lat="61.63723" lon="5.24815">
        <ele>63.470817</ele>
        <time>2020-07-16T05:28:03.237Z</time>
      </trkpt>
      <trkpt lat="61.63589" lon="5.23877">
        <ele>24.852433</ele>
        <time>2020-07-16T05:28:54.384Z</time>
      </trkpt>
      <trkpt lat="61.63583" lon="5.23829">
        <ele>23.545116</ele>
        <time>2020-07-16T05:28:57.142Z</time>
      </trkpt>
      <trkpt lat="61.63582" lon="5.23802">
        <ele>22.845427</ele>
        <time>2020-07-16T05:28:58.728Z</time>
      </trkpt>
      <trkpt lat="61.63581" lon="5.2373">
        <ele>20.959422</ele>
        <time>2020-07-16T05:29:02.965Z</time>
      </trkpt>
      <trkpt lat="61.63598" lon="5.23405">
        <ele>17.825622</ele>
        <time>2020-07-16T05:29:26.792Z</time>
      </trkpt>
      <trkpt lat="61.63597" lon="5.23324">
        <ele>17.638012</ele>
        <time>2020-07-16T05:29:34.340Z</time>
      </trkpt>
      <trkpt lat="61.63567" lon="5.22869">
        <ele>20.44693</ele>
        <time>2020-07-16T05:30:18.464Z</time>
      </trkpt>
      <trkpt lat="61.63546" lon="5.22696">
        <ele>27.594117</ele>
        <time>2020-07-16T05:30:52.534Z</time>
      </trkpt>
      <trkpt lat="61.63547" lon="5.22652">
        <ele>29.361581</ele>
        <time>2020-07-16T05:31:04.627Z</time>
      </trkpt>
      <trkpt lat="61.63548" lon="5.22627">
        <ele>30.365192</ele>
        <time>2020-07-16T05:31:09.822Z</time>
      </trkpt>
      <trkpt lat="61.63575" lon="5.22476">
        <ele>37.096944</ele>
        <time>2020-07-16T05:31:53.599Z</time>
      </trkpt>
      <trkpt lat="61.63578" lon="5.22412">
        <ele>40.088699</ele>
        <time>2020-07-16T05:32:10.149Z</time>
      </trkpt>
      <trkpt lat="61.63574" lon="5.22372">
        <ele>41.977493</ele>
        <time>2020-07-16T05:32:22.870Z</time>
      </trkpt>
      <trkpt lat="61.63569" lon="5.22334">
        <ele>43.844632</ele>
        <time>2020-07-16T05:32:31.929Z</time>
      </trkpt>
      <trkpt lat="61.63556" lon="5.22181">
        <ele>51.071795</ele>
        <time>2020-07-16T05:33:08.811Z</time>
      </trkpt>
      <trkpt lat="61.63571" lon="5.22046">
        <ele>54.690395</ele>
        <time>2020-07-16T05:33:30.715Z</time>
      </trkpt>
      <trkpt lat="61.63571" lon="5.2198">
        <ele>55.908743</ele>
        <time>2020-07-16T05:33:37.209Z</time>
      </trkpt>
      <trkpt lat="61.63563" lon="5.21928">
        <ele>56.908761</ele>
        <time>2020-07-16T05:33:42.602Z</time>
      </trkpt>
      <trkpt lat="61.63504" lon="5.21677">
        <ele>66.105592</ele>
        <time>2020-07-16T05:34:24.119Z</time>
      </trkpt>
      <trkpt lat="61.63497" lon="5.21624">
        <ele>68.855884</ele>
        <time>2020-07-16T05:34:36.151Z</time>
      </trkpt>
      <trkpt lat="61.63498" lon="5.21568">
        <ele>71.70529</ele>
        <time>2020-07-16T05:34:50.342Z</time>
      </trkpt>
      <trkpt lat="61.63512" lon="5.215">
        <ele>75.466701</ele>
        <time>2020-07-16T05:35:12.171Z</time>
      </trkpt>
      <trkpt lat="61.6353" lon="5.21459">
        <ele>78.253884</ele>
        <time>2020-07-16T05:35:30.671Z</time>
      </trkpt>
      <trkpt lat="61.63557" lon="5.21426">
        <ele>84.051494</ele>
        <time>2020-07-16T05:35:55.403Z</time>
      </trkpt>
      <trkpt lat="61.63584" lon="5.21423">
        <ele>89.820778</ele>
        <time>2020-07-16T05:36:19.357Z</time>
      </trkpt>
      <trkpt lat="61.6361" lon="5.21443">
        <ele>95.516566</ele>
        <time>2020-07-16T05:36:44.171Z</time>
      </trkpt>
      <trkpt lat="61.63624" lon="5.2147">
        <ele>99.512352</ele>
        <time>2020-07-16T05:37:01.517Z</time>
      </trkpt>
      <trkpt lat="61.63663" lon="5.21642">
        <ele>117.90634</ele>
        <time>2020-07-16T05:38:22.200Z</time>
      </trkpt>
      <trkpt lat="61.6368" lon="5.21681">
        <ele>121.558747</ele>
        <time>2020-07-16T05:38:43.033Z</time>
      </trkpt>
      <trkpt lat="61.63703" lon="5.21687">
        <ele>124.956565</ele>
        <time>2020-07-16T05:39:01.315Z</time>
      </trkpt>
      <trkpt lat="61.63719" lon="5.21672">
        <ele>127.4441</ele>
        <time>2020-07-16T05:39:13.732Z</time>
      </trkpt>
      <trkpt lat="61.6373" lon="5.21647">
        <ele>129.814223</ele>
        <time>2020-07-16T05:39:24.952Z</time>
      </trkpt>
      <trkpt lat="61.63755" lon="5.21491">
        <ele>141.066744</ele>
        <time>2020-07-16T05:40:07.712Z</time>
      </trkpt>
      <trkpt lat="61.63759" lon="5.21411">
        <ele>143.75804</ele>
        <time>2020-07-16T05:40:22.900Z</time>
      </trkpt>
      <trkpt lat="61.63732" lon="5.21224">
        <ele>147.432905</ele>
        <time>2020-07-16T05:40:50.178Z</time>
      </trkpt>
      <trkpt lat="61.63728" lon="5.21134">
        <ele>149.126833</ele>
        <time>2020-07-16T05:41:00.514Z</time>
      </trkpt>
      <trkpt lat="61.63734" lon="5.21078">
        <ele>149.806594</ele>
        <time>2020-07-16T05:41:06.393Z</time>
      </trkpt>
      <trkpt lat="61.63771" lon="5.20906">
        <ele>150.003343</ele>
        <time>2020-07-16T05:41:24.159Z</time>
      </trkpt>
      <trkpt lat="61.63777" lon="5.20843">
        <ele>150.07105</ele>
        <time>2020-07-16T05:41:29.779Z</time>
      </trkpt>
      <trkpt lat="61.63771" lon="5.20561">
        <ele>149.302951</ele>
        <time>2020-07-16T05:41:50.340Z</time>
      </trkpt>
      <trkpt lat="61.63784" lon="5.20286">
        <ele>150.519878</ele>
        <time>2020-07-16T05:42:10.078Z</time>
      </trkpt>
      <trkpt lat="61.63795" lon="5.20217">
        <ele>152.609874</ele>
        <time>2020-07-16T05:42:17.849Z</time>
      </trkpt>
      <trkpt lat="61.63815" lon="5.20158">
        <ele>154.713897</ele>
        <time>2020-07-16T05:42:28.577Z</time>
      </trkpt>
      <trkpt lat="61.63842" lon="5.20112">
        <ele>156.843791</ele>
        <time>2020-07-16T05:42:46.909Z</time>
      </trkpt>
      <trkpt lat="61.63868" lon="5.20087">
        <ele>158.578096</ele>
        <time>2020-07-16T05:43:03.824Z</time>
      </trkpt>
      <trkpt lat="61.63902" lon="5.20064">
        <ele>163.213226</ele>
        <time>2020-07-16T05:43:27.165Z</time>
      </trkpt>
      <trkpt lat="61.63909" lon="5.20058">
        <ele>164.436785</ele>
        <time>2020-07-16T05:43:32.641Z</time>
      </trkpt>
      <trkpt lat="61.63919" lon="5.20047">
        <ele>166.148524</ele>
        <time>2020-07-16T05:43:39.749Z</time>
      </trkpt>
      <trkpt lat="61.63928" lon="5.20033">
        <ele>168.025302</ele>
        <time>2020-07-16T05:43:47.788Z</time>
      </trkpt>
      <trkpt lat="61.63948" lon="5.19996">
        <ele>172.138233</ele>
        <time>2020-07-16T05:44:06.193Z</time>
      </trkpt>
      <trkpt lat="61.63954" lon="5.19983">
        <ele>173.536159</ele>
        <time>2020-07-16T05:44:12.672Z</time>
      </trkpt>
      <trkpt lat="61.63968" lon="5.19951">
        <ele>176.841732</ele>
        <time>2020-07-16T05:44:28.949Z</time>
      </trkpt>
      <trkpt lat="61.63988" lon="5.19905">
        <ele>181.59051</ele>
        <time>2020-07-16T05:44:50.618Z</time>
      </trkpt>
      <trkpt lat="61.64022" lon="5.19871">
        <ele>187.487618</ele>
        <time>2020-07-16T05:45:17.625Z</time>
      </trkpt>
      <trkpt lat="61.64093" lon="5.19875">
        <ele>194.455515</ele>
        <time>2020-07-16T05:46:03.641Z</time>
      </trkpt>
      <trkpt lat="61.64233" lon="5.19803">
        <ele>206.571128</ele>
        <time>2020-07-16T05:46:57.485Z</time>
      </trkpt>
      <trkpt lat="61.6436" lon="5.19769">
        <ele>212.209112</ele>
        <time>2020-07-16T05:47:35.754Z</time>
      </trkpt>
      <trkpt lat="61.64426" lon="5.19734">
        <ele>215.518349</ele>
        <time>2020-07-16T05:47:57.130Z</time>
      </trkpt>
      <trkpt lat="61.6449" lon="5.19684">
        <ele>218.989787</ele>
        <time>2020-07-16T05:48:19.608Z</time>
      </trkpt>
      <trkpt lat="61.64672" lon="5.19607">
        <ele>230.891434</ele>
        <time>2020-07-16T05:49:29.720Z</time>
      </trkpt>
      <trkpt lat="61.64813" lon="5.19527">
        <ele>244.862353</ele>
        <time>2020-07-16T05:50:37.440Z</time>
      </trkpt>
      <trkpt lat="61.64859" lon="5.19498">
        <ele>250.252298</ele>
        <time>2020-07-16T05:51:06.203Z</time>
      </trkpt>
      <trkpt lat="61.64888" lon="5.19467">
        <ele>253.839236</ele>
        <time>2020-07-16T05:51:25.408Z</time>
      </trkpt>
      <trkpt lat="61.64924" lon="5.19423">
        <ele>260.000079</ele>
        <time>2020-07-16T05:51:51.701Z</time>
      </trkpt>
      <trkpt lat="61.64932" lon="5.19415">
        <ele>261.421051</ele>
        <time>2020-07-16T05:51:56.918Z</time>
      </trkpt>
      <trkpt lat="61.64953" lon="5.19386">
        <ele>265.35666</ele>
        <time>2020-07-16T05:52:13.952Z</time>
      </trkpt>
      <trkpt lat="61.64981" lon="5.19353">
        <ele>270.532274</ele>
        <time>2020-07-16T05:52:36.147Z</time>
      </trkpt>
      <trkpt lat="61.65027" lon="5.19323">
        <ele>278.187411</ele>
        <time>2020-07-16T05:53:10.912Z</time>
      </trkpt>
      <trkpt lat="61.65141" lon="5.19304">
        <ele>298.051208</ele>
        <time>2020-07-16T05:54:36.541Z</time>
      </trkpt>
      <trkpt lat="61.6527" lon="5.19309">
        <ele>321.392002</ele>
        <time>2020-07-16T05:56:15.680Z</time>
      </trkpt>
      <trkpt lat="61.65384" lon="5.19298">
        <ele>341.751389</ele>
        <time>2020-07-16T05:57:45.001Z</time>
      </trkpt>
      <trkpt lat="61.65439" lon="5.1929">
        <ele>350.370439</ele>
        <time>2020-07-16T05:58:24.250Z</time>
      </trkpt>
      <trkpt lat="61.65553" lon="5.19273">
        <ele>363.434532</ele>
        <time>2020-07-16T05:59:30.351Z</time>
      </trkpt>
      <trkpt lat="61.65616" lon="5.19264">
        <ele>369.386775</ele>
        <time>2020-07-16T05:59:55.577Z</time>
      </trkpt>
      <trkpt lat="61.65662" lon="5.1927">
        <ele>370.923395</ele>
        <time>2020-07-16T06:00:10.028Z</time>
      </trkpt>
      <trkpt lat="61.65854" lon="5.1935">
        <ele>376.783653</ele>
        <time>2020-07-16T06:00:56.516Z</time>
      </trkpt>
      <trkpt lat="61.66074" lon="5.19401">
        <ele>383.627618</ele>
        <time>2020-07-16T06:01:57.086Z</time>
      </trkpt>
      <trkpt lat="61.66102" lon="5.19419">
        <ele>384.694779</ele>
        <time>2020-07-16T06:02:06.444Z</time>
      </trkpt>
      <trkpt lat="61.66134" lon="5.19455">
        <ele>386.153037</ele>
        <time>2020-07-16T06:02:18.098Z</time>
      </trkpt>
      <trkpt lat="61.66192" lon="5.19486">
        <ele>390.418913</ele>
        <time>2020-07-16T06:02:39.300Z</time>
      </trkpt>
      <trkpt lat="61.66307" lon="5.19497">
        <ele>398.542749</ele>
        <time>2020-07-16T06:03:27.758Z</time>
      </trkpt>
      <trkpt lat="61.66385" lon="5.19517">
        <ele>407.82377</ele>
        <time>2020-07-16T06:04:09.808Z</time>
      </trkpt>
      <trkpt lat="61.6647" lon="5.19539">
        <ele>417.875985</ele>
        <time>2020-07-16T06:04:59.896Z</time>
      </trkpt>
      <trkpt lat="61.66532" lon="5.19536">
        <ele>427.112969</ele>
        <time>2020-07-16T06:05:37.673Z</time>
      </trkpt>
      <trkpt lat="61.66711" lon="5.19494">
        <ele>460.944564</ele>
        <time>2020-07-16T06:07:45.152Z</time>
      </trkpt>
      <trkpt lat="61.66775" lon="5.19494">
        <ele>478.214746</ele>
        <time>2020-07-16T06:08:43.522Z</time>
      </trkpt>
      <trkpt lat="61.66858" lon="5.19503">
        <ele>502.641645</ele>
        <time>2020-07-16T06:10:02.395Z</time>
      </trkpt>
      <trkpt lat="61.66926" lon="5.19542">
        <ele>529.619466</ele>
        <time>2020-07-16T06:11:09.456Z</time>
      </trkpt>
      <trkpt lat="61.66998" lon="5.19607">
        <ele>559.500278</ele>
        <time>2020-07-16T06:12:23.981Z</time>
      </trkpt>
      <trkpt lat="61.67229" lon="5.19875">
        <ele>648.447528</ele>
        <time>2020-07-16T06:16:33.018Z</time>
      </trkpt>
      <trkpt lat="61.67297" lon="5.19937">
        <ele>669.668867</ele>
        <time>2020-07-16T06:17:41.303Z</time>
      </trkpt>
      <trkpt lat="61.67358" lon="5.19967">
        <ele>685.610855</ele>
        <time>2020-07-16T06:18:38.876Z</time>
      </trkpt>
      <trkpt lat="61.67427" lon="5.19987">
        <ele>699.62521</ele>
        <time>2020-07-16T06:19:37.227Z</time>
      </trkpt>
      <trkpt lat="61.67505" lon="5.19973">
        <ele>715.670899</ele>
        <time>2020-07-16T06:20:40.429Z</time>
      </trkpt>
      <trkpt lat="61.67657" lon="5.19967">
        <ele>741.006414</ele>
        <time>2020-07-16T06:22:32.800Z</time>
      </trkpt>
      <trkpt lat="61.67741" lon="5.19962">
        <ele>749.943993</ele>
        <time>2020-07-16T06:23:26.808Z</time>
      </trkpt>
      <trkpt lat="61.67833" lon="5.19944">
        <ele>755.710618</ele>
        <time>2020-07-16T06:24:04.541Z</time>
      </trkpt>
      <trkpt lat="61.67887" lon="5.19915">
        <ele>755.920067</ele>
        <time>2020-07-16T06:24:14.363Z</time>
      </trkpt>
      <trkpt lat="61.68336" lon="5.19576">
        <ele>690.512376</ele>
        <time>2020-07-16T06:25:06.604Z</time>
      </trkpt>
      <trkpt lat="61.68396" lon="5.19545">
        <ele>679.396526</ele>
        <time>2020-07-16T06:25:13.240Z</time>
      </trkpt>
      <trkpt lat="61.69186" lon="5.19557">
        <ele>508.833924</ele>
        <time>2020-07-16T06:26:36.724Z</time>
      </trkpt>
      <trkpt lat="61.69214" lon="5.1957">
        <ele>504.983262</ele>
        <time>2020-07-16T06:26:40.077Z</time>
      </trkpt>
      <trkpt lat="61.69254" lon="5.19614">
        <ele>498.908399</ele>
        <time>2020-07-16T06:26:45.719Z</time>
      </trkpt>
      <trkpt lat="61.69268" lon="5.19634">
        <ele>496.657943</ele>
        <time>2020-07-16T06:26:47.652Z</time>
      </trkpt>
      <trkpt lat="61.69275" lon="5.19644">
        <ele>495.907675</ele>
        <time>2020-07-16T06:26:53.888Z</time>
      </trkpt>
      <trkpt lat="61.69362" lon="5.19795">
        <ele>488.438812</ele>
        <time>2020-07-16T06:27:10.632Z</time>
      </trkpt>
      <trkpt lat="61.69409" lon="5.19854">
        <ele>484.824085</ele>
        <time>2020-07-16T06:27:16.956Z</time>
      </trkpt>
      <trkpt lat="61.69527" lon="5.1993">
        <ele>446.279412</ele>
        <time>2020-07-16T06:27:29.539Z</time>
      </trkpt>
      <trkpt lat="61.69583" lon="5.19957">
        <ele>427.522465</ele>
        <time>2020-07-16T06:27:35.683Z</time>
      </trkpt>
      <trkpt lat="61.69604" lon="5.19958">
        <ele>419.136143</ele>
        <time>2020-07-16T06:27:37.940Z</time>
      </trkpt>
      <trkpt lat="61.69661" lon="5.19932">
        <ele>393.809786</ele>
        <time>2020-07-16T06:27:44.336Z</time>
      </trkpt>
      <trkpt lat="61.69803" lon="5.19834">
        <ele>338.758389</ele>
        <time>2020-07-16T06:28:00.064Z</time>
      </trkpt>
      <trkpt lat="61.70044" lon="5.19623">
        <ele>292.693565</ele>
        <time>2020-07-16T06:28:27.302Z</time>
      </trkpt>
      <trkpt lat="61.70239" lon="5.19446">
        <ele>270.498037</ele>
        <time>2020-07-16T06:28:50.738Z</time>
      </trkpt>
      <trkpt lat="61.70291" lon="5.19384">
        <ele>264.159713</ele>
        <time>2020-07-16T06:28:57.164Z</time>
      </trkpt>
      <trkpt lat="61.70328" lon="5.19321">
        <ele>258.684071</ele>
        <time>2020-07-16T06:29:02.331Z</time>
      </trkpt>
      <trkpt lat="61.70403" lon="5.19218">
        <ele>248.434199</ele>
        <time>2020-07-16T06:29:11.899Z</time>
      </trkpt>
      <trkpt lat="61.70444" lon="5.1918">
        <ele>242.852349</ele>
        <time>2020-07-16T06:29:16.614Z</time>
      </trkpt>
      <trkpt lat="61.70494" lon="5.19148">
        <ele>236.247604</ele>
        <time>2020-07-16T06:29:22.100Z</time>
      </trkpt>
      <trkpt lat="61.70548" lon="5.19133">
        <ele>229.30216</ele>
        <time>2020-07-16T06:29:27.872Z</time>
      </trkpt>
      <trkpt lat="61.70631" lon="5.19146">
        <ele>220.270406</ele>
        <time>2020-07-16T06:29:36.717Z</time>
      </trkpt>
      <trkpt lat="61.70783" lon="5.19214">
        <ele>206.678773</ele>
        <time>2020-07-16T06:29:53.978Z</time>
      </trkpt>
      <trkpt lat="61.70901" lon="5.19302">
        <ele>200.839071</ele>
        <time>2020-07-16T06:30:09.967Z</time>
      </trkpt>
      <trkpt lat="61.70925" lon="5.19311">
        <ele>199.686022</ele>
        <time>2020-07-16T06:30:13.213Z</time>
      </trkpt>
      <trkpt lat="61.70983" lon="5.19312">
        <ele>195.133636</ele>
        <time>2020-07-16T06:30:20.633Z</time>
      </trkpt>
      <trkpt lat="61.7105" lon="5.19293">
        <ele>189.679184</ele>
        <time>2020-07-16T06:30:28.429Z</time>
      </trkpt>
      <trkpt lat="61.71515" lon="5.191">
        <ele>126.599695</ele>
        <time>2020-07-16T06:31:18.258Z</time>
      </trkpt>
      <trkpt lat="61.7156" lon="5.19082">
        <ele>119.619368</ele>
        <time>2020-07-16T06:31:22.854Z</time>
      </trkpt>
      <trkpt lat="61.71584" lon="5.19073">
        <ele>115.806928</ele>
        <time>2020-07-16T06:31:25.363Z</time>
      </trkpt>
      <trkpt lat="61.71855" lon="5.18957">
        <ele>85.035697</ele>
        <time>2020-07-16T06:31:54.615Z</time>
      </trkpt>
      <trkpt lat="61.719" lon="5.18962">
        <ele>85.799935</ele>
        <time>2020-07-16T06:32:04.064Z</time>
      </trkpt>
      <trkpt lat="61.71922" lon="5.18987">
        <ele>86.226202</ele>
        <time>2020-07-16T06:32:12.181Z</time>
      </trkpt>
      <trkpt lat="61.71939" lon="5.19023">
        <ele>86.626144</ele>
        <time>2020-07-16T06:32:22.107Z</time>
      </trkpt>
      <trkpt lat="61.71947" lon="5.19056">
        <ele>86.928357</ele>
        <time>2020-07-16T06:32:30.482Z</time>
      </trkpt>
      <trkpt lat="61.71953" lon="5.19133">
        <ele>88.673865</ele>
        <time>2020-07-16T06:32:51.372Z</time>
      </trkpt>
      <trkpt lat="61.71921" lon="5.19384">
        <ele>104.942668</ele>
        <time>2020-07-16T06:34:14.716Z</time>
      </trkpt>
      <trkpt lat="61.71918" lon="5.19472">
        <ele>110.503431</ele>
        <time>2020-07-16T06:34:40.668Z</time>
      </trkpt>
      <trkpt lat="61.71921" lon="5.19537">
        <ele>111.006376</ele>
        <time>2020-07-16T06:34:55.668Z</time>
      </trkpt>
      <trkpt lat="61.71933" lon="5.19666">
        <ele>110.533175</ele>
        <time>2020-07-16T06:35:12.867Z</time>
      </trkpt>
      <trkpt lat="61.71961" lon="5.19753">
        <ele>110.161569</ele>
        <time>2020-07-16T06:35:19.410Z</time>
      </trkpt>
      <trkpt lat="61.72" lon="5.19832">
        <ele>107.982974</ele>
        <time>2020-07-16T06:35:25.251Z</time>
      </trkpt>
      <trkpt lat="61.7202" lon="5.19879">
        <ele>103.215478</ele>
        <time>2020-07-16T06:35:28.364Z</time>
      </trkpt>
      <trkpt lat="61.72054" lon="5.19974">
        <ele>94.090502</ele>
        <time>2020-07-16T06:35:34.267Z</time>
      </trkpt>
      <trkpt lat="61.7206" lon="5.2001">
        <ele>91.242376</ele>
        <time>2020-07-16T06:35:36.077Z</time>
      </trkpt>
      <trkpt lat="61.72066" lon="5.20056">
        <ele>87.584167</ele>
        <time>2020-07-16T06:35:38.410Z</time>
      </trkpt>
      <trkpt lat="61.72076" lon="5.20148">
        <ele>80.333534</ele>
        <time>2020-07-16T06:35:42.998Z</time>
      </trkpt>
      <trkpt lat="61.72092" lon="5.20239">
        <ele>72.310114</ele>
        <time>2020-07-16T06:35:47.713Z</time>
      </trkpt>
      <trkpt lat="61.7213" lon="5.20348">
        <ele>61.089627</ele>
        <time>2020-07-16T06:35:54.283Z</time>
      </trkpt>
      <trkpt lat="61.72155" lon="5.20388">
        <ele>55.536677</ele>
        <time>2020-07-16T06:35:57.564Z</time>
      </trkpt>
      <trkpt lat="61.72188" lon="5.20423">
        <ele>49.210353</ele>
        <time>2020-07-16T06:36:01.339Z</time>
      </trkpt>
      <trkpt lat="61.72309" lon="5.20529">
        <ele>30.835125</ele>
        <time>2020-07-16T06:36:14.925Z</time>
      </trkpt>
      <trkpt lat="61.72325" lon="5.20553">
        <ele>28.040214</ele>
        <time>2020-07-16T06:36:17.037Z</time>
      </trkpt>
      <trkpt lat="61.72338" lon="5.20604">
        <ele>24.23496</ele>
        <time>2020-07-16T06:36:19.983Z</time>
      </trkpt>
      <trkpt lat="61.72333" lon="5.20685">
        <ele>22.96767</ele>
        <time>2020-07-16T06:36:24.293Z</time>
      </trkpt>
      <trkpt lat="61.72309" lon="5.20779">
        <ele>21.318019</ele>
        <time>2020-07-16T06:36:30.362Z</time>
      </trkpt>
      <trkpt lat="61.72264" lon="5.20891">
        <ele>19.041402</ele>
        <time>2020-07-16T06:36:41.627Z</time>
      </trkpt>
      <trkpt lat="61.72146" lon="5.21117">
        <ele>23.641008</ele>
        <time>2020-07-16T06:37:32.041Z</time>
      </trkpt>
      <trkpt lat="61.72124" lon="5.21184">
        <ele>25.128483</ele>
        <time>2020-07-16T06:37:44.690Z</time>
      </trkpt>
      <trkpt lat="61.72116" lon="5.21237">
        <ele>25.537938</ele>
        <time>2020-07-16T06:37:52.469Z</time>
      </trkpt>
      <trkpt lat="61.72113" lon="5.21282">
        <ele>25.827048</ele>
        <time>2020-07-16T06:37:58.564Z</time>
      </trkpt>
      <trkpt lat="61.7212" lon="5.21363">
        <ele>26.344306</ele>
        <time>2020-07-16T06:38:08.489Z</time>
      </trkpt>
      <trkpt lat="61.72135" lon="5.21407">
        <ele>26.684671</ele>
        <time>2020-07-16T06:38:14.376Z</time>
      </trkpt>
      <trkpt lat="61.72171" lon="5.21465">
        <ele>27.28546</ele>
        <time>2020-07-16T06:38:22.444Z</time>
      </trkpt>
      <trkpt lat="61.72197" lon="5.21521">
        <ele>27.178693</ele>
        <time>2020-07-16T06:38:27.905Z</time>
      </trkpt>
      <trkpt lat="61.72221" lon="5.21688">
        <ele>24.295748</ele>
        <time>2020-07-16T06:38:38.874Z</time>
      </trkpt>
      <trkpt lat="61.72222" lon="5.21695">
        <ele>24.176293</ele>
        <time>2020-07-16T06:38:39.529Z</time>
      </trkpt>
      <trkpt lat="61.72231" lon="5.2172">
        <ele>23.675059</ele>
        <time>2020-07-16T06:38:41.213Z</time>
      </trkpt>
      <trkpt lat="61.72251" lon="5.21758">
        <ele>22.717004</ele>
        <time>2020-07-16T06:38:44.683Z</time>
      </trkpt>
      <trkpt lat="61.72323" lon="5.21847">
        <ele>20.273009</ele>
        <time>2020-07-16T06:38:54.670Z</time>
      </trkpt>
      <trkpt lat="61.72354" lon="5.21868">
        <ele>19.483134</ele>
        <time>2020-07-16T06:38:58.630Z</time>
      </trkpt>
      <trkpt lat="61.72431" lon="5.21889">
        <ele>17.573858</ele>
        <time>2020-07-16T06:39:09.419Z</time>
      </trkpt>
      <trkpt lat="61.72461" lon="5.21918">
        <ele>17.592177</ele>
        <time>2020-07-16T06:39:15.599Z</time>
      </trkpt>
      <trkpt lat="61.72486" lon="5.21954">
        <ele>20.321242</ele>
        <time>2020-07-16T06:39:22.603Z</time>
      </trkpt>
      <trkpt lat="61.72504" lon="5.22013">
        <ele>23.342776</ele>
        <time>2020-07-16T06:39:36.688Z</time>
      </trkpt>
      <trkpt lat="61.72542" lon="5.22257">
        <ele>34.24145</ele>
        <time>2020-07-16T06:40:48.865Z</time>
      </trkpt>
      <trkpt lat="61.72548" lon="5.22283">
        <ele>35.39391</ele>
        <time>2020-07-16T06:40:59.458Z</time>
      </trkpt>
      <trkpt lat="61.72552" lon="5.22298">
        <ele>36.081498</ele>
        <time>2020-07-16T06:41:04.869Z</time>
      </trkpt>
      <trkpt lat="61.72558" lon="5.22314">
        <ele>36.850237</ele>
        <time>2020-07-16T06:41:08.447Z</time>
      </trkpt>
      <trkpt lat="61.72564" lon="5.22327">
        <ele>37.551635</ele>
        <time>2020-07-16T06:41:13.451Z</time>
      </trkpt>
      <trkpt lat="61.7257" lon="5.22341">
        <ele>38.295687</ele>
        <time>2020-07-16T06:41:19.909Z</time>
      </trkpt>
      <trkpt lat="61.72602" lon="5.22382">
        <ele>41.384037</ele>
        <time>2020-07-16T06:41:38.809Z</time>
      </trkpt>
      <trkpt lat="61.72612" lon="5.22388">
        <ele>42.26134</ele>
        <time>2020-07-16T06:41:43.975Z</time>
      </trkpt>
      <trkpt lat="61.72619" lon="5.22391">
        <ele>42.814305</ele>
        <time>2020-07-16T06:41:45.130Z</time>
      </trkpt>
      <trkpt lat="61.72627" lon="5.22395">
        <ele>43.496251</ele>
        <time>2020-07-16T06:41:48.786Z</time>
      </trkpt>
      <trkpt lat="61.72635" lon="5.22397">
        <ele>44.20248</ele>
        <time>2020-07-16T06:41:53.512Z</time>
      </trkpt>
      <trkpt lat="61.72649" lon="5.22395">
        <ele>45.368067</ele>
        <time>2020-07-16T06:41:58.755Z</time>
      </trkpt>
      <trkpt lat="61.72681" lon="5.22387">
        <ele>48.024082</ele>
        <time>2020-07-16T06:42:09.724Z</time>
      </trkpt>
      <trkpt lat="61.72716" lon="5.22355">
        <ele>44.970704</ele>
        <time>2020-07-16T06:42:15.102Z</time>
      </trkpt>
      <trkpt lat="61.72854" lon="5.22125">
        <ele>28.901251</ele>
        <time>2020-07-16T06:42:33.988Z</time>
      </trkpt>
      <trkpt lat="61.72909" lon="5.21999">
        <ele>19.0274</ele>
        <time>2020-07-16T06:42:42.504Z</time>
      </trkpt>
      <trkpt lat="61.72936" lon="5.21892">
        <ele>12.095503</ele>
        <time>2020-07-16T06:42:48.668Z</time>
      </trkpt>
      <trkpt lat="61.72943" lon="5.21855">
        <ele>10.480392</ele>
        <time>2020-07-16T06:42:50.729Z</time>
      </trkpt>
      <trkpt lat="61.72949" lon="5.21824">
        <ele>9.58921</ele>
        <time>2020-07-16T06:42:52.514Z</time>
      </trkpt>
      <trkpt lat="61.72953" lon="5.21801">
        <ele>8.910821</ele>
        <time>2020-07-16T06:42:53.812Z</time>
      </trkpt>
      <trkpt lat="61.72962" lon="5.21756">
        <ele>7.58802</ele>
        <time>2020-07-16T06:42:56.448Z</time>
      </trkpt>
      <trkpt lat="61.72969" lon="5.21722">
        <ele>6.575971</ele>
        <time>2020-07-16T06:42:58.445Z</time>
      </trkpt>
      <trkpt lat="61.72985" lon="5.21642">
        <ele>4.205301</ele>
        <time>2020-07-16T06:43:03.376Z</time>
      </trkpt>
      <trkpt lat="61.73007" lon="5.2152">
        <ele>0.769336</ele>
        <time>2020-07-16T06:43:11.708Z</time>
      </trkpt>
      <trkpt lat="61.73014" lon="5.2148">
        <ele>0.682238</ele>
        <time>2020-07-16T06:43:14.994Z</time>
      </trkpt>
      <trkpt lat="61.73027" lon="5.21413">
        <ele>0.532567</ele>
        <time>2020-07-16T06:43:21.101Z</time>
      </trkpt>
      <trkpt lat="61.73042" lon="5.21339">
        <ele>0.367824</ele>
        <time>2020-07-16T06:43:27.867Z</time>
      </trkpt>
      <trkpt lat="61.73045" lon="5.21331">
        <ele>0.348517</ele>
        <time>2020-07-16T06:43:28.663Z</time>
      </trkpt>
      <trkpt lat="61.73051" lon="5.21306">
        <ele>0.28958</ele>
        <time>2020-07-16T06:43:31.090Z</time>
      </trkpt>
      <trkpt lat="61.73056" lon="5.21288">
        <ele>0.247119</ele>
        <time>2020-07-16T06:43:32.836Z</time>
      </trkpt>
      <trkpt lat="61.7308" lon="5.21231">
        <ele>0.090041</ele>
        <time>2020-07-16T06:43:39.300Z</time>
      </trkpt>
      <trkpt lat="61.73087" lon="5.21221">
        <ele>0.05449</ele>
        <time>2020-07-16T06:43:40.764Z</time>
      </trkpt>
      <trkpt lat="61.73106" lon="5.21194">
        <ele>0.00723</ele>
        <time>2020-07-16T06:43:44.809Z</time>
      </trkpt>
      <trkpt lat="61.73115" lon="5.2118">
        <ele>0.015183</ele>
        <time>2020-07-16T06:43:46.782Z</time>
      </trkpt>
      <trkpt lat="61.7312" lon="5.2117">
        <ele>0.020128</ele>
        <time>2020-07-16T06:43:48.019Z</time>
      </trkpt>
      <trkpt lat="61.73137" lon="5.21134">
        <ele>0.037452</ele>
        <time>2020-07-16T06:43:52.316Z</time>
      </trkpt>
      <trkpt lat="61.73182" lon="5.20985">
        <ele>0.097342</ele>
        <time>2020-07-16T06:44:07.224Z</time>
      </trkpt>
      <trkpt lat="61.73225" lon="5.2081">
        <ele>0.74801</ele>
        <time>2020-07-16T06:44:24.582Z</time>
      </trkpt>
      <trkpt lat="61.73234" lon="5.20777">
        <ele>0.972507</ele>
        <time>2020-07-16T06:44:28.196Z</time>
      </trkpt>
      <trkpt lat="61.73245" lon="5.20744">
        <ele>1.205948</ele>
        <time>2020-07-16T06:44:32.199Z</time>
      </trkpt>
      <trkpt lat="61.73269" lon="5.20651">
        <ele>1.832066</ele>
        <time>2020-07-16T06:44:43.455Z</time>
      </trkpt>
      <trkpt lat="61.73294" lon="5.20581">
        <ele>2.349329</ele>
        <time>2020-07-16T06:44:53.568Z</time>
      </trkpt>
      <trkpt lat="61.73378" lon="5.20416">
        <ele>5.248165</ele>
        <time>2020-07-16T06:45:25.061Z</time>
      </trkpt>
      <trkpt lat="61.73449" lon="5.20294">
        <ele>6.760263</ele>
        <time>2020-07-16T06:45:49.660Z</time>
      </trkpt>
      <trkpt lat="61.73511" lon="5.20235">
        <ele>6.209253</ele>
        <time>2020-07-16T06:46:00.298Z</time>
      </trkpt>
      <trkpt lat="61.73518" lon="5.20228">
        <ele>6.146334</ele>
        <time>2020-07-16T06:46:02.333Z</time>
      </trkpt>
      <trkpt lat="61.73523" lon="5.20222">
        <ele>6.100524</ele>
        <time>2020-07-16T06:46:03.023Z</time>
      </trkpt>
      <trkpt lat="61.73578" lon="5.20129">
        <ele>5.535162</ele>
        <time>2020-07-16T06:46:12.868Z</time>
      </trkpt>
      <trkpt lat="61.73584" lon="5.20115">
        <ele>5.362012</ele>
        <time>2020-07-16T06:46:13.953Z</time>
      </trkpt>
      <trkpt lat="61.73591" lon="5.20098">
        <ele>5.084576</ele>
        <time>2020-07-16T06:46:15.328Z</time>
      </trkpt>
      <trkpt lat="61.73603" lon="5.20065">
        <ele>4.585942</ele>
        <time>2020-07-16T06:46:18.148Z</time>
      </trkpt>
      <trkpt lat="61.73613" lon="5.20035">
        <ele>4.149529</ele>
        <time>2020-07-16T06:46:20.253Z</time>
      </trkpt>
      <trkpt lat="61.73636" lon="5.19953">
        <ele>2.995624</ele>
        <time>2020-07-16T06:46:26.269Z</time>
      </trkpt>
      <trkpt lat="61.73686" lon="5.19774">
        <ele>0.845675</ele>
        <time>2020-07-16T06:46:39.785Z</time>
      </trkpt>
      <trkpt lat="61.73712" lon="5.19613">
        <ele>0.449788</ele>
        <time>2020-07-16T06:46:54.082Z</time>
      </trkpt>
      <trkpt lat="61.73716" lon="5.19569">
        <ele>0.345713</ele>
        <time>2020-07-16T06:46:57.791Z</time>
      </trkpt>
      <trkpt lat="61.73724" lon="5.19479">
        <ele>0.132987</ele>
        <time>2020-07-16T06:47:05.413Z</time>
      </trkpt>
      <trkpt lat="61.73726" lon="5.19421">
        <ele>0.045523</ele>
        <time>2020-07-16T06:47:10.195Z</time>
      </trkpt>
      <trkpt lat="61.73726" lon="5.19395">
        <ele>0.042159</ele>
        <time>2020-07-16T06:47:12.411Z</time>
      </trkpt>
      <trkpt lat="61.73727" lon="5.19364">
        <ele>0.038198</ele>
        <time>2020-07-16T06:47:15.018Z</time>
      </trkpt>
      <trkpt lat="61.73724" lon="5.19106">
        <ele>0.005499</ele>
        <time>2020-07-16T06:47:36.729Z</time>
      </trkpt>
      <trkpt lat="61.73723" lon="5.19043">
        <ele>30.2</ele>
        <time>2020-07-16T06:47:42.030Z</time>
      </trkpt>
      <trkpt lat="61.73724" lon="5.19006">
        <ele>29.5</ele>
        <time>2020-07-16T06:47:45.211Z</time>
      </trkpt>
      <trkpt lat="61.73724" lon="5.18913">
        <ele>29.4</ele>
        <time>2020-07-16T06:47:53.049Z</time>
      </trkpt>
      <trkpt lat="61.73725" lon="5.18868">
        <ele>29</ele>
        <time>2020-07-16T06:47:56.840Z</time>
      </trkpt>
      <trkpt lat="61.73726" lon="5.18858">
        <ele>29.1</ele>
        <time>2020-07-16T06:47:57.694Z</time>
      </trkpt>
      <trkpt lat="61.73736" lon="5.18776">
        <ele>29.8</ele>
        <time>2020-07-16T06:48:04.914Z</time>
      </trkpt>
      <trkpt lat="61.73774" lon="5.18574">
        <ele>0.000567</ele>
        <time>2020-07-16T06:48:23.319Z</time>
      </trkpt>
      <trkpt lat="61.73798" lon="5.18468">
        <ele>0.001083</ele>
        <time>2020-07-16T06:48:33.143Z</time>
      </trkpt>
      <trkpt lat="61.7383" lon="5.18361">
        <ele>0.001649</ele>
        <time>2020-07-16T06:48:43.938Z</time>
      </trkpt>
      <trkpt lat="61.73836" lon="5.18311">
        <ele>0.059424</ele>
        <time>2020-07-16T06:48:48.246Z</time>
      </trkpt>
      <trkpt lat="61.73837" lon="5.18251">
        <ele>0.140315</ele>
        <time>2020-07-16T06:48:53.331Z</time>
      </trkpt>
      <trkpt lat="61.73832" lon="5.1821">
        <ele>0.197347</ele>
        <time>2020-07-16T06:48:56.915Z</time>
      </trkpt>
      <trkpt lat="61.73795" lon="5.18077">
        <ele>0.405834</ele>
        <time>2020-07-16T06:49:10.371Z</time>
      </trkpt>
      <trkpt lat="61.73788" lon="5.18036">
        <ele>0.463854</ele>
        <time>2020-07-16T06:49:14.399Z</time>
      </trkpt>
      <trkpt lat="61.7379" lon="5.17928">
        <ele>1.152837</ele>
        <time>2020-07-16T06:49:25.046Z</time>
      </trkpt>
      <trkpt lat="61.73809" lon="5.1784">
        <ele>2.006286</ele>
        <time>2020-07-16T06:49:35.288Z</time>
      </trkpt>
      <trkpt lat="61.73811" lon="5.17834">
        <ele>2.081092</ele>
        <time>2020-07-16T06:49:36.175Z</time>
      </trkpt>
      <trkpt lat="61.73817" lon="5.17821">
        <ele>2.232018</ele>
        <time>2020-07-16T06:49:38.251Z</time>
      </trkpt>
      <trkpt lat="61.73862" lon="5.17722">
        <ele>3.452706</ele>
        <time>2020-07-16T06:49:54.548Z</time>
      </trkpt>
      <trkpt lat="61.73882" lon="5.17648">
        <ele>4.344574</ele>
        <time>2020-07-16T06:50:05.712Z</time>
      </trkpt>
      <trkpt lat="61.7392" lon="5.17382">
        <ele>7.77848</ele>
        <time>2020-07-16T06:50:42.255Z</time>
      </trkpt>
      <trkpt lat="61.73918" lon="5.17279">
        <ele>8.722031</ele>
        <time>2020-07-16T06:50:53.285Z</time>
      </trkpt>
      <trkpt lat="61.73918" lon="5.17251">
        <ele>8.824053</ele>
        <time>2020-07-16T06:50:56.366Z</time>
      </trkpt>
      <trkpt lat="61.73916" lon="5.1719">
        <ele>9.051222</ele>
        <time>2020-07-16T06:51:01.895Z</time>
      </trkpt>
      <trkpt lat="61.73912" lon="5.17101">
        <ele>9.384656</ele>
        <time>2020-07-16T06:51:09.815Z</time>
      </trkpt>
      <trkpt lat="61.73908" lon="5.16994">
        <ele>9.786302</ele>
        <time>2020-07-16T06:51:18.994Z</time>
      </trkpt>
      <trkpt lat="61.73906" lon="5.16943">
        <ele>9.977442</ele>
        <time>2020-07-16T06:51:23.926Z</time>
      </trkpt>
      <trkpt lat="61.739" lon="5.16817">
        <ele>11.583109</ele>
        <time>2020-07-16T06:51:36.547Z</time>
      </trkpt>
      <trkpt lat="61.73901" lon="5.16773">
        <ele>12.166237</ele>
        <time>2020-07-16T06:51:41.872Z</time>
      </trkpt>
      <trkpt lat="61.73902" lon="5.16734">
        <ele>12.67903</ele>
        <time>2020-07-16T06:51:47.362Z</time>
      </trkpt>
      <trkpt lat="61.73908" lon="5.16674">
        <ele>13.477404</ele>
        <time>2020-07-16T06:51:56.414Z</time>
      </trkpt>
      <trkpt lat="61.73927" lon="5.16586">
        <ele>14.744654</ele>
        <time>2020-07-16T06:52:11.163Z</time>
      </trkpt>
      <trkpt lat="61.73935" lon="5.16553">
        <ele>15.172651</ele>
        <time>2020-07-16T06:52:16.573Z</time>
      </trkpt>
      <trkpt lat="61.73955" lon="5.16472">
        <ele>16.06612</ele>
        <time>2020-07-16T06:52:29.491Z</time>
      </trkpt>
      <trkpt lat="61.73966" lon="5.16425">
        <ele>16.579718</ele>
        <time>2020-07-16T06:52:36.336Z</time>
      </trkpt>
      <trkpt lat="61.7398" lon="5.1637">
        <ele>17.184987</ele>
        <time>2020-07-16T06:52:43.637Z</time>
      </trkpt>
      <trkpt lat="61.74007" lon="5.16257">
        <ele>18.422597</ele>
        <time>2020-07-16T06:52:56.073Z</time>
      </trkpt>
      <trkpt lat="61.74113" lon="5.15817">
        <ele>21.847626</ele>
        <time>2020-07-16T06:53:33.118Z</time>
      </trkpt>
      <trkpt lat="61.74117" lon="5.158">
        <ele>22.709647</ele>
        <time>2020-07-16T06:53:36.116Z</time>
      </trkpt>
      <trkpt lat="61.74121" lon="5.15787">
        <ele>23.3401</ele>
        <time>2020-07-16T06:53:38.330Z</time>
      </trkpt>
      <trkpt lat="61.74134" lon="5.15738">
        <ele>25.841236</ele>
        <time>2020-07-16T06:53:50.917Z</time>
      </trkpt>
      <trkpt lat="61.74161" lon="5.15675">
        <ele>29.58514</ele>
        <time>2020-07-16T06:54:12.324Z</time>
      </trkpt>
      <trkpt lat="61.74192" lon="5.15652">
        <ele>32.617385</ele>
        <time>2020-07-16T06:54:33.766Z</time>
      </trkpt>
      <trkpt lat="61.7423" lon="5.15653">
        <ele>37.888924</ele>
        <time>2020-07-16T06:55:02.682Z</time>
      </trkpt>
      <trkpt lat="61.74325" lon="5.15709">
        <ele>57.46231</ele>
        <time>2020-07-16T06:56:28.573Z</time>
      </trkpt>
      <trkpt lat="61.74358" lon="5.15718">
        <ele>64.010312</ele>
        <time>2020-07-16T06:56:58.473Z</time>
      </trkpt>
      <trkpt lat="61.74538" lon="5.15632">
        <ele>92.603036</ele>
        <time>2020-07-16T06:59:15.848Z</time>
      </trkpt>
      <trkpt lat="61.74574" lon="5.15592">
        <ele>95.837406</ele>
        <time>2020-07-16T06:59:29.127Z</time>
      </trkpt>
      <trkpt lat="61.74591" lon="5.15552">
        <ele>94.282827</ele>
        <time>2020-07-16T06:59:34.388Z</time>
      </trkpt>
      <trkpt lat="61.74605" lon="5.15491">
        <ele>92.366569</ele>
        <time>2020-07-16T06:59:38.597Z</time>
      </trkpt>
      <trkpt lat="61.74616" lon="5.15409">
        <ele>89.925743</ele>
        <time>2020-07-16T06:59:43.014Z</time>
      </trkpt>
      <trkpt lat="61.74622" lon="5.15346">
        <ele>88.057725</ele>
        <time>2020-07-16T06:59:46.273Z</time>
      </trkpt>
      <trkpt lat="61.74627" lon="5.15294">
        <ele>86.541916</ele>
        <time>2020-07-16T06:59:48.901Z</time>
      </trkpt>
      <trkpt lat="61.7464" lon="5.15169">
        <ele>81.207481</ele>
        <time>2020-07-16T06:59:55.368Z</time>
      </trkpt>
      <trkpt lat="61.74644" lon="5.15137">
        <ele>79.738874</ele>
        <time>2020-07-16T06:59:56.947Z</time>
      </trkpt>
      <trkpt lat="61.74646" lon="5.15118">
        <ele>78.84853</ele>
        <time>2020-07-16T06:59:57.973Z</time>
      </trkpt>
      <trkpt lat="61.74659" lon="5.15065">
        <ele>76.157085</ele>
        <time>2020-07-16T07:00:00.941Z</time>
      </trkpt>
      <trkpt lat="61.74679" lon="5.15025">
        <ele>73.517938</ele>
        <time>2020-07-16T07:00:03.955Z</time>
      </trkpt>
      <trkpt lat="61.74702" lon="5.15001">
        <ele>71.038238</ele>
        <time>2020-07-16T07:00:07.135Z</time>
      </trkpt>
      <trkpt lat="61.74725" lon="5.14991">
        <ele>68.792861</ele>
        <time>2020-07-16T07:00:09.883Z</time>
      </trkpt>
      <trkpt lat="61.74747" lon="5.14994">
        <ele>68.501251</ele>
        <time>2020-07-16T07:00:13.001Z</time>
      </trkpt>
      <trkpt lat="61.7497" lon="5.151">
        <ele>66.958795</ele>
        <time>2020-07-16T07:01:01.465Z</time>
      </trkpt>
      <trkpt lat="61.75016" lon="5.15093">
        <ele>65.961447</ele>
        <time>2020-07-16T07:01:07.552Z</time>
      </trkpt>
      <trkpt lat="61.75051" lon="5.15072">
        <ele>65.176561</ele>
        <time>2020-07-16T07:01:12.074Z</time>
      </trkpt>
      <trkpt lat="61.75095" lon="5.15069">
        <ele>63.999013</ele>
        <time>2020-07-16T07:01:17.228Z</time>
      </trkpt>
      <trkpt lat="61.75227" lon="5.15104">
        <ele>58.819503</ele>
        <time>2020-07-16T07:01:33.589Z</time>
      </trkpt>
      <trkpt lat="61.75259" lon="5.1513">
        <ele>57.622805</ele>
        <time>2020-07-16T07:01:38.486Z</time>
      </trkpt>
      <trkpt lat="61.75295" lon="5.15182">
        <ele>58.204895</ele>
        <time>2020-07-16T07:01:45.974Z</time>
      </trkpt>
      <trkpt lat="61.75421" lon="5.15424">
        <ele>60.788233</ele>
        <time>2020-07-16T07:02:29.591Z</time>
      </trkpt>
      <trkpt lat="61.75444" lon="5.15488">
        <ele>61.645489</ele>
        <time>2020-07-16T07:02:40.060Z</time>
      </trkpt>
      <trkpt lat="61.75498" lon="5.15764">
        <ele>64.178334</ele>
        <time>2020-07-16T07:03:14.537Z</time>
      </trkpt>
      <trkpt lat="61.75524" lon="5.15849">
        <ele>64.398094</ele>
        <time>2020-07-16T07:03:24.393Z</time>
      </trkpt>
      <trkpt lat="61.75665" lon="5.16114">
        <ele>63.35257</ele>
        <time>2020-07-16T07:03:55.572Z</time>
      </trkpt>
      <trkpt lat="61.75805" lon="5.16357">
        <ele>58.57037</ele>
        <time>2020-07-16T07:04:19.931Z</time>
      </trkpt>
      <trkpt lat="61.75886" lon="5.16589">
        <ele>55.778774</ele>
        <time>2020-07-16T07:04:36.579Z</time>
      </trkpt>
      <trkpt lat="61.75937" lon="5.16774">
        <ele>56.349672</ele>
        <time>2020-07-16T07:04:56.632Z</time>
      </trkpt>
      <trkpt lat="61.75937" lon="5.16845">
        <ele>57.103198</ele>
        <time>2020-07-16T07:05:09.218Z</time>
      </trkpt>
      <trkpt lat="61.75922" lon="5.16912">
        <ele>60.99345</ele>
        <time>2020-07-16T07:05:25.492Z</time>
      </trkpt>
      <trkpt lat="61.75895" lon="5.16948">
        <ele>64.51235</ele>
        <time>2020-07-16T07:05:42.841Z</time>
      </trkpt>
      <trkpt lat="61.75823" lon="5.16982">
        <ele>72.54141</ele>
        <time>2020-07-16T07:06:28.585Z</time>
      </trkpt>
      <trkpt lat="61.75797" lon="5.17042">
        <ele>76.461174</ele>
        <time>2020-07-16T07:06:53.244Z</time>
      </trkpt>
      <trkpt lat="61.75786" lon="5.17115">
        <ele>77.910835</ele>
        <time>2020-07-16T07:07:12.589Z</time>
      </trkpt>
      <trkpt lat="61.75791" lon="5.17305">
        <ele>81.500046</ele>
        <time>2020-07-16T07:07:41.830Z</time>
      </trkpt>
      <trkpt lat="61.75819" lon="5.17574">
        <ele>77.605498</ele>
        <time>2020-07-16T07:07:57.966Z</time>
      </trkpt>
      <trkpt lat="61.75847" lon="5.17715">
        <ele>72.449659</ele>
        <time>2020-07-16T07:08:05.866Z</time>
      </trkpt>
      <trkpt lat="61.75891" lon="5.17863">
        <ele>66.359933</ele>
        <time>2020-07-16T07:08:14.884Z</time>
      </trkpt>
      <trkpt lat="61.75906" lon="5.1792">
        <ele>64.057735</ele>
        <time>2020-07-16T07:08:18.392Z</time>
      </trkpt>
      <trkpt lat="61.75911" lon="5.17941">
        <ele>63.223667</ele>
        <time>2020-07-16T07:08:19.566Z</time>
      </trkpt>
      <trkpt lat="61.7597" lon="5.18156">
        <ele>56.617182</ele>
        <time>2020-07-16T07:08:33.891Z</time>
      </trkpt>
      <trkpt lat="61.75971" lon="5.18224">
        <ele>56.133488</ele>
        <time>2020-07-16T07:08:38.021Z</time>
      </trkpt>
      <trkpt lat="61.75963" lon="5.18258">
        <ele>55.864512</ele>
        <time>2020-07-16T07:08:41.302Z</time>
      </trkpt>
      <trkpt lat="61.75949" lon="5.18284">
        <ele>55.589416</ele>
        <time>2020-07-16T07:08:44.719Z</time>
      </trkpt>
      <trkpt lat="61.75898" lon="5.18319">
        <ele>54.772962</ele>
        <time>2020-07-16T07:08:55.504Z</time>
      </trkpt>
      <trkpt lat="61.75881" lon="5.18342">
        <ele>54.472793</ele>
        <time>2020-07-16T07:08:59.475Z</time>
      </trkpt>
      <trkpt lat="61.75868" lon="5.18373">
        <ele>53.8809</ele>
        <time>2020-07-16T07:09:03.621Z</time>
      </trkpt>
      <trkpt lat="61.75862" lon="5.18429">
        <ele>53.043667</ele>
        <time>2020-07-16T07:09:08.722Z</time>
      </trkpt>
      <trkpt lat="61.75869" lon="5.18487">
        <ele>52.168748</ele>
        <time>2020-07-16T07:09:13.030Z</time>
      </trkpt>
      <trkpt lat="61.75943" lon="5.18651">
        <ele>48.818111</ele>
        <time>2020-07-16T07:09:26.081Z</time>
      </trkpt>
      <trkpt lat="61.75964" lon="5.18714">
        <ele>46.7842</ele>
        <time>2020-07-16T07:09:30.285Z</time>
      </trkpt>
      <trkpt lat="61.75974" lon="5.18761">
        <ele>45.404257</ele>
        <time>2020-07-16T07:09:33.093Z</time>
      </trkpt>
      <trkpt lat="61.75976" lon="5.1882">
        <ele>43.856237</ele>
        <time>2020-07-16T07:09:36.256Z</time>
      </trkpt>
      <trkpt lat="61.75916" lon="5.1918">
        <ele>38.002763</ele>
        <time>2020-07-16T07:09:58.512Z</time>
      </trkpt>
      <trkpt lat="61.75825" lon="5.19502">
        <ele>42.557725</ele>
        <time>2020-07-16T07:10:46.791Z</time>
      </trkpt>
      <trkpt lat="61.75816" lon="5.19529">
        <ele>43.473511</ele>
        <time>2020-07-16T07:10:53.560Z</time>
      </trkpt>
      <trkpt lat="61.75806" lon="5.19562">
        <ele>44.574809</ele>
        <time>2020-07-16T07:11:01.506Z</time>
      </trkpt>
      <trkpt lat="61.75785" lon="5.19639">
        <ele>47.121483</ele>
        <time>2020-07-16T07:11:20.600Z</time>
      </trkpt>
      <trkpt lat="61.75782" lon="5.19651">
        <ele>47.494648</ele>
        <time>2020-07-16T07:11:24.265Z</time>
      </trkpt>
      <trkpt lat="61.75774" lon="5.19686">
        <ele>48.994197</ele>
        <time>2020-07-16T07:11:33.729Z</time>
      </trkpt>
      <trkpt lat="61.75721" lon="5.20083">
        <ele>66.713003</ele>
        <time>2020-07-16T07:13:13.044Z</time>
      </trkpt>
      <trkpt lat="61.75721" lon="5.20149">
        <ele>67.902982</ele>
        <time>2020-07-16T07:13:25.157Z</time>
      </trkpt>
      <trkpt lat="61.75734" lon="5.20317">
        <ele>70.926708</ele>
        <time>2020-07-16T07:13:49.261Z</time>
      </trkpt>
      <trkpt lat="61.7578" lon="5.20534">
        <ele>68.663441</ele>
        <time>2020-07-16T07:14:04.727Z</time>
      </trkpt>
      <trkpt lat="61.75821" lon="5.20692">
        <ele>63.954406</ele>
        <time>2020-07-16T07:14:14.432Z</time>
      </trkpt>
      <trkpt lat="61.75849" lon="5.20763">
        <ele>61.535019</ele>
        <time>2020-07-16T07:14:19.283Z</time>
      </trkpt>
      <trkpt lat="61.7591" lon="5.20858">
        <ele>57.334906</ele>
        <time>2020-07-16T07:14:27.666Z</time>
      </trkpt>
      <trkpt lat="61.75926" lon="5.20904">
        <ele>55.818509</ele>
        <time>2020-07-16T07:14:31.053Z</time>
      </trkpt>
      <trkpt lat="61.75937" lon="5.20961">
        <ele>54.211204</ele>
        <time>2020-07-16T07:14:34.674Z</time>
      </trkpt>
      <trkpt lat="61.7594" lon="5.21025">
        <ele>52.66375</ele>
        <time>2020-07-16T07:14:39.114Z</time>
      </trkpt>
      <trkpt lat="61.7593" lon="5.21122">
        <ele>54.616261</ele>
        <time>2020-07-16T07:14:50.585Z</time>
      </trkpt>
      <trkpt lat="61.75922" lon="5.21174">
        <ele>55.701377</ele>
        <time>2020-07-16T07:14:56.515Z</time>
      </trkpt>
      <trkpt lat="61.75919" lon="5.21195">
        <ele>56.12557</ele>
        <time>2020-07-16T07:15:01.341Z</time>
      </trkpt>
      <trkpt lat="61.75907" lon="5.21302">
        <ele>58.282867</ele>
        <time>2020-07-16T07:15:19.529Z</time>
      </trkpt>
      <trkpt lat="61.75906" lon="5.21392">
        <ele>60.041065</ele>
        <time>2020-07-16T07:15:37.003Z</time>
      </trkpt>
      <trkpt lat="61.75909" lon="5.21452">
        <ele>61.418736</ele>
        <time>2020-07-16T07:15:50.545Z</time>
      </trkpt>
      <trkpt lat="61.75923" lon="5.2156">
        <ele>63.977899</ele>
        <time>2020-07-16T07:16:12.904Z</time>
      </trkpt>
      <trkpt lat="61.75969" lon="5.21731">
        <ele>68.445919</ele>
        <time>2020-07-16T07:16:40.905Z</time>
      </trkpt>
      <trkpt lat="61.76109" lon="5.2218">
        <ele>66.018473</ele>
        <time>2020-07-16T07:17:18.837Z</time>
      </trkpt>
      <trkpt lat="61.76126" lon="5.22231">
        <ele>65.457525</ele>
        <time>2020-07-16T07:17:22.877Z</time>
      </trkpt>
      <trkpt lat="61.76131" lon="5.22246">
        <ele>65.305326</ele>
        <time>2020-07-16T07:17:23.993Z</time>
      </trkpt>
      <trkpt lat="61.76143" lon="5.22291">
        <ele>64.846355</ele>
        <time>2020-07-16T07:17:27.287Z</time>
      </trkpt>
      <trkpt lat="61.7616" lon="5.22403">
        <ele>64.065561</ele>
        <time>2020-07-16T07:17:35.119Z</time>
      </trkpt>
      <trkpt lat="61.76161" lon="5.22483">
        <ele>64.64802</ele>
        <time>2020-07-16T07:17:40.880Z</time>
      </trkpt>
      <trkpt lat="61.76159" lon="5.22594">
        <ele>65.45526</ele>
        <time>2020-07-16T07:17:51.407Z</time>
      </trkpt>
      <trkpt lat="61.76154" lon="5.22771">
        <ele>66.830153</ele>
        <time>2020-07-16T07:18:14.485Z</time>
      </trkpt>
      <trkpt lat="61.76148" lon="5.2305">
        <ele>75.506303</ele>
        <time>2020-07-16T07:19:06.509Z</time>
      </trkpt>
      <trkpt lat="61.76145" lon="5.23139">
        <ele>78.271796</ele>
        <time>2020-07-16T07:19:24.883Z</time>
      </trkpt>
      <trkpt lat="61.76145" lon="5.23194">
        <ele>80.339443</ele>
        <time>2020-07-16T07:19:35.938Z</time>
      </trkpt>
      <trkpt lat="61.76145" lon="5.23219">
        <ele>81.323467</ele>
        <time>2020-07-16T07:19:41.131Z</time>
      </trkpt>
      <trkpt lat="61.76134" lon="5.23426">
        <ele>89.441804</ele>
        <time>2020-07-16T07:20:22.853Z</time>
      </trkpt>
      <trkpt lat="61.76112" lon="5.23648">
        <ele>99.542305</ele>
        <time>2020-07-16T07:21:14.774Z</time>
      </trkpt>
      <trkpt lat="61.76108" lon="5.23695">
        <ele>101.90042</ele>
        <time>2020-07-16T07:21:27.341Z</time>
      </trkpt>
      <trkpt lat="61.76106" lon="5.23723">
        <ele>103.264082</ele>
        <time>2020-07-16T07:21:34.430Z</time>
      </trkpt>
      <trkpt lat="61.76102" lon="5.2376">
        <ele>105.129883</ele>
        <time>2020-07-16T07:21:44.661Z</time>
      </trkpt>
      <trkpt lat="61.76086" lon="5.23946">
        <ele>113.345285</ele>
        <time>2020-07-16T07:22:31.693Z</time>
      </trkpt>
      <trkpt lat="61.76076" lon="5.24053">
        <ele>116.462537</ele>
        <time>2020-07-16T07:22:55.256Z</time>
      </trkpt>
      <trkpt lat="61.76071" lon="5.24146">
        <ele>119.149822</ele>
        <time>2020-07-16T07:23:12.435Z</time>
      </trkpt>
      <trkpt lat="61.7608" lon="5.24247">
        <ele>122.094084</ele>
        <time>2020-07-16T07:23:26.731Z</time>
      </trkpt>
      <trkpt lat="61.76167" lon="5.24675">
        <ele>120.848667</ele>
        <time>2020-07-16T07:24:00.219Z</time>
      </trkpt>
      <trkpt lat="61.76192" lon="5.2484">
        <ele>119.039161</ele>
        <time>2020-07-16T07:24:12.077Z</time>
      </trkpt>
      <trkpt lat="61.76238" lon="5.24992">
        <ele>116.136315</ele>
        <time>2020-07-16T07:24:23.307Z</time>
      </trkpt>
      <trkpt lat="61.76245" lon="5.25053">
        <ele>113.621971</ele>
        <time>2020-07-16T07:24:27.066Z</time>
      </trkpt>
      <trkpt lat="61.76243" lon="5.25145">
        <ele>109.972467</ele>
        <time>2020-07-16T07:24:32.440Z</time>
      </trkpt>
      <trkpt lat="61.76252" lon="5.2524">
        <ele>106.11478</ele>
        <time>2020-07-16T07:24:37.403Z</time>
      </trkpt>
      <trkpt lat="61.76258" lon="5.25275">
        <ele>104.593492</ele>
        <time>2020-07-16T07:24:39.334Z</time>
      </trkpt>
      <trkpt lat="61.7628" lon="5.25343">
        <ele>100.35694</ele>
        <time>2020-07-16T07:24:43.334Z</time>
      </trkpt>
      <trkpt lat="61.76322" lon="5.25412">
        <ele>91.669673</ele>
        <time>2020-07-16T07:24:48.960Z</time>
      </trkpt>
      <trkpt lat="61.76338" lon="5.25426">
        <ele>88.935926</ele>
        <time>2020-07-16T07:24:50.661Z</time>
      </trkpt>
      <trkpt lat="61.7634" lon="5.25428">
        <ele>88.638736</ele>
        <time>2020-07-16T07:24:50.882Z</time>
      </trkpt>
      <trkpt lat="61.76368" lon="5.25443">
        <ele>83.82299</ele>
        <time>2020-07-16T07:24:53.966Z</time>
      </trkpt>
      <trkpt lat="61.76469" lon="5.25447">
        <ele>70.136885</ele>
        <time>2020-07-16T07:25:04.396Z</time>
      </trkpt>
      <trkpt lat="61.76477" lon="5.25451">
        <ele>69.469538</ele>
        <time>2020-07-16T07:25:05.202Z</time>
      </trkpt>
      <trkpt lat="61.76484" lon="5.25458">
        <ele>68.770203</ele>
        <time>2020-07-16T07:25:06.047Z</time>
      </trkpt>
      <trkpt lat="61.76499" lon="5.25481">
        <ele>67.222049</ele>
        <time>2020-07-16T07:25:08.302Z</time>
      </trkpt>
      <trkpt lat="61.76505" lon="5.25493">
        <ele>66.550902</ele>
        <time>2020-07-16T07:25:09.119Z</time>
      </trkpt>
      <trkpt lat="61.76509" lon="5.25489">
        <ele>66.145946</ele>
        <time>2020-07-16T07:25:09.836Z</time>
      </trkpt>
      <trkpt lat="61.76513" lon="5.25488">
        <ele>65.855827</ele>
        <time>2020-07-16T07:25:10.377Z</time>
      </trkpt>
      <trkpt lat="61.76515" lon="5.25495">
        <ele>65.544797</ele>
        <time>2020-07-16T07:25:10.938Z</time>
      </trkpt>
      <trkpt lat="61.76533" lon="5.25586">
        <ele>61.580102</ele>
        <time>2020-07-16T07:25:17.002Z</time>
      </trkpt>
      <trkpt lat="61.76533" lon="5.25668">
        <ele>58.335047</ele>
        <time>2020-07-16T07:25:22.426Z</time>
      </trkpt>
      <trkpt lat="61.76532" lon="5.25685">
        <ele>58.204859</ele>
        <time>2020-07-16T07:25:23.407Z</time>
      </trkpt>
      <trkpt lat="61.7653" lon="5.25705">
        <ele>58.980604</ele>
        <time>2020-07-16T07:25:24.671Z</time>
      </trkpt>
      <trkpt lat="61.76513" lon="5.25774">
        <ele>61.886692</ele>
        <time>2020-07-16T07:25:36.875Z</time>
      </trkpt>
      <trkpt lat="61.76496" lon="5.25815">
        <ele>63.92696</ele>
        <time>2020-07-16T07:25:50.723Z</time>
      </trkpt>
      <trkpt lat="61.76492" lon="5.25825">
        <ele>64.455606</ele>
        <time>2020-07-16T07:25:53.319Z</time>
      </trkpt>
      <trkpt lat="61.76481" lon="5.25844">
        <ele>65.532696</ele>
        <time>2020-07-16T07:26:00.981Z</time>
      </trkpt>
      <trkpt lat="61.76454" lon="5.2587">
        <ele>67.873435</ele>
        <time>2020-07-16T07:26:16.501Z</time>
      </trkpt>
      <trkpt lat="61.76401" lon="5.25892">
        <ele>72.154123</ele>
        <time>2020-07-16T07:26:49.258Z</time>
      </trkpt>
      <trkpt lat="61.76381" lon="5.25892">
        <ele>73.974027</ele>
        <time>2020-07-16T07:27:01.531Z</time>
      </trkpt>
      <trkpt lat="61.76364" lon="5.25892">
        <ele>75.472204</ele>
        <time>2020-07-16T07:27:10.850Z</time>
      </trkpt>
      <trkpt lat="61.76346" lon="5.25897">
        <ele>77.036642</ele>
        <time>2020-07-16T07:27:20.913Z</time>
      </trkpt>
      <trkpt lat="61.76324" lon="5.2592">
        <ele>79.15927</ele>
        <time>2020-07-16T07:27:32.951Z</time>
      </trkpt>
      <trkpt lat="61.76308" lon="5.25961">
        <ele>81.400492</ele>
        <time>2020-07-16T07:27:46.659Z</time>
      </trkpt>
      <trkpt lat="61.76303" lon="5.25997">
        <ele>82.964603</ele>
        <time>2020-07-16T07:27:53.172Z</time>
      </trkpt>
      <trkpt lat="61.76302" lon="5.26015">
        <ele>83.694311</ele>
        <time>2020-07-16T07:28:00.250Z</time>
      </trkpt>
      <trkpt lat="61.76303" lon="5.26052">
        <ele>85.209725</ele>
        <time>2020-07-16T07:28:05.727Z</time>
      </trkpt>
      <trkpt lat="61.76315" lon="5.26263">
        <ele>87.249105</ele>
        <time>2020-07-16T07:28:34.037Z</time>
      </trkpt>
      <trkpt lat="61.76303" lon="5.26346">
        <ele>86.851022</ele>
        <time>2020-07-16T07:28:39.835Z</time>
      </trkpt>
      <trkpt lat="61.76282" lon="5.26397">
        <ele>86.533013</ele>
        <time>2020-07-16T07:28:44.190Z</time>
      </trkpt>
      <trkpt lat="61.76223" lon="5.26461">
        <ele>84.245739</ele>
        <time>2020-07-16T07:28:52.547Z</time>
      </trkpt>
      <trkpt lat="61.76207" lon="5.26502">
        <ele>82.547594</ele>
        <time>2020-07-16T07:28:55.772Z</time>
      </trkpt>
      <trkpt lat="61.762" lon="5.26536">
        <ele>81.364161</ele>
        <time>2020-07-16T07:28:57.774Z</time>
      </trkpt>
      <trkpt lat="61.76198" lon="5.26575">
        <ele>80.129107</ele>
        <time>2020-07-16T07:28:59.986Z</time>
      </trkpt>
      <trkpt lat="61.76201" lon="5.26608">
        <ele>79.051349</ele>
        <time>2020-07-16T07:29:01.825Z</time>
      </trkpt>
      <trkpt lat="61.7622" lon="5.26687">
        <ele>76.274053</ele>
        <time>2020-07-16T07:29:06.747Z</time>
      </trkpt>
      <trkpt lat="61.76232" lon="5.26717">
        <ele>75.02406</ele>
        <time>2020-07-16T07:29:09.294Z</time>
      </trkpt>
      <trkpt lat="61.76233" lon="5.2672">
        <ele>74.868666</ele>
        <time>2020-07-16T07:29:09.549Z</time>
      </trkpt>
      <trkpt lat="61.76232" lon="5.26724">
        <ele>74.718694</ele>
        <time>2020-07-16T07:29:10.099Z</time>
      </trkpt>
      <trkpt lat="61.76229" lon="5.26728">
        <ele>74.471479</ele>
        <time>2020-07-16T07:29:10.641Z</time>
      </trkpt>
      <trkpt lat="61.76226" lon="5.26733">
        <ele>74.195647</ele>
        <time>2020-07-16T07:29:11.180Z</time>
      </trkpt>
      <trkpt lat="61.76231" lon="5.26763">
        <ele>73.942495</ele>
        <time>2020-07-16T07:29:12.980Z</time>
      </trkpt>
      <trkpt lat="61.76235" lon="5.26793">
        <ele>73.741699</ele>
        <time>2020-07-16T07:29:14.731Z</time>
      </trkpt>
      <trkpt lat="61.76236" lon="5.26812">
        <ele>73.619309</ele>
        <time>2020-07-16T07:29:15.838Z</time>
      </trkpt>
      <trkpt lat="61.76236" lon="5.2683">
        <ele>73.504846</ele>
        <time>2020-07-16T07:29:16.904Z</time>
      </trkpt>
      <trkpt lat="61.76238" lon="5.26876">
        <ele>73.21545</ele>
        <time>2020-07-16T07:29:19.570Z</time>
      </trkpt>
      <trkpt lat="61.76242" lon="5.2719">
        <ele>71.765712</ele>
        <time>2020-07-16T07:29:51.380Z</time>
      </trkpt>
      <trkpt lat="61.76242" lon="5.27237">
        <ele>71.794202</ele>
        <time>2020-07-16T07:30:00.479Z</time>
      </trkpt>
      <trkpt lat="61.76241" lon="5.27372">
        <ele>71.87709</ele>
        <time>2020-07-16T07:30:14.104Z</time>
      </trkpt>
      <trkpt lat="61.76244" lon="5.27446">
        <ele>71.92277</ele>
        <time>2020-07-16T07:30:19.508Z</time>
      </trkpt>
      <trkpt lat="61.76251" lon="5.27489">
        <ele>71.950805</ele>
        <time>2020-07-16T07:30:22.416Z</time>
      </trkpt>
      <trkpt lat="61.76263" lon="5.27538">
        <ele>69.013982</ele>
        <time>2020-07-16T07:30:25.891Z</time>
      </trkpt>
      <trkpt lat="61.76276" lon="5.27583">
        <ele>66.21809</ele>
        <time>2020-07-16T07:30:28.643Z</time>
      </trkpt>
      <trkpt lat="61.7633" lon="5.27767">
        <ele>54.676344</ele>
        <time>2020-07-16T07:30:39.496Z</time>
      </trkpt>
      <trkpt lat="61.76378" lon="5.27928">
        <ele>42.983911</ele>
        <time>2020-07-16T07:30:48.756Z</time>
      </trkpt>
      <trkpt lat="61.76419" lon="5.28071">
        <ele>32.10291</ele>
        <time>2020-07-16T07:30:57.066Z</time>
      </trkpt>
      <trkpt lat="61.76466" lon="5.28218">
        <ele>25.414952</ele>
        <time>2020-07-16T07:31:06.292Z</time>
      </trkpt>
      <trkpt lat="61.7652" lon="5.28351">
        <ele>22.557992</ele>
        <time>2020-07-16T07:31:17.291Z</time>
      </trkpt>
      <trkpt lat="61.76526" lon="5.28363">
        <ele>22.270221</ele>
        <time>2020-07-16T07:31:18.758Z</time>
      </trkpt>
      <trkpt lat="61.76543" lon="5.28392">
        <ele>21.522316</ele>
        <time>2020-07-16T07:31:23.539Z</time>
      </trkpt>
      <trkpt lat="61.76646" lon="5.28517">
        <ele>22.954115</ele>
        <time>2020-07-16T07:31:56.146Z</time>
      </trkpt>
      <trkpt lat="61.76689" lon="5.286">
        <ele>24.211478</ele>
        <time>2020-07-16T07:32:12.158Z</time>
      </trkpt>
      <trkpt lat="61.76704" lon="5.28644">
        <ele>24.649517</ele>
        <time>2020-07-16T07:32:17.532Z</time>
      </trkpt>
      <trkpt lat="61.76708" lon="5.28657">
        <ele>24.488676</ele>
        <time>2020-07-16T07:32:19.063Z</time>
      </trkpt>
      <trkpt lat="61.76711" lon="5.28669">
        <ele>24.346074</ele>
        <time>2020-07-16T07:32:20.176Z</time>
      </trkpt>
      <trkpt lat="61.76744" lon="5.28786">
        <ele>22.93798</ele>
        <time>2020-07-16T07:32:30.167Z</time>
      </trkpt>
      <trkpt lat="61.76751" lon="5.28809">
        <ele>22.667872</ele>
        <time>2020-07-16T07:32:31.791Z</time>
      </trkpt>
      <trkpt lat="61.76763" lon="5.28855">
        <ele>22.119031</ele>
        <time>2020-07-16T07:32:35.164Z</time>
      </trkpt>
      <trkpt lat="61.7678" lon="5.28915">
        <ele>21.404804</ele>
        <time>2020-07-16T07:32:39.323Z</time>
      </trkpt>
      <trkpt lat="61.76822" lon="5.2906">
        <ele>19.456468</ele>
        <time>2020-07-16T07:32:49.094Z</time>
      </trkpt>
      <trkpt lat="61.76838" lon="5.29119">
        <ele>18.649529</ele>
        <time>2020-07-16T07:32:53.063Z</time>
      </trkpt>
      <trkpt lat="61.76843" lon="5.29137">
        <ele>18.390748</ele>
        <time>2020-07-16T07:32:54.303Z</time>
      </trkpt>
      <trkpt lat="61.7684" lon="5.29142">
        <ele>18.299109</ele>
        <time>2020-07-16T07:32:55.031Z</time>
      </trkpt>
      <trkpt lat="61.76826" lon="5.29209">
        <ele>17.410904</ele>
        <time>2020-07-16T07:33:01.750Z</time>
      </trkpt>
      <trkpt lat="61.76806" lon="5.29213">
        <ele>16.895011</ele>
        <time>2020-07-16T07:33:06.250Z</time>
      </trkpt>
      <trkpt lat="61.76804" lon="5.29215">
        <ele>16.838014</ele>
        <time>2020-07-16T07:33:06.929Z</time>
      </trkpt>
      <trkpt lat="61.76801" lon="5.29221">
        <ele>16.745187</ele>
        <time>2020-07-16T07:33:07.722Z</time>
      </trkpt>
      <trkpt lat="61.76793" lon="5.29237">
        <ele>16.47021</ele>
        <time>2020-07-16T07:33:10.085Z</time>
      </trkpt>
      <trkpt lat="61.76793" lon="5.29239">
        <ele>16.439261</ele>
        <time>2020-07-16T07:33:10.474Z</time>
      </trkpt>
      <trkpt lat="61.76789" lon="5.29252">
        <ele>16.253436</ele>
        <time>2020-07-16T07:33:12.260Z</time>
      </trkpt>
      <trkpt lat="61.76786" lon="5.29255">
        <ele>16.300031</ele>
        <time>2020-07-16T07:33:13.047Z</time>
      </trkpt>
      <trkpt lat="61.76781" lon="5.29246">
        <ele>16.757617</ele>
        <time>2020-07-16T07:33:14.754Z</time>
      </trkpt>
      <trkpt lat="61.76763" lon="5.29233">
        <ele>17.957485</ele>
        <time>2020-07-16T07:33:18.823Z</time>
      </trkpt>
      <trkpt lat="61.76749" lon="5.29238">
        <ele>18.901603</ele>
        <time>2020-07-16T07:33:22.375Z</time>
      </trkpt>
      <trkpt lat="61.76743" lon="5.29247">
        <ele>19.358803</ele>
        <time>2020-07-16T07:33:24.417Z</time>
      </trkpt>
      <trkpt lat="61.76721" lon="5.29287">
        <ele>21.222092</ele>
        <time>2020-07-16T07:33:31.813Z</time>
      </trkpt>
      <trkpt lat="61.76691" lon="5.29315">
        <ele>23.35253</ele>
        <time>2020-07-16T07:33:45.155Z</time>
      </trkpt>
      <trkpt lat="61.76655" lon="5.29328">
        <ele>25.676036</ele>
        <time>2020-07-16T07:34:02.644Z</time>
      </trkpt>
      <trkpt lat="61.76638" lon="5.29334">
        <ele>26.802301</ele>
        <time>2020-07-16T07:34:10.989Z</time>
      </trkpt>
      <trkpt lat="61.76579" lon="5.29346">
        <ele>35.848111</ele>
        <time>2020-07-16T07:34:48.732Z</time>
      </trkpt>
      <trkpt lat="61.76562" lon="5.29349">
        <ele>39.03338</ele>
        <time>2020-07-16T07:34:58.898Z</time>
      </trkpt>
      <trkpt lat="61.76546" lon="5.29355">
        <ele>42.173557</ele>
        <time>2020-07-16T07:35:13.088Z</time>
      </trkpt>
      <trkpt lat="61.76527" lon="5.29377">
        <ele>46.240354</ele>
        <time>2020-07-16T07:35:28.675Z</time>
      </trkpt>
      <trkpt lat="61.76525" lon="5.29397">
        <ele>48.041983</ele>
        <time>2020-07-16T07:35:37.521Z</time>
      </trkpt>
      <trkpt lat="61.76531" lon="5.29423">
        <ele>50.611215</ele>
        <time>2020-07-16T07:35:48.586Z</time>
      </trkpt>
      <trkpt lat="61.76666" lon="5.29546">
        <ele>80.849159</ele>
        <time>2020-07-16T07:38:02.809Z</time>
      </trkpt>
      <trkpt lat="61.76685" lon="5.29586">
        <ele>86.704781</ele>
        <time>2020-07-16T07:38:26.712Z</time>
      </trkpt>
      <trkpt lat="61.76711" lon="5.29709">
        <ele>100.482575</ele>
        <time>2020-07-16T07:39:18.519Z</time>
      </trkpt>
      <trkpt lat="61.76721" lon="5.29756">
        <ele>103.77851</ele>
        <time>2020-07-16T07:39:37.629Z</time>
      </trkpt>
      <trkpt lat="61.76732" lon="5.29797">
        <ele>106.760706</ele>
        <time>2020-07-16T07:39:52.780Z</time>
      </trkpt>
      <trkpt lat="61.76779" lon="5.29949">
        <ele>118.321021</ele>
        <time>2020-07-16T07:40:49.234Z</time>
      </trkpt>
      <trkpt lat="61.76817" lon="5.30098">
        <ele>125.171451</ele>
        <time>2020-07-16T07:41:21.535Z</time>
      </trkpt>
      <trkpt lat="61.76839" lon="5.30201">
        <ele>126.137677</ele>
        <time>2020-07-16T07:41:35.947Z</time>
      </trkpt>
      <trkpt lat="61.76842" lon="5.3021">
        <ele>126.221354</ele>
        <time>2020-07-16T07:41:36.455Z</time>
      </trkpt>
      <trkpt lat="61.76868" lon="5.3031">
        <ele>127.196218</ele>
        <time>2020-07-16T07:41:49.115Z</time>
      </trkpt>
      <trkpt lat="61.76878" lon="5.30335">
        <ele>127.475975</ele>
        <time>2020-07-16T07:41:51.043Z</time>
      </trkpt>
      <trkpt lat="61.76884" lon="5.30348">
        <ele>127.620285</ele>
        <time>2020-07-16T07:41:52.224Z</time>
      </trkpt>
      <trkpt lat="61.76917" lon="5.30397">
        <ele>127.710867</ele>
        <time>2020-07-16T07:41:57.881Z</time>
      </trkpt>
      <trkpt lat="61.76961" lon="5.30432">
        <ele>127.573218</ele>
        <time>2020-07-16T07:42:04.037Z</time>
      </trkpt>
      <trkpt lat="61.77037" lon="5.30476">
        <ele>127.342678</ele>
        <time>2020-07-16T07:42:18.569Z</time>
      </trkpt>
      <trkpt lat="61.77073" lon="5.30498">
        <ele>127.82812</ele>
        <time>2020-07-16T07:42:29.109Z</time>
      </trkpt>
      <trkpt lat="61.77117" lon="5.30525">
        <ele>129.625666</ele>
        <time>2020-07-16T07:42:43.046Z</time>
      </trkpt>
      <trkpt lat="61.7723" lon="5.30592">
        <ele>134.242244</ele>
        <time>2020-07-16T07:43:22.757Z</time>
      </trkpt>
      <trkpt lat="61.77342" lon="5.30659">
        <ele>137.549275</ele>
        <time>2020-07-16T07:43:51.499Z</time>
      </trkpt>
      <trkpt lat="61.77487" lon="5.30761">
        <ele>143.941443</ele>
        <time>2020-07-16T07:44:33.393Z</time>
      </trkpt>
      <trkpt lat="61.77684" lon="5.30908">
        <ele>159.425291</ele>
        <time>2020-07-16T07:45:59.949Z</time>
      </trkpt>
      <trkpt lat="61.77706" lon="5.30929">
        <ele>161.662158</ele>
        <time>2020-07-16T07:46:13.099Z</time>
      </trkpt>
      <trkpt lat="61.77721" lon="5.30956">
        <ele>163.471647</ele>
        <time>2020-07-16T07:46:24.208Z</time>
      </trkpt>
      <trkpt lat="61.77733" lon="5.30987">
        <ele>165.214148</ele>
        <time>2020-07-16T07:46:35.083Z</time>
      </trkpt>
      <trkpt lat="61.7774" lon="5.31038">
        <ele>168.827448</ele>
        <time>2020-07-16T07:46:49.907Z</time>
      </trkpt>
      <trkpt lat="61.77733" lon="5.31094">
        <ele>172.846286</ele>
        <time>2020-07-16T07:47:06.502Z</time>
      </trkpt>
      <trkpt lat="61.77722" lon="5.31131">
        <ele>175.848587</ele>
        <time>2020-07-16T07:47:19.150Z</time>
      </trkpt>
      <trkpt lat="61.77678" lon="5.31213">
        <ele>184.464478</ele>
        <time>2020-07-16T07:47:59.702Z</time>
      </trkpt>
      <trkpt lat="61.77623" lon="5.31297">
        <ele>194.348377</ele>
        <time>2020-07-16T07:48:48.329Z</time>
      </trkpt>
      <trkpt lat="61.77575" lon="5.31343">
        <ele>201.610973</ele>
        <time>2020-07-16T07:49:21.091Z</time>
      </trkpt>
      <trkpt lat="61.77563" lon="5.31349">
        <ele>203.279611</ele>
        <time>2020-07-16T07:49:30.491Z</time>
      </trkpt>
      <trkpt lat="61.77456" lon="5.31402">
        <ele>218.805656</ele>
        <time>2020-07-16T07:50:31.930Z</time>
      </trkpt>
      <trkpt lat="61.7743" lon="5.31414">
        <ele>223.00382</ele>
        <time>2020-07-16T07:50:52.613Z</time>
      </trkpt>
      <trkpt lat="61.77377" lon="5.31443">
        <ele>231.544684</ele>
        <time>2020-07-16T07:51:25.420Z</time>
      </trkpt>
      <trkpt lat="61.7736" lon="5.31458">
        <ele>234.497329</ele>
        <time>2020-07-16T07:51:42.488Z</time>
      </trkpt>
      <trkpt lat="61.77347" lon="5.31478">
        <ele>237.016227</ele>
        <time>2020-07-16T07:51:49.611Z</time>
      </trkpt>
      <trkpt lat="61.77342" lon="5.31486">
        <ele>237.922641</ele>
        <time>2020-07-16T07:51:53.201Z</time>
      </trkpt>
      <trkpt lat="61.77334" lon="5.31512">
        <ele>240.1993</ele>
        <time>2020-07-16T07:52:06.490Z</time>
      </trkpt>
      <trkpt lat="61.77327" lon="5.3155">
        <ele>243.298928</ele>
        <time>2020-07-16T07:52:15.992Z</time>
      </trkpt>
      <trkpt lat="61.77326" lon="5.31566">
        <ele>244.445938</ele>
        <time>2020-07-16T07:52:22.683Z</time>
      </trkpt>
      <trkpt lat="61.77327" lon="5.3158">
        <ele>245.773233</ele>
        <time>2020-07-16T07:52:29.139Z</time>
      </trkpt>
      <trkpt lat="61.77334" lon="5.31629">
        <ele>250.825294</ele>
        <time>2020-07-16T07:52:43.392Z</time>
      </trkpt>
      <trkpt lat="61.77418" lon="5.31944">
        <ele>285.293196</ele>
        <time>2020-07-16T07:55:19.446Z</time>
      </trkpt>
      <trkpt lat="61.77418" lon="5.32005">
        <ele>288.945121</ele>
        <time>2020-07-16T07:55:37.851Z</time>
      </trkpt>
      <trkpt lat="61.77405" lon="5.32091">
        <ele>294.398362</ele>
        <time>2020-07-16T07:56:10.414Z</time>
      </trkpt>
      <trkpt lat="61.77405" lon="5.32143">
        <ele>297.519304</ele>
        <time>2020-07-16T07:56:19.319Z</time>
      </trkpt>
      <trkpt lat="61.77407" lon="5.32165">
        <ele>298.903593</ele>
        <time>2020-07-16T07:56:29.359Z</time>
      </trkpt>
      <trkpt lat="61.77409" lon="5.3218">
        <ele>299.824163</ele>
        <time>2020-07-16T07:56:30.331Z</time>
      </trkpt>
      <trkpt lat="61.77418" lon="5.32215">
        <ele>302.197176</ele>
        <time>2020-07-16T07:56:37.555Z</time>
      </trkpt>
      <trkpt lat="61.77605" lon="5.32568">
        <ele>312.14347</ele>
        <time>2020-07-16T07:57:38.610Z</time>
      </trkpt>
      <trkpt lat="61.77703" lon="5.32676">
        <ele>317.024547</ele>
        <time>2020-07-16T07:58:11.536Z</time>
      </trkpt>
      <trkpt lat="61.77719" lon="5.32705">
        <ele>317.950883</ele>
        <time>2020-07-16T07:58:20.562Z</time>
      </trkpt>
      <trkpt lat="61.77741" lon="5.32768">
        <ele>321.19192</ele>
        <time>2020-07-16T07:58:38.543Z</time>
      </trkpt>
      <trkpt lat="61.77755" lon="5.32912">
        <ele>327.626554</ele>
        <time>2020-07-16T07:59:16.058Z</time>
      </trkpt>
      <trkpt lat="61.7778" lon="5.3299">
        <ele>331.781695</ele>
        <time>2020-07-16T07:59:40.054Z</time>
      </trkpt>
      <trkpt lat="61.77863" lon="5.33133">
        <ele>334.129698</ele>
        <time>2020-07-16T08:00:22.335Z</time>
      </trkpt>
      <trkpt lat="61.77907" lon="5.33292">
        <ele>333.239921</ele>
        <time>2020-07-16T08:00:34.996Z</time>
      </trkpt>
      <trkpt lat="61.77944" lon="5.3339">
        <ele>324.492427</ele>
        <time>2020-07-16T08:00:41.085Z</time>
      </trkpt>
      <trkpt lat="61.7797" lon="5.33426">
        <ele>317.864478</ele>
        <time>2020-07-16T08:00:44.252Z</time>
      </trkpt>
      <trkpt lat="61.78019" lon="5.33456">
        <ele>307.1443</ele>
        <time>2020-07-16T08:00:49.373Z</time>
      </trkpt>
      <trkpt lat="61.7804" lon="5.33465">
        <ele>302.547212</ele>
        <time>2020-07-16T08:00:51.588Z</time>
      </trkpt>
      <trkpt lat="61.78068" lon="5.33477">
        <ele>296.60092</ele>
        <time>2020-07-16T08:00:54.441Z</time>
      </trkpt>
      <trkpt lat="61.78102" lon="5.33511">
        <ele>288.768344</ele>
        <time>2020-07-16T08:00:58.264Z</time>
      </trkpt>
      <trkpt lat="61.78183" lon="5.33647">
        <ele>267.132041</ele>
        <time>2020-07-16T08:01:08.808Z</time>
      </trkpt>
      <trkpt lat="61.78217" lon="5.33671">
        <ele>259.729436</ele>
        <time>2020-07-16T08:01:12.526Z</time>
      </trkpt>
      <trkpt lat="61.78414" lon="5.33643">
        <ele>242.181142</ele>
        <time>2020-07-16T08:01:34.538Z</time>
      </trkpt>
      <trkpt lat="61.7849" lon="5.33647">
        <ele>244.206678</ele>
        <time>2020-07-16T08:01:46.929Z</time>
      </trkpt>
      <trkpt lat="61.78812" lon="5.33767">
        <ele>265.870637</ele>
        <time>2020-07-16T08:04:05.464Z</time>
      </trkpt>
      <trkpt lat="61.78848" lon="5.33788">
        <ele>269.62301</ele>
        <time>2020-07-16T08:04:25.808Z</time>
      </trkpt>
      <trkpt lat="61.78876" lon="5.3382">
        <ele>272.875557</ele>
        <time>2020-07-16T08:04:43.778Z</time>
      </trkpt>
      <trkpt lat="61.78902" lon="5.33878">
        <ele>276.718032</ele>
        <time>2020-07-16T08:05:05.278Z</time>
      </trkpt>
      <trkpt lat="61.79023" lon="5.34398">
        <ele>300.90307</ele>
        <time>2020-07-16T08:07:20.401Z</time>
      </trkpt>
      <trkpt lat="61.7908" lon="5.34585">
        <ele>306.740393</ele>
        <time>2020-07-16T08:07:49.515Z</time>
      </trkpt>
      <trkpt lat="61.79174" lon="5.35069">
        <ele>311.905196</ele>
        <time>2020-07-16T08:08:45.768Z</time>
      </trkpt>
      <trkpt lat="61.7918" lon="5.35152">
        <ele>313.03533</ele>
        <time>2020-07-16T08:08:58.816Z</time>
      </trkpt>
      <trkpt lat="61.79181" lon="5.35267">
        <ele>314.5891</ele>
        <time>2020-07-16T08:09:15.810Z</time>
      </trkpt>
      <trkpt lat="61.79183" lon="5.35363">
        <ele>314.374337</ele>
        <time>2020-07-16T08:09:28.051Z</time>
      </trkpt>
      <trkpt lat="61.79188" lon="5.35432">
        <ele>313.203457</ele>
        <time>2020-07-16T08:09:35.510Z</time>
      </trkpt>
      <trkpt lat="61.7922" lon="5.35674">
        <ele>309.036961</ele>
        <time>2020-07-16T08:09:50.000Z</time>
      </trkpt>
      <trkpt lat="61.79254" lon="5.35852">
        <ele>298.102139</ele>
        <time>2020-07-16T08:09:59.589Z</time>
      </trkpt>
      <trkpt lat="61.7926" lon="5.35909">
        <ele>294.656629</ele>
        <time>2020-07-16T08:10:02.497Z</time>
      </trkpt>
      <trkpt lat="61.79262" lon="5.36006">
        <ele>288.921311</ele>
        <time>2020-07-16T08:10:07.292Z</time>
      </trkpt>
      <trkpt lat="61.79271" lon="5.36064">
        <ele>285.713329</ele>
        <time>2020-07-16T08:10:10.367Z</time>
      </trkpt>
      <trkpt lat="61.79277" lon="5.36083">
        <ele>284.803172</ele>
        <time>2020-07-16T08:10:11.494Z</time>
      </trkpt>
      <trkpt lat="61.79282" lon="5.36099">
        <ele>284.047099</ele>
        <time>2020-07-16T08:10:12.491Z</time>
      </trkpt>
      <trkpt lat="61.79326" lon="5.36197">
        <ele>278.785012</ele>
        <time>2020-07-16T08:10:19.429Z</time>
      </trkpt>
      <trkpt lat="61.79335" lon="5.36218">
        <ele>277.64617</ele>
        <time>2020-07-16T08:10:21.038Z</time>
      </trkpt>
      <trkpt lat="61.79353" lon="5.3626">
        <ele>275.446032</ele>
        <time>2020-07-16T08:10:24.051Z</time>
      </trkpt>
      <trkpt lat="61.79399" lon="5.36364">
        <ele>271.447585</ele>
        <time>2020-07-16T08:10:32.636Z</time>
      </trkpt>
      <trkpt lat="61.79435" lon="5.36423">
        <ele>271.157857</ele>
        <time>2020-07-16T08:10:39.566Z</time>
      </trkpt>
      <trkpt lat="61.79667" lon="5.36751">
        <ele>272.063749</ele>
        <time>2020-07-16T08:11:35.128Z</time>
      </trkpt>
      <trkpt lat="61.79705" lon="5.36785">
        <ele>272.913433</ele>
        <time>2020-07-16T08:11:45.635Z</time>
      </trkpt>
      <trkpt lat="61.79735" lon="5.36779">
        <ele>273.74027</ele>
        <time>2020-07-16T08:11:53.990Z</time>
      </trkpt>
      <trkpt lat="61.79766" lon="5.36743">
        <ele>274.67112</ele>
        <time>2020-07-16T08:12:03.822Z</time>
      </trkpt>
      <trkpt lat="61.79779" lon="5.36682">
        <ele>275.519695</ele>
        <time>2020-07-16T08:12:13.214Z</time>
      </trkpt>
      <trkpt lat="61.79778" lon="5.36531">
        <ele>277.03859</ele>
        <time>2020-07-16T08:12:32.749Z</time>
      </trkpt>
      <trkpt lat="61.79783" lon="5.36481">
        <ele>277.071551</ele>
        <time>2020-07-16T08:12:37.884Z</time>
      </trkpt>
      <trkpt lat="61.79806" lon="5.3642">
        <ele>277.122664</ele>
        <time>2020-07-16T08:12:45.209Z</time>
      </trkpt>
      <trkpt lat="61.79846" lon="5.36383">
        <ele>277.181191</ele>
        <time>2020-07-16T08:12:52.860Z</time>
      </trkpt>
      <trkpt lat="61.79866" lon="5.36385">
        <ele>277.209834</ele>
        <time>2020-07-16T08:12:56.917Z</time>
      </trkpt>
      <trkpt lat="61.79874" lon="5.36388">
        <ele>277.220885</ele>
        <time>2020-07-16T08:12:57.874Z</time>
      </trkpt>
      <trkpt lat="61.79909" lon="5.36431">
        <ele>277.060984</ele>
        <time>2020-07-16T08:13:03.812Z</time>
      </trkpt>
      <trkpt lat="61.80039" lon="5.36925">
        <ele>271.783471</ele>
        <time>2020-07-16T08:13:40.583Z</time>
      </trkpt>
      <trkpt lat="61.8008" lon="5.37056">
        <ele>270.639121</ele>
        <time>2020-07-16T08:13:52.254Z</time>
      </trkpt>
      <trkpt lat="61.80123" lon="5.37247">
        <ele>270.345195</ele>
        <time>2020-07-16T08:14:09.560Z</time>
      </trkpt>
      <trkpt lat="61.80244" lon="5.37567">
        <ele>270.155834</ele>
        <time>2020-07-16T08:14:44.027Z</time>
      </trkpt>
      <trkpt lat="61.80279" lon="5.37665">
        <ele>270.131154</ele>
        <time>2020-07-16T08:14:54.285Z</time>
      </trkpt>
      <trkpt lat="61.8027" lon="5.37679">
        <ele>270.126364</ele>
        <time>2020-07-16T08:14:56.303Z</time>
      </trkpt>
      <trkpt lat="61.80267" lon="5.37697">
        <ele>270.123161</ele>
        <time>2020-07-16T08:14:57.827Z</time>
      </trkpt>
      <trkpt lat="61.80271" lon="5.37713">
        <ele>270.121041</ele>
        <time>2020-07-16T08:14:59.376Z</time>
      </trkpt>
      <trkpt lat="61.80311" lon="5.37839">
        <ele>270.103769</ele>
        <time>2020-07-16T08:15:12.017Z</time>
      </trkpt>
      <trkpt lat="61.80324" lon="5.37909">
        <ele>270.095164</ele>
        <time>2020-07-16T08:15:18.368Z</time>
      </trkpt>
      <trkpt lat="61.80329" lon="5.37985">
        <ele>270.086545</ele>
        <time>2020-07-16T08:15:24.798Z</time>
      </trkpt>
      <trkpt lat="61.80328" lon="5.38136">
        <ele>270.097013</ele>
        <time>2020-07-16T08:15:37.716Z</time>
      </trkpt>
      <trkpt lat="61.80337" lon="5.38209">
        <ele>270.109739</ele>
        <time>2020-07-16T08:15:44.162Z</time>
      </trkpt>
      <trkpt lat="61.8035" lon="5.38259">
        <ele>270.119301</ele>
        <time>2020-07-16T08:15:49.012Z</time>
      </trkpt>
      <trkpt lat="61.80451" lon="5.38525">
        <ele>270.445783</ele>
        <time>2020-07-16T08:16:18.131Z</time>
      </trkpt>
      <trkpt lat="61.80477" lon="5.38618">
        <ele>270.616301</ele>
        <time>2020-07-16T08:16:27.758Z</time>
      </trkpt>
      <trkpt lat="61.80501" lon="5.38769">
        <ele>271.416828</ele>
        <time>2020-07-16T08:16:42.883Z</time>
      </trkpt>
      <trkpt lat="61.80514" lon="5.3897">
        <ele>273.15027</ele>
        <time>2020-07-16T08:17:04.834Z</time>
      </trkpt>
      <trkpt lat="61.8053" lon="5.39056">
        <ele>273.939443</ele>
        <time>2020-07-16T08:17:15.894Z</time>
      </trkpt>
      <trkpt lat="61.80645" lon="5.39358">
        <ele>281.606252</ele>
        <time>2020-07-16T08:18:12.609Z</time>
      </trkpt>
      <trkpt lat="61.8089" lon="5.39835">
        <ele>305.076121</ele>
        <time>2020-07-16T08:20:28.510Z</time>
      </trkpt>
      <trkpt lat="61.81009" lon="5.40137">
        <ele>319.425251</ele>
        <time>2020-07-16T08:21:49.366Z</time>
      </trkpt>
      <trkpt lat="61.81172" lon="5.40427">
        <ele>334.508172</ele>
        <time>2020-07-16T08:23:15.887Z</time>
      </trkpt>
      <trkpt lat="61.81246" lon="5.40617">
        <ele>341.325272</ele>
        <time>2020-07-16T08:23:59.974Z</time>
      </trkpt>
      <trkpt lat="61.81274" lon="5.40676">
        <ele>343.635612</ele>
        <time>2020-07-16T08:24:13.947Z</time>
      </trkpt>
      <trkpt lat="61.8156" lon="5.41168">
        <ele>356.530556</ele>
        <time>2020-07-16T08:26:00.530Z</time>
      </trkpt>
      <trkpt lat="61.81615" lon="5.41252">
        <ele>357.776594</ele>
        <time>2020-07-16T08:26:15.693Z</time>
      </trkpt>
      <trkpt lat="61.81724" lon="5.41383">
        <ele>360.200981</ele>
        <time>2020-07-16T08:26:43.484Z</time>
      </trkpt>
      <trkpt lat="61.81759" lon="5.41436">
        <ele>361.803709</ele>
        <time>2020-07-16T08:26:54.335Z</time>
      </trkpt>
      <trkpt lat="61.81981" lon="5.41896">
        <ele>374.744608</ele>
        <time>2020-07-16T08:28:35.768Z</time>
      </trkpt>
      <trkpt lat="61.82035" lon="5.41956">
        <ele>376.044241</ele>
        <time>2020-07-16T08:28:54.195Z</time>
      </trkpt>
      <trkpt lat="61.82089" lon="5.41978">
        <ele>377.233409</ele>
        <time>2020-07-16T08:29:08.754Z</time>
      </trkpt>
      <trkpt lat="61.82128" lon="5.4197">
        <ele>378.073439</ele>
        <time>2020-07-16T08:29:16.363Z</time>
      </trkpt>
      <trkpt lat="61.82219" lon="5.41904">
        <ele>377.016549</ele>
        <time>2020-07-16T08:29:30.705Z</time>
      </trkpt>
      <trkpt lat="61.8223" lon="5.419">
        <ele>376.797221</ele>
        <time>2020-07-16T08:29:32.289Z</time>
      </trkpt>
      <trkpt lat="61.82246" lon="5.41897">
        <ele>376.476553</ele>
        <time>2020-07-16T08:29:34.334Z</time>
      </trkpt>
      <trkpt lat="61.82272" lon="5.41901">
        <ele>375.963675</ele>
        <time>2020-07-16T08:29:37.814Z</time>
      </trkpt>
      <trkpt lat="61.82504" lon="5.42091">
        <ele>370.198692</ele>
        <time>2020-07-16T08:30:11.431Z</time>
      </trkpt>
      <trkpt lat="61.8253" lon="5.42134">
        <ele>369.841955</ele>
        <time>2020-07-16T08:30:16.434Z</time>
      </trkpt>
      <trkpt lat="61.82555" lon="5.42203">
        <ele>369.396118</ele>
        <time>2020-07-16T08:30:22.808Z</time>
      </trkpt>
      <trkpt lat="61.82568" lon="5.42279">
        <ele>368.988081</ele>
        <time>2020-07-16T08:30:28.844Z</time>
      </trkpt>
      <trkpt lat="61.82581" lon="5.42429">
        <ele>368.420743</ele>
        <time>2020-07-16T08:30:41.046Z</time>
      </trkpt>
      <trkpt lat="61.82586" lon="5.42478">
        <ele>368.384898</ele>
        <time>2020-07-16T08:30:45.024Z</time>
      </trkpt>
      <trkpt lat="61.82601" lon="5.42621">
        <ele>368.278016</ele>
        <time>2020-07-16T08:30:57.104Z</time>
      </trkpt>
      <trkpt lat="61.82604" lon="5.42645">
        <ele>368.260496</ele>
        <time>2020-07-16T08:30:59.154Z</time>
      </trkpt>
      <trkpt lat="61.82779" lon="5.43582">
        <ele>368.067204</ele>
        <time>2020-07-16T08:32:23.752Z</time>
      </trkpt>
      <trkpt lat="61.82823" lon="5.4378">
        <ele>368.129327</ele>
        <time>2020-07-16T08:32:42.365Z</time>
      </trkpt>
      <trkpt lat="61.82933" lon="5.4419">
        <ele>368.961818</ele>
        <time>2020-07-16T08:33:23.568Z</time>
      </trkpt>
      <trkpt lat="61.8295" lon="5.44268">
        <ele>369.547977</ele>
        <time>2020-07-16T08:33:31.933Z</time>
      </trkpt>
      <trkpt lat="61.82962" lon="5.44346">
        <ele>370.112736</ele>
        <time>2020-07-16T08:33:40.442Z</time>
      </trkpt>
      <trkpt lat="61.82987" lon="5.44622">
        <ele>372.926134</ele>
        <time>2020-07-16T08:34:14.307Z</time>
      </trkpt>
      <trkpt lat="61.83053" lon="5.44954">
        <ele>377.377247</ele>
        <time>2020-07-16T08:35:02.357Z</time>
      </trkpt>
      <trkpt lat="61.83101" lon="5.45349">
        <ele>379.195002</ele>
        <time>2020-07-16T08:35:45.635Z</time>
      </trkpt>
      <trkpt lat="61.83137" lon="5.45508">
        <ele>378.26815</ele>
        <time>2020-07-16T08:35:57.758Z</time>
      </trkpt>
      <trkpt lat="61.83182" lon="5.45647">
        <ele>375.307735</ele>
        <time>2020-07-16T08:36:07.765Z</time>
      </trkpt>
      <trkpt lat="61.83204" lon="5.45709">
        <ele>373.312929</ele>
        <time>2020-07-16T08:36:12.126Z</time>
      </trkpt>
      <trkpt lat="61.83211" lon="5.45731">
        <ele>372.590225</ele>
        <time>2020-07-16T08:36:13.606Z</time>
      </trkpt>
      <trkpt lat="61.83246" lon="5.45832">
        <ele>369.374391</ele>
        <time>2020-07-16T08:36:20.506Z</time>
      </trkpt>
      <trkpt lat="61.83275" lon="5.45934">
        <ele>366.747569</ele>
        <time>2020-07-16T08:36:26.917Z</time>
      </trkpt>
      <trkpt lat="61.8329" lon="5.46057">
        <ele>364.314917</ele>
        <time>2020-07-16T08:36:34.235Z</time>
      </trkpt>
      <trkpt lat="61.83293" lon="5.4608">
        <ele>363.868657</ele>
        <time>2020-07-16T08:36:35.538Z</time>
      </trkpt>
      <trkpt lat="61.83299" lon="5.46121">
        <ele>363.048853</ele>
        <time>2020-07-16T08:36:38.270Z</time>
      </trkpt>
      <trkpt lat="61.8336" lon="5.46617">
        <ele>358.728491</ele>
        <time>2020-07-16T08:37:14.770Z</time>
      </trkpt>
      <trkpt lat="61.83349" lon="5.46823">
        <ele>358.623568</ele>
        <time>2020-07-16T08:37:32.690Z</time>
      </trkpt>
      <trkpt lat="61.83349" lon="5.4686">
        <ele>358.604962</ele>
        <time>2020-07-16T08:37:35.698Z</time>
      </trkpt>
      <trkpt lat="61.83349" lon="5.46875">
        <ele>358.59753</ele>
        <time>2020-07-16T08:37:37.144Z</time>
      </trkpt>
      <trkpt lat="61.83378" lon="5.47488">
        <ele>358.485995</ele>
        <time>2020-07-16T08:38:28.473Z</time>
      </trkpt>
      <trkpt lat="61.83378" lon="5.47544">
        <ele>358.505685</ele>
        <time>2020-07-16T08:38:33.438Z</time>
      </trkpt>
      <trkpt lat="61.8337" lon="5.47655">
        <ele>358.544723</ele>
        <time>2020-07-16T08:38:43.487Z</time>
      </trkpt>
      <trkpt lat="61.83204" lon="5.48545">
        <ele>356.355227</ele>
        <time>2020-07-16T08:40:04.141Z</time>
      </trkpt>
      <trkpt lat="61.82906" lon="5.50071">
        <ele>322.988926</ele>
        <time>2020-07-16T08:41:40.896Z</time>
      </trkpt>
      <trkpt lat="61.82898" lon="5.50122">
        <ele>321.56635</ele>
        <time>2020-07-16T08:41:43.782Z</time>
      </trkpt>
      <trkpt lat="61.82883" lon="5.50306">
        <ele>315.672983</ele>
        <time>2020-07-16T08:41:53.735Z</time>
      </trkpt>
      <trkpt lat="61.82881" lon="5.50375">
        <ele>313.123994</ele>
        <time>2020-07-16T08:41:57.400Z</time>
      </trkpt>
      <trkpt lat="61.82886" lon="5.5054">
        <ele>307.117964</ele>
        <time>2020-07-16T08:42:06.128Z</time>
      </trkpt>
      <trkpt lat="61.8289" lon="5.50624">
        <ele>304.510019</ele>
        <time>2020-07-16T08:42:10.719Z</time>
      </trkpt>
      <trkpt lat="61.82893" lon="5.50677">
        <ele>303.3548</ele>
        <time>2020-07-16T08:42:13.700Z</time>
      </trkpt>
      <trkpt lat="61.82922" lon="5.51333">
        <ele>291.661599</ele>
        <time>2020-07-16T08:42:53.567Z</time>
      </trkpt>
      <trkpt lat="61.82922" lon="5.51404">
        <ele>291.640054</ele>
        <time>2020-07-16T08:42:58.794Z</time>
      </trkpt>
      <trkpt lat="61.82914" lon="5.51518">
        <ele>292.137019</ele>
        <time>2020-07-16T08:43:09.266Z</time>
      </trkpt>
      <trkpt lat="61.82899" lon="5.51596">
        <ele>292.499838</ele>
        <time>2020-07-16T08:43:18.781Z</time>
      </trkpt>
      <trkpt lat="61.82852" lon="5.51774">
        <ele>293.784343</ele>
        <time>2020-07-16T08:43:43.381Z</time>
      </trkpt>
      <trkpt lat="61.82851" lon="5.51784">
        <ele>293.889314</ele>
        <time>2020-07-16T08:43:45.466Z</time>
      </trkpt>
      <trkpt lat="61.82848" lon="5.51803">
        <ele>294.077601</ele>
        <time>2020-07-16T08:43:47.664Z</time>
      </trkpt>
      <trkpt lat="61.82845" lon="5.51824">
        <ele>294.295846</ele>
        <time>2020-07-16T08:43:50.511Z</time>
      </trkpt>
      <trkpt lat="61.82844" lon="5.5188">
        <ele>294.837783</ele>
        <time>2020-07-16T08:43:57.372Z</time>
      </trkpt>
      <trkpt lat="61.82859" lon="5.51987">
        <ele>295.923893</ele>
        <time>2020-07-16T08:44:10.489Z</time>
      </trkpt>
      <trkpt lat="61.82965" lon="5.52355">
        <ele>298.457053</ele>
        <time>2020-07-16T08:44:52.299Z</time>
      </trkpt>
      <trkpt lat="61.83031" lon="5.52648">
        <ele>300.64073</ele>
        <time>2020-07-16T08:45:28.413Z</time>
      </trkpt>
      <trkpt lat="61.83034" lon="5.52669">
        <ele>300.795248</ele>
        <time>2020-07-16T08:45:31.038Z</time>
      </trkpt>
      <trkpt lat="61.83035" lon="5.52675">
        <ele>300.838641</ele>
        <time>2020-07-16T08:45:32.685Z</time>
      </trkpt>
      <trkpt lat="61.83085" lon="5.53296">
        <ele>299.95543</ele>
        <time>2020-07-16T08:46:27.137Z</time>
      </trkpt>
      <trkpt lat="61.83115" lon="5.53552">
        <ele>296.285585</ele>
        <time>2020-07-16T08:46:42.727Z</time>
      </trkpt>
      <trkpt lat="61.83146" lon="5.53761">
        <ele>290.980333</ele>
        <time>2020-07-16T08:46:55.043Z</time>
      </trkpt>
      <trkpt lat="61.83168" lon="5.54057">
        <ele>284.662492</ele>
        <time>2020-07-16T08:47:12.157Z</time>
      </trkpt>
      <trkpt lat="61.8317" lon="5.54093">
        <ele>283.938252</ele>
        <time>2020-07-16T08:47:14.302Z</time>
      </trkpt>
      <trkpt lat="61.83176" lon="5.54167">
        <ele>282.461562</ele>
        <time>2020-07-16T08:47:18.876Z</time>
      </trkpt>
      <trkpt lat="61.83185" lon="5.54358">
        <ele>280.38358</ele>
        <time>2020-07-16T08:47:31.263Z</time>
      </trkpt>
      <trkpt lat="61.83195" lon="5.54461">
        <ele>279.694791</ele>
        <time>2020-07-16T08:47:38.734Z</time>
      </trkpt>
      <trkpt lat="61.83213" lon="5.54533">
        <ele>279.172338</ele>
        <time>2020-07-16T08:47:45.096Z</time>
      </trkpt>
      <trkpt lat="61.83218" lon="5.54554">
        <ele>279.016126</ele>
        <time>2020-07-16T08:47:47.033Z</time>
      </trkpt>
      <trkpt lat="61.83229" lon="5.54589">
        <ele>278.744021</ele>
        <time>2020-07-16T08:47:50.458Z</time>
      </trkpt>
      <trkpt lat="61.83266" lon="5.54722">
        <ele>278.366425</ele>
        <time>2020-07-16T08:48:03.038Z</time>
      </trkpt>
      <trkpt lat="61.83282" lon="5.54819">
        <ele>278.114997</ele>
        <time>2020-07-16T08:48:11.336Z</time>
      </trkpt>
      <trkpt lat="61.83284" lon="5.54931">
        <ele>277.842725</ele>
        <time>2020-07-16T08:48:20.083Z</time>
      </trkpt>
      <trkpt lat="61.83275" lon="5.55209">
        <ele>274.991228</ele>
        <time>2020-07-16T08:48:39.084Z</time>
      </trkpt>
      <trkpt lat="61.83289" lon="5.55374">
        <ele>272.712092</ele>
        <time>2020-07-16T08:48:49.262Z</time>
      </trkpt>
      <trkpt lat="61.8332" lon="5.55545">
        <ele>269.015432</ele>
        <time>2020-07-16T08:48:59.972Z</time>
      </trkpt>
      <trkpt lat="61.83339" lon="5.55693">
        <ele>265.928927</ele>
        <time>2020-07-16T08:49:08.838Z</time>
      </trkpt>
      <trkpt lat="61.83346" lon="5.5594">
        <ele>261.321031</ele>
        <time>2020-07-16T08:49:23.417Z</time>
      </trkpt>
      <trkpt lat="61.83336" lon="5.56072">
        <ele>258.921826</ele>
        <time>2020-07-16T08:49:31.670Z</time>
      </trkpt>
      <trkpt lat="61.83327" lon="5.56115">
        <ele>258.476862</ele>
        <time>2020-07-16T08:49:34.581Z</time>
      </trkpt>
      <trkpt lat="61.83324" lon="5.56135">
        <ele>258.259864</ele>
        <time>2020-07-16T08:49:35.967Z</time>
      </trkpt>
      <trkpt lat="61.83265" lon="5.56372">
        <ele>255.643653</ele>
        <time>2020-07-16T08:49:53.893Z</time>
      </trkpt>
      <trkpt lat="61.83248" lon="5.56467">
        <ele>255.14441</ele>
        <time>2020-07-16T08:50:01.140Z</time>
      </trkpt>
      <trkpt lat="61.83243" lon="5.56552">
        <ele>254.942139</ele>
        <time>2020-07-16T08:50:07.598Z</time>
      </trkpt>
      <trkpt lat="61.83245" lon="5.56829">
        <ele>254.585296</ele>
        <time>2020-07-16T08:50:29.979Z</time>
      </trkpt>
      <trkpt lat="61.83229" lon="5.57065">
        <ele>255.501212</ele>
        <time>2020-07-16T08:50:53.657Z</time>
      </trkpt>
      <trkpt lat="61.83221" lon="5.57193">
        <ele>256.043838</ele>
        <time>2020-07-16T08:51:06.860Z</time>
      </trkpt>
      <trkpt lat="61.8322" lon="5.57211">
        <ele>256.140806</ele>
        <time>2020-07-16T08:51:09.025Z</time>
      </trkpt>
      <trkpt lat="61.83222" lon="5.57322">
        <ele>256.729304</ele>
        <time>2020-07-16T08:51:20.496Z</time>
      </trkpt>
      <trkpt lat="61.83242" lon="5.57473">
        <ele>257.558153</ele>
        <time>2020-07-16T08:51:36.616Z</time>
      </trkpt>
      <trkpt lat="61.83391" lon="5.57937">
        <ele>259.164264</ele>
        <time>2020-07-16T08:52:29.025Z</time>
      </trkpt>
      <trkpt lat="61.83407" lon="5.57982">
        <ele>259.251186</ele>
        <time>2020-07-16T08:52:33.962Z</time>
      </trkpt>
      <trkpt lat="61.83411" lon="5.57999">
        <ele>259.281294</ele>
        <time>2020-07-16T08:52:35.710Z</time>
      </trkpt>
      <trkpt lat="61.83434" lon="5.58119">
        <ele>259.48583</ele>
        <time>2020-07-16T08:52:47.070Z</time>
      </trkpt>
      <trkpt lat="61.83444" lon="5.58221">
        <ele>259.488087</ele>
        <time>2020-07-16T08:52:55.988Z</time>
      </trkpt>
      <trkpt lat="61.83444" lon="5.58232">
        <ele>259.467947</ele>
        <time>2020-07-16T08:52:57.023Z</time>
      </trkpt>
      <trkpt lat="61.83446" lon="5.58297">
        <ele>259.346666</ele>
        <time>2020-07-16T08:53:02.365Z</time>
      </trkpt>
      <trkpt lat="61.83443" lon="5.58665">
        <ele>258.03377</ele>
        <time>2020-07-16T08:53:30.772Z</time>
      </trkpt>
      <trkpt lat="61.83438" lon="5.58771">
        <ele>257.233668</ele>
        <time>2020-07-16T08:53:38.178Z</time>
      </trkpt>
      <trkpt lat="61.83436" lon="5.5879">
        <ele>257.0834</ele>
        <time>2020-07-16T08:53:39.560Z</time>
      </trkpt>
      <trkpt lat="61.83429" lon="5.5889">
        <ele>256.319462</ele>
        <time>2020-07-16T08:53:46.308Z</time>
      </trkpt>
      <trkpt lat="61.83373" lon="5.5928">
        <ele>250.516284</ele>
        <time>2020-07-16T08:54:11.555Z</time>
      </trkpt>
      <trkpt lat="61.83376" lon="5.59364">
        <ele>248.978533</ele>
        <time>2020-07-16T08:54:16.586Z</time>
      </trkpt>
      <trkpt lat="61.83394" lon="5.59529">
        <ele>245.748795</ele>
        <time>2020-07-16T08:54:26.604Z</time>
      </trkpt>
      <trkpt lat="61.83396" lon="5.59585">
        <ele>244.674048</ele>
        <time>2020-07-16T08:54:29.917Z</time>
      </trkpt>
      <trkpt lat="61.83395" lon="5.59641">
        <ele>243.610829</ele>
        <time>2020-07-16T08:54:33.181Z</time>
      </trkpt>
      <trkpt lat="61.83374" lon="5.59855">
        <ele>238.975887</ele>
        <time>2020-07-16T08:54:45.975Z</time>
      </trkpt>
      <trkpt lat="61.83381" lon="5.59964">
        <ele>236.59399</ele>
        <time>2020-07-16T08:54:52.408Z</time>
      </trkpt>
      <trkpt lat="61.83422" lon="5.60284">
        <ele>229.352745</ele>
        <time>2020-07-16T08:55:11.521Z</time>
      </trkpt>
      <trkpt lat="61.83437" lon="5.60579">
        <ele>223.472811</ele>
        <time>2020-07-16T08:55:28.842Z</time>
      </trkpt>
      <trkpt lat="61.83482" lon="5.60924">
        <ele>217.124584</ele>
        <time>2020-07-16T08:55:50.729Z</time>
      </trkpt>
      <trkpt lat="61.83492" lon="5.61146">
        <ele>213.285061</ele>
        <time>2020-07-16T08:56:04.404Z</time>
      </trkpt>
      <trkpt lat="61.83535" lon="5.6145">
        <ele>205.538025</ele>
        <time>2020-07-16T08:56:22.583Z</time>
      </trkpt>
      <trkpt lat="61.83555" lon="5.61887">
        <ele>193.028393</ele>
        <time>2020-07-16T08:56:46.611Z</time>
      </trkpt>
      <trkpt lat="61.8358" lon="5.62268">
        <ele>185.327111</ele>
        <time>2020-07-16T08:57:09.236Z</time>
      </trkpt>
      <trkpt lat="61.83601" lon="5.62487">
        <ele>183.686581</ele>
        <time>2020-07-16T08:57:24.531Z</time>
      </trkpt>
      <trkpt lat="61.83606" lon="5.62549">
        <ele>183.301803</ele>
        <time>2020-07-16T08:57:29.374Z</time>
      </trkpt>
      <trkpt lat="61.83607" lon="5.62569">
        <ele>183.1819</ele>
        <time>2020-07-16T08:57:30.897Z</time>
      </trkpt>
      <trkpt lat="61.83606" lon="5.62666">
        <ele>182.596447</ele>
        <time>2020-07-16T08:57:38.857Z</time>
      </trkpt>
      <trkpt lat="61.836" lon="5.62721">
        <ele>182.531984</ele>
        <time>2020-07-16T08:57:43.416Z</time>
      </trkpt>
      <trkpt lat="61.83595" lon="5.62746">
        <ele>182.500517</ele>
        <time>2020-07-16T08:57:45.838Z</time>
      </trkpt>
      <trkpt lat="61.8356" lon="5.62966">
        <ele>182.236098</ele>
        <time>2020-07-16T08:58:04.891Z</time>
      </trkpt>
      <trkpt lat="61.83556" lon="5.63076">
        <ele>182.038076</ele>
        <time>2020-07-16T08:58:13.534Z</time>
      </trkpt>
      <trkpt lat="61.8358" lon="5.63318">
        <ele>181.365704</ele>
        <time>2020-07-16T08:58:32.324Z</time>
      </trkpt>
      <trkpt lat="61.83584" lon="5.63784">
        <ele>180.074799</ele>
        <time>2020-07-16T08:59:08.788Z</time>
      </trkpt>
      <trkpt lat="61.83618" lon="5.64041">
        <ele>177.297724</ele>
        <time>2020-07-16T08:59:27.380Z</time>
      </trkpt>
      <trkpt lat="61.83639" lon="5.64283">
        <ele>172.144621</ele>
        <time>2020-07-16T08:59:41.939Z</time>
      </trkpt>
      <trkpt lat="61.83638" lon="5.64337">
        <ele>170.470665</ele>
        <time>2020-07-16T08:59:44.971Z</time>
      </trkpt>
      <trkpt lat="61.83629" lon="5.64413">
        <ele>168.092513</ele>
        <time>2020-07-16T08:59:49.162Z</time>
      </trkpt>
      <trkpt lat="61.8359" lon="5.64618">
        <ele>159.637117</ele>
        <time>2020-07-16T09:00:00.802Z</time>
      </trkpt>
      <trkpt lat="61.83578" lon="5.64724">
        <ele>154.536104</ele>
        <time>2020-07-16T09:00:06.409Z</time>
      </trkpt>
      <trkpt lat="61.83581" lon="5.64814">
        <ele>150.265827</ele>
        <time>2020-07-16T09:00:11.093Z</time>
      </trkpt>
      <trkpt lat="61.83616" lon="5.65164">
        <ele>130.815867</ele>
        <time>2020-07-16T09:00:29.155Z</time>
      </trkpt>
      <trkpt lat="61.8362" lon="5.65184">
        <ele>129.628002</ele>
        <time>2020-07-16T09:00:30.199Z</time>
      </trkpt>
      <trkpt lat="61.83619" lon="5.65204">
        <ele>128.504491</ele>
        <time>2020-07-16T09:00:31.224Z</time>
      </trkpt>
      <trkpt lat="61.83637" lon="5.65407">
        <ele>118.360873</ele>
        <time>2020-07-16T09:00:42.222Z</time>
      </trkpt>
      <trkpt lat="61.83676" lon="5.6565">
        <ele>106.873158</ele>
        <time>2020-07-16T09:00:56.260Z</time>
      </trkpt>
      <trkpt lat="61.83766" lon="5.6595">
        <ele>95.022242</ele>
        <time>2020-07-16T09:01:16.730Z</time>
      </trkpt>
      <trkpt lat="61.83801" lon="5.66024">
        <ele>90.854781</ele>
        <time>2020-07-16T09:01:22.705Z</time>
      </trkpt>
      <trkpt lat="61.83819" lon="5.66101">
        <ele>87.441981</ele>
        <time>2020-07-16T09:01:27.464Z</time>
      </trkpt>
      <trkpt lat="61.83844" lon="5.66289">
        <ele>79.630196</ele>
        <time>2020-07-16T09:01:38.138Z</time>
      </trkpt>
      <trkpt lat="61.83856" lon="5.6645">
        <ele>70.785326</ele>
        <time>2020-07-16T09:01:46.848Z</time>
      </trkpt>
      <trkpt lat="61.83882" lon="5.66666">
        <ele>58.551248</ele>
        <time>2020-07-16T09:01:58.603Z</time>
      </trkpt>
      <trkpt lat="61.83888" lon="5.66805">
        <ele>49.729469</ele>
        <time>2020-07-16T09:02:05.846Z</time>
      </trkpt>
      <trkpt lat="61.83885" lon="5.66826">
        <ele>48.372568</ele>
        <time>2020-07-16T09:02:07.042Z</time>
      </trkpt>
      <trkpt lat="61.83881" lon="5.66833">
        <ele>47.696403</ele>
        <time>2020-07-16T09:02:07.574Z</time>
      </trkpt>
      <trkpt lat="61.83874" lon="5.66842">
        <ele>46.537354</ele>
        <time>2020-07-16T09:02:08.494Z</time>
      </trkpt>
      <trkpt lat="61.83858" lon="5.66839">
        <ele>44.43792</ele>
        <time>2020-07-16T09:02:10.342Z</time>
      </trkpt>
      <trkpt lat="61.83849" lon="5.66825">
        <ele>42.889227</ele>
        <time>2020-07-16T09:02:11.623Z</time>
      </trkpt>
      <trkpt lat="61.83843" lon="5.66823">
        <ele>42.074837</ele>
        <time>2020-07-16T09:02:12.302Z</time>
      </trkpt>
      <trkpt lat="61.83841" lon="5.66822">
        <ele>41.815755</ele>
        <time>2020-07-16T09:02:12.519Z</time>
      </trkpt>
      <trkpt lat="61.8383" lon="5.6684">
        <ele>39.966238</ele>
        <time>2020-07-16T09:02:14.048Z</time>
      </trkpt>
      <trkpt lat="61.83822" lon="5.66907">
        <ele>35.656577</ele>
        <time>2020-07-16T09:02:17.580Z</time>
      </trkpt>
      <trkpt lat="61.83814" lon="5.66944">
        <ele>33.494291</ele>
        <time>2020-07-16T09:02:19.828Z</time>
      </trkpt>
      <trkpt lat="61.83753" lon="5.67067">
        <ele>25.366267</ele>
        <time>2020-07-16T09:02:29.256Z</time>
      </trkpt>
      <trkpt lat="61.83753" lon="5.67071">
        <ele>25.192773</ele>
        <time>2020-07-16T09:02:29.457Z</time>
      </trkpt>
      <trkpt lat="61.83754" lon="5.67077">
        <ele>24.887303</ele>
        <time>2020-07-16T09:02:29.830Z</time>
      </trkpt>
      <trkpt lat="61.83775" lon="5.67142">
        <ele>21.289361</ele>
        <time>2020-07-16T09:02:34.310Z</time>
      </trkpt>
      <trkpt lat="61.83809" lon="5.67222">
        <ele>16.860242</ele>
        <time>2020-07-16T09:02:40.594Z</time>
      </trkpt>
      <trkpt lat="61.83867" lon="5.67476">
        <ele>10.665517</ele>
        <time>2020-07-16T09:02:57.673Z</time>
      </trkpt>
      <trkpt lat="61.83897" lon="5.67557">
        <ele>8.53925</ele>
        <time>2020-07-16T09:03:04.306Z</time>
      </trkpt>
      <trkpt lat="61.8391" lon="5.67582">
        <ele>7.952257</ele>
        <time>2020-07-16T09:03:06.626Z</time>
      </trkpt>
      <trkpt lat="61.83918" lon="5.67597">
        <ele>7.61017</ele>
        <time>2020-07-16T09:03:08.054Z</time>
      </trkpt>
      <trkpt lat="61.83932" lon="5.67621">
        <ele>7.025663</ele>
        <time>2020-07-16T09:03:10.544Z</time>
      </trkpt>
      <trkpt lat="61.83935" lon="5.67629">
        <ele>6.863634</ele>
        <time>2020-07-16T09:03:11.142Z</time>
      </trkpt>
      <trkpt lat="61.83941" lon="5.67641">
        <ele>6.594556</ele>
        <time>2020-07-16T09:03:12.194Z</time>
      </trkpt>
      <trkpt lat="61.8396" lon="5.67677">
        <ele>5.760321</ele>
        <time>2020-07-16T09:03:15.764Z</time>
      </trkpt>
      <trkpt lat="61.83964" lon="5.67686">
        <ele>5.568255</ele>
        <time>2020-07-16T09:03:16.463Z</time>
      </trkpt>
      <trkpt lat="61.83966" lon="5.67746">
        <ele>4.64103</ele>
        <time>2020-07-16T09:03:20.551Z</time>
      </trkpt>
      <trkpt lat="61.83963" lon="5.67758">
        <ele>4.429456</ele>
        <time>2020-07-16T09:03:21.337Z</time>
      </trkpt>
      <trkpt lat="61.83954" lon="5.6778">
        <ele>3.970564</ele>
        <time>2020-07-16T09:03:23.330Z</time>
      </trkpt>
      <trkpt lat="61.83932" lon="5.67841">
        <ele>2.90768</ele>
        <time>2020-07-16T09:03:28.478Z</time>
      </trkpt>
      <trkpt lat="61.83912" lon="5.67896">
        <ele>2.412454</ele>
        <time>2020-07-16T09:03:33.326Z</time>
      </trkpt>
      <trkpt lat="61.83926" lon="5.67922">
        <ele>2.128438</ele>
        <time>2020-07-16T09:03:36.445Z</time>
      </trkpt>
      <trkpt lat="61.83971" lon="5.68053">
        <ele>0.968735</ele>
        <time>2020-07-16T09:03:47.853Z</time>
      </trkpt>
      <trkpt lat="61.83997" lon="5.68145">
        <ele>0.281759</ele>
        <time>2020-07-16T09:03:56.476Z</time>
      </trkpt>
      <trkpt lat="61.84026" lon="5.68359">
        <ele>0.146178</ele>
        <time>2020-07-16T09:04:16.004Z</time>
      </trkpt>
      <trkpt lat="61.84106" lon="5.68662">
        <ele>0.045327</ele>
        <time>2020-07-16T09:04:46.352Z</time>
      </trkpt>
      <trkpt lat="61.84113" lon="5.68685">
        <ele>0.043739</ele>
        <time>2020-07-16T09:04:48.719Z</time>
      </trkpt>
      <trkpt lat="61.84127" lon="5.68742">
        <ele>0.039938</ele>
        <time>2020-07-16T09:04:54.389Z</time>
      </trkpt>
      <trkpt lat="61.84137" lon="5.68771">
        <ele>0.037867</ele>
        <time>2020-07-16T09:04:57.485Z</time>
      </trkpt>
      <trkpt lat="61.84164" lon="5.68858">
        <ele>0.111823</ele>
        <time>2020-07-16T09:05:06.714Z</time>
      </trkpt>
      <trkpt lat="61.84214" lon="5.6905">
        <ele>0.438629</ele>
        <time>2020-07-16T09:05:26.784Z</time>
      </trkpt>
      <trkpt lat="61.84219" lon="5.69067">
        <ele>0.469649</ele>
        <time>2020-07-16T09:05:28.747Z</time>
      </trkpt>
      <trkpt lat="61.84233" lon="5.69122">
        <ele>0.562183</ele>
        <time>2020-07-16T09:05:34.811Z</time>
      </trkpt>
      <trkpt lat="61.84293" lon="5.69362">
        <ele>1.241519</ele>
        <time>2020-07-16T09:06:01.250Z</time>
      </trkpt>
      <trkpt lat="61.84314" lon="5.69452">
        <ele>1.502774</ele>
        <time>2020-07-16T09:06:10.808Z</time>
      </trkpt>
      <trkpt lat="61.84322" lon="5.69493">
        <ele>1.622308</ele>
        <time>2020-07-16T09:06:14.803Z</time>
      </trkpt>
      <trkpt lat="61.84344" lon="5.69628">
        <ele>2.038052</ele>
        <time>2020-07-16T09:06:28.313Z</time>
      </trkpt>
      <trkpt lat="61.84358" lon="5.69751">
        <ele>2.404275</ele>
        <time>2020-07-16T09:06:40.251Z</time>
      </trkpt>
      <trkpt lat="61.84386" lon="5.70112">
        <ele>3.920005</ele>
        <time>2020-07-16T09:07:17.801Z</time>
      </trkpt>
      <trkpt lat="61.84392" lon="5.70154">
        <ele>4.126121</ele>
        <time>2020-07-16T09:07:22.216Z</time>
      </trkpt>
      <trkpt lat="61.84395" lon="5.70157">
        <ele>4.157004</ele>
        <time>2020-07-16T09:07:23.754Z</time>
      </trkpt>
      <trkpt lat="61.84396" lon="5.70187">
        <ele>4.295237</ele>
        <time>2020-07-16T09:07:26.125Z</time>
      </trkpt>
      <trkpt lat="61.84473" lon="5.70988">
        <ele>8.734046</ele>
        <time>2020-07-16T09:08:47.020Z</time>
      </trkpt>
      <trkpt lat="61.84484" lon="5.71063">
        <ele>10.162693</ele>
        <time>2020-07-16T09:08:57.819Z</time>
      </trkpt>
      <trkpt lat="61.84514" lon="5.71188">
        <ele>12.717548</ele>
        <time>2020-07-16T09:09:17.130Z</time>
      </trkpt>
      <trkpt lat="61.84518" lon="5.71201">
        <ele>13.007204</ele>
        <time>2020-07-16T09:09:20.324Z</time>
      </trkpt>
      <trkpt lat="61.84551" lon="5.71323">
        <ele>15.678891</ele>
        <time>2020-07-16T09:09:41.292Z</time>
      </trkpt>
      <trkpt lat="61.84619" lon="5.71563">
        <ele>24.440835</ele>
        <time>2020-07-16T09:10:33.232Z</time>
      </trkpt>
      <trkpt lat="61.84631" lon="5.71593">
        <ele>25.669919</ele>
        <time>2020-07-16T09:10:41.141Z</time>
      </trkpt>
      <trkpt lat="61.84647" lon="5.71626">
        <ele>27.134826</ele>
        <time>2020-07-16T09:10:49.982Z</time>
      </trkpt>
      <trkpt lat="61.84669" lon="5.71668">
        <ele>29.479464</ele>
        <time>2020-07-16T09:11:02.279Z</time>
      </trkpt>
      <trkpt lat="61.8468" lon="5.71687">
        <ele>30.566708</ele>
        <time>2020-07-16T09:11:08.201Z</time>
      </trkpt>
      <trkpt lat="61.84689" lon="5.71705">
        <ele>31.545836</ele>
        <time>2020-07-16T09:11:14.133Z</time>
      </trkpt>
      <trkpt lat="61.84736" lon="5.71803">
        <ele>36.842881</ele>
        <time>2020-07-16T09:11:43.560Z</time>
      </trkpt>
      <trkpt lat="61.84758" lon="5.71873">
        <ele>40.024416</ele>
        <time>2020-07-16T09:12:01.046Z</time>
      </trkpt>
      <trkpt lat="61.84781" lon="5.71971">
        <ele>45.718613</ele>
        <time>2020-07-16T09:12:21.624Z</time>
      </trkpt>
      <trkpt lat="61.8479" lon="5.72053">
        <ele>50.941181</ele>
        <time>2020-07-16T09:12:41.456Z</time>
      </trkpt>
      <trkpt lat="61.84791" lon="5.72273">
        <ele>64.553762</ele>
        <time>2020-07-16T09:13:46.723Z</time>
      </trkpt>
      <trkpt lat="61.84793" lon="5.72298">
        <ele>67.608565</ele>
        <time>2020-07-16T09:13:55.108Z</time>
      </trkpt>
      <trkpt lat="61.84793" lon="5.72307">
        <ele>69.004246</ele>
        <time>2020-07-16T09:13:59.032Z</time>
      </trkpt>
      <trkpt lat="61.84802" lon="5.72371">
        <ele>80.059939</ele>
        <time>2020-07-16T09:14:25.111Z</time>
      </trkpt>
      <trkpt lat="61.84821" lon="5.72442">
        <ele>93.326804</ele>
        <time>2020-07-16T09:15:00.569Z</time>
      </trkpt>
      <trkpt lat="61.84842" lon="5.72494">
        <ele>104.548705</ele>
        <time>2020-07-16T09:15:30.768Z</time>
      </trkpt>
      <trkpt lat="61.84868" lon="5.72538">
        <ele>116.395661</ele>
        <time>2020-07-16T09:16:03.255Z</time>
      </trkpt>
      <trkpt lat="61.85283" lon="5.73046">
        <ele>380.783216</ele>
        <time>2020-07-16T09:24:05.985Z</time>
      </trkpt>
      <trkpt lat="61.8535" lon="5.73109">
        <ele>424.059755</ele>
        <time>2020-07-16T09:25:23.829Z</time>
      </trkpt>
      <trkpt lat="61.85406" lon="5.73144">
        <ele>437.268358</ele>
        <time>2020-07-16T09:26:22.179Z</time>
      </trkpt>
      <trkpt lat="61.85476" lon="5.73168">
        <ele>439.068131</ele>
        <time>2020-07-16T09:27:26.828Z</time>
      </trkpt>
      <trkpt lat="61.86165" lon="5.7333">
        <ele>123.653687</ele>
        <time>2020-07-16T09:28:46.006Z</time>
      </trkpt>
      <trkpt lat="61.862" lon="5.73332">
        <ele>106.627476</ele>
        <time>2020-07-16T09:28:50.009Z</time>
      </trkpt>
      <trkpt lat="61.86212" lon="5.73327">
        <ele>100.947837</ele>
        <time>2020-07-16T09:28:51.295Z</time>
      </trkpt>
      <trkpt lat="61.86236" lon="5.73311">
        <ele>88.602835</ele>
        <time>2020-07-16T09:28:54.003Z</time>
      </trkpt>
      <trkpt lat="61.86273" lon="5.7327">
        <ele>71.752992</ele>
        <time>2020-07-16T09:28:58.443Z</time>
      </trkpt>
      <trkpt lat="61.8629" lon="5.73249">
        <ele>66.371906</ele>
        <time>2020-07-16T09:29:00.455Z</time>
      </trkpt>
      <trkpt lat="61.86304" lon="5.7323">
        <ele>61.61077</ele>
        <time>2020-07-16T09:29:02.252Z</time>
      </trkpt>
      <trkpt lat="61.86355" lon="5.7317">
        <ele>45.318852</ele>
        <time>2020-07-16T09:29:08.222Z</time>
      </trkpt>
      <trkpt lat="61.86425" lon="5.73113">
        <ele>25.730729</ele>
        <time>2020-07-16T09:29:15.894Z</time>
      </trkpt>
      <trkpt lat="61.86458" lon="5.73083">
        <ele>22.712962</ele>
        <time>2020-07-16T09:29:19.651Z</time>
      </trkpt>
      <trkpt lat="61.86478" lon="5.73062">
        <ele>20.763684</ele>
        <time>2020-07-16T09:29:22.205Z</time>
      </trkpt>
      <trkpt lat="61.86537" lon="5.73018">
        <ele>15.443304</ele>
        <time>2020-07-16T09:29:29.257Z</time>
      </trkpt>
      <trkpt lat="61.86547" lon="5.73016">
        <ele>14.643079</ele>
        <time>2020-07-16T09:29:30.403Z</time>
      </trkpt>
      <trkpt lat="61.86563" lon="5.73012">
        <ele>13.229282</ele>
        <time>2020-07-16T09:29:32.320Z</time>
      </trkpt>
      <trkpt lat="61.86703" lon="5.72982">
        <ele>9.646779</ele>
        <time>2020-07-16T09:29:53.656Z</time>
      </trkpt>
      <trkpt lat="61.8676" lon="5.72952">
        <ele>8.961746</ele>
        <time>2020-07-16T09:30:03.454Z</time>
      </trkpt>
      <trkpt lat="61.86766" lon="5.72949">
        <ele>8.891623</ele>
        <time>2020-07-16T09:30:04.446Z</time>
      </trkpt>
      <trkpt lat="61.86806" lon="5.72927">
        <ele>9.259172</ele>
        <time>2020-07-16T09:30:12.005Z</time>
      </trkpt>
      <trkpt lat="61.86846" lon="5.72902">
        <ele>9.6477</ele>
        <time>2020-07-16T09:30:20.320Z</time>
      </trkpt>
      <trkpt lat="61.86869" lon="5.72891">
        <ele>9.857588</ele>
        <time>2020-07-16T09:30:25.054Z</time>
      </trkpt>
      <trkpt lat="61.8692" lon="5.72864">
        <ele>10.345035</ele>
        <time>2020-07-16T09:30:37.072Z</time>
      </trkpt>
      <trkpt lat="61.86956" lon="5.7283">
        <ele>10.863589</ele>
        <time>2020-07-16T09:30:46.587Z</time>
      </trkpt>
      <trkpt lat="61.86997" lon="5.72764">
        <ele>11.787871</ele>
        <time>2020-07-16T09:30:59.359Z</time>
      </trkpt>
      <trkpt lat="61.87135" lon="5.72494">
        <ele>13.771029</ele>
        <time>2020-07-16T09:31:43.216Z</time>
      </trkpt>
      <trkpt lat="61.87345" lon="5.72249">
        <ele>12.302092</ele>
        <time>2020-07-16T09:32:19.074Z</time>
      </trkpt>
      <trkpt lat="61.8743" lon="5.72104">
        <ele>12.313428</ele>
        <time>2020-07-16T09:32:36.913Z</time>
      </trkpt>
      <trkpt lat="61.8764" lon="5.71839">
        <ele>14.606296</ele>
        <time>2020-07-16T09:33:32.338Z</time>
      </trkpt>
      <trkpt lat="61.87654" lon="5.71822">
        <ele>14.789378</ele>
        <time>2020-07-16T09:33:35.923Z</time>
      </trkpt>
      <trkpt lat="61.87681" lon="5.71796">
        <ele>15.117012</ele>
        <time>2020-07-16T09:33:41.441Z</time>
      </trkpt>
      <trkpt lat="61.87713" lon="5.71765">
        <ele>14.708122</ele>
        <time>2020-07-16T09:33:47.657Z</time>
      </trkpt>
      <trkpt lat="61.8775" lon="5.71732">
        <ele>14.138674</ele>
        <time>2020-07-16T09:33:54.139Z</time>
      </trkpt>
      <trkpt lat="61.8779" lon="5.71697">
        <ele>13.533209</ele>
        <time>2020-07-16T09:34:00.605Z</time>
      </trkpt>
      <trkpt lat="61.87797" lon="5.71692">
        <ele>13.422901</ele>
        <time>2020-07-16T09:34:01.728Z</time>
      </trkpt>
      <trkpt lat="61.87806" lon="5.71684">
        <ele>13.288703</ele>
        <time>2020-07-16T09:34:03.146Z</time>
      </trkpt>
      <trkpt lat="61.8782" lon="5.7167">
        <ele>13.069509</ele>
        <time>2020-07-16T09:34:05.206Z</time>
      </trkpt>
      <trkpt lat="61.87922" lon="5.71571">
        <ele>10.145193</ele>
        <time>2020-07-16T09:34:19.675Z</time>
      </trkpt>
      <trkpt lat="61.87987" lon="5.71544">
        <ele>8.093446</ele>
        <time>2020-07-16T09:34:28.507Z</time>
      </trkpt>
      <trkpt lat="61.88004" lon="5.71538">
        <ele>7.564524</ele>
        <time>2020-07-16T09:34:30.718Z</time>
      </trkpt>
      <trkpt lat="61.88022" lon="5.71561">
        <ele>6.97566</ele>
        <time>2020-07-16T09:34:33.537Z</time>
      </trkpt>
      <trkpt lat="61.881" lon="5.71532">
        <ele>5.276513</ele>
        <time>2020-07-16T09:34:44.316Z</time>
      </trkpt>
      <trkpt lat="61.88106" lon="5.71526">
        <ele>5.140008</ele>
        <time>2020-07-16T09:34:45.128Z</time>
      </trkpt>
      <trkpt lat="61.88118" lon="5.71515">
        <ele>4.86849</ele>
        <time>2020-07-16T09:34:47.012Z</time>
      </trkpt>
      <trkpt lat="61.88145" lon="5.71495">
        <ele>4.251609</ele>
        <time>2020-07-16T09:34:51.049Z</time>
      </trkpt>
      <trkpt lat="61.88169" lon="5.71483">
        <ele>3.722978</ele>
        <time>2020-07-16T09:34:54.519Z</time>
      </trkpt>
      <trkpt lat="61.88218" lon="5.71477">
        <ele>3.147056</ele>
        <time>2020-07-16T09:35:01.362Z</time>
      </trkpt>
      <trkpt lat="61.891" lon="5.71601">
        <ele>0.180392</ele>
        <time>2020-07-16T09:37:04.460Z</time>
      </trkpt>
      <trkpt lat="61.89756" lon="5.71711">
        <ele>0.006008</ele>
        <time>2020-07-16T09:38:36.084Z</time>
      </trkpt>
      <trkpt lat="61.90105" lon="5.71769">
        <ele>0.005781</ele>
        <time>2020-07-16T09:39:24.858Z</time>
      </trkpt>
      <trkpt lat="61.90823" lon="5.71919">
        <ele>0.292714</ele>
        <time>2020-07-16T09:41:05.455Z</time>
      </trkpt>
      <trkpt lat="61.91165" lon="5.72102">
        <ele>2.498873</ele>
        <time>2020-07-16T09:41:54.597Z</time>
      </trkpt>
      <trkpt lat="61.91394" lon="5.72437">
        <ele>7.647706</ele>
        <time>2020-07-16T09:42:33.330Z</time>
      </trkpt>
      <trkpt lat="61.91407" lon="5.7246">
        <ele>7.974876</ele>
        <time>2020-07-16T09:42:37.789Z</time>
      </trkpt>
      <trkpt lat="61.91422" lon="5.72497">
        <ele>8.432348</ele>
        <time>2020-07-16T09:42:43.089Z</time>
      </trkpt>
      <trkpt lat="61.9147" lon="5.72684">
        <ele>10.426526</ele>
        <time>2020-07-16T09:43:06.772Z</time>
      </trkpt>
      <trkpt lat="61.91489" lon="5.72818">
        <ele>12.084539</ele>
        <time>2020-07-16T09:43:23.379Z</time>
      </trkpt>
      <trkpt lat="61.91499" lon="5.72928">
        <ele>13.454462</ele>
        <time>2020-07-16T09:43:37.310Z</time>
      </trkpt>
      <trkpt lat="61.9151" lon="5.72953">
        <ele>13.879293</ele>
        <time>2020-07-16T09:43:41.829Z</time>
      </trkpt>
      <trkpt lat="61.91522" lon="5.72962">
        <ele>14.199234</ele>
        <time>2020-07-16T09:43:45.159Z</time>
      </trkpt>
      <trkpt lat="61.91522" lon="5.72946">
        <ele>14.399151</ele>
        <time>2020-07-16T09:43:47.544Z</time>
      </trkpt>
      <trkpt lat="61.91517" lon="5.72815">
        <ele>15.748778</ele>
        <time>2020-07-16T09:44:03.991Z</time>
      </trkpt>
      <trkpt lat="61.91505" lon="5.72724">
        <ele>16.549337</ele>
        <time>2020-07-16T09:44:15.905Z</time>
      </trkpt>
      <trkpt lat="61.915" lon="5.72696">
        <ele>16.80032</ele>
        <time>2020-07-16T09:44:19.733Z</time>
      </trkpt>
      <trkpt lat="61.91493" lon="5.72664">
        <ele>17.092098</ele>
        <time>2020-07-16T09:44:23.716Z</time>
      </trkpt>
      <trkpt lat="61.91339" lon="5.72129">
        <ele>20.734887</ele>
        <time>2020-07-16T09:45:21.798Z</time>
      </trkpt>
      <trkpt lat="61.91312" lon="5.72012">
        <ele>22.464102</ele>
        <time>2020-07-16T09:45:37.219Z</time>
      </trkpt>
      <trkpt lat="61.913" lon="5.71913">
        <ele>23.80876</ele>
        <time>2020-07-16T09:45:52.447Z</time>
      </trkpt>
      <trkpt lat="61.91299" lon="5.71833">
        <ele>24.939629</ele>
        <time>2020-07-16T09:46:05.078Z</time>
      </trkpt>
      <trkpt lat="61.91304" lon="5.7175">
        <ele>26.376473</ele>
        <time>2020-07-16T09:46:18.106Z</time>
      </trkpt>
      <trkpt lat="61.91314" lon="5.7167">
        <ele>27.797764</ele>
        <time>2020-07-16T09:46:30.324Z</time>
      </trkpt>
      <trkpt lat="61.91322" lon="5.71631">
        <ele>28.529846</ele>
        <time>2020-07-16T09:46:37.147Z</time>
      </trkpt>
      <trkpt lat="61.9133" lon="5.71605">
        <ele>29.046901</ele>
        <time>2020-07-16T09:46:40.670Z</time>
      </trkpt>
      <trkpt lat="61.91363" lon="5.71512">
        <ele>31.058202</ele>
        <time>2020-07-16T09:46:56.178Z</time>
      </trkpt>
      <trkpt lat="61.91431" lon="5.71361">
        <ele>31.094863</ele>
        <time>2020-07-16T09:47:16.411Z</time>
      </trkpt>
      <trkpt lat="61.91456" lon="5.71281">
        <ele>31.051873</ele>
        <time>2020-07-16T09:47:22.947Z</time>
      </trkpt>
      <trkpt lat="61.91476" lon="5.71158">
        <ele>30.557775</ele>
        <time>2020-07-16T09:47:31.806Z</time>
      </trkpt>
      <trkpt lat="61.91477" lon="5.71018">
        <ele>29.155526</ele>
        <time>2020-07-16T09:47:41.196Z</time>
      </trkpt>
      <trkpt lat="61.91476" lon="5.70996">
        <ele>28.931773</ele>
        <time>2020-07-16T09:47:42.619Z</time>
      </trkpt>
      <trkpt lat="61.91474" lon="5.70973">
        <ele>28.698963</ele>
        <time>2020-07-16T09:47:44.105Z</time>
      </trkpt>
      <trkpt lat="61.91453" lon="5.70776">
        <ele>26.454227</ele>
        <time>2020-07-16T09:47:57.278Z</time>
      </trkpt>
      <trkpt lat="61.91452" lon="5.70769">
        <ele>26.35149</ele>
        <time>2020-07-16T09:47:57.698Z</time>
      </trkpt>
      <trkpt lat="61.91447" lon="5.70726">
        <ele>25.718362</ele>
        <time>2020-07-16T09:48:00.571Z</time>
      </trkpt>
      <trkpt lat="61.91408" lon="5.70376">
        <ele>20.377077</ele>
        <time>2020-07-16T09:48:22.692Z</time>
      </trkpt>
      <trkpt lat="61.91341" lon="5.70094">
        <ele>15.224359</ele>
        <time>2020-07-16T09:48:41.570Z</time>
      </trkpt>
      <trkpt lat="61.91313" lon="5.69834">
        <ele>12.473002</ele>
        <time>2020-07-16T09:48:58.568Z</time>
      </trkpt>
      <trkpt lat="61.91275" lon="5.69601">
        <ele>11.400141</ele>
        <time>2020-07-16T09:49:17.467Z</time>
      </trkpt>
      <trkpt lat="61.91257" lon="5.6927">
        <ele>11.340041</ele>
        <time>2020-07-16T09:49:47.672Z</time>
      </trkpt>
      <trkpt lat="61.91188" lon="5.6875">
        <ele>11.057445</ele>
        <time>2020-07-16T09:50:31.334Z</time>
      </trkpt>
      <trkpt lat="61.91178" lon="5.68641">
        <ele>10.958686</ele>
        <time>2020-07-16T09:50:40.302Z</time>
      </trkpt>
      <trkpt lat="61.91176" lon="5.68502">
        <ele>11.037756</ele>
        <time>2020-07-16T09:50:51.974Z</time>
      </trkpt>
      <trkpt lat="61.91183" lon="5.68419">
        <ele>11.101941</ele>
        <time>2020-07-16T09:50:59.400Z</time>
      </trkpt>
      <trkpt lat="61.91188" lon="5.68377">
        <ele>11.134847</ele>
        <time>2020-07-16T09:51:03.138Z</time>
      </trkpt>
      <trkpt lat="61.91193" lon="5.6834">
        <ele>11.164615</ele>
        <time>2020-07-16T09:51:06.754Z</time>
      </trkpt>
      <trkpt lat="61.9123" lon="5.68164">
        <ele>11.099825</ele>
        <time>2020-07-16T09:51:23.759Z</time>
      </trkpt>
      <trkpt lat="61.91234" lon="5.68151">
        <ele>11.080151</ele>
        <time>2020-07-16T09:51:25.174Z</time>
      </trkpt>
      <trkpt lat="61.91244" lon="5.68116">
        <ele>11.023351</ele>
        <time>2020-07-16T09:51:28.813Z</time>
      </trkpt>
      <trkpt lat="61.91334" lon="5.6786">
        <ele>10.50445</ele>
        <time>2020-07-16T09:51:53.069Z</time>
      </trkpt>
      <trkpt lat="61.91342" lon="5.67826">
        <ele>10.419409</ele>
        <time>2020-07-16T09:51:55.755Z</time>
      </trkpt>
      <trkpt lat="61.91345" lon="5.67813">
        <ele>10.386866</ele>
        <time>2020-07-16T09:51:56.850Z</time>
      </trkpt>
      <trkpt lat="61.91351" lon="5.67785">
        <ele>10.317159</ele>
        <time>2020-07-16T09:51:59.164Z</time>
      </trkpt>
      <trkpt lat="61.91381" lon="5.67661">
        <ele>10.002492</ele>
        <time>2020-07-16T09:52:10.290Z</time>
      </trkpt>
      <trkpt lat="61.91422" lon="5.67552">
        <ele>9.819524</ele>
        <time>2020-07-16T09:52:21.490Z</time>
      </trkpt>
      <trkpt lat="61.91437" lon="5.67515">
        <ele>9.795988</ele>
        <time>2020-07-16T09:52:25.813Z</time>
      </trkpt>
      <trkpt lat="61.9144" lon="5.67509">
        <ele>9.792135</ele>
        <time>2020-07-16T09:52:26.685Z</time>
      </trkpt>
      <trkpt lat="61.91445" lon="5.67494">
        <ele>9.783311</ele>
        <time>2020-07-16T09:52:28.190Z</time>
      </trkpt>
      <trkpt lat="61.91455" lon="5.67469">
        <ele>9.767997</ele>
        <time>2020-07-16T09:52:31.157Z</time>
      </trkpt>
      <trkpt lat="61.91461" lon="5.67449">
        <ele>9.756785</ele>
        <time>2020-07-16T09:52:33.095Z</time>
      </trkpt>
      <trkpt lat="61.91522" lon="5.6719">
        <ele>9.716447</ele>
        <time>2020-07-16T09:52:56.888Z</time>
      </trkpt>
      <trkpt lat="61.91527" lon="5.67168">
        <ele>9.725105</ele>
        <time>2020-07-16T09:52:58.435Z</time>
      </trkpt>
      <trkpt lat="61.91537" lon="5.67125">
        <ele>9.74326</ele>
        <time>2020-07-16T09:53:03.317Z</time>
      </trkpt>
      <trkpt lat="61.91542" lon="5.67101">
        <ele>9.7532</ele>
        <time>2020-07-16T09:53:05.136Z</time>
      </trkpt>
      <trkpt lat="61.91548" lon="5.67076">
        <ele>9.763574</ele>
        <time>2020-07-16T09:53:08.449Z</time>
      </trkpt>
      <trkpt lat="61.91598" lon="5.66831">
        <ele>9.343027</ele>
        <time>2020-07-16T09:53:31.176Z</time>
      </trkpt>
      <trkpt lat="61.91605" lon="5.66695">
        <ele>8.823667</ele>
        <time>2020-07-16T09:53:41.888Z</time>
      </trkpt>
      <trkpt lat="61.91601" lon="5.66617">
        <ele>8.527507</ele>
        <time>2020-07-16T09:53:47.300Z</time>
      </trkpt>
      <trkpt lat="61.91596" lon="5.66574">
        <ele>8.335438</ele>
        <time>2020-07-16T09:53:50.372Z</time>
      </trkpt>
      <trkpt lat="61.91595" lon="5.66564">
        <ele>8.198789</ele>
        <time>2020-07-16T09:53:50.956Z</time>
      </trkpt>
      <trkpt lat="61.91572" lon="5.66435">
        <ele>6.482942</ele>
        <time>2020-07-16T09:53:59.814Z</time>
      </trkpt>
      <trkpt lat="61.91523" lon="5.66221">
        <ele>3.541273</ele>
        <time>2020-07-16T09:54:14.394Z</time>
      </trkpt>
      <trkpt lat="61.91492" lon="5.66033">
        <ele>2.29919</ele>
        <time>2020-07-16T09:54:28.341Z</time>
      </trkpt>
      <trkpt lat="61.91484" lon="5.65946">
        <ele>1.751719</ele>
        <time>2020-07-16T09:54:34.881Z</time>
      </trkpt>
      <trkpt lat="61.91478" lon="5.65803">
        <ele>1.125115</ele>
        <time>2020-07-16T09:54:46.053Z</time>
      </trkpt>
      <trkpt lat="61.9148" lon="5.65593">
        <ele>0.807365</ele>
        <time>2020-07-16T09:55:02.987Z</time>
      </trkpt>
      <trkpt lat="61.91474" lon="5.65442">
        <ele>0.591512</ele>
        <time>2020-07-16T09:55:15.226Z</time>
      </trkpt>
      <trkpt lat="61.91461" lon="5.65334">
        <ele>0.467698</ele>
        <time>2020-07-16T09:55:24.118Z</time>
      </trkpt>
      <trkpt lat="61.91412" lon="5.65035">
        <ele>0.261673</ele>
        <time>2020-07-16T09:55:49.820Z</time>
      </trkpt>
      <trkpt lat="61.91403" lon="5.64927">
        <ele>0.335598</ele>
        <time>2020-07-16T09:55:59.100Z</time>
      </trkpt>
      <trkpt lat="61.91403" lon="5.64864">
        <ele>0.377819</ele>
        <time>2020-07-16T09:56:04.499Z</time>
      </trkpt>
      <trkpt lat="61.91418" lon="5.6486">
        <ele>0.399382</ele>
        <time>2020-07-16T09:56:07.381Z</time>
      </trkpt>
      <trkpt lat="61.91416" lon="5.64823">
        <ele>0.424436</ele>
        <time>2020-07-16T09:56:10.778Z</time>
      </trkpt>
      <trkpt lat="61.91415" lon="5.64766">
        <ele>0.462633</ele>
        <time>2020-07-16T09:56:16.320Z</time>
      </trkpt>
      <trkpt lat="61.91424" lon="5.64693">
        <ele>0.716372</ele>
        <time>2020-07-16T09:56:23.671Z</time>
      </trkpt>
      <trkpt lat="61.91467" lon="5.64523">
        <ele>1.370048</ele>
        <time>2020-07-16T09:56:42.325Z</time>
      </trkpt>
      <trkpt lat="61.91468" lon="5.64511">
        <ele>1.408432</ele>
        <time>2020-07-16T09:56:43.612Z</time>
      </trkpt>
      <trkpt lat="61.91472" lon="5.64501">
        <ele>1.45572</ele>
        <time>2020-07-16T09:56:45.033Z</time>
      </trkpt>
      <trkpt lat="61.91512" lon="5.64228">
        <ele>2.903542</ele>
        <time>2020-07-16T09:57:14.303Z</time>
      </trkpt>
      <trkpt lat="61.91527" lon="5.64165">
        <ele>3.31221</ele>
        <time>2020-07-16T09:57:21.866Z</time>
      </trkpt>
      <trkpt lat="61.9153" lon="5.64164">
        <ele>3.353422</ele>
        <time>2020-07-16T09:57:22.620Z</time>
      </trkpt>
      <trkpt lat="61.9153" lon="5.64158">
        <ele>3.389269</ele>
        <time>2020-07-16T09:57:23.415Z</time>
      </trkpt>
      <trkpt lat="61.91555" lon="5.64002">
        <ele>4.431432</ele>
        <time>2020-07-16T09:57:41.496Z</time>
      </trkpt>
      <trkpt lat="61.91577" lon="5.63786">
        <ele>6.017488</ele>
        <time>2020-07-16T09:58:06.910Z</time>
      </trkpt>
      <trkpt lat="61.9166" lon="5.63428">
        <ele>7.330495</ele>
        <time>2020-07-16T09:58:47.992Z</time>
      </trkpt>
      <trkpt lat="61.91669" lon="5.6325">
        <ele>6.476481</ele>
        <time>2020-07-16T09:59:01.359Z</time>
      </trkpt>
      <trkpt lat="61.91667" lon="5.63192">
        <ele>5.869134</ele>
        <time>2020-07-16T09:59:05.269Z</time>
      </trkpt>
      <trkpt lat="61.9167" lon="5.63">
        <ele>3.874563</ele>
        <time>2020-07-16T09:59:18.027Z</time>
      </trkpt>
      <trkpt lat="61.9167" lon="5.62985">
        <ele>3.724714</ele>
        <time>2020-07-16T09:59:18.898Z</time>
      </trkpt>
      <trkpt lat="61.91669" lon="5.62916">
        <ele>3.124197</ele>
        <time>2020-07-16T09:59:23.585Z</time>
      </trkpt>
      <trkpt lat="61.91669" lon="5.62899">
        <ele>2.979946</ele>
        <time>2020-07-16T09:59:24.694Z</time>
      </trkpt>
      <trkpt lat="61.9167" lon="5.62842">
        <ele>2.518285</ele>
        <time>2020-07-16T09:59:28.696Z</time>
      </trkpt>
      <trkpt lat="61.9167" lon="5.62838">
        <ele>2.486669</ele>
        <time>2020-07-16T09:59:28.934Z</time>
      </trkpt>
      <trkpt lat="61.91674" lon="5.62814">
        <ele>2.289981</ele>
        <time>2020-07-16T09:59:30.549Z</time>
      </trkpt>
      <trkpt lat="61.91674" lon="5.6281">
        <ele>2.248997</ele>
        <time>2020-07-16T09:59:30.929Z</time>
      </trkpt>
      <trkpt lat="61.91674" lon="5.62795">
        <ele>2.131573</ele>
        <time>2020-07-16T09:59:31.998Z</time>
      </trkpt>
      <trkpt lat="61.91683" lon="5.62677">
        <ele>1.162588</ele>
        <time>2020-07-16T09:59:40.499Z</time>
      </trkpt>
      <trkpt lat="61.917" lon="5.6258">
        <ele>0.43081</ele>
        <time>2020-07-16T09:59:48.727Z</time>
      </trkpt>
      <trkpt lat="61.91725" lon="5.62502">
        <ele>0.394006</ele>
        <time>2020-07-16T09:59:56.987Z</time>
      </trkpt>
      <trkpt lat="61.91796" lon="5.62322">
        <ele>0.30251</ele>
        <time>2020-07-16T10:00:17.877Z</time>
      </trkpt>
      <trkpt lat="61.91828" lon="5.62207">
        <ele>0.402115</ele>
        <time>2020-07-16T10:00:29.583Z</time>
      </trkpt>
      <trkpt lat="61.91851" lon="5.62069">
        <ele>0.580886</ele>
        <time>2020-07-16T10:00:42.232Z</time>
      </trkpt>
      <trkpt lat="61.91873" lon="5.61845">
        <ele>2.253692</ele>
        <time>2020-07-16T10:01:03.812Z</time>
      </trkpt>
      <trkpt lat="61.91898" lon="5.61731">
        <ele>4.42853</ele>
        <time>2020-07-16T10:01:19.978Z</time>
      </trkpt>
      <trkpt lat="61.91907" lon="5.61701">
        <ele>5.035824</ele>
        <time>2020-07-16T10:01:24.883Z</time>
      </trkpt>
      <trkpt lat="61.91909" lon="5.61695">
        <ele>5.155442</ele>
        <time>2020-07-16T10:01:26.236Z</time>
      </trkpt>
      <trkpt lat="61.91959" lon="5.61589">
        <ele>8.339033</ele>
        <time>2020-07-16T10:01:52.561Z</time>
      </trkpt>
      <trkpt lat="61.92104" lon="5.61393">
        <ele>23.334055</ele>
        <time>2020-07-16T10:03:17.889Z</time>
      </trkpt>
      <trkpt lat="61.92165" lon="5.61286">
        <ele>26.207156</ele>
        <time>2020-07-16T10:03:52.684Z</time>
      </trkpt>
      <trkpt lat="61.922" lon="5.61203">
        <ele>28.124072</ele>
        <time>2020-07-16T10:04:08.321Z</time>
      </trkpt>
      <trkpt lat="61.92231" lon="5.61113">
        <ele>29.139569</ele>
        <time>2020-07-16T10:04:16.440Z</time>
      </trkpt>
      <trkpt lat="61.92268" lon="5.60966">
        <ele>22.434868</ele>
        <time>2020-07-16T10:04:25.650Z</time>
      </trkpt>
      <trkpt lat="61.92287" lon="5.60862">
        <ele>17.96631</ele>
        <time>2020-07-16T10:04:31.594Z</time>
      </trkpt>
      <trkpt lat="61.923" lon="5.60769">
        <ele>14.113178</ele>
        <time>2020-07-16T10:04:36.752Z</time>
      </trkpt>
      <trkpt lat="61.92302" lon="5.60753">
        <ele>13.568715</ele>
        <time>2020-07-16T10:04:37.637Z</time>
      </trkpt>
      <trkpt lat="61.92316" lon="5.60651">
        <ele>10.055516</ele>
        <time>2020-07-16T10:04:43.343Z</time>
      </trkpt>
      <trkpt lat="61.92324" lon="5.60581">
        <ele>7.650442</ele>
        <time>2020-07-16T10:04:47.339Z</time>
      </trkpt>
      <trkpt lat="61.92325" lon="5.60575">
        <ele>7.47289</ele>
        <time>2020-07-16T10:04:47.705Z</time>
      </trkpt>
      <trkpt lat="61.92334" lon="5.60479">
        <ele>4.190815</ele>
        <time>2020-07-16T10:04:55.193Z</time>
      </trkpt>
      <trkpt lat="61.92336" lon="5.60458">
        <ele>3.507148</ele>
        <time>2020-07-16T10:04:56.953Z</time>
      </trkpt>
      <trkpt lat="61.92334" lon="5.60411">
        <ele>1.931703</ele>
        <time>2020-07-16T10:05:01.715Z</time>
      </trkpt>
      <trkpt lat="61.92336" lon="5.60336">
        <ele>1.540699</ele>
        <time>2020-07-16T10:05:09.143Z</time>
      </trkpt>
      <trkpt lat="61.92336" lon="5.60324">
        <ele>1.501438</ele>
        <time>2020-07-16T10:05:10.421Z</time>
      </trkpt>
      <trkpt lat="61.92337" lon="5.6032">
        <ele>1.489202</ele>
        <time>2020-07-16T10:05:10.708Z</time>
      </trkpt>
      <trkpt lat="61.92351" lon="5.60208">
        <ele>1.129236</ele>
        <time>2020-07-16T10:05:20.417Z</time>
      </trkpt>
      <trkpt lat="61.9236" lon="5.60161">
        <ele>0.968492</ele>
        <time>2020-07-16T10:05:24.472Z</time>
      </trkpt>
      <trkpt lat="61.92361" lon="5.60154">
        <ele>0.945914</ele>
        <time>2020-07-16T10:05:25.174Z</time>
      </trkpt>
      <trkpt lat="61.92363" lon="5.60145">
        <ele>0.914006</ele>
        <time>2020-07-16T10:05:26.415Z</time>
      </trkpt>
      <trkpt lat="61.92379" lon="5.60043">
        <ele>0.57918</ele>
        <time>2020-07-16T10:05:35.424Z</time>
      </trkpt>
      <trkpt lat="61.92385" lon="5.5996">
        <ele>0.531864</ele>
        <time>2020-07-16T10:05:42.799Z</time>
      </trkpt>
      <trkpt lat="61.92386" lon="5.59919">
        <ele>0.514564</ele>
        <time>2020-07-16T10:05:47.075Z</time>
      </trkpt>
      <trkpt lat="61.92379" lon="5.59917">
        <ele>0.50826</ele>
        <time>2020-07-16T10:05:48.105Z</time>
      </trkpt>
      <trkpt lat="61.92379" lon="5.59884">
        <ele>0.494317</ele>
        <time>2020-07-16T10:05:50.927Z</time>
      </trkpt>
      <trkpt lat="61.92377" lon="5.59846">
        <ele>0.478108</ele>
        <time>2020-07-16T10:05:54.347Z</time>
      </trkpt>
      <trkpt lat="61.92374" lon="5.59819">
        <ele>0.466377</ele>
        <time>2020-07-16T10:05:56.414Z</time>
      </trkpt>
      <trkpt lat="61.92373" lon="5.59809">
        <ele>0.461969</ele>
        <time>2020-07-16T10:05:57.461Z</time>
      </trkpt>
      <trkpt lat="61.92355" lon="5.59702">
        <ele>0.413563</ele>
        <time>2020-07-16T10:06:06.682Z</time>
      </trkpt>
      <trkpt lat="61.92324" lon="5.59597">
        <ele>0.337436</ele>
        <time>2020-07-16T10:06:16.391Z</time>
      </trkpt>
      <trkpt lat="61.92283" lon="5.5949">
        <ele>0.24608</ele>
        <time>2020-07-16T10:06:27.821Z</time>
      </trkpt>
      <trkpt lat="61.92261" lon="5.59431">
        <ele>0.19623</ele>
        <time>2020-07-16T10:06:34.085Z</time>
      </trkpt>
      <trkpt lat="61.92223" lon="5.59314">
        <ele>0.128308</ele>
        <time>2020-07-16T10:06:45.913Z</time>
      </trkpt>
      <trkpt lat="61.92208" lon="5.59227">
        <ele>0.100325</ele>
        <time>2020-07-16T10:06:53.665Z</time>
      </trkpt>
      <trkpt lat="61.92201" lon="5.58908">
        <ele>0.025917</ele>
        <time>2020-07-16T10:07:20.352Z</time>
      </trkpt>
      <trkpt lat="61.92191" lon="5.58688">
        <ele>0.005387</ele>
        <time>2020-07-16T10:07:38.802Z</time>
      </trkpt>
      <trkpt lat="61.9219" lon="5.5865">
        <ele>0.00186</ele>
        <time>2020-07-16T10:07:41.988Z</time>
      </trkpt>
      <trkpt lat="61.92191" lon="5.5862">
        <ele>0.001221</ele>
        <time>2020-07-16T10:07:44.550Z</time>
      </trkpt>
      <trkpt lat="61.92206" lon="5.58503">
        <ele>0.015136</ele>
        <time>2020-07-16T10:07:54.731Z</time>
      </trkpt>
      <trkpt lat="61.92255" lon="5.58336">
        <ele>0.037665</ele>
        <time>2020-07-16T10:08:11.196Z</time>
      </trkpt>
      <trkpt lat="61.92262" lon="5.58301">
        <ele>0.042157</ele>
        <time>2020-07-16T10:08:14.487Z</time>
      </trkpt>
      <trkpt lat="61.92264" lon="5.58294">
        <ele>0.042968</ele>
        <time>2020-07-16T10:08:15.078Z</time>
      </trkpt>
      <trkpt lat="61.92266" lon="5.58278">
        <ele>0.063286</ele>
        <time>2020-07-16T10:08:16.484Z</time>
      </trkpt>
      <trkpt lat="61.92269" lon="5.58251">
        <ele>0.127952</ele>
        <time>2020-07-16T10:08:18.881Z</time>
      </trkpt>
      <trkpt lat="61.92271" lon="5.58236">
        <ele>0.161251</ele>
        <time>2020-07-16T10:08:20.119Z</time>
      </trkpt>
      <trkpt lat="61.92272" lon="5.58221">
        <ele>0.196642</ele>
        <time>2020-07-16T10:08:21.427Z</time>
      </trkpt>
      <trkpt lat="61.92273" lon="5.58168">
        <ele>0.317581</ele>
        <time>2020-07-16T10:08:26.240Z</time>
      </trkpt>
      <trkpt lat="61.92269" lon="5.58098">
        <ele>0.476213</ele>
        <time>2020-07-16T10:08:32.600Z</time>
      </trkpt>
      <trkpt lat="61.92266" lon="5.58049">
        <ele>0.589143</ele>
        <time>2020-07-16T10:08:37.148Z</time>
      </trkpt>
      <trkpt lat="61.92255" lon="5.57901">
        <ele>0.931455</ele>
        <time>2020-07-16T10:08:51.437Z</time>
      </trkpt>
      <trkpt lat="61.92252" lon="5.57855">
        <ele>1.069825</ele>
        <time>2020-07-16T10:08:56.178Z</time>
      </trkpt>
      <trkpt lat="61.92253" lon="5.57752">
        <ele>1.369635</ele>
        <time>2020-07-16T10:09:05.611Z</time>
      </trkpt>
      <trkpt lat="61.92257" lon="5.57698">
        <ele>1.531392</ele>
        <time>2020-07-16T10:09:11.046Z</time>
      </trkpt>
      <trkpt lat="61.92265" lon="5.57622">
        <ele>1.759971</ele>
        <time>2020-07-16T10:09:18.334Z</time>
      </trkpt>
      <trkpt lat="61.92269" lon="5.57554">
        <ele>1.960166</ele>
        <time>2020-07-16T10:09:24.758Z</time>
      </trkpt>
      <trkpt lat="61.92267" lon="5.57493">
        <ele>2.029364</ele>
        <time>2020-07-16T10:09:30.073Z</time>
      </trkpt>
      <trkpt lat="61.92238" lon="5.57291">
        <ele>2.030385</ele>
        <time>2020-07-16T10:09:47.723Z</time>
      </trkpt>
      <trkpt lat="61.92234" lon="5.57208">
        <ele>2.030788</ele>
        <time>2020-07-16T10:09:54.593Z</time>
      </trkpt>
      <trkpt lat="61.92242" lon="5.57105">
        <ele>1.984339</ele>
        <time>2020-07-16T10:10:03.197Z</time>
      </trkpt>
      <trkpt lat="61.92301" lon="5.56666">
        <ele>1.459177</ele>
        <time>2020-07-16T10:10:40.237Z</time>
      </trkpt>
      <trkpt lat="61.92301" lon="5.56601">
        <ele>1.337538</ele>
        <time>2020-07-16T10:10:45.288Z</time>
      </trkpt>
      <trkpt lat="61.9229" lon="5.56434">
        <ele>1.018703</ele>
        <time>2020-07-16T10:10:58.416Z</time>
      </trkpt>
      <trkpt lat="61.92262" lon="5.56229">
        <ele>1.102107</ele>
        <time>2020-07-16T10:11:15.209Z</time>
      </trkpt>
      <trkpt lat="61.92259" lon="5.56166">
        <ele>1.141252</ele>
        <time>2020-07-16T10:11:20.306Z</time>
      </trkpt>
      <trkpt lat="61.92264" lon="5.56076">
        <ele>1.197978</ele>
        <time>2020-07-16T10:11:28.355Z</time>
      </trkpt>
      <trkpt lat="61.92299" lon="5.55844">
        <ele>4.181687</ele>
        <time>2020-07-16T10:11:55.211Z</time>
      </trkpt>
      <trkpt lat="61.923" lon="5.55827">
        <ele>4.424525</ele>
        <time>2020-07-16T10:11:58.026Z</time>
      </trkpt>
      <trkpt lat="61.92302" lon="5.55797">
        <ele>4.856434</ele>
        <time>2020-07-16T10:12:01.765Z</time>
      </trkpt>
      <trkpt lat="61.92307" lon="5.55695">
        <ele>6.31119</ele>
        <time>2020-07-16T10:12:15.932Z</time>
      </trkpt>
      <trkpt lat="61.92308" lon="5.5568">
        <ele>6.535258</ele>
        <time>2020-07-16T10:12:19.142Z</time>
      </trkpt>
      <trkpt lat="61.92319" lon="5.55458">
        <ele>15.62908</ele>
        <time>2020-07-16T10:13:02.189Z</time>
      </trkpt>
      <trkpt lat="61.9233" lon="5.55354">
        <ele>20.078834</ele>
        <time>2020-07-16T10:13:27.009Z</time>
      </trkpt>
      <trkpt lat="61.92357" lon="5.55205">
        <ele>27.869697</ele>
        <time>2020-07-16T10:14:15.944Z</time>
      </trkpt>
      <trkpt lat="61.92396" lon="5.55062">
        <ele>36.652342</ele>
        <time>2020-07-16T10:15:04.124Z</time>
      </trkpt>
      <trkpt lat="61.92409" lon="5.55024">
        <ele>39.145211</ele>
        <time>2020-07-16T10:15:18.429Z</time>
      </trkpt>
      <trkpt lat="61.92423" lon="5.54983">
        <ele>41.798417</ele>
        <time>2020-07-16T10:15:30.638Z</time>
      </trkpt>
      <trkpt lat="61.9264" lon="5.54355">
        <ele>43.384868</ele>
        <time>2020-07-16T10:16:41.897Z</time>
      </trkpt>
      <trkpt lat="61.9267" lon="5.54247">
        <ele>36.831565</ele>
        <time>2020-07-16T10:16:48.665Z</time>
      </trkpt>
      <trkpt lat="61.92695" lon="5.54133">
        <ele>29.97583</ele>
        <time>2020-07-16T10:16:55.160Z</time>
      </trkpt>
      <trkpt lat="61.92722" lon="5.53954">
        <ele>20.152099</ele>
        <time>2020-07-16T10:17:04.877Z</time>
      </trkpt>
      <trkpt lat="61.92729" lon="5.53891">
        <ele>17.206687</ele>
        <time>2020-07-16T10:17:08.224Z</time>
      </trkpt>
      <trkpt lat="61.92734" lon="5.53831">
        <ele>14.392029</ele>
        <time>2020-07-16T10:17:11.344Z</time>
      </trkpt>
      <trkpt lat="61.92738" lon="5.53769">
        <ele>11.504406</ele>
        <time>2020-07-16T10:17:14.609Z</time>
      </trkpt>
      <trkpt lat="61.92742" lon="5.53667">
        <ele>6.808809</ele>
        <time>2020-07-16T10:17:20.026Z</time>
      </trkpt>
      <trkpt lat="61.92748" lon="5.53511">
        <ele>3.681589</ele>
        <time>2020-07-16T10:17:29.263Z</time>
      </trkpt>
      <trkpt lat="61.92755" lon="5.53411">
        <ele>2.568537</ele>
        <time>2020-07-16T10:17:36.205Z</time>
      </trkpt>
      <trkpt lat="61.92785" lon="5.53159">
        <ele>0.594485</ele>
        <time>2020-07-16T10:17:55.767Z</time>
      </trkpt>
      <trkpt lat="61.92784" lon="5.52999">
        <ele>0.330989</ele>
        <time>2020-07-16T10:18:08.476Z</time>
      </trkpt>
      <trkpt lat="61.92767" lon="5.52864">
        <ele>0.12454</ele>
        <time>2020-07-16T10:18:20.109Z</time>
      </trkpt>
      <trkpt lat="61.92706" lon="5.52509">
        <ele>0.221351</ele>
        <time>2020-07-16T10:18:52.348Z</time>
      </trkpt>
      <trkpt lat="61.92685" lon="5.52408">
        <ele>0.245184</ele>
        <time>2020-07-16T10:19:01.764Z</time>
      </trkpt>
      <trkpt lat="61.92638" lon="5.52232">
        <ele>0.28874</ele>
        <time>2020-07-16T10:19:18.802Z</time>
      </trkpt>
      <trkpt lat="61.92624" lon="5.52154">
        <ele>0.311195</ele>
        <time>2020-07-16T10:19:25.810Z</time>
      </trkpt>
      <trkpt lat="61.92612" lon="5.52032">
        <ele>0.363315</ele>
        <time>2020-07-16T10:19:36.455Z</time>
      </trkpt>
      <trkpt lat="61.92613" lon="5.51906">
        <ele>0.415545</ele>
        <time>2020-07-16T10:19:47.356Z</time>
      </trkpt>
      <trkpt lat="61.92614" lon="5.51886">
        <ele>0.42395</ele>
        <time>2020-07-16T10:19:49.024Z</time>
      </trkpt>
      <trkpt lat="61.92617" lon="5.51848">
        <ele>0.439768</ele>
        <time>2020-07-16T10:19:52.359Z</time>
      </trkpt>
      <trkpt lat="61.9264" lon="5.51636">
        <ele>0.42314</ele>
        <time>2020-07-16T10:20:10.638Z</time>
      </trkpt>
      <trkpt lat="61.92663" lon="5.51431">
        <ele>0.37542</ele>
        <time>2020-07-16T10:20:28.127Z</time>
      </trkpt>
      <trkpt lat="61.92674" lon="5.51365">
        <ele>0.350455</ele>
        <time>2020-07-16T10:20:33.844Z</time>
      </trkpt>
      <trkpt lat="61.92689" lon="5.51311">
        <ele>0.327657</ele>
        <time>2020-07-16T10:20:38.903Z</time>
      </trkpt>
      <trkpt lat="61.92748" lon="5.51163">
        <ele>0.257084</ele>
        <time>2020-07-16T10:20:54.861Z</time>
      </trkpt>
      <trkpt lat="61.92777" lon="5.51109">
        <ele>0.275468</ele>
        <time>2020-07-16T10:21:01.835Z</time>
      </trkpt>
      <trkpt lat="61.92882" lon="5.50976">
        <ele>0.73165</ele>
        <time>2020-07-16T10:21:24.941Z</time>
      </trkpt>
      <trkpt lat="61.92972" lon="5.50838">
        <ele>1.16858</ele>
        <time>2020-07-16T10:21:46.840Z</time>
      </trkpt>
      <trkpt lat="61.93096" lon="5.50728">
        <ele>1.593627</ele>
        <time>2020-07-16T10:22:12.413Z</time>
      </trkpt>
      <trkpt lat="61.93129" lon="5.50682">
        <ele>1.486485</ele>
        <time>2020-07-16T10:22:19.339Z</time>
      </trkpt>
      <trkpt lat="61.93158" lon="5.50627">
        <ele>1.379559</ele>
        <time>2020-07-16T10:22:26.071Z</time>
      </trkpt>
      <trkpt lat="61.93168" lon="5.50605">
        <ele>1.341627</ele>
        <time>2020-07-16T10:22:28.503Z</time>
      </trkpt>
      <trkpt lat="61.93175" lon="5.50589">
        <ele>1.313921</ele>
        <time>2020-07-16T10:22:30.062Z</time>
      </trkpt>
      <trkpt lat="61.93275" lon="5.50341">
        <ele>1.069077</ele>
        <time>2020-07-16T10:22:55.179Z</time>
      </trkpt>
      <trkpt lat="61.93305" lon="5.50245">
        <ele>1.01963</ele>
        <time>2020-07-16T10:23:05.147Z</time>
      </trkpt>
      <trkpt lat="61.93311" lon="5.50214">
        <ele>1.005461</ele>
        <time>2020-07-16T10:23:08.082Z</time>
      </trkpt>
      <trkpt lat="61.93313" lon="5.50202">
        <ele>0.999596</ele>
        <time>2020-07-16T10:23:09.303Z</time>
      </trkpt>
      <trkpt lat="61.93315" lon="5.50188">
        <ele>0.993619</ele>
        <time>2020-07-16T10:23:10.715Z</time>
      </trkpt>
      <trkpt lat="61.93321" lon="5.50098">
        <ele>1.547066</ele>
        <time>2020-07-16T10:23:19.355Z</time>
      </trkpt>
      <trkpt lat="61.93315" lon="5.50006">
        <ele>2.137291</ele>
        <time>2020-07-16T10:23:28.761Z</time>
      </trkpt>
      <trkpt lat="61.93274" lon="5.49772">
        <ele>3.737216</ele>
        <time>2020-07-16T10:23:56.405Z</time>
      </trkpt>
      <trkpt lat="61.93251" lon="5.49677">
        <ele>4.444699</ele>
        <time>2020-07-16T10:24:08.724Z</time>
      </trkpt>
      <trkpt lat="61.93208" lon="5.49546">
        <ele>5.505244</ele>
        <time>2020-07-16T10:24:25.735Z</time>
      </trkpt>
      <trkpt lat="61.9317" lon="5.49459">
        <ele>5.821875</ele>
        <time>2020-07-16T10:24:37.046Z</time>
      </trkpt>
      <trkpt lat="61.9309" lon="5.49299">
        <ele>5.166883</ele>
        <time>2020-07-16T10:24:55.304Z</time>
      </trkpt>
      <trkpt lat="61.93039" lon="5.49216">
        <ele>4.605422</ele>
        <time>2020-07-16T10:25:04.400Z</time>
      </trkpt>
      <trkpt lat="61.92979" lon="5.49127">
        <ele>3.396386</ele>
        <time>2020-07-16T10:25:14.764Z</time>
      </trkpt>
      <trkpt lat="61.92953" lon="5.49089">
        <ele>2.881178</ele>
        <time>2020-07-16T10:25:19.214Z</time>
      </trkpt>
      <trkpt lat="61.92882" lon="5.48964">
        <ele>1.719885</ele>
        <time>2020-07-16T10:25:33.225Z</time>
      </trkpt>
      <trkpt lat="61.92875" lon="5.48948">
        <ele>1.655874</ele>
        <time>2020-07-16T10:25:34.666Z</time>
      </trkpt>
      <trkpt lat="61.92861" lon="5.48918">
        <ele>1.533159</ele>
        <time>2020-07-16T10:25:38.033Z</time>
      </trkpt>
      <trkpt lat="61.92843" lon="5.48877">
        <ele>1.373786</ele>
        <time>2020-07-16T10:25:42.052Z</time>
      </trkpt>
      <trkpt lat="61.92833" lon="5.48849">
        <ele>1.270249</ele>
        <time>2020-07-16T10:25:45.070Z</time>
      </trkpt>
      <trkpt lat="61.92831" lon="5.48844">
        <ele>1.253024</ele>
        <time>2020-07-16T10:25:45.448Z</time>
      </trkpt>
      <trkpt lat="61.92811" lon="5.48777">
        <ele>1.023278</ele>
        <time>2020-07-16T10:25:51.635Z</time>
      </trkpt>
      <trkpt lat="61.92796" lon="5.48704">
        <ele>0.883064</ele>
        <time>2020-07-16T10:25:58.364Z</time>
      </trkpt>
      <trkpt lat="61.92783" lon="5.48587">
        <ele>1.346579</ele>
        <time>2020-07-16T10:26:10.053Z</time>
      </trkpt>
      <trkpt lat="61.92782" lon="5.48545">
        <ele>1.507132</ele>
        <time>2020-07-16T10:26:14.190Z</time>
      </trkpt>
      <trkpt lat="61.92781" lon="5.48518">
        <ele>1.611584</ele>
        <time>2020-07-16T10:26:17.016Z</time>
      </trkpt>
      <trkpt lat="61.92782" lon="5.48479">
        <ele>1.765368</ele>
        <time>2020-07-16T10:26:20.876Z</time>
      </trkpt>
      <trkpt lat="61.92783" lon="5.48464">
        <ele>1.820687</ele>
        <time>2020-07-16T10:26:22.269Z</time>
      </trkpt>
      <trkpt lat="61.92785" lon="5.48439">
        <ele>1.920428</ele>
        <time>2020-07-16T10:26:24.991Z</time>
      </trkpt>
      <trkpt lat="61.92794" lon="5.48358">
        <ele>2.244258</ele>
        <time>2020-07-16T10:26:33.133Z</time>
      </trkpt>
      <trkpt lat="61.92806" lon="5.48283">
        <ele>2.379151</ele>
        <time>2020-07-16T10:26:40.805Z</time>
      </trkpt>
      <trkpt lat="61.92812" lon="5.48248">
        <ele>2.420246</ele>
        <time>2020-07-16T10:26:44.300Z</time>
      </trkpt>
      <trkpt lat="61.9282" lon="5.48151">
        <ele>2.529885</ele>
        <time>2020-07-16T10:26:53.796Z</time>
      </trkpt>
      <trkpt lat="61.92817" lon="5.48064">
        <ele>2.626925</ele>
        <time>2020-07-16T10:27:01.335Z</time>
      </trkpt>
      <trkpt lat="61.928" lon="5.47973">
        <ele>2.734646</ele>
        <time>2020-07-16T10:27:09.041Z</time>
      </trkpt>
      <trkpt lat="61.92763" lon="5.47836">
        <ele>2.005016</ele>
        <time>2020-07-16T10:27:20.206Z</time>
      </trkpt>
      <trkpt lat="61.92749" lon="5.47719">
        <ele>1.444502</ele>
        <time>2020-07-16T10:27:28.816Z</time>
      </trkpt>
      <trkpt lat="61.92752" lon="5.47624">
        <ele>1.006435</ele>
        <time>2020-07-16T10:27:35.675Z</time>
      </trkpt>
      <trkpt lat="61.92787" lon="5.47326">
        <ele>0.741067</ele>
        <time>2020-07-16T10:28:00.052Z</time>
      </trkpt>
      <trkpt lat="61.92788" lon="5.47303">
        <ele>0.722912</ele>
        <time>2020-07-16T10:28:02.202Z</time>
      </trkpt>
      <trkpt lat="61.92788" lon="5.47268">
        <ele>0.696396</ele>
        <time>2020-07-16T10:28:05.375Z</time>
      </trkpt>
      <trkpt lat="61.92783" lon="5.47188">
        <ele>0.8804</ele>
        <time>2020-07-16T10:28:12.753Z</time>
      </trkpt>
      <trkpt lat="61.92737" lon="5.46849">
        <ele>2.172598</ele>
        <time>2020-07-16T10:28:47.264Z</time>
      </trkpt>
      <trkpt lat="61.92722" lon="5.46704">
        <ele>2.552458</ele>
        <time>2020-07-16T10:29:01.912Z</time>
      </trkpt>
      <trkpt lat="61.9272" lon="5.46652">
        <ele>2.686412</ele>
        <time>2020-07-16T10:29:06.833Z</time>
      </trkpt>
      <trkpt lat="61.92719" lon="5.4663">
        <ele>2.741892</ele>
        <time>2020-07-16T10:29:09.106Z</time>
      </trkpt>
      <trkpt lat="61.92722" lon="5.46314">
        <ele>2.881079</ele>
        <time>2020-07-16T10:29:35.215Z</time>
      </trkpt>
      <trkpt lat="61.9272" lon="5.46275">
        <ele>2.837149</ele>
        <time>2020-07-16T10:29:38.061Z</time>
      </trkpt>
      <trkpt lat="61.92713" lon="5.4619">
        <ele>2.741323</ele>
        <time>2020-07-16T10:29:45.034Z</time>
      </trkpt>
      <trkpt lat="61.92705" lon="5.46091">
        <ele>2.967376</ele>
        <time>2020-07-16T10:29:53.241Z</time>
      </trkpt>
      <trkpt lat="61.92704" lon="5.46058">
        <ele>3.351424</ele>
        <time>2020-07-16T10:29:55.527Z</time>
      </trkpt>
      <trkpt lat="61.92705" lon="5.46032">
        <ele>3.651702</ele>
        <time>2020-07-16T10:29:58.433Z</time>
      </trkpt>
      <trkpt lat="61.9271" lon="5.45973">
        <ele>4.355133</ele>
        <time>2020-07-16T10:30:03.382Z</time>
      </trkpt>
      <trkpt lat="61.92722" lon="5.45911">
        <ele>5.131058</ele>
        <time>2020-07-16T10:30:09.363Z</time>
      </trkpt>
      <trkpt lat="61.92727" lon="5.45893">
        <ele>5.368865</ele>
        <time>2020-07-16T10:30:12.371Z</time>
      </trkpt>
      <trkpt lat="61.92741" lon="5.45846">
        <ele>6.030531</ele>
        <time>2020-07-16T10:30:19.282Z</time>
      </trkpt>
      <trkpt lat="61.92782" lon="5.45772">
        <ele>8.177878</ele>
        <time>2020-07-16T10:30:39.310Z</time>
      </trkpt>
      <trkpt lat="61.92838" lon="5.45731">
        <ele>14.470752</ele>
        <time>2020-07-16T10:31:06.176Z</time>
      </trkpt>
      <trkpt lat="61.92974" lon="5.45713">
        <ele>28.635378</ele>
        <time>2020-07-16T10:32:26.668Z</time>
      </trkpt>
      <trkpt lat="61.93061" lon="5.45753">
        <ele>37.114136</ele>
        <time>2020-07-16T10:33:16.945Z</time>
      </trkpt>
      <trkpt lat="61.93117" lon="5.45755">
        <ele>42.350221</ele>
        <time>2020-07-16T10:33:36.445Z</time>
      </trkpt>
      <trkpt lat="61.93134" lon="5.45746">
        <ele>43.305712</ele>
        <time>2020-07-16T10:33:44.306Z</time>
      </trkpt>
      <trkpt lat="61.9315" lon="5.45737">
        <ele>43.400652</ele>
        <time>2020-07-16T10:33:46.802Z</time>
      </trkpt>
      <trkpt lat="61.93193" lon="5.45708">
        <ele>43.670723</ele>
        <time>2020-07-16T10:33:59.105Z</time>
      </trkpt>
      <trkpt lat="61.93229" lon="5.45696">
        <ele>43.893757</ele>
        <time>2020-07-16T10:34:06.004Z</time>
      </trkpt>
      <trkpt lat="61.93263" lon="5.45701">
        <ele>44.094005</ele>
        <time>2020-07-16T10:34:10.745Z</time>
      </trkpt>
      <trkpt lat="61.93286" lon="5.45715">
        <ele>44.237032</ele>
        <time>2020-07-16T10:34:13.733Z</time>
      </trkpt>
      <trkpt lat="61.93295" lon="5.45721">
        <ele>44.293472</ele>
        <time>2020-07-16T10:34:14.975Z</time>
      </trkpt>
      <trkpt lat="61.93308" lon="5.45733">
        <ele>44.190598</ele>
        <time>2020-07-16T10:34:17.025Z</time>
      </trkpt>
      <trkpt lat="61.93332" lon="5.45765">
        <ele>43.692033</ele>
        <time>2020-07-16T10:34:21.312Z</time>
      </trkpt>
      <trkpt lat="61.93369" lon="5.45837">
        <ele>42.821861</ele>
        <time>2020-07-16T10:34:28.488Z</time>
      </trkpt>
      <trkpt lat="61.93405" lon="5.45904">
        <ele>41.996277</ele>
        <time>2020-07-16T10:34:35.620Z</time>
      </trkpt>
      <trkpt lat="61.93433" lon="5.45961">
        <ele>41.316992</ele>
        <time>2020-07-16T10:34:41.387Z</time>
      </trkpt>
      <trkpt lat="61.93454" lon="5.46001">
        <ele>40.499235</ele>
        <time>2020-07-16T10:34:45.388Z</time>
      </trkpt>
      <trkpt lat="61.9348" lon="5.4605">
        <ele>39.348044</ele>
        <time>2020-07-16T10:34:50.417Z</time>
      </trkpt>
      <trkpt lat="61.93501" lon="5.4609">
        <ele>38.425452</ele>
        <time>2020-07-16T10:34:54.239Z</time>
      </trkpt>
      <trkpt lat="61.9356" lon="5.46206">
        <ele>35.769696</ele>
        <time>2020-07-16T10:35:04.387Z</time>
      </trkpt>
      <trkpt lat="61.936" lon="5.46266">
        <ele>33.070461</ele>
        <time>2020-07-16T10:35:10.287Z</time>
      </trkpt>
      <trkpt lat="61.93605" lon="5.46271">
        <ele>32.688726</ele>
        <time>2020-07-16T10:35:10.935Z</time>
      </trkpt>
      <trkpt lat="61.93635" lon="5.463">
        <ele>30.604364</ele>
        <time>2020-07-16T10:35:14.701Z</time>
      </trkpt>
      <trkpt lat="61.93661" lon="5.46317">
        <ele>28.790541</ele>
        <time>2020-07-16T10:35:17.968Z</time>
      </trkpt>
      <trkpt lat="61.93677" lon="5.46325">
        <ele>27.770041</ele>
        <time>2020-07-16T10:35:19.672Z</time>
      </trkpt>
      <trkpt lat="61.93713" lon="5.46332">
        <ele>25.368046</ele>
        <time>2020-07-16T10:35:23.892Z</time>
      </trkpt>
      <trkpt lat="61.93767" lon="5.46323">
        <ele>22.412614</ele>
        <time>2020-07-16T10:35:30.116Z</time>
      </trkpt>
      <trkpt lat="61.93779" lon="5.46316">
        <ele>21.830937</ele>
        <time>2020-07-16T10:35:31.540Z</time>
      </trkpt>
      <trkpt lat="61.93797" lon="5.46306">
        <ele>21.022918</ele>
        <time>2020-07-16T10:35:33.774Z</time>
      </trkpt>
      <trkpt lat="61.93839" lon="5.46273">
        <ele>18.984279</ele>
        <time>2020-07-16T10:35:39.286Z</time>
      </trkpt>
      <trkpt lat="61.93873" lon="5.46241">
        <ele>17.321874</ele>
        <time>2020-07-16T10:35:44.250Z</time>
      </trkpt>
      <trkpt lat="61.93878" lon="5.46235">
        <ele>17.078607</ele>
        <time>2020-07-16T10:35:44.984Z</time>
      </trkpt>
      <trkpt lat="61.93915" lon="5.46201">
        <ele>15.382174</ele>
        <time>2020-07-16T10:35:50.321Z</time>
      </trkpt>
      <trkpt lat="61.93923" lon="5.46193">
        <ele>15.200167</ele>
        <time>2020-07-16T10:35:51.634Z</time>
      </trkpt>
      <trkpt lat="61.93939" lon="5.46176">
        <ele>14.806306</ele>
        <time>2020-07-16T10:35:54.031Z</time>
      </trkpt>
      <trkpt lat="61.93961" lon="5.46143">
        <ele>14.214222</ele>
        <time>2020-07-16T10:35:58.345Z</time>
      </trkpt>
      <trkpt lat="61.9397" lon="5.46127">
        <ele>13.968168</ele>
        <time>2020-07-16T10:35:59.882Z</time>
      </trkpt>
      <trkpt lat="61.93971" lon="5.46129">
        <ele>13.947779</ele>
        <time>2020-07-16T10:36:00.184Z</time>
      </trkpt>
      <trkpt lat="61.93973" lon="5.46143">
        <ele>13.792023</ele>
        <time>2020-07-16T10:36:01.403Z</time>
      </trkpt>
      <trkpt lat="61.93976" lon="5.46141">
        <ele>13.734277</ele>
        <time>2020-07-16T10:36:01.862Z</time>
      </trkpt>
      <trkpt lat="61.93992" lon="5.46108">
        <ele>13.252573</ele>
        <time>2020-07-16T10:36:04.997Z</time>
      </trkpt>
      <trkpt lat="61.94005" lon="5.46064">
        <ele>12.729887</ele>
        <time>2020-07-16T10:36:09.192Z</time>
      </trkpt>
      <trkpt lat="61.94009" lon="5.46048">
        <ele>12.53944</ele>
        <time>2020-07-16T10:36:10.297Z</time>
      </trkpt>
      <trkpt lat="61.94021" lon="5.45991">
        <ele>11.901648</ele>
        <time>2020-07-16T10:36:14.563Z</time>
      </trkpt>
      <trkpt lat="61.94042" lon="5.45802">
        <ele>10.839962</ele>
        <time>2020-07-16T10:36:27.573Z</time>
      </trkpt>
      <trkpt lat="61.94055" lon="5.45739">
        <ele>10.520837</ele>
        <time>2020-07-16T10:36:32.270Z</time>
      </trkpt>
      <trkpt lat="61.94063" lon="5.4571">
        <ele>10.364466</ele>
        <time>2020-07-16T10:36:34.671Z</time>
      </trkpt>
      <trkpt lat="61.94072" lon="5.45681">
        <ele>10.198661</ele>
        <time>2020-07-16T10:36:37.807Z</time>
      </trkpt>
      <trkpt lat="61.9408" lon="5.45659">
        <ele>10.071435</ele>
        <time>2020-07-16T10:36:40.010Z</time>
      </trkpt>
      <trkpt lat="61.94086" lon="5.45641">
        <ele>9.968097</ele>
        <time>2020-07-16T10:36:42.862Z</time>
      </trkpt>
      <trkpt lat="61.94158" lon="5.45418">
        <ele>14.092475</ele>
        <time>2020-07-16T10:37:19.628Z</time>
      </trkpt>
      <trkpt lat="61.94165" lon="5.45398">
        <ele>14.527711</ele>
        <time>2020-07-16T10:37:24.528Z</time>
      </trkpt>
      <trkpt lat="61.9416" lon="5.45388">
        <ele>14.802643</ele>
        <time>2020-07-16T10:37:26.734Z</time>
      </trkpt>
      <trkpt lat="61.94163" lon="5.45379">
        <ele>15.010416</ele>
        <time>2020-07-16T10:37:29.141Z</time>
      </trkpt>
      <trkpt lat="61.94177" lon="5.45333">
        <ele>15.971961</ele>
        <time>2020-07-16T10:37:38.039Z</time>
      </trkpt>
      <trkpt lat="61.94183" lon="5.45313">
        <ele>16.388793</ele>
        <time>2020-07-16T10:37:41.970Z</time>
      </trkpt>
      <trkpt lat="61.94195" lon="5.45259">
        <ele>17.520281</ele>
        <time>2020-07-16T10:37:50.838Z</time>
      </trkpt>
      <trkpt lat="61.94199" lon="5.45227">
        <ele>18.154636</ele>
        <time>2020-07-16T10:37:56.283Z</time>
      </trkpt>
      <trkpt lat="61.94204" lon="5.45224">
        <ele>18.363682</ele>
        <time>2020-07-16T10:37:58.388Z</time>
      </trkpt>
      <trkpt lat="61.9422" lon="5.4522">
        <ele>19.030973</ele>
        <time>2020-07-16T10:38:03.000Z</time>
      </trkpt>
      <trkpt lat="61.94232" lon="5.45226">
        <ele>19.500046</ele>
        <time>2020-07-16T10:38:07.251Z</time>
      </trkpt>
      <trkpt lat="61.9424" lon="5.45236">
        <ele>19.900252</ele>
        <time>2020-07-16T10:38:10.757Z</time>
      </trkpt>
      <trkpt lat="61.94261" lon="5.4528">
        <ele>21.074025</ele>
        <time>2020-07-16T10:38:19.703Z</time>
      </trkpt>
      <trkpt lat="61.9428" lon="5.45333">
        <ele>22.346967</ele>
        <time>2020-07-16T10:38:28.762Z</time>
      </trkpt>
      <trkpt lat="61.94294" lon="5.45371">
        <ele>23.280545</ele>
        <time>2020-07-16T10:38:34.677Z</time>
      </trkpt>
      <trkpt lat="61.9433" lon="5.45467">
        <ele>25.119911</ele>
        <time>2020-07-16T10:38:50.321Z</time>
      </trkpt>
      <trkpt lat="61.94401" lon="5.45625">
        <ele>28.133431</ele>
        <time>2020-07-16T10:39:16.236Z</time>
      </trkpt>
      <trkpt lat="61.94482" lon="5.45752">
        <ele>32.532394</ele>
        <time>2020-07-16T10:39:47.836Z</time>
      </trkpt>
      <trkpt lat="61.94515" lon="5.4582">
        <ele>34.833669</ele>
        <time>2020-07-16T10:40:02.696Z</time>
      </trkpt>
      <trkpt lat="61.94525" lon="5.45841">
        <ele>35.564008</ele>
        <time>2020-07-16T10:40:08.379Z</time>
      </trkpt>
      <trkpt lat="61.94587" lon="5.45908">
        <ele>39.405142</ele>
        <time>2020-07-16T10:40:34.516Z</time>
      </trkpt>
      <trkpt lat="61.94606" lon="5.45941">
        <ele>41.109863</ele>
        <time>2020-07-16T10:40:43.993Z</time>
      </trkpt>
      <trkpt lat="61.94632" lon="5.46">
        <ele>43.726815</ele>
        <time>2020-07-16T10:41:00.576Z</time>
      </trkpt>
      <trkpt lat="61.94638" lon="5.46013">
        <ele>44.318918</ele>
        <time>2020-07-16T10:41:04.831Z</time>
      </trkpt>
      <trkpt lat="61.9468" lon="5.4611">
        <ele>48.615097</ele>
        <time>2020-07-16T10:41:29.250Z</time>
      </trkpt>
      <trkpt lat="61.94698" lon="5.46163">
        <ele>50.735363</ele>
        <time>2020-07-16T10:41:40.947Z</time>
      </trkpt>
      <trkpt lat="61.94704" lon="5.46187">
        <ele>51.491496</ele>
        <time>2020-07-16T10:41:46.449Z</time>
      </trkpt>
      <trkpt lat="61.94708" lon="5.46212">
        <ele>52.247261</ele>
        <time>2020-07-16T10:41:51.015Z</time>
      </trkpt>
      <trkpt lat="61.94715" lon="5.463">
        <ele>54.784791</ele>
        <time>2020-07-16T10:42:06.714Z</time>
      </trkpt>
      <trkpt lat="61.94716" lon="5.46408">
        <ele>57.845295</ele>
        <time>2020-07-16T10:42:25.978Z</time>
      </trkpt>
      <trkpt lat="61.94715" lon="5.46444">
        <ele>58.871269</ele>
        <time>2020-07-16T10:42:32.166Z</time>
      </trkpt>
      <trkpt lat="61.94714" lon="5.46475">
        <ele>59.739139</ele>
        <time>2020-07-16T10:42:37.064Z</time>
      </trkpt>
      <trkpt lat="61.94707" lon="5.46547">
        <ele>61.813521</ele>
        <time>2020-07-16T10:42:49.554Z</time>
      </trkpt>
      <trkpt lat="61.94703" lon="5.46593">
        <ele>63.086441</ele>
        <time>2020-07-16T10:42:57.253Z</time>
      </trkpt>
      <trkpt lat="61.94704" lon="5.46679">
        <ele>65.381817</ele>
        <time>2020-07-16T10:43:11.237Z</time>
      </trkpt>
      <trkpt lat="61.94716" lon="5.46772">
        <ele>67.981216</ele>
        <time>2020-07-16T10:43:28.217Z</time>
      </trkpt>
      <trkpt lat="61.94773" lon="5.46978">
        <ele>73.775877</ele>
        <time>2020-07-16T10:44:09.345Z</time>
      </trkpt>
      <trkpt lat="61.94776" lon="5.46999">
        <ele>74.221293</ele>
        <time>2020-07-16T10:44:13.965Z</time>
      </trkpt>
      <trkpt lat="61.94778" lon="5.47022">
        <ele>74.701765</ele>
        <time>2020-07-16T10:44:16.640Z</time>
      </trkpt>
      <trkpt lat="61.94784" lon="5.47127">
        <ele>76.890897</ele>
        <time>2020-07-16T10:44:31.193Z</time>
      </trkpt>
      <trkpt lat="61.94806" lon="5.47206">
        <ele>78.793171</ele>
        <time>2020-07-16T10:44:45.023Z</time>
      </trkpt>
      <trkpt lat="61.94815" lon="5.47233">
        <ele>79.455446</ele>
        <time>2020-07-16T10:44:48.982Z</time>
      </trkpt>
      <trkpt lat="61.94819" lon="5.47247">
        <ele>79.795079</ele>
        <time>2020-07-16T10:44:50.878Z</time>
      </trkpt>
      <trkpt lat="61.94855" lon="5.47417">
        <ele>83.472524</ele>
        <time>2020-07-16T10:45:15.326Z</time>
      </trkpt>
      <trkpt lat="61.94859" lon="5.47433">
        <ele>83.829074</ele>
        <time>2020-07-16T10:45:18.440Z</time>
      </trkpt>
      <trkpt lat="61.94865" lon="5.47459">
        <ele>84.401832</ele>
        <time>2020-07-16T10:45:22.688Z</time>
      </trkpt>
      <trkpt lat="61.94868" lon="5.47478">
        <ele>84.796567</ele>
        <time>2020-07-16T10:45:25.405Z</time>
      </trkpt>
      <trkpt lat="61.94868" lon="5.47492">
        <ele>85.067085</ele>
        <time>2020-07-16T10:45:27.439Z</time>
      </trkpt>
      <trkpt lat="61.94869" lon="5.47572">
        <ele>86.665408</ele>
        <time>2020-07-16T10:45:40.422Z</time>
      </trkpt>
      <trkpt lat="61.94873" lon="5.47602">
        <ele>87.302981</ele>
        <time>2020-07-16T10:45:45.884Z</time>
      </trkpt>
      <trkpt lat="61.94875" lon="5.47612">
        <ele>87.635839</ele>
        <time>2020-07-16T10:45:47.626Z</time>
      </trkpt>
      <trkpt lat="61.9488" lon="5.47635">
        <ele>88.407538</ele>
        <time>2020-07-16T10:45:51.448Z</time>
      </trkpt>
      <trkpt lat="61.94886" lon="5.47663">
        <ele>89.352561</ele>
        <time>2020-07-16T10:45:57.653Z</time>
      </trkpt>
      <trkpt lat="61.94902" lon="5.47763">
        <ele>92.62903</ele>
        <time>2020-07-16T10:46:16.896Z</time>
      </trkpt>
      <trkpt lat="61.94952" lon="5.47852">
        <ele>96.893509</ele>
        <time>2020-07-16T10:46:43.224Z</time>
      </trkpt>
      <trkpt lat="61.94995" lon="5.47993">
        <ele>102.243295</ele>
        <time>2020-07-16T10:47:14.832Z</time>
      </trkpt>
      <trkpt lat="61.95022" lon="5.48058">
        <ele>105.066289</ele>
        <time>2020-07-16T10:47:30.851Z</time>
      </trkpt>
      <trkpt lat="61.95067" lon="5.48124">
        <ele>108.80804</ele>
        <time>2020-07-16T10:47:52.369Z</time>
      </trkpt>
      <trkpt lat="61.95187" lon="5.48168">
        <ele>117.967442</ele>
        <time>2020-07-16T10:48:42.085Z</time>
      </trkpt>
      <trkpt lat="61.95234" lon="5.48207">
        <ele>121.840277</ele>
        <time>2020-07-16T10:49:03.124Z</time>
      </trkpt>
      <trkpt lat="61.9531" lon="5.48331">
        <ele>130.506164</ele>
        <time>2020-07-16T10:49:47.521Z</time>
      </trkpt>
      <trkpt lat="61.9534" lon="5.48412">
        <ele>135.378181</ele>
        <time>2020-07-16T10:50:12.773Z</time>
      </trkpt>
      <trkpt lat="61.95401" lon="5.48517">
        <ele>143.352449</ele>
        <time>2020-07-16T10:50:54.178Z</time>
      </trkpt>
      <trkpt lat="61.95406" lon="5.48526">
        <ele>143.925162</ele>
        <time>2020-07-16T10:50:59.464Z</time>
      </trkpt>
      <trkpt lat="61.95409" lon="5.48534">
        <ele>144.251318</ele>
        <time>2020-07-16T10:51:01.435Z</time>
      </trkpt>
      <trkpt lat="61.9541" lon="5.48539">
        <ele>144.462562</ele>
        <time>2020-07-16T10:51:02.794Z</time>
      </trkpt>
      <trkpt lat="61.95418" lon="5.48564">
        <ele>145.499942</ele>
        <time>2020-07-16T10:51:08.710Z</time>
      </trkpt>
      <trkpt lat="61.95428" lon="5.48608">
        <ele>147.252597</ele>
        <time>2020-07-16T10:51:20.840Z</time>
      </trkpt>
      <trkpt lat="61.95444" lon="5.48677">
        <ele>149.935032</ele>
        <time>2020-07-16T10:51:37.246Z</time>
      </trkpt>
      <trkpt lat="61.95466" lon="5.48768">
        <ele>153.530138</ele>
        <time>2020-07-16T10:51:56.863Z</time>
      </trkpt>
      <trkpt lat="61.95505" lon="5.4894">
        <ele>157.729827</ele>
        <time>2020-07-16T10:52:25.067Z</time>
      </trkpt>
      <trkpt lat="61.95538" lon="5.49027">
        <ele>158.559072</ele>
        <time>2020-07-16T10:52:36.257Z</time>
      </trkpt>
      <trkpt lat="61.95718" lon="5.4929">
        <ele>160.137059</ele>
        <time>2020-07-16T10:53:15.865Z</time>
      </trkpt>
      <trkpt lat="61.95775" lon="5.49351">
        <ele>160.343676</ele>
        <time>2020-07-16T10:53:28.000Z</time>
      </trkpt>
      <trkpt lat="61.95926" lon="5.49407">
        <ele>161.393878</ele>
        <time>2020-07-16T10:53:59.084Z</time>
      </trkpt>
      <trkpt lat="61.9596" lon="5.49426">
        <ele>161.511274</ele>
        <time>2020-07-16T10:54:06.122Z</time>
      </trkpt>
      <trkpt lat="61.96007" lon="5.49477">
        <ele>161.620889</ele>
        <time>2020-07-16T10:54:16.534Z</time>
      </trkpt>
      <trkpt lat="61.96014" lon="5.49489">
        <ele>161.639651</ele>
        <time>2020-07-16T10:54:18.400Z</time>
      </trkpt>
      <trkpt lat="61.96028" lon="5.49507">
        <ele>161.673693</ele>
        <time>2020-07-16T10:54:21.088Z</time>
      </trkpt>
      <trkpt lat="61.96081" lon="5.49616">
        <ele>161.825393</ele>
        <time>2020-07-16T10:54:33.951Z</time>
      </trkpt>
      <trkpt lat="61.96092" lon="5.49653">
        <ele>161.800257</ele>
        <time>2020-07-16T10:54:37.859Z</time>
      </trkpt>
      <trkpt lat="61.96098" lon="5.49671">
        <ele>161.783787</ele>
        <time>2020-07-16T10:54:39.360Z</time>
      </trkpt>
      <trkpt lat="61.96121" lon="5.4978">
        <ele>161.693828</ele>
        <time>2020-07-16T10:54:49.047Z</time>
      </trkpt>
      <trkpt lat="61.96131" lon="5.49863">
        <ele>161.629369</ele>
        <time>2020-07-16T10:54:56.109Z</time>
      </trkpt>
      <trkpt lat="61.96143" lon="5.50081">
        <ele>161.494878</ele>
        <time>2020-07-16T10:55:14.104Z</time>
      </trkpt>
      <trkpt lat="61.9617" lon="5.50231">
        <ele>161.421522</ele>
        <time>2020-07-16T10:55:27.479Z</time>
      </trkpt>
      <trkpt lat="61.96175" lon="5.50253">
        <ele>161.410189</ele>
        <time>2020-07-16T10:55:30.014Z</time>
      </trkpt>
      <trkpt lat="61.96188" lon="5.50296">
        <ele>161.386694</ele>
        <time>2020-07-16T10:55:33.876Z</time>
      </trkpt>
      <trkpt lat="61.96217" lon="5.50369">
        <ele>161.247066</ele>
        <time>2020-07-16T10:55:41.959Z</time>
      </trkpt>
      <trkpt lat="61.96266" lon="5.50452">
        <ele>160.942686</ele>
        <time>2020-07-16T10:55:52.175Z</time>
      </trkpt>
      <trkpt lat="61.96434" lon="5.50607">
        <ele>159.915447</ele>
        <time>2020-07-16T10:56:21.685Z</time>
      </trkpt>
      <trkpt lat="61.96529" lon="5.5069">
        <ele>159.328377</ele>
        <time>2020-07-16T10:56:38.266Z</time>
      </trkpt>
      <trkpt lat="61.96569" lon="5.50725">
        <ele>159.293483</ele>
        <time>2020-07-16T10:56:45.586Z</time>
      </trkpt>
      <trkpt lat="61.96618" lon="5.50768">
        <ele>159.251206</ele>
        <time>2020-07-16T10:56:54.851Z</time>
      </trkpt>
      <trkpt lat="61.96627" lon="5.50775">
        <ele>159.243883</ele>
        <time>2020-07-16T10:56:56.370Z</time>
      </trkpt>
      <trkpt lat="61.9664" lon="5.50786">
        <ele>159.232084</ele>
        <time>2020-07-16T10:56:59.159Z</time>
      </trkpt>
      <trkpt lat="61.96647" lon="5.50794">
        <ele>159.22603</ele>
        <time>2020-07-16T10:57:00.542Z</time>
      </trkpt>
      <trkpt lat="61.96659" lon="5.50802">
        <ele>159.215786</ele>
        <time>2020-07-16T10:57:02.731Z</time>
      </trkpt>
      <trkpt lat="61.96691" lon="5.50822">
        <ele>159.33237</ele>
        <time>2020-07-16T10:57:08.993Z</time>
      </trkpt>
      <trkpt lat="61.96709" lon="5.50831">
        <ele>159.68076</ele>
        <time>2020-07-16T10:57:12.662Z</time>
      </trkpt>
      <trkpt lat="61.96801" lon="5.50867">
        <ele>161.469907</ele>
        <time>2020-07-16T10:57:31.912Z</time>
      </trkpt>
      <trkpt lat="61.96848" lon="5.50895">
        <ele>162.391471</ele>
        <time>2020-07-16T10:57:46.209Z</time>
      </trkpt>
      <trkpt lat="61.96928" lon="5.50985">
        <ele>167.375546</ele>
        <time>2020-07-16T10:58:16.324Z</time>
      </trkpt>
      <trkpt lat="61.96938" lon="5.50997">
        <ele>168.098736</ele>
        <time>2020-07-16T10:58:20.263Z</time>
      </trkpt>
      <trkpt lat="61.9695" lon="5.5101">
        <ele>168.887555</ele>
        <time>2020-07-16T10:58:26.243Z</time>
      </trkpt>
      <trkpt lat="61.96974" lon="5.51031">
        <ele>170.483058</ele>
        <time>2020-07-16T10:58:35.712Z</time>
      </trkpt>
      <trkpt lat="61.9715" lon="5.51111">
        <ele>184.059543</ele>
        <time>2020-07-16T10:59:55.005Z</time>
      </trkpt>
      <trkpt lat="61.97187" lon="5.51137">
        <ele>187.197476</ele>
        <time>2020-07-16T11:00:11.491Z</time>
      </trkpt>
      <trkpt lat="61.97252" lon="5.51213">
        <ele>193.551499</ele>
        <time>2020-07-16T11:00:44.752Z</time>
      </trkpt>
      <trkpt lat="61.97332" lon="5.51368">
        <ele>202.759751</ele>
        <time>2020-07-16T11:01:35.196Z</time>
      </trkpt>
      <trkpt lat="61.97354" lon="5.51416">
        <ele>205.030129</ele>
        <time>2020-07-16T11:01:49.073Z</time>
      </trkpt>
      <trkpt lat="61.97381" lon="5.51478">
        <ele>207.692992</ele>
        <time>2020-07-16T11:02:06.172Z</time>
      </trkpt>
      <trkpt lat="61.97412" lon="5.51529">
        <ele>210.244262</ele>
        <time>2020-07-16T11:02:21.963Z</time>
      </trkpt>
      <trkpt lat="61.97443" lon="5.51558">
        <ele>212.5139</ele>
        <time>2020-07-16T11:02:35.166Z</time>
      </trkpt>
      <trkpt lat="61.97477" lon="5.51572">
        <ele>214.817404</ele>
        <time>2020-07-16T11:02:47.825Z</time>
      </trkpt>
      <trkpt lat="61.97504" lon="5.51571">
        <ele>215.902207</ele>
        <time>2020-07-16T11:02:55.694Z</time>
      </trkpt>
      <trkpt lat="61.97516" lon="5.51566">
        <ele>216.194267</ele>
        <time>2020-07-16T11:02:59.381Z</time>
      </trkpt>
      <trkpt lat="61.9753" lon="5.51558">
        <ele>216.547537</ele>
        <time>2020-07-16T11:03:02.857Z</time>
      </trkpt>
      <trkpt lat="61.97561" lon="5.51529">
        <ele>217.397292</ele>
        <time>2020-07-16T11:03:11.490Z</time>
      </trkpt>
      <trkpt lat="61.97581" lon="5.51506">
        <ele>217.948894</ele>
        <time>2020-07-16T11:03:17.140Z</time>
      </trkpt>
      <trkpt lat="61.97591" lon="5.51495">
        <ele>218.221762</ele>
        <time>2020-07-16T11:03:19.658Z</time>
      </trkpt>
      <trkpt lat="61.97661" lon="5.5139">
        <ele>220.224408</ele>
        <time>2020-07-16T11:03:39.309Z</time>
      </trkpt>
      <trkpt lat="61.9768" lon="5.51339">
        <ele>220.776573</ele>
        <time>2020-07-16T11:03:45.805Z</time>
      </trkpt>
      <trkpt lat="61.97689" lon="5.51262">
        <ele>221.462079</ele>
        <time>2020-07-16T11:03:54.154Z</time>
      </trkpt>
      <trkpt lat="61.97686" lon="5.51138">
        <ele>222.533683</ele>
        <time>2020-07-16T11:04:07.769Z</time>
      </trkpt>
      <trkpt lat="61.97695" lon="5.51091">
        <ele>222.960774</ele>
        <time>2020-07-16T11:04:13.497Z</time>
      </trkpt>
      <trkpt lat="61.97752" lon="5.51013">
        <ele>225.438496</ele>
        <time>2020-07-16T11:04:32.417Z</time>
      </trkpt>
      <trkpt lat="61.97798" lon="5.50912">
        <ele>228.116953</ele>
        <time>2020-07-16T11:04:51.814Z</time>
      </trkpt>
      <trkpt lat="61.97833" lon="5.50838">
        <ele>230.090994</ele>
        <time>2020-07-16T11:05:07.758Z</time>
      </trkpt>
      <trkpt lat="61.9784" lon="5.50823">
        <ele>230.493293</ele>
        <time>2020-07-16T11:05:12.158Z</time>
      </trkpt>
      <trkpt lat="61.97904" lon="5.50638">
        <ele>236.684078</ele>
        <time>2020-07-16T11:05:55.711Z</time>
      </trkpt>
      <trkpt lat="61.97909" lon="5.50618">
        <ele>237.301926</ele>
        <time>2020-07-16T11:05:59.564Z</time>
      </trkpt>
      <trkpt lat="61.97925" lon="5.50554">
        <ele>239.247547</ele>
        <time>2020-07-16T11:06:11.998Z</time>
      </trkpt>
      <trkpt lat="61.97941" lon="5.50502">
        <ele>240.734335</ele>
        <time>2020-07-16T11:06:20.808Z</time>
      </trkpt>
      <trkpt lat="61.97961" lon="5.50468">
        <ele>240.520237</ele>
        <time>2020-07-16T11:06:27.773Z</time>
      </trkpt>
      <trkpt lat="61.97979" lon="5.50455">
        <ele>240.355988</ele>
        <time>2020-07-16T11:06:32.708Z</time>
      </trkpt>
      <trkpt lat="61.98008" lon="5.50458">
        <ele>240.114549</ele>
        <time>2020-07-16T11:06:39.031Z</time>
      </trkpt>
      <trkpt lat="61.98056" lon="5.50486">
        <ele>239.700937</ele>
        <time>2020-07-16T11:06:46.733Z</time>
      </trkpt>
      <trkpt lat="61.98081" lon="5.5051">
        <ele>239.46723</ele>
        <time>2020-07-16T11:06:50.115Z</time>
      </trkpt>
      <trkpt lat="61.98182" lon="5.50642">
        <ele>235.898593</ele>
        <time>2020-07-16T11:07:03.947Z</time>
      </trkpt>
      <trkpt lat="61.98248" lon="5.50713">
        <ele>233.186415</ele>
        <time>2020-07-16T11:07:13.823Z</time>
      </trkpt>
      <trkpt lat="61.98277" lon="5.50727">
        <ele>233.568417</ele>
        <time>2020-07-16T11:07:18.784Z</time>
      </trkpt>
      <trkpt lat="61.98282" lon="5.50726">
        <ele>233.882723</ele>
        <time>2020-07-16T11:07:19.569Z</time>
      </trkpt>
      <trkpt lat="61.9829" lon="5.50722">
        <ele>234.328425</ele>
        <time>2020-07-16T11:07:22.705Z</time>
      </trkpt>
      <trkpt lat="61.98307" lon="5.50695">
        <ele>235.526518</ele>
        <time>2020-07-16T11:07:28.053Z</time>
      </trkpt>
      <trkpt lat="61.98312" lon="5.50664">
        <ele>236.390607</ele>
        <time>2020-07-16T11:07:35.763Z</time>
      </trkpt>
      <trkpt lat="61.98306" lon="5.5042">
        <ele>242.780082</ele>
        <time>2020-07-16T11:08:25.201Z</time>
      </trkpt>
      <trkpt lat="61.98306" lon="5.50384">
        <ele>243.485294</ele>
        <time>2020-07-16T11:08:33.859Z</time>
      </trkpt>
      <trkpt lat="61.98306" lon="5.50374">
        <ele>243.684982</ele>
        <time>2020-07-16T11:08:36.947Z</time>
      </trkpt>
      <trkpt lat="61.9831" lon="5.50321">
        <ele>244.740851</ele>
        <time>2020-07-16T11:08:44.288Z</time>
      </trkpt>
      <trkpt lat="61.98321" lon="5.50261">
        <ele>246.016503</ele>
        <time>2020-07-16T11:08:54.043Z</time>
      </trkpt>
      <trkpt lat="61.98326" lon="5.5024">
        <ele>246.487681</ele>
        <time>2020-07-16T11:08:59.738Z</time>
      </trkpt>
      <trkpt lat="61.98336" lon="5.50214">
        <ele>247.157013</ele>
        <time>2020-07-16T11:09:03.363Z</time>
      </trkpt>
      <trkpt lat="61.9836" lon="5.50172">
        <ele>248.475296</ele>
        <time>2020-07-16T11:09:13.832Z</time>
      </trkpt>
      <trkpt lat="61.98401" lon="5.50141">
        <ele>250.264673</ele>
        <time>2020-07-16T11:09:23.743Z</time>
      </trkpt>
      <trkpt lat="61.98427" lon="5.5014">
        <ele>249.795482</ele>
        <time>2020-07-16T11:09:27.925Z</time>
      </trkpt>
      <trkpt lat="61.98488" lon="5.5016">
        <ele>248.520678</ele>
        <time>2020-07-16T11:09:36.067Z</time>
      </trkpt>
      <trkpt lat="61.98559" lon="5.5012">
        <ele>247.018788</ele>
        <time>2020-07-16T11:09:45.887Z</time>
      </trkpt>
      <trkpt lat="61.98616" lon="5.50111">
        <ele>245.734006</ele>
        <time>2020-07-16T11:09:53.601Z</time>
      </trkpt>
      <trkpt lat="61.98632" lon="5.50118">
        <ele>245.367844</ele>
        <time>2020-07-16T11:09:55.716Z</time>
      </trkpt>
      <trkpt lat="61.98785" lon="5.5035">
        <ele>241.365328</ele>
        <time>2020-07-16T11:10:21.779Z</time>
      </trkpt>
      <trkpt lat="61.98861" lon="5.50504">
        <ele>239.605561</ele>
        <time>2020-07-16T11:10:37.267Z</time>
      </trkpt>
      <trkpt lat="61.98961" lon="5.5062">
        <ele>238.580481</ele>
        <time>2020-07-16T11:10:55.230Z</time>
      </trkpt>
      <trkpt lat="61.99092" lon="5.50859">
        <ele>237.369066</ele>
        <time>2020-07-16T11:11:23.178Z</time>
      </trkpt>
      <trkpt lat="61.99132" lon="5.50945">
        <ele>237.016479</ele>
        <time>2020-07-16T11:11:32.418Z</time>
      </trkpt>
      <trkpt lat="61.99148" lon="5.50985">
        <ele>236.866782</ele>
        <time>2020-07-16T11:11:36.406Z</time>
      </trkpt>
      <trkpt lat="61.99162" lon="5.51023">
        <ele>236.782229</ele>
        <time>2020-07-16T11:11:40.035Z</time>
      </trkpt>
      <trkpt lat="61.9917" lon="5.51041">
        <ele>236.748302</ele>
        <time>2020-07-16T11:11:41.975Z</time>
      </trkpt>
      <trkpt lat="61.99187" lon="5.51077">
        <ele>236.675284</ele>
        <time>2020-07-16T11:11:45.822Z</time>
      </trkpt>
      <trkpt lat="61.99203" lon="5.51111">
        <ele>236.60661</ele>
        <time>2020-07-16T11:11:49.622Z</time>
      </trkpt>
      <trkpt lat="61.99324" lon="5.51348">
        <ele>236.462115</ele>
        <time>2020-07-16T11:12:18.381Z</time>
      </trkpt>
      <trkpt lat="61.99354" lon="5.51393">
        <ele>236.568057</ele>
        <time>2020-07-16T11:12:25.497Z</time>
      </trkpt>
      <trkpt lat="61.99394" lon="5.51429">
        <ele>236.692102</ele>
        <time>2020-07-16T11:12:33.903Z</time>
      </trkpt>
      <trkpt lat="61.99511" lon="5.51449">
        <ele>237.148711</ele>
        <time>2020-07-16T11:12:56.895Z</time>
      </trkpt>
      <trkpt lat="61.99585" lon="5.51391">
        <ele>237.498975</ele>
        <time>2020-07-16T11:13:12.119Z</time>
      </trkpt>
      <trkpt lat="61.99627" lon="5.51384">
        <ele>237.61997</ele>
        <time>2020-07-16T11:13:20.046Z</time>
      </trkpt>
      <trkpt lat="61.99742" lon="5.51411">
        <ele>237.740559</ele>
        <time>2020-07-16T11:13:40.853Z</time>
      </trkpt>
      <trkpt lat="61.99804" lon="5.5145">
        <ele>237.776982</ele>
        <time>2020-07-16T11:13:52.372Z</time>
      </trkpt>
      <trkpt lat="61.99989" lon="5.5153">
        <ele>237.601042</ele>
        <time>2020-07-16T11:14:25.916Z</time>
      </trkpt>
      <trkpt lat="62.00048" lon="5.51582">
        <ele>237.409863</ele>
        <time>2020-07-16T11:14:36.577Z</time>
      </trkpt>
      <trkpt lat="62.00079" lon="5.51622">
        <ele>237.300259</ele>
        <time>2020-07-16T11:14:42.626Z</time>
      </trkpt>
      <trkpt lat="62.00164" lon="5.51798">
        <ele>237.230672</ele>
        <time>2020-07-16T11:15:02.569Z</time>
      </trkpt>
      <trkpt lat="62.00293" lon="5.5196">
        <ele>237.504332</ele>
        <time>2020-07-16T11:15:31.320Z</time>
      </trkpt>
      <trkpt lat="62.00332" lon="5.52006">
        <ele>237.660461</ele>
        <time>2020-07-16T11:15:40.184Z</time>
      </trkpt>
      <trkpt lat="62.00344" lon="5.52022">
        <ele>237.710566</ele>
        <time>2020-07-16T11:15:42.946Z</time>
      </trkpt>
      <trkpt lat="62.00362" lon="5.52044">
        <ele>237.783261</ele>
        <time>2020-07-16T11:15:46.906Z</time>
      </trkpt>
      <trkpt lat="62.00383" lon="5.52068">
        <ele>237.868482</ele>
        <time>2020-07-16T11:15:51.419Z</time>
      </trkpt>
      <trkpt lat="62.00414" lon="5.52099">
        <ele>237.990374</ele>
        <time>2020-07-16T11:15:57.752Z</time>
      </trkpt>
      <trkpt lat="62.00467" lon="5.52164">
        <ele>237.687796</ele>
        <time>2020-07-16T11:16:08.381Z</time>
      </trkpt>
      <trkpt lat="62.00601" lon="5.52388">
        <ele>236.644076</ele>
        <time>2020-07-16T11:16:35.162Z</time>
      </trkpt>
      <trkpt lat="62.00712" lon="5.52543">
        <ele>235.673013</ele>
        <time>2020-07-16T11:16:56.230Z</time>
      </trkpt>
      <trkpt lat="62.00748" lon="5.52604">
        <ele>235.494969</ele>
        <time>2020-07-16T11:17:03.919Z</time>
      </trkpt>
      <trkpt lat="62.00792" lon="5.52706">
        <ele>235.250047</ele>
        <time>2020-07-16T11:17:14.932Z</time>
      </trkpt>
      <trkpt lat="62.00859" lon="5.52943">
        <ele>234.674229</ele>
        <time>2020-07-16T11:17:37.281Z</time>
      </trkpt>
      <trkpt lat="62.00884" lon="5.53012">
        <ele>234.463123</ele>
        <time>2020-07-16T11:17:44.109Z</time>
      </trkpt>
      <trkpt lat="62.00929" lon="5.53105">
        <ele>234.139567</ele>
        <time>2020-07-16T11:17:54.309Z</time>
      </trkpt>
      <trkpt lat="62.00973" lon="5.53172">
        <ele>233.388666</ele>
        <time>2020-07-16T11:18:02.734Z</time>
      </trkpt>
      <trkpt lat="62.01046" lon="5.53267">
        <ele>231.905563</ele>
        <time>2020-07-16T11:18:15.172Z</time>
      </trkpt>
      <trkpt lat="62.01141" lon="5.53305">
        <ele>229.460424</ele>
        <time>2020-07-16T11:18:28.424Z</time>
      </trkpt>
      <trkpt lat="62.01185" lon="5.5337">
        <ele>227.5315</ele>
        <time>2020-07-16T11:18:35.406Z</time>
      </trkpt>
      <trkpt lat="62.01236" lon="5.53413">
        <ele>225.597692</ele>
        <time>2020-07-16T11:18:42.224Z</time>
      </trkpt>
      <trkpt lat="62.01249" lon="5.53416">
        <ele>225.103358</ele>
        <time>2020-07-16T11:18:43.938Z</time>
      </trkpt>
      <trkpt lat="62.01267" lon="5.53407">
        <ele>224.399027</ele>
        <time>2020-07-16T11:18:46.219Z</time>
      </trkpt>
      <trkpt lat="62.01311" lon="5.53322">
        <ele>220.374795</ele>
        <time>2020-07-16T11:18:53.411Z</time>
      </trkpt>
      <trkpt lat="62.01337" lon="5.53318">
        <ele>218.628324</ele>
        <time>2020-07-16T11:18:56.486Z</time>
      </trkpt>
      <trkpt lat="62.01348" lon="5.53335">
        <ele>217.714065</ele>
        <time>2020-07-16T11:18:58.070Z</time>
      </trkpt>
      <trkpt lat="62.01357" lon="5.53369">
        <ele>216.485394</ele>
        <time>2020-07-16T11:19:00.194Z</time>
      </trkpt>
      <trkpt lat="62.01381" lon="5.5365">
        <ele>203.485441</ele>
        <time>2020-07-16T11:19:15.012Z</time>
      </trkpt>
      <trkpt lat="62.0139" lon="5.53694">
        <ele>200.772639</ele>
        <time>2020-07-16T11:19:17.385Z</time>
      </trkpt>
      <trkpt lat="62.0141" lon="5.53747">
        <ele>196.901825</ele>
        <time>2020-07-16T11:19:20.738Z</time>
      </trkpt>
      <trkpt lat="62.01437" lon="5.53786">
        <ele>192.965853</ele>
        <time>2020-07-16T11:19:24.119Z</time>
      </trkpt>
      <trkpt lat="62.01552" lon="5.53913">
        <ele>175.040042</ele>
        <time>2020-07-16T11:19:37.577Z</time>
      </trkpt>
      <trkpt lat="62.01573" lon="5.53906">
        <ele>172.073101</ele>
        <time>2020-07-16T11:19:39.759Z</time>
      </trkpt>
      <trkpt lat="62.0161" lon="5.53835">
        <ele>165.027177</ele>
        <time>2020-07-16T11:19:45.123Z</time>
      </trkpt>
      <trkpt lat="62.01628" lon="5.5381">
        <ele>163.058977</ele>
        <time>2020-07-16T11:19:47.458Z</time>
      </trkpt>
      <trkpt lat="62.01649" lon="5.53781">
        <ele>160.789567</ele>
        <time>2020-07-16T11:19:50.223Z</time>
      </trkpt>
      <trkpt lat="62.01673" lon="5.53737">
        <ele>158.013793</ele>
        <time>2020-07-16T11:19:53.615Z</time>
      </trkpt>
      <trkpt lat="62.01696" lon="5.53677">
        <ele>154.710632</ele>
        <time>2020-07-16T11:19:57.706Z</time>
      </trkpt>
      <trkpt lat="62.01701" lon="5.5366">
        <ele>153.84299</ele>
        <time>2020-07-16T11:19:58.786Z</time>
      </trkpt>
      <trkpt lat="62.0171" lon="5.53622">
        <ele>152.048703</ele>
        <time>2020-07-16T11:20:01.034Z</time>
      </trkpt>
      <trkpt lat="62.01732" lon="5.53514">
        <ele>147.118574</ele>
        <time>2020-07-16T11:20:07.393Z</time>
      </trkpt>
      <trkpt lat="62.01757" lon="5.53465">
        <ele>144.201156</ele>
        <time>2020-07-16T11:20:11.216Z</time>
      </trkpt>
      <trkpt lat="62.01804" lon="5.53423">
        <ele>139.776384</ele>
        <time>2020-07-16T11:20:16.871Z</time>
      </trkpt>
      <trkpt lat="62.01867" lon="5.53383">
        <ele>134.146872</ele>
        <time>2020-07-16T11:20:24.020Z</time>
      </trkpt>
      <trkpt lat="62.01891" lon="5.53376">
        <ele>132.141246</ele>
        <time>2020-07-16T11:20:26.695Z</time>
      </trkpt>
      <trkpt lat="62.0191" lon="5.53395">
        <ele>130.458076</ele>
        <time>2020-07-16T11:20:29.018Z</time>
      </trkpt>
      <trkpt lat="62.01914" lon="5.53424">
        <ele>129.324717</ele>
        <time>2020-07-16T11:20:30.586Z</time>
      </trkpt>
      <trkpt lat="62.0191" lon="5.53446">
        <ele>128.411918</ele>
        <time>2020-07-16T11:20:31.846Z</time>
      </trkpt>
      <trkpt lat="62.019" lon="5.53465">
        <ele>127.333142</ele>
        <time>2020-07-16T11:20:33.349Z</time>
      </trkpt>
      <trkpt lat="62.01859" lon="5.53501">
        <ele>123.798599</ele>
        <time>2020-07-16T11:20:38.286Z</time>
      </trkpt>
      <trkpt lat="62.01845" lon="5.53523">
        <ele>122.3863</ele>
        <time>2020-07-16T11:20:40.279Z</time>
      </trkpt>
      <trkpt lat="62.01819" lon="5.53586">
        <ele>119.293352</ele>
        <time>2020-07-16T11:20:44.723Z</time>
      </trkpt>
      <trkpt lat="62.01816" lon="5.53606">
        <ele>118.672972</ele>
        <time>2020-07-16T11:20:45.897Z</time>
      </trkpt>
      <trkpt lat="62.01819" lon="5.53626">
        <ele>118.289776</ele>
        <time>2020-07-16T11:20:47.039Z</time>
      </trkpt>
      <trkpt lat="62.01833" lon="5.53639">
        <ele>117.679537</ele>
        <time>2020-07-16T11:20:48.838Z</time>
      </trkpt>
      <trkpt lat="62.01867" lon="5.53608">
        <ele>116.207678</ele>
        <time>2020-07-16T11:20:53.332Z</time>
      </trkpt>
      <trkpt lat="62.01904" lon="5.53601">
        <ele>114.753079</ele>
        <time>2020-07-16T11:20:57.924Z</time>
      </trkpt>
      <trkpt lat="62.01927" lon="5.53608">
        <ele>113.815234</ele>
        <time>2020-07-16T11:21:01.004Z</time>
      </trkpt>
      <trkpt lat="62.01961" lon="5.53637">
        <ele>112.359618</ele>
        <time>2020-07-16T11:21:05.943Z</time>
      </trkpt>
      <trkpt lat="62.0198" lon="5.53635">
        <ele>111.61627</ele>
        <time>2020-07-16T11:21:08.693Z</time>
      </trkpt>
      <trkpt lat="62.01996" lon="5.53618">
        <ele>111.059356</ele>
        <time>2020-07-16T11:21:11.288Z</time>
      </trkpt>
      <trkpt lat="62.02025" lon="5.53563">
        <ele>109.804163</ele>
        <time>2020-07-16T11:21:17.636Z</time>
      </trkpt>
      <trkpt lat="62.02065" lon="5.53448">
        <ele>107.635544</ele>
        <time>2020-07-16T11:21:29.598Z</time>
      </trkpt>
      <trkpt lat="62.02096" lon="5.53392">
        <ele>106.294406</ele>
        <time>2020-07-16T11:21:34.442Z</time>
      </trkpt>
      <trkpt lat="62.0213" lon="5.5336">
        <ele>102.639827</ele>
        <time>2020-07-16T11:21:38.479Z</time>
      </trkpt>
      <trkpt lat="62.02172" lon="5.53366">
        <ele>96.879884</ele>
        <time>2020-07-16T11:21:42.982Z</time>
      </trkpt>
      <trkpt lat="62.02199" lon="5.5335">
        <ele>93.121023</ele>
        <time>2020-07-16T11:21:45.958Z</time>
      </trkpt>
      <trkpt lat="62.02206" lon="5.53347">
        <ele>92.180583</ele>
        <time>2020-07-16T11:21:46.675Z</time>
      </trkpt>
      <trkpt lat="62.0221" lon="5.53344">
        <ele>91.554746</ele>
        <time>2020-07-16T11:21:47.154Z</time>
      </trkpt>
      <trkpt lat="62.02253" lon="5.53339">
        <ele>85.835702</ele>
        <time>2020-07-16T11:21:51.571Z</time>
      </trkpt>
      <trkpt lat="62.0228" lon="5.53286">
        <ele>80.882318</ele>
        <time>2020-07-16T11:21:55.350Z</time>
      </trkpt>
      <trkpt lat="62.02307" lon="5.53261">
        <ele>76.747494</ele>
        <time>2020-07-16T11:21:58.385Z</time>
      </trkpt>
      <trkpt lat="62.0232" lon="5.53265">
        <ele>74.907408</ele>
        <time>2020-07-16T11:21:59.782Z</time>
      </trkpt>
      <trkpt lat="62.02376" lon="5.53316">
        <ele>66.407208</ele>
        <time>2020-07-16T11:22:06.088Z</time>
      </trkpt>
      <trkpt lat="62.02392" lon="5.53319">
        <ele>64.252632</ele>
        <time>2020-07-16T11:22:07.735Z</time>
      </trkpt>
      <trkpt lat="62.02409" lon="5.5331">
        <ele>61.70676</ele>
        <time>2020-07-16T11:22:09.683Z</time>
      </trkpt>
      <trkpt lat="62.02425" lon="5.53283">
        <ele>58.869275</ele>
        <time>2020-07-16T11:22:11.881Z</time>
      </trkpt>
      <trkpt lat="62.02461" lon="5.53133">
        <ele>52.587835</ele>
        <time>2020-07-16T11:22:20.740Z</time>
      </trkpt>
      <trkpt lat="62.02485" lon="5.53104">
        <ele>50.833014</ele>
        <time>2020-07-16T11:22:23.936Z</time>
      </trkpt>
      <trkpt lat="62.02521" lon="5.53102">
        <ele>48.585582</ele>
        <time>2020-07-16T11:22:28.071Z</time>
      </trkpt>
      <trkpt lat="62.02575" lon="5.53175">
        <ele>45.104357</ele>
        <time>2020-07-16T11:22:35.942Z</time>
      </trkpt>
      <trkpt lat="62.0259" lon="5.53183">
        <ele>45.009511</ele>
        <time>2020-07-16T11:22:39.558Z</time>
      </trkpt>
      <trkpt lat="62.02609" lon="5.53179">
        <ele>44.90144</ele>
        <time>2020-07-16T11:22:43.366Z</time>
      </trkpt>
      <trkpt lat="62.02628" lon="5.53141">
        <ele>44.745256</ele>
        <time>2020-07-16T11:22:49.518Z</time>
      </trkpt>
      <trkpt lat="62.02658" lon="5.52985">
        <ele>44.277461</ele>
        <time>2020-07-16T11:23:06.030Z</time>
      </trkpt>
      <trkpt lat="62.02662" lon="5.52974">
        <ele>44.238537</ele>
        <time>2020-07-16T11:23:09.622Z</time>
      </trkpt>
      <trkpt lat="62.02668" lon="5.52956">
        <ele>44.177308</ele>
        <time>2020-07-16T11:23:11.657Z</time>
      </trkpt>
      <trkpt lat="62.02679" lon="5.52928">
        <ele>43.855114</ele>
        <time>2020-07-16T11:23:13.668Z</time>
      </trkpt>
      <trkpt lat="62.02687" lon="5.52911">
        <ele>43.087405</ele>
        <time>2020-07-16T11:23:15.387Z</time>
      </trkpt>
      <trkpt lat="62.027" lon="5.52886">
        <ele>41.898236</ele>
        <time>2020-07-16T11:23:17.417Z</time>
      </trkpt>
      <trkpt lat="62.02731" lon="5.52847">
        <ele>39.389694</ele>
        <time>2020-07-16T11:23:21.790Z</time>
      </trkpt>
      <trkpt lat="62.02762" lon="5.5285">
        <ele>37.288136</ele>
        <time>2020-07-16T11:23:25.542Z</time>
      </trkpt>
      <trkpt lat="62.0277" lon="5.52855">
        <ele>36.706658</ele>
        <time>2020-07-16T11:23:26.454Z</time>
      </trkpt>
      <trkpt lat="62.02778" lon="5.5286">
        <ele>36.143784</ele>
        <time>2020-07-16T11:23:27.353Z</time>
      </trkpt>
      <trkpt lat="62.02808" lon="5.52887">
        <ele>33.921656</ele>
        <time>2020-07-16T11:23:31.150Z</time>
      </trkpt>
      <trkpt lat="62.02814" lon="5.52892">
        <ele>33.492306</ele>
        <time>2020-07-16T11:23:31.795Z</time>
      </trkpt>
      <trkpt lat="62.02836" lon="5.52911">
        <ele>31.830281</ele>
        <time>2020-07-16T11:23:34.408Z</time>
      </trkpt>
      <trkpt lat="62.02885" lon="5.52935">
        <ele>26.740369</ele>
        <time>2020-07-16T11:23:39.613Z</time>
      </trkpt>
      <trkpt lat="62.02992" lon="5.52829">
        <ele>14.51955</ele>
        <time>2020-07-16T11:23:52.485Z</time>
      </trkpt>
      <trkpt lat="62.03009" lon="5.52816">
        <ele>13.035878</ele>
        <time>2020-07-16T11:23:54.507Z</time>
      </trkpt>
      <trkpt lat="62.03027" lon="5.52807">
        <ele>12.303463</ele>
        <time>2020-07-16T11:23:56.836Z</time>
      </trkpt>
      <trkpt lat="62.03038" lon="5.52803">
        <ele>11.858587</ele>
        <time>2020-07-16T11:23:58.172Z</time>
      </trkpt>
      <trkpt lat="62.03053" lon="5.52796">
        <ele>11.2812</ele>
        <time>2020-07-16T11:23:59.978Z</time>
      </trkpt>
      <trkpt lat="62.03252" lon="5.52721">
        <ele>4.888973</ele>
        <time>2020-07-16T11:24:27.444Z</time>
      </trkpt>
      <trkpt lat="62.03315" lon="5.5272">
        <ele>3.72522</ele>
        <time>2020-07-16T11:24:36.863Z</time>
      </trkpt>
      <trkpt lat="62.03329" lon="5.52724">
        <ele>3.459764</ele>
        <time>2020-07-16T11:24:38.955Z</time>
      </trkpt>
      <trkpt lat="62.03332" lon="5.52726">
        <ele>3.397433</ele>
        <time>2020-07-16T11:24:39.459Z</time>
      </trkpt>
      <trkpt lat="62.03353" lon="5.52735">
        <ele>2.997544</ele>
        <time>2020-07-16T11:24:42.606Z</time>
      </trkpt>
      <trkpt lat="62.0336" lon="5.52739">
        <ele>2.881487</ele>
        <time>2020-07-16T11:24:43.543Z</time>
      </trkpt>
      <trkpt lat="62.03369" lon="5.52745">
        <ele>2.77381</ele>
        <time>2020-07-16T11:24:45.061Z</time>
      </trkpt>
      <trkpt lat="62.03384" lon="5.52757">
        <ele>2.595916</ele>
        <time>2020-07-16T11:24:47.554Z</time>
      </trkpt>
      <trkpt lat="62.0339" lon="5.52762">
        <ele>2.526445</ele>
        <time>2020-07-16T11:24:48.366Z</time>
      </trkpt>
      <trkpt lat="62.03427" lon="5.52803">
        <ele>2.074095</ele>
        <time>2020-07-16T11:24:54.587Z</time>
      </trkpt>
      <trkpt lat="62.03476" lon="5.52884">
        <ele>1.39534</ele>
        <time>2020-07-16T11:25:03.966Z</time>
      </trkpt>
      <trkpt lat="62.03478" lon="5.52886">
        <ele>1.37872</ele>
        <time>2020-07-16T11:25:04.137Z</time>
      </trkpt>
      <trkpt lat="62.03483" lon="5.52896">
        <ele>1.299343</ele>
        <time>2020-07-16T11:25:05.270Z</time>
      </trkpt>
      <trkpt lat="62.03509" lon="5.52947">
        <ele>0.944874</ele>
        <time>2020-07-16T11:25:10.666Z</time>
      </trkpt>
      <trkpt lat="62.03528" lon="5.52988">
        <ele>1.22429</ele>
        <time>2020-07-16T11:25:16.187Z</time>
      </trkpt>
      <trkpt lat="62.03546" lon="5.53024">
        <ele>1.475467</ele>
        <time>2020-07-16T11:25:21.188Z</time>
      </trkpt>
      <trkpt lat="62.0355" lon="5.53033">
        <ele>1.533806</ele>
        <time>2020-07-16T11:25:22.773Z</time>
      </trkpt>
      <trkpt lat="62.0356" lon="5.53052">
        <ele>1.675966</ele>
        <time>2020-07-16T11:25:25.235Z</time>
      </trkpt>
      <trkpt lat="62.03566" lon="5.53063">
        <ele>1.760284</ele>
        <time>2020-07-16T11:25:26.831Z</time>
      </trkpt>
      <trkpt lat="62.0358" lon="5.53082">
        <ele>1.923968</ele>
        <time>2020-07-16T11:25:31.177Z</time>
      </trkpt>
      <trkpt lat="62.03585" lon="5.5309">
        <ele>1.993225</ele>
        <time>2020-07-16T11:25:32.288Z</time>
      </trkpt>
      <trkpt lat="62.03591" lon="5.53096">
        <ele>2.059413</ele>
        <time>2020-07-16T11:25:33.508Z</time>
      </trkpt>
      <trkpt lat="62.03597" lon="5.53101">
        <ele>2.125193</ele>
        <time>2020-07-16T11:25:34.788Z</time>
      </trkpt>
      <trkpt lat="62.03602" lon="5.53105">
        <ele>2.177553</ele>
        <time>2020-07-16T11:25:36.091Z</time>
      </trkpt>
      <trkpt lat="62.03609" lon="5.5311">
        <ele>2.25115</ele>
        <time>2020-07-16T11:25:38.328Z</time>
      </trkpt>
      <trkpt lat="62.03615" lon="5.53113">
        <ele>2.315582</ele>
        <time>2020-07-16T11:25:39.772Z</time>
      </trkpt>
      <trkpt lat="62.03631" lon="5.53117">
        <ele>2.482422</ele>
        <time>2020-07-16T11:25:42.891Z</time>
      </trkpt>
      <trkpt lat="62.03644" lon="5.53119">
        <ele>2.621403</ele>
        <time>2020-07-16T11:25:46.617Z</time>
      </trkpt>
      <trkpt lat="62.03671" lon="5.53114">
        <ele>3.042688</ele>
        <time>2020-07-16T11:25:52.097Z</time>
      </trkpt>
      <trkpt lat="62.0368" lon="5.53109">
        <ele>3.247532</ele>
        <time>2020-07-16T11:25:54.800Z</time>
      </trkpt>
      <trkpt lat="62.03685" lon="5.53106">
        <ele>3.357361</ele>
        <time>2020-07-16T11:25:55.897Z</time>
      </trkpt>
      <trkpt lat="62.03712" lon="5.53079">
        <ele>4.026798</ele>
        <time>2020-07-16T11:26:02.872Z</time>
      </trkpt>
      <trkpt lat="62.03751" lon="5.53006">
        <ele>5.196959</ele>
        <time>2020-07-16T11:26:15.498Z</time>
      </trkpt>
      <trkpt lat="62.03752" lon="5.53005">
        <ele>5.212346</ele>
        <time>2020-07-16T11:26:15.680Z</time>
      </trkpt>
      <trkpt lat="62.03779" lon="5.52955">
        <ele>6.014415</ele>
        <time>2020-07-16T11:26:25.369Z</time>
      </trkpt>
      <trkpt lat="62.03797" lon="5.52922">
        <ele>6.551767</ele>
        <time>2020-07-16T11:26:32.263Z</time>
      </trkpt>
      <trkpt lat="62.03812" lon="5.529">
        <ele>7.078266</ele>
        <time>2020-07-16T11:26:36.649Z</time>
      </trkpt>
      <trkpt lat="62.03829" lon="5.52874">
        <ele>7.93178</ele>
        <time>2020-07-16T11:26:42.382Z</time>
      </trkpt>
      <trkpt lat="62.03883" lon="5.52808">
        <ele>10.469023</ele>
        <time>2020-07-16T11:26:58.473Z</time>
      </trkpt>
      <trkpt lat="62.03904" lon="5.52787">
        <ele>11.43252</ele>
        <time>2020-07-16T11:27:05.602Z</time>
      </trkpt>
      <trkpt lat="62.0393" lon="5.52765">
        <ele>12.582801</ele>
        <time>2020-07-16T11:27:15.818Z</time>
      </trkpt>
      <trkpt lat="62.0402" lon="5.52711">
        <ele>17.834583</ele>
        <time>2020-07-16T11:27:50.857Z</time>
      </trkpt>
      <trkpt lat="62.04029" lon="5.52708">
        <ele>18.401662</ele>
        <time>2020-07-16T11:27:54.851Z</time>
      </trkpt>
      <trkpt lat="62.04046" lon="5.52704">
        <ele>19.570738</ele>
        <time>2020-07-16T11:28:01.594Z</time>
      </trkpt>
      <trkpt lat="62.04079" lon="5.527">
        <ele>21.73474</ele>
        <time>2020-07-16T11:28:14.614Z</time>
      </trkpt>
      <trkpt lat="62.04125" lon="5.52701">
        <ele>24.803007</ele>
        <time>2020-07-16T11:28:32.571Z</time>
      </trkpt>
      <trkpt lat="62.04195" lon="5.5272">
        <ele>28.50536</ele>
        <time>2020-07-16T11:29:01.935Z</time>
      </trkpt>
      <trkpt lat="62.04256" lon="5.52754">
        <ele>31.444441</ele>
        <time>2020-07-16T11:29:24.059Z</time>
      </trkpt>
      <trkpt lat="62.04317" lon="5.52809">
        <ele>34.557295</ele>
        <time>2020-07-16T11:29:42.305Z</time>
      </trkpt>
      <trkpt lat="62.0433" lon="5.52823">
        <ele>34.330987</ele>
        <time>2020-07-16T11:29:45.782Z</time>
      </trkpt>
      <trkpt lat="62.04344" lon="5.52838">
        <ele>34.091527</ele>
        <time>2020-07-16T11:29:48.990Z</time>
      </trkpt>
      <trkpt lat="62.04437" lon="5.52935">
        <ele>32.471871</ele>
        <time>2020-07-16T11:30:03.967Z</time>
      </trkpt>
      <trkpt lat="62.04484" lon="5.52969">
        <ele>31.596444</ele>
        <time>2020-07-16T11:30:10.266Z</time>
      </trkpt>
      <trkpt lat="62.0453" lon="5.52989">
        <ele>29.815082</ele>
        <time>2020-07-16T11:30:16.007Z</time>
      </trkpt>
      <trkpt lat="62.04537" lon="5.52993">
        <ele>29.550795</ele>
        <time>2020-07-16T11:30:16.765Z</time>
      </trkpt>
      <trkpt lat="62.04545" lon="5.52995">
        <ele>29.230346</ele>
        <time>2020-07-16T11:30:17.826Z</time>
      </trkpt>
      <trkpt lat="62.04635" lon="5.53025">
        <ele>25.739715</ele>
        <time>2020-07-16T11:30:29.463Z</time>
      </trkpt>
      <trkpt lat="62.0469" lon="5.53034">
        <ele>24.338296</ele>
        <time>2020-07-16T11:30:36.508Z</time>
      </trkpt>
      <trkpt lat="62.04751" lon="5.53011">
        <ele>23.335701</ele>
        <time>2020-07-16T11:30:46.062Z</time>
      </trkpt>
      <trkpt lat="62.04912" lon="5.52888">
        <ele>21.073782</ele>
        <time>2020-07-16T11:31:12.593Z</time>
      </trkpt>
      <trkpt lat="62.05024" lon="5.52779">
        <ele>20.682684</ele>
        <time>2020-07-16T11:31:31.235Z</time>
      </trkpt>
      <trkpt lat="62.05038" lon="5.52765">
        <ele>20.991536</ele>
        <time>2020-07-16T11:31:33.586Z</time>
      </trkpt>
      <trkpt lat="62.05067" lon="5.52734">
        <ele>21.663904</ele>
        <time>2020-07-16T11:31:40.339Z</time>
      </trkpt>
      <trkpt lat="62.05109" lon="5.52703">
        <ele>22.571835</ele>
        <time>2020-07-16T11:31:51.498Z</time>
      </trkpt>
      <trkpt lat="62.0517" lon="5.52691">
        <ele>23.868879</ele>
        <time>2020-07-16T11:32:10.543Z</time>
      </trkpt>
      <trkpt lat="62.05209" lon="5.52701">
        <ele>26.143386</ele>
        <time>2020-07-16T11:32:25.699Z</time>
      </trkpt>
      <trkpt lat="62.05316" lon="5.52754">
        <ele>32.392231</ele>
        <time>2020-07-16T11:33:08.813Z</time>
      </trkpt>
      <trkpt lat="62.05382" lon="5.5275">
        <ele>34.285313</ele>
        <time>2020-07-16T11:33:29.884Z</time>
      </trkpt>
      <trkpt lat="62.05433" lon="5.52716">
        <ele>34.681079</ele>
        <time>2020-07-16T11:33:42.842Z</time>
      </trkpt>
      <trkpt lat="62.05656" lon="5.52521">
        <ele>32.09509</ele>
        <time>2020-07-16T11:34:16.813Z</time>
      </trkpt>
      <trkpt lat="62.05741" lon="5.52474">
        <ele>29.97684</ele>
        <time>2020-07-16T11:34:28.670Z</time>
      </trkpt>
      <trkpt lat="62.05807" lon="5.52454">
        <ele>28.306382</ele>
        <time>2020-07-16T11:34:37.555Z</time>
      </trkpt>
      <trkpt lat="62.05824" lon="5.52451">
        <ele>27.873942</ele>
        <time>2020-07-16T11:34:39.881Z</time>
      </trkpt>
      <trkpt lat="62.0584" lon="5.52448">
        <ele>27.461257</ele>
        <time>2020-07-16T11:34:42.077Z</time>
      </trkpt>
      <trkpt lat="62.05873" lon="5.52446">
        <ele>26.730039</ele>
        <time>2020-07-16T11:34:46.689Z</time>
      </trkpt>
      <trkpt lat="62.05905" lon="5.52447">
        <ele>26.224771</ele>
        <time>2020-07-16T11:34:50.989Z</time>
      </trkpt>
      <trkpt lat="62.05916" lon="5.52448">
        <ele>26.039571</ele>
        <time>2020-07-16T11:34:52.521Z</time>
      </trkpt>
      <trkpt lat="62.05984" lon="5.5245">
        <ele>24.92994</ele>
        <time>2020-07-16T11:35:02.095Z</time>
      </trkpt>
      <trkpt lat="62.06104" lon="5.52416">
        <ele>23.730053</ele>
        <time>2020-07-16T11:35:22.731Z</time>
      </trkpt>
      <trkpt lat="62.06142" lon="5.52424">
        <ele>23.5562</ele>
        <time>2020-07-16T11:35:29.405Z</time>
      </trkpt>
      <trkpt lat="62.06227" lon="5.52467">
        <ele>23.044711</ele>
        <time>2020-07-16T11:35:43.463Z</time>
      </trkpt>
      <trkpt lat="62.06242" lon="5.52471">
        <ele>22.824714</ele>
        <time>2020-07-16T11:35:47.063Z</time>
      </trkpt>
      <trkpt lat="62.06252" lon="5.52473">
        <ele>22.660096</ele>
        <time>2020-07-16T11:35:48.383Z</time>
      </trkpt>
      <trkpt lat="62.06283" lon="5.52471">
        <ele>22.190788</ele>
        <time>2020-07-16T11:35:53.342Z</time>
      </trkpt>
      <trkpt lat="62.06422" lon="5.52404">
        <ele>20.266684</ele>
        <time>2020-07-16T11:36:13.241Z</time>
      </trkpt>
      <trkpt lat="62.06494" lon="5.52384">
        <ele>19.734252</ele>
        <time>2020-07-16T11:36:24.309Z</time>
      </trkpt>
      <trkpt lat="62.06557" lon="5.52378">
        <ele>19.26976</ele>
        <time>2020-07-16T11:36:35.921Z</time>
      </trkpt>
      <trkpt lat="62.0669" lon="5.52391">
        <ele>19.844126</ele>
        <time>2020-07-16T11:37:02.008Z</time>
      </trkpt>
      <trkpt lat="62.06715" lon="5.52393">
        <ele>19.988776</ele>
        <time>2020-07-16T11:37:07.053Z</time>
      </trkpt>
      <trkpt lat="62.06769" lon="5.52401">
        <ele>20.49121</ele>
        <time>2020-07-16T11:37:17.408Z</time>
      </trkpt>
      <trkpt lat="62.06857" lon="5.52417">
        <ele>21.970262</ele>
        <time>2020-07-16T11:37:36.118Z</time>
      </trkpt>
      <trkpt lat="62.06922" lon="5.52462">
        <ele>23.109118</ele>
        <time>2020-07-16T11:37:52.738Z</time>
      </trkpt>
      <trkpt lat="62.06952" lon="5.52497">
        <ele>24.874795</ele>
        <time>2020-07-16T11:38:02.979Z</time>
      </trkpt>
      <trkpt lat="62.07048" lon="5.52646">
        <ele>31.678288</ele>
        <time>2020-07-16T11:38:45.454Z</time>
      </trkpt>
      <trkpt lat="62.0714" lon="5.52691">
        <ele>39.997278</ele>
        <time>2020-07-16T11:39:28.514Z</time>
      </trkpt>
      <trkpt lat="62.07163" lon="5.52712">
        <ele>42.602379</ele>
        <time>2020-07-16T11:39:40.894Z</time>
      </trkpt>
      <trkpt lat="62.07184" lon="5.52751">
        <ele>45.510555</ele>
        <time>2020-07-16T11:39:55.269Z</time>
      </trkpt>
      <trkpt lat="62.07199" lon="5.52799">
        <ele>48.367317</ele>
        <time>2020-07-16T11:40:09.837Z</time>
      </trkpt>
      <trkpt lat="62.0729" lon="5.53304">
        <ele>80.282397</ele>
        <time>2020-07-16T11:42:43.948Z</time>
      </trkpt>
      <trkpt lat="62.07349" lon="5.53634">
        <ele>97.344729</ele>
        <time>2020-07-16T11:44:16.579Z</time>
      </trkpt>
      <trkpt lat="62.07359" lon="5.5374">
        <ele>97.783308</ele>
        <time>2020-07-16T11:44:33.082Z</time>
      </trkpt>
      <trkpt lat="62.0737" lon="5.54021">
        <ele>97.06119</ele>
        <time>2020-07-16T11:44:50.217Z</time>
      </trkpt>
      <trkpt lat="62.07417" lon="5.54302">
        <ele>87.292212</ele>
        <time>2020-07-16T11:45:05.887Z</time>
      </trkpt>
      <trkpt lat="62.07418" lon="5.5438">
        <ele>85.132109</ele>
        <time>2020-07-16T11:45:10.074Z</time>
      </trkpt>
      <trkpt lat="62.07412" lon="5.54423">
        <ele>84.081756</ele>
        <time>2020-07-16T11:45:12.516Z</time>
      </trkpt>
      <trkpt lat="62.074" lon="5.54469">
        <ele>82.849047</ele>
        <time>2020-07-16T11:45:15.452Z</time>
      </trkpt>
      <trkpt lat="62.07372" lon="5.54531">
        <ele>80.816115</ele>
        <time>2020-07-16T11:45:20.436Z</time>
      </trkpt>
      <trkpt lat="62.07313" lon="5.54628">
        <ele>77.075485</ele>
        <time>2020-07-16T11:45:30.177Z</time>
      </trkpt>
      <trkpt lat="62.07279" lon="5.54684">
        <ele>74.695678</ele>
        <time>2020-07-16T11:45:35.527Z</time>
      </trkpt>
      <trkpt lat="62.07254" lon="5.54725">
        <ele>72.966364</ele>
        <time>2020-07-16T11:45:39.293Z</time>
      </trkpt>
      <trkpt lat="62.07206" lon="5.54818">
        <ele>69.412597</ele>
        <time>2020-07-16T11:45:46.936Z</time>
      </trkpt>
      <trkpt lat="62.07189" lon="5.54862">
        <ele>67.931136</ele>
        <time>2020-07-16T11:45:50.263Z</time>
      </trkpt>
      <trkpt lat="62.07186" lon="5.54872">
        <ele>67.629214</ele>
        <time>2020-07-16T11:45:50.924Z</time>
      </trkpt>
      <trkpt lat="62.07184" lon="5.54878">
        <ele>67.44855</ele>
        <time>2020-07-16T11:45:51.263Z</time>
      </trkpt>
      <trkpt lat="62.07129" lon="5.55062">
        <ele>61.171951</ele>
        <time>2020-07-16T11:46:02.847Z</time>
      </trkpt>
      <trkpt lat="62.07094" lon="5.55154">
        <ele>57.734661</ele>
        <time>2020-07-16T11:46:09.118Z</time>
      </trkpt>
      <trkpt lat="62.07058" lon="5.55228">
        <ele>56.897307</ele>
        <time>2020-07-16T11:46:16.252Z</time>
      </trkpt>
      <trkpt lat="62.07036" lon="5.5527">
        <ele>57.879083</ele>
        <time>2020-07-16T11:46:21.928Z</time>
      </trkpt>
      <trkpt lat="62.06987" lon="5.55363">
        <ele>60.08436</ele>
        <time>2020-07-16T11:46:40.474Z</time>
      </trkpt>
      <trkpt lat="62.06965" lon="5.55405">
        <ele>61.080597</ele>
        <time>2020-07-16T11:46:51.319Z</time>
      </trkpt>
      <trkpt lat="62.06943" lon="5.55448">
        <ele>62.0691</ele>
        <time>2020-07-16T11:47:03.566Z</time>
      </trkpt>
      <trkpt lat="62.06884" lon="5.55577">
        <ele>71.869539</ele>
        <time>2020-07-16T11:47:50.210Z</time>
      </trkpt>
      <trkpt lat="62.06869" lon="5.55636">
        <ele>75.588329</ele>
        <time>2020-07-16T11:48:10.454Z</time>
      </trkpt>
      <trkpt lat="62.06853" lon="5.55748">
        <ele>82.038852</ele>
        <time>2020-07-16T11:48:44.554Z</time>
      </trkpt>
      <trkpt lat="62.06847" lon="5.55799">
        <ele>84.613765</ele>
        <time>2020-07-16T11:48:57.626Z</time>
      </trkpt>
      <trkpt lat="62.06844" lon="5.55814">
        <ele>85.277633</ele>
        <time>2020-07-16T11:49:03.668Z</time>
      </trkpt>
      <trkpt lat="62.06759" lon="5.56253">
        <ele>99.550855</ele>
        <time>2020-07-16T11:50:42.596Z</time>
      </trkpt>
      <trkpt lat="62.06684" lon="5.56722">
        <ele>91.209871</ele>
        <time>2020-07-16T11:51:10.359Z</time>
      </trkpt>
      <trkpt lat="62.06675" lon="5.56776">
        <ele>89.374903</ele>
        <time>2020-07-16T11:51:13.317Z</time>
      </trkpt>
      <trkpt lat="62.06652" lon="5.56956">
        <ele>83.370937</ele>
        <time>2020-07-16T11:51:23.003Z</time>
      </trkpt>
      <trkpt lat="62.06634" lon="5.57206">
        <ele>75.056356</ele>
        <time>2020-07-16T11:51:36.764Z</time>
      </trkpt>
      <trkpt lat="62.06627" lon="5.57467">
        <ele>68.699053</ele>
        <time>2020-07-16T11:51:51.867Z</time>
      </trkpt>
      <trkpt lat="62.06632" lon="5.57758">
        <ele>62.568571</ele>
        <time>2020-07-16T11:52:08.278Z</time>
      </trkpt>
      <trkpt lat="62.06653" lon="5.58067">
        <ele>58.989046</ele>
        <time>2020-07-16T11:52:26.998Z</time>
      </trkpt>
      <trkpt lat="62.06694" lon="5.58401">
        <ele>63.835669</ele>
        <time>2020-07-16T11:53:14.882Z</time>
      </trkpt>
      <trkpt lat="62.06702" lon="5.58448">
        <ele>65.898529</ele>
        <time>2020-07-16T11:53:25.461Z</time>
      </trkpt>
      <trkpt lat="62.06719" lon="5.58549">
        <ele>70.305866</ele>
        <time>2020-07-16T11:53:49.785Z</time>
      </trkpt>
      <trkpt lat="62.06774" lon="5.5881">
        <ele>80.866459</ele>
        <time>2020-07-16T11:54:58.785Z</time>
      </trkpt>
      <trkpt lat="62.06835" lon="5.59026">
        <ele>88.083382</ele>
        <time>2020-07-16T11:55:41.875Z</time>
      </trkpt>
      <trkpt lat="62.06849" lon="5.59123">
        <ele>87.534811</ele>
        <time>2020-07-16T11:55:53.112Z</time>
      </trkpt>
      <trkpt lat="62.06848" lon="5.59168">
        <ele>86.410568</ele>
        <time>2020-07-16T11:55:56.140Z</time>
      </trkpt>
      <trkpt lat="62.0684" lon="5.59218">
        <ele>85.103378</ele>
        <time>2020-07-16T11:55:59.120Z</time>
      </trkpt>
      <trkpt lat="62.0682" lon="5.59273">
        <ele>83.388231</ele>
        <time>2020-07-16T11:56:02.864Z</time>
      </trkpt>
      <trkpt lat="62.06779" lon="5.59349">
        <ele>80.511785</ele>
        <time>2020-07-16T11:56:08.896Z</time>
      </trkpt>
      <trkpt lat="62.06764" lon="5.59384">
        <ele>78.975063</ele>
        <time>2020-07-16T11:56:11.331Z</time>
      </trkpt>
      <trkpt lat="62.0676" lon="5.59396">
        <ele>78.084737</ele>
        <time>2020-07-16T11:56:12.140Z</time>
      </trkpt>
      <trkpt lat="62.06753" lon="5.59413">
        <ele>76.781124</ele>
        <time>2020-07-16T11:56:13.230Z</time>
      </trkpt>
      <trkpt lat="62.06718" lon="5.59511">
        <ele>69.72989</ele>
        <time>2020-07-16T11:56:19.319Z</time>
      </trkpt>
      <trkpt lat="62.067" lon="5.59546">
        <ele>66.741581</ele>
        <time>2020-07-16T11:56:21.855Z</time>
      </trkpt>
      <trkpt lat="62.06674" lon="5.59572">
        <ele>63.176551</ele>
        <time>2020-07-16T11:56:24.901Z</time>
      </trkpt>
      <trkpt lat="62.06649" lon="5.59586">
        <ele>60.014976</ele>
        <time>2020-07-16T11:56:27.649Z</time>
      </trkpt>
      <trkpt lat="62.06621" lon="5.59595">
        <ele>56.82353</ele>
        <time>2020-07-16T11:56:30.678Z</time>
      </trkpt>
      <trkpt lat="62.06552" lon="5.59619">
        <ele>50.747634</ele>
        <time>2020-07-16T11:56:38.486Z</time>
      </trkpt>
      <trkpt lat="62.06434" lon="5.59679">
        <ele>40.203293</ele>
        <time>2020-07-16T11:56:52.189Z</time>
      </trkpt>
      <trkpt lat="62.06413" lon="5.59692">
        <ele>38.281032</ele>
        <time>2020-07-16T11:56:54.659Z</time>
      </trkpt>
      <trkpt lat="62.06323" lon="5.59743">
        <ele>30.155666</ele>
        <time>2020-07-16T11:57:04.963Z</time>
      </trkpt>
      <trkpt lat="62.06262" lon="5.59776">
        <ele>24.889511</ele>
        <time>2020-07-16T11:57:11.909Z</time>
      </trkpt>
      <trkpt lat="62.06253" lon="5.59781">
        <ele>24.222727</ele>
        <time>2020-07-16T11:57:12.915Z</time>
      </trkpt>
      <trkpt lat="62.06171" lon="5.59826">
        <ele>18.109938</ele>
        <time>2020-07-16T11:57:22.320Z</time>
      </trkpt>
      <trkpt lat="62.06081" lon="5.59873">
        <ele>12.34029</ele>
        <time>2020-07-16T11:57:33.463Z</time>
      </trkpt>
      <trkpt lat="62.06033" lon="5.59892">
        <ele>10.830945</ele>
        <time>2020-07-16T11:57:39.752Z</time>
      </trkpt>
      <trkpt lat="62.06016" lon="5.59898">
        <ele>10.31565</ele>
        <time>2020-07-16T11:57:41.979Z</time>
      </trkpt>
      <trkpt lat="62.05974" lon="5.59911">
        <ele>9.022513</ele>
        <time>2020-07-16T11:57:47.696Z</time>
      </trkpt>
      <trkpt lat="62.05847" lon="5.59945">
        <ele>6.886272</ele>
        <time>2020-07-16T11:58:06.653Z</time>
      </trkpt>
      <trkpt lat="62.05807" lon="5.59955">
        <ele>6.55387</ele>
        <time>2020-07-16T11:58:13.341Z</time>
      </trkpt>
      <trkpt lat="62.05789" lon="5.59959">
        <ele>6.404481</ele>
        <time>2020-07-16T11:58:16.365Z</time>
      </trkpt>
      <trkpt lat="62.05709" lon="5.59982">
        <ele>6.277033</ele>
        <time>2020-07-16T11:58:30.797Z</time>
      </trkpt>
      <trkpt lat="62.05674" lon="5.59994">
        <ele>6.45726</ele>
        <time>2020-07-16T11:58:37.583Z</time>
      </trkpt>
      <trkpt lat="62.0566" lon="5.59999">
        <ele>6.528673</ele>
        <time>2020-07-16T11:58:40.351Z</time>
      </trkpt>
      <trkpt lat="62.05586" lon="5.60026">
        <ele>6.910024</ele>
        <time>2020-07-16T11:58:55.190Z</time>
      </trkpt>
      <trkpt lat="62.05585" lon="5.60027">
        <ele>6.914696</ele>
        <time>2020-07-16T11:58:55.551Z</time>
      </trkpt>
      <trkpt lat="62.05546" lon="5.60041">
        <ele>7.490823</ele>
        <time>2020-07-16T11:59:03.691Z</time>
      </trkpt>
      <trkpt lat="62.05474" lon="5.60069">
        <ele>8.964874</ele>
        <time>2020-07-16T11:59:20.635Z</time>
      </trkpt>
      <trkpt lat="62.05448" lon="5.60079">
        <ele>9.500966</ele>
        <time>2020-07-16T11:59:26.957Z</time>
      </trkpt>
      <trkpt lat="62.05412" lon="5.60095">
        <ele>10.231493</ele>
        <time>2020-07-16T11:59:36.748Z</time>
      </trkpt>
      <trkpt lat="62.05407" lon="5.60097">
        <ele>10.353288</ele>
        <time>2020-07-16T11:59:38.602Z</time>
      </trkpt>
      <trkpt lat="62.05395" lon="5.60104">
        <ele>10.58605</ele>
        <time>2020-07-16T11:59:41.626Z</time>
      </trkpt>
      <trkpt lat="62.05371" lon="5.60119">
        <ele>11.465221</ele>
        <time>2020-07-16T11:59:48.997Z</time>
      </trkpt>
      <trkpt lat="62.05315" lon="5.60158">
        <ele>13.508239</ele>
        <time>2020-07-16T12:00:06.064Z</time>
      </trkpt>
      <trkpt lat="62.05297" lon="5.60174">
        <ele>14.184358</ele>
        <time>2020-07-16T12:00:12.118Z</time>
      </trkpt>
      <trkpt lat="62.05287" lon="5.60184">
        <ele>14.578301</ele>
        <time>2020-07-16T12:00:15.149Z</time>
      </trkpt>
      <trkpt lat="62.05282" lon="5.6019">
        <ele>14.778316</ele>
        <time>2020-07-16T12:00:16.824Z</time>
      </trkpt>
      <trkpt lat="62.05268" lon="5.60206">
        <ele>15.330633</ele>
        <time>2020-07-16T12:00:21.933Z</time>
      </trkpt>
      <trkpt lat="62.05241" lon="5.60228">
        <ele>16.327262</ele>
        <time>2020-07-16T12:00:30.251Z</time>
      </trkpt>
      <trkpt lat="62.05221" lon="5.60248">
        <ele>17.006742</ele>
        <time>2020-07-16T12:00:36.724Z</time>
      </trkpt>
      <trkpt lat="62.05217" lon="5.60251">
        <ele>17.071513</ele>
        <time>2020-07-16T12:00:37.673Z</time>
      </trkpt>
      <trkpt lat="62.05168" lon="5.60298">
        <ele>18.053781</ele>
        <time>2020-07-16T12:00:53.181Z</time>
      </trkpt>
      <trkpt lat="62.05157" lon="5.60309">
        <ele>18.27731</ele>
        <time>2020-07-16T12:00:56.417Z</time>
      </trkpt>
      <trkpt lat="62.05143" lon="5.60322">
        <ele>18.559961</ele>
        <time>2020-07-16T12:01:00.455Z</time>
      </trkpt>
      <trkpt lat="62.05103" lon="5.60361">
        <ele>19.367666</ele>
        <time>2020-07-16T12:01:09.905Z</time>
      </trkpt>
      <trkpt lat="62.0507" lon="5.60395">
        <ele>20.036174</ele>
        <time>2020-07-16T12:01:16.778Z</time>
      </trkpt>
      <trkpt lat="62.05059" lon="5.60409">
        <ele>20.13213</ele>
        <time>2020-07-16T12:01:18.855Z</time>
      </trkpt>
      <trkpt lat="62.05049" lon="5.60424">
        <ele>20.042696</ele>
        <time>2020-07-16T12:01:21.140Z</time>
      </trkpt>
      <trkpt lat="62.05032" lon="5.60458">
        <ele>19.871684</ele>
        <time>2020-07-16T12:01:24.773Z</time>
      </trkpt>
      <trkpt lat="62.0502" lon="5.60486">
        <ele>19.745041</ele>
        <time>2020-07-16T12:01:27.767Z</time>
      </trkpt>
      <trkpt lat="62.05012" lon="5.60511">
        <ele>19.640902</ele>
        <time>2020-07-16T12:01:29.789Z</time>
      </trkpt>
      <trkpt lat="62.04999" lon="5.60565">
        <ele>19.434677</ele>
        <time>2020-07-16T12:01:34.095Z</time>
      </trkpt>
      <trkpt lat="62.04951" lon="5.60869">
        <ele>20.453353</ele>
        <time>2020-07-16T12:01:57.663Z</time>
      </trkpt>
      <trkpt lat="62.04936" lon="5.60964">
        <ele>21.496542</ele>
        <time>2020-07-16T12:02:11.423Z</time>
      </trkpt>
      <trkpt lat="62.04929" lon="5.61004">
        <ele>21.941125</ele>
        <time>2020-07-16T12:02:17.842Z</time>
      </trkpt>
      <trkpt lat="62.04916" lon="5.61097">
        <ele>23.059382</ele>
        <time>2020-07-16T12:02:32.562Z</time>
      </trkpt>
      <trkpt lat="62.04906" lon="5.61163">
        <ele>24.534653</ele>
        <time>2020-07-16T12:02:43.879Z</time>
      </trkpt>
      <trkpt lat="62.04902" lon="5.61196">
        <ele>25.253733</ele>
        <time>2020-07-16T12:02:50.426Z</time>
      </trkpt>
      <trkpt lat="62.04894" lon="5.61347">
        <ele>28.481876</ele>
        <time>2020-07-16T12:03:17.158Z</time>
      </trkpt>
      <trkpt lat="62.04907" lon="5.61603">
        <ele>30.228706</ele>
        <time>2020-07-16T12:03:47.075Z</time>
      </trkpt>
      <trkpt lat="62.04918" lon="5.61698">
        <ele>29.674014</ele>
        <time>2020-07-16T12:03:53.755Z</time>
      </trkpt>
      <trkpt lat="62.04937" lon="5.61806">
        <ele>29.025029</ele>
        <time>2020-07-16T12:04:00.636Z</time>
      </trkpt>
      <trkpt lat="62.04951" lon="5.61857">
        <ele>28.146924</ele>
        <time>2020-07-16T12:04:04.007Z</time>
      </trkpt>
      <trkpt lat="62.04975" lon="5.61893">
        <ele>26.558992</ele>
        <time>2020-07-16T12:04:07.554Z</time>
      </trkpt>
      <trkpt lat="62.05043" lon="5.61917">
        <ele>22.774313</ele>
        <time>2020-07-16T12:04:15.714Z</time>
      </trkpt>
      <trkpt lat="62.05057" lon="5.61921">
        <ele>22.025005</ele>
        <time>2020-07-16T12:04:17.257Z</time>
      </trkpt>
      <trkpt lat="62.05072" lon="5.61928">
        <ele>21.176818</ele>
        <time>2020-07-16T12:04:19.169Z</time>
      </trkpt>
      <trkpt lat="62.05083" lon="5.61935">
        <ele>20.577909</ele>
        <time>2020-07-16T12:04:20.468Z</time>
      </trkpt>
      <trkpt lat="62.05114" lon="5.61963">
        <ele>18.786916</ele>
        <time>2020-07-16T12:04:24.577Z</time>
      </trkpt>
      <trkpt lat="62.05131" lon="5.61984">
        <ele>17.955168</ele>
        <time>2020-07-16T12:04:26.922Z</time>
      </trkpt>
      <trkpt lat="62.05133" lon="5.61975">
        <ele>17.765444</ele>
        <time>2020-07-16T12:04:27.705Z</time>
      </trkpt>
      <trkpt lat="62.05161" lon="5.62004">
        <ele>16.442624</ele>
        <time>2020-07-16T12:04:31.661Z</time>
      </trkpt>
      <trkpt lat="62.05282" lon="5.62155">
        <ele>11.151453</ele>
        <time>2020-07-16T12:04:50.347Z</time>
      </trkpt>
      <trkpt lat="62.0529" lon="5.62166">
        <ele>11.011931</ele>
        <time>2020-07-16T12:04:51.673Z</time>
      </trkpt>
      <trkpt lat="62.05295" lon="5.62172">
        <ele>10.930743</ele>
        <time>2020-07-16T12:04:52.551Z</time>
      </trkpt>
      <trkpt lat="62.05303" lon="5.62183">
        <ele>10.800379</ele>
        <time>2020-07-16T12:04:53.920Z</time>
      </trkpt>
      <trkpt lat="62.05328" lon="5.62214">
        <ele>10.398847</ele>
        <time>2020-07-16T12:04:58.187Z</time>
      </trkpt>
      <trkpt lat="62.0536" lon="5.62255">
        <ele>9.873899</ele>
        <time>2020-07-16T12:05:04.039Z</time>
      </trkpt>
      <trkpt lat="62.05374" lon="5.62271">
        <ele>9.655548</ele>
        <time>2020-07-16T12:05:06.833Z</time>
      </trkpt>
      <trkpt lat="62.05407" lon="5.62287">
        <ele>9.180589</ele>
        <time>2020-07-16T12:05:12.949Z</time>
      </trkpt>
      <trkpt lat="62.05441" lon="5.62277">
        <ele>9.343408</ele>
        <time>2020-07-16T12:05:19.494Z</time>
      </trkpt>
      <trkpt lat="62.05466" lon="5.62256">
        <ele>10.010232</ele>
        <time>2020-07-16T12:05:25.890Z</time>
      </trkpt>
      <trkpt lat="62.05479" lon="5.62245">
        <ele>10.349168</ele>
        <time>2020-07-16T12:05:28.985Z</time>
      </trkpt>
      <trkpt lat="62.05491" lon="5.62236">
        <ele>10.660366</ele>
        <time>2020-07-16T12:05:31.771Z</time>
      </trkpt>
      <trkpt lat="62.05493" lon="5.62242">
        <ele>10.737945</ele>
        <time>2020-07-16T12:05:33.256Z</time>
      </trkpt>
      <trkpt lat="62.05494" lon="5.62249">
        <ele>10.818663</ele>
        <time>2020-07-16T12:05:34.753Z</time>
      </trkpt>
      <trkpt lat="62.05501" lon="5.62241">
        <ele>11.021794</ele>
        <time>2020-07-16T12:05:36.720Z</time>
      </trkpt>
      <trkpt lat="62.0552" lon="5.62224">
        <ele>11.522128</ele>
        <time>2020-07-16T12:05:41.219Z</time>
      </trkpt>
      <trkpt lat="62.05522" lon="5.62228">
        <ele>11.57831</ele>
        <time>2020-07-16T12:05:42.449Z</time>
      </trkpt>
      <trkpt lat="62.0553" lon="5.6223">
        <ele>11.783497</ele>
        <time>2020-07-16T12:05:45.476Z</time>
      </trkpt>
      <trkpt lat="62.05621" lon="5.62148">
        <ele>14.804032</ele>
        <time>2020-07-16T12:06:14.805Z</time>
      </trkpt>
      <trkpt lat="62.05623" lon="5.62145">
        <ele>14.933033</ele>
        <time>2020-07-16T12:06:16.347Z</time>
      </trkpt>
      <trkpt lat="62.05625" lon="5.62149">
        <ele>15.052366</ele>
        <time>2020-07-16T12:06:17.660Z</time>
      </trkpt>
      <trkpt lat="62.05632" lon="5.62159">
        <ele>15.391643</ele>
        <time>2020-07-16T12:06:19.891Z</time>
      </trkpt>
      <trkpt lat="62.05642" lon="5.62157">
        <ele>15.810982</ele>
        <time>2020-07-16T12:06:23.037Z</time>
      </trkpt>
      <trkpt lat="62.0569" lon="5.62101">
        <ele>18.106188</ele>
        <time>2020-07-16T12:06:40.271Z</time>
      </trkpt>
      <trkpt lat="62.05701" lon="5.6209">
        <ele>18.609512</ele>
        <time>2020-07-16T12:06:43.705Z</time>
      </trkpt>
      <trkpt lat="62.05701" lon="5.62087">
        <ele>18.679152</ele>
        <time>2020-07-16T12:06:44.655Z</time>
      </trkpt>
      <trkpt lat="62.05722" lon="5.62054">
        <ele>19.763818</ele>
        <time>2020-07-16T12:06:53.211Z</time>
      </trkpt>
      <trkpt lat="62.05759" lon="5.62036">
        <ele>21.298998</ele>
        <time>2020-07-16T12:07:06.536Z</time>
      </trkpt>
      <trkpt lat="62.05802" lon="5.62037">
        <ele>22.793222</ele>
        <time>2020-07-16T12:07:20.536Z</time>
      </trkpt>
      <trkpt lat="62.05846" lon="5.62055">
        <ele>24.399549</ele>
        <time>2020-07-16T12:07:35.292Z</time>
      </trkpt>
      <trkpt lat="62.05856" lon="5.62058">
        <ele>24.748771</ele>
        <time>2020-07-16T12:07:38.964Z</time>
      </trkpt>
      <trkpt lat="62.05856" lon="5.62048">
        <ele>24.90806</ele>
        <time>2020-07-16T12:07:40.135Z</time>
      </trkpt>
      <trkpt lat="62.0588" lon="5.62059">
        <ele>25.781257</ele>
        <time>2020-07-16T12:07:47.080Z</time>
      </trkpt>
      <trkpt lat="62.05911" lon="5.62076">
        <ele>26.898617</ele>
        <time>2020-07-16T12:07:54.602Z</time>
      </trkpt>
      <trkpt lat="62.05935" lon="5.62088">
        <ele>26.975468</ele>
        <time>2020-07-16T12:08:00.125Z</time>
      </trkpt>
      <trkpt lat="62.05948" lon="5.62094">
        <ele>26.793547</ele>
        <time>2020-07-16T12:08:03.107Z</time>
      </trkpt>
      <trkpt lat="62.05975" lon="5.62106">
        <ele>26.409091</ele>
        <time>2020-07-16T12:08:08.494Z</time>
      </trkpt>
      <trkpt lat="62.06005" lon="5.62123">
        <ele>25.985208</ele>
        <time>2020-07-16T12:08:13.999Z</time>
      </trkpt>
      <trkpt lat="62.06017" lon="5.62127">
        <ele>25.819926</ele>
        <time>2020-07-16T12:08:16.066Z</time>
      </trkpt>
      <trkpt lat="62.06042" lon="5.62141">
        <ele>25.462295</ele>
        <time>2020-07-16T12:08:19.688Z</time>
      </trkpt>
      <trkpt lat="62.06195" lon="5.62218">
        <ele>19.715928</ele>
        <time>2020-07-16T12:08:38.809Z</time>
      </trkpt>
      <trkpt lat="62.0621" lon="5.62225">
        <ele>18.954663</ele>
        <time>2020-07-16T12:08:40.640Z</time>
      </trkpt>
      <trkpt lat="62.06251" lon="5.62246">
        <ele>16.953146</ele>
        <time>2020-07-16T12:08:45.667Z</time>
      </trkpt>
      <trkpt lat="62.06273" lon="5.62257">
        <ele>15.898403</ele>
        <time>2020-07-16T12:08:48.491Z</time>
      </trkpt>
      <trkpt lat="62.06277" lon="5.62259">
        <ele>15.771169</ele>
        <time>2020-07-16T12:08:48.956Z</time>
      </trkpt>
      <trkpt lat="62.06299" lon="5.6227">
        <ele>15.042351</ele>
        <time>2020-07-16T12:08:51.803Z</time>
      </trkpt>
      <trkpt lat="62.06465" lon="5.62352">
        <ele>10.015174</ele>
        <time>2020-07-16T12:09:14.351Z</time>
      </trkpt>
      <trkpt lat="62.06556" lon="5.62396">
        <ele>8.850671</ele>
        <time>2020-07-16T12:09:28.875Z</time>
      </trkpt>
      <trkpt lat="62.06619" lon="5.62411">
        <ele>8.052872</ele>
        <time>2020-07-16T12:09:39.000Z</time>
      </trkpt>
      <trkpt lat="62.06633" lon="5.62412">
        <ele>7.943669</ele>
        <time>2020-07-16T12:09:41.480Z</time>
      </trkpt>
      <trkpt lat="62.06651" lon="5.62413">
        <ele>7.822608</ele>
        <time>2020-07-16T12:09:44.145Z</time>
      </trkpt>
      <trkpt lat="62.06711" lon="5.62402">
        <ele>7.398835</ele>
        <time>2020-07-16T12:09:54.044Z</time>
      </trkpt>
      <trkpt lat="62.0683" lon="5.62349">
        <ele>6.684085</ele>
        <time>2020-07-16T12:10:13.355Z</time>
      </trkpt>
      <trkpt lat="62.06855" lon="5.62337">
        <ele>6.609215</ele>
        <time>2020-07-16T12:10:17.556Z</time>
      </trkpt>
      <trkpt lat="62.07004" lon="5.62266">
        <ele>6.212016</ele>
        <time>2020-07-16T12:10:44.189Z</time>
      </trkpt>
      <trkpt lat="62.07018" lon="5.62258">
        <ele>6.191854</ele>
        <time>2020-07-16T12:10:46.977Z</time>
      </trkpt>
      <trkpt lat="62.07063" lon="5.62237">
        <ele>6.130301</ele>
        <time>2020-07-16T12:10:55.041Z</time>
      </trkpt>
      <trkpt lat="62.07103" lon="5.62217">
        <ele>6.074805</ele>
        <time>2020-07-16T12:11:02.164Z</time>
      </trkpt>
      <trkpt lat="62.07116" lon="5.62211">
        <ele>6.056012</ele>
        <time>2020-07-16T12:11:04.605Z</time>
      </trkpt>
      <trkpt lat="62.07126" lon="5.62206">
        <ele>6.04329</ele>
        <time>2020-07-16T12:11:06.272Z</time>
      </trkpt>
      <trkpt lat="62.07134" lon="5.62203">
        <ele>6.031609</ele>
        <time>2020-07-16T12:11:07.720Z</time>
      </trkpt>
      <trkpt lat="62.07146" lon="5.62197">
        <ele>6.015561</ele>
        <time>2020-07-16T12:11:09.738Z</time>
      </trkpt>
      <trkpt lat="62.07248" lon="5.62148">
        <ele>5.27652</ele>
        <time>2020-07-16T12:11:27.170Z</time>
      </trkpt>
      <trkpt lat="62.07278" lon="5.62134">
        <ele>5.055719</ele>
        <time>2020-07-16T12:11:31.919Z</time>
      </trkpt>
      <trkpt lat="62.07328" lon="5.62111">
        <ele>4.672343</ele>
        <time>2020-07-16T12:11:39.652Z</time>
      </trkpt>
      <trkpt lat="62.07341" lon="5.62103">
        <ele>4.500873</ele>
        <time>2020-07-16T12:11:41.812Z</time>
      </trkpt>
      <trkpt lat="62.07354" lon="5.62093">
        <ele>4.340055</ele>
        <time>2020-07-16T12:11:43.747Z</time>
      </trkpt>
      <trkpt lat="62.07368" lon="5.62079">
        <ele>4.145202</ele>
        <time>2020-07-16T12:11:46.223Z</time>
      </trkpt>
      <trkpt lat="62.07395" lon="5.6205">
        <ele>3.780526</ele>
        <time>2020-07-16T12:11:50.698Z</time>
      </trkpt>
      <trkpt lat="62.07457" lon="5.61981">
        <ele>2.924645</ele>
        <time>2020-07-16T12:12:01.215Z</time>
      </trkpt>
      <trkpt lat="62.07576" lon="5.61839">
        <ele>1.593153</ele>
        <time>2020-07-16T12:12:21.967Z</time>
      </trkpt>
      <trkpt lat="62.07675" lon="5.61659">
        <ele>0.722272</ele>
        <time>2020-07-16T12:12:43.158Z</time>
      </trkpt>
      <trkpt lat="62.07726" lon="5.61562">
        <ele>0.498228</ele>
        <time>2020-07-16T12:12:54.793Z</time>
      </trkpt>
      <trkpt lat="62.07768" lon="5.61479">
        <ele>0.311975</ele>
        <time>2020-07-16T12:13:04.594Z</time>
      </trkpt>
      <trkpt lat="62.07864" lon="5.61293">
        <ele>0.190613</ele>
        <time>2020-07-16T12:13:27.326Z</time>
      </trkpt>
      <trkpt lat="62.07878" lon="5.61263">
        <ele>0.173165</ele>
        <time>2020-07-16T12:13:30.861Z</time>
      </trkpt>
      <trkpt lat="62.07892" lon="5.61236">
        <ele>0.157006</ele>
        <time>2020-07-16T12:13:34.136Z</time>
      </trkpt>
      <trkpt lat="62.07912" lon="5.61191">
        <ele>0.165898</ele>
        <time>2020-07-16T12:13:39.431Z</time>
      </trkpt>
      <trkpt lat="62.07927" lon="5.61155">
        <ele>0.19893</ele>
        <time>2020-07-16T12:13:43.553Z</time>
      </trkpt>
      <trkpt lat="62.07946" lon="5.61107">
        <ele>0.242604</ele>
        <time>2020-07-16T12:13:49.048Z</time>
      </trkpt>
      <trkpt lat="62.08042" lon="5.60851">
        <ele>0.45327</ele>
        <time>2020-07-16T12:14:17.244Z</time>
      </trkpt>
      <trkpt lat="62.08057" lon="5.60807">
        <ele>0.482024</ele>
        <time>2020-07-16T12:14:21.995Z</time>
      </trkpt>
      <trkpt lat="62.08071" lon="5.60768">
        <ele>0.507354</ele>
        <time>2020-07-16T12:14:25.961Z</time>
      </trkpt>
      <trkpt lat="62.08079" lon="5.60741">
        <ele>0.524945</ele>
        <time>2020-07-16T12:14:28.912Z</time>
      </trkpt>
      <trkpt lat="62.08109" lon="5.60637">
        <ele>0.589392</ele>
        <time>2020-07-16T12:14:39.115Z</time>
      </trkpt>
      <trkpt lat="62.08123" lon="5.60586">
        <ele>0.617245</ele>
        <time>2020-07-16T12:14:44.032Z</time>
      </trkpt>
      <trkpt lat="62.08181" lon="5.60338">
        <ele>0.715359</ele>
        <time>2020-07-16T12:15:07.562Z</time>
      </trkpt>
      <trkpt lat="62.08193" lon="5.60285">
        <ele>0.736485</ele>
        <time>2020-07-16T12:15:12.651Z</time>
      </trkpt>
      <trkpt lat="62.08202" lon="5.60245">
        <ele>0.751197</ele>
        <time>2020-07-16T12:15:16.590Z</time>
      </trkpt>
      <trkpt lat="62.0827" lon="5.59921">
        <ele>0.857544</ele>
        <time>2020-07-16T12:15:46.319Z</time>
      </trkpt>
      <trkpt lat="62.0828" lon="5.59849">
        <ele>0.942142</ele>
        <time>2020-07-16T12:15:52.789Z</time>
      </trkpt>
      <trkpt lat="62.08329" lon="5.59499">
        <ele>1.795251</ele>
        <time>2020-07-16T12:16:24.262Z</time>
      </trkpt>
      <trkpt lat="62.08341" lon="5.59418">
        <ele>2.647557</ele>
        <time>2020-07-16T12:16:33.210Z</time>
      </trkpt>
      <trkpt lat="62.08355" lon="5.59324">
        <ele>3.655661</ele>
        <time>2020-07-16T12:16:44.623Z</time>
      </trkpt>
      <trkpt lat="62.08398" lon="5.59051">
        <ele>7.576022</ele>
        <time>2020-07-16T12:17:23.271Z</time>
      </trkpt>
      <trkpt lat="62.08413" lon="5.58952">
        <ele>9.424514</ele>
        <time>2020-07-16T12:17:39.095Z</time>
      </trkpt>
      <trkpt lat="62.08443" lon="5.58759">
        <ele>12.778755</ele>
        <time>2020-07-16T12:18:07.972Z</time>
      </trkpt>
      <trkpt lat="62.0845" lon="5.58719">
        <ele>13.321932</ele>
        <time>2020-07-16T12:18:13.271Z</time>
      </trkpt>
      <trkpt lat="62.08476" lon="5.58548">
        <ele>15.61569</ele>
        <time>2020-07-16T12:18:35.294Z</time>
      </trkpt>
      <trkpt lat="62.0849" lon="5.58457">
        <ele>16.839797</ele>
        <time>2020-07-16T12:18:46.251Z</time>
      </trkpt>
      <trkpt lat="62.08501" lon="5.58394">
        <ele>17.528436</ele>
        <time>2020-07-16T12:18:53.639Z</time>
      </trkpt>
      <trkpt lat="62.08511" lon="5.58335">
        <ele>18.136498</ele>
        <time>2020-07-16T12:19:01.351Z</time>
      </trkpt>
      <trkpt lat="62.08534" lon="5.58232">
        <ele>19.249867</ele>
        <time>2020-07-16T12:19:14.696Z</time>
      </trkpt>
      <trkpt lat="62.08566" lon="5.58116">
        <ele>20.56152</ele>
        <time>2020-07-16T12:19:29.546Z</time>
      </trkpt>
      <trkpt lat="62.08567" lon="5.58114">
        <ele>20.580185</ele>
        <time>2020-07-16T12:19:30.367Z</time>
      </trkpt>
      <trkpt lat="62.08581" lon="5.5807">
        <ele>20.941908</ele>
        <time>2020-07-16T12:19:36.378Z</time>
      </trkpt>
      <trkpt lat="62.08619" lon="5.57949">
        <ele>21.785815</ele>
        <time>2020-07-16T12:19:51.884Z</time>
      </trkpt>
      <trkpt lat="62.08628" lon="5.57918">
        <ele>21.994987</ele>
        <time>2020-07-16T12:19:55.716Z</time>
      </trkpt>
      <trkpt lat="62.08642" lon="5.57872">
        <ele>22.31072</ele>
        <time>2020-07-16T12:20:00.820Z</time>
      </trkpt>
      <trkpt lat="62.08678" lon="5.57758">
        <ele>23.056183</ele>
        <time>2020-07-16T12:20:13.750Z</time>
      </trkpt>
      <trkpt lat="62.0868" lon="5.57752">
        <ele>23.087867</ele>
        <time>2020-07-16T12:20:14.298Z</time>
      </trkpt>
      <trkpt lat="62.08696" lon="5.57712">
        <ele>23.302869</ele>
        <time>2020-07-16T12:20:18.920Z</time>
      </trkpt>
      <trkpt lat="62.087" lon="5.577">
        <ele>23.369841</ele>
        <time>2020-07-16T12:20:20.514Z</time>
      </trkpt>
      <trkpt lat="62.08707" lon="5.57682">
        <ele>23.463866</ele>
        <time>2020-07-16T12:20:22.722Z</time>
      </trkpt>
      <trkpt lat="62.08725" lon="5.57642">
        <ele>23.694786</ele>
        <time>2020-07-16T12:20:28.067Z</time>
      </trkpt>
      <trkpt lat="62.08748" lon="5.57594">
        <ele>23.981608</ele>
        <time>2020-07-16T12:20:34.678Z</time>
      </trkpt>
      <trkpt lat="62.08761" lon="5.57569">
        <ele>24.133865</ele>
        <time>2020-07-16T12:20:38.238Z</time>
      </trkpt>
      <trkpt lat="62.08768" lon="5.57557">
        <ele>24.216358</ele>
        <time>2020-07-16T12:20:39.997Z</time>
      </trkpt>
      <trkpt lat="62.08783" lon="5.57534">
        <ele>24.376442</ele>
        <time>2020-07-16T12:20:43.638Z</time>
      </trkpt>
      <trkpt lat="62.08796" lon="5.57515">
        <ele>24.516762</ele>
        <time>2020-07-16T12:20:47.058Z</time>
      </trkpt>
      <trkpt lat="62.08809" lon="5.57498">
        <ele>24.666204</ele>
        <time>2020-07-16T12:20:50.597Z</time>
      </trkpt>
      <trkpt lat="62.08822" lon="5.57482">
        <ele>24.818601</ele>
        <time>2020-07-16T12:20:54.177Z</time>
      </trkpt>
      <trkpt lat="62.08869" lon="5.57438">
        <ele>25.329289</ele>
        <time>2020-07-16T12:21:06.315Z</time>
      </trkpt>
      <trkpt lat="62.08924" lon="5.57414">
        <ele>25.882964</ele>
        <time>2020-07-16T12:21:18.874Z</time>
      </trkpt>
      <trkpt lat="62.08933" lon="5.57413">
        <ele>25.977413</ele>
        <time>2020-07-16T12:21:21.039Z</time>
      </trkpt>
      <trkpt lat="62.0894" lon="5.57412">
        <ele>26.045079</ele>
        <time>2020-07-16T12:21:22.720Z</time>
      </trkpt>
      <trkpt lat="62.09064" lon="5.57428">
        <ele>23.898693</ele>
        <time>2020-07-16T12:21:41.819Z</time>
      </trkpt>
      <trkpt lat="62.09098" lon="5.57418">
        <ele>23.037283</ele>
        <time>2020-07-16T12:21:46.242Z</time>
      </trkpt>
      <trkpt lat="62.09107" lon="5.57413">
        <ele>22.795548</ele>
        <time>2020-07-16T12:21:47.354Z</time>
      </trkpt>
      <trkpt lat="62.09126" lon="5.57403">
        <ele>22.312172</ele>
        <time>2020-07-16T12:21:49.820Z</time>
      </trkpt>
      <trkpt lat="62.09149" lon="5.57386">
        <ele>21.608498</ele>
        <time>2020-07-16T12:21:52.746Z</time>
      </trkpt>
      <trkpt lat="62.09195" lon="5.57353">
        <ele>19.573624</ele>
        <time>2020-07-16T12:21:58.632Z</time>
      </trkpt>
      <trkpt lat="62.09204" lon="5.57347">
        <ele>19.153154</ele>
        <time>2020-07-16T12:21:59.857Z</time>
      </trkpt>
      <trkpt lat="62.09218" lon="5.5734">
        <ele>18.557827</ele>
        <time>2020-07-16T12:22:01.437Z</time>
      </trkpt>
      <trkpt lat="62.09228" lon="5.57336">
        <ele>18.138501</ele>
        <time>2020-07-16T12:22:02.732Z</time>
      </trkpt>
      <trkpt lat="62.09265" lon="5.57328">
        <ele>16.550602</ele>
        <time>2020-07-16T12:22:07.245Z</time>
      </trkpt>
      <trkpt lat="62.09275" lon="5.57327">
        <ele>16.09887</ele>
        <time>2020-07-16T12:22:08.604Z</time>
      </trkpt>
      <trkpt lat="62.09287" lon="5.57326">
        <ele>15.604957</ele>
        <time>2020-07-16T12:22:09.957Z</time>
      </trkpt>
      <trkpt lat="62.0942" lon="5.57341">
        <ele>13.684765</ele>
        <time>2020-07-16T12:22:28.943Z</time>
      </trkpt>
      <trkpt lat="62.09468" lon="5.57356">
        <ele>13.453762</ele>
        <time>2020-07-16T12:22:38.944Z</time>
      </trkpt>
      <trkpt lat="62.09526" lon="5.57401">
        <ele>14.122292</ele>
        <time>2020-07-16T12:22:54.427Z</time>
      </trkpt>
      <trkpt lat="62.09569" lon="5.57457">
        <ele>15.503353</ele>
        <time>2020-07-16T12:23:07.275Z</time>
      </trkpt>
      <trkpt lat="62.09577" lon="5.5747">
        <ele>15.773066</ele>
        <time>2020-07-16T12:23:10.380Z</time>
      </trkpt>
      <trkpt lat="62.0958" lon="5.57476">
        <ele>15.906441</ele>
        <time>2020-07-16T12:23:11.741Z</time>
      </trkpt>
      <trkpt lat="62.09591" lon="5.57497">
        <ele>16.300482</ele>
        <time>2020-07-16T12:23:15.118Z</time>
      </trkpt>
      <trkpt lat="62.09609" lon="5.57539">
        <ele>17.036086</ele>
        <time>2020-07-16T12:23:22.511Z</time>
      </trkpt>
      <trkpt lat="62.09616" lon="5.57557">
        <ele>17.347106</ele>
        <time>2020-07-16T12:23:25.382Z</time>
      </trkpt>
      <trkpt lat="62.09626" lon="5.57583">
        <ele>17.780095</ele>
        <time>2020-07-16T12:23:30.131Z</time>
      </trkpt>
      <trkpt lat="62.09636" lon="5.57615">
        <ele>18.274697</ele>
        <time>2020-07-16T12:23:34.941Z</time>
      </trkpt>
      <trkpt lat="62.09641" lon="5.57631">
        <ele>18.624756</ele>
        <time>2020-07-16T12:23:37.502Z</time>
      </trkpt>
      <trkpt lat="62.09661" lon="5.57724">
        <ele>20.468694</ele>
        <time>2020-07-16T12:23:52.293Z</time>
      </trkpt>
      <trkpt lat="62.09668" lon="5.5776">
        <ele>21.16546</ele>
        <time>2020-07-16T12:23:57.474Z</time>
      </trkpt>
      <trkpt lat="62.09674" lon="5.57794">
        <ele>21.815602</ele>
        <time>2020-07-16T12:24:02.196Z</time>
      </trkpt>
      <trkpt lat="62.09756" lon="5.58249">
        <ele>31.317189</ele>
        <time>2020-07-16T12:25:13.778Z</time>
      </trkpt>
      <trkpt lat="62.09776" lon="5.5837">
        <ele>33.904439</ele>
        <time>2020-07-16T12:25:33.819Z</time>
      </trkpt>
      <trkpt lat="62.09794" lon="5.58534">
        <ele>37.263836</ele>
        <time>2020-07-16T12:25:59.523Z</time>
      </trkpt>
      <trkpt lat="62.09807" lon="5.58716">
        <ele>40.873398</ele>
        <time>2020-07-16T12:26:25.973Z</time>
      </trkpt>
      <trkpt lat="62.09839" lon="5.59154">
        <ele>47.635496</ele>
        <time>2020-07-16T12:27:23.151Z</time>
      </trkpt>
      <trkpt lat="62.09858" lon="5.59401">
        <ele>51.845723</ele>
        <time>2020-07-16T12:27:57.070Z</time>
      </trkpt>
      <trkpt lat="62.09865" lon="5.59505">
        <ele>54.14473</ele>
        <time>2020-07-16T12:28:12.719Z</time>
      </trkpt>
      <trkpt lat="62.09877" lon="5.59667">
        <ele>58.865186</ele>
        <time>2020-07-16T12:28:38.294Z</time>
      </trkpt>
      <trkpt lat="62.09906" lon="5.59975">
        <ele>69.310479</ele>
        <time>2020-07-16T12:29:42.313Z</time>
      </trkpt>
      <trkpt lat="62.09917" lon="5.60066">
        <ele>72.994989</ele>
        <time>2020-07-16T12:30:02.731Z</time>
      </trkpt>
      <trkpt lat="62.09925" lon="5.60128">
        <ele>75.499616</ele>
        <time>2020-07-16T12:30:17.171Z</time>
      </trkpt>
      <trkpt lat="62.09987" lon="5.60532">
        <ele>90.189827</ele>
        <time>2020-07-16T12:31:42.626Z</time>
      </trkpt>
      <trkpt lat="62.10004" lon="5.60653">
        <ele>92.6299</ele>
        <time>2020-07-16T12:32:01.229Z</time>
      </trkpt>
      <trkpt lat="62.10018" lon="5.60757">
        <ele>93.768686</ele>
        <time>2020-07-16T12:32:14.952Z</time>
      </trkpt>
      <trkpt lat="62.10023" lon="5.60793">
        <ele>94.163562</ele>
        <time>2020-07-16T12:32:19.320Z</time>
      </trkpt>
      <trkpt lat="62.10058" lon="5.61173">
        <ele>95.300445</ele>
        <time>2020-07-16T12:32:52.535Z</time>
      </trkpt>
      <trkpt lat="62.10118" lon="5.61681">
        <ele>92.732963</ele>
        <time>2020-07-16T12:33:28.637Z</time>
      </trkpt>
      <trkpt lat="62.10142" lon="5.6192">
        <ele>92.328282</ele>
        <time>2020-07-16T12:33:48.394Z</time>
      </trkpt>
      <trkpt lat="62.10148" lon="5.61999">
        <ele>92.223999</ele>
        <time>2020-07-16T12:33:55.095Z</time>
      </trkpt>
      <trkpt lat="62.10154" lon="5.62088">
        <ele>92.089639</ele>
        <time>2020-07-16T12:34:02.638Z</time>
      </trkpt>
      <trkpt lat="62.10159" lon="5.62201">
        <ele>91.761521</ele>
        <time>2020-07-16T12:34:11.773Z</time>
      </trkpt>
      <trkpt lat="62.1016" lon="5.6224">
        <ele>91.64819</ele>
        <time>2020-07-16T12:34:14.754Z</time>
      </trkpt>
      <trkpt lat="62.10162" lon="5.62317">
        <ele>91.425975</ele>
        <time>2020-07-16T12:34:20.587Z</time>
      </trkpt>
      <trkpt lat="62.10163" lon="5.62415">
        <ele>91.145503</ele>
        <time>2020-07-16T12:34:27.728Z</time>
      </trkpt>
      <trkpt lat="62.10164" lon="5.62462">
        <ele>91.006495</ele>
        <time>2020-07-16T12:34:31.110Z</time>
      </trkpt>
      <trkpt lat="62.10164" lon="5.62647">
        <ele>90.319395</ele>
        <time>2020-07-16T12:34:44.440Z</time>
      </trkpt>
      <trkpt lat="62.10164" lon="5.63068">
        <ele>89.777876</ele>
        <time>2020-07-16T12:35:16.798Z</time>
      </trkpt>
      <trkpt lat="62.10165" lon="5.63441">
        <ele>91.520573</ele>
        <time>2020-07-16T12:35:54.362Z</time>
      </trkpt>
      <trkpt lat="62.10166" lon="5.6349">
        <ele>91.893092</ele>
        <time>2020-07-16T12:36:00.065Z</time>
      </trkpt>
      <trkpt lat="62.10168" lon="5.63546">
        <ele>92.318753</ele>
        <time>2020-07-16T12:36:06.811Z</time>
      </trkpt>
      <trkpt lat="62.10179" lon="5.63837">
        <ele>94.347751</ele>
        <time>2020-07-16T12:36:40.185Z</time>
      </trkpt>
      <trkpt lat="62.10181" lon="5.63878">
        <ele>94.626373</ele>
        <time>2020-07-16T12:36:44.506Z</time>
      </trkpt>
      <trkpt lat="62.10189" lon="5.64074">
        <ele>95.405357</ele>
        <time>2020-07-16T12:37:02.110Z</time>
      </trkpt>
      <trkpt lat="62.10192" lon="5.64134">
        <ele>95.387969</ele>
        <time>2020-07-16T12:37:07.223Z</time>
      </trkpt>
      <trkpt lat="62.10202" lon="5.64352">
        <ele>95.3247</ele>
        <time>2020-07-16T12:37:24.876Z</time>
      </trkpt>
      <trkpt lat="62.10216" lon="5.64499">
        <ele>94.642928</ele>
        <time>2020-07-16T12:37:36.433Z</time>
      </trkpt>
      <trkpt lat="62.1022" lon="5.64534">
        <ele>94.444745</ele>
        <time>2020-07-16T12:37:39.372Z</time>
      </trkpt>
      <trkpt lat="62.10228" lon="5.64593">
        <ele>94.110078</ele>
        <time>2020-07-16T12:37:43.829Z</time>
      </trkpt>
      <trkpt lat="62.10259" lon="5.64764">
        <ele>92.990541</ele>
        <time>2020-07-16T12:37:56.063Z</time>
      </trkpt>
      <trkpt lat="62.10294" lon="5.64908">
        <ele>91.043616</ele>
        <time>2020-07-16T12:38:06.426Z</time>
      </trkpt>
      <trkpt lat="62.10315" lon="5.64982">
        <ele>90.01112</ele>
        <time>2020-07-16T12:38:11.822Z</time>
      </trkpt>
      <trkpt lat="62.10335" lon="5.65053">
        <ele>89.030929</ele>
        <time>2020-07-16T12:38:16.986Z</time>
      </trkpt>
      <trkpt lat="62.10524" lon="5.65739">
        <ele>78.148751</ele>
        <time>2020-07-16T12:39:06.779Z</time>
      </trkpt>
      <trkpt lat="62.10533" lon="5.65776">
        <ele>77.394068</ele>
        <time>2020-07-16T12:39:09.162Z</time>
      </trkpt>
      <trkpt lat="62.10542" lon="5.65808">
        <ele>76.679165</ele>
        <time>2020-07-16T12:39:11.414Z</time>
      </trkpt>
      <trkpt lat="62.1056" lon="5.65872">
        <ele>75.299663</ele>
        <time>2020-07-16T12:39:15.663Z</time>
      </trkpt>
      <trkpt lat="62.10734" lon="5.66504">
        <ele>60.834702</ele>
        <time>2020-07-16T12:39:58.745Z</time>
      </trkpt>
      <trkpt lat="62.10749" lon="5.66557">
        <ele>59.378723</ele>
        <time>2020-07-16T12:40:02.413Z</time>
      </trkpt>
      <trkpt lat="62.10759" lon="5.66594">
        <ele>58.359575</ele>
        <time>2020-07-16T12:40:04.811Z</time>
      </trkpt>
      <trkpt lat="62.10789" lon="5.66682">
        <ele>55.849556</ele>
        <time>2020-07-16T12:40:10.866Z</time>
      </trkpt>
      <trkpt lat="62.10827" lon="5.66767">
        <ele>52.603494</ele>
        <time>2020-07-16T12:40:17.401Z</time>
      </trkpt>
      <trkpt lat="62.10838" lon="5.66786">
        <ele>51.645875</ele>
        <time>2020-07-16T12:40:19.120Z</time>
      </trkpt>
      <trkpt lat="62.10842" lon="5.66775">
        <ele>51.210677</ele>
        <time>2020-07-16T12:40:20.001Z</time>
      </trkpt>
      <trkpt lat="62.10843" lon="5.66773">
        <ele>51.146183</ele>
        <time>2020-07-16T12:40:20.126Z</time>
      </trkpt>
      <trkpt lat="62.1085" lon="5.66786">
        <ele>50.517672</ele>
        <time>2020-07-16T12:40:21.142Z</time>
      </trkpt>
      <trkpt lat="62.10902" lon="5.66862">
        <ele>46.241931</ele>
        <time>2020-07-16T12:40:29.088Z</time>
      </trkpt>
      <trkpt lat="62.10964" lon="5.66928">
        <ele>41.666903</ele>
        <time>2020-07-16T12:40:37.206Z</time>
      </trkpt>
      <trkpt lat="62.10963" lon="5.66938">
        <ele>41.381566</ele>
        <time>2020-07-16T12:40:37.737Z</time>
      </trkpt>
      <trkpt lat="62.10962" lon="5.66943">
        <ele>41.218279</ele>
        <time>2020-07-16T12:40:38.010Z</time>
      </trkpt>
      <trkpt lat="62.10961" lon="5.66952">
        <ele>40.915656</ele>
        <time>2020-07-16T12:40:38.535Z</time>
      </trkpt>
      <trkpt lat="62.11022" lon="5.67012">
        <ele>36.586582</ele>
        <time>2020-07-16T12:40:46.836Z</time>
      </trkpt>
      <trkpt lat="62.1103" lon="5.67004">
        <ele>36.037021</ele>
        <time>2020-07-16T12:40:47.906Z</time>
      </trkpt>
      <trkpt lat="62.11031" lon="5.66999">
        <ele>35.857409</ele>
        <time>2020-07-16T12:40:48.235Z</time>
      </trkpt>
      <trkpt lat="62.11034" lon="5.67001">
        <ele>35.653818</ele>
        <time>2020-07-16T12:40:48.629Z</time>
      </trkpt>
      <trkpt lat="62.11066" lon="5.67023">
        <ele>33.490863</ele>
        <time>2020-07-16T12:40:52.582Z</time>
      </trkpt>
      <trkpt lat="62.11137" lon="5.6706">
        <ele>29.243886</ele>
        <time>2020-07-16T12:41:01.375Z</time>
      </trkpt>
      <trkpt lat="62.11223" lon="5.6709">
        <ele>24.942145</ele>
        <time>2020-07-16T12:41:11.885Z</time>
      </trkpt>
      <trkpt lat="62.11263" lon="5.67099">
        <ele>22.978378</ele>
        <time>2020-07-16T12:41:16.823Z</time>
      </trkpt>
      <trkpt lat="62.11287" lon="5.67106">
        <ele>21.818282</ele>
        <time>2020-07-16T12:41:19.758Z</time>
      </trkpt>
      <trkpt lat="62.11314" lon="5.67112">
        <ele>20.658896</ele>
        <time>2020-07-16T12:41:23.130Z</time>
      </trkpt>
      <trkpt lat="62.11342" lon="5.67119">
        <ele>19.433471</ele>
        <time>2020-07-16T12:41:26.769Z</time>
      </trkpt>
      <trkpt lat="62.1135" lon="5.67121">
        <ele>19.113196</ele>
        <time>2020-07-16T12:41:27.647Z</time>
      </trkpt>
      <trkpt lat="62.11369" lon="5.67126">
        <ele>18.295913</ele>
        <time>2020-07-16T12:41:30.083Z</time>
      </trkpt>
      <trkpt lat="62.11406" lon="5.67141">
        <ele>16.708703</ele>
        <time>2020-07-16T12:41:34.704Z</time>
      </trkpt>
      <trkpt lat="62.11421" lon="5.67149">
        <ele>16.063952</ele>
        <time>2020-07-16T12:41:36.555Z</time>
      </trkpt>
      <trkpt lat="62.1144" lon="5.67159">
        <ele>15.212159</ele>
        <time>2020-07-16T12:41:39.175Z</time>
      </trkpt>
      <trkpt lat="62.1146" lon="5.6717">
        <ele>14.325051</ele>
        <time>2020-07-16T12:41:41.795Z</time>
      </trkpt>
      <trkpt lat="62.11482" lon="5.67183">
        <ele>13.507891</ele>
        <time>2020-07-16T12:41:44.756Z</time>
      </trkpt>
      <trkpt lat="62.11557" lon="5.67213">
        <ele>10.792792</ele>
        <time>2020-07-16T12:41:54.451Z</time>
      </trkpt>
      <trkpt lat="62.11613" lon="5.67225">
        <ele>8.800337</ele>
        <time>2020-07-16T12:42:01.648Z</time>
      </trkpt>
      <trkpt lat="62.11632" lon="5.67228">
        <ele>8.129032</ele>
        <time>2020-07-16T12:42:04.077Z</time>
      </trkpt>
      <trkpt lat="62.11666" lon="5.67236">
        <ele>7.375841</ele>
        <time>2020-07-16T12:42:08.612Z</time>
      </trkpt>
      <trkpt lat="62.11703" lon="5.67242">
        <ele>6.669148</ele>
        <time>2020-07-16T12:42:13.658Z</time>
      </trkpt>
      <trkpt lat="62.11711" lon="5.67243">
        <ele>6.525427</ele>
        <time>2020-07-16T12:42:14.698Z</time>
      </trkpt>
      <trkpt lat="62.11728" lon="5.67246">
        <ele>6.195448</ele>
        <time>2020-07-16T12:42:17.119Z</time>
      </trkpt>
      <trkpt lat="62.11973" lon="5.67274">
        <ele>3.404598</ele>
        <time>2020-07-16T12:42:55.022Z</time>
      </trkpt>
      <trkpt lat="62.12056" lon="5.67269">
        <ele>3.618901</ele>
        <time>2020-07-16T12:43:11.490Z</time>
      </trkpt>
      <trkpt lat="62.12071" lon="5.67269">
        <ele>3.713731</ele>
        <time>2020-07-16T12:43:14.138Z</time>
      </trkpt>
      <trkpt lat="62.12072" lon="5.67258">
        <ele>3.747506</ele>
        <time>2020-07-16T12:43:15.606Z</time>
      </trkpt>
      <trkpt lat="62.12075" lon="5.6723">
        <ele>3.834597</ele>
        <time>2020-07-16T12:43:18.391Z</time>
      </trkpt>
      <trkpt lat="62.12083" lon="5.67216">
        <ele>3.900716</ele>
        <time>2020-07-16T12:43:20.473Z</time>
      </trkpt>
      <trkpt lat="62.12139" lon="5.67184">
        <ele>4.269694</ele>
        <time>2020-07-16T12:43:32.741Z</time>
      </trkpt>
      <trkpt lat="62.12144" lon="5.6718">
        <ele>4.309087</ele>
        <time>2020-07-16T12:43:34.284Z</time>
      </trkpt>
      <trkpt lat="62.12149" lon="5.67177">
        <ele>4.337885</ele>
        <time>2020-07-16T12:43:35.128Z</time>
      </trkpt>
      <trkpt lat="62.12191" lon="5.67161">
        <ele>4.702444</ele>
        <time>2020-07-16T12:43:44.228Z</time>
      </trkpt>
      <trkpt lat="62.12197" lon="5.6716">
        <ele>4.759045</ele>
        <time>2020-07-16T12:43:45.740Z</time>
      </trkpt>
      <trkpt lat="62.12212" lon="5.67158">
        <ele>4.889349</ele>
        <time>2020-07-16T12:43:48.846Z</time>
      </trkpt>
      <trkpt lat="62.12285" lon="5.67166">
        <ele>5.541667</ele>
        <time>2020-07-16T12:44:04.525Z</time>
      </trkpt>
      <trkpt lat="62.12319" lon="5.67168">
        <ele>5.852623</ele>
        <time>2020-07-16T12:44:11.725Z</time>
      </trkpt>
      <trkpt lat="62.12336" lon="5.67167">
        <ele>5.999571</ele>
        <time>2020-07-16T12:44:15.220Z</time>
      </trkpt>
      <trkpt lat="62.12354" lon="5.67161">
        <ele>6.291553</ele>
        <time>2020-07-16T12:44:19.003Z</time>
      </trkpt>
      <trkpt lat="62.12364" lon="5.67155">
        <ele>6.467581</ele>
        <time>2020-07-16T12:44:21.449Z</time>
      </trkpt>
      <trkpt lat="62.12374" lon="5.6715">
        <ele>6.625517</ele>
        <time>2020-07-16T12:44:23.599Z</time>
      </trkpt>
      <trkpt lat="62.12379" lon="5.67148">
        <ele>6.699459</ele>
        <time>2020-07-16T12:44:24.662Z</time>
      </trkpt>
      <trkpt lat="62.12387" lon="5.67145">
        <ele>6.842177</ele>
        <time>2020-07-16T12:44:26.593Z</time>
      </trkpt>
      <trkpt lat="62.12401" lon="5.67144">
        <ele>7.054516</ele>
        <time>2020-07-16T12:44:29.645Z</time>
      </trkpt>
      <trkpt lat="62.12479" lon="5.67144">
        <ele>8.311531</ele>
        <time>2020-07-16T12:44:48.487Z</time>
      </trkpt>
      <trkpt lat="62.12548" lon="5.67179">
        <ele>9.367481</ele>
        <time>2020-07-16T12:45:07.502Z</time>
      </trkpt>
      <trkpt lat="62.12649" lon="5.67174">
        <ele>10.718249</ele>
        <time>2020-07-16T12:45:31.414Z</time>
      </trkpt>
      <trkpt lat="62.12678" lon="5.67158">
        <ele>11.128608</ele>
        <time>2020-07-16T12:45:36.732Z</time>
      </trkpt>
      <trkpt lat="62.12684" lon="5.67155">
        <ele>11.208025</ele>
        <time>2020-07-16T12:45:39.058Z</time>
      </trkpt>
      <trkpt lat="62.12696" lon="5.67153">
        <ele>11.315443</ele>
        <time>2020-07-16T12:45:40.802Z</time>
      </trkpt>
      <trkpt lat="62.12724" lon="5.67158">
        <ele>11.340187</ele>
        <time>2020-07-16T12:45:46.187Z</time>
      </trkpt>
      <trkpt lat="62.12826" lon="5.67223">
        <ele>11.432447</ele>
        <time>2020-07-16T12:46:05.990Z</time>
      </trkpt>
      <trkpt lat="62.12852" lon="5.67222">
        <ele>11.454594</ele>
        <time>2020-07-16T12:46:10.340Z</time>
      </trkpt>
      <trkpt lat="62.12868" lon="5.67221">
        <ele>11.474101</ele>
        <time>2020-07-16T12:46:12.817Z</time>
      </trkpt>
      <trkpt lat="62.12871" lon="5.67221">
        <ele>11.508821</ele>
        <time>2020-07-16T12:46:13.946Z</time>
      </trkpt>
      <trkpt lat="62.12941" lon="5.6727">
        <ele>12.369565</ele>
        <time>2020-07-16T12:46:29.529Z</time>
      </trkpt>
      <trkpt lat="62.13064" lon="5.67263">
        <ele>13.795307</ele>
        <time>2020-07-16T12:46:59.446Z</time>
      </trkpt>
      <trkpt lat="62.13195" lon="5.67297">
        <ele>15.35252</ele>
        <time>2020-07-16T12:47:28.964Z</time>
      </trkpt>
      <trkpt lat="62.13203" lon="5.67299">
        <ele>15.447706</ele>
        <time>2020-07-16T12:47:30.537Z</time>
      </trkpt>
      <trkpt lat="62.13223" lon="5.67307">
        <ele>15.672808</ele>
        <time>2020-07-16T12:47:34.597Z</time>
      </trkpt>
      <trkpt lat="62.13291" lon="5.67351">
        <ele>15.960487</ele>
        <time>2020-07-16T12:47:49.145Z</time>
      </trkpt>
      <trkpt lat="62.13391" lon="5.67342">
        <ele>16.362307</ele>
        <time>2020-07-16T12:48:08.980Z</time>
      </trkpt>
      <trkpt lat="62.13426" lon="5.67349">
        <ele>16.272529</ele>
        <time>2020-07-16T12:48:15.241Z</time>
      </trkpt>
      <trkpt lat="62.13534" lon="5.67415">
        <ele>15.777441</ele>
        <time>2020-07-16T12:48:34.392Z</time>
      </trkpt>
      <trkpt lat="62.13536" lon="5.67415">
        <ele>15.767209</ele>
        <time>2020-07-16T12:48:34.647Z</time>
      </trkpt>
      <trkpt lat="62.13543" lon="5.67415">
        <ele>15.738062</ele>
        <time>2020-07-16T12:48:35.932Z</time>
      </trkpt>
      <trkpt lat="62.13689" lon="5.67412">
        <ele>16.781967</ele>
        <time>2020-07-16T12:49:02.730Z</time>
      </trkpt>
      <trkpt lat="62.137" lon="5.67414">
        <ele>16.898581</ele>
        <time>2020-07-16T12:49:05.723Z</time>
      </trkpt>
      <trkpt lat="62.13719" lon="5.67418">
        <ele>17.090493</ele>
        <time>2020-07-16T12:49:10.231Z</time>
      </trkpt>
      <trkpt lat="62.13733" lon="5.6742">
        <ele>17.236176</ele>
        <time>2020-07-16T12:49:14.498Z</time>
      </trkpt>
      <trkpt lat="62.13754" lon="5.6742">
        <ele>17.48421</ele>
        <time>2020-07-16T12:49:20.276Z</time>
      </trkpt>
      <trkpt lat="62.13773" lon="5.67406">
        <ele>18.307806</ele>
        <time>2020-07-16T12:49:26.377Z</time>
      </trkpt>
      <trkpt lat="62.13802" lon="5.6736">
        <ele>19.84292</ele>
        <time>2020-07-16T12:49:37.862Z</time>
      </trkpt>
      <trkpt lat="62.13937" lon="5.67204">
        <ele>25.604313</ele>
        <time>2020-07-16T12:50:30.231Z</time>
      </trkpt>
      <trkpt lat="62.14034" lon="5.67098">
        <ele>27.594913</ele>
        <time>2020-07-16T12:50:57.675Z</time>
      </trkpt>
      <trkpt lat="62.14076" lon="5.67067">
        <ele>28.284363</ele>
        <time>2020-07-16T12:51:05.023Z</time>
      </trkpt>
      <trkpt lat="62.141" lon="5.67053">
        <ele>27.766429</ele>
        <time>2020-07-16T12:51:09.126Z</time>
      </trkpt>
      <trkpt lat="62.14113" lon="5.67045">
        <ele>27.482671</ele>
        <time>2020-07-16T12:51:10.991Z</time>
      </trkpt>
      <trkpt lat="62.14298" lon="5.66884">
        <ele>23.689337</ele>
        <time>2020-07-16T12:51:39.510Z</time>
      </trkpt>
      <trkpt lat="62.14331" lon="5.66869">
        <ele>23.190814</ele>
        <time>2020-07-16T12:51:44.931Z</time>
      </trkpt>
      <trkpt lat="62.14361" lon="5.66806">
        <ele>22.572188</ele>
        <time>2020-07-16T12:51:51.765Z</time>
      </trkpt>
      <trkpt lat="62.14365" lon="5.66795">
        <ele>22.466978</ele>
        <time>2020-07-16T12:51:52.913Z</time>
      </trkpt>
      <trkpt lat="62.14374" lon="5.66774">
        <ele>22.272318</ele>
        <time>2020-07-16T12:51:55.355Z</time>
      </trkpt>
      <trkpt lat="62.14404" lon="5.66709">
        <ele>21.573006</ele>
        <time>2020-07-16T12:52:02.482Z</time>
      </trkpt>
      <trkpt lat="62.14408" lon="5.66702">
        <ele>21.48829</ele>
        <time>2020-07-16T12:52:03.427Z</time>
      </trkpt>
      <trkpt lat="62.14419" lon="5.66688">
        <ele>21.253668</ele>
        <time>2020-07-16T12:52:05.421Z</time>
      </trkpt>
      <trkpt lat="62.14426" lon="5.66679">
        <ele>21.098673</ele>
        <time>2020-07-16T12:52:06.858Z</time>
      </trkpt>
      <trkpt lat="62.14436" lon="5.66668">
        <ele>20.902493</ele>
        <time>2020-07-16T12:52:08.524Z</time>
      </trkpt>
      <trkpt lat="62.14442" lon="5.66662">
        <ele>20.771554</ele>
        <time>2020-07-16T12:52:09.653Z</time>
      </trkpt>
      <trkpt lat="62.14508" lon="5.66556">
        <ele>19.273415</ele>
        <time>2020-07-16T12:52:21.796Z</time>
      </trkpt>
      <trkpt lat="62.14519" lon="5.66545">
        <ele>19.057205</ele>
        <time>2020-07-16T12:52:23.434Z</time>
      </trkpt>
      <trkpt lat="62.14556" lon="5.66518">
        <ele>18.293864</ele>
        <time>2020-07-16T12:52:28.944Z</time>
      </trkpt>
      <trkpt lat="62.1456" lon="5.66514">
        <ele>18.20617</ele>
        <time>2020-07-16T12:52:29.537Z</time>
      </trkpt>
      <trkpt lat="62.14568" lon="5.66508">
        <ele>18.030884</ele>
        <time>2020-07-16T12:52:30.733Z</time>
      </trkpt>
      <trkpt lat="62.14572" lon="5.66506">
        <ele>17.948821</ele>
        <time>2020-07-16T12:52:31.246Z</time>
      </trkpt>
      <trkpt lat="62.14587" lon="5.66499">
        <ele>17.623021</ele>
        <time>2020-07-16T12:52:33.399Z</time>
      </trkpt>
      <trkpt lat="62.14607" lon="5.66507">
        <ele>17.188299</ele>
        <time>2020-07-16T12:52:36.435Z</time>
      </trkpt>
      <trkpt lat="62.14614" lon="5.66506">
        <ele>17.058208</ele>
        <time>2020-07-16T12:52:37.318Z</time>
      </trkpt>
      <trkpt lat="62.14622" lon="5.66502">
        <ele>16.880304</ele>
        <time>2020-07-16T12:52:38.618Z</time>
      </trkpt>
      <trkpt lat="62.14652" lon="5.66471">
        <ele>16.176998</ele>
        <time>2020-07-16T12:52:43.625Z</time>
      </trkpt>
      <trkpt lat="62.14665" lon="5.66458">
        <ele>15.880737</ele>
        <time>2020-07-16T12:52:45.842Z</time>
      </trkpt>
      <trkpt lat="62.14685" lon="5.66439">
        <ele>15.431215</ele>
        <time>2020-07-16T12:52:48.909Z</time>
      </trkpt>
      <trkpt lat="62.14713" lon="5.66405">
        <ele>14.85463</ele>
        <time>2020-07-16T12:52:53.818Z</time>
      </trkpt>
      <trkpt lat="62.14735" lon="5.66375">
        <ele>14.64671</ele>
        <time>2020-07-16T12:52:58.160Z</time>
      </trkpt>
      <trkpt lat="62.14746" lon="5.66361">
        <ele>14.549153</ele>
        <time>2020-07-16T12:53:00.216Z</time>
      </trkpt>
      <trkpt lat="62.14781" lon="5.6632">
        <ele>14.23348</ele>
        <time>2020-07-16T12:53:07.050Z</time>
      </trkpt>
      <trkpt lat="62.14789" lon="5.66314">
        <ele>14.166564</ele>
        <time>2020-07-16T12:53:08.810Z</time>
      </trkpt>
      <trkpt lat="62.14797" lon="5.66313">
        <ele>14.099319</ele>
        <time>2020-07-16T12:53:09.971Z</time>
      </trkpt>
      <trkpt lat="62.14831" lon="5.66317">
        <ele>13.83284</ele>
        <time>2020-07-16T12:53:15.873Z</time>
      </trkpt>
      <trkpt lat="62.14969" lon="5.66219">
        <ele>13.415737</ele>
        <time>2020-07-16T12:53:41.021Z</time>
      </trkpt>
      <trkpt lat="62.14971" lon="5.66215">
        <ele>13.413464</ele>
        <time>2020-07-16T12:53:41.406Z</time>
      </trkpt>
      <trkpt lat="62.14974" lon="5.66211">
        <ele>13.410836</ele>
        <time>2020-07-16T12:53:42.671Z</time>
      </trkpt>
      <trkpt lat="62.15028" lon="5.66076">
        <ele>13.435111</ele>
        <time>2020-07-16T12:53:58.840Z</time>
      </trkpt>
      <trkpt lat="62.15051" lon="5.66057">
        <ele>13.592043</ele>
        <time>2020-07-16T12:54:03.835Z</time>
      </trkpt>
      <trkpt lat="62.15092" lon="5.6605">
        <ele>13.861231</ele>
        <time>2020-07-16T12:54:12.645Z</time>
      </trkpt>
      <trkpt lat="62.15135" lon="5.66007">
        <ele>14.175429</ele>
        <time>2020-07-16T12:54:22.728Z</time>
      </trkpt>
      <trkpt lat="62.15161" lon="5.65969">
        <ele>14.378164</ele>
        <time>2020-07-16T12:54:29.448Z</time>
      </trkpt>
      <trkpt lat="62.15185" lon="5.659">
        <ele>14.525403</ele>
        <time>2020-07-16T12:54:37.697Z</time>
      </trkpt>
      <trkpt lat="62.15246" lon="5.65819">
        <ele>14.50499</ele>
        <time>2020-07-16T12:54:51.489Z</time>
      </trkpt>
      <trkpt lat="62.15253" lon="5.65814">
        <ele>14.502839</ele>
        <time>2020-07-16T12:54:52.971Z</time>
      </trkpt>
      <trkpt lat="62.15253" lon="5.65807">
        <ele>14.501783</ele>
        <time>2020-07-16T12:54:53.797Z</time>
      </trkpt>
      <trkpt lat="62.15259" lon="5.65773">
        <ele>14.496972</ele>
        <time>2020-07-16T12:54:56.674Z</time>
      </trkpt>
      <trkpt lat="62.15273" lon="5.65749">
        <ele>14.491978</ele>
        <time>2020-07-16T12:54:59.886Z</time>
      </trkpt>
      <trkpt lat="62.1533" lon="5.65687">
        <ele>14.383361</ele>
        <time>2020-07-16T12:55:10.716Z</time>
      </trkpt>
      <trkpt lat="62.15413" lon="5.65675">
        <ele>13.958714</ele>
        <time>2020-07-16T12:55:24.536Z</time>
      </trkpt>
      <trkpt lat="62.15455" lon="5.6566">
        <ele>13.73979</ele>
        <time>2020-07-16T12:55:31.712Z</time>
      </trkpt>
      <trkpt lat="62.15566" lon="5.65567">
        <ele>14.069476</ele>
        <time>2020-07-16T12:55:54.060Z</time>
      </trkpt>
      <trkpt lat="62.15589" lon="5.6555">
        <ele>14.220056</ele>
        <time>2020-07-16T12:55:59.237Z</time>
      </trkpt>
      <trkpt lat="62.15674" lon="5.65483">
        <ele>14.936489</ele>
        <time>2020-07-16T12:56:19.303Z</time>
      </trkpt>
      <trkpt lat="62.15716" lon="5.6545">
        <ele>15.616436</ele>
        <time>2020-07-16T12:56:30.418Z</time>
      </trkpt>
      <trkpt lat="62.15745" lon="5.65421">
        <ele>16.098147</ele>
        <time>2020-07-16T12:56:38.357Z</time>
      </trkpt>
      <trkpt lat="62.15798" lon="5.65369">
        <ele>16.973236</ele>
        <time>2020-07-16T12:56:52.193Z</time>
      </trkpt>
      <trkpt lat="62.15815" lon="5.65344">
        <ele>17.28072</ele>
        <time>2020-07-16T12:56:56.615Z</time>
      </trkpt>
      <trkpt lat="62.15827" lon="5.65322">
        <ele>17.423818</ele>
        <time>2020-07-16T12:57:00.442Z</time>
      </trkpt>
      <trkpt lat="62.15846" lon="5.65292">
        <ele>17.557399</ele>
        <time>2020-07-16T12:57:05.451Z</time>
      </trkpt>
      <trkpt lat="62.15866" lon="5.65274">
        <ele>17.679264</ele>
        <time>2020-07-16T12:57:10.083Z</time>
      </trkpt>
      <trkpt lat="62.15931" lon="5.65242">
        <ele>18.060526</ele>
        <time>2020-07-16T12:57:23.610Z</time>
      </trkpt>
      <trkpt lat="62.15961" lon="5.65183">
        <ele>18.294328</ele>
        <time>2020-07-16T12:57:30.697Z</time>
      </trkpt>
      <trkpt lat="62.15982" lon="5.65158">
        <ele>18.445939</ele>
        <time>2020-07-16T12:57:35.352Z</time>
      </trkpt>
      <trkpt lat="62.16063" lon="5.65135">
        <ele>19.12648</ele>
        <time>2020-07-16T12:57:51.900Z</time>
      </trkpt>
      <trkpt lat="62.16078" lon="5.65134">
        <ele>19.248099</ele>
        <time>2020-07-16T12:57:54.545Z</time>
      </trkpt>
      <trkpt lat="62.16104" lon="5.6511">
        <ele>19.482083</ele>
        <time>2020-07-16T12:58:01.329Z</time>
      </trkpt>
      <trkpt lat="62.16107" lon="5.65106">
        <ele>19.515073</ele>
        <time>2020-07-16T12:58:02.050Z</time>
      </trkpt>
      <trkpt lat="62.16121" lon="5.65091">
        <ele>19.643022</ele>
        <time>2020-07-16T12:58:06.911Z</time>
      </trkpt>
      <trkpt lat="62.1615" lon="5.65037">
        <ele>20.024233</ele>
        <time>2020-07-16T12:58:15.443Z</time>
      </trkpt>
      <trkpt lat="62.16184" lon="5.64932">
        <ele>20.894147</ele>
        <time>2020-07-16T12:58:27.528Z</time>
      </trkpt>
      <trkpt lat="62.16187" lon="5.64925">
        <ele>20.961543</ele>
        <time>2020-07-16T12:58:30.097Z</time>
      </trkpt>
      <trkpt lat="62.16197" lon="5.64908">
        <ele>21.147865</ele>
        <time>2020-07-16T12:58:32.978Z</time>
      </trkpt>
      <trkpt lat="62.16258" lon="5.64877">
        <ele>22.061674</ele>
        <time>2020-07-16T12:58:49.009Z</time>
      </trkpt>
      <trkpt lat="62.16272" lon="5.64884">
        <ele>22.276222</ele>
        <time>2020-07-16T12:58:51.866Z</time>
      </trkpt>
      <trkpt lat="62.16275" lon="5.64888">
        <ele>22.329157</ele>
        <time>2020-07-16T12:58:52.321Z</time>
      </trkpt>
      <trkpt lat="62.16302" lon="5.64847">
        <ele>22.355887</ele>
        <time>2020-07-16T12:58:59.679Z</time>
      </trkpt>
      <trkpt lat="62.16327" lon="5.64809">
        <ele>22.139172</ele>
        <time>2020-07-16T12:59:05.854Z</time>
      </trkpt>
      <trkpt lat="62.16339" lon="5.64793">
        <ele>22.039646</ele>
        <time>2020-07-16T12:59:08.002Z</time>
      </trkpt>
      <trkpt lat="62.16464" lon="5.64642">
        <ele>20.415561</ele>
        <time>2020-07-16T12:59:29.409Z</time>
      </trkpt>
      <trkpt lat="62.1651" lon="5.64597">
        <ele>18.999257</ele>
        <time>2020-07-16T12:59:36.188Z</time>
      </trkpt>
      <trkpt lat="62.16522" lon="5.64586">
        <ele>18.634826</ele>
        <time>2020-07-16T12:59:37.811Z</time>
      </trkpt>
      <trkpt lat="62.1661" lon="5.64513">
        <ele>15.96335</ele>
        <time>2020-07-16T12:59:50.071Z</time>
      </trkpt>
      <trkpt lat="62.16721" lon="5.64436">
        <ele>12.304327</ele>
        <time>2020-07-16T13:00:05.511Z</time>
      </trkpt>
      <trkpt lat="62.16868" lon="5.64297">
        <ele>7.003222</ele>
        <time>2020-07-16T13:00:26.477Z</time>
      </trkpt>
      <trkpt lat="62.16878" lon="5.64291">
        <ele>6.673111</ele>
        <time>2020-07-16T13:00:27.708Z</time>
      </trkpt>
      <trkpt lat="62.16885" lon="5.64288">
        <ele>6.439437</ele>
        <time>2020-07-16T13:00:28.488Z</time>
      </trkpt>
      <trkpt lat="62.16907" lon="5.64288">
        <ele>5.697024</ele>
        <time>2020-07-16T13:00:31.693Z</time>
      </trkpt>
      <trkpt lat="62.16915" lon="5.64291">
        <ele>5.412707</ele>
        <time>2020-07-16T13:00:32.719Z</time>
      </trkpt>
      <trkpt lat="62.16922" lon="5.64295">
        <ele>5.177991</ele>
        <time>2020-07-16T13:00:33.508Z</time>
      </trkpt>
      <trkpt lat="62.16942" lon="5.64317">
        <ele>4.432768</ele>
        <time>2020-07-16T13:00:36.917Z</time>
      </trkpt>
      <trkpt lat="62.16954" lon="5.64335">
        <ele>4.124458</ele>
        <time>2020-07-16T13:00:38.548Z</time>
      </trkpt>
      <trkpt lat="62.16958" lon="5.64341">
        <ele>4.013879</ele>
        <time>2020-07-16T13:00:39.296Z</time>
      </trkpt>
      <trkpt lat="62.16974" lon="5.64368">
        <ele>3.556323</ele>
        <time>2020-07-16T13:00:42.228Z</time>
      </trkpt>
      <trkpt lat="62.16986" lon="5.64386">
        <ele>3.233622</ele>
        <time>2020-07-16T13:00:44.261Z</time>
      </trkpt>
      <trkpt lat="62.17064" lon="5.64517">
        <ele>1.037597</ele>
        <time>2020-07-16T13:00:58.090Z</time>
      </trkpt>
      <trkpt lat="62.17114" lon="5.64585">
        <ele>0.413995</ele>
        <time>2020-07-16T13:01:06.378Z</time>
      </trkpt>
      <trkpt lat="62.1714" lon="5.64603">
        <ele>0.336207</ele>
        <time>2020-07-16T13:01:10.174Z</time>
      </trkpt>
      <trkpt lat="62.17195" lon="5.64605">
        <ele>0.179507</ele>
        <time>2020-07-16T13:01:17.848Z</time>
      </trkpt>
      <trkpt lat="62.17238" lon="5.6459">
        <ele>0.055121</ele>
        <time>2020-07-16T13:01:23.929Z</time>
      </trkpt>
      <trkpt lat="62.17314" lon="5.64544">
        <ele>0.002689</ele>
        <time>2020-07-16T13:01:34.884Z</time>
      </trkpt>
      <trkpt lat="62.17523" lon="5.64468">
        <time>2020-07-16T13:02:04.416Z</time>
      </trkpt>
      <trkpt lat="62.17579" lon="5.64429">
        <time>2020-07-16T13:02:12.609Z</time>
      </trkpt>
      <trkpt lat="62.17889" lon="5.6427">
        <time>2020-07-16T13:02:57.079Z</time>
      </trkpt>
      <trkpt lat="62.19022" lon="5.63721">
        <time>2020-07-16T13:05:38.844Z</time>
      </trkpt>
      <trkpt lat="62.19095" lon="5.63665">
        <time>2020-07-16T13:05:49.652Z</time>
      </trkpt>
      <trkpt lat="62.19133" lon="5.63586">
        <time>2020-07-16T13:05:57.054Z</time>
      </trkpt>
      <trkpt lat="62.19141" lon="5.63438">
        <ele>0.04297</ele>
        <time>2020-07-16T13:06:06.689Z</time>
      </trkpt>
      <trkpt lat="62.19141" lon="5.63422">
        <ele>0.053169</ele>
        <time>2020-07-16T13:06:08.091Z</time>
      </trkpt>
      <trkpt lat="62.19145" lon="5.63382">
        <ele>0.077656</ele>
        <time>2020-07-16T13:06:11.456Z</time>
      </trkpt>
      <trkpt lat="62.19175" lon="5.6332">
        <ele>0.131468</ele>
        <time>2020-07-16T13:06:18.852Z</time>
      </trkpt>
      <trkpt lat="62.19177" lon="5.63312">
        <ele>0.13722</ele>
        <time>2020-07-16T13:06:19.635Z</time>
      </trkpt>
      <trkpt lat="62.19179" lon="5.63296">
        <ele>0.146941</ele>
        <time>2020-07-16T13:06:20.974Z</time>
      </trkpt>
      <trkpt lat="62.19179" lon="5.63283">
        <ele>0.155361</ele>
        <time>2020-07-16T13:06:22.126Z</time>
      </trkpt>
      <trkpt lat="62.1918" lon="5.6323">
        <ele>0.187269</ele>
        <time>2020-07-16T13:06:26.656Z</time>
      </trkpt>
      <trkpt lat="62.19179" lon="5.63188">
        <ele>0.212872</ele>
        <time>2020-07-16T13:06:30.348Z</time>
      </trkpt>
      <trkpt lat="62.19181" lon="5.63089">
        <ele>0.523612</ele>
        <time>2020-07-16T13:06:39.218Z</time>
      </trkpt>
      <trkpt lat="62.19183" lon="5.63037">
        <ele>0.76164</ele>
        <time>2020-07-16T13:06:44.048Z</time>
      </trkpt>
      <trkpt lat="62.19185" lon="5.62972">
        <ele>1.059928</ele>
        <time>2020-07-16T13:06:50.372Z</time>
      </trkpt>
      <trkpt lat="62.19191" lon="5.62832">
        <ele>1.695439</ele>
        <time>2020-07-16T13:07:05.098Z</time>
      </trkpt>
      <trkpt lat="62.19192" lon="5.62682">
        <ele>2.195092</ele>
        <time>2020-07-16T13:07:20.286Z</time>
      </trkpt>
      <trkpt lat="62.1919" lon="5.62608">
        <ele>2.377075</ele>
        <time>2020-07-16T13:07:27.492Z</time>
      </trkpt>
      <trkpt lat="62.19188" lon="5.62577">
        <ele>2.453495</ele>
        <time>2020-07-16T13:07:30.515Z</time>
      </trkpt>
      <trkpt lat="62.19182" lon="5.62534">
        <ele>2.56361</ele>
        <time>2020-07-16T13:07:34.543Z</time>
      </trkpt>
      <trkpt lat="62.19167" lon="5.62483">
        <ele>2.710595</ele>
        <time>2020-07-16T13:07:39.794Z</time>
      </trkpt>
      <trkpt lat="62.19147" lon="5.62435">
        <ele>2.866348</ele>
        <time>2020-07-16T13:07:45.298Z</time>
      </trkpt>
      <trkpt lat="62.19143" lon="5.62426">
        <ele>2.898713</ele>
        <time>2020-07-16T13:07:46.285Z</time>
      </trkpt>
      <trkpt lat="62.19102" lon="5.62282">
        <ele>2.310323</ele>
        <time>2020-07-16T13:07:59.057Z</time>
      </trkpt>
      <trkpt lat="62.19037" lon="5.62122">
        <ele>1.481782</ele>
        <time>2020-07-16T13:08:13.994Z</time>
      </trkpt>
      <trkpt lat="62.19022" lon="5.62068">
        <ele>1.328571</ele>
        <time>2020-07-16T13:08:18.601Z</time>
      </trkpt>
      <trkpt lat="62.19017" lon="5.62014">
        <ele>1.222653</ele>
        <time>2020-07-16T13:08:22.652Z</time>
      </trkpt>
      <trkpt lat="62.19019" lon="5.61971">
        <ele>1.138509</ele>
        <time>2020-07-16T13:08:25.891Z</time>
      </trkpt>
      <trkpt lat="62.19045" lon="5.61809">
        <ele>0.809875</ele>
        <time>2020-07-16T13:08:38.913Z</time>
      </trkpt>
      <trkpt lat="62.19046" lon="5.61794">
        <ele>0.779659</ele>
        <time>2020-07-16T13:08:40.150Z</time>
      </trkpt>
      <trkpt lat="62.19049" lon="5.61765">
        <ele>0.721358</ele>
        <time>2020-07-16T13:08:42.523Z</time>
      </trkpt>
      <trkpt lat="62.19048" lon="5.61587">
        <ele>2.379395</ele>
        <time>2020-07-16T13:09:00.333Z</time>
      </trkpt>
      <trkpt lat="62.19055" lon="5.61516">
        <ele>3.181672</ele>
        <time>2020-07-16T13:09:08.814Z</time>
      </trkpt>
      <trkpt lat="62.19057" lon="5.61498">
        <ele>3.386758</ele>
        <time>2020-07-16T13:09:10.918Z</time>
      </trkpt>
      <trkpt lat="62.19071" lon="5.61433">
        <ele>4.177387</ele>
        <time>2020-07-16T13:09:20.126Z</time>
      </trkpt>
      <trkpt lat="62.19075" lon="5.6141">
        <ele>4.446198</ele>
        <time>2020-07-16T13:09:22.878Z</time>
      </trkpt>
      <trkpt lat="62.19081" lon="5.61368">
        <ele>4.947643</ele>
        <time>2020-07-16T13:09:31.175Z</time>
      </trkpt>
      <trkpt lat="62.19091" lon="5.61185">
        <ele>9.039794</ele>
        <time>2020-07-16T13:10:00.249Z</time>
      </trkpt>
      <trkpt lat="62.19089" lon="5.61102">
        <ele>10.87686</ele>
        <time>2020-07-16T13:10:13.626Z</time>
      </trkpt>
      <trkpt lat="62.19087" lon="5.61081">
        <ele>11.348842</ele>
        <time>2020-07-16T13:10:18.425Z</time>
      </trkpt>
      <trkpt lat="62.19082" lon="5.61047">
        <ele>12.140436</ele>
        <time>2020-07-16T13:10:23.416Z</time>
      </trkpt>
      <trkpt lat="62.19065" lon="5.60975">
        <ele>13.721548</ele>
        <time>2020-07-16T13:10:34.685Z</time>
      </trkpt>
      <trkpt lat="62.19052" lon="5.60934">
        <ele>14.24596</ele>
        <time>2020-07-16T13:10:41.980Z</time>
      </trkpt>
      <trkpt lat="62.19047" lon="5.60919">
        <ele>14.442583</ele>
        <time>2020-07-16T13:10:43.552Z</time>
      </trkpt>
      <trkpt lat="62.19027" lon="5.60812">
        <ele>15.703557</ele>
        <time>2020-07-16T13:10:58.591Z</time>
      </trkpt>
      <trkpt lat="62.19025" lon="5.60716">
        <ele>16.746787</ele>
        <time>2020-07-16T13:11:08.640Z</time>
      </trkpt>
      <trkpt lat="62.19027" lon="5.607">
        <ele>16.922057</ele>
        <time>2020-07-16T13:11:09.687Z</time>
      </trkpt>
      <trkpt lat="62.19028" lon="5.60682">
        <ele>17.117765</ele>
        <time>2020-07-16T13:11:11.647Z</time>
      </trkpt>
      <trkpt lat="62.19053" lon="5.60439">
        <ele>19.003561</ele>
        <time>2020-07-16T13:11:36.174Z</time>
      </trkpt>
      <trkpt lat="62.19072" lon="5.60315">
        <ele>19.875819</ele>
        <time>2020-07-16T13:11:50.771Z</time>
      </trkpt>
      <trkpt lat="62.19103" lon="5.6017">
        <ele>20.457627</ele>
        <time>2020-07-16T13:12:08.606Z</time>
      </trkpt>
      <trkpt lat="62.19146" lon="5.60059">
        <ele>20.720363</ele>
        <time>2020-07-16T13:12:23.146Z</time>
      </trkpt>
      <trkpt lat="62.19166" lon="5.59972">
        <ele>20.898097</ele>
        <time>2020-07-16T13:12:31.588Z</time>
      </trkpt>
      <trkpt lat="62.1917" lon="5.59901">
        <ele>20.41578</ele>
        <time>2020-07-16T13:12:36.396Z</time>
      </trkpt>
      <trkpt lat="62.19165" lon="5.59656">
        <ele>15.42451</ele>
        <time>2020-07-16T13:12:50.454Z</time>
      </trkpt>
      <trkpt lat="62.19166" lon="5.59513">
        <ele>12.63153</ele>
        <time>2020-07-16T13:12:58.362Z</time>
      </trkpt>
      <trkpt lat="62.19169" lon="5.59447">
        <ele>11.56195</ele>
        <time>2020-07-16T13:13:02.000Z</time>
      </trkpt>
      <trkpt lat="62.19171" lon="5.59336">
        <ele>9.745535</ele>
        <time>2020-07-16T13:13:08.329Z</time>
      </trkpt>
      <trkpt lat="62.19153" lon="5.5921">
        <ele>7.597728</ele>
        <time>2020-07-16T13:13:16.711Z</time>
      </trkpt>
      <trkpt lat="62.19151" lon="5.59191">
        <ele>7.286914</ele>
        <time>2020-07-16T13:13:17.893Z</time>
      </trkpt>
      <trkpt lat="62.1915" lon="5.59174">
        <ele>7.013171</ele>
        <time>2020-07-16T13:13:19.732Z</time>
      </trkpt>
      <trkpt lat="62.19158" lon="5.59103">
        <ele>7.002633</ele>
        <time>2020-07-16T13:13:26.387Z</time>
      </trkpt>
      <trkpt lat="62.19169" lon="5.5908">
        <ele>7.079616</ele>
        <time>2020-07-16T13:13:31.237Z</time>
      </trkpt>
      <trkpt lat="62.19185" lon="5.59076">
        <ele>7.158305</ele>
        <time>2020-07-16T13:13:33.482Z</time>
      </trkpt>
      <trkpt lat="62.19218" lon="5.59103">
        <ele>7.33184</ele>
        <time>2020-07-16T13:13:41.003Z</time>
      </trkpt>
      <trkpt lat="62.1926" lon="5.59185">
        <ele>7.618248</ele>
        <time>2020-07-16T13:13:54.527Z</time>
      </trkpt>
      <trkpt lat="62.19274" lon="5.59196">
        <ele>7.689994</ele>
        <time>2020-07-16T13:13:56.688Z</time>
      </trkpt>
      <trkpt lat="62.19286" lon="5.59195">
        <ele>7.748267</ele>
        <time>2020-07-16T13:13:58.859Z</time>
      </trkpt>
      <trkpt lat="62.19292" lon="5.59187">
        <ele>7.658133</ele>
        <time>2020-07-16T13:14:01.619Z</time>
      </trkpt>
      <trkpt lat="62.19297" lon="5.59177">
        <ele>7.585058</ele>
        <time>2020-07-16T13:14:02.360Z</time>
      </trkpt>
      <trkpt lat="62.19321" lon="5.59088">
        <ele>7.026037</ele>
        <time>2020-07-16T13:14:09.574Z</time>
      </trkpt>
      <trkpt lat="62.19341" lon="5.58992">
        <ele>6.456935</ele>
        <time>2020-07-16T13:14:17.254Z</time>
      </trkpt>
      <trkpt lat="62.19343" lon="5.58937">
        <ele>6.159257</ele>
        <time>2020-07-16T13:14:20.798Z</time>
      </trkpt>
      <trkpt lat="62.19335" lon="5.58809">
        <ele>5.784388</ele>
        <time>2020-07-16T13:14:29.472Z</time>
      </trkpt>
      <trkpt lat="62.19335" lon="5.58803">
        <ele>5.805667</ele>
        <time>2020-07-16T13:14:29.776Z</time>
      </trkpt>
      <trkpt lat="62.19334" lon="5.58782">
        <ele>5.879242</ele>
        <time>2020-07-16T13:14:31.651Z</time>
      </trkpt>
      <trkpt lat="62.19336" lon="5.58677">
        <ele>6.244089</ele>
        <time>2020-07-16T13:14:38.931Z</time>
      </trkpt>
      <trkpt lat="62.19339" lon="5.58646">
        <ele>6.354057</ele>
        <time>2020-07-16T13:14:41.694Z</time>
      </trkpt>
      <trkpt lat="62.19342" lon="5.58627">
        <ele>6.42308</ele>
        <time>2020-07-16T13:14:44.100Z</time>
      </trkpt>
      <trkpt lat="62.19371" lon="5.58458">
        <ele>7.192404</ele>
        <time>2020-07-16T13:15:07.168Z</time>
      </trkpt>
      <trkpt lat="62.19388" lon="5.58422">
        <ele>7.818495</ele>
        <time>2020-07-16T13:15:13.802Z</time>
      </trkpt>
      <trkpt lat="62.19403" lon="5.58411">
        <ele>8.251956</ele>
        <time>2020-07-16T13:15:18.679Z</time>
      </trkpt>
      <trkpt lat="62.19407" lon="5.5841">
        <ele>8.357509</ele>
        <time>2020-07-16T13:15:20.066Z</time>
      </trkpt>
      <trkpt lat="62.19416" lon="5.58409">
        <ele>8.603108</ele>
        <time>2020-07-16T13:15:22.849Z</time>
      </trkpt>
      <trkpt lat="62.19431" lon="5.58409">
        <ele>9.006759</ele>
        <time>2020-07-16T13:15:26.393Z</time>
      </trkpt>
      <trkpt lat="62.19432" lon="5.58402">
        <ele>9.092357</ele>
        <time>2020-07-16T13:15:28.113Z</time>
      </trkpt>
      <trkpt lat="62.19497" lon="5.58385">
        <ele>10.855371</ele>
        <time>2020-07-16T13:15:45.937Z</time>
      </trkpt>
      <trkpt lat="62.19599" lon="5.58326">
        <ele>11.717213</ele>
        <time>2020-07-16T13:16:10.261Z</time>
      </trkpt>
      <trkpt lat="62.19629" lon="5.58287">
        <ele>11.6586</ele>
        <time>2020-07-16T13:16:15.654Z</time>
      </trkpt>
      <trkpt lat="62.1969" lon="5.58175">
        <ele>11.549864</ele>
        <time>2020-07-16T13:16:28.492Z</time>
      </trkpt>
      <trkpt lat="62.19699" lon="5.58162">
        <ele>11.586731</ele>
        <time>2020-07-16T13:16:29.971Z</time>
      </trkpt>
      <trkpt lat="62.19707" lon="5.58148">
        <ele>11.621877</ele>
        <time>2020-07-16T13:16:31.916Z</time>
      </trkpt>
      <trkpt lat="62.19725" lon="5.58116">
        <ele>11.698853</ele>
        <time>2020-07-16T13:16:35.595Z</time>
      </trkpt>
      <trkpt lat="62.19745" lon="5.58077">
        <ele>11.790483</ele>
        <time>2020-07-16T13:16:40.943Z</time>
      </trkpt>
      <trkpt lat="62.19771" lon="5.58011">
        <ele>11.923587</ele>
        <time>2020-07-16T13:16:47.822Z</time>
      </trkpt>
      <trkpt lat="62.19845" lon="5.57783">
        <ele>13.708857</ele>
        <time>2020-07-16T13:17:20.713Z</time>
      </trkpt>
      <trkpt lat="62.19867" lon="5.57735">
        <ele>14.457844</ele>
        <time>2020-07-16T13:17:29.931Z</time>
      </trkpt>
      <trkpt lat="62.1989" lon="5.57714">
        <ele>15.067938</ele>
        <time>2020-07-16T13:17:38.361Z</time>
      </trkpt>
      <trkpt lat="62.19984" lon="5.5767">
        <ele>15.491709</ele>
        <time>2020-07-16T13:18:02.472Z</time>
      </trkpt>
      <trkpt lat="62.20023" lon="5.5764">
        <ele>14.544825</ele>
        <time>2020-07-16T13:18:08.331Z</time>
      </trkpt>
      <trkpt lat="62.20041" lon="5.57623">
        <ele>14.103884</ele>
        <time>2020-07-16T13:18:11.006Z</time>
      </trkpt>
      <trkpt lat="62.20063" lon="5.57597">
        <ele>13.523998</ele>
        <time>2020-07-16T13:18:14.070Z</time>
      </trkpt>
      <trkpt lat="62.20111" lon="5.57525">
        <ele>12.169103</ele>
        <time>2020-07-16T13:18:22.112Z</time>
      </trkpt>
      <trkpt lat="62.20116" lon="5.57526">
        <ele>12.033726</ele>
        <time>2020-07-16T13:18:22.767Z</time>
      </trkpt>
      <trkpt lat="62.20118" lon="5.57529">
        <ele>11.971272</ele>
        <time>2020-07-16T13:18:23.028Z</time>
      </trkpt>
      <trkpt lat="62.2012" lon="5.57533">
        <ele>11.896976</ele>
        <time>2020-07-16T13:18:23.334Z</time>
      </trkpt>
      <trkpt lat="62.20125" lon="5.57533">
        <ele>11.756308</ele>
        <time>2020-07-16T13:18:24.352Z</time>
      </trkpt>
      <trkpt lat="62.20168" lon="5.5746">
        <ele>10.293237</ele>
        <time>2020-07-16T13:18:32.046Z</time>
      </trkpt>
      <trkpt lat="62.20195" lon="5.57432">
        <ele>9.499109</ele>
        <time>2020-07-16T13:18:35.917Z</time>
      </trkpt>
      <trkpt lat="62.20223" lon="5.57433">
        <ele>8.769173</ele>
        <time>2020-07-16T13:18:39.536Z</time>
      </trkpt>
      <trkpt lat="62.20241" lon="5.57453">
        <ele>8.23213</ele>
        <time>2020-07-16T13:18:44.812Z</time>
      </trkpt>
      <trkpt lat="62.2025" lon="5.57469">
        <ele>7.917751</ele>
        <time>2020-07-16T13:18:46.175Z</time>
      </trkpt>
      <trkpt lat="62.20255" lon="5.57477">
        <ele>7.756946</ele>
        <time>2020-07-16T13:18:48.591Z</time>
      </trkpt>
      <trkpt lat="62.20299" lon="5.57599">
        <ele>7.84758</ele>
        <time>2020-07-16T13:19:05.720Z</time>
      </trkpt>
      <trkpt lat="62.20302" lon="5.57605">
        <ele>7.871388</ele>
        <time>2020-07-16T13:19:07.861Z</time>
      </trkpt>
      <trkpt lat="62.20311" lon="5.57615">
        <ele>7.923666</ele>
        <time>2020-07-16T13:19:09.771Z</time>
      </trkpt>
      <trkpt lat="62.20331" lon="5.57627">
        <ele>8.03472</ele>
        <time>2020-07-16T13:19:13.767Z</time>
      </trkpt>
      <trkpt lat="62.20336" lon="5.57628">
        <ele>8.059234</ele>
        <time>2020-07-16T13:19:15.888Z</time>
      </trkpt>
      <trkpt lat="62.20343" lon="5.57629">
        <ele>8.099738</ele>
        <time>2020-07-16T13:19:17.479Z</time>
      </trkpt>
      <trkpt lat="62.20378" lon="5.57617">
        <ele>8.288128</ele>
        <time>2020-07-16T13:19:25.460Z</time>
      </trkpt>
      <trkpt lat="62.20391" lon="5.57606">
        <ele>8.360621</ele>
        <time>2020-07-16T13:19:27.777Z</time>
      </trkpt>
      <trkpt lat="62.204" lon="5.57596">
        <ele>8.41736</ele>
        <time>2020-07-16T13:19:29.257Z</time>
      </trkpt>
      <trkpt lat="62.20482" lon="5.57441">
        <ele>6.463969</ele>
        <time>2020-07-16T13:19:45.935Z</time>
      </trkpt>
      <trkpt lat="62.20514" lon="5.57397">
        <ele>5.685516</ele>
        <time>2020-07-16T13:19:51.287Z</time>
      </trkpt>
      <trkpt lat="62.20553" lon="5.57359">
        <ele>4.827582</ele>
        <time>2020-07-16T13:19:57.160Z</time>
      </trkpt>
      <trkpt lat="62.20558" lon="5.57354">
        <ele>4.826555</ele>
        <time>2020-07-16T13:19:57.825Z</time>
      </trkpt>
      <trkpt lat="62.20586" lon="5.57328">
        <ele>4.867452</ele>
        <time>2020-07-16T13:20:02.310Z</time>
      </trkpt>
      <trkpt lat="62.2061" lon="5.57306">
        <ele>4.902097</ele>
        <time>2020-07-16T13:20:05.925Z</time>
      </trkpt>
      <trkpt lat="62.20618" lon="5.57297">
        <ele>4.914647</ele>
        <time>2020-07-16T13:20:08.460Z</time>
      </trkpt>
      <trkpt lat="62.20624" lon="5.57289">
        <ele>4.924382</ele>
        <time>2020-07-16T13:20:09.410Z</time>
      </trkpt>
      <trkpt lat="62.20633" lon="5.57278">
        <ele>4.937676</ele>
        <time>2020-07-16T13:20:10.847Z</time>
      </trkpt>
      <trkpt lat="62.20642" lon="5.57256">
        <ele>4.955792</ele>
        <time>2020-07-16T13:20:13.970Z</time>
      </trkpt>
      <trkpt lat="62.20646" lon="5.57234">
        <ele>4.97062</ele>
        <time>2020-07-16T13:20:16.067Z</time>
      </trkpt>
      <trkpt lat="62.20649" lon="5.57221">
        <ele>4.979361</ele>
        <time>2020-07-16T13:20:17.257Z</time>
      </trkpt>
      <trkpt lat="62.20655" lon="5.57206">
        <ele>4.991855</ele>
        <time>2020-07-16T13:20:19.363Z</time>
      </trkpt>
      <trkpt lat="62.20668" lon="5.57167">
        <ele>5.022246</ele>
        <time>2020-07-16T13:20:26.050Z</time>
      </trkpt>
      <trkpt lat="62.20675" lon="5.5715">
        <ele>5.036224</ele>
        <time>2020-07-16T13:20:28.361Z</time>
      </trkpt>
      <trkpt lat="62.20689" lon="5.57136">
        <ele>5.056284</ele>
        <time>2020-07-16T13:20:34.310Z</time>
      </trkpt>
      <trkpt lat="62.20693" lon="5.57136">
        <ele>5.191143</ele>
        <time>2020-07-16T13:20:35.465Z</time>
      </trkpt>
      <trkpt lat="62.20692" lon="5.57124">
        <ele>5.578825</ele>
        <time>2020-07-16T13:20:36.773Z</time>
      </trkpt>
      <trkpt lat="62.20699" lon="5.57126">
        <ele>6.046698</ele>
        <time>2020-07-16T13:20:38.673Z</time>
      </trkpt>
      <trkpt lat="62.20705" lon="5.57134">
        <ele>6.519741</ele>
        <time>2020-07-16T13:20:40.662Z</time>
      </trkpt>
      <trkpt lat="62.20708" lon="5.57141">
        <ele>6.771816</ele>
        <time>2020-07-16T13:20:41.877Z</time>
      </trkpt>
      <trkpt lat="62.20711" lon="5.57152">
        <ele>7.16624</ele>
        <time>2020-07-16T13:20:45.072Z</time>
      </trkpt>
      <trkpt lat="62.2071" lon="5.57181">
        <ele>8.06933</ele>
        <time>2020-07-16T13:20:48.558Z</time>
      </trkpt>
      <trkpt lat="62.20708" lon="5.57218">
        <ele>9.211742</ele>
        <time>2020-07-16T13:20:54.139Z</time>
      </trkpt>
      <trkpt lat="62.20704" lon="5.57268">
        <ele>10.793399</ele>
        <time>2020-07-16T13:21:02.681Z</time>
      </trkpt>
      <trkpt lat="62.20703" lon="5.57308">
        <ele>12.035918</ele>
        <time>2020-07-16T13:21:10.577Z</time>
      </trkpt>
      <trkpt lat="62.20711" lon="5.57418">
        <ele>15.46107</ele>
        <time>2020-07-16T13:21:33.400Z</time>
      </trkpt>
      <trkpt lat="62.20711" lon="5.57418">
        <ele>15.46107</ele>
        <time>2020-07-16T13:21:33.530Z</time>
      </trkpt>
      <trkpt lat="62.20729" lon="5.57551">
        <ele>20.375778</ele>
        <time>2020-07-16T13:22:05.649Z</time>
      </trkpt>
      <trkpt lat="62.20739" lon="5.57582">
        <ele>21.822295</ele>
        <time>2020-07-16T13:22:14.539Z</time>
      </trkpt>
      <trkpt lat="62.20768" lon="5.57629">
        <ele>24.768119</ele>
        <time>2020-07-16T13:22:30.545Z</time>
      </trkpt>
      <trkpt lat="62.20773" lon="5.57639">
        <ele>25.310871</ele>
        <time>2020-07-16T13:22:33.969Z</time>
      </trkpt>
      <trkpt lat="62.20781" lon="5.5766">
        <ele>26.355981</ele>
        <time>2020-07-16T13:22:38.479Z</time>
      </trkpt>
      <trkpt lat="62.20786" lon="5.57673">
        <ele>26.992111</ele>
        <time>2020-07-16T13:22:42.939Z</time>
      </trkpt>
      <trkpt lat="62.2082" lon="5.57798">
        <ele>32.022626</ele>
        <time>2020-07-16T13:23:09.375Z</time>
      </trkpt>
      <trkpt lat="62.2086" lon="5.57856">
        <ele>33.797007</ele>
        <time>2020-07-16T13:23:26.998Z</time>
      </trkpt>
      <trkpt lat="62.209" lon="5.57871">
        <ele>35.273346</ele>
        <time>2020-07-16T13:23:40.455Z</time>
      </trkpt>
      <trkpt lat="62.2102" lon="5.57848">
        <ele>38.984661</ele>
        <time>2020-07-16T13:24:06.468Z</time>
      </trkpt>
      <trkpt lat="62.21022" lon="5.57848">
        <ele>39.022998</ele>
        <time>2020-07-16T13:24:06.964Z</time>
      </trkpt>
      <trkpt lat="62.21048" lon="5.57842">
        <ele>39.523083</ele>
        <time>2020-07-16T13:24:12.125Z</time>
      </trkpt>
      <trkpt lat="62.21133" lon="5.57829">
        <ele>41.143775</ele>
        <time>2020-07-16T13:24:32.038Z</time>
      </trkpt>
      <trkpt lat="62.21141" lon="5.57828">
        <ele>41.295421</ele>
        <time>2020-07-16T13:24:33.800Z</time>
      </trkpt>
      <trkpt lat="62.2117" lon="5.57823">
        <ele>42.341682</ele>
        <time>2020-07-16T13:24:42.389Z</time>
      </trkpt>
      <trkpt lat="62.21211" lon="5.57824">
        <ele>45.067325</ele>
        <time>2020-07-16T13:24:55.148Z</time>
      </trkpt>
      <trkpt lat="62.21254" lon="5.57838">
        <ele>48.015976</ele>
        <time>2020-07-16T13:25:11.593Z</time>
      </trkpt>
      <trkpt lat="62.21308" lon="5.57876">
        <ele>51.807897</ele>
        <time>2020-07-16T13:25:36.611Z</time>
      </trkpt>
      <trkpt lat="62.21374" lon="5.57948">
        <ele>58.594711</ele>
        <time>2020-07-16T13:26:13.176Z</time>
      </trkpt>
      <trkpt lat="62.21413" lon="5.57952">
        <ele>62.835656</ele>
        <time>2020-07-16T13:26:33.612Z</time>
      </trkpt>
      <trkpt lat="62.21451" lon="5.57915">
        <ele>67.41891</ele>
        <time>2020-07-16T13:26:56.133Z</time>
      </trkpt>
      <trkpt lat="62.21601" lon="5.57631">
        <ele>90.522372</ele>
        <time>2020-07-16T13:28:48.479Z</time>
      </trkpt>
      <trkpt lat="62.21626" lon="5.57624">
        <ele>93.50511</ele>
        <time>2020-07-16T13:29:02.940Z</time>
      </trkpt>
      <trkpt lat="62.21639" lon="5.57647">
        <ele>95.330224</ele>
        <time>2020-07-16T13:29:12.153Z</time>
      </trkpt>
      <trkpt lat="62.2164" lon="5.577">
        <ele>97.715845</ele>
        <time>2020-07-16T13:29:25.133Z</time>
      </trkpt>
      <trkpt lat="62.21632" lon="5.57754">
        <ele>100.232677</ele>
        <time>2020-07-16T13:29:39.437Z</time>
      </trkpt>
      <trkpt lat="62.21581" lon="5.58103">
        <ele>115.20731</ele>
        <time>2020-07-16T13:30:58.001Z</time>
      </trkpt>
      <trkpt lat="62.21565" lon="5.58185">
        <ele>117.998282</ele>
        <time>2020-07-16T13:31:13.283Z</time>
      </trkpt>
      <trkpt lat="62.21517" lon="5.58357">
        <ele>124.209956</ele>
        <time>2020-07-16T13:31:46.430Z</time>
      </trkpt>
      <trkpt lat="62.21497" lon="5.58452">
        <ele>127.401918</ele>
        <time>2020-07-16T13:32:04.555Z</time>
      </trkpt>
      <trkpt lat="62.21476" lon="5.58581">
        <ele>131.575458</ele>
        <time>2020-07-16T13:32:29.679Z</time>
      </trkpt>
      <trkpt lat="62.21466" lon="5.5868">
        <ele>134.657412</ele>
        <time>2020-07-16T13:32:48.288Z</time>
      </trkpt>
      <trkpt lat="62.21465" lon="5.58699">
        <ele>135.225911</ele>
        <time>2020-07-16T13:32:52.470Z</time>
      </trkpt>
      <trkpt lat="62.21465" lon="5.58744">
        <ele>136.833686</ele>
        <time>2020-07-16T13:33:00.623Z</time>
      </trkpt>
      <trkpt lat="62.21464" lon="5.58793">
        <ele>138.63777</ele>
        <time>2020-07-16T13:33:10.229Z</time>
      </trkpt>
      <trkpt lat="62.21463" lon="5.58987">
        <ele>145.75805</ele>
        <time>2020-07-16T13:33:48.677Z</time>
      </trkpt>
      <trkpt lat="62.21471" lon="5.59114">
        <ele>150.602385</ele>
        <time>2020-07-16T13:34:16.160Z</time>
      </trkpt>
      <trkpt lat="62.21501" lon="5.59284">
        <ele>158.470114</ele>
        <time>2020-07-16T13:34:54.932Z</time>
      </trkpt>
      <trkpt lat="62.21521" lon="5.59357">
        <ele>162.16264</ele>
        <time>2020-07-16T13:35:13.688Z</time>
      </trkpt>
      <trkpt lat="62.2157" lon="5.59471">
        <ele>169.17675</ele>
        <time>2020-07-16T13:35:50.351Z</time>
      </trkpt>
      <trkpt lat="62.21596" lon="5.59564">
        <ele>174.354895</ele>
        <time>2020-07-16T13:36:17.365Z</time>
      </trkpt>
      <trkpt lat="62.21637" lon="5.59746">
        <ele>184.036103</ele>
        <time>2020-07-16T13:37:05.218Z</time>
      </trkpt>
      <trkpt lat="62.2165" lon="5.59803">
        <ele>186.628554</ele>
        <time>2020-07-16T13:37:20.416Z</time>
      </trkpt>
      <trkpt lat="62.21702" lon="5.59996">
        <ele>194.808895</ele>
        <time>2020-07-16T13:38:07.762Z</time>
      </trkpt>
      <trkpt lat="62.21709" lon="5.6002">
        <ele>195.836102</ele>
        <time>2020-07-16T13:38:13.323Z</time>
      </trkpt>
      <trkpt lat="62.21714" lon="5.60047">
        <ele>196.900561</ele>
        <time>2020-07-16T13:38:18.623Z</time>
      </trkpt>
      <trkpt lat="62.21723" lon="5.60175">
        <ele>199.975349</ele>
        <time>2020-07-16T13:38:39.221Z</time>
      </trkpt>
      <trkpt lat="62.21722" lon="5.6044">
        <ele>203.07386</ele>
        <time>2020-07-16T13:39:11.244Z</time>
      </trkpt>
      <trkpt lat="62.21726" lon="5.60545">
        <ele>203.114482</ele>
        <time>2020-07-16T13:39:19.266Z</time>
      </trkpt>
      <trkpt lat="62.21743" lon="5.60724">
        <ele>201.034717</ele>
        <time>2020-07-16T13:39:31.230Z</time>
      </trkpt>
      <trkpt lat="62.2178" lon="5.61006">
        <ele>195.566578</ele>
        <time>2020-07-16T13:39:48.284Z</time>
      </trkpt>
      <trkpt lat="62.2179" lon="5.61127">
        <ele>192.318584</ele>
        <time>2020-07-16T13:39:55.171Z</time>
      </trkpt>
      <trkpt lat="62.21791" lon="5.61198">
        <ele>190.451184</ele>
        <time>2020-07-16T13:39:59.030Z</time>
      </trkpt>
      <trkpt lat="62.21783" lon="5.61452">
        <ele>179.231343</ele>
        <time>2020-07-16T13:40:12.250Z</time>
      </trkpt>
      <trkpt lat="62.21788" lon="5.61584">
        <ele>172.807817</ele>
        <time>2020-07-16T13:40:18.852Z</time>
      </trkpt>
      <trkpt lat="62.21807" lon="5.61737">
        <ele>163.678964</ele>
        <time>2020-07-16T13:40:26.619Z</time>
      </trkpt>
      <trkpt lat="62.21856" lon="5.61966">
        <ele>148.074311</ele>
        <time>2020-07-16T13:40:38.957Z</time>
      </trkpt>
      <trkpt lat="62.21864" lon="5.62063">
        <ele>143.644792</ele>
        <time>2020-07-16T13:40:43.888Z</time>
      </trkpt>
      <trkpt lat="62.21866" lon="5.62201">
        <ele>138.183872</ele>
        <time>2020-07-16T13:40:51.040Z</time>
      </trkpt>
      <trkpt lat="62.21866" lon="5.62259">
        <ele>135.936747</ele>
        <time>2020-07-16T13:40:54.075Z</time>
      </trkpt>
      <trkpt lat="62.21862" lon="5.62383">
        <ele>131.174044</ele>
        <time>2020-07-16T13:41:00.928Z</time>
      </trkpt>
      <trkpt lat="62.21827" lon="5.62872">
        <ele>120.03647</ele>
        <time>2020-07-16T13:41:29.750Z</time>
      </trkpt>
      <trkpt lat="62.21817" lon="5.62954">
        <ele>117.692677</ele>
        <time>2020-07-16T13:41:34.519Z</time>
      </trkpt>
      <trkpt lat="62.21791" lon="5.63077">
        <ele>113.998443</ele>
        <time>2020-07-16T13:41:41.825Z</time>
      </trkpt>
      <trkpt lat="62.21782" lon="5.63166">
        <ele>110.441313</ele>
        <time>2020-07-16T13:41:46.656Z</time>
      </trkpt>
      <trkpt lat="62.21773" lon="5.63342">
        <ele>101.227463</ele>
        <time>2020-07-16T13:41:55.712Z</time>
      </trkpt>
      <trkpt lat="62.21731" lon="5.63593">
        <ele>83.792774</ele>
        <time>2020-07-16T13:42:08.798Z</time>
      </trkpt>
      <trkpt lat="62.21723" lon="5.63694">
        <ele>74.885495</ele>
        <time>2020-07-16T13:42:13.646Z</time>
      </trkpt>
      <trkpt lat="62.21723" lon="5.63807">
        <ele>64.987917</ele>
        <time>2020-07-16T13:42:19.046Z</time>
      </trkpt>
      <trkpt lat="62.21724" lon="5.63818">
        <ele>64.082742</ele>
        <time>2020-07-16T13:42:19.562Z</time>
      </trkpt>
      <trkpt lat="62.21725" lon="5.6384">
        <ele>62.094634</ele>
        <time>2020-07-16T13:42:20.652Z</time>
      </trkpt>
      <trkpt lat="62.21728" lon="5.63895">
        <ele>57.419392</ele>
        <time>2020-07-16T13:42:23.261Z</time>
      </trkpt>
      <trkpt lat="62.21729" lon="5.63941">
        <ele>53.75971</ele>
        <time>2020-07-16T13:42:25.459Z</time>
      </trkpt>
      <trkpt lat="62.21738" lon="5.63939">
        <ele>52.242332</ele>
        <time>2020-07-16T13:42:26.413Z</time>
      </trkpt>
      <trkpt lat="62.21737" lon="5.63959">
        <ele>50.624986</ele>
        <time>2020-07-16T13:42:27.435Z</time>
      </trkpt>
      <trkpt lat="62.21727" lon="5.64055">
        <ele>42.735385</ele>
        <time>2020-07-16T13:42:32.351Z</time>
      </trkpt>
      <trkpt lat="62.2171" lon="5.64145">
        <ele>35.007297</ele>
        <time>2020-07-16T13:42:37.199Z</time>
      </trkpt>
      <trkpt lat="62.217" lon="5.64196">
        <ele>30.590581</ele>
        <time>2020-07-16T13:42:40.018Z</time>
      </trkpt>
      <trkpt lat="62.21685" lon="5.64279">
        <ele>26.195122</ele>
        <time>2020-07-16T13:42:44.811Z</time>
      </trkpt>
      <trkpt lat="62.2164" lon="5.64516">
        <ele>18.265062</ele>
        <time>2020-07-16T13:42:59.524Z</time>
      </trkpt>
      <trkpt lat="62.21627" lon="5.64605">
        <ele>15.785488</ele>
        <time>2020-07-16T13:43:05.446Z</time>
      </trkpt>
      <trkpt lat="62.21624" lon="5.64628">
        <ele>15.524867</ele>
        <time>2020-07-16T13:43:07.043Z</time>
      </trkpt>
      <trkpt lat="62.21613" lon="5.64706">
        <ele>14.664385</ele>
        <time>2020-07-16T13:43:12.304Z</time>
      </trkpt>
      <trkpt lat="62.21599" lon="5.64826">
        <ele>13.354946</ele>
        <time>2020-07-16T13:43:20.490Z</time>
      </trkpt>
      <trkpt lat="62.21593" lon="5.64881">
        <ele>12.753805</ele>
        <time>2020-07-16T13:43:24.554Z</time>
      </trkpt>
      <trkpt lat="62.21583" lon="5.64962">
        <ele>11.917643</ele>
        <time>2020-07-16T13:43:30.937Z</time>
      </trkpt>
      <trkpt lat="62.21582" lon="5.64972">
        <ele>11.941176</ele>
        <time>2020-07-16T13:43:31.731Z</time>
      </trkpt>
      <trkpt lat="62.21583" lon="5.64995">
        <ele>11.98925</ele>
        <time>2020-07-16T13:43:33.897Z</time>
      </trkpt>
      <trkpt lat="62.21582" lon="5.65012">
        <ele>12.027151</ele>
        <time>2020-07-16T13:43:35.277Z</time>
      </trkpt>
      <trkpt lat="62.21581" lon="5.6503">
        <ele>12.064864</ele>
        <time>2020-07-16T13:43:36.698Z</time>
      </trkpt>
      <trkpt lat="62.21576" lon="5.65044">
        <ele>12.103267</ele>
        <time>2020-07-16T13:43:38.041Z</time>
      </trkpt>
      <trkpt lat="62.21575" lon="5.65049">
        <ele>12.116348</ele>
        <time>2020-07-16T13:43:38.544Z</time>
      </trkpt>
      <trkpt lat="62.21574" lon="5.65066">
        <ele>12.152288</ele>
        <time>2020-07-16T13:43:40.206Z</time>
      </trkpt>
      <trkpt lat="62.21574" lon="5.65128">
        <ele>12.28502</ele>
        <time>2020-07-16T13:43:45.372Z</time>
      </trkpt>
      <trkpt lat="62.21593" lon="5.65272">
        <ele>12.607522</ele>
        <time>2020-07-16T13:43:59.635Z</time>
      </trkpt>
      <trkpt lat="62.21598" lon="5.65414">
        <ele>13.364573</ele>
        <time>2020-07-16T13:44:15.024Z</time>
      </trkpt>
      <trkpt lat="62.21597" lon="5.65445">
        <ele>13.607853</ele>
        <time>2020-07-16T13:44:18.795Z</time>
      </trkpt>
      <trkpt lat="62.21588" lon="5.65594">
        <ele>14.780463</ele>
        <time>2020-07-16T13:44:35.175Z</time>
      </trkpt>
      <trkpt lat="62.21574" lon="5.65856">
        <ele>16.989497</ele>
        <time>2020-07-16T13:45:03.468Z</time>
      </trkpt>
      <trkpt lat="62.21567" lon="5.65996">
        <ele>18.252262</ele>
        <time>2020-07-16T13:45:19.059Z</time>
      </trkpt>
      <trkpt lat="62.21561" lon="5.66046">
        <ele>18.715117</ele>
        <time>2020-07-16T13:45:25.016Z</time>
      </trkpt>
      <trkpt lat="62.2156" lon="5.66079">
        <ele>19.015405</ele>
        <time>2020-07-16T13:45:28.768Z</time>
      </trkpt>
      <trkpt lat="62.21558" lon="5.66103">
        <ele>19.249327</ele>
        <time>2020-07-16T13:45:31.857Z</time>
      </trkpt>
      <trkpt lat="62.21557" lon="5.66153">
        <ele>19.92783</ele>
        <time>2020-07-16T13:45:37.408Z</time>
      </trkpt>
      <trkpt lat="62.21521" lon="5.66802">
        <ele>29.819324</ele>
        <time>2020-07-16T13:47:02.349Z</time>
      </trkpt>
      <trkpt lat="62.21516" lon="5.6689">
        <ele>31.487194</ele>
        <time>2020-07-16T13:47:15.979Z</time>
      </trkpt>
      <trkpt lat="62.21498" lon="5.67178">
        <ele>38.694895</ele>
        <time>2020-07-16T13:48:04.273Z</time>
      </trkpt>
      <trkpt lat="62.21491" lon="5.67284">
        <ele>41.316411</ele>
        <time>2020-07-16T13:48:22.264Z</time>
      </trkpt>
      <trkpt lat="62.21479" lon="5.67484">
        <ele>46.095947</ele>
        <time>2020-07-16T13:48:54.850Z</time>
      </trkpt>
      <trkpt lat="62.21454" lon="5.67895">
        <ele>55.262872</ele>
        <time>2020-07-16T13:49:58.234Z</time>
      </trkpt>
      <trkpt lat="62.21451" lon="5.67978">
        <ele>57.034569</ele>
        <time>2020-07-16T13:50:10.599Z</time>
      </trkpt>
      <trkpt lat="62.21448" lon="5.6803">
        <ele>58.157149</ele>
        <time>2020-07-16T13:50:18.480Z</time>
      </trkpt>
      <trkpt lat="62.21448" lon="5.68044">
        <ele>58.448843</ele>
        <time>2020-07-16T13:50:20.277Z</time>
      </trkpt>
      <trkpt lat="62.21442" lon="5.68043">
        <ele>58.699933</ele>
        <time>2020-07-16T13:50:21.814Z</time>
      </trkpt>
      <trkpt lat="62.21442" lon="5.68054">
        <ele>58.926481</ele>
        <time>2020-07-16T13:50:23.318Z</time>
      </trkpt>
      <trkpt lat="62.21438" lon="5.68135">
        <ele>60.695631</ele>
        <time>2020-07-16T13:50:35.353Z</time>
      </trkpt>
      <trkpt lat="62.21438" lon="5.68136">
        <ele>60.717792</ele>
        <time>2020-07-16T13:50:35.798Z</time>
      </trkpt>
      <trkpt lat="62.21432" lon="5.68287">
        <ele>63.995136</ele>
        <time>2020-07-16T13:50:58.440Z</time>
      </trkpt>
      <trkpt lat="62.21431" lon="5.68362">
        <ele>65.633816</ele>
        <time>2020-07-16T13:51:09.841Z</time>
      </trkpt>
      <trkpt lat="62.21432" lon="5.68418">
        <ele>67.081444</ele>
        <time>2020-07-16T13:51:18.702Z</time>
      </trkpt>
      <trkpt lat="62.21433" lon="5.68462">
        <ele>68.40151</ele>
        <time>2020-07-16T13:51:26.352Z</time>
      </trkpt>
      <trkpt lat="62.2146" lon="5.68727">
        <ele>76.427003</ele>
        <time>2020-07-16T13:52:14.766Z</time>
      </trkpt>
      <trkpt lat="62.215" lon="5.6888">
        <ele>82.313313</ele>
        <time>2020-07-16T13:52:50.125Z</time>
      </trkpt>
      <trkpt lat="62.21554" lon="5.69151">
        <ele>91.924038</ele>
        <time>2020-07-16T13:53:48.435Z</time>
      </trkpt>
      <trkpt lat="62.21566" lon="5.69194">
        <ele>92.929324</ele>
        <time>2020-07-16T13:53:57.173Z</time>
      </trkpt>
      <trkpt lat="62.21617" lon="5.69291">
        <ele>95.844157</ele>
        <time>2020-07-16T13:54:19.556Z</time>
      </trkpt>
      <trkpt lat="62.2166" lon="5.69341">
        <ele>97.908521</ele>
        <time>2020-07-16T13:54:32.647Z</time>
      </trkpt>
      <trkpt lat="62.21779" lon="5.69357">
        <ele>99.084783</ele>
        <time>2020-07-16T13:54:56.719Z</time>
      </trkpt>
      <trkpt lat="62.21811" lon="5.69377">
        <ele>99.203653</ele>
        <time>2020-07-16T13:55:02.171Z</time>
      </trkpt>
      <trkpt lat="62.21829" lon="5.69398">
        <ele>99.279224</ele>
        <time>2020-07-16T13:55:05.533Z</time>
      </trkpt>
      <trkpt lat="62.21865" lon="5.69471">
        <ele>99.291028</ele>
        <time>2020-07-16T13:55:13.527Z</time>
      </trkpt>
      <trkpt lat="62.2195" lon="5.69744">
        <ele>98.76183</ele>
        <time>2020-07-16T13:55:39.049Z</time>
      </trkpt>
      <trkpt lat="62.21957" lon="5.69768">
        <ele>98.890554</ele>
        <time>2020-07-16T13:55:41.341Z</time>
      </trkpt>
      <trkpt lat="62.21959" lon="5.69776">
        <ele>98.950805</ele>
        <time>2020-07-16T13:55:42.196Z</time>
      </trkpt>
      <trkpt lat="62.21978" lon="5.69844">
        <ele>99.448769</ele>
        <time>2020-07-16T13:55:49.245Z</time>
      </trkpt>
      <trkpt lat="62.22007" lon="5.69952">
        <ele>100.232818</ele>
        <time>2020-07-16T13:56:01.471Z</time>
      </trkpt>
      <trkpt lat="62.22028" lon="5.70035">
        <ele>100.830897</ele>
        <time>2020-07-16T13:56:11.635Z</time>
      </trkpt>
      <trkpt lat="62.22143" lon="5.70474">
        <ele>109.189963</ele>
        <time>2020-07-16T13:57:20.795Z</time>
      </trkpt>
      <trkpt lat="62.22184" lon="5.7063">
        <ele>113.664795</ele>
        <time>2020-07-16T13:57:50.161Z</time>
      </trkpt>
      <trkpt lat="62.22208" lon="5.7072">
        <ele>116.282546</ele>
        <time>2020-07-16T13:58:07.865Z</time>
      </trkpt>
      <trkpt lat="62.22259" lon="5.70855">
        <ele>120.953176</ele>
        <time>2020-07-16T13:58:40.066Z</time>
      </trkpt>
      <trkpt lat="62.22312" lon="5.70944">
        <ele>124.890632</ele>
        <time>2020-07-16T13:59:05.011Z</time>
      </trkpt>
      <trkpt lat="62.22346" lon="5.70988">
        <ele>127.221598</ele>
        <time>2020-07-16T13:59:18.668Z</time>
      </trkpt>
      <trkpt lat="62.22391" lon="5.71044">
        <ele>129.316322</ele>
        <time>2020-07-16T13:59:35.792Z</time>
      </trkpt>
      <trkpt lat="62.22442" lon="5.71113">
        <ele>131.424608</ele>
        <time>2020-07-16T13:59:54.414Z</time>
      </trkpt>
      <trkpt lat="62.22494" lon="5.71198">
        <ele>133.675553</ele>
        <time>2020-07-16T14:00:11.323Z</time>
      </trkpt>
      <trkpt lat="62.22549" lon="5.71306">
        <ele>136.301544</ele>
        <time>2020-07-16T14:00:28.802Z</time>
      </trkpt>
      <trkpt lat="62.22594" lon="5.71412">
        <ele>138.652522</ele>
        <time>2020-07-16T14:00:47.292Z</time>
      </trkpt>
      <trkpt lat="62.22629" lon="5.71508">
        <ele>140.847761</ele>
        <time>2020-07-16T14:01:05.354Z</time>
      </trkpt>
      <trkpt lat="62.22815" lon="5.72036">
        <ele>165.563845</ele>
        <time>2020-07-16T14:03:20.787Z</time>
      </trkpt>
      <trkpt lat="62.22907" lon="5.72306">
        <ele>179.003287</ele>
        <time>2020-07-16T14:04:37.428Z</time>
      </trkpt>
      <trkpt lat="62.23019" lon="5.72704">
        <ele>193.51264</ele>
        <time>2020-07-16T14:06:05.004Z</time>
      </trkpt>
      <trkpt lat="62.23035" lon="5.72748">
        <ele>194.984671</ele>
        <time>2020-07-16T14:06:12.332Z</time>
      </trkpt>
      <trkpt lat="62.23057" lon="5.72806">
        <ele>194.943521</ele>
        <time>2020-07-16T14:06:21.243Z</time>
      </trkpt>
      <trkpt lat="62.23526" lon="5.73866">
        <ele>180.959402</ele>
        <time>2020-07-16T14:07:55.398Z</time>
      </trkpt>
      <trkpt lat="62.23593" lon="5.74015">
        <ele>176.547607</ele>
        <time>2020-07-16T14:08:07.243Z</time>
      </trkpt>
      <trkpt lat="62.23617" lon="5.74068">
        <ele>174.858664</ele>
        <time>2020-07-16T14:08:11.465Z</time>
      </trkpt>
      <trkpt lat="62.23637" lon="5.74107">
        <ele>173.556901</ele>
        <time>2020-07-16T14:08:14.711Z</time>
      </trkpt>
      <trkpt lat="62.23653" lon="5.74135">
        <ele>172.58928</ele>
        <time>2020-07-16T14:08:17.063Z</time>
      </trkpt>
      <trkpt lat="62.23804" lon="5.74378">
        <ele>162.067415</ele>
        <time>2020-07-16T14:08:39.557Z</time>
      </trkpt>
      <trkpt lat="62.23836" lon="5.74435">
        <ele>159.538925</ele>
        <time>2020-07-16T14:08:44.497Z</time>
      </trkpt>
      <trkpt lat="62.23869" lon="5.74497">
        <ele>156.852648</ele>
        <time>2020-07-16T14:08:49.659Z</time>
      </trkpt>
      <trkpt lat="62.23913" lon="5.74593">
        <ele>152.995614</ele>
        <time>2020-07-16T14:08:56.905Z</time>
      </trkpt>
      <trkpt lat="62.23931" lon="5.74638">
        <ele>151.295489</ele>
        <time>2020-07-16T14:09:00.153Z</time>
      </trkpt>
      <trkpt lat="62.23937" lon="5.74653">
        <ele>150.739717</ele>
        <time>2020-07-16T14:09:01.209Z</time>
      </trkpt>
      <trkpt lat="62.23947" lon="5.7468">
        <ele>150.071509</ele>
        <time>2020-07-16T14:09:03.234Z</time>
      </trkpt>
      <trkpt lat="62.23963" lon="5.74724">
        <ele>149.008799</ele>
        <time>2020-07-16T14:09:06.202Z</time>
      </trkpt>
      <trkpt lat="62.23992" lon="5.74804">
        <ele>147.042929</ele>
        <time>2020-07-16T14:09:11.970Z</time>
      </trkpt>
      <trkpt lat="62.23996" lon="5.74817">
        <ele>146.746146</ele>
        <time>2020-07-16T14:09:12.792Z</time>
      </trkpt>
      <trkpt lat="62.24002" lon="5.74834">
        <ele>146.333541</ele>
        <time>2020-07-16T14:09:13.929Z</time>
      </trkpt>
      <trkpt lat="62.24236" lon="5.75501">
        <ele>137.843992</ele>
        <time>2020-07-16T14:10:09.778Z</time>
      </trkpt>
      <trkpt lat="62.24323" lon="5.75749">
        <ele>135.208028</ele>
        <time>2020-07-16T14:10:32.400Z</time>
      </trkpt>
      <trkpt lat="62.2437" lon="5.75883">
        <ele>133.695028</ele>
        <time>2020-07-16T14:10:42.888Z</time>
      </trkpt>
      <trkpt lat="62.24428" lon="5.76049">
        <ele>127.909868</ele>
        <time>2020-07-16T14:10:54.908Z</time>
      </trkpt>
      <trkpt lat="62.24444" lon="5.76093">
        <ele>126.380563</ele>
        <time>2020-07-16T14:10:57.831Z</time>
      </trkpt>
      <trkpt lat="62.24448" lon="5.76087">
        <ele>126.084745</ele>
        <time>2020-07-16T14:10:58.431Z</time>
      </trkpt>
      <trkpt lat="62.24453" lon="5.76083">
        <ele>125.76035</ele>
        <time>2020-07-16T14:10:59.080Z</time>
      </trkpt>
      <trkpt lat="62.24455" lon="5.76084">
        <ele>125.614065</ele>
        <time>2020-07-16T14:10:59.338Z</time>
      </trkpt>
      <trkpt lat="62.24465" lon="5.76132">
        <ele>124.153464</ele>
        <time>2020-07-16T14:11:02.269Z</time>
      </trkpt>
      <trkpt lat="62.24501" lon="5.7625">
        <ele>118.371238</ele>
        <time>2020-07-16T14:11:09.886Z</time>
      </trkpt>
      <trkpt lat="62.2452" lon="5.76323">
        <ele>114.353248</ele>
        <time>2020-07-16T14:11:14.418Z</time>
      </trkpt>
      <trkpt lat="62.24533" lon="5.76371">
        <ele>111.776571</ele>
        <time>2020-07-16T14:11:17.249Z</time>
      </trkpt>
      <trkpt lat="62.24555" lon="5.76474">
        <ele>106.372694</ele>
        <time>2020-07-16T14:11:23.333Z</time>
      </trkpt>
      <trkpt lat="62.24565" lon="5.76552">
        <ele>102.299609</ele>
        <time>2020-07-16T14:11:27.571Z</time>
      </trkpt>
      <trkpt lat="62.24571" lon="5.766">
        <ele>99.661915</ele>
        <time>2020-07-16T14:11:30.156Z</time>
      </trkpt>
      <trkpt lat="62.24579" lon="5.76667">
        <ele>95.981761</ele>
        <time>2020-07-16T14:11:33.793Z</time>
      </trkpt>
      <trkpt lat="62.24608" lon="5.76941">
        <ele>80.776305</ele>
        <time>2020-07-16T14:11:48.493Z</time>
      </trkpt>
      <trkpt lat="62.24619" lon="5.77104">
        <ele>71.272426</ele>
        <time>2020-07-16T14:11:57.152Z</time>
      </trkpt>
      <trkpt lat="62.24621" lon="5.77153">
        <ele>68.44095</ele>
        <time>2020-07-16T14:11:59.634Z</time>
      </trkpt>
      <trkpt lat="62.24633" lon="5.7742">
        <ele>53.748524</ele>
        <time>2020-07-16T14:12:13.494Z</time>
      </trkpt>
      <trkpt lat="62.24634" lon="5.77433">
        <ele>53.046915</ele>
        <time>2020-07-16T14:12:14.155Z</time>
      </trkpt>
      <trkpt lat="62.24635" lon="5.77441">
        <ele>52.639723</ele>
        <time>2020-07-16T14:12:14.548Z</time>
      </trkpt>
      <trkpt lat="62.24643" lon="5.77478">
        <ele>50.481455</ele>
        <time>2020-07-16T14:12:16.837Z</time>
      </trkpt>
      <trkpt lat="62.24646" lon="5.77488">
        <ele>49.852403</ele>
        <time>2020-07-16T14:12:17.489Z</time>
      </trkpt>
      <trkpt lat="62.24643" lon="5.77495">
        <ele>49.388773</ele>
        <time>2020-07-16T14:12:17.922Z</time>
      </trkpt>
      <trkpt lat="62.2464" lon="5.77502">
        <ele>48.85257</ele>
        <time>2020-07-16T14:12:18.438Z</time>
      </trkpt>
      <trkpt lat="62.24636" lon="5.7751">
        <ele>48.220238</ele>
        <time>2020-07-16T14:12:19.090Z</time>
      </trkpt>
      <trkpt lat="62.24637" lon="5.77517">
        <ele>47.829486</ele>
        <time>2020-07-16T14:12:19.496Z</time>
      </trkpt>
      <trkpt lat="62.24643" lon="5.77539">
        <ele>46.440657</ele>
        <time>2020-07-16T14:12:20.993Z</time>
      </trkpt>
      <trkpt lat="62.24652" lon="5.77567">
        <ele>44.705099</ele>
        <time>2020-07-16T14:12:22.613Z</time>
      </trkpt>
      <trkpt lat="62.24701" lon="5.77691">
        <ele>38.505914</ele>
        <time>2020-07-16T14:12:31.118Z</time>
      </trkpt>
      <trkpt lat="62.2478" lon="5.77837">
        <ele>31.958813</ele>
        <time>2020-07-16T14:12:43.637Z</time>
      </trkpt>
      <trkpt lat="62.24819" lon="5.77909">
        <ele>29.05741</ele>
        <time>2020-07-16T14:12:49.823Z</time>
      </trkpt>
      <trkpt lat="62.24902" lon="5.78063">
        <ele>23.626676</ele>
        <time>2020-07-16T14:13:03.157Z</time>
      </trkpt>
      <trkpt lat="62.2492" lon="5.78096">
        <ele>22.481933</ele>
        <time>2020-07-16T14:13:05.966Z</time>
      </trkpt>
      <trkpt lat="62.24925" lon="5.78105">
        <ele>22.162959</ele>
        <time>2020-07-16T14:13:06.804Z</time>
      </trkpt>
      <trkpt lat="62.24946" lon="5.78147">
        <ele>20.736556</ele>
        <time>2020-07-16T14:13:10.355Z</time>
      </trkpt>
      <trkpt lat="62.24948" lon="5.78143">
        <ele>20.605072</ele>
        <time>2020-07-16T14:13:10.845Z</time>
      </trkpt>
      <trkpt lat="62.2495" lon="5.7814">
        <ele>20.482582</ele>
        <time>2020-07-16T14:13:11.314Z</time>
      </trkpt>
      <trkpt lat="62.25001" lon="5.78243">
        <ele>17.068337</ele>
        <time>2020-07-16T14:13:20.257Z</time>
      </trkpt>
      <trkpt lat="62.25039" lon="5.78321">
        <ele>14.496548</ele>
        <time>2020-07-16T14:13:26.887Z</time>
      </trkpt>
      <trkpt lat="62.25113" lon="5.78476">
        <ele>9.692982</ele>
        <time>2020-07-16T14:13:40.137Z</time>
      </trkpt>
      <trkpt lat="62.25123" lon="5.78497">
        <ele>9.071703</ele>
        <time>2020-07-16T14:13:41.858Z</time>
      </trkpt>
      <trkpt lat="62.25186" lon="5.78619">
        <ele>5.302656</ele>
        <time>2020-07-16T14:13:52.815Z</time>
      </trkpt>
      <trkpt lat="62.2522" lon="5.78691">
        <ele>3.957081</ele>
        <time>2020-07-16T14:13:59.294Z</time>
      </trkpt>
      <trkpt lat="62.25336" lon="5.78924">
        <ele>1.320095</ele>
        <time>2020-07-16T14:14:23.749Z</time>
      </trkpt>
      <trkpt lat="62.25372" lon="5.78994">
        <ele>1.861165</ele>
        <time>2020-07-16T14:14:33.371Z</time>
      </trkpt>
      <trkpt lat="62.25444" lon="5.79128">
        <ele>2.928303</ele>
        <time>2020-07-16T14:14:55.328Z</time>
      </trkpt>
      <trkpt lat="62.2547" lon="5.79175">
        <ele>3.518079</ele>
        <time>2020-07-16T14:15:03.959Z</time>
      </trkpt>
      <trkpt lat="62.25514" lon="5.79255">
        <ele>5.748339</ele>
        <time>2020-07-16T14:15:21.861Z</time>
      </trkpt>
      <trkpt lat="62.25528" lon="5.79282">
        <ele>6.513938</ele>
        <time>2020-07-16T14:15:29.176Z</time>
      </trkpt>
      <trkpt lat="62.25583" lon="5.79367">
        <ele>9.139289</ele>
        <time>2020-07-16T14:15:49.644Z</time>
      </trkpt>
      <trkpt lat="62.25585" lon="5.79369">
        <ele>9.253696</ele>
        <time>2020-07-16T14:15:51.761Z</time>
      </trkpt>
      <trkpt lat="62.25601" lon="5.79383">
        <ele>9.899802</ele>
        <time>2020-07-16T14:15:56.032Z</time>
      </trkpt>
      <trkpt lat="62.2561" lon="5.79395">
        <ele>10.375853</ele>
        <time>2020-07-16T14:15:59.177Z</time>
      </trkpt>
      <trkpt lat="62.25615" lon="5.79401">
        <ele>10.716837</ele>
        <time>2020-07-16T14:16:01.514Z</time>
      </trkpt>
      <trkpt lat="62.25633" lon="5.79425">
        <ele>11.959413</ele>
        <time>2020-07-16T14:16:08.026Z</time>
      </trkpt>
      <trkpt lat="62.25652" lon="5.79452">
        <ele>13.291559</ele>
        <time>2020-07-16T14:16:16.259Z</time>
      </trkpt>
      <trkpt lat="62.25808" lon="5.79639">
        <ele>26.483815</ele>
        <time>2020-07-16T14:17:25.694Z</time>
      </trkpt>
      <trkpt lat="62.25808" lon="5.79646">
        <ele>26.879227</ele>
        <time>2020-07-16T14:17:27.257Z</time>
      </trkpt>
      <trkpt lat="62.25813" lon="5.79652">
        <ele>27.555872</ele>
        <time>2020-07-16T14:17:29.456Z</time>
      </trkpt>
      <trkpt lat="62.25833" lon="5.79672">
        <ele>30.027093</ele>
        <time>2020-07-16T14:17:43.550Z</time>
      </trkpt>
      <trkpt lat="62.25892" lon="5.79696">
        <ele>36.785006</ele>
        <time>2020-07-16T14:18:18.827Z</time>
      </trkpt>
      <trkpt lat="62.25955" lon="5.79681">
        <ele>43.744438</ele>
        <time>2020-07-16T14:19:00.055Z</time>
      </trkpt>
      <trkpt lat="62.25969" lon="5.79671">
        <ele>45.312635</ele>
        <time>2020-07-16T14:19:11.966Z</time>
      </trkpt>
      <trkpt lat="62.25984" lon="5.79659">
        <ele>46.99823</ele>
        <time>2020-07-16T14:19:20.938Z</time>
      </trkpt>
      <trkpt lat="62.26013" lon="5.79628">
        <ele>50.495891</ele>
        <time>2020-07-16T14:19:38.957Z</time>
      </trkpt>
      <trkpt lat="62.26029" lon="5.79606">
        <ele>52.456302</ele>
        <time>2020-07-16T14:19:48.889Z</time>
      </trkpt>
      <trkpt lat="62.26039" lon="5.7959">
        <ele>53.772614</ele>
        <time>2020-07-16T14:19:55.199Z</time>
      </trkpt>
      <trkpt lat="62.26064" lon="5.79548">
        <ele>57.193125</ele>
        <time>2020-07-16T14:20:10.511Z</time>
      </trkpt>
      <trkpt lat="62.26106" lon="5.79508">
        <ele>59.337967</ele>
        <time>2020-07-16T14:20:28.863Z</time>
      </trkpt>
      <trkpt lat="62.26147" lon="5.79508">
        <ele>57.288776</ele>
        <time>2020-07-16T14:20:37.122Z</time>
      </trkpt>
      <trkpt lat="62.26176" lon="5.79529">
        <ele>55.744434</ele>
        <time>2020-07-16T14:20:41.117Z</time>
      </trkpt>
      <trkpt lat="62.26257" lon="5.7962">
        <ele>51.161311</ele>
        <time>2020-07-16T14:20:50.963Z</time>
      </trkpt>
      <trkpt lat="62.26259" lon="5.79623">
        <ele>50.774242</ele>
        <time>2020-07-16T14:20:51.256Z</time>
      </trkpt>
      <trkpt lat="62.26276" lon="5.79643">
        <ele>48.190973</ele>
        <time>2020-07-16T14:20:53.278Z</time>
      </trkpt>
      <trkpt lat="62.26292" lon="5.79669">
        <ele>45.512897</ele>
        <time>2020-07-16T14:20:55.379Z</time>
      </trkpt>
      <trkpt lat="62.263" lon="5.79682">
        <ele>44.228612</ele>
        <time>2020-07-16T14:20:56.362Z</time>
      </trkpt>
      <trkpt lat="62.26301" lon="5.79684">
        <ele>44.039229</ele>
        <time>2020-07-16T14:20:56.504Z</time>
      </trkpt>
      <trkpt lat="62.26311" lon="5.79701">
        <ele>42.296745</ele>
        <time>2020-07-16T14:20:57.885Z</time>
      </trkpt>
      <trkpt lat="62.2632" lon="5.79719">
        <ele>40.635517</ele>
        <time>2020-07-16T14:20:59.167Z</time>
      </trkpt>
      <trkpt lat="62.26321" lon="5.79721">
        <ele>40.456395</ele>
        <time>2020-07-16T14:20:59.324Z</time>
      </trkpt>
      <trkpt lat="62.26384" lon="5.79849">
        <ele>28.76575</ele>
        <time>2020-07-16T14:21:08.477Z</time>
      </trkpt>
      <trkpt lat="62.26412" lon="5.79906">
        <ele>25.735984</ele>
        <time>2020-07-16T14:21:12.558Z</time>
      </trkpt>
      <trkpt lat="62.26423" lon="5.79928">
        <ele>24.948425</ele>
        <time>2020-07-16T14:21:14.321Z</time>
      </trkpt>
      <trkpt lat="62.26439" lon="5.79957">
        <ele>23.857981</ele>
        <time>2020-07-16T14:21:16.630Z</time>
      </trkpt>
      <trkpt lat="62.26448" lon="5.79974">
        <ele>23.2278</ele>
        <time>2020-07-16T14:21:18.197Z</time>
      </trkpt>
      <trkpt lat="62.26464" lon="5.80002">
        <ele>22.138425</ele>
        <time>2020-07-16T14:21:20.765Z</time>
      </trkpt>
      <trkpt lat="62.26532" lon="5.80115">
        <ele>17.687848</ele>
        <time>2020-07-16T14:21:32.449Z</time>
      </trkpt>
      <trkpt lat="62.2656" lon="5.8016">
        <ele>18.438038</ele>
        <time>2020-07-16T14:21:39.594Z</time>
      </trkpt>
      <trkpt lat="62.26648" lon="5.80299">
        <ele>20.788953</ele>
        <time>2020-07-16T14:22:06.779Z</time>
      </trkpt>
      <trkpt lat="62.26718" lon="5.80397">
        <ele>24.174647</ele>
        <time>2020-07-16T14:22:35.011Z</time>
      </trkpt>
      <trkpt lat="62.26757" lon="5.80453">
        <ele>26.752207</ele>
        <time>2020-07-16T14:22:52.127Z</time>
      </trkpt>
      <trkpt lat="62.2678" lon="5.80481">
        <ele>28.167278</ele>
        <time>2020-07-16T14:23:02.016Z</time>
      </trkpt>
      <trkpt lat="62.26817" lon="5.80525">
        <ele>30.486369</ele>
        <time>2020-07-16T14:23:17.782Z</time>
      </trkpt>
      <trkpt lat="62.26963" lon="5.80689">
        <ele>38.581924</ele>
        <time>2020-07-16T14:24:15.773Z</time>
      </trkpt>
      <trkpt lat="62.26962" lon="5.80652">
        <ele>39.408845</ele>
        <time>2020-07-16T14:24:21.141Z</time>
      </trkpt>
      <trkpt lat="62.2696" lon="5.80417">
        <ele>41.760394</ele>
        <time>2020-07-16T14:24:49.424Z</time>
      </trkpt>
      <trkpt lat="62.26963" lon="5.80401">
        <ele>41.900646</ele>
        <time>2020-07-16T14:24:51.713Z</time>
      </trkpt>
      <trkpt lat="62.26976" lon="5.80406">
        <ele>42.124021</ele>
        <time>2020-07-16T14:24:53.794Z</time>
      </trkpt>
      <trkpt lat="62.26996" lon="5.80423">
        <ele>42.497929</ele>
        <time>2020-07-16T14:24:59.266Z</time>
      </trkpt>
      <trkpt lat="62.27024" lon="5.8043">
        <ele>42.984397</ele>
        <time>2020-07-16T14:25:04.296Z</time>
      </trkpt>
      <trkpt lat="62.27031" lon="5.80431">
        <ele>43.105442</ele>
        <time>2020-07-16T14:25:05.902Z</time>
      </trkpt>
      <trkpt lat="62.27071" lon="5.80438">
        <ele>43.765434</ele>
        <time>2020-07-16T14:25:13.765Z</time>
      </trkpt>
      <trkpt lat="62.27087" lon="5.80422">
        <ele>44.045557</ele>
        <time>2020-07-16T14:25:16.688Z</time>
      </trkpt>
      <trkpt lat="62.27089" lon="5.80381">
        <ele>44.355654</ele>
        <time>2020-07-16T14:25:20.990Z</time>
      </trkpt>
      <trkpt lat="62.27064" lon="5.80257">
        <ele>45.384195</ele>
        <time>2020-07-16T14:25:34.165Z</time>
      </trkpt>
      <trkpt lat="62.27045" lon="5.80191">
        <ele>45.963588</ele>
        <time>2020-07-16T14:25:44.014Z</time>
      </trkpt>
      <trkpt lat="62.27032" lon="5.80085">
        <ele>48.42065</ele>
        <time>2020-07-16T14:26:01.752Z</time>
      </trkpt>
      <trkpt lat="62.27001" lon="5.79946">
        <ele>52.58618</ele>
        <time>2020-07-16T14:26:30.013Z</time>
      </trkpt>
      <trkpt lat="62.26987" lon="5.79767">
        <ele>56.970604</ele>
        <time>2020-07-16T14:27:04.075Z</time>
      </trkpt>
      <trkpt lat="62.27" lon="5.79602">
        <ele>58.99315</ele>
        <time>2020-07-16T14:27:30.770Z</time>
      </trkpt>
      <trkpt lat="62.27011" lon="5.79532">
        <ele>59.886502</ele>
        <time>2020-07-16T14:27:39.596Z</time>
      </trkpt>
      <trkpt lat="62.27026" lon="5.79495">
        <ele>60.488168</ele>
        <time>2020-07-16T14:27:44.191Z</time>
      </trkpt>
      <trkpt lat="62.27062" lon="5.79453">
        <ele>60.54738</ele>
        <time>2020-07-16T14:27:50.420Z</time>
      </trkpt>
      <trkpt lat="62.27119" lon="5.79408">
        <ele>56.952183</ele>
        <time>2020-07-16T14:27:58.158Z</time>
      </trkpt>
      <trkpt lat="62.27176" lon="5.79385">
        <ele>53.523568</ele>
        <time>2020-07-16T14:28:05.124Z</time>
      </trkpt>
      <trkpt lat="62.27212" lon="5.79387">
        <ele>51.425473</ele>
        <time>2020-07-16T14:28:09.292Z</time>
      </trkpt>
      <trkpt lat="62.27239" lon="5.79397">
        <ele>49.642087</ele>
        <time>2020-07-16T14:28:12.495Z</time>
      </trkpt>
      <trkpt lat="62.27331" lon="5.79434">
        <ele>43.042135</ele>
        <time>2020-07-16T14:28:23.570Z</time>
      </trkpt>
      <trkpt lat="62.27361" lon="5.79471">
        <ele>40.661405</ele>
        <time>2020-07-16T14:28:27.672Z</time>
      </trkpt>
      <trkpt lat="62.27426" lon="5.79594">
        <ele>36.035715</ele>
        <time>2020-07-16T14:28:38.827Z</time>
      </trkpt>
      <trkpt lat="62.27476" lon="5.79716">
        <ele>33.045276</ele>
        <time>2020-07-16T14:28:49.018Z</time>
      </trkpt>
      <trkpt lat="62.27515" lon="5.79832">
        <ele>30.445438</ele>
        <time>2020-07-16T14:28:58.168Z</time>
      </trkpt>
      <trkpt lat="62.27582" lon="5.79899">
        <ele>27.722239</ele>
        <time>2020-07-16T14:29:07.984Z</time>
      </trkpt>
      <trkpt lat="62.27585" lon="5.79902">
        <ele>27.601378</ele>
        <time>2020-07-16T14:29:08.396Z</time>
      </trkpt>
      <trkpt lat="62.27595" lon="5.79915">
        <ele>27.148681</ele>
        <time>2020-07-16T14:29:10.052Z</time>
      </trkpt>
      <trkpt lat="62.27613" lon="5.79928">
        <ele>26.459661</ele>
        <time>2020-07-16T14:29:12.442Z</time>
      </trkpt>
      <trkpt lat="62.27623" lon="5.79918">
        <ele>26.063167</ele>
        <time>2020-07-16T14:29:13.917Z</time>
      </trkpt>
      <trkpt lat="62.27646" lon="5.79832">
        <ele>24.363039</ele>
        <time>2020-07-16T14:29:20.144Z</time>
      </trkpt>
      <trkpt lat="62.27651" lon="5.79821">
        <ele>24.125277</ele>
        <time>2020-07-16T14:29:21.124Z</time>
      </trkpt>
      <trkpt lat="62.27656" lon="5.79814">
        <ele>23.98437</ele>
        <time>2020-07-16T14:29:21.871Z</time>
      </trkpt>
      <trkpt lat="62.27689" lon="5.79799">
        <ele>23.202622</ele>
        <time>2020-07-16T14:29:26.379Z</time>
      </trkpt>
      <trkpt lat="62.27707" lon="5.79805">
        <ele>22.753471</ele>
        <time>2020-07-16T14:29:29.047Z</time>
      </trkpt>
      <trkpt lat="62.27722" lon="5.79816">
        <ele>22.392953</ele>
        <time>2020-07-16T14:29:31.089Z</time>
      </trkpt>
      <trkpt lat="62.27726" lon="5.79825">
        <ele>22.247909</ele>
        <time>2020-07-16T14:29:31.910Z</time>
      </trkpt>
      <trkpt lat="62.2773" lon="5.79831">
        <ele>22.137236</ele>
        <time>2020-07-16T14:29:32.669Z</time>
      </trkpt>
      <trkpt lat="62.27748" lon="5.79781">
        <ele>21.447327</ele>
        <time>2020-07-16T14:29:36.645Z</time>
      </trkpt>
      <trkpt lat="62.27753" lon="5.79791">
        <ele>21.2868</ele>
        <time>2020-07-16T14:29:37.760Z</time>
      </trkpt>
      <trkpt lat="62.2776" lon="5.79805">
        <ele>21.063337</ele>
        <time>2020-07-16T14:29:39.422Z</time>
      </trkpt>
      <trkpt lat="62.27767" lon="5.79822">
        <ele>20.80191</ele>
        <time>2020-07-16T14:29:40.989Z</time>
      </trkpt>
      <trkpt lat="62.27773" lon="5.79831">
        <ele>20.635401</ele>
        <time>2020-07-16T14:29:41.912Z</time>
      </trkpt>
      <trkpt lat="62.27778" lon="5.7984">
        <ele>20.480011</ele>
        <time>2020-07-16T14:29:42.940Z</time>
      </trkpt>
      <trkpt lat="62.27788" lon="5.79858">
        <ele>20.183774</ele>
        <time>2020-07-16T14:29:45.155Z</time>
      </trkpt>
      <trkpt lat="62.27789" lon="5.79875">
        <ele>19.991964</ele>
        <time>2020-07-16T14:29:46.433Z</time>
      </trkpt>
      <trkpt lat="62.278" lon="5.79945">
        <ele>20.303732</ele>
        <time>2020-07-16T14:29:52.488Z</time>
      </trkpt>
      <trkpt lat="62.27802" lon="5.79997">
        <ele>20.56097</ele>
        <time>2020-07-16T14:29:57.261Z</time>
      </trkpt>
      <trkpt lat="62.27802" lon="5.8001">
        <ele>20.627278</ele>
        <time>2020-07-16T14:29:58.701Z</time>
      </trkpt>
      <trkpt lat="62.278" lon="5.80058">
        <ele>20.864742</ele>
        <time>2020-07-16T14:30:03.853Z</time>
      </trkpt>
      <trkpt lat="62.27802" lon="5.80093">
        <ele>21.041796</ele>
        <time>2020-07-16T14:30:07.690Z</time>
      </trkpt>
      <trkpt lat="62.27817" lon="5.80159">
        <ele>21.405636</ele>
        <time>2020-07-16T14:30:15.758Z</time>
      </trkpt>
      <trkpt lat="62.27825" lon="5.80198">
        <ele>21.613667</ele>
        <time>2020-07-16T14:30:20.538Z</time>
      </trkpt>
      <trkpt lat="62.27837" lon="5.80271">
        <ele>22.258667</ele>
        <time>2020-07-16T14:30:29.863Z</time>
      </trkpt>
      <trkpt lat="62.27847" lon="5.8033">
        <ele>23.183143</ele>
        <time>2020-07-16T14:30:38.062Z</time>
      </trkpt>
      <trkpt lat="62.27881" lon="5.80414">
        <ele>24.841161</ele>
        <time>2020-07-16T14:30:53.879Z</time>
      </trkpt>
      <trkpt lat="62.27895" lon="5.80534">
        <ele>26.662725</ele>
        <time>2020-07-16T14:31:10.662Z</time>
      </trkpt>
      <trkpt lat="62.27895" lon="5.80569">
        <ele>27.175515</ele>
        <time>2020-07-16T14:31:16.145Z</time>
      </trkpt>
      <trkpt lat="62.27894" lon="5.80594">
        <ele>27.557563</ele>
        <time>2020-07-16T14:31:19.481Z</time>
      </trkpt>
      <trkpt lat="62.27895" lon="5.80625">
        <ele>27.840408</ele>
        <time>2020-07-16T14:31:23.590Z</time>
      </trkpt>
      <trkpt lat="62.27898" lon="5.8064">
        <ele>27.973655</ele>
        <time>2020-07-16T14:31:26.063Z</time>
      </trkpt>
      <trkpt lat="62.27912" lon="5.80731">
        <ele>28.819402</ele>
        <time>2020-07-16T14:31:37.981Z</time>
      </trkpt>
      <trkpt lat="62.27925" lon="5.80857">
        <ele>29.963632</ele>
        <time>2020-07-16T14:31:53.215Z</time>
      </trkpt>
      <trkpt lat="62.27939" lon="5.8095">
        <ele>30.817371</ele>
        <time>2020-07-16T14:32:02.721Z</time>
      </trkpt>
      <trkpt lat="62.27941" lon="5.80967">
        <ele>30.975674</ele>
        <time>2020-07-16T14:32:04.330Z</time>
      </trkpt>
      <trkpt lat="62.27944" lon="5.81003">
        <ele>30.864711</ele>
        <time>2020-07-16T14:32:07.597Z</time>
      </trkpt>
      <trkpt lat="62.27946" lon="5.8102">
        <ele>30.802013</ele>
        <time>2020-07-16T14:32:09.017Z</time>
      </trkpt>
      <trkpt lat="62.27948" lon="5.81071">
        <ele>30.625617</ele>
        <time>2020-07-16T14:32:13.264Z</time>
      </trkpt>
      <trkpt lat="62.27949" lon="5.8111">
        <ele>30.488703</ele>
        <time>2020-07-16T14:32:16.239Z</time>
      </trkpt>
      <trkpt lat="62.27949" lon="5.8115">
        <ele>30.346279</ele>
        <time>2020-07-16T14:32:19.483Z</time>
      </trkpt>
      <trkpt lat="62.2795" lon="5.81213">
        <ele>30.12512</ele>
        <time>2020-07-16T14:32:24.160Z</time>
      </trkpt>
      <trkpt lat="62.27951" lon="5.81255">
        <ele>29.978643</ele>
        <time>2020-07-16T14:32:27.185Z</time>
      </trkpt>
      <trkpt lat="62.27952" lon="5.81334">
        <ele>29.69988</ele>
        <time>2020-07-16T14:32:32.888Z</time>
      </trkpt>
      <trkpt lat="62.2795" lon="5.81363">
        <ele>29.572563</ele>
        <time>2020-07-16T14:32:34.986Z</time>
      </trkpt>
      <trkpt lat="62.27952" lon="5.81385">
        <ele>29.433734</ele>
        <time>2020-07-16T14:32:36.593Z</time>
      </trkpt>
      <trkpt lat="62.27954" lon="5.81412">
        <ele>29.25954</ele>
        <time>2020-07-16T14:32:38.518Z</time>
      </trkpt>
      <trkpt lat="62.27972" lon="5.81576">
        <ele>28.19389</ele>
        <time>2020-07-16T14:32:50.703Z</time>
      </trkpt>
      <trkpt lat="62.28014" lon="5.81774">
        <ele>26.788174</ele>
        <time>2020-07-16T14:33:06.723Z</time>
      </trkpt>
      <trkpt lat="62.28031" lon="5.8192">
        <ele>25.792311</ele>
        <time>2020-07-16T14:33:17.987Z</time>
      </trkpt>
      <trkpt lat="62.28029" lon="5.81924">
        <ele>25.753822</ele>
        <time>2020-07-16T14:33:18.321Z</time>
      </trkpt>
      <trkpt lat="62.28034" lon="5.8193">
        <ele>25.678571</ele>
        <time>2020-07-16T14:33:19.471Z</time>
      </trkpt>
      <trkpt lat="62.28074" lon="5.8205">
        <ele>24.695369</ele>
        <time>2020-07-16T14:33:30.211Z</time>
      </trkpt>
      <trkpt lat="62.28151" lon="5.82186">
        <ele>21.239713</ele>
        <time>2020-07-16T14:33:44.090Z</time>
      </trkpt>
      <trkpt lat="62.28163" lon="5.82222">
        <ele>20.51161</ele>
        <time>2020-07-16T14:33:46.903Z</time>
      </trkpt>
      <trkpt lat="62.28171" lon="5.82282">
        <ele>19.462879</ele>
        <time>2020-07-16T14:33:50.889Z</time>
      </trkpt>
      <trkpt lat="62.28172" lon="5.823">
        <ele>19.15087</ele>
        <time>2020-07-16T14:33:51.936Z</time>
      </trkpt>
      <trkpt lat="62.28172" lon="5.82312">
        <ele>18.956748</ele>
        <time>2020-07-16T14:33:52.607Z</time>
      </trkpt>
      <trkpt lat="62.28178" lon="5.82562">
        <ele>12.663444</ele>
        <time>2020-07-16T14:34:07.003Z</time>
      </trkpt>
      <trkpt lat="62.28174" lon="5.82601">
        <ele>11.566958</ele>
        <time>2020-07-16T14:34:09.234Z</time>
      </trkpt>
      <trkpt lat="62.28161" lon="5.82668">
        <ele>9.58625</ele>
        <time>2020-07-16T14:34:13.383Z</time>
      </trkpt>
      <trkpt lat="62.28148" lon="5.8272">
        <ele>7.972925</ele>
        <time>2020-07-16T14:34:16.871Z</time>
      </trkpt>
      <trkpt lat="62.28135" lon="5.82771">
        <ele>6.877297</ele>
        <time>2020-07-16T14:34:20.416Z</time>
      </trkpt>
      <trkpt lat="62.28122" lon="5.82801">
        <ele>6.209142</ele>
        <time>2020-07-16T14:34:22.770Z</time>
      </trkpt>
      <trkpt lat="62.28131" lon="5.82824">
        <ele>5.70352</ele>
        <time>2020-07-16T14:34:24.636Z</time>
      </trkpt>
      <trkpt lat="62.28152" lon="5.82891">
        <ele>4.388053</ele>
        <time>2020-07-16T14:34:29.248Z</time>
      </trkpt>
      <trkpt lat="62.28154" lon="5.82898">
        <ele>4.263156</ele>
        <time>2020-07-16T14:34:29.671Z</time>
      </trkpt>
      <trkpt lat="62.28212" lon="5.83105">
        <ele>1.141484</ele>
        <time>2020-07-16T14:34:45.356Z</time>
      </trkpt>
      <trkpt lat="62.28266" lon="5.83302">
        <ele>0.493793</ele>
        <time>2020-07-16T14:35:03.786Z</time>
      </trkpt>
      <trkpt lat="62.2827" lon="5.83316">
        <ele>0.449059</ele>
        <time>2020-07-16T14:35:05.050Z</time>
      </trkpt>
      <trkpt lat="62.28285" lon="5.83369">
        <ele>0.274052</ele>
        <time>2020-07-16T14:35:09.991Z</time>
      </trkpt>
      <trkpt lat="62.28338" lon="5.83561">
        <ele>0.445346</ele>
        <time>2020-07-16T14:35:28.022Z</time>
      </trkpt>
      <trkpt lat="62.28356" lon="5.83627">
        <ele>0.528949</ele>
        <time>2020-07-16T14:35:34.382Z</time>
      </trkpt>
      <trkpt lat="62.28373" lon="5.83688">
        <ele>0.607319</ele>
        <time>2020-07-16T14:35:40.830Z</time>
      </trkpt>
      <trkpt lat="62.28402" lon="5.83777">
        <ele>1.230825</ele>
        <time>2020-07-16T14:35:51.862Z</time>
      </trkpt>
      <trkpt lat="62.28433" lon="5.83839">
        <ele>1.962241</ele>
        <time>2020-07-16T14:36:02.090Z</time>
      </trkpt>
      <trkpt lat="62.28457" lon="5.83874">
        <ele>2.45183</ele>
        <time>2020-07-16T14:36:09.014Z</time>
      </trkpt>
      <trkpt lat="62.28478" lon="5.83903">
        <ele>2.890413</ele>
        <time>2020-07-16T14:36:15.346Z</time>
      </trkpt>
      <trkpt lat="62.28504" lon="5.83941">
        <ele>3.421711</ele>
        <time>2020-07-16T14:36:23.528Z</time>
      </trkpt>
      <trkpt lat="62.28519" lon="5.83964">
        <ele>3.732274</ele>
        <time>2020-07-16T14:36:27.983Z</time>
      </trkpt>
      <trkpt lat="62.28596" lon="5.84119">
        <ele>4.858389</ele>
        <time>2020-07-16T14:36:50.665Z</time>
      </trkpt>
      <trkpt lat="62.28605" lon="5.84141">
        <ele>5.000853</ele>
        <time>2020-07-16T14:36:53.449Z</time>
      </trkpt>
      <trkpt lat="62.28613" lon="5.8416">
        <ele>5.126272</ele>
        <time>2020-07-16T14:36:55.424Z</time>
      </trkpt>
      <trkpt lat="62.28637" lon="5.84225">
        <ele>5.53865</ele>
        <time>2020-07-16T14:37:02.834Z</time>
      </trkpt>
      <trkpt lat="62.28677" lon="5.84338">
        <ele>6.130024</ele>
        <time>2020-07-16T14:37:16.823Z</time>
      </trkpt>
      <trkpt lat="62.28684" lon="5.84358">
        <ele>6.233314</ele>
        <time>2020-07-16T14:37:19.423Z</time>
      </trkpt>
      <trkpt lat="62.28724" lon="5.84442">
        <ele>6.713535</ele>
        <time>2020-07-16T14:37:30.448Z</time>
      </trkpt>
      <trkpt lat="62.2874" lon="5.84467">
        <ele>6.883778</ele>
        <time>2020-07-16T14:37:35.040Z</time>
      </trkpt>
      <trkpt lat="62.28757" lon="5.84493">
        <ele>7.066746</ele>
        <time>2020-07-16T14:37:39.600Z</time>
      </trkpt>
      <trkpt lat="62.28859" lon="5.84652">
        <ele>6.610602</ele>
        <time>2020-07-16T14:38:04.608Z</time>
      </trkpt>
      <trkpt lat="62.28901" lon="5.84732">
        <ele>6.3112</ele>
        <time>2020-07-16T14:38:12.565Z</time>
      </trkpt>
      <trkpt lat="62.28949" lon="5.84822">
        <ele>5.188371</ele>
        <time>2020-07-16T14:38:20.945Z</time>
      </trkpt>
      <trkpt lat="62.28951" lon="5.84818">
        <ele>5.134732</ele>
        <time>2020-07-16T14:38:21.277Z</time>
      </trkpt>
      <trkpt lat="62.29003" lon="5.84899">
        <ele>3.809044</ele>
        <time>2020-07-16T14:38:30.258Z</time>
      </trkpt>
      <trkpt lat="62.29025" lon="5.84916">
        <ele>3.325424</ele>
        <time>2020-07-16T14:38:33.645Z</time>
      </trkpt>
      <trkpt lat="62.29027" lon="5.84917">
        <ele>3.274826</ele>
        <time>2020-07-16T14:38:33.948Z</time>
      </trkpt>
      <trkpt lat="62.29026" lon="5.84925">
        <ele>3.194575</ele>
        <time>2020-07-16T14:38:34.488Z</time>
      </trkpt>
      <trkpt lat="62.29025" lon="5.84931">
        <ele>3.133139</ele>
        <time>2020-07-16T14:38:34.921Z</time>
      </trkpt>
      <trkpt lat="62.29025" lon="5.84938">
        <ele>3.069437</ele>
        <time>2020-07-16T14:38:35.476Z</time>
      </trkpt>
      <trkpt lat="62.29044" lon="5.84978">
        <ele>2.546149</ele>
        <time>2020-07-16T14:38:39.576Z</time>
      </trkpt>
      <trkpt lat="62.29049" lon="5.84987">
        <ele>2.755564</ele>
        <time>2020-07-16T14:38:40.866Z</time>
      </trkpt>
      <trkpt lat="62.29066" lon="5.85018">
        <ele>3.452637</ele>
        <time>2020-07-16T14:38:45.862Z</time>
      </trkpt>
      <trkpt lat="62.29067" lon="5.85021">
        <ele>3.510965</ele>
        <time>2020-07-16T14:38:46.397Z</time>
      </trkpt>
      <trkpt lat="62.29078" lon="5.8504">
        <ele>3.932659</ele>
        <time>2020-07-16T14:38:49.665Z</time>
      </trkpt>
      <trkpt lat="62.2908" lon="5.85045">
        <ele>4.04742</ele>
        <time>2020-07-16T14:38:50.932Z</time>
      </trkpt>
      <trkpt lat="62.29113" lon="5.85096">
        <ele>5.317064</ele>
        <time>2020-07-16T14:39:03.181Z</time>
      </trkpt>
      <trkpt lat="62.29131" lon="5.85111">
        <ele>5.935658</ele>
        <time>2020-07-16T14:39:09.519Z</time>
      </trkpt>
      <trkpt lat="62.29132" lon="5.85123">
        <ele>6.108637</ele>
        <time>2020-07-16T14:39:10.852Z</time>
      </trkpt>
      <trkpt lat="62.29131" lon="5.85128">
        <ele>6.190831</ele>
        <time>2020-07-16T14:39:11.813Z</time>
      </trkpt>
      <trkpt lat="62.2913" lon="5.85136">
        <ele>6.301596</ele>
        <time>2020-07-16T14:39:13.068Z</time>
      </trkpt>
      <trkpt lat="62.29129" lon="5.85141">
        <ele>6.39367</ele>
        <time>2020-07-16T14:39:14.075Z</time>
      </trkpt>
      <trkpt lat="62.29138" lon="5.85152">
        <ele>6.705731</ele>
        <time>2020-07-16T14:39:17.267Z</time>
      </trkpt>
      <trkpt lat="62.29138" lon="5.85159">
        <ele>6.798585</ele>
        <time>2020-07-16T14:39:18.357Z</time>
      </trkpt>
      <trkpt lat="62.29141" lon="5.85172">
        <ele>7.016753</ele>
        <time>2020-07-16T14:39:20.864Z</time>
      </trkpt>
      <trkpt lat="62.29143" lon="5.85178">
        <ele>7.13164</ele>
        <time>2020-07-16T14:39:21.768Z</time>
      </trkpt>
      <trkpt lat="62.29147" lon="5.85183">
        <ele>7.274812</ele>
        <time>2020-07-16T14:39:23.082Z</time>
      </trkpt>
      <trkpt lat="62.29152" lon="5.85186">
        <ele>7.424423</ele>
        <time>2020-07-16T14:39:24.789Z</time>
      </trkpt>
      <trkpt lat="62.29153" lon="5.85186">
        <ele>7.478049</ele>
        <time>2020-07-16T14:39:25.607Z</time>
      </trkpt>
      <trkpt lat="62.29165" lon="5.85174">
        <ele>7.878919</ele>
        <time>2020-07-16T14:39:30.538Z</time>
      </trkpt>
      <trkpt lat="62.29167" lon="5.85165">
        <ele>8.023113</ele>
        <time>2020-07-16T14:39:32.305Z</time>
      </trkpt>
      <trkpt lat="62.29171" lon="5.85163">
        <ele>8.158759</ele>
        <time>2020-07-16T14:39:33.695Z</time>
      </trkpt>
      <trkpt lat="62.29181" lon="5.85157">
        <ele>8.434826</ele>
        <time>2020-07-16T14:39:36.440Z</time>
      </trkpt>
      <trkpt lat="62.29189" lon="5.85149">
        <ele>8.691603</ele>
        <time>2020-07-16T14:39:39.476Z</time>
      </trkpt>
      <trkpt lat="62.29202" lon="5.85142">
        <ele>9.045957</ele>
        <time>2020-07-16T14:39:44.794Z</time>
      </trkpt>
      <trkpt lat="62.29226" lon="5.8512">
        <ele>9.771174</ele>
        <time>2020-07-16T14:39:53.117Z</time>
      </trkpt>
      <trkpt lat="62.29284" lon="5.85041">
        <ele>11.645372</ele>
        <time>2020-07-16T14:40:12.153Z</time>
      </trkpt>
      <trkpt lat="62.29286" lon="5.85039">
        <ele>11.700387</ele>
        <time>2020-07-16T14:40:13.623Z</time>
      </trkpt>
      <trkpt lat="62.29368" lon="5.84927">
        <ele>11.94912</ele>
        <time>2020-07-16T14:40:30.190Z</time>
      </trkpt>
      <trkpt lat="62.29439" lon="5.84822">
        <ele>9.673299</ele>
        <time>2020-07-16T14:40:41.448Z</time>
      </trkpt>
      <trkpt lat="62.29521" lon="5.84659">
        <ele>6.54831</ele>
        <time>2020-07-16T14:40:55.401Z</time>
      </trkpt>
      <trkpt lat="62.29527" lon="5.84646">
        <ele>6.283949</ele>
        <time>2020-07-16T14:40:56.428Z</time>
      </trkpt>
      <trkpt lat="62.29535" lon="5.84631">
        <ele>5.967055</ele>
        <time>2020-07-16T14:40:58.027Z</time>
      </trkpt>
      <trkpt lat="62.29677" lon="5.84416">
        <ele>2.346237</ele>
        <time>2020-07-16T14:41:22.371Z</time>
      </trkpt>
      <trkpt lat="62.2973" lon="5.84316">
        <ele>1.658079</ele>
        <time>2020-07-16T14:41:33.616Z</time>
      </trkpt>
      <trkpt lat="62.29744" lon="5.84283">
        <ele>1.457033</ele>
        <time>2020-07-16T14:41:36.841Z</time>
      </trkpt>
      <trkpt lat="62.29752" lon="5.84265">
        <ele>1.345853</ele>
        <time>2020-07-16T14:41:38.735Z</time>
      </trkpt>
      <trkpt lat="62.29815" lon="5.84108">
        <ele>7.345536</ele>
        <time>2020-07-16T14:42:01.836Z</time>
      </trkpt>
      <trkpt lat="62.29863" lon="5.84023">
        <ele>11.259086</ele>
        <time>2020-07-16T14:42:30.152Z</time>
      </trkpt>
      <trkpt lat="62.29867" lon="5.84019">
        <ele>11.548113</ele>
        <time>2020-07-16T14:42:32.277Z</time>
      </trkpt>
      <trkpt lat="62.29876" lon="5.8401">
        <ele>12.126165</ele>
        <time>2020-07-16T14:42:40.034Z</time>
      </trkpt>
      <trkpt lat="62.2992" lon="5.8398">
        <ele>20.573105</ele>
        <time>2020-07-16T14:43:14.374Z</time>
      </trkpt>
      <trkpt lat="62.29969" lon="5.83976">
        <ele>30.493087</ele>
        <time>2020-07-16T14:43:47.917Z</time>
      </trkpt>
      <trkpt lat="62.2998" lon="5.83978">
        <ele>32.661715</ele>
        <time>2020-07-16T14:43:57.864Z</time>
      </trkpt>
      <trkpt lat="62.29992" lon="5.83984">
        <ele>35.248854</ele>
        <time>2020-07-16T14:44:09.587Z</time>
      </trkpt>
      <trkpt lat="62.30048" lon="5.84038">
        <ele>47.658645</ele>
        <time>2020-07-16T14:45:05.156Z</time>
      </trkpt>
      <trkpt lat="62.30091" lon="5.84124">
        <ele>57.006308</ele>
        <time>2020-07-16T14:45:55.460Z</time>
      </trkpt>
      <trkpt lat="62.301" lon="5.84142">
        <ele>58.794394</ele>
        <time>2020-07-16T14:46:06.465Z</time>
      </trkpt>
      <trkpt lat="62.30106" lon="5.84162">
        <ele>60.463148</ele>
        <time>2020-07-16T14:46:16.578Z</time>
      </trkpt>
      <trkpt lat="62.30112" lon="5.84183">
        <ele>62.161434</ele>
        <time>2020-07-16T14:46:21.671Z</time>
      </trkpt>
      <trkpt lat="62.30117" lon="5.84203">
        <ele>63.79864</ele>
        <time>2020-07-16T14:46:30.771Z</time>
      </trkpt>
      <trkpt lat="62.30118" lon="5.84211">
        <ele>64.390283</ele>
        <time>2020-07-16T14:46:33.895Z</time>
      </trkpt>
      <trkpt lat="62.3014" lon="5.84376">
        <ele>76.381902</ele>
        <time>2020-07-16T14:47:13.898Z</time>
      </trkpt>
      <trkpt lat="62.30168" lon="5.84721">
        <ele>74.293613</ele>
        <time>2020-07-16T14:47:38.024Z</time>
      </trkpt>
      <trkpt lat="62.30185" lon="5.84836">
        <ele>69.999916</ele>
        <time>2020-07-16T14:47:44.247Z</time>
      </trkpt>
      <trkpt lat="62.30218" lon="5.84951">
        <ele>63.395875</ele>
        <time>2020-07-16T14:47:51.091Z</time>
      </trkpt>
      <trkpt lat="62.30334" lon="5.85217">
        <ele>45.267884</ele>
        <time>2020-07-16T14:48:09.032Z</time>
      </trkpt>
      <trkpt lat="62.30338" lon="5.8523">
        <ele>44.501936</ele>
        <time>2020-07-16T14:48:09.759Z</time>
      </trkpt>
      <trkpt lat="62.30344" lon="5.85248">
        <ele>43.366044</ele>
        <time>2020-07-16T14:48:10.942Z</time>
      </trkpt>
      <trkpt lat="62.30369" lon="5.8536">
        <ele>37.037616</ele>
        <time>2020-07-16T14:48:17.308Z</time>
      </trkpt>
      <trkpt lat="62.30378" lon="5.85407">
        <ele>35.001228</ele>
        <time>2020-07-16T14:48:20.057Z</time>
      </trkpt>
      <trkpt lat="62.30381" lon="5.85404">
        <ele>34.826022</ele>
        <time>2020-07-16T14:48:20.366Z</time>
      </trkpt>
      <trkpt lat="62.30396" lon="5.85404">
        <ele>33.950209</ele>
        <time>2020-07-16T14:48:22.009Z</time>
      </trkpt>
      <trkpt lat="62.30412" lon="5.85444">
        <ele>32.511992</ele>
        <time>2020-07-16T14:48:24.915Z</time>
      </trkpt>
      <trkpt lat="62.30427" lon="5.85465">
        <ele>31.439719</ele>
        <time>2020-07-16T14:48:27.002Z</time>
      </trkpt>
      <trkpt lat="62.30471" lon="5.85492">
        <ele>28.760207</ele>
        <time>2020-07-16T14:48:32.766Z</time>
      </trkpt>
      <trkpt lat="62.30509" lon="5.85581">
        <ele>25.448801</ele>
        <time>2020-07-16T14:48:39.523Z</time>
      </trkpt>
      <trkpt lat="62.30556" lon="5.85621">
        <ele>22.669693</ele>
        <time>2020-07-16T14:48:45.735Z</time>
      </trkpt>
      <trkpt lat="62.30618" lon="5.85615">
        <ele>19.281417</ele>
        <time>2020-07-16T14:48:53.086Z</time>
      </trkpt>
      <trkpt lat="62.30639" lon="5.85601">
        <ele>18.073761</ele>
        <time>2020-07-16T14:48:55.657Z</time>
      </trkpt>
      <trkpt lat="62.30706" lon="5.8548">
        <ele>13.580854</ele>
        <time>2020-07-16T14:49:06.058Z</time>
      </trkpt>
      <trkpt lat="62.30717" lon="5.85457">
        <ele>12.880467</ele>
        <time>2020-07-16T14:49:07.831Z</time>
      </trkpt>
      <trkpt lat="62.30727" lon="5.85433">
        <ele>12.17754</ele>
        <time>2020-07-16T14:49:09.677Z</time>
      </trkpt>
      <trkpt lat="62.30755" lon="5.85347">
        <ele>9.921607</ele>
        <time>2020-07-16T14:49:15.616Z</time>
      </trkpt>
      <trkpt lat="62.30773" lon="5.85266">
        <ele>8.002114</ele>
        <time>2020-07-16T14:49:20.762Z</time>
      </trkpt>
      <trkpt lat="62.3079" lon="5.85134">
        <ele>7.284219</ele>
        <time>2020-07-16T14:49:29.159Z</time>
      </trkpt>
      <trkpt lat="62.30811" lon="5.85073">
        <ele>7.629654</ele>
        <time>2020-07-16T14:49:35.468Z</time>
      </trkpt>
      <trkpt lat="62.30835" lon="5.85046">
        <ele>7.898309</ele>
        <time>2020-07-16T14:49:40.917Z</time>
      </trkpt>
      <trkpt lat="62.30897" lon="5.85009">
        <ele>8.528396</ele>
        <time>2020-07-16T14:49:58.787Z</time>
      </trkpt>
      <trkpt lat="62.30938" lon="5.85002">
        <ele>10.251616</ele>
        <time>2020-07-16T14:50:12.564Z</time>
      </trkpt>
      <trkpt lat="62.30952" lon="5.84999">
        <ele>11.07059</ele>
        <time>2020-07-16T14:50:19.074Z</time>
      </trkpt>
      <trkpt lat="62.30964" lon="5.85">
        <ele>11.765617</ele>
        <time>2020-07-16T14:50:23.381Z</time>
      </trkpt>
      <trkpt lat="62.30978" lon="5.85006">
        <ele>12.569137</ele>
        <time>2020-07-16T14:50:27.411Z</time>
      </trkpt>
      <trkpt lat="62.30988" lon="5.85014">
        <ele>13.22524</ele>
        <time>2020-07-16T14:50:33.031Z</time>
      </trkpt>
      <trkpt lat="62.31001" lon="5.85028">
        <ele>14.049647</ele>
        <time>2020-07-16T14:50:37.999Z</time>
      </trkpt>
      <trkpt lat="62.31036" lon="5.85089">
        <ele>16.670056</ele>
        <time>2020-07-16T14:50:54.330Z</time>
      </trkpt>
      <trkpt lat="62.31038" lon="5.85097">
        <ele>16.914149</ele>
        <time>2020-07-16T14:50:56.773Z</time>
      </trkpt>
      <trkpt lat="62.31043" lon="5.85118">
        <ele>17.536615</ele>
        <time>2020-07-16T14:51:01.789Z</time>
      </trkpt>
      <trkpt lat="62.31049" lon="5.8519">
        <ele>19.35938</ele>
        <time>2020-07-16T14:51:14.894Z</time>
      </trkpt>
      <trkpt lat="62.31047" lon="5.85326">
        <ele>21.660905</ele>
        <time>2020-07-16T14:51:35.373Z</time>
      </trkpt>
      <trkpt lat="62.31058" lon="5.85408">
        <ele>23.109503</ele>
        <time>2020-07-16T14:51:46.769Z</time>
      </trkpt>
      <trkpt lat="62.31082" lon="5.85487">
        <ele>24.709031</ele>
        <time>2020-07-16T14:51:56.586Z</time>
      </trkpt>
      <trkpt lat="62.31143" lon="5.85604">
        <ele>27.929447</ele>
        <time>2020-07-16T14:52:17.193Z</time>
      </trkpt>
      <trkpt lat="62.31185" lon="5.85713">
        <ele>30.653606</ele>
        <time>2020-07-16T14:52:38.091Z</time>
      </trkpt>
      <trkpt lat="62.3119" lon="5.85725">
        <ele>30.937209</ele>
        <time>2020-07-16T14:52:39.984Z</time>
      </trkpt>
      <trkpt lat="62.31199" lon="5.85745">
        <ele>31.481697</ele>
        <time>2020-07-16T14:52:45.591Z</time>
      </trkpt>
      <trkpt lat="62.31236" lon="5.85827">
        <ele>33.500803</ele>
        <time>2020-07-16T14:53:04.725Z</time>
      </trkpt>
      <trkpt lat="62.31299" lon="5.8593">
        <ele>35.906349</ele>
        <time>2020-07-16T14:53:34.428Z</time>
      </trkpt>
      <trkpt lat="62.31351" lon="5.86008">
        <ele>37.842245</ele>
        <time>2020-07-16T14:53:49.798Z</time>
      </trkpt>
      <trkpt lat="62.3139" lon="5.86054">
        <ele>37.073514</ele>
        <time>2020-07-16T14:53:56.319Z</time>
      </trkpt>
      <trkpt lat="62.31399" lon="5.86062">
        <ele>36.477558</ele>
        <time>2020-07-16T14:53:58.811Z</time>
      </trkpt>
      <trkpt lat="62.31401" lon="5.8606">
        <ele>36.325846</ele>
        <time>2020-07-16T14:53:59.082Z</time>
      </trkpt>
      <trkpt lat="62.31508" lon="5.85974">
        <ele>29.11476</ele>
        <time>2020-07-16T14:54:12.692Z</time>
      </trkpt>
      <trkpt lat="62.31543" lon="5.85933">
        <ele>26.676288</ele>
        <time>2020-07-16T14:54:17.302Z</time>
      </trkpt>
      <trkpt lat="62.31575" lon="5.8586">
        <ele>24.430635</ele>
        <time>2020-07-16T14:54:22.709Z</time>
      </trkpt>
      <trkpt lat="62.3163" lon="5.85672">
        <ele>19.450301</ele>
        <time>2020-07-16T14:54:36.407Z</time>
      </trkpt>
      <trkpt lat="62.3165" lon="5.85641">
        <ele>18.387463</ele>
        <time>2020-07-16T14:54:40.825Z</time>
      </trkpt>
      <trkpt lat="62.31671" lon="5.85627">
        <ele>18.323791</ele>
        <time>2020-07-16T14:54:44.168Z</time>
      </trkpt>
      <trkpt lat="62.31677" lon="5.85622">
        <ele>18.305758</ele>
        <time>2020-07-16T14:54:46.926Z</time>
      </trkpt>
      <trkpt lat="62.31684" lon="5.85617">
        <ele>18.285428</ele>
        <time>2020-07-16T14:54:48.040Z</time>
      </trkpt>
      <trkpt lat="62.31686" lon="5.85616">
        <ele>18.279941</ele>
        <time>2020-07-16T14:54:48.350Z</time>
      </trkpt>
      <trkpt lat="62.31691" lon="5.85629">
        <ele>18.256908</ele>
        <time>2020-07-16T14:54:49.564Z</time>
      </trkpt>
      <trkpt lat="62.31693" lon="5.85626">
        <ele>18.249837</ele>
        <time>2020-07-16T14:54:49.985Z</time>
      </trkpt>
      <trkpt lat="62.31695" lon="5.85624">
        <ele>18.243116</ele>
        <time>2020-07-16T14:54:50.348Z</time>
      </trkpt>
      <trkpt lat="62.31701" lon="5.85637">
        <ele>18.219713</ele>
        <time>2020-07-16T14:54:51.857Z</time>
      </trkpt>
      <trkpt lat="62.31779" lon="5.85854">
        <ele>17.830432</ele>
        <time>2020-07-16T14:55:17.465Z</time>
      </trkpt>
      <trkpt lat="62.31782" lon="5.85861">
        <ele>17.803183</ele>
        <time>2020-07-16T14:55:18.250Z</time>
      </trkpt>
      <trkpt lat="62.31783" lon="5.85866">
        <ele>17.787367</ele>
        <time>2020-07-16T14:55:18.650Z</time>
      </trkpt>
      <trkpt lat="62.31801" lon="5.85922">
        <ele>17.604666</ele>
        <time>2020-07-16T14:55:23.388Z</time>
      </trkpt>
      <trkpt lat="62.31805" lon="5.85934">
        <ele>17.563004</ele>
        <time>2020-07-16T14:55:24.455Z</time>
      </trkpt>
      <trkpt lat="62.31809" lon="5.85942">
        <ele>17.532098</ele>
        <time>2020-07-16T14:55:25.157Z</time>
      </trkpt>
      <trkpt lat="62.31831" lon="5.85982">
        <ele>17.364258</ele>
        <time>2020-07-16T14:55:29.776Z</time>
      </trkpt>
      <trkpt lat="62.31841" lon="5.86001">
        <ele>17.282954</ele>
        <time>2020-07-16T14:55:31.759Z</time>
      </trkpt>
      <trkpt lat="62.31856" lon="5.86029">
        <ele>17.168101</ele>
        <time>2020-07-16T14:55:35.049Z</time>
      </trkpt>
      <trkpt lat="62.31869" lon="5.86051">
        <ele>17.069105</ele>
        <time>2020-07-16T14:55:37.485Z</time>
      </trkpt>
      <trkpt lat="62.31877" lon="5.86064">
        <ele>17.012927</ele>
        <time>2020-07-16T14:55:39.128Z</time>
      </trkpt>
      <trkpt lat="62.31928" lon="5.86159">
        <ele>18.507823</ele>
        <time>2020-07-16T14:55:53.623Z</time>
      </trkpt>
      <trkpt lat="62.31963" lon="5.86302">
        <ele>21.874456</ele>
        <time>2020-07-16T14:56:16.659Z</time>
      </trkpt>
      <trkpt lat="62.31965" lon="5.86312">
        <ele>22.104684</ele>
        <time>2020-07-16T14:56:18.678Z</time>
      </trkpt>
      <trkpt lat="62.31969" lon="5.86315">
        <ele>22.268584</ele>
        <time>2020-07-16T14:56:22.096Z</time>
      </trkpt>
      <trkpt lat="62.32013" lon="5.86409">
        <ele>25.070509</ele>
        <time>2020-07-16T14:56:45.085Z</time>
      </trkpt>
      <trkpt lat="62.32028" lon="5.86464">
        <ele>26.596136</ele>
        <time>2020-07-16T14:56:58.083Z</time>
      </trkpt>
      <trkpt lat="62.32028" lon="5.86489">
        <ele>27.184223</ele>
        <time>2020-07-16T14:57:01.504Z</time>
      </trkpt>
      <trkpt lat="62.32028" lon="5.86498">
        <ele>27.403411</ele>
        <time>2020-07-16T14:57:05.439Z</time>
      </trkpt>
      <trkpt lat="62.3205" lon="5.86546">
        <ele>29.016784</ele>
        <time>2020-07-16T14:57:15.176Z</time>
      </trkpt>
      <trkpt lat="62.32058" lon="5.8656">
        <ele>29.539073</ele>
        <time>2020-07-16T14:57:22.466Z</time>
      </trkpt>
      <trkpt lat="62.32077" lon="5.86571">
        <ele>30.58325</ele>
        <time>2020-07-16T14:57:28.453Z</time>
      </trkpt>
      <trkpt lat="62.3224" lon="5.86641">
        <ele>33.54022</ele>
        <time>2020-07-16T14:58:11.094Z</time>
      </trkpt>
      <trkpt lat="62.32287" lon="5.86627">
        <ele>33.25114</ele>
        <time>2020-07-16T14:58:17.766Z</time>
      </trkpt>
      <trkpt lat="62.32344" lon="5.86593">
        <ele>31.951556</ele>
        <time>2020-07-16T14:58:25.246Z</time>
      </trkpt>
      <trkpt lat="62.32442" lon="5.86562">
        <ele>27.367014</ele>
        <time>2020-07-16T14:58:37.752Z</time>
      </trkpt>
      <trkpt lat="62.32449" lon="5.8656">
        <ele>27.002653</ele>
        <time>2020-07-16T14:58:38.700Z</time>
      </trkpt>
      <trkpt lat="62.32467" lon="5.86556">
        <ele>26.204708</ele>
        <time>2020-07-16T14:58:40.922Z</time>
      </trkpt>
      <trkpt lat="62.32513" lon="5.86541">
        <ele>24.268512</ele>
        <time>2020-07-16T14:58:47.375Z</time>
      </trkpt>
      <trkpt lat="62.32538" lon="5.86536">
        <ele>23.547769</ele>
        <time>2020-07-16T14:58:50.623Z</time>
      </trkpt>
      <trkpt lat="62.32574" lon="5.86528">
        <ele>22.513008</ele>
        <time>2020-07-16T14:58:55.544Z</time>
      </trkpt>
      <trkpt lat="62.3262" lon="5.8652">
        <ele>21.155903</ele>
        <time>2020-07-16T14:59:02.393Z</time>
      </trkpt>
      <trkpt lat="62.32624" lon="5.86519">
        <ele>21.042647</ele>
        <time>2020-07-16T14:59:03.749Z</time>
      </trkpt>
      <trkpt lat="62.32646" lon="5.86512">
        <ele>20.413417</ele>
        <time>2020-07-16T14:59:06.651Z</time>
      </trkpt>
      <trkpt lat="62.3277" lon="5.86461">
        <ele>16.093965</ele>
        <time>2020-07-16T14:59:24.767Z</time>
      </trkpt>
      <trkpt lat="62.32776" lon="5.86462">
        <ele>15.90224</ele>
        <time>2020-07-16T14:59:25.399Z</time>
      </trkpt>
      <trkpt lat="62.32781" lon="5.86455">
        <ele>15.656091</ele>
        <time>2020-07-16T14:59:26.249Z</time>
      </trkpt>
      <trkpt lat="62.32787" lon="5.8645">
        <ele>15.426522</ele>
        <time>2020-07-16T14:59:27.118Z</time>
      </trkpt>
      <trkpt lat="62.32799" lon="5.86442">
        <ele>14.9926</ele>
        <time>2020-07-16T14:59:28.749Z</time>
      </trkpt>
      <trkpt lat="62.32808" lon="5.86437">
        <ele>14.643666</ele>
        <time>2020-07-16T14:59:29.958Z</time>
      </trkpt>
      <trkpt lat="62.32815" lon="5.8643">
        <ele>14.373543</ele>
        <time>2020-07-16T14:59:30.899Z</time>
      </trkpt>
      <trkpt lat="62.32839" lon="5.86398">
        <ele>13.350608</ele>
        <time>2020-07-16T14:59:34.638Z</time>
      </trkpt>
      <trkpt lat="62.32846" lon="5.86392">
        <ele>13.08949</ele>
        <time>2020-07-16T14:59:35.545Z</time>
      </trkpt>
      <trkpt lat="62.33003" lon="5.8626">
        <ele>5.979373</ele>
        <time>2020-07-16T14:59:57.210Z</time>
      </trkpt>
      <trkpt lat="62.33062" lon="5.86198">
        <ele>4.59993</ele>
        <time>2020-07-16T15:00:06.831Z</time>
      </trkpt>
      <trkpt lat="62.33068" lon="5.86192">
        <ele>4.491594</ele>
        <time>2020-07-16T15:00:07.700Z</time>
      </trkpt>
      <trkpt lat="62.33073" lon="5.8619">
        <ele>4.410371</ele>
        <time>2020-07-16T15:00:08.795Z</time>
      </trkpt>
      <trkpt lat="62.33085" lon="5.86181">
        <ele>4.208551</ele>
        <time>2020-07-16T15:00:10.787Z</time>
      </trkpt>
      <trkpt lat="62.33099" lon="5.86168">
        <ele>3.969998</ele>
        <time>2020-07-16T15:00:12.889Z</time>
      </trkpt>
      <trkpt lat="62.33102" lon="5.86165">
        <ele>3.921189</ele>
        <time>2020-07-16T15:00:13.350Z</time>
      </trkpt>
      <trkpt lat="62.33116" lon="5.86127">
        <ele>3.568429</ele>
        <time>2020-07-16T15:00:17.107Z</time>
      </trkpt>
      <trkpt lat="62.33117" lon="5.86127">
        <ele>3.549506</ele>
        <time>2020-07-16T15:00:17.305Z</time>
      </trkpt>
      <trkpt lat="62.33119" lon="5.8613">
        <ele>3.515019</ele>
        <time>2020-07-16T15:00:17.643Z</time>
      </trkpt>
      <trkpt lat="62.33122" lon="5.86133">
        <ele>3.459519</ele>
        <time>2020-07-16T15:00:18.156Z</time>
      </trkpt>
      <trkpt lat="62.33126" lon="5.86136">
        <ele>3.394251</ele>
        <time>2020-07-16T15:00:18.670Z</time>
      </trkpt>
      <trkpt lat="62.3313" lon="5.86139">
        <ele>3.324909</ele>
        <time>2020-07-16T15:00:19.689Z</time>
      </trkpt>
      <trkpt lat="62.33139" lon="5.86134">
        <ele>3.172683</ele>
        <time>2020-07-16T15:00:21.364Z</time>
      </trkpt>
      <trkpt lat="62.33165" lon="5.86089">
        <ele>2.655754</ele>
        <time>2020-07-16T15:00:26.626Z</time>
      </trkpt>
      <trkpt lat="62.33275" lon="5.85871">
        <ele>4.987888</ele>
        <time>2020-07-16T15:01:01.339Z</time>
      </trkpt>
      <trkpt lat="62.33286" lon="5.85845">
        <ele>5.25287</ele>
        <time>2020-07-16T15:01:05.255Z</time>
      </trkpt>
      <trkpt lat="62.33293" lon="5.85833">
        <ele>5.399912</ele>
        <time>2020-07-16T15:01:08.300Z</time>
      </trkpt>
      <trkpt lat="62.33321" lon="5.85768">
        <ele>7.040394</ele>
        <time>2020-07-16T15:01:20.677Z</time>
      </trkpt>
      <trkpt lat="62.33325" lon="5.85758">
        <ele>7.3411</ele>
        <time>2020-07-16T15:01:23.155Z</time>
      </trkpt>
      <trkpt lat="62.33332" lon="5.85748">
        <ele>7.711415</ele>
        <time>2020-07-16T15:01:25.647Z</time>
      </trkpt>
      <trkpt lat="62.33365" lon="5.85708">
        <ele>9.479757</ele>
        <time>2020-07-16T15:01:37.759Z</time>
      </trkpt>
      <trkpt lat="62.33398" lon="5.85682">
        <ele>11.082983</ele>
        <time>2020-07-16T15:01:49.985Z</time>
      </trkpt>
      <trkpt lat="62.33443" lon="5.8565">
        <ele>13.307244</ele>
        <time>2020-07-16T15:02:08.491Z</time>
      </trkpt>
      <trkpt lat="62.33528" lon="5.85581">
        <ele>16.973235</ele>
        <time>2020-07-16T15:02:39.881Z</time>
      </trkpt>
      <trkpt lat="62.33534" lon="5.85578">
        <ele>17.190765</ele>
        <time>2020-07-16T15:02:42.381Z</time>
      </trkpt>
      <trkpt lat="62.3354" lon="5.85576">
        <ele>17.434361</ele>
        <time>2020-07-16T15:02:44.734Z</time>
      </trkpt>
      <trkpt lat="62.33565" lon="5.85563">
        <ele>18.435415</ele>
        <time>2020-07-16T15:02:51.557Z</time>
      </trkpt>
      <trkpt lat="62.33571" lon="5.85561">
        <ele>18.703537</ele>
        <time>2020-07-16T15:02:54.307Z</time>
      </trkpt>
      <trkpt lat="62.33576" lon="5.85558">
        <ele>18.913116</ele>
        <time>2020-07-16T15:02:56.072Z</time>
      </trkpt>
      <trkpt lat="62.33588" lon="5.85538">
        <ele>19.510599</ele>
        <time>2020-07-16T15:02:59.488Z</time>
      </trkpt>
      <trkpt lat="62.33611" lon="5.85527">
        <ele>20.435041</ele>
        <time>2020-07-16T15:03:06.023Z</time>
      </trkpt>
      <trkpt lat="62.3363" lon="5.8552">
        <ele>20.983243</ele>
        <time>2020-07-16T15:03:09.826Z</time>
      </trkpt>
      <trkpt lat="62.33639" lon="5.85518">
        <ele>21.028049</ele>
        <time>2020-07-16T15:03:12.791Z</time>
      </trkpt>
      <trkpt lat="62.33647" lon="5.85515">
        <ele>21.069451</ele>
        <time>2020-07-16T15:03:14.783Z</time>
      </trkpt>
      <trkpt lat="62.33672" lon="5.85507">
        <ele>21.196021</ele>
        <time>2020-07-16T15:03:20.526Z</time>
      </trkpt>
      <trkpt lat="62.33724" lon="5.85493">
        <ele>21.455515</ele>
        <time>2020-07-16T15:03:30.492Z</time>
      </trkpt>
      <trkpt lat="62.33766" lon="5.8548">
        <ele>21.668636</ele>
        <time>2020-07-16T15:03:37.609Z</time>
      </trkpt>
      <trkpt lat="62.33849" lon="5.85456">
        <ele>23.114943</ele>
        <time>2020-07-16T15:03:52.817Z</time>
      </trkpt>
      <trkpt lat="62.33876" lon="5.85445">
        <ele>23.862641</ele>
        <time>2020-07-16T15:03:59.286Z</time>
      </trkpt>
      <trkpt lat="62.33877" lon="5.85458">
        <ele>24.028032</ele>
        <time>2020-07-16T15:04:01.218Z</time>
      </trkpt>
      <trkpt lat="62.33881" lon="5.85502">
        <ele>24.589181</ele>
        <time>2020-07-16T15:04:07.959Z</time>
      </trkpt>
      <trkpt lat="62.33883" lon="5.85515">
        <ele>24.765861</ele>
        <time>2020-07-16T15:04:09.598Z</time>
      </trkpt>
      <trkpt lat="62.33885" lon="5.8554">
        <ele>25.086005</ele>
        <time>2020-07-16T15:04:13.771Z</time>
      </trkpt>
      <trkpt lat="62.33886" lon="5.85557">
        <ele>25.308446</ele>
        <time>2020-07-16T15:04:17.372Z</time>
      </trkpt>
      <trkpt lat="62.33889" lon="5.85594">
        <ele>25.781577</ele>
        <time>2020-07-16T15:04:24.001Z</time>
      </trkpt>
      <trkpt lat="62.3389" lon="5.85601">
        <ele>25.870323</ele>
        <time>2020-07-16T15:04:25.215Z</time>
      </trkpt>
      <trkpt lat="62.33893" lon="5.8561">
        <ele>26.007622</ele>
        <time>2020-07-16T15:04:26.950Z</time>
      </trkpt>
      <trkpt lat="62.33914" lon="5.85669">
        <ele>27.262701</ele>
        <time>2020-07-16T15:04:40.964Z</time>
      </trkpt>
      <trkpt lat="62.33915" lon="5.85674">
        <ele>27.412116</ele>
        <time>2020-07-16T15:04:41.787Z</time>
      </trkpt>
      <trkpt lat="62.33915" lon="5.85682">
        <ele>27.677609</ele>
        <time>2020-07-16T15:04:44.684Z</time>
      </trkpt>
      <trkpt lat="62.33897" lon="5.85824">
        <ele>32.226412</ele>
        <time>2020-07-16T15:05:13.687Z</time>
      </trkpt>
      <trkpt lat="62.33901" lon="5.85846">
        <ele>32.951299</ele>
        <time>2020-07-16T15:05:19.121Z</time>
      </trkpt>
      <trkpt lat="62.33903" lon="5.85846">
        <ele>33.091904</ele>
        <time>2020-07-16T15:05:21.201Z</time>
      </trkpt>
      <trkpt lat="62.33908" lon="5.85862">
        <ele>33.707898</ele>
        <time>2020-07-16T15:05:24.404Z</time>
      </trkpt>
      <trkpt lat="62.33914" lon="5.85942">
        <ele>36.218315</ele>
        <time>2020-07-16T15:05:39.637Z</time>
      </trkpt>
      <trkpt lat="62.33922" lon="5.85965">
        <ele>37.077785</ele>
        <time>2020-07-16T15:05:44.444Z</time>
      </trkpt>
      <trkpt lat="62.33932" lon="5.85984">
        <ele>37.976548</ele>
        <time>2020-07-16T15:05:51.874Z</time>
      </trkpt>
      <trkpt lat="62.33934" lon="5.86001">
        <ele>38.530696</ele>
        <time>2020-07-16T15:05:55.459Z</time>
      </trkpt>
      <trkpt lat="62.33945" lon="5.86065">
        <ele>40.496645</ele>
        <time>2020-07-16T15:06:08.368Z</time>
      </trkpt>
      <trkpt lat="62.33945" lon="5.86124">
        <ele>42.162531</ele>
        <time>2020-07-16T15:06:16.900Z</time>
      </trkpt>
      <trkpt lat="62.33966" lon="5.86148">
        <ele>43.629025</ele>
        <time>2020-07-16T15:06:27.963Z</time>
      </trkpt>
      <trkpt lat="62.33975" lon="5.86176">
        <ele>44.574305</ele>
        <time>2020-07-16T15:06:32.023Z</time>
      </trkpt>
      <trkpt lat="62.33977" lon="5.86182">
        <ele>44.785484</ele>
        <time>2020-07-16T15:06:33.585Z</time>
      </trkpt>
      <trkpt lat="62.33988" lon="5.86203">
        <ele>45.70898</ele>
        <time>2020-07-16T15:06:39.639Z</time>
      </trkpt>
      <trkpt lat="62.33994" lon="5.86215">
        <ele>46.198548</ele>
        <time>2020-07-16T15:06:43.912Z</time>
      </trkpt>
      <trkpt lat="62.34005" lon="5.86272">
        <ele>47.956482</ele>
        <time>2020-07-16T15:06:53.153Z</time>
      </trkpt>
      <trkpt lat="62.34007" lon="5.86283">
        <ele>48.271228</ele>
        <time>2020-07-16T15:06:56.612Z</time>
      </trkpt>
      <trkpt lat="62.34002" lon="5.8629">
        <ele>48.593348</ele>
        <time>2020-07-16T15:06:57.649Z</time>
      </trkpt>
      <trkpt lat="62.33975" lon="5.86239">
        <ele>50.78583</ele>
        <time>2020-07-16T15:07:12.701Z</time>
      </trkpt>
      <trkpt lat="62.33974" lon="5.86231">
        <ele>51.018705</ele>
        <time>2020-07-16T15:07:13.339Z</time>
      </trkpt>
      <trkpt lat="62.33968" lon="5.8624">
        <ele>51.454707</ele>
        <time>2020-07-16T15:07:16.557Z</time>
      </trkpt>
      <trkpt lat="62.33964" lon="5.86248">
        <ele>51.791445</ele>
        <time>2020-07-16T15:07:18.873Z</time>
      </trkpt>
      <trkpt lat="62.33959" lon="5.86253">
        <ele>52.084185</ele>
        <time>2020-07-16T15:07:21.950Z</time>
      </trkpt>
      <trkpt lat="62.33904" lon="5.86311">
        <ele>55.783263</ele>
        <time>2020-07-16T15:07:45.165Z</time>
      </trkpt>
      <trkpt lat="62.33886" lon="5.86353">
        <ele>57.359244</ele>
        <time>2020-07-16T15:07:54.987Z</time>
      </trkpt>
      <trkpt lat="62.33873" lon="5.86413">
        <ele>59.186716</ele>
        <time>2020-07-16T15:08:06.472Z</time>
      </trkpt>
      <trkpt lat="62.33875" lon="5.86489">
        <ele>61.294699</ele>
        <time>2020-07-16T15:08:20.777Z</time>
      </trkpt>
      <trkpt lat="62.339" lon="5.86709">
        <ele>67.451665</ele>
        <time>2020-07-16T15:09:01.185Z</time>
      </trkpt>
      <trkpt lat="62.33902" lon="5.86765">
        <ele>68.988629</ele>
        <time>2020-07-16T15:09:09.999Z</time>
      </trkpt>
      <trkpt lat="62.33902" lon="5.86775">
        <ele>69.262057</ele>
        <time>2020-07-16T15:09:12.648Z</time>
      </trkpt>
      <trkpt lat="62.33903" lon="5.86801">
        <ele>69.984827</ele>
        <time>2020-07-16T15:09:16.704Z</time>
      </trkpt>
      <trkpt lat="62.33904" lon="5.86848">
        <ele>71.204753</ele>
        <time>2020-07-16T15:09:24.343Z</time>
      </trkpt>
      <trkpt lat="62.33897" lon="5.86939">
        <ele>72.882056</ele>
        <time>2020-07-16T15:09:39.113Z</time>
      </trkpt>
      <trkpt lat="62.33876" lon="5.87025">
        <ele>74.656388</ele>
        <time>2020-07-16T15:09:53.450Z</time>
      </trkpt>
      <trkpt lat="62.33875" lon="5.87043">
        <ele>74.98999</ele>
        <time>2020-07-16T15:09:55.735Z</time>
      </trkpt>
      <trkpt lat="62.33871" lon="5.87062">
        <ele>75.372952</ele>
        <time>2020-07-16T15:09:59.120Z</time>
      </trkpt>
      <trkpt lat="62.33869" lon="5.87076">
        <ele>75.646642</ele>
        <time>2020-07-16T15:10:01.678Z</time>
      </trkpt>
      <trkpt lat="62.33866" lon="5.87074">
        <ele>75.770295</ele>
        <time>2020-07-16T15:10:02.763Z</time>
      </trkpt>
      <trkpt lat="62.33853" lon="5.87083">
        <ele>76.279509</ele>
        <time>2020-07-16T15:10:06.116Z</time>
      </trkpt>
      <trkpt lat="62.33808" lon="5.87251">
        <ele>79.398015</ele>
        <time>2020-07-16T15:10:30.622Z</time>
      </trkpt>
      <trkpt lat="62.33761" lon="5.87508">
        <ele>83.171605</ele>
        <time>2020-07-16T15:11:06.443Z</time>
      </trkpt>
      <trkpt lat="62.33759" lon="5.87535">
        <ele>83.577845</ele>
        <time>2020-07-16T15:11:10.228Z</time>
      </trkpt>
      <trkpt lat="62.33758" lon="5.87547">
        <ele>83.809379</ele>
        <time>2020-07-16T15:11:12.029Z</time>
      </trkpt>
      <trkpt lat="62.3375" lon="5.87633">
        <ele>85.403907</ele>
        <time>2020-07-16T15:11:23.371Z</time>
      </trkpt>
      <trkpt lat="62.33751" lon="5.87759">
        <ele>87.722277</ele>
        <time>2020-07-16T15:11:41.428Z</time>
      </trkpt>
      <trkpt lat="62.33766" lon="5.879">
        <ele>90.368526</ele>
        <time>2020-07-16T15:12:04.419Z</time>
      </trkpt>
      <trkpt lat="62.33783" lon="5.87977">
        <ele>92.206714</ele>
        <time>2020-07-16T15:12:17.022Z</time>
      </trkpt>
      <trkpt lat="62.33793" lon="5.88003">
        <ele>92.964426</ele>
        <time>2020-07-16T15:12:22.185Z</time>
      </trkpt>
      <trkpt lat="62.33794" lon="5.88013">
        <ele>93.186149</ele>
        <time>2020-07-16T15:12:24.002Z</time>
      </trkpt>
      <trkpt lat="62.33796" lon="5.88024">
        <ele>93.428461</ele>
        <time>2020-07-16T15:12:25.521Z</time>
      </trkpt>
      <trkpt lat="62.33807" lon="5.88075">
        <ele>94.678994</ele>
        <time>2020-07-16T15:12:34.552Z</time>
      </trkpt>
      <trkpt lat="62.33814" lon="5.88103">
        <ele>95.364717</ele>
        <time>2020-07-16T15:12:39.400Z</time>
      </trkpt>
      <trkpt lat="62.33858" lon="5.88245">
        <ele>99.084575</ele>
        <time>2020-07-16T15:13:06.453Z</time>
      </trkpt>
      <trkpt lat="62.33886" lon="5.88305">
        <ele>100.906042</ele>
        <time>2020-07-16T15:13:20.821Z</time>
      </trkpt>
      <trkpt lat="62.33894" lon="5.88302">
        <ele>101.237236</ele>
        <time>2020-07-16T15:13:23.266Z</time>
      </trkpt>
      <trkpt lat="62.33897" lon="5.88302">
        <ele>101.38716</ele>
        <time>2020-07-16T15:13:24.685Z</time>
      </trkpt>
      <trkpt lat="62.33939" lon="5.88369">
        <ele>103.747131</ele>
        <time>2020-07-16T15:13:41.113Z</time>
      </trkpt>
      <trkpt lat="62.33949" lon="5.88383">
        <ele>104.299004</ele>
        <time>2020-07-16T15:13:45.182Z</time>
      </trkpt>
      <trkpt lat="62.33947" lon="5.88412">
        <ele>104.902884</ele>
        <time>2020-07-16T15:13:49.519Z</time>
      </trkpt>
      <trkpt lat="62.33952" lon="5.88429">
        <ele>105.315983</ele>
        <time>2020-07-16T15:13:52.465Z</time>
      </trkpt>
      <trkpt lat="62.3396" lon="5.88469">
        <ele>106.233588</ele>
        <time>2020-07-16T15:13:59.261Z</time>
      </trkpt>
      <trkpt lat="62.33961" lon="5.88482">
        <ele>106.511031</ele>
        <time>2020-07-16T15:14:01.154Z</time>
      </trkpt>
      <trkpt lat="62.33962" lon="5.88495">
        <ele>106.801218</ele>
        <time>2020-07-16T15:14:03.302Z</time>
      </trkpt>
      <trkpt lat="62.33974" lon="5.88642">
        <ele>109.314802</ele>
        <time>2020-07-16T15:14:24.972Z</time>
      </trkpt>
      <trkpt lat="62.33976" lon="5.88661">
        <ele>109.637469</ele>
        <time>2020-07-16T15:14:27.902Z</time>
      </trkpt>
      <trkpt lat="62.33978" lon="5.88678">
        <ele>109.928905</ele>
        <time>2020-07-16T15:14:30.719Z</time>
      </trkpt>
      <trkpt lat="62.3403" lon="5.88976">
        <ele>114.909913</ele>
        <time>2020-07-16T15:15:12.299Z</time>
      </trkpt>
      <trkpt lat="62.34043" lon="5.89112">
        <ele>116.856927</ele>
        <time>2020-07-16T15:15:30.078Z</time>
      </trkpt>
      <trkpt lat="62.34041" lon="5.89158">
        <ele>117.513861</ele>
        <time>2020-07-16T15:15:35.998Z</time>
      </trkpt>
      <trkpt lat="62.34065" lon="5.89247">
        <ele>118.95011</ele>
        <time>2020-07-16T15:15:49.661Z</time>
      </trkpt>
      <trkpt lat="62.34068" lon="5.89262">
        <ele>119.244114</ele>
        <time>2020-07-16T15:15:51.976Z</time>
      </trkpt>
      <trkpt lat="62.3407" lon="5.89275">
        <ele>119.52473</ele>
        <time>2020-07-16T15:15:53.850Z</time>
      </trkpt>
      <trkpt lat="62.34076" lon="5.8929">
        <ele>119.882569</ele>
        <time>2020-07-16T15:15:56.273Z</time>
      </trkpt>
      <trkpt lat="62.34076" lon="5.89305">
        <ele>120.169298</ele>
        <time>2020-07-16T15:15:58.674Z</time>
      </trkpt>
      <trkpt lat="62.34111" lon="5.89503">
        <ele>124.181321</ele>
        <time>2020-07-16T15:16:29.227Z</time>
      </trkpt>
      <trkpt lat="62.34266" lon="5.90269">
        <ele>142.518471</ele>
        <time>2020-07-16T15:18:42.686Z</time>
      </trkpt>
      <trkpt lat="62.34284" lon="5.90358">
        <ele>144.286608</ele>
        <time>2020-07-16T15:18:57.243Z</time>
      </trkpt>
      <trkpt lat="62.34294" lon="5.90404">
        <ele>144.99085</ele>
        <time>2020-07-16T15:19:04.807Z</time>
      </trkpt>
      <trkpt lat="62.34361" lon="5.90651">
        <ele>148.878439</ele>
        <time>2020-07-16T15:19:41.190Z</time>
      </trkpt>
      <trkpt lat="62.34402" lon="5.90768">
        <ele>148.610701</ele>
        <time>2020-07-16T15:19:55.349Z</time>
      </trkpt>
      <trkpt lat="62.3446" lon="5.90909">
        <ele>148.148063</ele>
        <time>2020-07-16T15:20:09.806Z</time>
      </trkpt>
      <trkpt lat="62.34498" lon="5.90988">
        <ele>146.770661</ele>
        <time>2020-07-16T15:20:17.509Z</time>
      </trkpt>
      <trkpt lat="62.34644" lon="5.91293">
        <ele>135.927959</ele>
        <time>2020-07-16T15:20:42.899Z</time>
      </trkpt>
      <trkpt lat="62.34651" lon="5.91307">
        <ele>135.237531</ele>
        <time>2020-07-16T15:20:44.070Z</time>
      </trkpt>
      <trkpt lat="62.34667" lon="5.91345">
        <ele>133.564209</ele>
        <time>2020-07-16T15:20:46.961Z</time>
      </trkpt>
      <trkpt lat="62.34684" lon="5.91387">
        <ele>131.772346</ele>
        <time>2020-07-16T15:20:50.105Z</time>
      </trkpt>
      <trkpt lat="62.34685" lon="5.91389">
        <ele>131.69423</ele>
        <time>2020-07-16T15:20:50.226Z</time>
      </trkpt>
      <trkpt lat="62.34695" lon="5.91414">
        <ele>130.639412</ele>
        <time>2020-07-16T15:20:52.001Z</time>
      </trkpt>
      <trkpt lat="62.34754" lon="5.9161">
        <ele>123.68524</ele>
        <time>2020-07-16T15:21:04.918Z</time>
      </trkpt>
      <trkpt lat="62.3491" lon="5.92321">
        <ele>103.772187</ele>
        <time>2020-07-16T15:21:51.248Z</time>
      </trkpt>
      <trkpt lat="62.34917" lon="5.92348">
        <ele>102.948565</ele>
        <time>2020-07-16T15:21:53.075Z</time>
      </trkpt>
      <trkpt lat="62.34978" lon="5.92626">
        <ele>94.678286</ele>
        <time>2020-07-16T15:22:10.697Z</time>
      </trkpt>
      <trkpt lat="62.35022" lon="5.92829">
        <ele>88.061155</ele>
        <time>2020-07-16T15:22:23.322Z</time>
      </trkpt>
      <trkpt lat="62.35035" lon="5.92889">
        <ele>86.079228</ele>
        <time>2020-07-16T15:22:27.128Z</time>
      </trkpt>
      <trkpt lat="62.35049" lon="5.92954">
        <ele>84.186176</ele>
        <time>2020-07-16T15:22:31.206Z</time>
      </trkpt>
      <trkpt lat="62.35062" lon="5.93011">
        <ele>82.608312</ele>
        <time>2020-07-16T15:22:34.829Z</time>
      </trkpt>
      <trkpt lat="62.35073" lon="5.9306">
        <ele>81.24913</ele>
        <time>2020-07-16T15:22:37.991Z</time>
      </trkpt>
      <trkpt lat="62.3512" lon="5.93274">
        <ele>75.345751</ele>
        <time>2020-07-16T15:22:51.942Z</time>
      </trkpt>
      <trkpt lat="62.35145" lon="5.9339">
        <ele>72.46839</ele>
        <time>2020-07-16T15:22:59.865Z</time>
      </trkpt>
      <trkpt lat="62.35147" lon="5.934">
        <ele>72.235459</ele>
        <time>2020-07-16T15:23:00.439Z</time>
      </trkpt>
      <trkpt lat="62.35169" lon="5.935">
        <ele>69.731159</ele>
        <time>2020-07-16T15:23:07.003Z</time>
      </trkpt>
      <trkpt lat="62.35221" lon="5.9369">
        <ele>64.848047</ele>
        <time>2020-07-16T15:23:19.979Z</time>
      </trkpt>
      <trkpt lat="62.35224" lon="5.93698">
        <ele>64.608064</ele>
        <time>2020-07-16T15:23:20.579Z</time>
      </trkpt>
      <trkpt lat="62.35228" lon="5.93709">
        <ele>64.327789</ele>
        <time>2020-07-16T15:23:21.305Z</time>
      </trkpt>
      <trkpt lat="62.35261" lon="5.93834">
        <ele>61.188882</ele>
        <time>2020-07-16T15:23:29.956Z</time>
      </trkpt>
      <trkpt lat="62.35268" lon="5.93872">
        <ele>60.289129</ele>
        <time>2020-07-16T15:23:32.426Z</time>
      </trkpt>
      <trkpt lat="62.35277" lon="5.93921">
        <ele>59.157419</ele>
        <time>2020-07-16T15:23:35.556Z</time>
      </trkpt>
      <trkpt lat="62.35281" lon="5.93947">
        <ele>58.563824</ele>
        <time>2020-07-16T15:23:37.249Z</time>
      </trkpt>
      <trkpt lat="62.35294" lon="5.94055">
        <ele>56.708354</ele>
        <time>2020-07-16T15:23:44.212Z</time>
      </trkpt>
      <trkpt lat="62.3533" lon="5.94511">
        <ele>49.390168</ele>
        <time>2020-07-16T15:24:13.451Z</time>
      </trkpt>
      <trkpt lat="62.35332" lon="5.94537">
        <ele>48.987367</ele>
        <time>2020-07-16T15:24:15.125Z</time>
      </trkpt>
      <trkpt lat="62.35339" lon="5.94599">
        <ele>48.048261</ele>
        <time>2020-07-16T15:24:19.199Z</time>
      </trkpt>
      <trkpt lat="62.35363" lon="5.94779">
        <ele>45.452065</ele>
        <time>2020-07-16T15:24:31.205Z</time>
      </trkpt>
      <trkpt lat="62.35381" lon="5.94895">
        <ele>43.925615</ele>
        <time>2020-07-16T15:24:39.127Z</time>
      </trkpt>
      <trkpt lat="62.35396" lon="5.94985">
        <ele>42.734698</ele>
        <time>2020-07-16T15:24:45.544Z</time>
      </trkpt>
      <trkpt lat="62.35412" lon="5.95086">
        <ele>41.437208</ele>
        <time>2020-07-16T15:24:52.656Z</time>
      </trkpt>
      <trkpt lat="62.3546" lon="5.95385">
        <ele>38.171521</ele>
        <time>2020-07-16T15:25:14.012Z</time>
      </trkpt>
      <trkpt lat="62.3547" lon="5.95444">
        <ele>37.535819</ele>
        <time>2020-07-16T15:25:18.353Z</time>
      </trkpt>
      <trkpt lat="62.35478" lon="5.95494">
        <ele>37.024126</ele>
        <time>2020-07-16T15:25:21.961Z</time>
      </trkpt>
      <trkpt lat="62.35494" lon="5.95597">
        <ele>35.973711</ele>
        <time>2020-07-16T15:25:29.501Z</time>
      </trkpt>
      <trkpt lat="62.35517" lon="5.95739">
        <ele>34.529314</ele>
        <time>2020-07-16T15:25:39.811Z</time>
      </trkpt>
      <trkpt lat="62.3552" lon="5.95757">
        <ele>34.349103</ele>
        <time>2020-07-16T15:25:41.013Z</time>
      </trkpt>
      <trkpt lat="62.35537" lon="5.95919">
        <ele>32.657819</ele>
        <time>2020-07-16T15:25:52.214Z</time>
      </trkpt>
      <trkpt lat="62.35546" lon="5.96039">
        <ele>31.379598</ele>
        <time>2020-07-16T15:26:00.467Z</time>
      </trkpt>
      <trkpt lat="62.35565" lon="5.96287">
        <ele>29.050637</ele>
        <time>2020-07-16T15:26:17.401Z</time>
      </trkpt>
      <trkpt lat="62.35571" lon="5.96368">
        <ele>28.434488</ele>
        <time>2020-07-16T15:26:23.016Z</time>
      </trkpt>
      <trkpt lat="62.35579" lon="5.9644">
        <ele>27.874319</ele>
        <time>2020-07-16T15:26:28.283Z</time>
      </trkpt>
      <trkpt lat="62.35586" lon="5.9649">
        <ele>27.47491</ele>
        <time>2020-07-16T15:26:32.074Z</time>
      </trkpt>
      <trkpt lat="62.35596" lon="5.96542">
        <ele>27.050831</ele>
        <time>2020-07-16T15:26:36.343Z</time>
      </trkpt>
      <trkpt lat="62.35605" lon="5.9658">
        <ele>26.885049</ele>
        <time>2020-07-16T15:26:39.602Z</time>
      </trkpt>
      <trkpt lat="62.35618" lon="5.96629">
        <ele>26.85965</ele>
        <time>2020-07-16T15:26:43.967Z</time>
      </trkpt>
      <trkpt lat="62.35626" lon="5.96659">
        <ele>26.843194</ele>
        <time>2020-07-16T15:26:46.991Z</time>
      </trkpt>
      <trkpt lat="62.35662" lon="5.96771">
        <ele>26.781468</ele>
        <time>2020-07-16T15:26:58.416Z</time>
      </trkpt>
      <trkpt lat="62.35665" lon="5.96778">
        <ele>26.77696</ele>
        <time>2020-07-16T15:26:59.347Z</time>
      </trkpt>
      <trkpt lat="62.3567" lon="5.96792">
        <ele>26.768907</ele>
        <time>2020-07-16T15:27:00.949Z</time>
      </trkpt>
      <trkpt lat="62.35747" lon="5.96961">
        <ele>27.101106</ele>
        <time>2020-07-16T15:27:23.269Z</time>
      </trkpt>
      <trkpt lat="62.35759" lon="5.96989">
        <ele>27.215754</ele>
        <time>2020-07-16T15:27:26.927Z</time>
      </trkpt>
      <trkpt lat="62.35773" lon="5.97022">
        <ele>27.352638</ele>
        <time>2020-07-16T15:27:31.319Z</time>
      </trkpt>
      <trkpt lat="62.35796" lon="5.97079">
        <ele>27.578862</ele>
        <time>2020-07-16T15:27:38.407Z</time>
      </trkpt>
      <trkpt lat="62.35811" lon="5.97119">
        <ele>27.735477</ele>
        <time>2020-07-16T15:27:43.469Z</time>
      </trkpt>
      <trkpt lat="62.35826" lon="5.97158">
        <ele>27.889859</ele>
        <time>2020-07-16T15:27:48.304Z</time>
      </trkpt>
      <trkpt lat="62.3583" lon="5.97168">
        <ele>27.952543</ele>
        <time>2020-07-16T15:27:49.638Z</time>
      </trkpt>
      <trkpt lat="62.35832" lon="5.97175">
        <ele>27.995499</ele>
        <time>2020-07-16T15:27:50.494Z</time>
      </trkpt>
      <trkpt lat="62.35893" lon="5.97325">
        <ele>29.003324</ele>
        <time>2020-07-16T15:28:10.358Z</time>
      </trkpt>
      <trkpt lat="62.35899" lon="5.97342">
        <ele>29.111069</ele>
        <time>2020-07-16T15:28:12.664Z</time>
      </trkpt>
      <trkpt lat="62.35917" lon="5.97388">
        <ele>29.410273</ele>
        <time>2020-07-16T15:28:18.795Z</time>
      </trkpt>
      <trkpt lat="62.35928" lon="5.97417">
        <ele>29.605725</ele>
        <time>2020-07-16T15:28:23.022Z</time>
      </trkpt>
      <trkpt lat="62.35946" lon="5.97462">
        <ele>29.904316</ele>
        <time>2020-07-16T15:28:29.415Z</time>
      </trkpt>
      <trkpt lat="62.35964" lon="5.97507">
        <ele>30.186237</ele>
        <time>2020-07-16T15:28:35.767Z</time>
      </trkpt>
      <trkpt lat="62.35983" lon="5.97557">
        <ele>30.495928</ele>
        <time>2020-07-16T15:28:42.790Z</time>
      </trkpt>
      <trkpt lat="62.36015" lon="5.97636">
        <ele>30.996816</ele>
        <time>2020-07-16T15:28:53.936Z</time>
      </trkpt>
      <trkpt lat="62.36055" lon="5.97737">
        <ele>31.628872</ele>
        <time>2020-07-16T15:29:07.060Z</time>
      </trkpt>
      <trkpt lat="62.36081" lon="5.97802">
        <ele>31.216128</ele>
        <time>2020-07-16T15:29:14.380Z</time>
      </trkpt>
      <trkpt lat="62.36102" lon="5.97858">
        <ele>30.700159</ele>
        <time>2020-07-16T15:29:20.115Z</time>
      </trkpt>
      <trkpt lat="62.36121" lon="5.97906">
        <ele>30.253544</ele>
        <time>2020-07-16T15:29:24.864Z</time>
      </trkpt>
      <trkpt lat="62.36144" lon="5.97963">
        <ele>29.716759</ele>
        <time>2020-07-16T15:29:30.076Z</time>
      </trkpt>
      <trkpt lat="62.36156" lon="5.97993">
        <ele>29.43727</ele>
        <time>2020-07-16T15:29:32.594Z</time>
      </trkpt>
      <trkpt lat="62.36179" lon="5.98051">
        <ele>28.764826</ele>
        <time>2020-07-16T15:29:37.450Z</time>
      </trkpt>
      <trkpt lat="62.36219" lon="5.98158">
        <ele>25.774132</ele>
        <time>2020-07-16T15:29:46.016Z</time>
      </trkpt>
      <trkpt lat="62.36225" lon="5.98176">
        <ele>25.318771</ele>
        <time>2020-07-16T15:29:47.193Z</time>
      </trkpt>
      <trkpt lat="62.36238" lon="5.98223">
        <ele>24.124152</ele>
        <time>2020-07-16T15:29:50.501Z</time>
      </trkpt>
      <trkpt lat="62.36261" lon="5.98309">
        <ele>21.972057</ele>
        <time>2020-07-16T15:29:56.205Z</time>
      </trkpt>
      <trkpt lat="62.36286" lon="5.98407">
        <ele>19.509111</ele>
        <time>2020-07-16T15:30:02.856Z</time>
      </trkpt>
      <trkpt lat="62.36293" lon="5.98435">
        <ele>18.795916</ele>
        <time>2020-07-16T15:30:04.622Z</time>
      </trkpt>
      <trkpt lat="62.36314" lon="5.9851">
        <ele>16.817641</ele>
        <time>2020-07-16T15:30:09.675Z</time>
      </trkpt>
      <trkpt lat="62.36361" lon="5.98667">
        <ele>12.611862</ele>
        <time>2020-07-16T15:30:20.924Z</time>
      </trkpt>
      <trkpt lat="62.36385" lon="5.98747">
        <ele>11.178186</ele>
        <time>2020-07-16T15:30:26.634Z</time>
      </trkpt>
      <trkpt lat="62.36409" lon="5.98824">
        <ele>10.19253</ele>
        <time>2020-07-16T15:30:32.795Z</time>
      </trkpt>
      <trkpt lat="62.36433" lon="5.98903">
        <ele>9.208627</ele>
        <time>2020-07-16T15:30:39.318Z</time>
      </trkpt>
      <trkpt lat="62.36439" lon="5.98925">
        <ele>8.935422</ele>
        <time>2020-07-16T15:30:41.168Z</time>
      </trkpt>
      <trkpt lat="62.36454" lon="5.98969">
        <ele>8.361344</ele>
        <time>2020-07-16T15:30:45.438Z</time>
      </trkpt>
      <trkpt lat="62.36479" lon="5.99048">
        <ele>7.539715</ele>
        <time>2020-07-16T15:30:52.365Z</time>
      </trkpt>
      <trkpt lat="62.36489" lon="5.99082">
        <ele>7.331645</ele>
        <time>2020-07-16T15:30:55.946Z</time>
      </trkpt>
      <trkpt lat="62.36521" lon="5.99184">
        <ele>6.678265</ele>
        <time>2020-07-16T15:31:04.584Z</time>
      </trkpt>
      <trkpt lat="62.3653" lon="5.99216">
        <ele>6.484437</ele>
        <time>2020-07-16T15:31:07.830Z</time>
      </trkpt>
      <trkpt lat="62.36537" lon="5.99241">
        <ele>6.327455</ele>
        <time>2020-07-16T15:31:09.646Z</time>
      </trkpt>
      <trkpt lat="62.36555" lon="5.99313">
        <ele>5.897709</ele>
        <time>2020-07-16T15:31:15.934Z</time>
      </trkpt>
      <trkpt lat="62.36561" lon="5.99342">
        <ele>5.732332</ele>
        <time>2020-07-16T15:31:19.186Z</time>
      </trkpt>
      <trkpt lat="62.36567" lon="5.99374">
        <ele>5.727804</ele>
        <time>2020-07-16T15:31:21.778Z</time>
      </trkpt>
      <trkpt lat="62.36579" lon="5.9944">
        <ele>5.849881</ele>
        <time>2020-07-16T15:31:27.247Z</time>
      </trkpt>
      <trkpt lat="62.36593" lon="5.99528">
        <ele>6.01195</ele>
        <time>2020-07-16T15:31:34.508Z</time>
      </trkpt>
      <trkpt lat="62.36612" lon="5.99643">
        <ele>6.222227</ele>
        <time>2020-07-16T15:31:46.431Z</time>
      </trkpt>
      <trkpt lat="62.36634" lon="5.99778">
        <ele>6.9181</ele>
        <time>2020-07-16T15:32:03.319Z</time>
      </trkpt>
      <trkpt lat="62.36648" lon="5.99869">
        <ele>7.730004</ele>
        <time>2020-07-16T15:32:14.354Z</time>
      </trkpt>
      <trkpt lat="62.3666" lon="5.99944">
        <ele>8.402251</ele>
        <time>2020-07-16T15:32:23.326Z</time>
      </trkpt>
      <trkpt lat="62.36672" lon="6.00019">
        <ele>9.071939</ele>
        <time>2020-07-16T15:32:32.149Z</time>
      </trkpt>
      <trkpt lat="62.36683" lon="6.00088">
        <ele>9.689347</ele>
        <time>2020-07-16T15:32:40.386Z</time>
      </trkpt>
      <trkpt lat="62.36692" lon="6.00138">
        <ele>10.10424</ele>
        <time>2020-07-16T15:32:46.720Z</time>
      </trkpt>
      <trkpt lat="62.36695" lon="6.00154">
        <ele>10.235818</ele>
        <time>2020-07-16T15:32:48.363Z</time>
      </trkpt>
      <trkpt lat="62.36703" lon="6.00192">
        <ele>10.560406</ele>
        <time>2020-07-16T15:32:53.044Z</time>
      </trkpt>
      <trkpt lat="62.36718" lon="6.00255">
        <ele>11.102036</ele>
        <time>2020-07-16T15:33:00.339Z</time>
      </trkpt>
      <trkpt lat="62.36725" lon="6.00284">
        <ele>11.356052</ele>
        <time>2020-07-16T15:33:03.626Z</time>
      </trkpt>
      <trkpt lat="62.36747" lon="6.00362">
        <ele>12.053533</ele>
        <time>2020-07-16T15:33:12.917Z</time>
      </trkpt>
      <trkpt lat="62.36794" lon="6.00533">
        <ele>14.172118</ele>
        <time>2020-07-16T15:33:37.862Z</time>
      </trkpt>
      <trkpt lat="62.36804" lon="6.00571">
        <ele>14.718556</ele>
        <time>2020-07-16T15:33:43.550Z</time>
      </trkpt>
      <trkpt lat="62.36828" lon="6.00657">
        <ele>15.94778</ele>
        <time>2020-07-16T15:33:56.791Z</time>
      </trkpt>
      <trkpt lat="62.36838" lon="6.00693">
        <ele>16.471869</ele>
        <time>2020-07-16T15:34:02.330Z</time>
      </trkpt>
      <trkpt lat="62.36857" lon="6.00765">
        <ele>17.462247</ele>
        <time>2020-07-16T15:34:12.743Z</time>
      </trkpt>
      <trkpt lat="62.36869" lon="6.00807">
        <ele>17.837659</ele>
        <time>2020-07-16T15:34:18.819Z</time>
      </trkpt>
      <trkpt lat="62.36901" lon="6.00921">
        <ele>18.843997</ele>
        <time>2020-07-16T15:34:34.168Z</time>
      </trkpt>
      <trkpt lat="62.36911" lon="6.00961">
        <ele>19.197202</ele>
        <time>2020-07-16T15:34:39.240Z</time>
      </trkpt>
      <trkpt lat="62.36928" lon="6.01022">
        <ele>19.732365</ele>
        <time>2020-07-16T15:34:46.645Z</time>
      </trkpt>
      <trkpt lat="62.36948" lon="6.01109">
        <ele>20.366824</ele>
        <time>2020-07-16T15:34:56.150Z</time>
      </trkpt>
      <trkpt lat="62.36951" lon="6.01117">
        <ele>20.370572</ele>
        <time>2020-07-16T15:34:57.193Z</time>
      </trkpt>
      <trkpt lat="62.36964" lon="6.01162">
        <ele>20.388953</ele>
        <time>2020-07-16T15:35:02.089Z</time>
      </trkpt>
      <trkpt lat="62.36999" lon="6.01267">
        <ele>20.433472</ele>
        <time>2020-07-16T15:35:13.293Z</time>
      </trkpt>
      <trkpt lat="62.37001" lon="6.01274">
        <ele>20.436198</ele>
        <time>2020-07-16T15:35:14.091Z</time>
      </trkpt>
      <trkpt lat="62.37005" lon="6.01292">
        <ele>20.44313</ele>
        <time>2020-07-16T15:35:15.786Z</time>
      </trkpt>
      <trkpt lat="62.3701" lon="6.01314">
        <ele>20.451474</ele>
        <time>2020-07-16T15:35:17.828Z</time>
      </trkpt>
      <trkpt lat="62.37006" lon="6.01322">
        <ele>20.45528</ele>
        <time>2020-07-16T15:35:18.639Z</time>
      </trkpt>
      <trkpt lat="62.37003" lon="6.01335">
        <ele>20.460395</ele>
        <time>2020-07-16T15:35:19.919Z</time>
      </trkpt>
      <trkpt lat="62.36985" lon="6.01439">
        <ele>20.486746</ele>
        <time>2020-07-16T15:35:29.222Z</time>
      </trkpt>
      <trkpt lat="62.36977" lon="6.0148">
        <ele>20.434839</ele>
        <time>2020-07-16T15:35:32.740Z</time>
      </trkpt>
      <trkpt lat="62.36945" lon="6.01674">
        <ele>20.19278</ele>
        <time>2020-07-16T15:35:49.458Z</time>
      </trkpt>
      <trkpt lat="62.36929" lon="6.01833">
        <ele>20.019704</ele>
        <time>2020-07-16T15:36:03.276Z</time>
      </trkpt>
      <trkpt lat="62.36925" lon="6.01888">
        <ele>19.98423</ele>
        <time>2020-07-16T15:36:08.046Z</time>
      </trkpt>
      <trkpt lat="62.36924" lon="6.01895">
        <ele>19.979774</ele>
        <time>2020-07-16T15:36:08.644Z</time>
      </trkpt>
      <trkpt lat="62.36922" lon="6.01922">
        <ele>19.962115</ele>
        <time>2020-07-16T15:36:11.021Z</time>
      </trkpt>
      <trkpt lat="62.36924" lon="6.02066">
        <ele>19.870214</ele>
        <time>2020-07-16T15:36:23.281Z</time>
      </trkpt>
      <trkpt lat="62.36935" lon="6.02144">
        <ele>19.818354</ele>
        <time>2020-07-16T15:36:30.111Z</time>
      </trkpt>
      <trkpt lat="62.36943" lon="6.02173">
        <ele>19.796173</ele>
        <time>2020-07-16T15:36:32.996Z</time>
      </trkpt>
      <trkpt lat="62.36946" lon="6.02182">
        <ele>19.758079</ele>
        <time>2020-07-16T15:36:33.873Z</time>
      </trkpt>
      <trkpt lat="62.36948" lon="6.02194">
        <ele>19.68386</ele>
        <time>2020-07-16T15:36:34.970Z</time>
      </trkpt>
      <trkpt lat="62.36951" lon="6.02207">
        <ele>19.605356</ele>
        <time>2020-07-16T15:36:36.117Z</time>
      </trkpt>
      <trkpt lat="62.36951" lon="6.02215">
        <ele>19.561638</ele>
        <time>2020-07-16T15:36:36.761Z</time>
      </trkpt>
      <trkpt lat="62.36954" lon="6.02274">
        <ele>19.226326</ele>
        <time>2020-07-16T15:36:41.658Z</time>
      </trkpt>
      <trkpt lat="62.36962" lon="6.02333">
        <ele>18.878441</ele>
        <time>2020-07-16T15:36:46.699Z</time>
      </trkpt>
      <trkpt lat="62.36998" lon="6.02514">
        <ele>17.768225</ele>
        <time>2020-07-16T15:37:01.000Z</time>
      </trkpt>
      <trkpt lat="62.36999" lon="6.02593">
        <ele>16.557823</ele>
        <time>2020-07-16T15:37:06.191Z</time>
      </trkpt>
      <trkpt lat="62.37011" lon="6.02679">
        <ele>14.654507</ele>
        <time>2020-07-16T15:37:11.531Z</time>
      </trkpt>
      <trkpt lat="62.37011" lon="6.02684">
        <ele>14.535164</ele>
        <time>2020-07-16T15:37:11.848Z</time>
      </trkpt>
      <trkpt lat="62.36997" lon="6.02692">
        <ele>13.883071</ele>
        <time>2020-07-16T15:37:13.865Z</time>
      </trkpt>
      <trkpt lat="62.36999" lon="6.02706">
        <ele>13.564837</ele>
        <time>2020-07-16T15:37:14.763Z</time>
      </trkpt>
      <trkpt lat="62.3701" lon="6.02786">
        <ele>11.802382</ele>
        <time>2020-07-16T15:37:19.625Z</time>
      </trkpt>
      <trkpt lat="62.37024" lon="6.02864">
        <ele>10.039035</ele>
        <time>2020-07-16T15:37:24.456Z</time>
      </trkpt>
      <trkpt lat="62.37025" lon="6.02873">
        <ele>9.852392</ele>
        <time>2020-07-16T15:37:24.905Z</time>
      </trkpt>
      <trkpt lat="62.37025" lon="6.02884">
        <ele>9.608249</ele>
        <time>2020-07-16T15:37:25.542Z</time>
      </trkpt>
      <trkpt lat="62.37017" lon="6.02908">
        <ele>8.991348</ele>
        <time>2020-07-16T15:37:27.447Z</time>
      </trkpt>
      <trkpt lat="62.37013" lon="6.02912">
        <ele>8.834172</ele>
        <time>2020-07-16T15:37:27.903Z</time>
      </trkpt>
      <trkpt lat="62.37015" lon="6.02924">
        <ele>8.583519</ele>
        <time>2020-07-16T15:37:28.642Z</time>
      </trkpt>
      <trkpt lat="62.37017" lon="6.02939">
        <ele>8.276493</ele>
        <time>2020-07-16T15:37:29.456Z</time>
      </trkpt>
      <trkpt lat="62.37023" lon="6.02937">
        <ele>7.988769</ele>
        <time>2020-07-16T15:37:30.211Z</time>
      </trkpt>
      <trkpt lat="62.37032" lon="6.02936">
        <ele>7.615589</ele>
        <time>2020-07-16T15:37:31.379Z</time>
      </trkpt>
      <trkpt lat="62.37033" lon="6.02938">
        <ele>7.553306</ele>
        <time>2020-07-16T15:37:31.539Z</time>
      </trkpt>
      <trkpt lat="62.37038" lon="6.02943">
        <ele>7.312431</ele>
        <time>2020-07-16T15:37:32.241Z</time>
      </trkpt>
      <trkpt lat="62.37041" lon="6.02943">
        <ele>7.191161</ele>
        <time>2020-07-16T15:37:32.588Z</time>
      </trkpt>
      <trkpt lat="62.37042" lon="6.02942">
        <ele>7.129734</ele>
        <time>2020-07-16T15:37:32.770Z</time>
      </trkpt>
      <trkpt lat="62.37046" lon="6.02938">
        <ele>6.930987</ele>
        <time>2020-07-16T15:37:33.316Z</time>
      </trkpt>
      <trkpt lat="62.3705" lon="6.02942">
        <ele>6.746996</ele>
        <time>2020-07-16T15:37:33.945Z</time>
      </trkpt>
      <trkpt lat="62.37052" lon="6.02946">
        <ele>6.621511</ele>
        <time>2020-07-16T15:37:34.386Z</time>
      </trkpt>
      <trkpt lat="62.37053" lon="6.02948">
        <ele>6.580205</ele>
        <time>2020-07-16T15:37:34.551Z</time>
      </trkpt>
      <trkpt lat="62.37053" lon="6.02951">
        <ele>6.525215</ele>
        <time>2020-07-16T15:37:34.753Z</time>
      </trkpt>
      <trkpt lat="62.37054" lon="6.02955">
        <ele>6.433731</ele>
        <time>2020-07-16T15:37:35.099Z</time>
      </trkpt>
      <trkpt lat="62.37054" lon="6.02971">
        <ele>6.118535</ele>
        <time>2020-07-16T15:37:36.549Z</time>
      </trkpt>
      <trkpt lat="62.37053" lon="6.02975">
        <ele>6.019777</ele>
        <time>2020-07-16T15:37:36.920Z</time>
      </trkpt>
      <trkpt lat="62.37049" lon="6.03014">
        <ele>5.22191</ele>
        <time>2020-07-16T15:37:39.983Z</time>
      </trkpt>
      <trkpt lat="62.37049" lon="6.03017">
        <ele>5.159247</ele>
        <time>2020-07-16T15:37:40.196Z</time>
      </trkpt>
      <trkpt lat="62.37045" lon="6.03031">
        <ele>4.843499</ele>
        <time>2020-07-16T15:37:41.449Z</time>
      </trkpt>
      <trkpt lat="62.37038" lon="6.03034">
        <ele>4.524871</ele>
        <time>2020-07-16T15:37:43.010Z</time>
      </trkpt>
      <trkpt lat="62.37036" lon="6.03033">
        <ele>4.417756</ele>
        <time>2020-07-16T15:37:43.433Z</time>
      </trkpt>
      <trkpt lat="62.37033" lon="6.03028">
        <ele>4.253717</ele>
        <time>2020-07-16T15:37:44.169Z</time>
      </trkpt>
      <trkpt lat="62.37029" lon="6.0302">
        <ele>4.043152</ele>
        <time>2020-07-16T15:37:45.061Z</time>
      </trkpt>
      <trkpt lat="62.37028" lon="6.03025">
        <ele>3.917667</ele>
        <time>2020-07-16T15:37:47.074Z</time>
      </trkpt>
      <trkpt lat="62.37026" lon="6.03032">
        <ele>3.749186</ele>
        <time>2020-07-16T15:37:49.796Z</time>
      </trkpt>
      <trkpt lat="62.37022" lon="6.03049">
        <ele>3.395707</ele>
        <time>2020-07-16T15:37:55.507Z</time>
      </trkpt>
      <trkpt lat="62.37019" lon="6.03045">
        <ele>3.211775</ele>
        <time>2020-07-16T15:37:56.144Z</time>
      </trkpt>
      <trkpt lat="62.37012" lon="6.03043">
        <ele>2.920914</ele>
        <time>2020-07-16T15:37:57.120Z</time>
      </trkpt>
      <trkpt lat="62.37008" lon="6.03052">
        <ele>2.67806</ele>
        <time>2020-07-16T15:37:57.890Z</time>
      </trkpt>
      <trkpt lat="62.37006" lon="6.03071">
        <ele>2.297443</ele>
        <time>2020-07-16T15:37:59.061Z</time>
      </trkpt>
      <trkpt lat="62.37007" lon="6.03081">
        <ele>2.085826</ele>
        <time>2020-07-16T15:37:59.684Z</time>
      </trkpt>
      <trkpt lat="62.37008" lon="6.03087">
        <ele>1.958568</ele>
        <time>2020-07-16T15:38:00.066Z</time>
      </trkpt>
      <trkpt lat="62.37014" lon="6.03113">
        <ele>1.56054</ele>
        <time>2020-07-16T15:38:02.044Z</time>
      </trkpt>
      <trkpt lat="62.37046" lon="6.03258">
        <ele>0.916629</ele>
        <time>2020-07-16T15:38:12.395Z</time>
      </trkpt>
      <trkpt lat="62.37069" lon="6.03309">
        <ele>0.626713</ele>
        <time>2020-07-16T15:38:17.045Z</time>
      </trkpt>
      <trkpt lat="62.37115" lon="6.0352">
        <ele>0.036525</ele>
        <time>2020-07-16T15:38:32.108Z</time>
      </trkpt>
      <trkpt lat="62.37205" lon="6.04021">
        <time>2020-07-16T15:39:06.884Z</time>
      </trkpt>
      <trkpt lat="62.3849" lon="6.12459">
        <time>2020-07-16T15:48:41.277Z</time>
      </trkpt>
      <trkpt lat="62.39433" lon="6.15945">
        <ele>0.035688</ele>
        <time>2020-07-16T15:53:02.130Z</time>
      </trkpt>
      <trkpt lat="62.3947" lon="6.16118">
        <ele>0.322859</ele>
        <time>2020-07-16T15:53:14.479Z</time>
      </trkpt>
      <trkpt lat="62.39492" lon="6.16324">
        <ele>0.709986</ele>
        <time>2020-07-16T15:53:28.156Z</time>
      </trkpt>
      <trkpt lat="62.39499" lon="6.16425">
        <ele>1.452634</ele>
        <time>2020-07-16T15:53:34.702Z</time>
      </trkpt>
      <trkpt lat="62.39501" lon="6.1645">
        <ele>1.678464</ele>
        <time>2020-07-16T15:53:37.233Z</time>
      </trkpt>
      <trkpt lat="62.39503" lon="6.16488">
        <ele>2.013252</ele>
        <time>2020-07-16T15:53:41.137Z</time>
      </trkpt>
      <trkpt lat="62.39506" lon="6.1652">
        <ele>2.305055</ele>
        <time>2020-07-16T15:53:44.499Z</time>
      </trkpt>
      <trkpt lat="62.39509" lon="6.16538">
        <ele>2.470299</ele>
        <time>2020-07-16T15:53:46.881Z</time>
      </trkpt>
      <trkpt lat="62.39531" lon="6.1666">
        <ele>3.627357</ele>
        <time>2020-07-16T15:54:02.375Z</time>
      </trkpt>
      <trkpt lat="62.39545" lon="6.16738">
        <ele>4.560708</ele>
        <time>2020-07-16T15:54:12.945Z</time>
      </trkpt>
      <trkpt lat="62.39556" lon="6.16798">
        <ele>5.704195</ele>
        <time>2020-07-16T15:54:21.170Z</time>
      </trkpt>
      <trkpt lat="62.39564" lon="6.16833">
        <ele>6.402203</ele>
        <time>2020-07-16T15:54:26.474Z</time>
      </trkpt>
      <trkpt lat="62.39566" lon="6.16877">
        <ele>7.194394</ele>
        <time>2020-07-16T15:54:32.108Z</time>
      </trkpt>
      <trkpt lat="62.39579" lon="6.17314">
        <ele>15.944194</ele>
        <time>2020-07-16T15:55:37.588Z</time>
      </trkpt>
      <trkpt lat="62.3958" lon="6.17327">
        <ele>16.245444</ele>
        <time>2020-07-16T15:55:40.318Z</time>
      </trkpt>
      <trkpt lat="62.39583" lon="6.17468">
        <ele>19.350773</ele>
        <time>2020-07-16T15:56:02.685Z</time>
      </trkpt>
      <trkpt lat="62.39584" lon="6.17675">
        <ele>22.113011</ele>
        <time>2020-07-16T15:56:33.658Z</time>
      </trkpt>
      <trkpt lat="62.39584" lon="6.17796">
        <ele>23.632984</ele>
        <time>2020-07-16T15:56:47.050Z</time>
      </trkpt>
      <trkpt lat="62.39584" lon="6.17799">
        <ele>23.673348</ele>
        <time>2020-07-16T15:56:47.691Z</time>
      </trkpt>
      <trkpt lat="62.39584" lon="6.17886">
        <ele>24.463256</ele>
        <time>2020-07-16T15:56:55.283Z</time>
      </trkpt>
      <trkpt lat="62.39588" lon="6.18065">
        <ele>22.9828</ele>
        <time>2020-07-16T15:57:07.623Z</time>
      </trkpt>
      <trkpt lat="62.39634" lon="6.18705">
        <ele>15.755366</ele>
        <time>2020-07-16T15:57:47.756Z</time>
      </trkpt>
      <trkpt lat="62.39642" lon="6.18906">
        <ele>13.721447</ele>
        <time>2020-07-16T15:58:00.858Z</time>
      </trkpt>
      <trkpt lat="62.39636" lon="6.19168">
        <ele>11.547782</ele>
        <time>2020-07-16T15:58:18.297Z</time>
      </trkpt>
      <trkpt lat="62.39609" lon="6.1952">
        <ele>9.605836</ele>
        <time>2020-07-16T15:58:43.160Z</time>
      </trkpt>
      <trkpt lat="62.39609" lon="6.19619">
        <ele>9.365527</ele>
        <time>2020-07-16T15:58:50.646Z</time>
      </trkpt>
      <trkpt lat="62.39619" lon="6.19721">
        <ele>9.112776</ele>
        <time>2020-07-16T15:58:58.920Z</time>
      </trkpt>
      <trkpt lat="62.39705" lon="6.20366">
        <ele>9.842842</ele>
        <time>2020-07-16T15:59:57.126Z</time>
      </trkpt>
      <trkpt lat="62.39735" lon="6.20692">
        <ele>11.505241</ele>
        <time>2020-07-16T16:00:28.385Z</time>
      </trkpt>
      <trkpt lat="62.39794" lon="6.21045">
        <ele>14.452886</ele>
        <time>2020-07-16T16:01:12.790Z</time>
      </trkpt>
      <trkpt lat="62.39839" lon="6.21492">
        <ele>15.342261</ele>
        <time>2020-07-16T16:01:58.561Z</time>
      </trkpt>
      <trkpt lat="62.39839" lon="6.21518">
        <ele>15.222087</ele>
        <time>2020-07-16T16:02:00.852Z</time>
      </trkpt>
      <trkpt lat="62.3984" lon="6.21563">
        <ele>15.013251</ele>
        <time>2020-07-16T16:02:03.436Z</time>
      </trkpt>
      <trkpt lat="62.39839" lon="6.21654">
        <ele>14.590969</ele>
        <time>2020-07-16T16:02:08.966Z</time>
      </trkpt>
      <trkpt lat="62.39846" lon="6.21727">
        <ele>13.418484</ele>
        <time>2020-07-16T16:02:13.213Z</time>
      </trkpt>
      <trkpt lat="62.39879" lon="6.21888">
        <ele>10.00292</ele>
        <time>2020-07-16T16:02:23.046Z</time>
      </trkpt>
      <trkpt lat="62.39933" lon="6.22202">
        <ele>5.391744</ele>
        <time>2020-07-16T16:02:43.350Z</time>
      </trkpt>
      <trkpt lat="62.39964" lon="6.22342">
        <ele>3.996553</ele>
        <time>2020-07-16T16:02:53.824Z</time>
      </trkpt>
      <trkpt lat="62.4003" lon="6.22625">
        <ele>4.803595</ele>
        <time>2020-07-16T16:03:22.791Z</time>
      </trkpt>
      <trkpt lat="62.40064" lon="6.22774">
        <ele>5.859923</ele>
        <time>2020-07-16T16:03:42.013Z</time>
      </trkpt>
      <trkpt lat="62.40117" lon="6.23024">
        <ele>8.880882</ele>
        <time>2020-07-16T16:04:16.085Z</time>
      </trkpt>
      <trkpt lat="62.40155" lon="6.2326">
        <ele>10.914991</ele>
        <time>2020-07-16T16:04:42.213Z</time>
      </trkpt>
      <trkpt lat="62.40161" lon="6.23312">
        <ele>11.291879</ele>
        <time>2020-07-16T16:04:47.438Z</time>
      </trkpt>
      <trkpt lat="62.40177" lon="6.23453">
        <ele>12.312818</ele>
        <time>2020-07-16T16:05:01.308Z</time>
      </trkpt>
      <trkpt lat="62.40194" lon="6.23565">
        <ele>14.348179</ele>
        <time>2020-07-16T16:05:16.339Z</time>
      </trkpt>
      <trkpt lat="62.40226" lon="6.23689">
        <ele>16.948066</ele>
        <time>2020-07-16T16:05:35.543Z</time>
      </trkpt>
      <trkpt lat="62.40242" lon="6.23737">
        <ele>18.03943</ele>
        <time>2020-07-16T16:05:44.085Z</time>
      </trkpt>
      <trkpt lat="62.4025" lon="6.23758">
        <ele>18.529165</ele>
        <time>2020-07-16T16:05:49.002Z</time>
      </trkpt>
      <trkpt lat="62.40378" lon="6.24047">
        <ele>29.384577</ele>
        <time>2020-07-16T16:07:00.379Z</time>
      </trkpt>
      <trkpt lat="62.40422" lon="6.24174">
        <ele>33.38696</ele>
        <time>2020-07-16T16:07:25.860Z</time>
      </trkpt>
      <trkpt lat="62.4044" lon="6.24233">
        <ele>35.067248</ele>
        <time>2020-07-16T16:07:37.787Z</time>
      </trkpt>
      <trkpt lat="62.40455" lon="6.24285">
        <ele>36.55015</ele>
        <time>2020-07-16T16:07:48.137Z</time>
      </trkpt>
      <trkpt lat="62.40448" lon="6.24294">
        <ele>36.959269</ele>
        <time>2020-07-16T16:07:50.212Z</time>
      </trkpt>
      <trkpt lat="62.40447" lon="6.24298">
        <ele>37.085797</ele>
        <time>2020-07-16T16:07:50.570Z</time>
      </trkpt>
      <trkpt lat="62.40445" lon="6.24309">
        <ele>37.341384</ele>
        <time>2020-07-16T16:07:52.458Z</time>
      </trkpt>
      <trkpt lat="62.40457" lon="6.2441">
        <ele>39.829286</ele>
        <time>2020-07-16T16:08:09.332Z</time>
      </trkpt>
      <trkpt lat="62.40466" lon="6.24472">
        <ele>41.140741</ele>
        <time>2020-07-16T16:08:18.710Z</time>
      </trkpt>
      <trkpt lat="62.40467" lon="6.24486">
        <ele>41.425996</ele>
        <time>2020-07-16T16:08:21.608Z</time>
      </trkpt>
      <trkpt lat="62.40479" lon="6.24589">
        <ele>43.5423</ele>
        <time>2020-07-16T16:08:36.279Z</time>
      </trkpt>
      <trkpt lat="62.40496" lon="6.2467">
        <ele>45.292133</ele>
        <time>2020-07-16T16:08:49.023Z</time>
      </trkpt>
      <trkpt lat="62.40523" lon="6.24751">
        <ele>47.306705</ele>
        <time>2020-07-16T16:09:04.657Z</time>
      </trkpt>
      <trkpt lat="62.40567" lon="6.24839">
        <ele>49.877014</ele>
        <time>2020-07-16T16:09:25.026Z</time>
      </trkpt>
      <trkpt lat="62.4059" lon="6.24876">
        <ele>51.119799</ele>
        <time>2020-07-16T16:09:34.451Z</time>
      </trkpt>
      <trkpt lat="62.40601" lon="6.24893">
        <ele>51.691121</ele>
        <time>2020-07-16T16:09:38.762Z</time>
      </trkpt>
      <trkpt lat="62.40622" lon="6.24929">
        <ele>52.828001</ele>
        <time>2020-07-16T16:09:46.960Z</time>
      </trkpt>
      <trkpt lat="62.40637" lon="6.24958">
        <ele>53.704852</ele>
        <time>2020-07-16T16:09:53.642Z</time>
      </trkpt>
      <trkpt lat="62.40656" lon="6.24992">
        <ele>54.773253</ele>
        <time>2020-07-16T16:10:01.646Z</time>
      </trkpt>
      <trkpt lat="62.40741" lon="6.25093">
        <ele>58.167281</ele>
        <time>2020-07-16T16:10:31.518Z</time>
      </trkpt>
      <trkpt lat="62.4075" lon="6.25109">
        <ele>58.546768</ele>
        <time>2020-07-16T16:10:34.915Z</time>
      </trkpt>
      <trkpt lat="62.40753" lon="6.25114">
        <ele>58.683894</ele>
        <time>2020-07-16T16:10:36.633Z</time>
      </trkpt>
      <trkpt lat="62.40761" lon="6.2513">
        <ele>59.031723</ele>
        <time>2020-07-16T16:10:39.507Z</time>
      </trkpt>
      <trkpt lat="62.40775" lon="6.25167">
        <ele>59.787195</ele>
        <time>2020-07-16T16:10:45.585Z</time>
      </trkpt>
      <trkpt lat="62.40777" lon="6.25163">
        <ele>59.892305</ele>
        <time>2020-07-16T16:10:47.051Z</time>
      </trkpt>
      <trkpt lat="62.40803" lon="6.25115">
        <ele>61.026506</ele>
        <time>2020-07-16T16:10:55.698Z</time>
      </trkpt>
      <trkpt lat="62.40808" lon="6.2511">
        <ele>61.204424</ele>
        <time>2020-07-16T16:10:57.797Z</time>
      </trkpt>
      <trkpt lat="62.40819" lon="6.25124">
        <ele>61.486786</ele>
        <time>2020-07-16T16:11:00.647Z</time>
      </trkpt>
      <trkpt lat="62.4083" lon="6.25136">
        <ele>61.641493</ele>
        <time>2020-07-16T16:11:03.802Z</time>
      </trkpt>
      <trkpt lat="62.40832" lon="6.25135">
        <ele>61.659121</ele>
        <time>2020-07-16T16:11:04.121Z</time>
      </trkpt>
      <trkpt lat="62.40834" lon="6.25133">
        <ele>61.688913</ele>
        <time>2020-07-16T16:11:04.788Z</time>
      </trkpt>
      <trkpt lat="62.40836" lon="6.25129">
        <ele>61.722952</ele>
        <time>2020-07-16T16:11:05.967Z</time>
      </trkpt>
      <trkpt lat="62.40855" lon="6.25159">
        <ele>62.012031</ele>
        <time>2020-07-16T16:11:11.378Z</time>
      </trkpt>
      <trkpt lat="62.40951" lon="6.25295">
        <ele>63.437496</ele>
        <time>2020-07-16T16:11:36.555Z</time>
      </trkpt>
      <trkpt lat="62.41172" lon="6.25567">
        <ele>61.87913</ele>
        <time>2020-07-16T16:12:16.579Z</time>
      </trkpt>
      <trkpt lat="62.41221" lon="6.25648">
        <ele>61.328365</ele>
        <time>2020-07-16T16:12:25.960Z</time>
      </trkpt>
      <trkpt lat="62.41293" lon="6.25785">
        <ele>60.618896</ele>
        <time>2020-07-16T16:12:41.391Z</time>
      </trkpt>
      <trkpt lat="62.41332" lon="6.25845">
        <ele>60.377525</ele>
        <time>2020-07-16T16:12:49.472Z</time>
      </trkpt>
      <trkpt lat="62.41403" lon="6.25919">
        <ele>59.97797</ele>
        <time>2020-07-16T16:13:03.603Z</time>
      </trkpt>
      <trkpt lat="62.41549" lon="6.26032">
        <ele>57.119121</ele>
        <time>2020-07-16T16:13:26.718Z</time>
      </trkpt>
      <trkpt lat="62.41613" lon="6.26112">
        <ele>55.192487</ele>
        <time>2020-07-16T16:13:35.923Z</time>
      </trkpt>
      <trkpt lat="62.41623" lon="6.26128">
        <ele>54.789157</ele>
        <time>2020-07-16T16:13:37.381Z</time>
      </trkpt>
      <trkpt lat="62.41633" lon="6.26146">
        <ele>54.330554</ele>
        <time>2020-07-16T16:13:39.099Z</time>
      </trkpt>
      <trkpt lat="62.41651" lon="6.2618">
        <ele>53.557743</ele>
        <time>2020-07-16T16:13:42.038Z</time>
      </trkpt>
      <trkpt lat="62.41654" lon="6.26188">
        <ele>53.385536</ele>
        <time>2020-07-16T16:13:42.664Z</time>
      </trkpt>
      <trkpt lat="62.4166" lon="6.26202">
        <ele>53.087602</ele>
        <time>2020-07-16T16:13:43.810Z</time>
      </trkpt>
      <trkpt lat="62.41674" lon="6.26235">
        <ele>52.401187</ele>
        <time>2020-07-16T16:13:46.429Z</time>
      </trkpt>
      <trkpt lat="62.41693" lon="6.26285">
        <ele>51.40032</ele>
        <time>2020-07-16T16:13:50.341Z</time>
      </trkpt>
      <trkpt lat="62.41705" lon="6.26323">
        <ele>50.695386</ele>
        <time>2020-07-16T16:13:53.085Z</time>
      </trkpt>
      <trkpt lat="62.41716" lon="6.26307">
        <ele>50.314703</ele>
        <time>2020-07-16T16:13:55.134Z</time>
      </trkpt>
      <trkpt lat="62.41725" lon="6.26295">
        <ele>50.374806</ele>
        <time>2020-07-16T16:13:56.653Z</time>
      </trkpt>
      <trkpt lat="62.41729" lon="6.26306">
        <ele>50.414032</ele>
        <time>2020-07-16T16:13:57.623Z</time>
      </trkpt>
      <trkpt lat="62.41781" lon="6.26448">
        <ele>50.924521</ele>
        <time>2020-07-16T16:14:14.539Z</time>
      </trkpt>
      <trkpt lat="62.41784" lon="6.26458">
        <ele>50.958509</ele>
        <time>2020-07-16T16:14:16.309Z</time>
      </trkpt>
      <trkpt lat="62.41793" lon="6.26486">
        <ele>51.05698</ele>
        <time>2020-07-16T16:14:20.576Z</time>
      </trkpt>
      <trkpt lat="62.41807" lon="6.26525">
        <ele>51.196215</ele>
        <time>2020-07-16T16:14:26.542Z</time>
      </trkpt>
      <trkpt lat="62.41814" lon="6.26545">
        <ele>51.266411</ele>
        <time>2020-07-16T16:14:29.720Z</time>
      </trkpt>
      <trkpt lat="62.41826" lon="6.26601">
        <ele>51.319906</ele>
        <time>2020-07-16T16:14:36.671Z</time>
      </trkpt>
      <trkpt lat="62.41861" lon="6.26691">
        <ele>50.666796</ele>
        <time>2020-07-16T16:14:48.148Z</time>
      </trkpt>
      <trkpt lat="62.41868" lon="6.2671">
        <ele>50.528834</ele>
        <time>2020-07-16T16:14:51.070Z</time>
      </trkpt>
      <trkpt lat="62.41881" lon="6.26748">
        <ele>50.265911</ele>
        <time>2020-07-16T16:14:54.485Z</time>
      </trkpt>
      <trkpt lat="62.41896" lon="6.26789">
        <ele>49.975921</ele>
        <time>2020-07-16T16:14:58.021Z</time>
      </trkpt>
      <trkpt lat="62.41942" lon="6.26828">
        <ele>49.376182</ele>
        <time>2020-07-16T16:15:04.828Z</time>
      </trkpt>
      <trkpt lat="62.41982" lon="6.2688">
        <ele>47.772664</ele>
        <time>2020-07-16T16:15:10.904Z</time>
      </trkpt>
      <trkpt lat="62.42017" lon="6.26924">
        <ele>46.108354</ele>
        <time>2020-07-16T16:15:15.864Z</time>
      </trkpt>
      <trkpt lat="62.42022" lon="6.26935">
        <ele>45.799044</ele>
        <time>2020-07-16T16:15:16.760Z</time>
      </trkpt>
      <trkpt lat="62.42056" lon="6.27019">
        <ele>43.635931</ele>
        <time>2020-07-16T16:15:23.554Z</time>
      </trkpt>
      <trkpt lat="62.4206" lon="6.2703">
        <ele>43.381806</ele>
        <time>2020-07-16T16:15:24.347Z</time>
      </trkpt>
      <trkpt lat="62.42062" lon="6.27037">
        <ele>43.214677</ele>
        <time>2020-07-16T16:15:24.924Z</time>
      </trkpt>
      <trkpt lat="62.42062" lon="6.2704">
        <ele>43.150457</ele>
        <time>2020-07-16T16:15:25.133Z</time>
      </trkpt>
      <trkpt lat="62.42062" lon="6.27045">
        <ele>43.059297</ele>
        <time>2020-07-16T16:15:25.419Z</time>
      </trkpt>
      <trkpt lat="62.42067" lon="6.27047">
        <ele>42.838257</ele>
        <time>2020-07-16T16:15:26.082Z</time>
      </trkpt>
      <trkpt lat="62.42066" lon="6.27053">
        <ele>42.711525</ele>
        <time>2020-07-16T16:15:26.625Z</time>
      </trkpt>
      <trkpt lat="62.42065" lon="6.27059">
        <ele>42.591639</ele>
        <time>2020-07-16T16:15:27.159Z</time>
      </trkpt>
      <trkpt lat="62.4207" lon="6.27078">
        <ele>42.165163</ele>
        <time>2020-07-16T16:15:28.582Z</time>
      </trkpt>
      <trkpt lat="62.42076" lon="6.27129">
        <ele>41.367978</ele>
        <time>2020-07-16T16:15:31.843Z</time>
      </trkpt>
      <trkpt lat="62.42094" lon="6.27187">
        <ele>40.545038</ele>
        <time>2020-07-16T16:15:36.403Z</time>
      </trkpt>
      <trkpt lat="62.42099" lon="6.27203">
        <ele>40.321584</ele>
        <time>2020-07-16T16:15:37.745Z</time>
      </trkpt>
      <trkpt lat="62.42093" lon="6.27218">
        <ele>40.080029</ele>
        <time>2020-07-16T16:15:39.168Z</time>
      </trkpt>
      <trkpt lat="62.42092" lon="6.27221">
        <ele>40.034162</ele>
        <time>2020-07-16T16:15:39.436Z</time>
      </trkpt>
      <trkpt lat="62.42088" lon="6.27229">
        <ele>39.900041</ele>
        <time>2020-07-16T16:15:40.268Z</time>
      </trkpt>
      <trkpt lat="62.42084" lon="6.27241">
        <ele>39.719761</ele>
        <time>2020-07-16T16:15:41.461Z</time>
      </trkpt>
      <trkpt lat="62.42079" lon="6.27255">
        <ele>39.518683</ele>
        <time>2020-07-16T16:15:42.645Z</time>
      </trkpt>
      <trkpt lat="62.42074" lon="6.27266">
        <ele>39.341297</ele>
        <time>2020-07-16T16:15:43.585Z</time>
      </trkpt>
      <trkpt lat="62.42073" lon="6.27275">
        <ele>39.226274</ele>
        <time>2020-07-16T16:15:44.188Z</time>
      </trkpt>
      <trkpt lat="62.42072" lon="6.2729">
        <ele>39.052456</ele>
        <time>2020-07-16T16:15:45.072Z</time>
      </trkpt>
      <trkpt lat="62.42074" lon="6.27332">
        <ele>38.546689</ele>
        <time>2020-07-16T16:15:47.888Z</time>
      </trkpt>
      <trkpt lat="62.42086" lon="6.27397">
        <ele>37.732331</ele>
        <time>2020-07-16T16:15:52.482Z</time>
      </trkpt>
      <trkpt lat="62.42111" lon="6.27457">
        <ele>36.805097</ele>
        <time>2020-07-16T16:15:57.430Z</time>
      </trkpt>
      <trkpt lat="62.42132" lon="6.27497">
        <ele>36.132964</ele>
        <time>2020-07-16T16:16:01.139Z</time>
      </trkpt>
      <trkpt lat="62.42159" lon="6.27545">
        <ele>35.312339</ele>
        <time>2020-07-16T16:16:05.647Z</time>
      </trkpt>
      <trkpt lat="62.42196" lon="6.27609">
        <ele>34.202109</ele>
        <time>2020-07-16T16:16:11.836Z</time>
      </trkpt>
      <trkpt lat="62.422" lon="6.27621">
        <ele>34.028242</ele>
        <time>2020-07-16T16:16:12.684Z</time>
      </trkpt>
      <trkpt lat="62.4221" lon="6.27655">
        <ele>33.584931</ele>
        <time>2020-07-16T16:16:15.341Z</time>
      </trkpt>
      <trkpt lat="62.42221" lon="6.27708">
        <ele>32.952199</ele>
        <time>2020-07-16T16:16:19.081Z</time>
      </trkpt>
      <trkpt lat="62.42226" lon="6.27748">
        <ele>33.820914</ele>
        <time>2020-07-16T16:16:22.291Z</time>
      </trkpt>
      <trkpt lat="62.42236" lon="6.27869">
        <ele>37.248666</ele>
        <time>2020-07-16T16:16:37.463Z</time>
      </trkpt>
      <trkpt lat="62.42237" lon="6.27879">
        <ele>37.544465</ele>
        <time>2020-07-16T16:16:39.642Z</time>
      </trkpt>
      <trkpt lat="62.42238" lon="6.27889">
        <ele>37.806289</ele>
        <time>2020-07-16T16:16:41.647Z</time>
      </trkpt>
      <trkpt lat="62.4224" lon="6.27918">
        <ele>38.642215</ele>
        <time>2020-07-16T16:16:44.638Z</time>
      </trkpt>
      <trkpt lat="62.42243" lon="6.27957">
        <ele>39.745615</ele>
        <time>2020-07-16T16:16:52.468Z</time>
      </trkpt>
      <trkpt lat="62.42246" lon="6.27983">
        <ele>40.483331</ele>
        <time>2020-07-16T16:16:57.407Z</time>
      </trkpt>
      <trkpt lat="62.42251" lon="6.28075">
        <ele>43.060106</ele>
        <time>2020-07-16T16:17:19.458Z</time>
      </trkpt>
      <trkpt lat="62.42251" lon="6.28085">
        <ele>43.350095</ele>
        <time>2020-07-16T16:17:23.148Z</time>
      </trkpt>
      <trkpt lat="62.42251" lon="6.28119">
        <ele>45.028361</ele>
        <time>2020-07-16T16:17:34.819Z</time>
      </trkpt>
      <trkpt lat="62.42245" lon="6.28235">
        <ele>52.150921</ele>
        <time>2020-07-16T16:18:08.107Z</time>
      </trkpt>
      <trkpt lat="62.42237" lon="6.28302">
        <ele>56.423009</ele>
        <time>2020-07-16T16:18:29.550Z</time>
      </trkpt>
      <trkpt lat="62.42231" lon="6.2833">
        <ele>58.286024</ele>
        <time>2020-07-16T16:18:41.108Z</time>
      </trkpt>
      <trkpt lat="62.42215" lon="6.28412">
        <ele>63.773012</ele>
        <time>2020-07-16T16:19:07.082Z</time>
      </trkpt>
      <trkpt lat="62.42207" lon="6.28452">
        <ele>66.430434</ele>
        <time>2020-07-16T16:19:16.112Z</time>
      </trkpt>
      <trkpt lat="62.42192" lon="6.28527">
        <ele>68.663987</ele>
        <time>2020-07-16T16:19:34.036Z</time>
      </trkpt>
      <trkpt lat="62.42187" lon="6.28561">
        <ele>69.302768</ele>
        <time>2020-07-16T16:19:42.754Z</time>
      </trkpt>
      <trkpt lat="62.42183" lon="6.28581">
        <ele>69.692976</ele>
        <time>2020-07-16T16:19:46.121Z</time>
      </trkpt>
      <trkpt lat="62.42179" lon="6.28615">
        <ele>70.308972</ele>
        <time>2020-07-16T16:19:53.713Z</time>
      </trkpt>
      <trkpt lat="62.42178" lon="6.28624">
        <ele>70.475312</ele>
        <time>2020-07-16T16:19:55.775Z</time>
      </trkpt>
      <trkpt lat="62.42177" lon="6.28634">
        <ele>70.657258</ele>
        <time>2020-07-16T16:19:57.714Z</time>
      </trkpt>
      <trkpt lat="62.42178" lon="6.28646">
        <ele>70.863028</ele>
        <time>2020-07-16T16:19:59.413Z</time>
      </trkpt>
      <trkpt lat="62.42179" lon="6.28656">
        <ele>71.054622</ele>
        <time>2020-07-16T16:20:00.857Z</time>
      </trkpt>
      <trkpt lat="62.4218" lon="6.28663">
        <ele>71.178032</ele>
        <time>2020-07-16T16:20:01.358Z</time>
      </trkpt>
      <trkpt lat="62.42175" lon="6.29037">
        <ele>71.287112</ele>
        <time>2020-07-16T16:20:26.969Z</time>
      </trkpt>
      <trkpt lat="62.42185" lon="6.29233">
        <ele>68.044629</ele>
        <time>2020-07-16T16:20:38.134Z</time>
      </trkpt>
      <trkpt lat="62.42207" lon="6.29423">
        <ele>61.034517</ele>
        <time>2020-07-16T16:20:48.366Z</time>
      </trkpt>
      <trkpt lat="62.4223" lon="6.29516">
        <ele>57.289274</ele>
        <time>2020-07-16T16:20:53.821Z</time>
      </trkpt>
      <trkpt lat="62.42254" lon="6.29579">
        <ele>54.346702</ele>
        <time>2020-07-16T16:20:58.053Z</time>
      </trkpt>
      <trkpt lat="62.42257" lon="6.29585">
        <ele>54.071618</ele>
        <time>2020-07-16T16:20:58.424Z</time>
      </trkpt>
      <trkpt lat="62.42266" lon="6.29604">
        <ele>53.202434</ele>
        <time>2020-07-16T16:20:59.880Z</time>
      </trkpt>
      <trkpt lat="62.4233" lon="6.29728">
        <ele>47.35018</ele>
        <time>2020-07-16T16:21:09.954Z</time>
      </trkpt>
      <trkpt lat="62.42335" lon="6.29739">
        <ele>46.868536</ele>
        <time>2020-07-16T16:21:10.713Z</time>
      </trkpt>
      <trkpt lat="62.42343" lon="6.29762">
        <ele>45.953267</ele>
        <time>2020-07-16T16:21:12.221Z</time>
      </trkpt>
      <trkpt lat="62.42344" lon="6.29766">
        <ele>45.808135</ele>
        <time>2020-07-16T16:21:12.480Z</time>
      </trkpt>
      <trkpt lat="62.42352" lon="6.29791">
        <ele>44.850506</ele>
        <time>2020-07-16T16:21:14.381Z</time>
      </trkpt>
      <trkpt lat="62.42361" lon="6.29823">
        <ele>43.664694</ele>
        <time>2020-07-16T16:21:16.265Z</time>
      </trkpt>
      <trkpt lat="62.42393" lon="6.29933">
        <ele>39.881519</ele>
        <time>2020-07-16T16:21:23.570Z</time>
      </trkpt>
      <trkpt lat="62.4243" lon="6.3006">
        <ele>35.810109</ele>
        <time>2020-07-16T16:21:32.097Z</time>
      </trkpt>
      <trkpt lat="62.42451" lon="6.30135">
        <ele>33.409655</ele>
        <time>2020-07-16T16:21:36.869Z</time>
      </trkpt>
      <trkpt lat="62.42472" lon="6.30216">
        <ele>30.900791</ele>
        <time>2020-07-16T16:21:41.724Z</time>
      </trkpt>
      <trkpt lat="62.42491" lon="6.30319">
        <ele>27.956083</ele>
        <time>2020-07-16T16:21:47.603Z</time>
      </trkpt>
      <trkpt lat="62.42507" lon="6.30336">
        <ele>26.934825</ele>
        <time>2020-07-16T16:21:49.680Z</time>
      </trkpt>
      <trkpt lat="62.4251" lon="6.30338">
        <ele>26.719629</ele>
        <time>2020-07-16T16:21:50.066Z</time>
      </trkpt>
      <trkpt lat="62.42512" lon="6.30341">
        <ele>26.609301</ele>
        <time>2020-07-16T16:21:50.270Z</time>
      </trkpt>
      <trkpt lat="62.42521" lon="6.30363">
        <ele>25.831082</ele>
        <time>2020-07-16T16:21:52.049Z</time>
      </trkpt>
      <trkpt lat="62.42525" lon="6.30398">
        <ele>24.852235</ele>
        <time>2020-07-16T16:21:54.098Z</time>
      </trkpt>
      <trkpt lat="62.42527" lon="6.30403">
        <ele>24.688364</ele>
        <time>2020-07-16T16:21:54.387Z</time>
      </trkpt>
      <trkpt lat="62.42527" lon="6.30413">
        <ele>24.40928</ele>
        <time>2020-07-16T16:21:54.950Z</time>
      </trkpt>
      <trkpt lat="62.42529" lon="6.30422">
        <ele>24.16506</ele>
        <time>2020-07-16T16:21:55.648Z</time>
      </trkpt>
      <trkpt lat="62.42524" lon="6.30458">
        <ele>23.160846</ele>
        <time>2020-07-16T16:21:58.019Z</time>
      </trkpt>
      <trkpt lat="62.42526" lon="6.30507">
        <ele>21.856124</ele>
        <time>2020-07-16T16:22:00.778Z</time>
      </trkpt>
      <trkpt lat="62.42527" lon="6.30512">
        <ele>21.709662</ele>
        <time>2020-07-16T16:22:01.444Z</time>
      </trkpt>
      <trkpt lat="62.42531" lon="6.30545">
        <ele>20.96372</ele>
        <time>2020-07-16T16:22:03.654Z</time>
      </trkpt>
      <trkpt lat="62.42533" lon="6.30552">
        <ele>20.948778</ele>
        <time>2020-07-16T16:22:04.021Z</time>
      </trkpt>
      <trkpt lat="62.42544" lon="6.30591">
        <ele>20.857973</ele>
        <time>2020-07-16T16:22:07.399Z</time>
      </trkpt>
      <trkpt lat="62.42547" lon="6.30604">
        <ele>20.830507</ele>
        <time>2020-07-16T16:22:08.263Z</time>
      </trkpt>
      <trkpt lat="62.42556" lon="6.30641">
        <ele>20.749571</ele>
        <time>2020-07-16T16:22:10.686Z</time>
      </trkpt>
      <trkpt lat="62.42574" lon="6.30689">
        <ele>20.629753</ele>
        <time>2020-07-16T16:22:15.338Z</time>
      </trkpt>
      <trkpt lat="62.42584" lon="6.30698">
        <ele>20.582933</ele>
        <time>2020-07-16T16:22:17.989Z</time>
      </trkpt>
      <trkpt lat="62.42586" lon="6.30705">
        <ele>20.566298</ele>
        <time>2020-07-16T16:22:19.128Z</time>
      </trkpt>
      <trkpt lat="62.42588" lon="6.30709">
        <ele>20.556025</ele>
        <time>2020-07-16T16:22:19.585Z</time>
      </trkpt>
      <trkpt lat="62.42587" lon="6.30721">
        <ele>20.533727</ele>
        <time>2020-07-16T16:22:20.354Z</time>
      </trkpt>
      <trkpt lat="62.42594" lon="6.30741">
        <ele>20.48271</ele>
        <time>2020-07-16T16:22:22.410Z</time>
      </trkpt>
      <trkpt lat="62.42611" lon="6.30783">
        <ele>20.375702</ele>
        <time>2020-07-16T16:22:27.590Z</time>
      </trkpt>
      <trkpt lat="62.42674" lon="6.30971">
        <ele>21.358008</ele>
        <time>2020-07-16T16:22:54.289Z</time>
      </trkpt>
      <trkpt lat="62.42707" lon="6.31093">
        <ele>22.425379</ele>
        <time>2020-07-16T16:23:09.618Z</time>
      </trkpt>
      <trkpt lat="62.4271" lon="6.31102">
        <ele>22.504473</ele>
        <time>2020-07-16T16:23:10.994Z</time>
      </trkpt>
      <trkpt lat="62.42714" lon="6.31119">
        <ele>22.64943</ele>
        <time>2020-07-16T16:23:13.040Z</time>
      </trkpt>
      <trkpt lat="62.42727" lon="6.31163">
        <ele>23.04591</ele>
        <time>2020-07-16T16:23:18.180Z</time>
      </trkpt>
      <trkpt lat="62.42737" lon="6.3121">
        <ele>23.268859</ele>
        <time>2020-07-16T16:23:23.241Z</time>
      </trkpt>
      <trkpt lat="62.42753" lon="6.31313">
        <ele>23.625533</ele>
        <time>2020-07-16T16:23:33.690Z</time>
      </trkpt>
      <trkpt lat="62.42759" lon="6.31357">
        <ele>23.776572</ele>
        <time>2020-07-16T16:23:38.010Z</time>
      </trkpt>
      <trkpt lat="62.42778" lon="6.31501">
        <ele>24.267632</ele>
        <time>2020-07-16T16:23:51.794Z</time>
      </trkpt>
      <trkpt lat="62.42781" lon="6.3152">
        <ele>24.332526</ele>
        <time>2020-07-16T16:23:53.331Z</time>
      </trkpt>
      <trkpt lat="62.42784" lon="6.31541">
        <ele>24.40402</ele>
        <time>2020-07-16T16:23:55.205Z</time>
      </trkpt>
      <trkpt lat="62.42785" lon="6.31554">
        <ele>24.532762</ele>
        <time>2020-07-16T16:23:56.312Z</time>
      </trkpt>
      <trkpt lat="62.42785" lon="6.31559">
        <ele>24.599737</ele>
        <time>2020-07-16T16:23:56.844Z</time>
      </trkpt>
      <trkpt lat="62.42787" lon="6.31596">
        <ele>25.080366</ele>
        <time>2020-07-16T16:24:00.589Z</time>
      </trkpt>
      <trkpt lat="62.42788" lon="6.31617">
        <ele>25.345555</ele>
        <time>2020-07-16T16:24:03.529Z</time>
      </trkpt>
      <trkpt lat="62.42788" lon="6.31697">
        <ele>26.35838</ele>
        <time>2020-07-16T16:24:12.746Z</time>
      </trkpt>
      <trkpt lat="62.42787" lon="6.31707">
        <ele>26.490547</ele>
        <time>2020-07-16T16:24:13.801Z</time>
      </trkpt>
      <trkpt lat="62.42789" lon="6.31716">
        <ele>26.600242</ele>
        <time>2020-07-16T16:24:14.774Z</time>
      </trkpt>
      <trkpt lat="62.42789" lon="6.31728">
        <ele>26.76071</ele>
        <time>2020-07-16T16:24:16.521Z</time>
      </trkpt>
      <trkpt lat="62.42789" lon="6.31739">
        <ele>26.895642</ele>
        <time>2020-07-16T16:24:17.514Z</time>
      </trkpt>
      <trkpt lat="62.42789" lon="6.31749">
        <ele>27.030322</ele>
        <time>2020-07-16T16:24:18.699Z</time>
      </trkpt>
      <trkpt lat="62.42789" lon="6.31794">
        <ele>27.599562</ele>
        <time>2020-07-16T16:24:24.701Z</time>
      </trkpt>
      <trkpt lat="62.42789" lon="6.31795">
        <ele>27.610998</ele>
        <time>2020-07-16T16:24:25.073Z</time>
      </trkpt>
      <trkpt lat="62.42781" lon="6.31848">
        <ele>28.322182</ele>
        <time>2020-07-16T16:24:32.565Z</time>
      </trkpt>
      <trkpt lat="62.42766" lon="6.31879">
        <ele>28.896607</ele>
        <time>2020-07-16T16:24:38.497Z</time>
      </trkpt>
      <trkpt lat="62.4276" lon="6.31891">
        <ele>29.112083</ele>
        <time>2020-07-16T16:24:41.021Z</time>
      </trkpt>
      <trkpt lat="62.42759" lon="6.31897">
        <ele>29.193547</ele>
        <time>2020-07-16T16:24:42.666Z</time>
      </trkpt>
      <trkpt lat="62.42751" lon="6.31963">
        <ele>30.775008</ele>
        <time>2020-07-16T16:24:52.242Z</time>
      </trkpt>
      <trkpt lat="62.42742" lon="6.32112">
        <ele>34.620238</ele>
        <time>2020-07-16T16:25:19.416Z</time>
      </trkpt>
      <trkpt lat="62.42742" lon="6.32233">
        <ele>37.724285</ele>
        <time>2020-07-16T16:25:41.062Z</time>
      </trkpt>
      <trkpt lat="62.42747" lon="6.32317">
        <ele>39.781985</ele>
        <time>2020-07-16T16:25:54.396Z</time>
      </trkpt>
      <trkpt lat="62.4275" lon="6.32343">
        <ele>40.331584</ele>
        <time>2020-07-16T16:25:59.201Z</time>
      </trkpt>
      <trkpt lat="62.42752" lon="6.32358">
        <ele>40.655375</ele>
        <time>2020-07-16T16:26:02.229Z</time>
      </trkpt>
      <trkpt lat="62.42765" lon="6.32439">
        <ele>42.411836</ele>
        <time>2020-07-16T16:26:15.050Z</time>
      </trkpt>
      <trkpt lat="62.42788" lon="6.32533">
        <ele>44.596009</ele>
        <time>2020-07-16T16:26:29.814Z</time>
      </trkpt>
      <trkpt lat="62.429" lon="6.32835">
        <ele>54.554313</ele>
        <time>2020-07-16T16:27:27.480Z</time>
      </trkpt>
      <trkpt lat="62.42938" lon="6.3302">
        <ele>59.904619</ele>
        <time>2020-07-16T16:28:14.840Z</time>
      </trkpt>
      <trkpt lat="62.42945" lon="6.33089">
        <ele>61.497804</ele>
        <time>2020-07-16T16:28:29.211Z</time>
      </trkpt>
      <trkpt lat="62.42945" lon="6.33147">
        <ele>62.831572</ele>
        <time>2020-07-16T16:28:39.559Z</time>
      </trkpt>
      <trkpt lat="62.42946" lon="6.3318">
        <ele>63.58564</ele>
        <time>2020-07-16T16:28:48.580Z</time>
      </trkpt>
      <trkpt lat="62.42926" lon="6.33406">
        <ele>63.116114</ele>
        <time>2020-07-16T16:29:12.180Z</time>
      </trkpt>
      <trkpt lat="62.42917" lon="6.33608">
        <ele>51.825774</ele>
        <time>2020-07-16T16:29:22.476Z</time>
      </trkpt>
      <trkpt lat="62.42917" lon="6.33669">
        <ele>48.433834</ele>
        <time>2020-07-16T16:29:25.508Z</time>
      </trkpt>
      <trkpt lat="62.42918" lon="6.33688">
        <ele>47.364767</ele>
        <time>2020-07-16T16:29:26.459Z</time>
      </trkpt>
      <trkpt lat="62.42926" lon="6.33774">
        <ele>41.558446</ele>
        <time>2020-07-16T16:29:30.808Z</time>
      </trkpt>
      <trkpt lat="62.42927" lon="6.33788">
        <ele>40.514095</ele>
        <time>2020-07-16T16:29:31.526Z</time>
      </trkpt>
      <trkpt lat="62.42931" lon="6.33811">
        <ele>38.765683</ele>
        <time>2020-07-16T16:29:32.720Z</time>
      </trkpt>
      <trkpt lat="62.42957" lon="6.34011">
        <ele>23.753487</ele>
        <time>2020-07-16T16:29:43.033Z</time>
      </trkpt>
      <trkpt lat="62.42965" lon="6.34073">
        <ele>19.060643</ele>
        <time>2020-07-16T16:29:46.530Z</time>
      </trkpt>
      <trkpt lat="62.42969" lon="6.34089">
        <ele>17.759918</ele>
        <time>2020-07-16T16:29:47.423Z</time>
      </trkpt>
      <trkpt lat="62.43024" lon="6.34394">
        <ele>10.818261</ele>
        <time>2020-07-16T16:30:07.443Z</time>
      </trkpt>
      <trkpt lat="62.43047" lon="6.34487">
        <ele>9.28044</ele>
        <time>2020-07-16T16:30:15.691Z</time>
      </trkpt>
      <trkpt lat="62.4306" lon="6.34535">
        <ele>9.027027</ele>
        <time>2020-07-16T16:30:19.880Z</time>
      </trkpt>
      <trkpt lat="62.4308" lon="6.34608">
        <ele>8.636479</ele>
        <time>2020-07-16T16:30:26.425Z</time>
      </trkpt>
      <trkpt lat="62.43083" lon="6.34621">
        <ele>8.567785</ele>
        <time>2020-07-16T16:30:27.583Z</time>
      </trkpt>
      <trkpt lat="62.43085" lon="6.34638">
        <ele>8.485118</ele>
        <time>2020-07-16T16:30:28.839Z</time>
      </trkpt>
      <trkpt lat="62.43095" lon="6.34799">
        <ele>7.737951</ele>
        <time>2020-07-16T16:30:41.333Z</time>
      </trkpt>
      <trkpt lat="62.43092" lon="6.34949">
        <ele>7.010617</ele>
        <time>2020-07-16T16:30:52.670Z</time>
      </trkpt>
      <trkpt lat="62.4309" lon="6.34966">
        <ele>6.927161</ele>
        <time>2020-07-16T16:30:53.958Z</time>
      </trkpt>
      <trkpt lat="62.43088" lon="6.35026">
        <ele>6.637104</ele>
        <time>2020-07-16T16:30:58.660Z</time>
      </trkpt>
      <trkpt lat="62.43087" lon="6.35077">
        <ele>6.387255</ele>
        <time>2020-07-16T16:31:02.591Z</time>
      </trkpt>
      <trkpt lat="62.43084" lon="6.35135">
        <ele>6.106954</ele>
        <time>2020-07-16T16:31:07.059Z</time>
      </trkpt>
      <trkpt lat="62.4309" lon="6.35134">
        <ele>6.041919</ele>
        <time>2020-07-16T16:31:07.916Z</time>
      </trkpt>
      <trkpt lat="62.43088" lon="6.35282">
        <ele>5.54202</ele>
        <time>2020-07-16T16:31:18.383Z</time>
      </trkpt>
      <trkpt lat="62.43086" lon="6.35427">
        <ele>5.17126</ele>
        <time>2020-07-16T16:31:29.030Z</time>
      </trkpt>
      <trkpt lat="62.43087" lon="6.35452">
        <ele>5.105794</ele>
        <time>2020-07-16T16:31:30.831Z</time>
      </trkpt>
      <trkpt lat="62.43086" lon="6.35456">
        <ele>5.093668</ele>
        <time>2020-07-16T16:31:31.110Z</time>
      </trkpt>
      <trkpt lat="62.4309" lon="6.35502">
        <ele>4.974612</ele>
        <time>2020-07-16T16:31:35.578Z</time>
      </trkpt>
      <trkpt lat="62.43106" lon="6.35534">
        <ele>4.850641</ele>
        <time>2020-07-16T16:31:39.599Z</time>
      </trkpt>
      <trkpt lat="62.43142" lon="6.35578">
        <ele>5.816618</ele>
        <time>2020-07-16T16:31:48.610Z</time>
      </trkpt>
      <trkpt lat="62.43343" lon="6.3572">
        <ele>13.29662</ele>
        <time>2020-07-16T16:32:56.511Z</time>
      </trkpt>
      <trkpt lat="62.43349" lon="6.35723">
        <ele>13.505708</ele>
        <time>2020-07-16T16:32:59.032Z</time>
      </trkpt>
      <trkpt lat="62.43428" lon="6.35777">
        <ele>16.704938</ele>
        <time>2020-07-16T16:33:24.321Z</time>
      </trkpt>
      <trkpt lat="62.43433" lon="6.35774">
        <ele>16.912024</ele>
        <time>2020-07-16T16:33:26.267Z</time>
      </trkpt>
      <trkpt lat="62.4344" lon="6.35772">
        <ele>17.160536</ele>
        <time>2020-07-16T16:33:27.799Z</time>
      </trkpt>
      <trkpt lat="62.4345" lon="6.35779">
        <ele>17.572476</ele>
        <time>2020-07-16T16:33:30.931Z</time>
      </trkpt>
      <trkpt lat="62.43477" lon="6.35795">
        <ele>18.229662</ele>
        <time>2020-07-16T16:33:38.175Z</time>
      </trkpt>
      <trkpt lat="62.43481" lon="6.35799">
        <ele>18.308794</ele>
        <time>2020-07-16T16:33:39.143Z</time>
      </trkpt>
      <trkpt lat="62.43534" lon="6.35831">
        <ele>19.349239</ele>
        <time>2020-07-16T16:33:52.020Z</time>
      </trkpt>
      <trkpt lat="62.43544" lon="6.35832">
        <ele>19.533492</ele>
        <time>2020-07-16T16:33:54.303Z</time>
      </trkpt>
      <trkpt lat="62.43546" lon="6.35834">
        <ele>19.578971</ele>
        <time>2020-07-16T16:33:54.766Z</time>
      </trkpt>
      <trkpt lat="62.43573" lon="6.35863">
        <ele>20.157125</ele>
        <time>2020-07-16T16:34:01.345Z</time>
      </trkpt>
      <trkpt lat="62.43597" lon="6.35879">
        <ele>20.624579</ele>
        <time>2020-07-16T16:34:05.987Z</time>
      </trkpt>
      <trkpt lat="62.43603" lon="6.35884">
        <ele>20.746846</ele>
        <time>2020-07-16T16:34:07.277Z</time>
      </trkpt>
      <trkpt lat="62.43743" lon="6.35984">
        <ele>24.537123</ele>
        <time>2020-07-16T16:34:45.059Z</time>
      </trkpt>
      <trkpt lat="62.43744" lon="6.35982">
        <ele>24.57765</ele>
        <time>2020-07-16T16:34:45.706Z</time>
      </trkpt>
      <trkpt lat="62.43759" lon="6.35957">
        <ele>25.085604</ele>
        <time>2020-07-16T16:34:51.354Z</time>
      </trkpt>
      <trkpt lat="62.4376" lon="6.35956">
        <ele>25.120186</ele>
        <time>2020-07-16T16:34:52.336Z</time>
      </trkpt>
      <trkpt lat="62.43815" lon="6.35978">
        <ele>26.261391</ele>
        <time>2020-07-16T16:35:07.980Z</time>
      </trkpt>
      <trkpt lat="62.43824" lon="6.35983">
        <ele>26.336481</ele>
        <time>2020-07-16T16:35:10.822Z</time>
      </trkpt>
      <trkpt lat="62.43824" lon="6.35985">
        <ele>26.343472</ele>
        <time>2020-07-16T16:35:11.634Z</time>
      </trkpt>
      <trkpt lat="62.43893" lon="6.36058">
        <ele>26.979604</ele>
        <time>2020-07-16T16:35:35.066Z</time>
      </trkpt>
      <trkpt lat="62.43931" lon="6.36113">
        <ele>27.361029</ele>
        <time>2020-07-16T16:35:44.751Z</time>
      </trkpt>
      <trkpt lat="62.43932" lon="6.36114">
        <ele>27.372043</ele>
        <time>2020-07-16T16:35:44.969Z</time>
      </trkpt>
      <trkpt lat="62.43951" lon="6.3614">
        <ele>27.551741</ele>
        <time>2020-07-16T16:35:49.347Z</time>
      </trkpt>
      <trkpt lat="62.4396" lon="6.36151">
        <ele>27.290467</ele>
        <time>2020-07-16T16:35:51.454Z</time>
      </trkpt>
      <trkpt lat="62.43968" lon="6.36159">
        <ele>26.941289</ele>
        <time>2020-07-16T16:35:52.751Z</time>
      </trkpt>
      <trkpt lat="62.43994" lon="6.36175">
        <ele>25.761907</ele>
        <time>2020-07-16T16:35:57.636Z</time>
      </trkpt>
      <trkpt lat="62.44037" lon="6.36193">
        <ele>23.845833</ele>
        <time>2020-07-16T16:36:05.026Z</time>
      </trkpt>
      <trkpt lat="62.44044" lon="6.36197">
        <ele>23.548389</ele>
        <time>2020-07-16T16:36:05.943Z</time>
      </trkpt>
      <trkpt lat="62.44052" lon="6.36201">
        <ele>23.17642</ele>
        <time>2020-07-16T16:36:06.951Z</time>
      </trkpt>
      <trkpt lat="62.44055" lon="6.36202">
        <ele>23.049745</ele>
        <time>2020-07-16T16:36:07.252Z</time>
      </trkpt>
      <trkpt lat="62.44186" lon="6.36247">
        <ele>18.914713</ele>
        <time>2020-07-16T16:36:23.613Z</time>
      </trkpt>
      <trkpt lat="62.44189" lon="6.36247">
        <ele>18.860218</ele>
        <time>2020-07-16T16:36:23.990Z</time>
      </trkpt>
      <trkpt lat="62.44189" lon="6.36252">
        <ele>18.826579</ele>
        <time>2020-07-16T16:36:24.461Z</time>
      </trkpt>
      <trkpt lat="62.44195" lon="6.36269">
        <ele>18.685317</ele>
        <time>2020-07-16T16:36:25.637Z</time>
      </trkpt>
      <trkpt lat="62.44196" lon="6.36276">
        <ele>18.628765</ele>
        <time>2020-07-16T16:36:26.357Z</time>
      </trkpt>
      <trkpt lat="62.442" lon="6.36302">
        <ele>18.436314</ele>
        <time>2020-07-16T16:36:28.816Z</time>
      </trkpt>
      <trkpt lat="62.442" lon="6.36305">
        <ele>18.41471</ele>
        <time>2020-07-16T16:36:29.082Z</time>
      </trkpt>
      <trkpt lat="62.44218" lon="6.3631">
        <ele>18.146088</ele>
        <time>2020-07-16T16:36:31.595Z</time>
      </trkpt>
      <trkpt lat="62.44229" lon="6.36303">
        <ele>17.967617</ele>
        <time>2020-07-16T16:36:34.088Z</time>
      </trkpt>
      <trkpt lat="62.44255" lon="6.36288">
        <ele>17.569164</ele>
        <time>2020-07-16T16:36:38.632Z</time>
      </trkpt>
      <trkpt lat="62.44299" lon="6.36279">
        <ele>17.331944</ele>
        <time>2020-07-16T16:36:49.127Z</time>
      </trkpt>
      <trkpt lat="62.44312" lon="6.36293">
        <ele>17.712819</ele>
        <time>2020-07-16T16:36:51.751Z</time>
      </trkpt>
      <trkpt lat="62.44322" lon="6.36317">
        <ele>18.110445</ele>
        <time>2020-07-16T16:36:56.052Z</time>
      </trkpt>
      <trkpt lat="62.44332" lon="6.36366">
        <ele>18.748479</ele>
        <time>2020-07-16T16:37:04.015Z</time>
      </trkpt>
      <trkpt lat="62.44336" lon="6.3643">
        <ele>19.530025</ele>
        <time>2020-07-16T16:37:13.330Z</time>
      </trkpt>
      <trkpt lat="62.44333" lon="6.36548">
        <ele>20.96608</ele>
        <time>2020-07-16T16:37:27.818Z</time>
      </trkpt>
      <trkpt lat="62.44335" lon="6.36552">
        <ele>21.036921</ele>
        <time>2020-07-16T16:37:29.385Z</time>
      </trkpt>
      <trkpt lat="62.44349" lon="6.36561">
        <ele>21.414078</ele>
        <time>2020-07-16T16:37:32.587Z</time>
      </trkpt>
      <trkpt lat="62.44352" lon="6.36562">
        <ele>21.489911</ele>
        <time>2020-07-16T16:37:33.174Z</time>
      </trkpt>
      <trkpt lat="62.44394" lon="6.36568">
        <ele>21.884113</ele>
        <time>2020-07-16T16:37:42.731Z</time>
      </trkpt>
      <trkpt lat="62.44399" lon="6.36572">
        <ele>21.901841</ele>
        <time>2020-07-16T16:37:43.878Z</time>
      </trkpt>
      <trkpt lat="62.44402" lon="6.36576">
        <ele>21.915462</ele>
        <time>2020-07-16T16:37:44.692Z</time>
      </trkpt>
      <trkpt lat="62.44405" lon="6.3658">
        <ele>21.931106</ele>
        <time>2020-07-16T16:37:46.474Z</time>
      </trkpt>
      <trkpt lat="62.44409" lon="6.36578">
        <ele>21.948094</ele>
        <time>2020-07-16T16:37:47.331Z</time>
      </trkpt>
      <trkpt lat="62.44414" lon="6.3658">
        <ele>21.967265</ele>
        <time>2020-07-16T16:37:48.407Z</time>
      </trkpt>
      <trkpt lat="62.44416" lon="6.3657">
        <ele>21.986529</ele>
        <time>2020-07-16T16:37:49.234Z</time>
      </trkpt>
      <trkpt lat="62.44418" lon="6.36559">
        <ele>22.006232</ele>
        <time>2020-07-16T16:37:49.993Z</time>
      </trkpt>
      <trkpt lat="62.44463" lon="6.36502">
        <ele>22.208284</ele>
        <time>2020-07-16T16:38:01.651Z</time>
      </trkpt>
      <trkpt lat="62.44527" lon="6.36285">
        <ele>22.022462</ele>
        <time>2020-07-16T16:38:19.941Z</time>
      </trkpt>
      <trkpt lat="62.44581" lon="6.36193">
        <ele>21.490181</ele>
        <time>2020-07-16T16:38:30.962Z</time>
      </trkpt>
      <trkpt lat="62.44584" lon="6.36202">
        <ele>21.454381</ele>
        <time>2020-07-16T16:38:31.733Z</time>
      </trkpt>
      <trkpt lat="62.44604" lon="6.36167">
        <ele>21.257121</ele>
        <time>2020-07-16T16:38:35.916Z</time>
      </trkpt>
      <trkpt lat="62.4462" lon="6.36138">
        <ele>21.091788</ele>
        <time>2020-07-16T16:38:39.839Z</time>
      </trkpt>
      <trkpt lat="62.44629" lon="6.3612">
        <ele>21.250379</ele>
        <time>2020-07-16T16:38:42.204Z</time>
      </trkpt>
      <trkpt lat="62.44641" lon="6.36095">
        <ele>21.59128</ele>
        <time>2020-07-16T16:38:45.931Z</time>
      </trkpt>
      <trkpt lat="62.44694" lon="6.35966">
        <ele>23.210478</ele>
        <time>2020-07-16T16:39:04.002Z</time>
      </trkpt>
      <trkpt lat="62.44712" lon="6.35921">
        <ele>23.775738</ele>
        <time>2020-07-16T16:39:11.172Z</time>
      </trkpt>
      <trkpt lat="62.44718" lon="6.35905">
        <ele>23.975261</ele>
        <time>2020-07-16T16:39:13.549Z</time>
      </trkpt>
      <trkpt lat="62.44725" lon="6.35887">
        <ele>24.189917</ele>
        <time>2020-07-16T16:39:16.303Z</time>
      </trkpt>
      <trkpt lat="62.44729" lon="6.35896">
        <ele>24.306967</ele>
        <time>2020-07-16T16:39:18.716Z</time>
      </trkpt>
      <trkpt lat="62.44792" lon="6.35711">
        <ele>28.41685</ele>
        <time>2020-07-16T16:39:52.694Z</time>
      </trkpt>
      <trkpt lat="62.44812" lon="6.35659">
        <ele>29.782427</ele>
        <time>2020-07-16T16:40:03.389Z</time>
      </trkpt>
      <trkpt lat="62.4482" lon="6.3564">
        <ele>30.291566</ele>
        <time>2020-07-16T16:40:08.178Z</time>
      </trkpt>
      <trkpt lat="62.44823" lon="6.35634">
        <ele>30.466365</ele>
        <time>2020-07-16T16:40:09.542Z</time>
      </trkpt>
      <trkpt lat="62.44843" lon="6.35601">
        <ele>31.564019</ele>
        <time>2020-07-16T16:40:16.942Z</time>
      </trkpt>
      <trkpt lat="62.44846" lon="6.35597">
        <ele>31.703202</ele>
        <time>2020-07-16T16:40:18.292Z</time>
      </trkpt>
      <trkpt lat="62.44848" lon="6.35594">
        <ele>31.822457</ele>
        <time>2020-07-16T16:40:19.711Z</time>
      </trkpt>
      <trkpt lat="62.44875" lon="6.35567">
        <ele>33.050377</ele>
        <time>2020-07-16T16:40:28.076Z</time>
      </trkpt>
      <trkpt lat="62.44893" lon="6.35551">
        <ele>33.856446</ele>
        <time>2020-07-16T16:40:35.514Z</time>
      </trkpt>
      <trkpt lat="62.44911" lon="6.35536">
        <ele>34.671093</ele>
        <time>2020-07-16T16:40:41.470Z</time>
      </trkpt>
      <trkpt lat="62.44933" lon="6.35518">
        <ele>35.62787</ele>
        <time>2020-07-16T16:40:49.160Z</time>
      </trkpt>
      <trkpt lat="62.44935" lon="6.35517">
        <ele>35.702702</ele>
        <time>2020-07-16T16:40:49.859Z</time>
      </trkpt>
      <trkpt lat="62.4494" lon="6.35513">
        <ele>35.912975</ele>
        <time>2020-07-16T16:40:51.289Z</time>
      </trkpt>
      <trkpt lat="62.44943" lon="6.3551">
        <ele>36.073092</ele>
        <time>2020-07-16T16:40:52.571Z</time>
      </trkpt>
      <trkpt lat="62.44947" lon="6.35507">
        <ele>36.230473</ele>
        <time>2020-07-16T16:40:54.308Z</time>
      </trkpt>
      <trkpt lat="62.44968" lon="6.35491">
        <ele>37.149603</ele>
        <time>2020-07-16T16:41:01.259Z</time>
      </trkpt>
      <trkpt lat="62.4498" lon="6.35482">
        <ele>37.67987</ele>
        <time>2020-07-16T16:41:05.234Z</time>
      </trkpt>
      <trkpt lat="62.45014" lon="6.35458">
        <ele>39.131607</ele>
        <time>2020-07-16T16:41:15.696Z</time>
      </trkpt>
      <trkpt lat="62.45022" lon="6.35449">
        <ele>39.535783</ele>
        <time>2020-07-16T16:41:18.504Z</time>
      </trkpt>
      <trkpt lat="62.45027" lon="6.35444">
        <ele>39.733635</ele>
        <time>2020-07-16T16:41:20.270Z</time>
      </trkpt>
      <trkpt lat="62.45062" lon="6.3543">
        <ele>40.705938</ele>
        <time>2020-07-16T16:41:30.109Z</time>
      </trkpt>
      <trkpt lat="62.45101" lon="6.3544">
        <ele>41.68249</ele>
        <time>2020-07-16T16:41:40.438Z</time>
      </trkpt>
      <trkpt lat="62.45169" lon="6.35495">
        <ele>43.51734</ele>
        <time>2020-07-16T16:41:59.096Z</time>
      </trkpt>
      <trkpt lat="62.45228" lon="6.35565">
        <ele>44.864971</ele>
        <time>2020-07-16T16:42:14.785Z</time>
      </trkpt>
      <trkpt lat="62.45265" lon="6.35611">
        <ele>45.46042</ele>
        <time>2020-07-16T16:42:24.423Z</time>
      </trkpt>
      <trkpt lat="62.45288" lon="6.35639">
        <ele>45.837124</ele>
        <time>2020-07-16T16:42:30.554Z</time>
      </trkpt>
      <trkpt lat="62.45408" lon="6.35794">
        <ele>46.714137</ele>
        <time>2020-07-16T16:43:00.375Z</time>
      </trkpt>
      <trkpt lat="62.4551" lon="6.35972">
        <ele>45.830106</ele>
        <time>2020-07-16T16:43:20.820Z</time>
      </trkpt>
      <trkpt lat="62.45527" lon="6.3601">
        <ele>44.950434</ele>
        <time>2020-07-16T16:43:24.178Z</time>
      </trkpt>
      <trkpt lat="62.45542" lon="6.36045">
        <ele>44.146173</ele>
        <time>2020-07-16T16:43:27.148Z</time>
      </trkpt>
      <trkpt lat="62.45589" lon="6.3616">
        <ele>41.572798</ele>
        <time>2020-07-16T16:43:36.343Z</time>
      </trkpt>
      <trkpt lat="62.45625" lon="6.36221">
        <ele>39.942319</ele>
        <time>2020-07-16T16:43:41.720Z</time>
      </trkpt>
      <trkpt lat="62.45662" lon="6.36261">
        <ele>37.828989</ele>
        <time>2020-07-16T16:43:46.594Z</time>
      </trkpt>
      <trkpt lat="62.45734" lon="6.36314">
        <ele>33.747031</ele>
        <time>2020-07-16T16:43:55.602Z</time>
      </trkpt>
      <trkpt lat="62.45736" lon="6.3632">
        <ele>33.536282</ele>
        <time>2020-07-16T16:43:56.007Z</time>
      </trkpt>
      <trkpt lat="62.45754" lon="6.3633">
        <ele>32.545343</ele>
        <time>2020-07-16T16:43:58.288Z</time>
      </trkpt>
      <trkpt lat="62.45804" lon="6.36335">
        <ele>29.968517</ele>
        <time>2020-07-16T16:44:04.435Z</time>
      </trkpt>
      <trkpt lat="62.4581" lon="6.36336">
        <ele>29.760828</ele>
        <time>2020-07-16T16:44:05.179Z</time>
      </trkpt>
      <trkpt lat="62.45838" lon="6.36343">
        <ele>28.933651</ele>
        <time>2020-07-16T16:44:08.931Z</time>
      </trkpt>
      <trkpt lat="62.45894" lon="6.36336">
        <ele>27.257761</ele>
        <time>2020-07-16T16:44:15.879Z</time>
      </trkpt>
      <trkpt lat="62.45899" lon="6.3633">
        <ele>27.084239</ele>
        <time>2020-07-16T16:44:16.721Z</time>
      </trkpt>
      <trkpt lat="62.45902" lon="6.36325">
        <ele>26.958458</ele>
        <time>2020-07-16T16:44:17.326Z</time>
      </trkpt>
      <trkpt lat="62.45922" lon="6.36274">
        <ele>26.035991</ele>
        <time>2020-07-16T16:44:21.711Z</time>
      </trkpt>
      <trkpt lat="62.45949" lon="6.36237">
        <ele>25.086287</ele>
        <time>2020-07-16T16:44:26.235Z</time>
      </trkpt>
      <trkpt lat="62.45971" lon="6.36227">
        <ele>24.57893</ele>
        <time>2020-07-16T16:44:29.764Z</time>
      </trkpt>
      <trkpt lat="62.45998" lon="6.36234">
        <ele>24.297455</ele>
        <time>2020-07-16T16:44:33.975Z</time>
      </trkpt>
      <trkpt lat="62.46003" lon="6.36236">
        <ele>24.23722</ele>
        <time>2020-07-16T16:44:34.815Z</time>
      </trkpt>
      <trkpt lat="62.46021" lon="6.36244">
        <ele>24.048398</ele>
        <time>2020-07-16T16:44:37.633Z</time>
      </trkpt>
      <trkpt lat="62.46034" lon="6.36249">
        <ele>23.912718</ele>
        <time>2020-07-16T16:44:39.762Z</time>
      </trkpt>
      <trkpt lat="62.46046" lon="6.36255">
        <ele>23.783009</ele>
        <time>2020-07-16T16:44:41.704Z</time>
      </trkpt>
      <trkpt lat="62.46049" lon="6.36256">
        <ele>23.75024</ele>
        <time>2020-07-16T16:44:42.126Z</time>
      </trkpt>
      <trkpt lat="62.4608" lon="6.36271">
        <ele>23.420914</ele>
        <time>2020-07-16T16:44:47.196Z</time>
      </trkpt>
      <trkpt lat="62.46149" lon="6.36329">
        <ele>22.925876</ele>
        <time>2020-07-16T16:44:59.562Z</time>
      </trkpt>
      <trkpt lat="62.46152" lon="6.36332">
        <ele>22.952909</ele>
        <time>2020-07-16T16:44:59.988Z</time>
      </trkpt>
      <trkpt lat="62.46155" lon="6.3632">
        <ele>23.009971</ele>
        <time>2020-07-16T16:45:01.500Z</time>
      </trkpt>
      <trkpt lat="62.46167" lon="6.36334">
        <ele>23.132525</ele>
        <time>2020-07-16T16:45:04.134Z</time>
      </trkpt>
      <trkpt lat="62.46192" lon="6.36357">
        <ele>23.386144</ele>
        <time>2020-07-16T16:45:09.268Z</time>
      </trkpt>
      <trkpt lat="62.46209" lon="6.36373">
        <ele>23.552495</ele>
        <time>2020-07-16T16:45:13.209Z</time>
      </trkpt>
      <trkpt lat="62.4625" lon="6.36416">
        <ele>23.969773</ele>
        <time>2020-07-16T16:45:23.443Z</time>
      </trkpt>
      <trkpt lat="62.46284" lon="6.36455">
        <ele>24.317193</ele>
        <time>2020-07-16T16:45:32.657Z</time>
      </trkpt>
      <trkpt lat="62.46327" lon="6.36507">
        <ele>25.700107</ele>
        <time>2020-07-16T16:45:45.702Z</time>
      </trkpt>
      <trkpt lat="62.46339" lon="6.36519">
        <ele>26.147215</ele>
        <time>2020-07-16T16:45:49.468Z</time>
      </trkpt>
      <trkpt lat="62.46342" lon="6.36521">
        <ele>26.262927</ele>
        <time>2020-07-16T16:45:50.554Z</time>
      </trkpt>
      <trkpt lat="62.46349" lon="6.36524">
        <ele>26.521361</ele>
        <time>2020-07-16T16:45:52.753Z</time>
      </trkpt>
      <trkpt lat="62.46355" lon="6.36524">
        <ele>26.72985</ele>
        <time>2020-07-16T16:45:54.528Z</time>
      </trkpt>
      <trkpt lat="62.46356" lon="6.36534">
        <ele>26.887521</ele>
        <time>2020-07-16T16:45:55.966Z</time>
      </trkpt>
      <trkpt lat="62.46356" lon="6.36545">
        <ele>27.062612</ele>
        <time>2020-07-16T16:45:57.426Z</time>
      </trkpt>
      <trkpt lat="62.46356" lon="6.36554">
        <ele>27.207529</ele>
        <time>2020-07-16T16:45:58.764Z</time>
      </trkpt>
      <trkpt lat="62.46363" lon="6.36565">
        <ele>27.498763</ele>
        <time>2020-07-16T16:46:01.455Z</time>
      </trkpt>
      <trkpt lat="62.46365" lon="6.3657">
        <ele>27.617046</ele>
        <time>2020-07-16T16:46:02.483Z</time>
      </trkpt>
      <trkpt lat="62.46368" lon="6.36574">
        <ele>27.717925</ele>
        <time>2020-07-16T16:46:03.450Z</time>
      </trkpt>
      <trkpt lat="62.46383" lon="6.36606">
        <ele>28.473477</ele>
        <time>2020-07-16T16:46:10.020Z</time>
      </trkpt>
      <trkpt lat="62.46386" lon="6.36622">
        <ele>28.747794</ele>
        <time>2020-07-16T16:46:12.619Z</time>
      </trkpt>
      <trkpt lat="62.46391" lon="6.3662">
        <ele>28.906769</ele>
        <time>2020-07-16T16:46:14.040Z</time>
      </trkpt>
      <trkpt lat="62.46422" lon="6.36605">
        <ele>29.99838</ele>
        <time>2020-07-16T16:46:23.955Z</time>
      </trkpt>
      <trkpt lat="62.46433" lon="6.36596">
        <ele>30.421632</ele>
        <time>2020-07-16T16:46:27.560Z</time>
      </trkpt>
      <trkpt lat="62.46436" lon="6.36591">
        <ele>30.565364</ele>
        <time>2020-07-16T16:46:29.084Z</time>
      </trkpt>
      <trkpt lat="62.46443" lon="6.36584">
        <ele>30.818049</ele>
        <time>2020-07-16T16:46:31.418Z</time>
      </trkpt>
      <trkpt lat="62.46447" lon="6.36579">
        <ele>30.97813</ele>
        <time>2020-07-16T16:46:33.042Z</time>
      </trkpt>
      <trkpt lat="62.46449" lon="6.36576">
        <ele>31.058119</ele>
        <time>2020-07-16T16:46:33.776Z</time>
      </trkpt>
      <trkpt lat="62.46453" lon="6.36572">
        <ele>31.197558</ele>
        <time>2020-07-16T16:46:35.157Z</time>
      </trkpt>
      <trkpt lat="62.46459" lon="6.36566">
        <ele>31.406701</ele>
        <time>2020-07-16T16:46:37.143Z</time>
      </trkpt>
      <trkpt lat="62.46466" lon="6.36556">
        <ele>31.70771</ele>
        <time>2020-07-16T16:46:39.899Z</time>
      </trkpt>
      <trkpt lat="62.46471" lon="6.3655">
        <ele>31.878856</ele>
        <time>2020-07-16T16:46:41.595Z</time>
      </trkpt>
      <trkpt lat="62.46473" lon="6.36546">
        <ele>31.982624</ele>
        <time>2020-07-16T16:46:42.575Z</time>
      </trkpt>
      <trkpt lat="62.465" lon="6.36512">
        <ele>33.017605</ele>
        <time>2020-07-16T16:46:52.119Z</time>
      </trkpt>
      <trkpt lat="62.4651" lon="6.365">
        <ele>33.400024</ele>
        <time>2020-07-16T16:46:55.560Z</time>
      </trkpt>
      <trkpt lat="62.46539" lon="6.36484">
        <ele>34.401071</ele>
        <time>2020-07-16T16:47:04.463Z</time>
      </trkpt>
      <trkpt lat="62.46541" lon="6.36482">
        <ele>34.466011</ele>
        <time>2020-07-16T16:47:05.145Z</time>
      </trkpt>
      <trkpt lat="62.46557" lon="6.36469">
        <ele>35.038944</ele>
        <time>2020-07-16T16:47:09.676Z</time>
      </trkpt>
      <trkpt lat="62.46568" lon="6.36474">
        <ele>35.409245</ele>
        <time>2020-07-16T16:47:12.917Z</time>
      </trkpt>
      <trkpt lat="62.46572" lon="6.36479">
        <ele>35.564603</ele>
        <time>2020-07-16T16:47:14.296Z</time>
      </trkpt>
      <trkpt lat="62.46588" lon="6.36503">
        <ele>36.219991</ele>
        <time>2020-07-16T16:47:19.539Z</time>
      </trkpt>
      <trkpt lat="62.46597" lon="6.36505">
        <ele>36.519285</ele>
        <time>2020-07-16T16:47:21.875Z</time>
      </trkpt>
      <trkpt lat="62.46603" lon="6.36504">
        <ele>36.714001</ele>
        <time>2020-07-16T16:47:23.622Z</time>
      </trkpt>
      <trkpt lat="62.46622" lon="6.36496">
        <ele>37.15027</ele>
        <time>2020-07-16T16:47:28.588Z</time>
      </trkpt>
      <trkpt lat="62.4663" lon="6.36493">
        <ele>37.323656</ele>
        <time>2020-07-16T16:47:30.553Z</time>
      </trkpt>
      <trkpt lat="62.46639" lon="6.36496">
        <ele>37.53475</ele>
        <time>2020-07-16T16:47:32.975Z</time>
      </trkpt>
      <trkpt lat="62.46652" lon="6.36486">
        <ele>37.842649</ele>
        <time>2020-07-16T16:47:36.307Z</time>
      </trkpt>
      <trkpt lat="62.46684" lon="6.36467">
        <ele>38.594219</ele>
        <time>2020-07-16T16:47:44.411Z</time>
      </trkpt>
      <trkpt lat="62.4672" lon="6.36447">
        <ele>39.431188</ele>
        <time>2020-07-16T16:47:53.393Z</time>
      </trkpt>
      <trkpt lat="62.46748" lon="6.36433">
        <ele>40.086994</ele>
        <time>2020-07-16T16:48:00.744Z</time>
      </trkpt>
      <trkpt lat="62.46756" lon="6.36428">
        <ele>40.272427</ele>
        <time>2020-07-16T16:48:02.785Z</time>
      </trkpt>
      <trkpt lat="62.46764" lon="6.36496">
        <ele>41.177485</ele>
        <time>2020-07-16T16:48:11.061Z</time>
      </trkpt>
      <trkpt lat="62.46774" lon="6.36573">
        <ele>42.559528</ele>
        <time>2020-07-16T16:48:21.917Z</time>
      </trkpt>
      <trkpt lat="62.46785" lon="6.36586">
        <ele>43.049218</ele>
        <time>2020-07-16T16:48:25.720Z</time>
      </trkpt>
      <trkpt lat="62.4679" lon="6.36583">
        <ele>43.234582</ele>
        <time>2020-07-16T16:48:27.303Z</time>
      </trkpt>
      <trkpt lat="62.46797" lon="6.36578">
        <ele>43.500676</ele>
        <time>2020-07-16T16:48:29.728Z</time>
      </trkpt>
      <trkpt lat="62.46827" lon="6.36594">
        <ele>44.655444</ele>
        <time>2020-07-16T16:48:39.648Z</time>
      </trkpt>
      <trkpt lat="62.4687" lon="6.36605">
        <ele>46.274698</ele>
        <time>2020-07-16T16:48:53.501Z</time>
      </trkpt>
      <trkpt lat="62.46882" lon="6.36606">
        <ele>46.751565</ele>
        <time>2020-07-16T16:48:57.627Z</time>
      </trkpt>
      <trkpt lat="62.46893" lon="6.36605">
        <ele>47.149995</ele>
        <time>2020-07-16T16:49:00.431Z</time>
      </trkpt>
      <trkpt lat="62.46908" lon="6.36602">
        <ele>47.585162</ele>
        <time>2020-07-16T16:49:05.527Z</time>
      </trkpt>
      <trkpt lat="62.46928" lon="6.36594">
        <ele>47.85272</ele>
        <time>2020-07-16T16:49:10.815Z</time>
      </trkpt>
      <trkpt lat="62.46948" lon="6.36583">
        <ele>48.134742</ele>
        <time>2020-07-16T16:49:17.309Z</time>
      </trkpt>
      <trkpt lat="62.46992" lon="6.36558">
        <ele>48.733505</ele>
        <time>2020-07-16T16:49:28.092Z</time>
      </trkpt>
      <trkpt lat="62.47006" lon="6.36551">
        <ele>48.930596</ele>
        <time>2020-07-16T16:49:31.502Z</time>
      </trkpt>
      <trkpt lat="62.47018" lon="6.36543">
        <ele>49.093361</ele>
        <time>2020-07-16T16:49:34.356Z</time>
      </trkpt>
      <trkpt lat="62.47054" lon="6.3652">
        <ele>49.606423</ele>
        <time>2020-07-16T16:49:41.286Z</time>
      </trkpt>
      <trkpt lat="62.47075" lon="6.36504">
        <ele>49.907003</ele>
        <time>2020-07-16T16:49:44.473Z</time>
      </trkpt>
      <trkpt lat="62.47117" lon="6.36481">
        <ele>48.578463</ele>
        <time>2020-07-16T16:49:50.361Z</time>
      </trkpt>
      <trkpt lat="62.47123" lon="6.36478">
        <ele>48.396786</ele>
        <time>2020-07-16T16:49:51.094Z</time>
      </trkpt>
      <trkpt lat="62.47127" lon="6.36482">
        <ele>48.236049</ele>
        <time>2020-07-16T16:49:51.779Z</time>
      </trkpt>
      <trkpt lat="62.47144" lon="6.36486">
        <ele>47.715421</ele>
        <time>2020-07-16T16:49:53.957Z</time>
      </trkpt>
      <trkpt lat="62.47149" lon="6.36491">
        <ele>47.519315</ele>
        <time>2020-07-16T16:49:54.804Z</time>
      </trkpt>
      <trkpt lat="62.47153" lon="6.36494">
        <ele>47.400919</ele>
        <time>2020-07-16T16:49:55.282Z</time>
      </trkpt>
      <trkpt lat="62.47163" lon="6.36488">
        <ele>47.058334</ele>
        <time>2020-07-16T16:49:56.617Z</time>
      </trkpt>
      <trkpt lat="62.47164" lon="6.36485">
        <ele>47.000071</ele>
        <time>2020-07-16T16:49:56.835Z</time>
      </trkpt>
      <trkpt lat="62.4717" lon="6.36481">
        <ele>46.81966</ele>
        <time>2020-07-16T16:49:57.531Z</time>
      </trkpt>
      <trkpt lat="62.47181" lon="6.36482">
        <ele>46.475069</ele>
        <time>2020-07-16T16:49:58.994Z</time>
      </trkpt>
      <trkpt lat="62.47185" lon="6.36479">
        <ele>46.319011</ele>
        <time>2020-07-16T16:49:59.638Z</time>
      </trkpt>
      <trkpt lat="62.47193" lon="6.36484">
        <ele>46.070329</ele>
        <time>2020-07-16T16:50:00.609Z</time>
      </trkpt>
      <trkpt lat="62.47196" lon="6.36466">
        <ele>45.78833</ele>
        <time>2020-07-16T16:50:01.756Z</time>
      </trkpt>
      <trkpt lat="62.47206" lon="6.36473">
        <ele>45.464191</ele>
        <time>2020-07-16T16:50:03.125Z</time>
      </trkpt>
      <trkpt lat="62.4725" lon="6.36515">
        <ele>43.760867</ele>
        <time>2020-07-16T16:50:09.640Z</time>
      </trkpt>
      <trkpt lat="62.47281" lon="6.36562">
        <ele>41.824979</ele>
        <time>2020-07-16T16:50:14.769Z</time>
      </trkpt>
      <trkpt lat="62.47284" lon="6.36567">
        <ele>41.643481</ele>
        <time>2020-07-16T16:50:15.218Z</time>
      </trkpt>
      <trkpt lat="62.47292" lon="6.36584">
        <ele>41.048579</ele>
        <time>2020-07-16T16:50:16.617Z</time>
      </trkpt>
      <trkpt lat="62.47361" lon="6.3676">
        <ele>35.602963</ele>
        <time>2020-07-16T16:50:29.832Z</time>
      </trkpt>
      <trkpt lat="62.47377" lon="6.36786">
        <ele>34.933213</ele>
        <time>2020-07-16T16:50:32.339Z</time>
      </trkpt>
      <trkpt lat="62.47389" lon="6.36792">
        <ele>34.785387</ele>
        <time>2020-07-16T16:50:33.955Z</time>
      </trkpt>
      <trkpt lat="62.47393" lon="6.36791">
        <ele>34.733857</ele>
        <time>2020-07-16T16:50:34.419Z</time>
      </trkpt>
      <trkpt lat="62.47399" lon="6.36789">
        <ele>34.658685</ele>
        <time>2020-07-16T16:50:35.102Z</time>
      </trkpt>
      <trkpt lat="62.47423" lon="6.36795">
        <ele>34.368561</ele>
        <time>2020-07-16T16:50:38.968Z</time>
      </trkpt>
      <trkpt lat="62.47433" lon="6.36799">
        <ele>34.234406</ele>
        <time>2020-07-16T16:50:40.250Z</time>
      </trkpt>
      <trkpt lat="62.47447" lon="6.36819">
        <ele>34.039626</ele>
        <time>2020-07-16T16:50:42.869Z</time>
      </trkpt>
      <trkpt lat="62.47469" lon="6.36885">
        <ele>33.571053</ele>
        <time>2020-07-16T16:50:50.269Z</time>
      </trkpt>
      <trkpt lat="62.47485" lon="6.3694">
        <ele>33.203338</ele>
        <time>2020-07-16T16:50:56.196Z</time>
      </trkpt>
      <trkpt lat="62.47498" lon="6.36978">
        <ele>32.941748</ele>
        <time>2020-07-16T16:51:01.249Z</time>
      </trkpt>
      <trkpt lat="62.47501" lon="6.36989">
        <ele>32.86693</ele>
        <time>2020-07-16T16:51:02.227Z</time>
      </trkpt>
      <trkpt lat="62.47502" lon="6.36995">
        <ele>32.861552</ele>
        <time>2020-07-16T16:51:03.232Z</time>
      </trkpt>
      <trkpt lat="62.47508" lon="6.37034">
        <ele>33.474305</ele>
        <time>2020-07-16T16:51:09.713Z</time>
      </trkpt>
      <trkpt lat="62.4751" lon="6.37046">
        <ele>33.662841</ele>
        <time>2020-07-16T16:51:11.052Z</time>
      </trkpt>
      <trkpt lat="62.47511" lon="6.37055">
        <ele>33.800287</ele>
        <time>2020-07-16T16:51:12.377Z</time>
      </trkpt>
      <trkpt lat="62.4751" lon="6.37082">
        <ele>34.212703</ele>
        <time>2020-07-16T16:51:16.306Z</time>
      </trkpt>
      <trkpt lat="62.4751" lon="6.37098">
        <ele>34.450978</ele>
        <time>2020-07-16T16:51:19.324Z</time>
      </trkpt>
      <trkpt lat="62.47506" lon="6.37178">
        <ele>35.646124</ele>
        <time>2020-07-16T16:51:33.258Z</time>
      </trkpt>
      <trkpt lat="62.47514" lon="6.37258">
        <ele>36.880071</ele>
        <time>2020-07-16T16:51:47.789Z</time>
      </trkpt>
      <trkpt lat="62.47578" lon="6.37601">
        <ele>35.776377</ele>
        <time>2020-07-16T16:52:21.232Z</time>
      </trkpt>
      <trkpt lat="62.47595" lon="6.37652">
        <ele>35.055444</ele>
        <time>2020-07-16T16:52:24.746Z</time>
      </trkpt>
      <trkpt lat="62.47618" lon="6.37693">
        <ele>34.31767</ele>
        <time>2020-07-16T16:52:28.341Z</time>
      </trkpt>
      <trkpt lat="62.47625" lon="6.37702">
        <ele>33.967224</ele>
        <time>2020-07-16T16:52:29.305Z</time>
      </trkpt>
      <trkpt lat="62.47628" lon="6.37705">
        <ele>33.760533</ele>
        <time>2020-07-16T16:52:29.648Z</time>
      </trkpt>
      <trkpt lat="62.47644" lon="6.37717">
        <ele>32.602691</ele>
        <time>2020-07-16T16:52:31.716Z</time>
      </trkpt>
      <trkpt lat="62.47651" lon="6.37722">
        <ele>32.072045</ele>
        <time>2020-07-16T16:52:32.592Z</time>
      </trkpt>
      <trkpt lat="62.47651" lon="6.37726">
        <ele>31.935617</ele>
        <time>2020-07-16T16:52:32.813Z</time>
      </trkpt>
      <trkpt lat="62.47653" lon="6.37752">
        <ele>31.110758</ele>
        <time>2020-07-16T16:52:34.198Z</time>
      </trkpt>
      <trkpt lat="62.47659" lon="6.37762">
        <ele>30.618898</ele>
        <time>2020-07-16T16:52:35.001Z</time>
      </trkpt>
      <trkpt lat="62.47676" lon="6.37783">
        <ele>29.264384</ele>
        <time>2020-07-16T16:52:37.301Z</time>
      </trkpt>
      <trkpt lat="62.47721" lon="6.37814">
        <ele>25.999033</ele>
        <time>2020-07-16T16:52:42.909Z</time>
      </trkpt>
      <trkpt lat="62.47748" lon="6.37813">
        <ele>24.181208</ele>
        <time>2020-07-16T16:52:46.002Z</time>
      </trkpt>
      <trkpt lat="62.47771" lon="6.37792">
        <ele>22.481896</ele>
        <time>2020-07-16T16:52:49.275Z</time>
      </trkpt>
      <trkpt lat="62.47774" lon="6.37786">
        <ele>22.174971</ele>
        <time>2020-07-16T16:52:49.776Z</time>
      </trkpt>
      <trkpt lat="62.47793" lon="6.3775">
        <ele>22.371319</ele>
        <time>2020-07-16T16:52:53.817Z</time>
      </trkpt>
      <trkpt lat="62.47803" lon="6.3772">
        <ele>22.81136</ele>
        <time>2020-07-16T16:52:56.657Z</time>
      </trkpt>
      <trkpt lat="62.47805" lon="6.37714">
        <ele>22.892716</ele>
        <time>2020-07-16T16:52:57.271Z</time>
      </trkpt>
      <trkpt lat="62.47811" lon="6.3772">
        <ele>23.066251</ele>
        <time>2020-07-16T16:52:59.838Z</time>
      </trkpt>
      <trkpt lat="62.47835" lon="6.37749">
        <ele>23.760541</ele>
        <time>2020-07-16T16:53:05.480Z</time>
      </trkpt>
      <trkpt lat="62.47837" lon="6.37754">
        <ele>23.837516</ele>
        <time>2020-07-16T16:53:06.880Z</time>
      </trkpt>
      <trkpt lat="62.47843" lon="6.3775">
        <ele>24.001702</ele>
        <time>2020-07-16T16:53:09.541Z</time>
      </trkpt>
      <trkpt lat="62.47883" lon="6.37731">
        <ele>25.029456</ele>
        <time>2020-07-16T16:53:21.852Z</time>
      </trkpt>
      <trkpt lat="62.47898" lon="6.37748">
        <ele>25.460459</ele>
        <time>2020-07-16T16:53:25.900Z</time>
      </trkpt>
      <trkpt lat="62.47908" lon="6.3779">
        <ele>26.01862</ele>
        <time>2020-07-16T16:53:35.472Z</time>
      </trkpt>
      <trkpt lat="62.47908" lon="6.378">
        <ele>26.138566</ele>
        <time>2020-07-16T16:53:37.450Z</time>
      </trkpt>
      <trkpt lat="62.47912" lon="6.37811">
        <ele>26.294955</ele>
        <time>2020-07-16T16:53:39.778Z</time>
      </trkpt>
      <trkpt lat="62.47946" lon="6.37847">
        <ele>28.359191</ele>
        <time>2020-07-16T16:53:55.878Z</time>
      </trkpt>
      <trkpt lat="62.47948" lon="6.37848">
        <ele>28.468924</ele>
        <time>2020-07-16T16:53:56.891Z</time>
      </trkpt>
      <trkpt lat="62.47947" lon="6.3787">
        <ele>29.086894</ele>
        <time>2020-07-16T16:54:02.706Z</time>
      </trkpt>
      <trkpt lat="62.47947" lon="6.3794">
        <ele>31.004972</ele>
        <time>2020-07-16T16:54:14.816Z</time>
      </trkpt>
      <trkpt lat="62.47947" lon="6.37946">
        <ele>31.148802</ele>
        <time>2020-07-16T16:54:16.707Z</time>
      </trkpt>
      <trkpt lat="62.4794" lon="6.37949">
        <ele>31.591518</ele>
        <time>2020-07-16T16:54:19.298Z</time>
      </trkpt>
      <trkpt lat="62.47919" lon="6.37977">
        <ele>33.015017</ele>
        <time>2020-07-16T16:54:28.009Z</time>
      </trkpt>
      <trkpt lat="62.47917" lon="6.37985">
        <ele>33.284511</ele>
        <time>2020-07-16T16:54:30.756Z</time>
      </trkpt>
      <trkpt lat="62.47912" lon="6.38001">
        <ele>33.802581</ele>
        <time>2020-07-16T16:54:33.688Z</time>
      </trkpt>
      <trkpt lat="62.4791" lon="6.38013">
        <ele>34.156768</ele>
        <time>2020-07-16T16:54:35.717Z</time>
      </trkpt>
      <trkpt lat="62.47907" lon="6.38026">
        <ele>34.536579</ele>
        <time>2020-07-16T16:54:38.097Z</time>
      </trkpt>
      <trkpt lat="62.47962" lon="6.38075">
        <ele>37.010023</ele>
        <time>2020-07-16T16:54:57.923Z</time>
      </trkpt>
      <trkpt lat="62.47992" lon="6.38107">
        <ele>36.929103</ele>
        <time>2020-07-16T16:55:06.346Z</time>
      </trkpt>
      <trkpt lat="62.48018" lon="6.3815">
        <ele>36.847858</ele>
        <time>2020-07-16T16:55:12.696Z</time>
      </trkpt>
      <trkpt lat="62.48026" lon="6.38166">
        <ele>36.82107</ele>
        <time>2020-07-16T16:55:14.770Z</time>
      </trkpt>
      <trkpt lat="62.48033" lon="6.38184">
        <ele>36.793674</ele>
        <time>2020-07-16T16:55:16.616Z</time>
      </trkpt>
      <trkpt lat="62.4807" lon="6.38278">
        <ele>36.652599</ele>
        <time>2020-07-16T16:55:24.298Z</time>
      </trkpt>
      <trkpt lat="62.48109" lon="6.38348">
        <ele>34.791327</ele>
        <time>2020-07-16T16:55:30.568Z</time>
      </trkpt>
      <trkpt lat="62.48124" lon="6.38366">
        <ele>33.871167</ele>
        <time>2020-07-16T16:55:32.544Z</time>
      </trkpt>
      <trkpt lat="62.48148" lon="6.38392">
        <ele>32.380403</ele>
        <time>2020-07-16T16:55:35.769Z</time>
      </trkpt>
      <trkpt lat="62.48164" lon="6.38409">
        <ele>31.361434</ele>
        <time>2020-07-16T16:55:37.945Z</time>
      </trkpt>
      <trkpt lat="62.48227" lon="6.38471">
        <ele>27.55125</ele>
        <time>2020-07-16T16:55:45.887Z</time>
      </trkpt>
      <trkpt lat="62.48305" lon="6.38552">
        <ele>23.98288</ele>
        <time>2020-07-16T16:55:56.146Z</time>
      </trkpt>
      <trkpt lat="62.48324" lon="6.3857">
        <ele>23.214063</ele>
        <time>2020-07-16T16:55:58.639Z</time>
      </trkpt>
      <trkpt lat="62.48328" lon="6.38549">
        <ele>22.82412</ele>
        <time>2020-07-16T16:56:00.125Z</time>
      </trkpt>
      <trkpt lat="62.4834" lon="6.38568">
        <ele>22.276248</ele>
        <time>2020-07-16T16:56:02.007Z</time>
      </trkpt>
      <trkpt lat="62.48362" lon="6.38602">
        <ele>21.253395</ele>
        <time>2020-07-16T16:56:05.805Z</time>
      </trkpt>
      <trkpt lat="62.48379" lon="6.38654">
        <ele>20.148546</ele>
        <time>2020-07-16T16:56:10.785Z</time>
      </trkpt>
      <trkpt lat="62.48381" lon="6.38663">
        <ele>19.978659</ele>
        <time>2020-07-16T16:56:11.374Z</time>
      </trkpt>
      <trkpt lat="62.48382" lon="6.38671">
        <ele>19.916201</ele>
        <time>2020-07-16T16:56:12.032Z</time>
      </trkpt>
      <trkpt lat="62.48379" lon="6.38904">
        <ele>22.684832</ele>
        <time>2020-07-16T16:56:36.851Z</time>
      </trkpt>
      <trkpt lat="62.48379" lon="6.38928">
        <ele>22.976419</ele>
        <time>2020-07-16T16:56:40.416Z</time>
      </trkpt>
      <trkpt lat="62.48379" lon="6.3895">
        <ele>23.233533</ele>
        <time>2020-07-16T16:56:44.386Z</time>
      </trkpt>
      <trkpt lat="62.48384" lon="6.39062">
        <ele>24.628257</ele>
        <time>2020-07-16T16:57:02.933Z</time>
      </trkpt>
      <trkpt lat="62.48402" lon="6.39261">
        <ele>29.071975</ele>
        <time>2020-07-16T16:57:37.634Z</time>
      </trkpt>
      <trkpt lat="62.48403" lon="6.39279">
        <ele>29.460824</ele>
        <time>2020-07-16T16:57:41.159Z</time>
      </trkpt>
      <trkpt lat="62.48417" lon="6.39398">
        <ele>32.153602</ele>
        <time>2020-07-16T16:57:58.150Z</time>
      </trkpt>
      <trkpt lat="62.48461" lon="6.3956">
        <ele>35.328741</ele>
        <time>2020-07-16T16:58:23.023Z</time>
      </trkpt>
      <trkpt lat="62.48464" lon="6.39572">
        <ele>35.545774</ele>
        <time>2020-07-16T16:58:24.441Z</time>
      </trkpt>
      <trkpt lat="62.48467" lon="6.39582">
        <ele>35.742186</ele>
        <time>2020-07-16T16:58:25.318Z</time>
      </trkpt>
      <trkpt lat="62.4848" lon="6.39644">
        <ele>36.799796</ele>
        <time>2020-07-16T16:58:35.272Z</time>
      </trkpt>
      <trkpt lat="62.48491" lon="6.39732">
        <ele>38.209132</ele>
        <time>2020-07-16T16:58:47.092Z</time>
      </trkpt>
      <trkpt lat="62.48494" lon="6.39844">
        <ele>39.677369</ele>
        <time>2020-07-16T16:59:04.745Z</time>
      </trkpt>
      <trkpt lat="62.48492" lon="6.39881">
        <ele>40.061057</ele>
        <time>2020-07-16T16:59:08.765Z</time>
      </trkpt>
      <trkpt lat="62.48488" lon="6.39886">
        <ele>40.164894</ele>
        <time>2020-07-16T16:59:09.840Z</time>
      </trkpt>
      <trkpt lat="62.48484" lon="6.39885">
        <ele>40.245017</ele>
        <time>2020-07-16T16:59:11.745Z</time>
      </trkpt>
      <trkpt lat="62.48482" lon="6.39913">
        <ele>40.541923</ele>
        <time>2020-07-16T16:59:16.835Z</time>
      </trkpt>
      <trkpt lat="62.48461" lon="6.40165">
        <ele>43.115081</ele>
        <time>2020-07-16T16:59:47.456Z</time>
      </trkpt>
      <trkpt lat="62.48468" lon="6.4028">
        <ele>40.278151</ele>
        <time>2020-07-16T16:59:53.929Z</time>
      </trkpt>
      <trkpt lat="62.48472" lon="6.40303">
        <ele>39.65337</ele>
        <time>2020-07-16T16:59:55.884Z</time>
      </trkpt>
      <trkpt lat="62.48482" lon="6.40348">
        <ele>38.461541</ele>
        <time>2020-07-16T16:59:58.366Z</time>
      </trkpt>
      <trkpt lat="62.48499" lon="6.4041">
        <ele>36.673297</ele>
        <time>2020-07-16T17:00:02.261Z</time>
      </trkpt>
      <trkpt lat="62.48516" lon="6.40446">
        <ele>35.454113</ele>
        <time>2020-07-16T17:00:05.301Z</time>
      </trkpt>
      <trkpt lat="62.48521" lon="6.40454">
        <ele>35.10847</ele>
        <time>2020-07-16T17:00:05.977Z</time>
      </trkpt>
      <trkpt lat="62.48525" lon="6.40459">
        <ele>34.879355</ele>
        <time>2020-07-16T17:00:06.422Z</time>
      </trkpt>
      <trkpt lat="62.48549" lon="6.4048">
        <ele>33.580733</ele>
        <time>2020-07-16T17:00:09.699Z</time>
      </trkpt>
      <trkpt lat="62.48575" lon="6.40488">
        <ele>32.847902</ele>
        <time>2020-07-16T17:00:12.590Z</time>
      </trkpt>
      <trkpt lat="62.48595" lon="6.40478">
        <ele>32.26941</ele>
        <time>2020-07-16T17:00:14.834Z</time>
      </trkpt>
      <trkpt lat="62.48631" lon="6.40439">
        <ele>31.133229</ele>
        <time>2020-07-16T17:00:19.875Z</time>
      </trkpt>
      <trkpt lat="62.48658" lon="6.40431">
        <ele>30.370197</ele>
        <time>2020-07-16T17:00:23.563Z</time>
      </trkpt>
      <trkpt lat="62.48715" lon="6.40475">
        <ele>28.665806</ele>
        <time>2020-07-16T17:00:35.694Z</time>
      </trkpt>
      <trkpt lat="62.48722" lon="6.40478">
        <ele>28.857371</ele>
        <time>2020-07-16T17:00:38.263Z</time>
      </trkpt>
      <trkpt lat="62.48727" lon="6.4048">
        <ele>29.106304</ele>
        <time>2020-07-16T17:00:40.337Z</time>
      </trkpt>
      <trkpt lat="62.48821" lon="6.40492">
        <ele>33.142427</ele>
        <time>2020-07-16T17:01:09.453Z</time>
      </trkpt>
      <trkpt lat="62.4884" lon="6.40508">
        <ele>34.014581</ele>
        <time>2020-07-16T17:01:17.624Z</time>
      </trkpt>
      <trkpt lat="62.4885" lon="6.40536">
        <ele>34.713402</ele>
        <time>2020-07-16T17:01:22.960Z</time>
      </trkpt>
      <trkpt lat="62.48872" lon="6.40821">
        <ele>39.675475</ele>
        <time>2020-07-16T17:02:08.711Z</time>
      </trkpt>
      <trkpt lat="62.48857" lon="6.41034">
        <ele>42.474995</ele>
        <time>2020-07-16T17:02:33.111Z</time>
      </trkpt>
      <trkpt lat="62.48863" lon="6.41145">
        <ele>41.978975</ele>
        <time>2020-07-16T17:02:41.926Z</time>
      </trkpt>
      <trkpt lat="62.48865" lon="6.41437">
        <ele>40.689714</ele>
        <time>2020-07-16T17:03:00.973Z</time>
      </trkpt>
      <trkpt lat="62.48878" lon="6.41513">
        <ele>40.334528</ele>
        <time>2020-07-16T17:03:06.168Z</time>
      </trkpt>
      <trkpt lat="62.48911" lon="6.41651">
        <ele>39.642304</ele>
        <time>2020-07-16T17:03:17.140Z</time>
      </trkpt>
      <trkpt lat="62.48949" lon="6.4189">
        <ele>39.542563</ele>
        <time>2020-07-16T17:03:40.276Z</time>
      </trkpt>
      <trkpt lat="62.48995" lon="6.42058">
        <ele>40.020102</ele>
        <time>2020-07-16T17:03:58.180Z</time>
      </trkpt>
      <trkpt lat="62.49001" lon="6.42079">
        <ele>40.080587</ele>
        <time>2020-07-16T17:04:01.125Z</time>
      </trkpt>
      <trkpt lat="62.49006" lon="6.42094">
        <ele>40.125279</ele>
        <time>2020-07-16T17:04:02.242Z</time>
      </trkpt>
      <trkpt lat="62.49076" lon="6.42213">
        <ele>40.663577</ele>
        <time>2020-07-16T17:04:19.338Z</time>
      </trkpt>
      <trkpt lat="62.4911" lon="6.42294">
        <ele>40.967187</ele>
        <time>2020-07-16T17:04:29.720Z</time>
      </trkpt>
      <trkpt lat="62.49124" lon="6.42338">
        <ele>41.115593</ele>
        <time>2020-07-16T17:04:33.563Z</time>
      </trkpt>
      <trkpt lat="62.49127" lon="6.42352">
        <ele>41.161528</ele>
        <time>2020-07-16T17:04:35.650Z</time>
      </trkpt>
      <trkpt lat="62.49174" lon="6.42539">
        <ele>42.866879</ele>
        <time>2020-07-16T17:04:56.648Z</time>
      </trkpt>
      <trkpt lat="62.49191" lon="6.42667">
        <ele>44.020918</ele>
        <time>2020-07-16T17:05:13.114Z</time>
      </trkpt>
      <trkpt lat="62.492" lon="6.42795">
        <ele>45.578908</ele>
        <time>2020-07-16T17:05:28.449Z</time>
      </trkpt>
      <trkpt lat="62.49203" lon="6.42828">
        <ele>46.099872</ele>
        <time>2020-07-16T17:05:32.694Z</time>
      </trkpt>
      <trkpt lat="62.49207" lon="6.43141">
        <ele>50.941919</ele>
        <time>2020-07-16T17:06:16.020Z</time>
      </trkpt>
      <trkpt lat="62.49207" lon="6.43175">
        <ele>51.405239</ele>
        <time>2020-07-16T17:06:20.622Z</time>
      </trkpt>
      <trkpt lat="62.49207" lon="6.43208">
        <ele>51.86026</ele>
        <time>2020-07-16T17:06:25.109Z</time>
      </trkpt>
      <trkpt lat="62.49238" lon="6.43801">
        <ele>59.373457</ele>
        <time>2020-07-16T17:07:38.309Z</time>
      </trkpt>
      <trkpt lat="62.49255" lon="6.4398">
        <ele>60.847128</ele>
        <time>2020-07-16T17:07:58.583Z</time>
      </trkpt>
      <trkpt lat="62.49275" lon="6.44351">
        <ele>61.463148</ele>
        <time>2020-07-16T17:08:33.995Z</time>
      </trkpt>
      <trkpt lat="62.49288" lon="6.44805">
        <ele>55.477376</ele>
        <time>2020-07-16T17:09:01.790Z</time>
      </trkpt>
      <trkpt lat="62.49282" lon="6.45131">
        <ele>49.310136</ele>
        <time>2020-07-16T17:09:19.898Z</time>
      </trkpt>
      <trkpt lat="62.49284" lon="6.45197">
        <ele>48.391317</ele>
        <time>2020-07-16T17:09:23.712Z</time>
      </trkpt>
      <trkpt lat="62.49298" lon="6.45302">
        <ele>46.875646</ele>
        <time>2020-07-16T17:09:30.350Z</time>
      </trkpt>
      <trkpt lat="62.49337" lon="6.45514">
        <ele>44.269824</ele>
        <time>2020-07-16T17:09:46.716Z</time>
      </trkpt>
      <trkpt lat="62.4938" lon="6.45648">
        <ele>43.023079</ele>
        <time>2020-07-16T17:09:58.894Z</time>
      </trkpt>
      <trkpt lat="62.4942" lon="6.45739">
        <ele>42.072433</ele>
        <time>2020-07-16T17:10:06.819Z</time>
      </trkpt>
      <trkpt lat="62.49444" lon="6.45776">
        <ele>40.890759</ele>
        <time>2020-07-16T17:10:10.634Z</time>
      </trkpt>
      <trkpt lat="62.49545" lon="6.4586">
        <ele>36.078415</ele>
        <time>2020-07-16T17:10:23.770Z</time>
      </trkpt>
      <trkpt lat="62.49603" lon="6.45886">
        <ele>33.842781</ele>
        <time>2020-07-16T17:10:30.858Z</time>
      </trkpt>
      <trkpt lat="62.49655" lon="6.45878">
        <ele>33.290673</ele>
        <time>2020-07-16T17:10:37.406Z</time>
      </trkpt>
      <trkpt lat="62.49676" lon="6.45902">
        <ele>33.027878</ele>
        <time>2020-07-16T17:10:40.749Z</time>
      </trkpt>
      <trkpt lat="62.49716" lon="6.46032">
        <ele>32.257634</ele>
        <time>2020-07-16T17:10:54.209Z</time>
      </trkpt>
      <trkpt lat="62.4976" lon="6.46146">
        <ele>34.89875</ele>
        <time>2020-07-16T17:11:14.802Z</time>
      </trkpt>
      <trkpt lat="62.49793" lon="6.46271">
        <ele>38.785405</ele>
        <time>2020-07-16T17:11:40.091Z</time>
      </trkpt>
      <trkpt lat="62.49832" lon="6.46491">
        <ele>45.281809</ele>
        <time>2020-07-16T17:12:27.556Z</time>
      </trkpt>
      <trkpt lat="62.49855" lon="6.467">
        <ele>51.393553</ele>
        <time>2020-07-16T17:13:05.828Z</time>
      </trkpt>
      <trkpt lat="62.49894" lon="6.469">
        <ele>54.202958</ele>
        <time>2020-07-16T17:13:35.342Z</time>
      </trkpt>
      <trkpt lat="62.49914" lon="6.46952">
        <ele>54.483769</ele>
        <time>2020-07-16T17:13:41.690Z</time>
      </trkpt>
      <trkpt lat="62.49962" lon="6.47019">
        <ele>54.996586</ele>
        <time>2020-07-16T17:13:50.621Z</time>
      </trkpt>
      <trkpt lat="62.4998" lon="6.47055">
        <ele>55.215894</ele>
        <time>2020-07-16T17:13:54.301Z</time>
      </trkpt>
      <trkpt lat="62.50012" lon="6.47197">
        <ele>53.023018</ele>
        <time>2020-07-16T17:14:04.198Z</time>
      </trkpt>
      <trkpt lat="62.50037" lon="6.47276">
        <ele>51.597014</ele>
        <time>2020-07-16T17:14:09.865Z</time>
      </trkpt>
      <trkpt lat="62.50099" lon="6.47353">
        <ele>49.355145</ele>
        <time>2020-07-16T17:14:18.785Z</time>
      </trkpt>
      <trkpt lat="62.50107" lon="6.47362">
        <ele>49.130739</ele>
        <time>2020-07-16T17:14:19.831Z</time>
      </trkpt>
      <trkpt lat="62.5011" lon="6.47365">
        <ele>49.055625</ele>
        <time>2020-07-16T17:14:20.290Z</time>
      </trkpt>
      <trkpt lat="62.50126" lon="6.47406">
        <ele>48.478021</ele>
        <time>2020-07-16T17:14:23.729Z</time>
      </trkpt>
      <trkpt lat="62.5014" lon="6.47486">
        <ele>47.53778</ele>
        <time>2020-07-16T17:14:28.898Z</time>
      </trkpt>
      <trkpt lat="62.50147" lon="6.47723">
        <ele>45.02006</ele>
        <time>2020-07-16T17:14:45.042Z</time>
      </trkpt>
      <trkpt lat="62.50146" lon="6.47741">
        <ele>44.88081</ele>
        <time>2020-07-16T17:14:46.285Z</time>
      </trkpt>
      <trkpt lat="62.50144" lon="6.4776">
        <ele>44.737501</ele>
        <time>2020-07-16T17:14:48.821Z</time>
      </trkpt>
      <trkpt lat="62.50127" lon="6.4783">
        <ele>44.144229</ele>
        <time>2020-07-16T17:14:54.678Z</time>
      </trkpt>
      <trkpt lat="62.50098" lon="6.47909">
        <ele>43.38609</ele>
        <time>2020-07-16T17:15:01.590Z</time>
      </trkpt>
      <trkpt lat="62.50082" lon="6.47988">
        <ele>42.73154</ele>
        <time>2020-07-16T17:15:07.285Z</time>
      </trkpt>
      <trkpt lat="62.50076" lon="6.48037">
        <ele>42.344829</ele>
        <time>2020-07-16T17:15:10.834Z</time>
      </trkpt>
      <trkpt lat="62.50072" lon="6.4807">
        <ele>41.74357</ele>
        <time>2020-07-16T17:15:12.749Z</time>
      </trkpt>
      <trkpt lat="62.50051" lon="6.48252">
        <ele>37.605125</ele>
        <time>2020-07-16T17:15:23.620Z</time>
      </trkpt>
      <trkpt lat="62.50027" lon="6.48366">
        <ele>34.831877</ele>
        <time>2020-07-16T17:15:30.389Z</time>
      </trkpt>
      <trkpt lat="62.50017" lon="6.48452">
        <ele>33.032541</ele>
        <time>2020-07-16T17:15:35.209Z</time>
      </trkpt>
      <trkpt lat="62.50008" lon="6.48608">
        <ele>30.217954</ele>
        <time>2020-07-16T17:15:43.924Z</time>
      </trkpt>
      <trkpt lat="62.50011" lon="6.48766">
        <ele>27.377302</ele>
        <time>2020-07-16T17:15:53.415Z</time>
      </trkpt>
      <trkpt lat="62.50007" lon="6.48846">
        <ele>26.797063</ele>
        <time>2020-07-16T17:15:58.985Z</time>
      </trkpt>
      <trkpt lat="62.49982" lon="6.48943">
        <ele>27.063209</ele>
        <time>2020-07-16T17:16:09.996Z</time>
      </trkpt>
      <trkpt lat="62.49912" lon="6.49109">
        <ele>27.604028</ele>
        <time>2020-07-16T17:16:33.169Z</time>
      </trkpt>
      <trkpt lat="62.49909" lon="6.4912">
        <ele>27.616482</ele>
        <time>2020-07-16T17:16:35.745Z</time>
      </trkpt>
      <trkpt lat="62.499" lon="6.49154">
        <ele>27.401013</ele>
        <time>2020-07-16T17:16:38.573Z</time>
      </trkpt>
      <trkpt lat="62.49885" lon="6.49254">
        <ele>26.821358</ele>
        <time>2020-07-16T17:16:46.529Z</time>
      </trkpt>
      <trkpt lat="62.49882" lon="6.4937">
        <ele>26.183929</ele>
        <time>2020-07-16T17:16:54.726Z</time>
      </trkpt>
      <trkpt lat="62.49885" lon="6.49426">
        <ele>25.876016</ele>
        <time>2020-07-16T17:16:58.522Z</time>
      </trkpt>
      <trkpt lat="62.49891" lon="6.49519">
        <ele>25.194495</ele>
        <time>2020-07-16T17:17:04.008Z</time>
      </trkpt>
      <trkpt lat="62.49894" lon="6.49807">
        <ele>21.579417</ele>
        <time>2020-07-16T17:17:21.308Z</time>
      </trkpt>
      <trkpt lat="62.49881" lon="6.49861">
        <ele>20.816424</ele>
        <time>2020-07-16T17:17:25.500Z</time>
      </trkpt>
      <trkpt lat="62.49824" lon="6.49949">
        <ele>19.976667</ele>
        <time>2020-07-16T17:17:36.864Z</time>
      </trkpt>
      <trkpt lat="62.49801" lon="6.50014">
        <ele>19.599578</ele>
        <time>2020-07-16T17:17:42.905Z</time>
      </trkpt>
      <trkpt lat="62.49789" lon="6.50104">
        <ele>19.162662</ele>
        <time>2020-07-16T17:17:49.799Z</time>
      </trkpt>
      <trkpt lat="62.49783" lon="6.50209">
        <ele>18.601221</ele>
        <time>2020-07-16T17:17:57.275Z</time>
      </trkpt>
      <trkpt lat="62.49787" lon="6.5037">
        <ele>17.410595</ele>
        <time>2020-07-16T17:18:08.085Z</time>
      </trkpt>
      <trkpt lat="62.49797" lon="6.5042">
        <ele>17.012044</ele>
        <time>2020-07-16T17:18:11.600Z</time>
      </trkpt>
      <trkpt lat="62.49811" lon="6.50447">
        <ele>16.71682</ele>
        <time>2020-07-16T17:18:14.170Z</time>
      </trkpt>
      <trkpt lat="62.49856" lon="6.50476">
        <ele>15.96857</ele>
        <time>2020-07-16T17:18:20.755Z</time>
      </trkpt>
      <trkpt lat="62.49883" lon="6.50509">
        <ele>16.336485</ele>
        <time>2020-07-16T17:18:25.467Z</time>
      </trkpt>
      <trkpt lat="62.49925" lon="6.50682">
        <ele>17.622072</ele>
        <time>2020-07-16T17:18:43.025Z</time>
      </trkpt>
      <trkpt lat="62.49977" lon="6.50789">
        <ele>19.32881</ele>
        <time>2020-07-16T17:19:03.128Z</time>
      </trkpt>
      <trkpt lat="62.50038" lon="6.51158">
        <ele>32.842659</ele>
        <time>2020-07-16T17:20:23.472Z</time>
      </trkpt>
      <trkpt lat="62.50043" lon="6.51214">
        <ele>34.620912</ele>
        <time>2020-07-16T17:20:36.072Z</time>
      </trkpt>
      <trkpt lat="62.50049" lon="6.51273">
        <ele>36.541943</ele>
        <time>2020-07-16T17:20:49.080Z</time>
      </trkpt>
      <trkpt lat="62.50071" lon="6.51448">
        <ele>42.242991</ele>
        <time>2020-07-16T17:21:21.556Z</time>
      </trkpt>
      <trkpt lat="62.5008" lon="6.51488">
        <ele>43.61697</ele>
        <time>2020-07-16T17:21:29.837Z</time>
      </trkpt>
      <trkpt lat="62.50098" lon="6.51528">
        <ele>44.564776</ele>
        <time>2020-07-16T17:21:37.800Z</time>
      </trkpt>
      <trkpt lat="62.50152" lon="6.51597">
        <ele>45.72624</ele>
        <time>2020-07-16T17:21:51.771Z</time>
      </trkpt>
      <trkpt lat="62.50168" lon="6.5164">
        <ele>46.194255</ele>
        <time>2020-07-16T17:21:57.824Z</time>
      </trkpt>
      <trkpt lat="62.50171" lon="6.51656">
        <ele>46.342381</ele>
        <time>2020-07-16T17:21:58.927Z</time>
      </trkpt>
      <trkpt lat="62.50172" lon="6.51664">
        <ele>46.415614</ele>
        <time>2020-07-16T17:22:00.443Z</time>
      </trkpt>
      <trkpt lat="62.50167" lon="6.5183">
        <ele>47.576224</ele>
        <time>2020-07-16T17:22:16.047Z</time>
      </trkpt>
      <trkpt lat="62.50166" lon="6.51995">
        <ele>47.520618</ele>
        <time>2020-07-16T17:22:29.965Z</time>
      </trkpt>
      <trkpt lat="62.50166" lon="6.52007">
        <ele>47.516821</ele>
        <time>2020-07-16T17:22:30.939Z</time>
      </trkpt>
      <trkpt lat="62.50172" lon="6.52181">
        <ele>47.458048</ele>
        <time>2020-07-16T17:22:44.613Z</time>
      </trkpt>
      <trkpt lat="62.50159" lon="6.52304">
        <ele>47.953255</ele>
        <time>2020-07-16T17:22:53.430Z</time>
      </trkpt>
      <trkpt lat="62.50159" lon="6.52485">
        <ele>48.725628</ele>
        <time>2020-07-16T17:23:08.273Z</time>
      </trkpt>
      <trkpt lat="62.50155" lon="6.52528">
        <ele>48.911853</ele>
        <time>2020-07-16T17:23:13.784Z</time>
      </trkpt>
      <trkpt lat="62.50152" lon="6.52537">
        <ele>48.959435</ele>
        <time>2020-07-16T17:23:14.802Z</time>
      </trkpt>
      <trkpt lat="62.50141" lon="6.52557">
        <ele>49.089572</ele>
        <time>2020-07-16T17:23:20.173Z</time>
      </trkpt>
      <trkpt lat="62.50115" lon="6.52595">
        <ele>50.999382</ele>
        <time>2020-07-16T17:23:30.699Z</time>
      </trkpt>
      <trkpt lat="62.50072" lon="6.52745">
        <ele>56.274078</ele>
        <time>2020-07-16T17:24:01.090Z</time>
      </trkpt>
      <trkpt lat="62.50065" lon="6.52762">
        <ele>56.964436</ele>
        <time>2020-07-16T17:24:05.677Z</time>
      </trkpt>
      <trkpt lat="62.50057" lon="6.52778">
        <ele>57.666078</ele>
        <time>2020-07-16T17:24:10.804Z</time>
      </trkpt>
      <trkpt lat="62.50005" lon="6.52899">
        <ele>62.646794</ele>
        <time>2020-07-16T17:24:45.406Z</time>
      </trkpt>
      <trkpt lat="62.49971" lon="6.52948">
        <ele>65.391854</ele>
        <time>2020-07-16T17:25:02.809Z</time>
      </trkpt>
      <trkpt lat="62.49954" lon="6.53029">
        <ele>68.112191</ele>
        <time>2020-07-16T17:25:20.727Z</time>
      </trkpt>
      <trkpt lat="62.49951" lon="6.53049">
        <ele>68.763832</ele>
        <time>2020-07-16T17:25:24.895Z</time>
      </trkpt>
      <trkpt lat="62.49934" lon="6.53102">
        <ele>70.725244</ele>
        <time>2020-07-16T17:25:34.569Z</time>
      </trkpt>
      <trkpt lat="62.49897" lon="6.53176">
        <ele>72.773079</ele>
        <time>2020-07-16T17:25:50.843Z</time>
      </trkpt>
      <trkpt lat="62.49879" lon="6.53202">
        <ele>72.832446</ele>
        <time>2020-07-16T17:25:55.488Z</time>
      </trkpt>
      <trkpt lat="62.49864" lon="6.53221">
        <ele>72.881137</ele>
        <time>2020-07-16T17:26:00.745Z</time>
      </trkpt>
      <trkpt lat="62.49809" lon="6.53298">
        <ele>73.06681</ele>
        <time>2020-07-16T17:26:11.751Z</time>
      </trkpt>
      <trkpt lat="62.49803" lon="6.53309">
        <ele>73.087988</ele>
        <time>2020-07-16T17:26:13.702Z</time>
      </trkpt>
      <trkpt lat="62.49794" lon="6.53336">
        <ele>73.131462</ele>
        <time>2020-07-16T17:26:15.611Z</time>
      </trkpt>
      <trkpt lat="62.49749" lon="6.5345">
        <ele>71.853559</ele>
        <time>2020-07-16T17:26:24.856Z</time>
      </trkpt>
      <trkpt lat="62.49676" lon="6.53786">
        <ele>66.756565</ele>
        <time>2020-07-16T17:26:46.238Z</time>
      </trkpt>
      <trkpt lat="62.49669" lon="6.53813">
        <ele>66.795839</ele>
        <time>2020-07-16T17:26:48.440Z</time>
      </trkpt>
      <trkpt lat="62.4964" lon="6.53912">
        <ele>66.940333</ele>
        <time>2020-07-16T17:26:58.952Z</time>
      </trkpt>
      <trkpt lat="62.49618" lon="6.53973">
        <ele>67.035882</ele>
        <time>2020-07-16T17:27:06.814Z</time>
      </trkpt>
      <trkpt lat="62.4961" lon="6.53993">
        <ele>67.068677</ele>
        <time>2020-07-16T17:27:10.242Z</time>
      </trkpt>
      <trkpt lat="62.49567" lon="6.54072">
        <ele>68.108552</ele>
        <time>2020-07-16T17:27:24.564Z</time>
      </trkpt>
      <trkpt lat="62.49564" lon="6.54081">
        <ele>68.318773</ele>
        <time>2020-07-16T17:27:27.406Z</time>
      </trkpt>
      <trkpt lat="62.49557" lon="6.54105">
        <ele>68.884443</ele>
        <time>2020-07-16T17:27:31.498Z</time>
      </trkpt>
      <trkpt lat="62.49534" lon="6.54207">
        <ele>71.077234</ele>
        <time>2020-07-16T17:27:47.833Z</time>
      </trkpt>
      <trkpt lat="62.49525" lon="6.54322">
        <ele>73.339162</ele>
        <time>2020-07-16T17:28:06.116Z</time>
      </trkpt>
      <trkpt lat="62.49505" lon="6.54461">
        <ele>76.125658</ele>
        <time>2020-07-16T17:28:27.644Z</time>
      </trkpt>
      <trkpt lat="62.49501" lon="6.54608">
        <ele>78.904397</ele>
        <time>2020-07-16T17:28:49.673Z</time>
      </trkpt>
      <trkpt lat="62.49484" lon="6.54762">
        <ele>81.884641</ele>
        <time>2020-07-16T17:29:12.253Z</time>
      </trkpt>
      <trkpt lat="62.49482" lon="6.54932">
        <ele>81.89543</ele>
        <time>2020-07-16T17:29:32.249Z</time>
      </trkpt>
      <trkpt lat="62.49499" lon="6.55116">
        <ele>81.70154</ele>
        <time>2020-07-16T17:29:45.371Z</time>
      </trkpt>
      <trkpt lat="62.49517" lon="6.55222">
        <ele>79.300785</ele>
        <time>2020-07-16T17:29:51.888Z</time>
      </trkpt>
      <trkpt lat="62.49539" lon="6.55389">
        <ele>73.713641</ele>
        <time>2020-07-16T17:30:01.077Z</time>
      </trkpt>
      <trkpt lat="62.49623" lon="6.55764">
        <ele>57.455161</ele>
        <time>2020-07-16T17:30:22.285Z</time>
      </trkpt>
      <trkpt lat="62.49629" lon="6.55819">
        <ele>55.090953</ele>
        <time>2020-07-16T17:30:25.134Z</time>
      </trkpt>
      <trkpt lat="62.49631" lon="6.56007">
        <ele>48.526594</ele>
        <time>2020-07-16T17:30:34.885Z</time>
      </trkpt>
      <trkpt lat="62.49684" lon="6.56291">
        <ele>39.908213</ele>
        <time>2020-07-16T17:30:51.524Z</time>
      </trkpt>
      <trkpt lat="62.49687" lon="6.56358">
        <ele>39.211056</ele>
        <time>2020-07-16T17:30:55.431Z</time>
      </trkpt>
      <trkpt lat="62.49681" lon="6.56419">
        <ele>38.564743</ele>
        <time>2020-07-16T17:30:59.173Z</time>
      </trkpt>
      <trkpt lat="62.49679" lon="6.56456">
        <ele>38.175769</ele>
        <time>2020-07-16T17:31:01.437Z</time>
      </trkpt>
      <trkpt lat="62.49678" lon="6.56468">
        <ele>38.050397</ele>
        <time>2020-07-16T17:31:02.226Z</time>
      </trkpt>
      <trkpt lat="62.49677" lon="6.56544">
        <ele>37.258652</ele>
        <time>2020-07-16T17:31:07.492Z</time>
      </trkpt>
      <trkpt lat="62.49675" lon="6.5658">
        <ele>36.874297</ele>
        <time>2020-07-16T17:31:10.678Z</time>
      </trkpt>
      <trkpt lat="62.49673" lon="6.56622">
        <ele>36.435636</ele>
        <time>2020-07-16T17:31:13.697Z</time>
      </trkpt>
      <trkpt lat="62.49668" lon="6.56668">
        <ele>37.038413</ele>
        <time>2020-07-16T17:31:19.902Z</time>
      </trkpt>
      <trkpt lat="62.49659" lon="6.56745">
        <ele>38.643559</ele>
        <time>2020-07-16T17:31:29.825Z</time>
      </trkpt>
      <trkpt lat="62.49655" lon="6.56771">
        <ele>39.199294</ele>
        <time>2020-07-16T17:31:32.668Z</time>
      </trkpt>
      <trkpt lat="62.49648" lon="6.56805">
        <ele>39.941552</ele>
        <time>2020-07-16T17:31:39.363Z</time>
      </trkpt>
      <trkpt lat="62.49624" lon="6.56921">
        <ele>42.498039</ele>
        <time>2020-07-16T17:31:58.494Z</time>
      </trkpt>
      <trkpt lat="62.49622" lon="6.56936">
        <ele>42.797919</ele>
        <time>2020-07-16T17:32:01.832Z</time>
      </trkpt>
      <trkpt lat="62.49619" lon="6.5695">
        <ele>43.096155</ele>
        <time>2020-07-16T17:32:05.099Z</time>
      </trkpt>
      <trkpt lat="62.49615" lon="6.57061">
        <ele>45.819072</ele>
        <time>2020-07-16T17:32:24.870Z</time>
      </trkpt>
      <trkpt lat="62.49639" lon="6.57219">
        <ele>50.532826</ele>
        <time>2020-07-16T17:32:56.484Z</time>
      </trkpt>
      <trkpt lat="62.49652" lon="6.57383">
        <ele>55.215213</ele>
        <time>2020-07-16T17:33:25.284Z</time>
      </trkpt>
      <trkpt lat="62.49696" lon="6.57608">
        <ele>56.974967</ele>
        <time>2020-07-16T17:33:54.846Z</time>
      </trkpt>
      <trkpt lat="62.4976" lon="6.58141">
        <ele>55.58241</ele>
        <time>2020-07-16T17:34:32.712Z</time>
      </trkpt>
      <trkpt lat="62.49764" lon="6.58385">
        <ele>54.67747</ele>
        <time>2020-07-16T17:34:50.618Z</time>
      </trkpt>
      <trkpt lat="62.49776" lon="6.58537">
        <ele>54.019548</ele>
        <time>2020-07-16T17:35:02.435Z</time>
      </trkpt>
      <trkpt lat="62.49794" lon="6.58616">
        <ele>53.411453</ele>
        <time>2020-07-16T17:35:08.971Z</time>
      </trkpt>
      <trkpt lat="62.49895" lon="6.58931">
        <ele>49.375764</ele>
        <time>2020-07-16T17:35:34.322Z</time>
      </trkpt>
      <trkpt lat="62.49911" lon="6.59024">
        <ele>47.423666</ele>
        <time>2020-07-16T17:35:40.184Z</time>
      </trkpt>
      <trkpt lat="62.49914" lon="6.59091">
        <ele>46.110892</ele>
        <time>2020-07-16T17:35:43.821Z</time>
      </trkpt>
      <trkpt lat="62.49914" lon="6.59107">
        <ele>45.789907</ele>
        <time>2020-07-16T17:35:45.039Z</time>
      </trkpt>
      <trkpt lat="62.49913" lon="6.59118">
        <ele>45.578677</ele>
        <time>2020-07-16T17:35:45.555Z</time>
      </trkpt>
      <trkpt lat="62.49883" lon="6.59446">
        <ele>38.119325</ele>
        <time>2020-07-16T17:36:03.662Z</time>
      </trkpt>
      <trkpt lat="62.49872" lon="6.59504">
        <ele>36.66147</ele>
        <time>2020-07-16T17:36:07.180Z</time>
      </trkpt>
      <trkpt lat="62.49862" lon="6.5952">
        <ele>36.032201</ele>
        <time>2020-07-16T17:36:08.798Z</time>
      </trkpt>
      <trkpt lat="62.49843" lon="6.59526">
        <ele>35.084042</ele>
        <time>2020-07-16T17:36:11.243Z</time>
      </trkpt>
      <trkpt lat="62.4977" lon="6.59504">
        <ele>35.615864</ele>
        <time>2020-07-16T17:36:22.426Z</time>
      </trkpt>
      <trkpt lat="62.49748" lon="6.59509">
        <ele>35.865391</ele>
        <time>2020-07-16T17:36:26.834Z</time>
      </trkpt>
      <trkpt lat="62.49736" lon="6.59529">
        <ele>36.04364</ele>
        <time>2020-07-16T17:36:29.857Z</time>
      </trkpt>
      <trkpt lat="62.49703" lon="6.5964">
        <ele>36.746108</ele>
        <time>2020-07-16T17:36:48.062Z</time>
      </trkpt>
      <trkpt lat="62.4969" lon="6.5966">
        <ele>37.004409</ele>
        <time>2020-07-16T17:36:53.227Z</time>
      </trkpt>
      <trkpt lat="62.49666" lon="6.59674">
        <ele>38.005619</ele>
        <time>2020-07-16T17:37:02.119Z</time>
      </trkpt>
      <trkpt lat="62.49656" lon="6.59675">
        <ele>38.399961</ele>
        <time>2020-07-16T17:37:05.682Z</time>
      </trkpt>
      <trkpt lat="62.49647" lon="6.59673">
        <ele>38.760195</ele>
        <time>2020-07-16T17:37:09.581Z</time>
      </trkpt>
      <trkpt lat="62.49637" lon="6.59665">
        <ele>39.19665</ele>
        <time>2020-07-16T17:37:13.447Z</time>
      </trkpt>
      <trkpt lat="62.496" lon="6.59623">
        <ele>40.83804</ele>
        <time>2020-07-16T17:37:27.313Z</time>
      </trkpt>
      <trkpt lat="62.49595" lon="6.59616">
        <ele>41.079183</ele>
        <time>2020-07-16T17:37:29.181Z</time>
      </trkpt>
      <trkpt lat="62.49585" lon="6.59598">
        <ele>41.589201</ele>
        <time>2020-07-16T17:37:33.876Z</time>
      </trkpt>
      <trkpt lat="62.49544" lon="6.59518">
        <ele>43.791156</ele>
        <time>2020-07-16T17:37:47.997Z</time>
      </trkpt>
      <trkpt lat="62.49528" lon="6.59516">
        <ele>43.950132</ele>
        <time>2020-07-16T17:37:52.607Z</time>
      </trkpt>
      <trkpt lat="62.49514" lon="6.59531">
        <ele>43.78202</ele>
        <time>2020-07-16T17:37:55.507Z</time>
      </trkpt>
      <trkpt lat="62.49503" lon="6.59579">
        <ele>43.509944</ele>
        <time>2020-07-16T17:38:01.796Z</time>
      </trkpt>
      <trkpt lat="62.49444" lon="6.59974">
        <ele>41.120039</ele>
        <time>2020-07-16T17:38:27.886Z</time>
      </trkpt>
      <trkpt lat="62.49433" lon="6.60022">
        <ele>40.731329</ele>
        <time>2020-07-16T17:38:31.281Z</time>
      </trkpt>
      <trkpt lat="62.49414" lon="6.60052">
        <ele>40.36366</ele>
        <time>2020-07-16T17:38:34.636Z</time>
      </trkpt>
      <trkpt lat="62.49343" lon="6.60094">
        <ele>39.263184</ele>
        <time>2020-07-16T17:38:46.582Z</time>
      </trkpt>
      <trkpt lat="62.49306" lon="6.60135">
        <ele>39.111719</ele>
        <time>2020-07-16T17:38:54.820Z</time>
      </trkpt>
      <trkpt lat="62.49215" lon="6.60316">
        <ele>38.658329</ele>
        <time>2020-07-16T17:39:16.453Z</time>
      </trkpt>
      <trkpt lat="62.49205" lon="6.60348">
        <ele>38.390674</ele>
        <time>2020-07-16T17:39:19.082Z</time>
      </trkpt>
      <trkpt lat="62.49203" lon="6.60357">
        <ele>38.2444</ele>
        <time>2020-07-16T17:39:19.677Z</time>
      </trkpt>
      <trkpt lat="62.49202" lon="6.60371">
        <ele>38.027888</ele>
        <time>2020-07-16T17:39:20.697Z</time>
      </trkpt>
      <trkpt lat="62.49201" lon="6.60389">
        <ele>37.748104</ele>
        <time>2020-07-16T17:39:21.940Z</time>
      </trkpt>
      <trkpt lat="62.49198" lon="6.60409">
        <ele>37.43243</ele>
        <time>2020-07-16T17:39:23.317Z</time>
      </trkpt>
      <trkpt lat="62.49194" lon="6.60454">
        <ele>36.741205</ele>
        <time>2020-07-16T17:39:26.205Z</time>
      </trkpt>
      <trkpt lat="62.49205" lon="6.60454">
        <ele>36.38322</ele>
        <time>2020-07-16T17:39:27.654Z</time>
      </trkpt>
      <trkpt lat="62.49207" lon="6.60454">
        <ele>36.314256</ele>
        <time>2020-07-16T17:39:27.944Z</time>
      </trkpt>
      <trkpt lat="62.49219" lon="6.60453">
        <ele>35.943052</ele>
        <time>2020-07-16T17:39:29.388Z</time>
      </trkpt>
      <trkpt lat="62.49317" lon="6.60407">
        <ele>32.643272</ele>
        <time>2020-07-16T17:39:41.794Z</time>
      </trkpt>
      <trkpt lat="62.49345" lon="6.60405">
        <ele>31.600896</ele>
        <time>2020-07-16T17:39:45.260Z</time>
      </trkpt>
      <trkpt lat="62.494" lon="6.60431">
        <ele>29.568425</ele>
        <time>2020-07-16T17:39:52.122Z</time>
      </trkpt>
      <trkpt lat="62.4944" lon="6.60484">
        <ele>27.837398</ele>
        <time>2020-07-16T17:39:58.242Z</time>
      </trkpt>
      <trkpt lat="62.49466" lon="6.60545">
        <ele>26.434338</ele>
        <time>2020-07-16T17:40:03.389Z</time>
      </trkpt>
      <trkpt lat="62.49482" lon="6.60607">
        <ele>25.713398</ele>
        <time>2020-07-16T17:40:07.961Z</time>
      </trkpt>
      <trkpt lat="62.49543" lon="6.61">
        <ele>22.320769</ele>
        <time>2020-07-16T17:40:36.177Z</time>
      </trkpt>
      <trkpt lat="62.49568" lon="6.61098">
        <ele>21.322345</ele>
        <time>2020-07-16T17:40:43.556Z</time>
      </trkpt>
      <trkpt lat="62.49574" lon="6.61113">
        <ele>21.140875</ele>
        <time>2020-07-16T17:40:44.977Z</time>
      </trkpt>
      <trkpt lat="62.49577" lon="6.61122">
        <ele>21.033629</ele>
        <time>2020-07-16T17:40:45.584Z</time>
      </trkpt>
      <trkpt lat="62.49622" lon="6.61188">
        <ele>19.980749</ele>
        <time>2020-07-16T17:40:53.211Z</time>
      </trkpt>
      <trkpt lat="62.49719" lon="6.61268">
        <ele>19.436105</ele>
        <time>2020-07-16T17:41:08.025Z</time>
      </trkpt>
      <trkpt lat="62.49757" lon="6.61338">
        <ele>19.381612</ele>
        <time>2020-07-16T17:41:18.201Z</time>
      </trkpt>
      <trkpt lat="62.49775" lon="6.61398">
        <ele>19.345671</ele>
        <time>2020-07-16T17:41:25.869Z</time>
      </trkpt>
      <trkpt lat="62.49835" lon="6.61662">
        <ele>20.249609</ele>
        <time>2020-07-16T17:41:58.571Z</time>
      </trkpt>
      <trkpt lat="62.49945" lon="6.62053">
        <ele>17.478833</ele>
        <time>2020-07-16T17:42:30.235Z</time>
      </trkpt>
      <trkpt lat="62.49972" lon="6.62151">
        <ele>15.622278</ele>
        <time>2020-07-16T17:42:36.718Z</time>
      </trkpt>
      <trkpt lat="62.49985" lon="6.62196">
        <ele>14.382739</ele>
        <time>2020-07-16T17:42:39.588Z</time>
      </trkpt>
      <trkpt lat="62.49988" lon="6.62194">
        <ele>14.231289</ele>
        <time>2020-07-16T17:42:39.944Z</time>
      </trkpt>
      <trkpt lat="62.49992" lon="6.6219">
        <ele>13.969373</ele>
        <time>2020-07-16T17:42:40.641Z</time>
      </trkpt>
      <trkpt lat="62.49998" lon="6.62187">
        <ele>13.695323</ele>
        <time>2020-07-16T17:42:41.317Z</time>
      </trkpt>
      <trkpt lat="62.49998" lon="6.62194">
        <ele>13.527907</ele>
        <time>2020-07-16T17:42:41.667Z</time>
      </trkpt>
      <trkpt lat="62.50004" lon="6.62235">
        <ele>12.515646</ele>
        <time>2020-07-16T17:42:44.256Z</time>
      </trkpt>
      <trkpt lat="62.50027" lon="6.62301">
        <ele>10.571347</ele>
        <time>2020-07-16T17:42:48.968Z</time>
      </trkpt>
      <trkpt lat="62.5006" lon="6.6237">
        <ele>8.218145</ele>
        <time>2020-07-16T17:42:54.811Z</time>
      </trkpt>
      <trkpt lat="62.50103" lon="6.62414">
        <ele>7.510711</ele>
        <time>2020-07-16T17:43:00.876Z</time>
      </trkpt>
      <trkpt lat="62.50147" lon="6.62424">
        <ele>7.294616</ele>
        <time>2020-07-16T17:43:07.859Z</time>
      </trkpt>
      <trkpt lat="62.50165" lon="6.62421">
        <ele>7.204811</ele>
        <time>2020-07-16T17:43:11.207Z</time>
      </trkpt>
      <trkpt lat="62.50165" lon="6.62426">
        <ele>7.192271</ele>
        <time>2020-07-16T17:43:11.661Z</time>
      </trkpt>
      <trkpt lat="62.50168" lon="6.62434">
        <ele>7.171123</ele>
        <time>2020-07-16T17:43:12.462Z</time>
      </trkpt>
      <trkpt lat="62.50177" lon="6.6243">
        <ele>7.125466</ele>
        <time>2020-07-16T17:43:14.063Z</time>
      </trkpt>
      <trkpt lat="62.50188" lon="6.62423">
        <ele>7.069767</ele>
        <time>2020-07-16T17:43:16.111Z</time>
      </trkpt>
      <trkpt lat="62.50197" lon="6.62418">
        <ele>7.021147</ele>
        <time>2020-07-16T17:43:18.020Z</time>
      </trkpt>
      <trkpt lat="62.50434" lon="6.62249">
        <ele>15.671765</ele>
        <time>2020-07-16T17:44:32.398Z</time>
      </trkpt>
      <trkpt lat="62.50447" lon="6.6224">
        <ele>16.688951</ele>
        <time>2020-07-16T17:44:37.633Z</time>
      </trkpt>
      <trkpt lat="62.50449" lon="6.62238">
        <ele>16.880178</ele>
        <time>2020-07-16T17:44:38.821Z</time>
      </trkpt>
      <trkpt lat="62.50468" lon="6.62227">
        <ele>18.323737</ele>
        <time>2020-07-16T17:44:48.471Z</time>
      </trkpt>
      <trkpt lat="62.50484" lon="6.6222">
        <ele>19.505411</ele>
        <time>2020-07-16T17:44:54.874Z</time>
      </trkpt>
      <trkpt lat="62.50496" lon="6.62217">
        <ele>20.357286</ele>
        <time>2020-07-16T17:45:00.522Z</time>
      </trkpt>
      <trkpt lat="62.50512" lon="6.62214">
        <ele>21.578415</ele>
        <time>2020-07-16T17:45:08.320Z</time>
      </trkpt>
      <trkpt lat="62.50521" lon="6.62214">
        <ele>22.187501</ele>
        <time>2020-07-16T17:45:11.606Z</time>
      </trkpt>
      <trkpt lat="62.5053" lon="6.62215">
        <ele>22.870244</ele>
        <time>2020-07-16T17:45:16.192Z</time>
      </trkpt>
      <trkpt lat="62.50539" lon="6.62215">
        <ele>23.552862</ele>
        <time>2020-07-16T17:45:21.172Z</time>
      </trkpt>
      <trkpt lat="62.50586" lon="6.62235">
        <ele>27.037592</ele>
        <time>2020-07-16T17:45:43.019Z</time>
      </trkpt>
      <trkpt lat="62.50722" lon="6.62354">
        <ele>35.201885</ele>
        <time>2020-07-16T17:46:37.668Z</time>
      </trkpt>
      <trkpt lat="62.50792" lon="6.62392">
        <ele>37.893619</ele>
        <time>2020-07-16T17:46:55.950Z</time>
      </trkpt>
      <trkpt lat="62.5086" lon="6.62395">
        <ele>39.416889</ele>
        <time>2020-07-16T17:47:12.902Z</time>
      </trkpt>
      <trkpt lat="62.50905" lon="6.62378">
        <ele>40.433923</ele>
        <time>2020-07-16T17:47:23.880Z</time>
      </trkpt>
      <trkpt lat="62.50953" lon="6.62343">
        <ele>41.060253</ele>
        <time>2020-07-16T17:47:35.463Z</time>
      </trkpt>
      <trkpt lat="62.50971" lon="6.62325">
        <ele>41.093961</ele>
        <time>2020-07-16T17:47:40.295Z</time>
      </trkpt>
      <trkpt lat="62.50972" lon="6.6233">
        <ele>41.098699</ele>
        <time>2020-07-16T17:47:41.081Z</time>
      </trkpt>
      <trkpt lat="62.50975" lon="6.62346">
        <ele>41.112408</ele>
        <time>2020-07-16T17:47:42.881Z</time>
      </trkpt>
      <trkpt lat="62.50979" lon="6.62362">
        <ele>41.126432</ele>
        <time>2020-07-16T17:47:44.996Z</time>
      </trkpt>
      <trkpt lat="62.50981" lon="6.6236">
        <ele>41.129639</ele>
        <time>2020-07-16T17:47:45.964Z</time>
      </trkpt>
      <trkpt lat="62.51056" lon="6.62271">
        <ele>41.276047</ele>
        <time>2020-07-16T17:48:02.342Z</time>
      </trkpt>
      <trkpt lat="62.51063" lon="6.62228">
        <ele>41.311998</ele>
        <time>2020-07-16T17:48:05.436Z</time>
      </trkpt>
      <trkpt lat="62.51062" lon="6.62218">
        <ele>41.320472</ele>
        <time>2020-07-16T17:48:06.630Z</time>
      </trkpt>
      <trkpt lat="62.51058" lon="6.62198">
        <ele>41.184917</ele>
        <time>2020-07-16T17:48:08.014Z</time>
      </trkpt>
      <trkpt lat="62.51057" lon="6.62194">
        <ele>41.136017</ele>
        <time>2020-07-16T17:48:08.284Z</time>
      </trkpt>
      <trkpt lat="62.51056" lon="6.62183">
        <ele>41.002396</ele>
        <time>2020-07-16T17:48:09.049Z</time>
      </trkpt>
      <trkpt lat="62.51055" lon="6.62167">
        <ele>40.816712</ele>
        <time>2020-07-16T17:48:10.040Z</time>
      </trkpt>
      <trkpt lat="62.5107" lon="6.62093">
        <ele>39.893569</ele>
        <time>2020-07-16T17:48:15.256Z</time>
      </trkpt>
      <trkpt lat="62.5108" lon="6.62045">
        <ele>39.295337</ele>
        <time>2020-07-16T17:48:18.590Z</time>
      </trkpt>
      <trkpt lat="62.51108" lon="6.61901">
        <ele>37.501042</ele>
        <time>2020-07-16T17:48:28.512Z</time>
      </trkpt>
      <trkpt lat="62.51119" lon="6.61818">
        <ele>37.425494</ele>
        <time>2020-07-16T17:48:34.184Z</time>
      </trkpt>
      <trkpt lat="62.51124" lon="6.61637">
        <ele>40.824302</ele>
        <time>2020-07-16T17:48:49.358Z</time>
      </trkpt>
      <trkpt lat="62.51134" lon="6.61582">
        <ele>41.913323</ele>
        <time>2020-07-16T17:49:02.122Z</time>
      </trkpt>
      <trkpt lat="62.51151" lon="6.6153">
        <ele>43.122369</ele>
        <time>2020-07-16T17:49:17.352Z</time>
      </trkpt>
      <trkpt lat="62.51176" lon="6.6149">
        <ele>44.82431</ele>
        <time>2020-07-16T17:49:32.543Z</time>
      </trkpt>
      <trkpt lat="62.51202" lon="6.61472">
        <ele>48.258238</ele>
        <time>2020-07-16T17:49:46.697Z</time>
      </trkpt>
      <trkpt lat="62.51231" lon="6.61473">
        <ele>51.933702</ele>
        <time>2020-07-16T17:50:03.076Z</time>
      </trkpt>
      <trkpt lat="62.51245" lon="6.61481">
        <ele>53.708216</ele>
        <time>2020-07-16T17:50:12.537Z</time>
      </trkpt>
      <trkpt lat="62.51249" lon="6.61485">
        <ele>54.297244</ele>
        <time>2020-07-16T17:50:16.849Z</time>
      </trkpt>
      <trkpt lat="62.51274" lon="6.61522">
        <ele>58.067728</ele>
        <time>2020-07-16T17:50:33.705Z</time>
      </trkpt>
      <trkpt lat="62.51384" lon="6.61744">
        <ele>73.677167</ele>
        <time>2020-07-16T17:52:07.831Z</time>
      </trkpt>
      <trkpt lat="62.51419" lon="6.61821">
        <ele>77.930286</ele>
        <time>2020-07-16T17:52:27.940Z</time>
      </trkpt>
      <trkpt lat="62.51444" lon="6.61876">
        <ele>80.945593</ele>
        <time>2020-07-16T17:52:39.052Z</time>
      </trkpt>
      <trkpt lat="62.51497" lon="6.61989">
        <ele>80.65664</ele>
        <time>2020-07-16T17:52:54.883Z</time>
      </trkpt>
      <trkpt lat="62.51576" lon="6.62127">
        <ele>78.395554</ele>
        <time>2020-07-16T17:53:07.989Z</time>
      </trkpt>
      <trkpt lat="62.51655" lon="6.62229">
        <ele>76.37727</ele>
        <time>2020-07-16T17:53:19.866Z</time>
      </trkpt>
      <trkpt lat="62.51658" lon="6.62265">
        <ele>76.014208</ele>
        <time>2020-07-16T17:53:22.325Z</time>
      </trkpt>
      <trkpt lat="62.51649" lon="6.62286">
        <ele>75.734581</ele>
        <time>2020-07-16T17:53:23.968Z</time>
      </trkpt>
      <trkpt lat="62.51661" lon="6.6231">
        <ele>75.382991</ele>
        <time>2020-07-16T17:53:26.802Z</time>
      </trkpt>
      <trkpt lat="62.51829" lon="6.6273">
        <ele>74.552612</ele>
        <time>2020-07-16T17:54:18.571Z</time>
      </trkpt>
      <trkpt lat="62.51841" lon="6.62757">
        <ele>74.095551</ele>
        <time>2020-07-16T17:54:21.319Z</time>
      </trkpt>
      <trkpt lat="62.51842" lon="6.6276">
        <ele>74.05176</ele>
        <time>2020-07-16T17:54:21.580Z</time>
      </trkpt>
      <trkpt lat="62.5188" lon="6.62837">
        <ele>72.656088</ele>
        <time>2020-07-16T17:54:28.829Z</time>
      </trkpt>
      <trkpt lat="62.51889" lon="6.62853">
        <ele>72.341054</ele>
        <time>2020-07-16T17:54:30.418Z</time>
      </trkpt>
      <trkpt lat="62.51915" lon="6.62893">
        <ele>71.470737</ele>
        <time>2020-07-16T17:54:34.574Z</time>
      </trkpt>
      <trkpt lat="62.51951" lon="6.62943">
        <ele>70.314785</ele>
        <time>2020-07-16T17:54:39.859Z</time>
      </trkpt>
      <trkpt lat="62.52007" lon="6.63019">
        <ele>66.922046</ele>
        <time>2020-07-16T17:54:47.604Z</time>
      </trkpt>
      <trkpt lat="62.5206" lon="6.63092">
        <ele>63.583941</ele>
        <time>2020-07-16T17:54:54.904Z</time>
      </trkpt>
      <trkpt lat="62.52075" lon="6.63111">
        <ele>62.633505</ele>
        <time>2020-07-16T17:54:57.036Z</time>
      </trkpt>
      <trkpt lat="62.52088" lon="6.63124">
        <ele>61.876992</ele>
        <time>2020-07-16T17:54:58.740Z</time>
      </trkpt>
      <trkpt lat="62.52112" lon="6.63143">
        <ele>60.51554</ele>
        <time>2020-07-16T17:55:01.906Z</time>
      </trkpt>
      <trkpt lat="62.52116" lon="6.63146">
        <ele>60.372644</ele>
        <time>2020-07-16T17:55:02.463Z</time>
      </trkpt>
      <trkpt lat="62.52128" lon="6.63152">
        <ele>60.000562</ele>
        <time>2020-07-16T17:55:03.985Z</time>
      </trkpt>
      <trkpt lat="62.52146" lon="6.63157">
        <ele>59.428759</ele>
        <time>2020-07-16T17:55:06.326Z</time>
      </trkpt>
      <trkpt lat="62.52177" lon="6.63158">
        <ele>58.48212</ele>
        <time>2020-07-16T17:55:10.266Z</time>
      </trkpt>
      <trkpt lat="62.52213" lon="6.63145">
        <ele>57.368927</ele>
        <time>2020-07-16T17:55:14.996Z</time>
      </trkpt>
      <trkpt lat="62.52288" lon="6.63103">
        <ele>54.981803</ele>
        <time>2020-07-16T17:55:25.750Z</time>
      </trkpt>
      <trkpt lat="62.52327" lon="6.63081">
        <ele>54.333709</ele>
        <time>2020-07-16T17:55:31.707Z</time>
      </trkpt>
      <trkpt lat="62.52351" lon="6.63069">
        <ele>53.944571</ele>
        <time>2020-07-16T17:55:35.282Z</time>
      </trkpt>
      <trkpt lat="62.52361" lon="6.63064">
        <ele>53.785248</ele>
        <time>2020-07-16T17:55:36.724Z</time>
      </trkpt>
      <trkpt lat="62.52397" lon="6.6305">
        <ele>53.203414</ele>
        <time>2020-07-16T17:55:42.055Z</time>
      </trkpt>
      <trkpt lat="62.52457" lon="6.63035">
        <ele>52.234495</ele>
        <time>2020-07-16T17:55:51.011Z</time>
      </trkpt>
      <trkpt lat="62.52489" lon="6.63031">
        <ele>52.065604</ele>
        <time>2020-07-16T17:55:55.796Z</time>
      </trkpt>
      <trkpt lat="62.52522" lon="6.63031">
        <ele>51.984366</ele>
        <time>2020-07-16T17:56:00.831Z</time>
      </trkpt>
      <trkpt lat="62.52547" lon="6.63033">
        <ele>51.924061</ele>
        <time>2020-07-16T17:56:04.689Z</time>
      </trkpt>
      <trkpt lat="62.52551" lon="6.63034">
        <ele>51.912196</ele>
        <time>2020-07-16T17:56:05.378Z</time>
      </trkpt>
      <trkpt lat="62.52939" lon="6.63132">
        <ele>52.858618</ele>
        <time>2020-07-16T17:57:15.654Z</time>
      </trkpt>
      <trkpt lat="62.52997" lon="6.63123">
        <ele>53.664847</ele>
        <time>2020-07-16T17:57:32.132Z</time>
      </trkpt>
      <trkpt lat="62.53039" lon="6.63079">
        <ele>56.009729</ele>
        <time>2020-07-16T17:57:46.929Z</time>
      </trkpt>
      <trkpt lat="62.5306" lon="6.63038">
        <ele>57.533915</ele>
        <time>2020-07-16T17:57:56.722Z</time>
      </trkpt>
      <trkpt lat="62.53084" lon="6.62957">
        <ele>59.920013</ele>
        <time>2020-07-16T17:58:12.989Z</time>
      </trkpt>
      <trkpt lat="62.53107" lon="6.6277">
        <ele>64.886839</ele>
        <time>2020-07-16T17:58:47.146Z</time>
      </trkpt>
      <trkpt lat="62.53118" lon="6.62396">
        <ele>74.809096</ele>
        <time>2020-07-16T17:59:51.675Z</time>
      </trkpt>
      <trkpt lat="62.5311" lon="6.62168">
        <ele>78.172101</ele>
        <time>2020-07-16T18:00:26.881Z</time>
      </trkpt>
      <trkpt lat="62.53102" lon="6.62076">
        <ele>79.55312</ele>
        <time>2020-07-16T18:00:36.941Z</time>
      </trkpt>
      <trkpt lat="62.531" lon="6.62031">
        <ele>79.63068</ele>
        <time>2020-07-16T18:00:39.756Z</time>
      </trkpt>
      <trkpt lat="62.53107" lon="6.61888">
        <ele>76.378122</ele>
        <time>2020-07-16T18:00:48.299Z</time>
      </trkpt>
      <trkpt lat="62.53119" lon="6.61815">
        <ele>74.629952</ele>
        <time>2020-07-16T18:00:52.603Z</time>
      </trkpt>
      <trkpt lat="62.53127" lon="6.61783">
        <ele>73.827082</ele>
        <time>2020-07-16T18:00:54.576Z</time>
      </trkpt>
      <trkpt lat="62.53136" lon="6.61752">
        <ele>72.9772</ele>
        <time>2020-07-16T18:00:56.506Z</time>
      </trkpt>
      <trkpt lat="62.53173" lon="6.61651">
        <ele>69.728427</ele>
        <time>2020-07-16T18:01:03.121Z</time>
      </trkpt>
      <trkpt lat="62.53395" lon="6.61141">
        <ele>50.502111</ele>
        <time>2020-07-16T18:01:41.153Z</time>
      </trkpt>
      <trkpt lat="62.53431" lon="6.61047">
        <ele>48.798735</ele>
        <time>2020-07-16T18:01:48.814Z</time>
      </trkpt>
      <trkpt lat="62.53439" lon="6.61027">
        <ele>48.522366</ele>
        <time>2020-07-16T18:01:50.488Z</time>
      </trkpt>
      <trkpt lat="62.53457" lon="6.60975">
        <ele>47.846247</ele>
        <time>2020-07-16T18:01:54.798Z</time>
      </trkpt>
      <trkpt lat="62.53479" lon="6.60905">
        <ele>46.978708</ele>
        <time>2020-07-16T18:02:00.389Z</time>
      </trkpt>
      <trkpt lat="62.53482" lon="6.60896">
        <ele>46.858124</ele>
        <time>2020-07-16T18:02:01.170Z</time>
      </trkpt>
      <trkpt lat="62.53479" lon="6.60892">
        <ele>46.780433</ele>
        <time>2020-07-16T18:02:01.628Z</time>
      </trkpt>
      <trkpt lat="62.53471" lon="6.60876">
        <ele>46.533553</ele>
        <time>2020-07-16T18:02:03.530Z</time>
      </trkpt>
      <trkpt lat="62.53469" lon="6.6085">
        <ele>46.259475</ele>
        <time>2020-07-16T18:02:05.733Z</time>
      </trkpt>
      <trkpt lat="62.53466" lon="6.60846">
        <ele>46.170517</ele>
        <time>2020-07-16T18:02:06.300Z</time>
      </trkpt>
      <trkpt lat="62.53471" lon="6.60822">
        <ele>45.900448</ele>
        <time>2020-07-16T18:02:07.996Z</time>
      </trkpt>
      <trkpt lat="62.53487" lon="6.60708">
        <ele>44.508592</ele>
        <time>2020-07-16T18:02:16.082Z</time>
      </trkpt>
      <trkpt lat="62.5348" lon="6.60489">
        <ele>41.906919</ele>
        <time>2020-07-16T18:02:29.493Z</time>
      </trkpt>
      <trkpt lat="62.53478" lon="6.60416">
        <ele>41.02445</ele>
        <time>2020-07-16T18:02:33.987Z</time>
      </trkpt>
      <trkpt lat="62.53468" lon="6.60166">
        <ele>37.113882</ele>
        <time>2020-07-16T18:02:49.072Z</time>
      </trkpt>
      <trkpt lat="62.53462" lon="6.59967">
        <ele>34.00831</ele>
        <time>2020-07-16T18:03:00.815Z</time>
      </trkpt>
      <trkpt lat="62.53459" lon="6.59892">
        <ele>32.822848</ele>
        <time>2020-07-16T18:03:05.300Z</time>
      </trkpt>
      <trkpt lat="62.53454" lon="6.59776">
        <ele>31.001269</ele>
        <time>2020-07-16T18:03:12.255Z</time>
      </trkpt>
      <trkpt lat="62.53449" lon="6.59637">
        <ele>28.820824</ele>
        <time>2020-07-16T18:03:20.673Z</time>
      </trkpt>
      <trkpt lat="62.5344" lon="6.59421">
        <ele>25.691492</ele>
        <time>2020-07-16T18:03:33.788Z</time>
      </trkpt>
      <trkpt lat="62.53431" lon="6.59337">
        <ele>24.445967</ele>
        <time>2020-07-16T18:03:39.072Z</time>
      </trkpt>
      <trkpt lat="62.53427" lon="6.59316">
        <ele>24.1249</ele>
        <time>2020-07-16T18:03:40.382Z</time>
      </trkpt>
      <trkpt lat="62.53419" lon="6.59275">
        <ele>23.473572</ele>
        <time>2020-07-16T18:03:43.237Z</time>
      </trkpt>
      <trkpt lat="62.53413" lon="6.59245">
        <ele>23.046031</ele>
        <time>2020-07-16T18:03:45.106Z</time>
      </trkpt>
      <trkpt lat="62.53409" lon="6.59225">
        <ele>22.77981</ele>
        <time>2020-07-16T18:03:46.448Z</time>
      </trkpt>
      <trkpt lat="62.53403" lon="6.59198">
        <ele>22.41445</ele>
        <time>2020-07-16T18:03:48.415Z</time>
      </trkpt>
      <trkpt lat="62.53385" lon="6.59102">
        <ele>21.139215</ele>
        <time>2020-07-16T18:03:54.575Z</time>
      </trkpt>
      <trkpt lat="62.53369" lon="6.59028">
        <ele>20.127777</ele>
        <time>2020-07-16T18:03:59.596Z</time>
      </trkpt>
      <trkpt lat="62.53358" lon="6.58979">
        <ele>19.472799</ele>
        <time>2020-07-16T18:04:03.122Z</time>
      </trkpt>
      <trkpt lat="62.53358" lon="6.5897">
        <ele>19.356234</ele>
        <time>2020-07-16T18:04:03.657Z</time>
      </trkpt>
      <trkpt lat="62.53359" lon="6.58961">
        <ele>19.24912</ele>
        <time>2020-07-16T18:04:04.170Z</time>
      </trkpt>
      <trkpt lat="62.53376" lon="6.58919">
        <ele>18.565957</ele>
        <time>2020-07-16T18:04:07.899Z</time>
      </trkpt>
      <trkpt lat="62.53388" lon="6.589">
        <ele>18.5921</ele>
        <time>2020-07-16T18:04:09.874Z</time>
      </trkpt>
      <trkpt lat="62.53438" lon="6.58819">
        <ele>19.07247</ele>
        <time>2020-07-16T18:04:20.630Z</time>
      </trkpt>
      <trkpt lat="62.53456" lon="6.58792">
        <ele>19.242876</ele>
        <time>2020-07-16T18:04:24.872Z</time>
      </trkpt>
      <trkpt lat="62.53478" lon="6.5876">
        <ele>19.445748</ele>
        <time>2020-07-16T18:04:30.028Z</time>
      </trkpt>
      <trkpt lat="62.53506" lon="6.58716">
        <ele>19.713906</ele>
        <time>2020-07-16T18:04:38.507Z</time>
      </trkpt>
      <trkpt lat="62.53527" lon="6.5868">
        <ele>20.067531</ele>
        <time>2020-07-16T18:04:46.304Z</time>
      </trkpt>
      <trkpt lat="62.53614" lon="6.58545">
        <ele>24.501269</ele>
        <time>2020-07-16T18:05:20.578Z</time>
      </trkpt>
      <trkpt lat="62.53656" lon="6.58481">
        <ele>26.598245</ele>
        <time>2020-07-16T18:05:37.822Z</time>
      </trkpt>
      <trkpt lat="62.53659" lon="6.58489">
        <ele>26.788917</ele>
        <time>2020-07-16T18:05:39.392Z</time>
      </trkpt>
      <trkpt lat="62.53717" lon="6.58395">
        <ele>28.189452</ele>
        <time>2020-07-16T18:06:01.087Z</time>
      </trkpt>
      <trkpt lat="62.53738" lon="6.58373">
        <ele>28.522726</ele>
        <time>2020-07-16T18:06:06.874Z</time>
      </trkpt>
      <trkpt lat="62.53756" lon="6.58355">
        <ele>28.820181</ele>
        <time>2020-07-16T18:06:12.238Z</time>
      </trkpt>
      <trkpt lat="62.53765" lon="6.58346">
        <ele>28.960108</ele>
        <time>2020-07-16T18:06:14.360Z</time>
      </trkpt>
      <trkpt lat="62.53785" lon="6.58325">
        <ele>29.279824</ele>
        <time>2020-07-16T18:06:18.379Z</time>
      </trkpt>
      <trkpt lat="62.53862" lon="6.58249">
        <ele>28.846051</ele>
        <time>2020-07-16T18:06:31.554Z</time>
      </trkpt>
      <trkpt lat="62.53868" lon="6.58246">
        <ele>28.668848</ele>
        <time>2020-07-16T18:06:32.455Z</time>
      </trkpt>
      <trkpt lat="62.53867" lon="6.5824">
        <ele>28.592286</ele>
        <time>2020-07-16T18:06:32.863Z</time>
      </trkpt>
      <trkpt lat="62.53866" lon="6.58231">
        <ele>28.47151</ele>
        <time>2020-07-16T18:06:33.544Z</time>
      </trkpt>
      <trkpt lat="62.5388" lon="6.58219">
        <ele>28.050615</ele>
        <time>2020-07-16T18:06:35.549Z</time>
      </trkpt>
      <trkpt lat="62.53906" lon="6.58199">
        <ele>27.287293</ele>
        <time>2020-07-16T18:06:39.260Z</time>
      </trkpt>
      <trkpt lat="62.53907" lon="6.58198">
        <ele>27.255321</ele>
        <time>2020-07-16T18:06:39.378Z</time>
      </trkpt>
      <trkpt lat="62.54225" lon="6.57978">
        <ele>18.117828</ele>
        <time>2020-07-16T18:07:22.458Z</time>
      </trkpt>
      <trkpt lat="62.54257" lon="6.57931">
        <ele>17.715996</ele>
        <time>2020-07-16T18:07:28.897Z</time>
      </trkpt>
      <trkpt lat="62.54296" lon="6.57834">
        <ele>17.100132</ele>
        <time>2020-07-16T18:07:40.467Z</time>
      </trkpt>
      <trkpt lat="62.54313" lon="6.57807">
        <ele>17.259517</ele>
        <time>2020-07-16T18:07:44.983Z</time>
      </trkpt>
      <trkpt lat="62.54315" lon="6.57806">
        <ele>17.322805</ele>
        <time>2020-07-16T18:07:45.716Z</time>
      </trkpt>
      <trkpt lat="62.54316" lon="6.57794">
        <ele>17.484219</ele>
        <time>2020-07-16T18:07:47.340Z</time>
      </trkpt>
      <trkpt lat="62.54319" lon="6.57775">
        <ele>17.733628</ele>
        <time>2020-07-16T18:07:49.378Z</time>
      </trkpt>
      <trkpt lat="62.54345" lon="6.57712">
        <ele>18.794259</ele>
        <time>2020-07-16T18:07:59.785Z</time>
      </trkpt>
      <trkpt lat="62.54348" lon="6.57704">
        <ele>18.927106</ele>
        <time>2020-07-16T18:08:01.344Z</time>
      </trkpt>
      <trkpt lat="62.54355" lon="6.57677">
        <ele>19.325245</ele>
        <time>2020-07-16T18:08:05.401Z</time>
      </trkpt>
      <trkpt lat="62.54377" lon="6.57581">
        <ele>20.667347</ele>
        <time>2020-07-16T18:08:19.869Z</time>
      </trkpt>
      <trkpt lat="62.54401" lon="6.57461">
        <ele>22.213647</ele>
        <time>2020-07-16T18:08:38.183Z</time>
      </trkpt>
      <trkpt lat="62.54429" lon="6.57342">
        <ele>23.482366</ele>
        <time>2020-07-16T18:08:54.508Z</time>
      </trkpt>
      <trkpt lat="62.5443" lon="6.57324">
        <ele>23.653785</ele>
        <time>2020-07-16T18:08:57.246Z</time>
      </trkpt>
      <trkpt lat="62.54435" lon="6.57249">
        <ele>24.377207</ele>
        <time>2020-07-16T18:09:05.848Z</time>
      </trkpt>
      <trkpt lat="62.54439" lon="6.57152">
        <ele>25.305954</ele>
        <time>2020-07-16T18:09:15.937Z</time>
      </trkpt>
      <trkpt lat="62.54443" lon="6.57082">
        <ele>25.533188</ele>
        <time>2020-07-16T18:09:22.751Z</time>
      </trkpt>
      <trkpt lat="62.54447" lon="6.57019">
        <ele>25.384706</ele>
        <time>2020-07-16T18:09:28.410Z</time>
      </trkpt>
      <trkpt lat="62.54447" lon="6.57004">
        <ele>25.350602</ele>
        <time>2020-07-16T18:09:29.709Z</time>
      </trkpt>
      <trkpt lat="62.54447" lon="6.56981">
        <ele>25.295959</ele>
        <time>2020-07-16T18:09:31.440Z</time>
      </trkpt>
      <trkpt lat="62.54445" lon="6.56797">
        <ele>24.866906</ele>
        <time>2020-07-16T18:09:45.378Z</time>
      </trkpt>
      <trkpt lat="62.54443" lon="6.56687">
        <ele>24.431697</ele>
        <time>2020-07-16T18:09:53.355Z</time>
      </trkpt>
      <trkpt lat="62.54438" lon="6.56059">
        <ele>20.28237</ele>
        <time>2020-07-16T18:10:38.269Z</time>
      </trkpt>
      <trkpt lat="62.54413" lon="6.55686">
        <ele>18.175312</ele>
        <time>2020-07-16T18:11:05.078Z</time>
      </trkpt>
      <trkpt lat="62.54413" lon="6.55658">
        <ele>18.032884</ele>
        <time>2020-07-16T18:11:07.077Z</time>
      </trkpt>
      <trkpt lat="62.54408" lon="6.55534">
        <ele>17.654258</ele>
        <time>2020-07-16T18:11:17.151Z</time>
      </trkpt>
      <trkpt lat="62.54406" lon="6.55437">
        <ele>17.975411</ele>
        <time>2020-07-16T18:11:26.220Z</time>
      </trkpt>
      <trkpt lat="62.54404" lon="6.55395">
        <ele>18.115731</ele>
        <time>2020-07-16T18:11:29.945Z</time>
      </trkpt>
      <trkpt lat="62.54403" lon="6.55362">
        <ele>18.226604</ele>
        <time>2020-07-16T18:11:33.453Z</time>
      </trkpt>
      <trkpt lat="62.54395" lon="6.55295">
        <ele>18.457093</ele>
        <time>2020-07-16T18:11:40.253Z</time>
      </trkpt>
      <trkpt lat="62.54397" lon="6.55278">
        <ele>18.515612</ele>
        <time>2020-07-16T18:11:42.084Z</time>
      </trkpt>
      <trkpt lat="62.54404" lon="6.55269">
        <ele>18.568943</ele>
        <time>2020-07-16T18:11:43.485Z</time>
      </trkpt>
      <trkpt lat="62.54412" lon="6.55265">
        <ele>18.633291</ele>
        <time>2020-07-16T18:11:45.607Z</time>
      </trkpt>
      <trkpt lat="62.54416" lon="6.55245">
        <ele>18.705155</ele>
        <time>2020-07-16T18:11:48.486Z</time>
      </trkpt>
      <trkpt lat="62.54421" lon="6.55236">
        <ele>18.748179</ele>
        <time>2020-07-16T18:11:50.347Z</time>
      </trkpt>
      <trkpt lat="62.54417" lon="6.55078">
        <ele>19.467996</ele>
        <time>2020-07-16T18:12:07.506Z</time>
      </trkpt>
      <trkpt lat="62.54412" lon="6.55022">
        <ele>19.746664</ele>
        <time>2020-07-16T18:12:13.899Z</time>
      </trkpt>
      <trkpt lat="62.54411" lon="6.5484">
        <ele>20.626496</ele>
        <time>2020-07-16T18:12:31.855Z</time>
      </trkpt>
      <trkpt lat="62.54406" lon="6.54699">
        <ele>20.418413</ele>
        <time>2020-07-16T18:12:43.893Z</time>
      </trkpt>
      <trkpt lat="62.54403" lon="6.54635">
        <ele>20.241445</ele>
        <time>2020-07-16T18:12:49.025Z</time>
      </trkpt>
      <trkpt lat="62.54386" lon="6.54412">
        <ele>19.536228</ele>
        <time>2020-07-16T18:13:05.938Z</time>
      </trkpt>
      <trkpt lat="62.54359" lon="6.54021">
        <ele>16.68103</ele>
        <time>2020-07-16T18:13:33.530Z</time>
      </trkpt>
      <trkpt lat="62.54335" lon="6.53692">
        <ele>14.556797</ele>
        <time>2020-07-16T18:13:57.355Z</time>
      </trkpt>
      <trkpt lat="62.54333" lon="6.53617">
        <ele>14.305318</ele>
        <time>2020-07-16T18:14:03.084Z</time>
      </trkpt>
      <trkpt lat="62.54335" lon="6.5361">
        <ele>14.298319</ele>
        <time>2020-07-16T18:14:03.665Z</time>
      </trkpt>
      <trkpt lat="62.54337" lon="6.53599">
        <ele>14.287585</ele>
        <time>2020-07-16T18:14:04.540Z</time>
      </trkpt>
      <trkpt lat="62.54332" lon="6.53485">
        <ele>14.188968</ele>
        <time>2020-07-16T18:14:13.701Z</time>
      </trkpt>
      <trkpt lat="62.54326" lon="6.53421">
        <ele>14.133392</ele>
        <time>2020-07-16T18:14:18.836Z</time>
      </trkpt>
      <trkpt lat="62.54325" lon="6.53396">
        <ele>14.1121</ele>
        <time>2020-07-16T18:14:21.228Z</time>
      </trkpt>
      <trkpt lat="62.54359" lon="6.52532">
        <ele>17.112547</ele>
        <time>2020-07-16T18:15:44.851Z</time>
      </trkpt>
      <trkpt lat="62.54359" lon="6.52301">
        <ele>20.967268</ele>
        <time>2020-07-16T18:16:15.476Z</time>
      </trkpt>
      <trkpt lat="62.54358" lon="6.5228">
        <ele>21.366909</ele>
        <time>2020-07-16T18:16:18.689Z</time>
      </trkpt>
      <trkpt lat="62.54356" lon="6.52228">
        <ele>22.343891</ele>
        <time>2020-07-16T18:16:26.568Z</time>
      </trkpt>
      <trkpt lat="62.54354" lon="6.52177">
        <ele>23.298681</ele>
        <time>2020-07-16T18:16:34.562Z</time>
      </trkpt>
      <trkpt lat="62.54347" lon="6.52022">
        <ele>26.992678</ele>
        <time>2020-07-16T18:17:02.090Z</time>
      </trkpt>
      <trkpt lat="62.54338" lon="6.51832">
        <ele>32.258737</ele>
        <time>2020-07-16T18:17:36.561Z</time>
      </trkpt>
      <trkpt lat="62.54334" lon="6.51761">
        <ele>34.23044</ele>
        <time>2020-07-16T18:17:48.960Z</time>
      </trkpt>
      <trkpt lat="62.54322" lon="6.51604">
        <ele>37.545943</ele>
        <time>2020-07-16T18:18:15.280Z</time>
      </trkpt>
      <trkpt lat="62.5431" lon="6.51528">
        <ele>39.006106</ele>
        <time>2020-07-16T18:18:27.851Z</time>
      </trkpt>
      <trkpt lat="62.54161" lon="6.50904">
        <ele>46.116773</ele>
        <time>2020-07-16T18:19:55.252Z</time>
      </trkpt>
      <trkpt lat="62.54159" lon="6.50898">
        <ele>46.056917</ele>
        <time>2020-07-16T18:19:55.839Z</time>
      </trkpt>
      <trkpt lat="62.54149" lon="6.5087">
        <ele>45.753804</ele>
        <time>2020-07-16T18:19:58.374Z</time>
      </trkpt>
      <trkpt lat="62.54145" lon="6.50858">
        <ele>45.631989</ele>
        <time>2020-07-16T18:19:59.287Z</time>
      </trkpt>
      <trkpt lat="62.54124" lon="6.50781">
        <ele>44.883077</ele>
        <time>2020-07-16T18:20:04.894Z</time>
      </trkpt>
      <trkpt lat="62.54116" lon="6.50744">
        <ele>44.546906</ele>
        <time>2020-07-16T18:20:07.381Z</time>
      </trkpt>
      <trkpt lat="62.54107" lon="6.50692">
        <ele>44.084927</ele>
        <time>2020-07-16T18:20:10.675Z</time>
      </trkpt>
      <trkpt lat="62.54095" lon="6.5067">
        <ele>43.697846</ele>
        <time>2020-07-16T18:20:12.707Z</time>
      </trkpt>
      <trkpt lat="62.54076" lon="6.5067">
        <ele>42.824941</ele>
        <time>2020-07-16T18:20:14.861Z</time>
      </trkpt>
      <trkpt lat="62.54067" lon="6.50656">
        <ele>42.274893</ele>
        <time>2020-07-16T18:20:16.253Z</time>
      </trkpt>
      <trkpt lat="62.54044" lon="6.50567">
        <ele>40.041541</ele>
        <time>2020-07-16T18:20:21.735Z</time>
      </trkpt>
      <trkpt lat="62.53941" lon="6.50103">
        <ele>32.036289</ele>
        <time>2020-07-16T18:20:51.705Z</time>
      </trkpt>
      <trkpt lat="62.53937" lon="6.50081">
        <ele>31.787156</ele>
        <time>2020-07-16T18:20:53.460Z</time>
      </trkpt>
      <trkpt lat="62.53931" lon="6.50036">
        <ele>31.266429</ele>
        <time>2020-07-16T18:20:58.529Z</time>
      </trkpt>
      <trkpt lat="62.53923" lon="6.49962">
        <ele>32.097849</ele>
        <time>2020-07-16T18:21:07.324Z</time>
      </trkpt>
      <trkpt lat="62.53907" lon="6.49814">
        <ele>34.948351</ele>
        <time>2020-07-16T18:21:28.362Z</time>
      </trkpt>
      <trkpt lat="62.53892" lon="6.49671">
        <ele>37.711014</ele>
        <time>2020-07-16T18:21:52.383Z</time>
      </trkpt>
      <trkpt lat="62.53859" lon="6.49349">
        <ele>45.839388</ele>
        <time>2020-07-16T18:22:49.170Z</time>
      </trkpt>
      <trkpt lat="62.53853" lon="6.49264">
        <ele>48.021201</ele>
        <time>2020-07-16T18:23:02.233Z</time>
      </trkpt>
      <trkpt lat="62.53846" lon="6.49152">
        <ele>49.351431</ele>
        <time>2020-07-16T18:23:18.528Z</time>
      </trkpt>
      <trkpt lat="62.53825" lon="6.48696">
        <ele>51.804397</ele>
        <time>2020-07-16T18:24:05.417Z</time>
      </trkpt>
      <trkpt lat="62.53819" lon="6.48629">
        <ele>51.562795</ele>
        <time>2020-07-16T18:24:10.069Z</time>
      </trkpt>
      <trkpt lat="62.53822" lon="6.48623">
        <ele>51.53112</ele>
        <time>2020-07-16T18:24:10.873Z</time>
      </trkpt>
      <trkpt lat="62.53834" lon="6.48402">
        <ele>49.586268</ele>
        <time>2020-07-16T18:24:25.248Z</time>
      </trkpt>
      <trkpt lat="62.53834" lon="6.48318">
        <ele>48.088028</ele>
        <time>2020-07-16T18:24:30.375Z</time>
      </trkpt>
      <trkpt lat="62.53842" lon="6.48256">
        <ele>46.953092</ele>
        <time>2020-07-16T18:24:34.318Z</time>
      </trkpt>
      <trkpt lat="62.53843" lon="6.48201">
        <ele>45.956519</ele>
        <time>2020-07-16T18:24:37.703Z</time>
      </trkpt>
      <trkpt lat="62.53838" lon="6.48134">
        <ele>44.759866</ele>
        <time>2020-07-16T18:24:41.686Z</time>
      </trkpt>
      <trkpt lat="62.53818" lon="6.48007">
        <ele>42.405</ele>
        <time>2020-07-16T18:24:49.624Z</time>
      </trkpt>
      <trkpt lat="62.53813" lon="6.47902">
        <ele>40.539399</ele>
        <time>2020-07-16T18:24:56.165Z</time>
      </trkpt>
      <trkpt lat="62.53812" lon="6.47876">
        <ele>40.095338</ele>
        <time>2020-07-16T18:24:57.652Z</time>
      </trkpt>
      <trkpt lat="62.53808" lon="6.47846">
        <ele>39.546028</ele>
        <time>2020-07-16T18:24:59.670Z</time>
      </trkpt>
      <trkpt lat="62.53799" lon="6.47794">
        <ele>38.560927</ele>
        <time>2020-07-16T18:25:03.187Z</time>
      </trkpt>
      <trkpt lat="62.53775" lon="6.47712">
        <ele>36.9962</ele>
        <time>2020-07-16T18:25:09.416Z</time>
      </trkpt>
      <trkpt lat="62.53752" lon="6.47617">
        <ele>35.717048</ele>
        <time>2020-07-16T18:25:16.295Z</time>
      </trkpt>
      <trkpt lat="62.53733" lon="6.4755">
        <ele>34.777053</ele>
        <time>2020-07-16T18:25:21.427Z</time>
      </trkpt>
      <trkpt lat="62.53726" lon="6.47522">
        <ele>34.395269</ele>
        <time>2020-07-16T18:25:23.611Z</time>
      </trkpt>
      <trkpt lat="62.53724" lon="6.47507">
        <ele>34.20288</ele>
        <time>2020-07-16T18:25:24.668Z</time>
      </trkpt>
      <trkpt lat="62.53722" lon="6.47497">
        <ele>34.080878</ele>
        <time>2020-07-16T18:25:25.351Z</time>
      </trkpt>
      <trkpt lat="62.53708" lon="6.47421">
        <ele>33.089826</ele>
        <time>2020-07-16T18:25:30.893Z</time>
      </trkpt>
      <trkpt lat="62.53708" lon="6.47412">
        <ele>32.989194</ele>
        <time>2020-07-16T18:25:31.445Z</time>
      </trkpt>
      <trkpt lat="62.53699" lon="6.47362">
        <ele>32.415948</ele>
        <time>2020-07-16T18:25:34.986Z</time>
      </trkpt>
      <trkpt lat="62.5364" lon="6.47057">
        <ele>29.623164</ele>
        <time>2020-07-16T18:25:57.264Z</time>
      </trkpt>
      <trkpt lat="62.53636" lon="6.47038">
        <ele>29.44728</ele>
        <time>2020-07-16T18:25:58.664Z</time>
      </trkpt>
      <trkpt lat="62.53638" lon="6.47029">
        <ele>29.361241</ele>
        <time>2020-07-16T18:25:59.728Z</time>
      </trkpt>
      <trkpt lat="62.53624" lon="6.46942">
        <ele>29.744971</ele>
        <time>2020-07-16T18:26:07.697Z</time>
      </trkpt>
      <trkpt lat="62.53621" lon="6.46909">
        <ele>29.923069</ele>
        <time>2020-07-16T18:26:11.008Z</time>
      </trkpt>
      <trkpt lat="62.53606" lon="6.46813">
        <ele>30.448501</ele>
        <time>2020-07-16T18:26:20.711Z</time>
      </trkpt>
      <trkpt lat="62.53582" lon="6.46625">
        <ele>31.651316</ele>
        <time>2020-07-16T18:26:44.339Z</time>
      </trkpt>
      <trkpt lat="62.53551" lon="6.46457">
        <ele>33.865672</ele>
        <time>2020-07-16T18:27:08.075Z</time>
      </trkpt>
      <trkpt lat="62.53537" lon="6.46251">
        <ele>36.209881</ele>
        <time>2020-07-16T18:27:33.977Z</time>
      </trkpt>
      <trkpt lat="62.53536" lon="6.46184">
        <ele>36.408665</ele>
        <time>2020-07-16T18:27:41.655Z</time>
      </trkpt>
      <trkpt lat="62.53534" lon="6.46125">
        <ele>36.584728</ele>
        <time>2020-07-16T18:27:47.925Z</time>
      </trkpt>
      <trkpt lat="62.53514" lon="6.45918">
        <ele>37.214568</ele>
        <time>2020-07-16T18:28:07.164Z</time>
      </trkpt>
      <trkpt lat="62.53426" lon="6.45374">
        <ele>33.493545</ele>
        <time>2020-07-16T18:28:47.098Z</time>
      </trkpt>
      <trkpt lat="62.53399" lon="6.44948">
        <ele>31.591804</ele>
        <time>2020-07-16T18:29:19.560Z</time>
      </trkpt>
      <trkpt lat="62.53399" lon="6.44766">
        <ele>31.098426</ele>
        <time>2020-07-16T18:29:34.237Z</time>
      </trkpt>
      <trkpt lat="62.53384" lon="6.44547">
        <ele>31.896982</ele>
        <time>2020-07-16T18:29:54.192Z</time>
      </trkpt>
      <trkpt lat="62.5338" lon="6.44374">
        <ele>32.577052</ele>
        <time>2020-07-16T18:30:12.700Z</time>
      </trkpt>
      <trkpt lat="62.53428" lon="6.43822">
        <ele>36.750954</ele>
        <time>2020-07-16T18:31:18.886Z</time>
      </trkpt>
      <trkpt lat="62.53428" lon="6.43737">
        <ele>36.962944</ele>
        <time>2020-07-16T18:31:26.105Z</time>
      </trkpt>
      <trkpt lat="62.53426" lon="6.43696">
        <ele>37.065724</ele>
        <time>2020-07-16T18:31:29.643Z</time>
      </trkpt>
      <trkpt lat="62.53425" lon="6.43674">
        <ele>37.120918</ele>
        <time>2020-07-16T18:31:31.447Z</time>
      </trkpt>
      <trkpt lat="62.53423" lon="6.43652">
        <ele>37.176801</ele>
        <time>2020-07-16T18:31:32.930Z</time>
      </trkpt>
      <trkpt lat="62.53416" lon="6.435">
        <ele>36.77949</ele>
        <time>2020-07-16T18:31:44.046Z</time>
      </trkpt>
      <trkpt lat="62.53427" lon="6.43267">
        <ele>35.525231</ele>
        <time>2020-07-16T18:32:00.623Z</time>
      </trkpt>
      <trkpt lat="62.53441" lon="6.43109">
        <ele>35.494577</ele>
        <time>2020-07-16T18:32:13.760Z</time>
      </trkpt>
      <trkpt lat="62.53433" lon="6.4291">
        <ele>36.016707</ele>
        <time>2020-07-16T18:32:32.909Z</time>
      </trkpt>
      <trkpt lat="62.53433" lon="6.42764">
        <ele>36.712174</ele>
        <time>2020-07-16T18:32:48.974Z</time>
      </trkpt>
      <trkpt lat="62.53438" lon="6.42578">
        <ele>38.17987</ele>
        <time>2020-07-16T18:33:10.176Z</time>
      </trkpt>
      <trkpt lat="62.53442" lon="6.42456">
        <ele>39.133727</ele>
        <time>2020-07-16T18:33:23.865Z</time>
      </trkpt>
      <trkpt lat="62.53449" lon="6.42243">
        <ele>40.432476</ele>
        <time>2020-07-16T18:33:47.006Z</time>
      </trkpt>
      <trkpt lat="62.53451" lon="6.42198">
        <ele>40.703118</ele>
        <time>2020-07-16T18:33:51.744Z</time>
      </trkpt>
      <trkpt lat="62.53456" lon="6.42142">
        <ele>41.037491</ele>
        <time>2020-07-16T18:33:57.406Z</time>
      </trkpt>
      <trkpt lat="62.53507" lon="6.4155">
        <ele>44.135544</ele>
        <time>2020-07-16T18:34:56.916Z</time>
      </trkpt>
      <trkpt lat="62.53502" lon="6.41427">
        <ele>45.078931</ele>
        <time>2020-07-16T18:35:10.605Z</time>
      </trkpt>
      <trkpt lat="62.53501" lon="6.4124">
        <ele>46.420874</ele>
        <time>2020-07-16T18:35:32.567Z</time>
      </trkpt>
      <trkpt lat="62.53513" lon="6.41024">
        <ele>47.601499</ele>
        <time>2020-07-16T18:35:59.668Z</time>
      </trkpt>
      <trkpt lat="62.53509" lon="6.40741">
        <ele>45.868722</ele>
        <time>2020-07-16T18:36:20.666Z</time>
      </trkpt>
      <trkpt lat="62.53509" lon="6.40707">
        <ele>45.303366</ele>
        <time>2020-07-16T18:36:22.921Z</time>
      </trkpt>
      <trkpt lat="62.53508" lon="6.40689">
        <ele>45.014302</ele>
        <time>2020-07-16T18:36:23.909Z</time>
      </trkpt>
      <trkpt lat="62.53503" lon="6.40537">
        <ele>42.471921</ele>
        <time>2020-07-16T18:36:32.921Z</time>
      </trkpt>
      <trkpt lat="62.53502" lon="6.40514">
        <ele>42.094275</ele>
        <time>2020-07-16T18:36:34.190Z</time>
      </trkpt>
      <trkpt lat="62.535" lon="6.40492">
        <ele>41.635812</ele>
        <time>2020-07-16T18:36:35.421Z</time>
      </trkpt>
      <trkpt lat="62.53498" lon="6.40403">
        <ele>39.19546</ele>
        <time>2020-07-16T18:36:40.404Z</time>
      </trkpt>
      <trkpt lat="62.5351" lon="6.40206">
        <ele>33.763638</ele>
        <time>2020-07-16T18:36:51.482Z</time>
      </trkpt>
      <trkpt lat="62.53515" lon="6.40121">
        <ele>31.421312</ele>
        <time>2020-07-16T18:36:56.540Z</time>
      </trkpt>
      <trkpt lat="62.53518" lon="6.40037">
        <ele>30.370508</ele>
        <time>2020-07-16T18:37:01.872Z</time>
      </trkpt>
      <trkpt lat="62.53518" lon="6.39967">
        <ele>29.602709</ele>
        <time>2020-07-16T18:37:06.454Z</time>
      </trkpt>
      <trkpt lat="62.53531" lon="6.39825">
        <ele>28.026827</ele>
        <time>2020-07-16T18:37:16.250Z</time>
      </trkpt>
      <trkpt lat="62.53532" lon="6.39542">
        <ele>26.240734</ele>
        <time>2020-07-16T18:37:37.735Z</time>
      </trkpt>
      <trkpt lat="62.53535" lon="6.39394">
        <ele>25.6744</ele>
        <time>2020-07-16T18:37:49.058Z</time>
      </trkpt>
      <trkpt lat="62.53537" lon="6.39313">
        <ele>25.428391</ele>
        <time>2020-07-16T18:37:55.209Z</time>
      </trkpt>
      <trkpt lat="62.53557" lon="6.38958">
        <ele>25.015109</ele>
        <time>2020-07-16T18:38:24.381Z</time>
      </trkpt>
      <trkpt lat="62.53558" lon="6.38657">
        <ele>26.118227</ele>
        <time>2020-07-16T18:38:54.180Z</time>
      </trkpt>
      <trkpt lat="62.53578" lon="6.38255">
        <ele>27.384776</ele>
        <time>2020-07-16T18:39:35.491Z</time>
      </trkpt>
      <trkpt lat="62.53581" lon="6.38219">
        <ele>27.490055</ele>
        <time>2020-07-16T18:39:38.735Z</time>
      </trkpt>
      <trkpt lat="62.53582" lon="6.38178">
        <ele>27.611316</ele>
        <time>2020-07-16T18:39:41.954Z</time>
      </trkpt>
      <trkpt lat="62.53583" lon="6.38129">
        <ele>27.022989</ele>
        <time>2020-07-16T18:39:45.877Z</time>
      </trkpt>
      <trkpt lat="62.53584" lon="6.38051">
        <ele>25.900958</ele>
        <time>2020-07-16T18:39:51.541Z</time>
      </trkpt>
      <trkpt lat="62.53578" lon="6.37932">
        <ele>24.178675</ele>
        <time>2020-07-16T18:39:59.068Z</time>
      </trkpt>
      <trkpt lat="62.53558" lon="6.37766">
        <ele>21.71599</ele>
        <time>2020-07-16T18:40:09.077Z</time>
      </trkpt>
      <trkpt lat="62.53549" lon="6.37713">
        <ele>20.875876</ele>
        <time>2020-07-16T18:40:12.453Z</time>
      </trkpt>
      <trkpt lat="62.53545" lon="6.3769">
        <ele>20.50516</ele>
        <time>2020-07-16T18:40:13.919Z</time>
      </trkpt>
      <trkpt lat="62.53529" lon="6.37607">
        <ele>19.178892</ele>
        <time>2020-07-16T18:40:19.380Z</time>
      </trkpt>
      <trkpt lat="62.53525" lon="6.37589">
        <ele>18.886161</ele>
        <time>2020-07-16T18:40:20.614Z</time>
      </trkpt>
      <trkpt lat="62.5352" lon="6.37557">
        <ele>18.381705</ele>
        <time>2020-07-16T18:40:22.698Z</time>
      </trkpt>
      <trkpt lat="62.53503" lon="6.37418">
        <ele>16.254376</ele>
        <time>2020-07-16T18:40:32.745Z</time>
      </trkpt>
      <trkpt lat="62.53503" lon="6.37354">
        <ele>16.128266</ele>
        <time>2020-07-16T18:40:37.482Z</time>
      </trkpt>
      <trkpt lat="62.5351" lon="6.37328">
        <ele>16.070067</ele>
        <time>2020-07-16T18:40:39.868Z</time>
      </trkpt>
      <trkpt lat="62.53546" lon="6.37276">
        <ele>15.887817</ele>
        <time>2020-07-16T18:40:48.105Z</time>
      </trkpt>
      <trkpt lat="62.53552" lon="6.37256">
        <ele>15.841043</ele>
        <time>2020-07-16T18:40:50.063Z</time>
      </trkpt>
      <trkpt lat="62.53554" lon="6.37243">
        <ele>15.815174</ele>
        <time>2020-07-16T18:40:52.293Z</time>
      </trkpt>
      <trkpt lat="62.53555" lon="6.37215">
        <ele>15.758694</ele>
        <time>2020-07-16T18:40:54.650Z</time>
      </trkpt>
      <trkpt lat="62.53554" lon="6.37204">
        <ele>15.737692</ele>
        <time>2020-07-16T18:40:55.499Z</time>
      </trkpt>
      <trkpt lat="62.53552" lon="6.37155">
        <ele>15.641397</ele>
        <time>2020-07-16T18:41:00.314Z</time>
      </trkpt>
      <trkpt lat="62.53549" lon="6.37083">
        <ele>15.498357</ele>
        <time>2020-07-16T18:41:06.456Z</time>
      </trkpt>
      <trkpt lat="62.53546" lon="6.36996">
        <ele>14.55314</ele>
        <time>2020-07-16T18:41:12.374Z</time>
      </trkpt>
      <trkpt lat="62.53537" lon="6.36934">
        <ele>13.821059</ele>
        <time>2020-07-16T18:41:16.661Z</time>
      </trkpt>
      <trkpt lat="62.5351" lon="6.36826">
        <ele>12.430774</ele>
        <time>2020-07-16T18:41:24.254Z</time>
      </trkpt>
      <trkpt lat="62.53489" lon="6.36771">
        <ele>11.62981</ele>
        <time>2020-07-16T18:41:28.920Z</time>
      </trkpt>
      <trkpt lat="62.53486" lon="6.36767">
        <ele>11.538248</ele>
        <time>2020-07-16T18:41:29.331Z</time>
      </trkpt>
      <trkpt lat="62.53481" lon="6.36756">
        <ele>11.353709</ele>
        <time>2020-07-16T18:41:30.425Z</time>
      </trkpt>
      <trkpt lat="62.53455" lon="6.3647">
        <ele>10.333057</ele>
        <time>2020-07-16T18:41:50.976Z</time>
      </trkpt>
      <trkpt lat="62.53451" lon="6.36454">
        <ele>10.28198</ele>
        <time>2020-07-16T18:41:52.157Z</time>
      </trkpt>
      <trkpt lat="62.53455" lon="6.36448">
        <ele>10.253805</ele>
        <time>2020-07-16T18:41:53.447Z</time>
      </trkpt>
      <trkpt lat="62.53457" lon="6.36421">
        <ele>10.177907</ele>
        <time>2020-07-16T18:41:56.513Z</time>
      </trkpt>
      <trkpt lat="62.53455" lon="6.36406">
        <ele>10.132577</ele>
        <time>2020-07-16T18:41:58.617Z</time>
      </trkpt>
      <trkpt lat="62.53452" lon="6.36392">
        <ele>10.088561</ele>
        <time>2020-07-16T18:42:00.548Z</time>
      </trkpt>
      <trkpt lat="62.53447" lon="6.3636">
        <ele>9.994534</ele>
        <time>2020-07-16T18:42:04.709Z</time>
      </trkpt>
      <trkpt lat="62.53445" lon="6.36235">
        <ele>11.287336</ele>
        <time>2020-07-16T18:42:20.334Z</time>
      </trkpt>
      <trkpt lat="62.53455" lon="6.36152">
        <ele>12.21547</ele>
        <time>2020-07-16T18:42:31.292Z</time>
      </trkpt>
      <trkpt lat="62.53462" lon="6.36126">
        <ele>12.533963</ele>
        <time>2020-07-16T18:42:34.977Z</time>
      </trkpt>
      <trkpt lat="62.5347" lon="6.36089">
        <ele>12.969477</ele>
        <time>2020-07-16T18:42:40.250Z</time>
      </trkpt>
      <trkpt lat="62.53479" lon="6.36037">
        <ele>13.564766</ele>
        <time>2020-07-16T18:42:46.732Z</time>
      </trkpt>
      <trkpt lat="62.53482" lon="6.35948">
        <ele>14.349471</ele>
        <time>2020-07-16T18:42:56.858Z</time>
      </trkpt>
      <trkpt lat="62.53468" lon="6.35776">
        <ele>15.334575</ele>
        <time>2020-07-16T18:43:15.431Z</time>
      </trkpt>
      <trkpt lat="62.53445" lon="6.35644">
        <ele>16.126156</ele>
        <time>2020-07-16T18:43:29.064Z</time>
      </trkpt>
      <trkpt lat="62.53443" lon="6.3563">
        <ele>16.208518</ele>
        <time>2020-07-16T18:43:30.077Z</time>
      </trkpt>
      <trkpt lat="62.5344" lon="6.35613">
        <ele>16.312581</ele>
        <time>2020-07-16T18:43:32.210Z</time>
      </trkpt>
      <trkpt lat="62.53406" lon="6.35195">
        <ele>18.461947</ele>
        <time>2020-07-16T18:44:15.779Z</time>
      </trkpt>
      <trkpt lat="62.5339" lon="6.35045">
        <ele>19.213122</ele>
        <time>2020-07-16T18:44:32.205Z</time>
      </trkpt>
      <trkpt lat="62.53313" lon="6.34652">
        <ele>20.97074</ele>
        <time>2020-07-16T18:45:13.838Z</time>
      </trkpt>
      <trkpt lat="62.53301" lon="6.34582">
        <ele>21.22073</ele>
        <time>2020-07-16T18:45:20.757Z</time>
      </trkpt>
      <trkpt lat="62.53291" lon="6.3452">
        <ele>21.444001</ele>
        <time>2020-07-16T18:45:26.976Z</time>
      </trkpt>
      <trkpt lat="62.53287" lon="6.34493">
        <ele>21.539059</ele>
        <time>2020-07-16T18:45:29.619Z</time>
      </trkpt>
      <trkpt lat="62.53282" lon="6.34369">
        <ele>22.030634</ele>
        <time>2020-07-16T18:45:42.339Z</time>
      </trkpt>
      <trkpt lat="62.5327" lon="6.34224">
        <ele>22.60793</ele>
        <time>2020-07-16T18:45:57.698Z</time>
      </trkpt>
      <trkpt lat="62.53275" lon="6.34128">
        <ele>22.988936</ele>
        <time>2020-07-16T18:46:07.477Z</time>
      </trkpt>
      <trkpt lat="62.53278" lon="6.34082">
        <ele>22.915976</ele>
        <time>2020-07-16T18:46:11.789Z</time>
      </trkpt>
      <trkpt lat="62.53279" lon="6.34073">
        <ele>22.846791</ele>
        <time>2020-07-16T18:46:12.541Z</time>
      </trkpt>
      <trkpt lat="62.53277" lon="6.34037">
        <ele>22.56493</ele>
        <time>2020-07-16T18:46:15.459Z</time>
      </trkpt>
      <trkpt lat="62.53276" lon="6.34025">
        <ele>22.470179</ele>
        <time>2020-07-16T18:46:16.447Z</time>
      </trkpt>
      <trkpt lat="62.53272" lon="6.33981">
        <ele>22.127142</ele>
        <time>2020-07-16T18:46:19.732Z</time>
      </trkpt>
      <trkpt lat="62.53265" lon="6.33858">
        <ele>21.166552</ele>
        <time>2020-07-16T18:46:28.297Z</time>
      </trkpt>
      <trkpt lat="62.53263" lon="6.33809">
        <ele>20.787367</ele>
        <time>2020-07-16T18:46:31.444Z</time>
      </trkpt>
      <trkpt lat="62.53263" lon="6.33777">
        <ele>20.53961</ele>
        <time>2020-07-16T18:46:33.477Z</time>
      </trkpt>
      <trkpt lat="62.53263" lon="6.33715">
        <ele>20.060431</ele>
        <time>2020-07-16T18:46:37.420Z</time>
      </trkpt>
      <trkpt lat="62.53264" lon="6.33564">
        <ele>18.699526</ele>
        <time>2020-07-16T18:46:47.238Z</time>
      </trkpt>
      <trkpt lat="62.53264" lon="6.33551">
        <ele>18.585749</ele>
        <time>2020-07-16T18:46:48.073Z</time>
      </trkpt>
      <trkpt lat="62.53265" lon="6.33536">
        <ele>18.448975</ele>
        <time>2020-07-16T18:46:48.922Z</time>
      </trkpt>
      <trkpt lat="62.53265" lon="6.33519">
        <ele>18.295557</ele>
        <time>2020-07-16T18:46:50.225Z</time>
      </trkpt>
      <trkpt lat="62.5326" lon="6.33433">
        <ele>17.504753</ele>
        <time>2020-07-16T18:46:56.178Z</time>
      </trkpt>
      <trkpt lat="62.53257" lon="6.3337">
        <ele>16.935732</ele>
        <time>2020-07-16T18:47:00.661Z</time>
      </trkpt>
      <trkpt lat="62.53256" lon="6.33346">
        <ele>16.719824</ele>
        <time>2020-07-16T18:47:03.092Z</time>
      </trkpt>
      <trkpt lat="62.53257" lon="6.33284">
        <ele>16.670675</ele>
        <time>2020-07-16T18:47:08.153Z</time>
      </trkpt>
      <trkpt lat="62.53257" lon="6.33236">
        <ele>16.794164</ele>
        <time>2020-07-16T18:47:12.700Z</time>
      </trkpt>
      <trkpt lat="62.53252" lon="6.33154">
        <ele>17.008402</ele>
        <time>2020-07-16T18:47:21.404Z</time>
      </trkpt>
      <trkpt lat="62.53259" lon="6.3292">
        <ele>17.503354</ele>
        <time>2020-07-16T18:47:45.343Z</time>
      </trkpt>
      <trkpt lat="62.5326" lon="6.32682">
        <ele>16.708487</ele>
        <time>2020-07-16T18:48:03.769Z</time>
      </trkpt>
      <trkpt lat="62.5325" lon="6.32511">
        <ele>16.392852</ele>
        <time>2020-07-16T18:48:15.765Z</time>
      </trkpt>
      <trkpt lat="62.53235" lon="6.3241">
        <ele>16.728521</ele>
        <time>2020-07-16T18:48:24.271Z</time>
      </trkpt>
      <trkpt lat="62.5323" lon="6.32394">
        <ele>16.788143</ele>
        <time>2020-07-16T18:48:25.427Z</time>
      </trkpt>
      <trkpt lat="62.53225" lon="6.32386">
        <ele>16.834036</ele>
        <time>2020-07-16T18:48:26.659Z</time>
      </trkpt>
      <trkpt lat="62.53221" lon="6.32386">
        <ele>16.857489</ele>
        <time>2020-07-16T18:48:27.165Z</time>
      </trkpt>
      <trkpt lat="62.53221" lon="6.32349">
        <ele>16.97293</ele>
        <time>2020-07-16T18:48:31.603Z</time>
      </trkpt>
      <trkpt lat="62.53221" lon="6.32282">
        <ele>17.185791</ele>
        <time>2020-07-16T18:48:38.342Z</time>
      </trkpt>
      <trkpt lat="62.53216" lon="6.32152">
        <ele>18.143992</ele>
        <time>2020-07-16T18:48:53.029Z</time>
      </trkpt>
      <trkpt lat="62.5321" lon="6.32043">
        <ele>20.464407</ele>
        <time>2020-07-16T18:49:09.897Z</time>
      </trkpt>
      <trkpt lat="62.53205" lon="6.31962">
        <ele>22.168086</ele>
        <time>2020-07-16T18:49:25.131Z</time>
      </trkpt>
      <trkpt lat="62.53193" lon="6.31763">
        <ele>25.780229</ele>
        <time>2020-07-16T18:49:56.111Z</time>
      </trkpt>
      <trkpt lat="62.53187" lon="6.31643">
        <ele>26.065217</ele>
        <time>2020-07-16T18:50:10.037Z</time>
      </trkpt>
      <trkpt lat="62.53184" lon="6.3158">
        <ele>26.212507</ele>
        <time>2020-07-16T18:50:14.589Z</time>
      </trkpt>
      <trkpt lat="62.53182" lon="6.31514">
        <ele>26.368041</ele>
        <time>2020-07-16T18:50:18.964Z</time>
      </trkpt>
      <trkpt lat="62.53179" lon="6.31364">
        <ele>26.620661</ele>
        <time>2020-07-16T18:50:29.061Z</time>
      </trkpt>
      <trkpt lat="62.53176" lon="6.31216">
        <ele>26.63378</ele>
        <time>2020-07-16T18:50:39.920Z</time>
      </trkpt>
      <trkpt lat="62.53171" lon="6.31016">
        <ele>26.660877</ele>
        <time>2020-07-16T18:50:58.771Z</time>
      </trkpt>
      <trkpt lat="62.53168" lon="6.30926">
        <ele>27.228835</ele>
        <time>2020-07-16T18:51:09.330Z</time>
      </trkpt>
      <trkpt lat="62.5315" lon="6.30603">
        <ele>28.954504</ele>
        <time>2020-07-16T18:51:44.342Z</time>
      </trkpt>
      <trkpt lat="62.53148" lon="6.30425">
        <ele>28.105227</ele>
        <time>2020-07-16T18:51:56.040Z</time>
      </trkpt>
      <trkpt lat="62.53199" lon="6.29666">
        <ele>25.517215</ele>
        <time>2020-07-16T18:52:48.780Z</time>
      </trkpt>
      <trkpt lat="62.53203" lon="6.29599">
        <ele>25.794337</ele>
        <time>2020-07-16T18:52:55.718Z</time>
      </trkpt>
      <trkpt lat="62.53205" lon="6.29598">
        <ele>25.816855</ele>
        <time>2020-07-16T18:52:57.817Z</time>
      </trkpt>
      <trkpt lat="62.53227" lon="6.29569">
        <ele>26.045949</ele>
        <time>2020-07-16T18:53:04.101Z</time>
      </trkpt>
      <trkpt lat="62.53238" lon="6.29536">
        <ele>26.213483</ele>
        <time>2020-07-16T18:53:10.331Z</time>
      </trkpt>
      <trkpt lat="62.53253" lon="6.29469">
        <ele>26.980888</ele>
        <time>2020-07-16T18:53:20.909Z</time>
      </trkpt>
      <trkpt lat="62.53277" lon="6.29353">
        <ele>28.783355</ele>
        <time>2020-07-16T18:53:38.908Z</time>
      </trkpt>
      <trkpt lat="62.53283" lon="6.29286">
        <ele>29.746659</ele>
        <time>2020-07-16T18:53:49.342Z</time>
      </trkpt>
      <trkpt lat="62.5326" lon="6.29156">
        <ele>31.711867</ele>
        <time>2020-07-16T18:54:06.286Z</time>
      </trkpt>
      <trkpt lat="62.53248" lon="6.28883">
        <ele>31.763436</ele>
        <time>2020-07-16T18:54:31.062Z</time>
      </trkpt>
      <trkpt lat="62.5323" lon="6.28708">
        <ele>31.34088</ele>
        <time>2020-07-16T18:54:43.760Z</time>
      </trkpt>
      <trkpt lat="62.532" lon="6.28552">
        <ele>30.131794</ele>
        <time>2020-07-16T18:54:55.568Z</time>
      </trkpt>
      <trkpt lat="62.53192" lon="6.28518">
        <ele>29.856845</ele>
        <time>2020-07-16T18:54:58.132Z</time>
      </trkpt>
      <trkpt lat="62.5319" lon="6.28506">
        <ele>29.76329</ele>
        <time>2020-07-16T18:54:59.009Z</time>
      </trkpt>
      <trkpt lat="62.53176" lon="6.28438">
        <ele>29.230769</ele>
        <time>2020-07-16T18:55:04.271Z</time>
      </trkpt>
      <trkpt lat="62.53159" lon="6.28158">
        <ele>29.576475</ele>
        <time>2020-07-16T18:55:26.120Z</time>
      </trkpt>
      <trkpt lat="62.53132" lon="6.27846">
        <ele>32.623406</ele>
        <time>2020-07-16T18:56:06.319Z</time>
      </trkpt>
      <trkpt lat="62.53129" lon="6.2776">
        <ele>33.98012</ele>
        <time>2020-07-16T18:56:18.918Z</time>
      </trkpt>
      <trkpt lat="62.5313" lon="6.27754">
        <ele>34.081514</ele>
        <time>2020-07-16T18:56:21.232Z</time>
      </trkpt>
      <trkpt lat="62.5315" lon="6.27578">
        <ele>35.96988</ele>
        <time>2020-07-16T18:56:46.259Z</time>
      </trkpt>
      <trkpt lat="62.53183" lon="6.27479">
        <ele>35.665709</ele>
        <time>2020-07-16T18:57:01.042Z</time>
      </trkpt>
      <trkpt lat="62.53204" lon="6.27451">
        <ele>35.533825</ele>
        <time>2020-07-16T18:57:06.987Z</time>
      </trkpt>
      <trkpt lat="62.53326" lon="6.27349">
        <ele>31.567994</ele>
        <time>2020-07-16T18:57:23.596Z</time>
      </trkpt>
      <trkpt lat="62.53364" lon="6.27317">
        <ele>29.029557</ele>
        <time>2020-07-16T18:57:28.422Z</time>
      </trkpt>
      <trkpt lat="62.5339" lon="6.27295">
        <ele>27.221023</ele>
        <time>2020-07-16T18:57:31.830Z</time>
      </trkpt>
      <trkpt lat="62.53439" lon="6.27274">
        <ele>24.109201</ele>
        <time>2020-07-16T18:57:37.774Z</time>
      </trkpt>
      <trkpt lat="62.5346" lon="6.2728">
        <ele>23.308988</ele>
        <time>2020-07-16T18:57:40.320Z</time>
      </trkpt>
      <trkpt lat="62.53491" lon="6.27308">
        <ele>22.320274</ele>
        <time>2020-07-16T18:57:44.380Z</time>
      </trkpt>
      <trkpt lat="62.53545" lon="6.27395">
        <ele>20.300717</ele>
        <time>2020-07-16T18:57:53.786Z</time>
      </trkpt>
      <trkpt lat="62.53606" lon="6.2754">
        <ele>19.303014</ele>
        <time>2020-07-16T18:58:10.785Z</time>
      </trkpt>
      <trkpt lat="62.53637" lon="6.27585">
        <ele>20.454256</ele>
        <time>2020-07-16T18:58:19.798Z</time>
      </trkpt>
      <trkpt lat="62.53696" lon="6.27647">
        <ele>22.490615</ele>
        <time>2020-07-16T18:58:38.970Z</time>
      </trkpt>
      <trkpt lat="62.53719" lon="6.27684">
        <ele>23.368689</ele>
        <time>2020-07-16T18:58:48.641Z</time>
      </trkpt>
      <trkpt lat="62.53765" lon="6.27804">
        <ele>27.595997</ele>
        <time>2020-07-16T18:59:16.459Z</time>
      </trkpt>
      <trkpt lat="62.53826" lon="6.28033">
        <ele>36.076337</ele>
        <time>2020-07-16T19:00:09.164Z</time>
      </trkpt>
      <trkpt lat="62.53874" lon="6.28176">
        <ele>40.24058</ele>
        <time>2020-07-16T19:00:42.143Z</time>
      </trkpt>
      <trkpt lat="62.53923" lon="6.28292">
        <ele>43.819841</ele>
        <time>2020-07-16T19:01:06.227Z</time>
      </trkpt>
      <trkpt lat="62.54025" lon="6.2849">
        <ele>46.398388</ele>
        <time>2020-07-16T19:01:39.271Z</time>
      </trkpt>
      <trkpt lat="62.54073" lon="6.28621">
        <ele>47.035093</ele>
        <time>2020-07-16T19:01:52.949Z</time>
      </trkpt>
      <trkpt lat="62.54115" lon="6.28707">
        <ele>44.655922</ele>
        <time>2020-07-16T19:02:02.280Z</time>
      </trkpt>
      <trkpt lat="62.54133" lon="6.28785">
        <ele>42.991453</ele>
        <time>2020-07-16T19:02:08.423Z</time>
      </trkpt>
      <trkpt lat="62.54136" lon="6.28787">
        <ele>42.845366</ele>
        <time>2020-07-16T19:02:08.864Z</time>
      </trkpt>
      <trkpt lat="62.54137" lon="6.288">
        <ele>42.599964</ele>
        <time>2020-07-16T19:02:09.811Z</time>
      </trkpt>
      <trkpt lat="62.54179" lon="6.28991">
        <ele>36.985461</ele>
        <time>2020-07-16T19:02:21.276Z</time>
      </trkpt>
      <trkpt lat="62.54211" lon="6.29071">
        <ele>32.112649</ele>
        <time>2020-07-16T19:02:26.867Z</time>
      </trkpt>
      <trkpt lat="62.54218" lon="6.29082">
        <ele>31.212833</ele>
        <time>2020-07-16T19:02:27.834Z</time>
      </trkpt>
      <trkpt lat="62.54223" lon="6.29086">
        <ele>30.706373</ele>
        <time>2020-07-16T19:02:28.382Z</time>
      </trkpt>
      <trkpt lat="62.54244" lon="6.29082">
        <ele>28.612383</ele>
        <time>2020-07-16T19:02:30.925Z</time>
      </trkpt>
      <trkpt lat="62.5425" lon="6.29079">
        <ele>27.994806</ele>
        <time>2020-07-16T19:02:31.591Z</time>
      </trkpt>
      <trkpt lat="62.54255" lon="6.29076">
        <ele>27.441939</ele>
        <time>2020-07-16T19:02:32.188Z</time>
      </trkpt>
      <trkpt lat="62.54278" lon="6.29065">
        <ele>25.134225</ele>
        <time>2020-07-16T19:02:34.877Z</time>
      </trkpt>
      <trkpt lat="62.5436" lon="6.29004">
        <ele>18.629731</ele>
        <time>2020-07-16T19:02:44.687Z</time>
      </trkpt>
      <trkpt lat="62.54399" lon="6.28965">
        <ele>16.165742</ele>
        <time>2020-07-16T19:02:49.899Z</time>
      </trkpt>
      <trkpt lat="62.54408" lon="6.28952">
        <ele>15.518774</ele>
        <time>2020-07-16T19:02:51.289Z</time>
      </trkpt>
      <trkpt lat="62.54414" lon="6.28944">
        <ele>15.150259</ele>
        <time>2020-07-16T19:02:52.176Z</time>
      </trkpt>
      <trkpt lat="62.54481" lon="6.28801">
        <ele>11.230113</ele>
        <time>2020-07-16T19:03:06.979Z</time>
      </trkpt>
      <trkpt lat="62.54485" lon="6.28791">
        <ele>11.218472</ele>
        <time>2020-07-16T19:03:07.870Z</time>
      </trkpt>
      <trkpt lat="62.54507" lon="6.28718">
        <ele>11.137044</ele>
        <time>2020-07-16T19:03:15.118Z</time>
      </trkpt>
      <trkpt lat="62.54517" lon="6.28694">
        <ele>11.106381</ele>
        <time>2020-07-16T19:03:18.060Z</time>
      </trkpt>
      <trkpt lat="62.54534" lon="6.28655">
        <ele>11.056442</ele>
        <time>2020-07-16T19:03:23.122Z</time>
      </trkpt>
      <trkpt lat="62.54581" lon="6.28507">
        <ele>10.918184</ele>
        <time>2020-07-16T19:03:39.082Z</time>
      </trkpt>
      <trkpt lat="62.54587" lon="6.28466">
        <ele>10.914778</ele>
        <time>2020-07-16T19:03:42.781Z</time>
      </trkpt>
      <trkpt lat="62.54588" lon="6.28443">
        <ele>10.912863</ele>
        <time>2020-07-16T19:03:44.810Z</time>
      </trkpt>
      <trkpt lat="62.54591" lon="6.28404">
        <ele>10.90963</ele>
        <time>2020-07-16T19:03:48.172Z</time>
      </trkpt>
      <trkpt lat="62.54594" lon="6.28387">
        <ele>10.90818</ele>
        <time>2020-07-16T19:03:49.771Z</time>
      </trkpt>
      <trkpt lat="62.54598" lon="6.28363">
        <ele>10.906176</ele>
        <time>2020-07-16T19:03:51.847Z</time>
      </trkpt>
      <trkpt lat="62.546" lon="6.28351">
        <ele>10.90508</ele>
        <time>2020-07-16T19:03:52.875Z</time>
      </trkpt>
      <trkpt lat="62.54626" lon="6.28212">
        <ele>10.89294</ele>
        <time>2020-07-16T19:04:05.076Z</time>
      </trkpt>
      <trkpt lat="62.54631" lon="6.28192">
        <ele>10.891087</ele>
        <time>2020-07-16T19:04:07.168Z</time>
      </trkpt>
      <trkpt lat="62.54636" lon="6.28168">
        <ele>10.936048</ele>
        <time>2020-07-16T19:04:09.412Z</time>
      </trkpt>
      <trkpt lat="62.54666" lon="6.28045">
        <ele>12.250656</ele>
        <time>2020-07-16T19:04:22.077Z</time>
      </trkpt>
      <trkpt lat="62.54698" lon="6.27973">
        <ele>13.209524</ele>
        <time>2020-07-16T19:04:33.512Z</time>
      </trkpt>
      <trkpt lat="62.54714" lon="6.27956">
        <ele>13.564493</ele>
        <time>2020-07-16T19:04:38.340Z</time>
      </trkpt>
      <trkpt lat="62.54715" lon="6.27946">
        <ele>13.657459</ele>
        <time>2020-07-16T19:04:39.971Z</time>
      </trkpt>
      <trkpt lat="62.54735" lon="6.27922">
        <ele>14.129886</ele>
        <time>2020-07-16T19:04:46.558Z</time>
      </trkpt>
      <trkpt lat="62.54772" lon="6.27934">
        <ele>15.31641</ele>
        <time>2020-07-16T19:04:58.498Z</time>
      </trkpt>
      <trkpt lat="62.54778" lon="6.27931">
        <ele>15.615117</ele>
        <time>2020-07-16T19:05:00.793Z</time>
      </trkpt>
      <trkpt lat="62.54793" lon="6.27933">
        <ele>16.368603</ele>
        <time>2020-07-16T19:05:06.156Z</time>
      </trkpt>
      <trkpt lat="62.54808" lon="6.27933">
        <ele>17.106856</ele>
        <time>2020-07-16T19:05:11.001Z</time>
      </trkpt>
      <trkpt lat="62.54874" lon="6.27932">
        <ele>20.348328</ele>
        <time>2020-07-16T19:05:36.834Z</time>
      </trkpt>
      <trkpt lat="62.54959" lon="6.27919">
        <ele>23.414853</ele>
        <time>2020-07-16T19:06:04.939Z</time>
      </trkpt>
      <trkpt lat="62.54962" lon="6.27918">
        <ele>23.419381</ele>
        <time>2020-07-16T19:06:07.296Z</time>
      </trkpt>
      <trkpt lat="62.54969" lon="6.27915">
        <ele>23.429543</ele>
        <time>2020-07-16T19:06:08.885Z</time>
      </trkpt>
      <trkpt lat="62.5505" lon="6.27875">
        <ele>23.559903</ele>
        <time>2020-07-16T19:06:25.992Z</time>
      </trkpt>
      <trkpt lat="62.55118" lon="6.27831">
        <ele>23.294055</ele>
        <time>2020-07-16T19:06:36.156Z</time>
      </trkpt>
      <trkpt lat="62.55251" lon="6.27698">
        <ele>15.889238</ele>
        <time>2020-07-16T19:06:54.338Z</time>
      </trkpt>
      <trkpt lat="62.55293" lon="6.27646">
        <ele>13.932231</ele>
        <time>2020-07-16T19:07:00.378Z</time>
      </trkpt>
      <trkpt lat="62.55383" lon="6.27532">
        <ele>10.829137</ele>
        <time>2020-07-16T19:07:14.438Z</time>
      </trkpt>
      <trkpt lat="62.55439" lon="6.27466">
        <ele>9.32679</ele>
        <time>2020-07-16T19:07:24.605Z</time>
      </trkpt>
      <trkpt lat="62.55464" lon="6.27444">
        <ele>9.615229</ele>
        <time>2020-07-16T19:07:29.581Z</time>
      </trkpt>
      <trkpt lat="62.5548" lon="6.27432">
        <ele>9.786544</ele>
        <time>2020-07-16T19:07:32.818Z</time>
      </trkpt>
      <trkpt lat="62.55693" lon="6.27334">
        <ele>15.099251</ele>
        <time>2020-07-16T19:08:26.185Z</time>
      </trkpt>
      <trkpt lat="62.5572" lon="6.27331">
        <ele>16.279439</ele>
        <time>2020-07-16T19:08:36.123Z</time>
      </trkpt>
      <trkpt lat="62.55724" lon="6.2733">
        <ele>16.454477</ele>
        <time>2020-07-16T19:08:37.432Z</time>
      </trkpt>
      <trkpt lat="62.55726" lon="6.27338">
        <ele>16.632494</ele>
        <time>2020-07-16T19:08:39.535Z</time>
      </trkpt>
      <trkpt lat="62.55828" lon="6.27381">
        <ele>22.622842</ele>
        <time>2020-07-16T19:09:23.019Z</time>
      </trkpt>
      <trkpt lat="62.55832" lon="6.27403">
        <ele>23.39316</ele>
        <time>2020-07-16T19:09:27.723Z</time>
      </trkpt>
      <trkpt lat="62.55831" lon="6.27409">
        <ele>23.611225</ele>
        <time>2020-07-16T19:09:29.738Z</time>
      </trkpt>
      <trkpt lat="62.55831" lon="6.27409">
        <ele>23.611225</ele>
        <time>2020-07-16T19:09:29.979Z</time>
      </trkpt>
      <trkpt lat="62.55836" lon="6.27411">
        <ele>23.978331</ele>
        <time>2020-07-16T19:09:32.636Z</time>
      </trkpt>
      <trkpt lat="62.55851" lon="6.27427">
        <ele>25.185872</ele>
        <time>2020-07-16T19:09:40.086Z</time>
      </trkpt>
      <trkpt lat="62.55901" lon="6.27514">
        <ele>29.851531</ele>
        <time>2020-07-16T19:10:09.490Z</time>
      </trkpt>
      <trkpt lat="62.55949" lon="6.27635">
        <ele>31.124754</ele>
        <time>2020-07-16T19:10:33.015Z</time>
      </trkpt>
      <trkpt lat="62.55958" lon="6.27659">
        <ele>30.844339</ele>
        <time>2020-07-16T19:10:37.015Z</time>
      </trkpt>
      <trkpt lat="62.55962" lon="6.27669">
        <ele>30.726428</ele>
        <time>2020-07-16T19:10:38.122Z</time>
      </trkpt>
      <trkpt lat="62.5599" lon="6.27743">
        <ele>29.873101</ele>
        <time>2020-07-16T19:10:43.881Z</time>
      </trkpt>
      <trkpt lat="62.56032" lon="6.27847">
        <ele>28.623585</ele>
        <time>2020-07-16T19:10:52.118Z</time>
      </trkpt>
      <trkpt lat="62.56043" lon="6.27876">
        <ele>27.871964</ele>
        <time>2020-07-16T19:10:53.990Z</time>
      </trkpt>
      <trkpt lat="62.56046" lon="6.27885">
        <ele>27.522597</ele>
        <time>2020-07-16T19:10:54.671Z</time>
      </trkpt>
      <trkpt lat="62.5609" lon="6.27948">
        <ele>24.142969</ele>
        <time>2020-07-16T19:11:00.883Z</time>
      </trkpt>
      <trkpt lat="62.56099" lon="6.27961">
        <ele>23.434814</ele>
        <time>2020-07-16T19:11:02.099Z</time>
      </trkpt>
      <trkpt lat="62.56104" lon="6.27966">
        <ele>23.053224</ele>
        <time>2020-07-16T19:11:02.774Z</time>
      </trkpt>
      <trkpt lat="62.56162" lon="6.27977">
        <ele>19.290779</ele>
        <time>2020-07-16T19:11:09.953Z</time>
      </trkpt>
      <trkpt lat="62.56183" lon="6.27975">
        <ele>17.951987</ele>
        <time>2020-07-16T19:11:12.418Z</time>
      </trkpt>
      <trkpt lat="62.56186" lon="6.27975">
        <ele>17.738753</ele>
        <time>2020-07-16T19:11:12.953Z</time>
      </trkpt>
      <trkpt lat="62.56199" lon="6.27973">
        <ele>16.902718</ele>
        <time>2020-07-16T19:11:14.821Z</time>
      </trkpt>
      <trkpt lat="62.5622" lon="6.27963">
        <ele>16.421937</ele>
        <time>2020-07-16T19:11:17.884Z</time>
      </trkpt>
      <trkpt lat="62.56284" lon="6.27897">
        <ele>14.945838</ele>
        <time>2020-07-16T19:11:28.441Z</time>
      </trkpt>
      <trkpt lat="62.56369" lon="6.27826">
        <ele>13.0769</ele>
        <time>2020-07-16T19:11:42.405Z</time>
      </trkpt>
      <trkpt lat="62.56394" lon="6.27786">
        <ele>12.865401</ele>
        <time>2020-07-16T19:11:47.312Z</time>
      </trkpt>
      <trkpt lat="62.56428" lon="6.27715">
        <ele>12.549381</ele>
        <time>2020-07-16T19:11:54.999Z</time>
      </trkpt>
      <trkpt lat="62.56454" lon="6.27681">
        <ele>12.347514</ele>
        <time>2020-07-16T19:12:00.421Z</time>
      </trkpt>
      <trkpt lat="62.56463" lon="6.27675">
        <ele>12.284562</ele>
        <time>2020-07-16T19:12:01.809Z</time>
      </trkpt>
      <trkpt lat="62.5647" lon="6.2767">
        <ele>12.233964</ele>
        <time>2020-07-16T19:12:03.574Z</time>
      </trkpt>
      <trkpt lat="62.56512" lon="6.2767">
        <ele>11.952172</ele>
        <time>2020-07-16T19:12:11.210Z</time>
      </trkpt>
      <trkpt lat="62.5653" lon="6.2768">
        <ele>11.897011</ele>
        <time>2020-07-16T19:12:14.461Z</time>
      </trkpt>
      <trkpt lat="62.56544" lon="6.27685">
        <ele>11.911231</ele>
        <time>2020-07-16T19:12:17.385Z</time>
      </trkpt>
      <trkpt lat="62.56569" lon="6.27679">
        <ele>11.936363</ele>
        <time>2020-07-16T19:12:21.718Z</time>
      </trkpt>
      <trkpt lat="62.56603" lon="6.27653">
        <ele>11.973621</ele>
        <time>2020-07-16T19:12:28.756Z</time>
      </trkpt>
      <trkpt lat="62.56666" lon="6.27579">
        <ele>12.045679</ele>
        <time>2020-07-16T19:12:43.032Z</time>
      </trkpt>
      <trkpt lat="62.56683" lon="6.27562">
        <ele>12.065226</ele>
        <time>2020-07-16T19:12:46.785Z</time>
      </trkpt>
      <trkpt lat="62.56714" lon="6.27541">
        <ele>11.919169</ele>
        <time>2020-07-16T19:12:52.399Z</time>
      </trkpt>
      <trkpt lat="62.56742" lon="6.27521">
        <ele>11.75423</ele>
        <time>2020-07-16T19:12:57.526Z</time>
      </trkpt>
      <trkpt lat="62.5675" lon="6.27492">
        <ele>11.670027</ele>
        <time>2020-07-16T19:13:00.235Z</time>
      </trkpt>
      <trkpt lat="62.5675" lon="6.27479">
        <ele>11.637868</ele>
        <time>2020-07-16T19:13:01.101Z</time>
      </trkpt>
      <trkpt lat="62.56753" lon="6.27478">
        <ele>11.621763</ele>
        <time>2020-07-16T19:13:01.672Z</time>
      </trkpt>
      <trkpt lat="62.56775" lon="6.27466">
        <ele>11.496475</ele>
        <time>2020-07-16T19:13:05.655Z</time>
      </trkpt>
      <trkpt lat="62.56821" lon="6.27456">
        <ele>11.238817</ele>
        <time>2020-07-16T19:13:13.194Z</time>
      </trkpt>
      <trkpt lat="62.56922" lon="6.27433">
        <ele>10.55704</ele>
        <time>2020-07-16T19:13:30.082Z</time>
      </trkpt>
      <trkpt lat="62.56931" lon="6.2743">
        <ele>10.491958</ele>
        <time>2020-07-16T19:13:31.632Z</time>
      </trkpt>
      <trkpt lat="62.5693" lon="6.27414">
        <ele>10.440511</ele>
        <time>2020-07-16T19:13:33.100Z</time>
      </trkpt>
      <trkpt lat="62.57014" lon="6.27395">
        <ele>9.831575</ele>
        <time>2020-07-16T19:13:46.669Z</time>
      </trkpt>
      <trkpt lat="62.57021" lon="6.27393">
        <ele>9.77769</ele>
        <time>2020-07-16T19:13:47.879Z</time>
      </trkpt>
      <trkpt lat="62.57192" lon="6.27353">
        <ele>8.626918</ele>
        <time>2020-07-16T19:14:15.358Z</time>
      </trkpt>
      <trkpt lat="62.57274" lon="6.27335">
        <ele>8.412611</ele>
        <time>2020-07-16T19:14:29.004Z</time>
      </trkpt>
      <trkpt lat="62.5736" lon="6.2732">
        <ele>8.232088</ele>
        <time>2020-07-16T19:14:44.068Z</time>
      </trkpt>
      <trkpt lat="62.57493" lon="6.27297">
        <ele>8.731126</ele>
        <time>2020-07-16T19:15:09.916Z</time>
      </trkpt>
      <trkpt lat="62.57574" lon="6.27272">
        <ele>9.021015</ele>
        <time>2020-07-16T19:15:26.074Z</time>
      </trkpt>
      <trkpt lat="62.57607" lon="6.27255">
        <ele>8.968973</ele>
        <time>2020-07-16T19:15:32.591Z</time>
      </trkpt>
      <trkpt lat="62.57628" lon="6.27244">
        <ele>8.93704</ele>
        <time>2020-07-16T19:15:36.487Z</time>
      </trkpt>
      <trkpt lat="62.57667" lon="6.27217">
        <ele>8.875809</ele>
        <time>2020-07-16T19:15:43.735Z</time>
      </trkpt>
      <trkpt lat="62.57693" lon="6.27197">
        <ele>8.833926</ele>
        <time>2020-07-16T19:15:48.515Z</time>
      </trkpt>
      <trkpt lat="62.57708" lon="6.27185">
        <ele>8.8106</ele>
        <time>2020-07-16T19:15:51.009Z</time>
      </trkpt>
      <trkpt lat="62.57815" lon="6.27066">
        <ele>7.477664</ele>
        <time>2020-07-16T19:16:09.425Z</time>
      </trkpt>
      <trkpt lat="62.57827" lon="6.27049">
        <ele>7.293422</ele>
        <time>2020-07-16T19:16:11.463Z</time>
      </trkpt>
      <trkpt lat="62.57848" lon="6.2702">
        <ele>6.958493</ele>
        <time>2020-07-16T19:16:15.152Z</time>
      </trkpt>
      <trkpt lat="62.57969" lon="6.26803">
        <ele>4.443421</ele>
        <time>2020-07-16T19:16:37.573Z</time>
      </trkpt>
      <trkpt lat="62.57995" lon="6.26756">
        <ele>3.86515</ele>
        <time>2020-07-16T19:16:42.527Z</time>
      </trkpt>
      <trkpt lat="62.58005" lon="6.26739">
        <ele>3.648003</ele>
        <time>2020-07-16T19:16:44.318Z</time>
      </trkpt>
      <trkpt lat="62.58081" lon="6.26634">
        <ele>2.570139</ele>
        <time>2020-07-16T19:16:57.771Z</time>
      </trkpt>
      <trkpt lat="62.58153" lon="6.26565">
        <ele>1.761119</ele>
        <time>2020-07-16T19:17:09.939Z</time>
      </trkpt>
      <trkpt lat="62.58178" lon="6.26549">
        <ele>1.494058</ele>
        <time>2020-07-16T19:17:14.200Z</time>
      </trkpt>
      <trkpt lat="62.58188" lon="6.26543">
        <ele>1.421638</ele>
        <time>2020-07-16T19:17:15.908Z</time>
      </trkpt>
      <trkpt lat="62.58263" lon="6.2651">
        <ele>1.24603</ele>
        <time>2020-07-16T19:17:28.848Z</time>
      </trkpt>
      <trkpt lat="62.58344" lon="6.26506">
        <ele>1.058375</ele>
        <time>2020-07-16T19:17:43.137Z</time>
      </trkpt>
      <trkpt lat="62.58415" lon="6.26543">
        <ele>1.041076</ele>
        <time>2020-07-16T19:17:56.044Z</time>
      </trkpt>
      <trkpt lat="62.58468" lon="6.26606">
        <ele>1.067173</ele>
        <time>2020-07-16T19:18:06.964Z</time>
      </trkpt>
      <trkpt lat="62.58494" lon="6.26648">
        <ele>1.080722</ele>
        <time>2020-07-16T19:18:12.638Z</time>
      </trkpt>
      <trkpt lat="62.58512" lon="6.26687">
        <ele>1.091759</ele>
        <time>2020-07-16T19:18:17.341Z</time>
      </trkpt>
      <trkpt lat="62.5853" lon="6.26734">
        <ele>1.269731</ele>
        <time>2020-07-16T19:18:22.468Z</time>
      </trkpt>
      <trkpt lat="62.58545" lon="6.26784">
        <ele>1.499342</ele>
        <time>2020-07-16T19:18:27.833Z</time>
      </trkpt>
      <trkpt lat="62.58551" lon="6.26802">
        <ele>1.582223</ele>
        <time>2020-07-16T19:18:29.746Z</time>
      </trkpt>
      <trkpt lat="62.58569" lon="6.26888">
        <ele>1.939251</ele>
        <time>2020-07-16T19:18:38.395Z</time>
      </trkpt>
      <trkpt lat="62.58577" lon="6.26945">
        <ele>2.16847</ele>
        <time>2020-07-16T19:18:44.007Z</time>
      </trkpt>
      <trkpt lat="62.5858" lon="6.26971">
        <ele>2.269589</ele>
        <time>2020-07-16T19:18:46.636Z</time>
      </trkpt>
      <trkpt lat="62.58601" lon="6.27444">
        <ele>5.645104</ele>
        <time>2020-07-16T19:19:37.689Z</time>
      </trkpt>
      <trkpt lat="62.58606" lon="6.2752">
        <ele>6.153594</ele>
        <time>2020-07-16T19:19:46.125Z</time>
      </trkpt>
      <trkpt lat="62.58606" lon="6.27527">
        <ele>6.199207</ele>
        <time>2020-07-16T19:19:47.133Z</time>
      </trkpt>
      <trkpt lat="62.58619" lon="6.27644">
        <ele>7.006297</ele>
        <time>2020-07-16T19:19:59.904Z</time>
      </trkpt>
      <trkpt lat="62.58625" lon="6.27674">
        <ele>7.22393</ele>
        <time>2020-07-16T19:20:03.520Z</time>
      </trkpt>
      <trkpt lat="62.58629" lon="6.27691">
        <ele>7.349046</ele>
        <time>2020-07-16T19:20:05.501Z</time>
      </trkpt>
      <trkpt lat="62.58672" lon="6.27813">
        <ele>8.232378</ele>
        <time>2020-07-16T19:20:20.564Z</time>
      </trkpt>
      <trkpt lat="62.58701" lon="6.27864">
        <ele>8.271974</ele>
        <time>2020-07-16T19:20:27.497Z</time>
      </trkpt>
      <trkpt lat="62.58731" lon="6.27902">
        <ele>8.309008</ele>
        <time>2020-07-16T19:20:33.882Z</time>
      </trkpt>
      <trkpt lat="62.58773" lon="6.27947">
        <ele>8.359156</ele>
        <time>2020-07-16T19:20:41.985Z</time>
      </trkpt>
      <trkpt lat="62.58824" lon="6.28">
        <ele>8.392444</ele>
        <time>2020-07-16T19:20:51.633Z</time>
      </trkpt>
      <trkpt lat="62.58872" lon="6.2805">
        <ele>8.201732</ele>
        <time>2020-07-16T19:21:00.682Z</time>
      </trkpt>
      <trkpt lat="62.5898" lon="6.28164">
        <ele>7.769906</ele>
        <time>2020-07-16T19:21:20.829Z</time>
      </trkpt>
      <trkpt lat="62.59017" lon="6.28202">
        <ele>7.589268</ele>
        <time>2020-07-16T19:21:27.444Z</time>
      </trkpt>
      <trkpt lat="62.59058" lon="6.28245">
        <ele>7.382215</ele>
        <time>2020-07-16T19:21:34.970Z</time>
      </trkpt>
      <trkpt lat="62.59104" lon="6.28297">
        <ele>7.147052</ele>
        <time>2020-07-16T19:21:43.517Z</time>
      </trkpt>
      <trkpt lat="62.5912" lon="6.28316">
        <ele>7.065789</ele>
        <time>2020-07-16T19:21:46.497Z</time>
      </trkpt>
      <trkpt lat="62.5916" lon="6.28366">
        <ele>6.988849</ele>
        <time>2020-07-16T19:21:54.231Z</time>
      </trkpt>
      <trkpt lat="62.59169" lon="6.28382">
        <ele>7.006731</ele>
        <time>2020-07-16T19:21:56.213Z</time>
      </trkpt>
      <trkpt lat="62.5919" lon="6.28421">
        <ele>7.048963</ele>
        <time>2020-07-16T19:22:01.269Z</time>
      </trkpt>
      <trkpt lat="62.59198" lon="6.28438">
        <ele>7.065743</ele>
        <time>2020-07-16T19:22:03.177Z</time>
      </trkpt>
      <trkpt lat="62.5923" lon="6.28507">
        <ele>7.135064</ele>
        <time>2020-07-16T19:22:11.662Z</time>
      </trkpt>
      <trkpt lat="62.59251" lon="6.2857">
        <ele>7.188769</ele>
        <time>2020-07-16T19:22:18.433Z</time>
      </trkpt>
      <trkpt lat="62.59261" lon="6.28637">
        <ele>7.271594</ele>
        <time>2020-07-16T19:22:24.719Z</time>
      </trkpt>
      <trkpt lat="62.59267" lon="6.28668">
        <ele>7.387034</ele>
        <time>2020-07-16T19:22:27.861Z</time>
      </trkpt>
      <trkpt lat="62.59272" lon="6.2869">
        <ele>7.472114</ele>
        <time>2020-07-16T19:22:30.045Z</time>
      </trkpt>
      <trkpt lat="62.5929" lon="6.28761">
        <ele>7.75249</ele>
        <time>2020-07-16T19:22:37.582Z</time>
      </trkpt>
      <trkpt lat="62.59311" lon="6.28838">
        <ele>8.059632</ele>
        <time>2020-07-16T19:22:45.714Z</time>
      </trkpt>
      <trkpt lat="62.59335" lon="6.28917">
        <ele>8.387109</ele>
        <time>2020-07-16T19:22:54.863Z</time>
      </trkpt>
      <trkpt lat="62.59342" lon="6.28943">
        <ele>8.492174</ele>
        <time>2020-07-16T19:22:57.880Z</time>
      </trkpt>
      <trkpt lat="62.5935" lon="6.28976">
        <ele>8.643503</ele>
        <time>2020-07-16T19:23:01.196Z</time>
      </trkpt>
      <trkpt lat="62.5936" lon="6.29027">
        <ele>8.953</ele>
        <time>2020-07-16T19:23:06.577Z</time>
      </trkpt>
      <trkpt lat="62.59381" lon="6.29112">
        <ele>9.487189</ele>
        <time>2020-07-16T19:23:16.193Z</time>
      </trkpt>
      <trkpt lat="62.59388" lon="6.29152">
        <ele>9.729837</ele>
        <time>2020-07-16T19:23:20.394Z</time>
      </trkpt>
      <trkpt lat="62.59407" lon="6.29308">
        <ele>10.628824</ele>
        <time>2020-07-16T19:23:36.968Z</time>
      </trkpt>
      <trkpt lat="62.5941" lon="6.29329">
        <ele>10.752584</ele>
        <time>2020-07-16T19:23:39.432Z</time>
      </trkpt>
      <trkpt lat="62.59422" lon="6.29385">
        <ele>10.974103</ele>
        <time>2020-07-16T19:23:45.593Z</time>
      </trkpt>
      <trkpt lat="62.59425" lon="6.29397">
        <ele>11.022466</ele>
        <time>2020-07-16T19:23:47.133Z</time>
      </trkpt>
      <trkpt lat="62.59436" lon="6.29493">
        <ele>11.378096</ele>
        <time>2020-07-16T19:23:57.044Z</time>
      </trkpt>
      <trkpt lat="62.59439" lon="6.29514">
        <ele>11.458393</ele>
        <time>2020-07-16T19:23:59.218Z</time>
      </trkpt>
      <trkpt lat="62.59443" lon="6.29539">
        <ele>11.551476</ele>
        <time>2020-07-16T19:24:01.819Z</time>
      </trkpt>
      <trkpt lat="62.59504" lon="6.29793">
        <ele>11.562415</ele>
        <time>2020-07-16T19:24:26.076Z</time>
      </trkpt>
      <trkpt lat="62.59527" lon="6.29853">
        <ele>11.172303</ele>
        <time>2020-07-16T19:24:31.476Z</time>
      </trkpt>
      <trkpt lat="62.59537" lon="6.29873">
        <ele>11.023626</ele>
        <time>2020-07-16T19:24:33.488Z</time>
      </trkpt>
      <trkpt lat="62.59546" lon="6.29887">
        <ele>10.903767</ele>
        <time>2020-07-16T19:24:35.029Z</time>
      </trkpt>
      <trkpt lat="62.59609" lon="6.29956">
        <ele>10.128355</ele>
        <time>2020-07-16T19:24:45.117Z</time>
      </trkpt>
      <trkpt lat="62.59634" lon="6.29985">
        <ele>9.77013</ele>
        <time>2020-07-16T19:24:49.152Z</time>
      </trkpt>
      <trkpt lat="62.59651" lon="6.30004">
        <ele>9.529544</ele>
        <time>2020-07-16T19:24:51.846Z</time>
      </trkpt>
      <trkpt lat="62.59655" lon="6.30009">
        <ele>9.46375</ele>
        <time>2020-07-16T19:24:52.513Z</time>
      </trkpt>
      <trkpt lat="62.59704" lon="6.30048">
        <ele>8.80797</ele>
        <time>2020-07-16T19:25:00.036Z</time>
      </trkpt>
      <trkpt lat="62.59733" lon="6.30084">
        <ele>8.387483</ele>
        <time>2020-07-16T19:25:05.149Z</time>
      </trkpt>
      <trkpt lat="62.59762" lon="6.30142">
        <ele>7.935422</ele>
        <time>2020-07-16T19:25:11.629Z</time>
      </trkpt>
      <trkpt lat="62.59777" lon="6.30198">
        <ele>8.126828</ele>
        <time>2020-07-16T19:25:16.900Z</time>
      </trkpt>
      <trkpt lat="62.59779" lon="6.30208">
        <ele>8.160083</ele>
        <time>2020-07-16T19:25:17.910Z</time>
      </trkpt>
      <trkpt lat="62.59791" lon="6.30287">
        <ele>8.408431</ele>
        <time>2020-07-16T19:25:25.710Z</time>
      </trkpt>
      <trkpt lat="62.59798" lon="6.30338">
        <ele>8.566789</ele>
        <time>2020-07-16T19:25:30.589Z</time>
      </trkpt>
      <trkpt lat="62.59802" lon="6.30369">
        <ele>8.663332</ele>
        <time>2020-07-16T19:25:33.916Z</time>
      </trkpt>
      <trkpt lat="62.59827" lon="6.30543">
        <ele>9.235884</ele>
        <time>2020-07-16T19:25:51.787Z</time>
      </trkpt>
      <trkpt lat="62.59831" lon="6.30573">
        <ele>9.351997</ele>
        <time>2020-07-16T19:25:55.008Z</time>
      </trkpt>
      <trkpt lat="62.59833" lon="6.30591">
        <ele>9.42037</ele>
        <time>2020-07-16T19:25:57.027Z</time>
      </trkpt>
      <trkpt lat="62.59834" lon="6.3061">
        <ele>9.493699</ele>
        <time>2020-07-16T19:25:58.828Z</time>
      </trkpt>
      <trkpt lat="62.59837" lon="6.3066">
        <ele>9.682338</ele>
        <time>2020-07-16T19:26:03.873Z</time>
      </trkpt>
      <trkpt lat="62.59837" lon="6.30734">
        <ele>9.956616</ele>
        <time>2020-07-16T19:26:10.896Z</time>
      </trkpt>
      <trkpt lat="62.59835" lon="6.30781">
        <ele>10.133496</ele>
        <time>2020-07-16T19:26:15.267Z</time>
      </trkpt>
      <trkpt lat="62.59835" lon="6.30792">
        <ele>10.175423</ele>
        <time>2020-07-16T19:26:16.272Z</time>
      </trkpt>
      <trkpt lat="62.59834" lon="6.30797">
        <ele>10.195283</ele>
        <time>2020-07-16T19:26:16.881Z</time>
      </trkpt>
      <trkpt lat="62.59831" lon="6.30918">
        <ele>10.511569</ele>
        <time>2020-07-16T19:26:27.401Z</time>
      </trkpt>
      <trkpt lat="62.59847" lon="6.3104">
        <ele>10.392666</ele>
        <time>2020-07-16T19:26:37.638Z</time>
      </trkpt>
      <trkpt lat="62.59852" lon="6.3106">
        <ele>10.371528</ele>
        <time>2020-07-16T19:26:39.483Z</time>
      </trkpt>
      <trkpt lat="62.59859" lon="6.31083">
        <ele>10.346199</ele>
        <time>2020-07-16T19:26:41.444Z</time>
      </trkpt>
      <trkpt lat="62.59865" lon="6.31101">
        <ele>10.324283</ele>
        <time>2020-07-16T19:26:43.404Z</time>
      </trkpt>
      <trkpt lat="62.59875" lon="6.31124">
        <ele>10.296066</ele>
        <time>2020-07-16T19:26:45.804Z</time>
      </trkpt>
      <trkpt lat="62.59886" lon="6.31151">
        <ele>10.261799</ele>
        <time>2020-07-16T19:26:48.455Z</time>
      </trkpt>
      <trkpt lat="62.59929" lon="6.31234">
        <ele>10.146753</ele>
        <time>2020-07-16T19:26:58.033Z</time>
      </trkpt>
      <trkpt lat="62.59957" lon="6.3129">
        <ele>10.072978</ele>
        <time>2020-07-16T19:27:04.413Z</time>
      </trkpt>
      <trkpt lat="62.59961" lon="6.31299">
        <ele>10.062092</ele>
        <time>2020-07-16T19:27:05.304Z</time>
      </trkpt>
      <trkpt lat="62.59976" lon="6.31333">
        <ele>10.019424</ele>
        <time>2020-07-16T19:27:09.054Z</time>
      </trkpt>
      <trkpt lat="62.59995" lon="6.31385">
        <ele>9.960036</ele>
        <time>2020-07-16T19:27:14.283Z</time>
      </trkpt>
      <trkpt lat="62.60019" lon="6.31463">
        <ele>9.876902</ele>
        <time>2020-07-16T19:27:22.034Z</time>
      </trkpt>
      <trkpt lat="62.60033" lon="6.3151">
        <ele>9.826893</ele>
        <time>2020-07-16T19:27:26.806Z</time>
      </trkpt>
      <trkpt lat="62.60109" lon="6.3168">
        <ele>9.792899</ele>
        <time>2020-07-16T19:27:46.447Z</time>
      </trkpt>
      <trkpt lat="62.60131" lon="6.31724">
        <ele>9.783899</ele>
        <time>2020-07-16T19:27:51.863Z</time>
      </trkpt>
      <trkpt lat="62.60138" lon="6.31738">
        <ele>9.781061</ele>
        <time>2020-07-16T19:27:53.459Z</time>
      </trkpt>
      <trkpt lat="62.60158" lon="6.31766">
        <ele>9.774223</ele>
        <time>2020-07-16T19:27:57.474Z</time>
      </trkpt>
      <trkpt lat="62.60196" lon="6.31815">
        <ele>9.686407</ele>
        <time>2020-07-16T19:28:05.062Z</time>
      </trkpt>
      <trkpt lat="62.60223" lon="6.31853">
        <ele>9.608644</ele>
        <time>2020-07-16T19:28:10.570Z</time>
      </trkpt>
      <trkpt lat="62.60228" lon="6.3186">
        <ele>9.593687</ele>
        <time>2020-07-16T19:28:11.577Z</time>
      </trkpt>
      <trkpt lat="62.60334" lon="6.31961">
        <ele>9.305495</ele>
        <time>2020-07-16T19:28:31.272Z</time>
      </trkpt>
      <trkpt lat="62.60382" lon="6.32025">
        <ele>9.119498</ele>
        <time>2020-07-16T19:28:40.909Z</time>
      </trkpt>
      <trkpt lat="62.60409" lon="6.32068">
        <ele>9.006131</ele>
        <time>2020-07-16T19:28:46.739Z</time>
      </trkpt>
      <trkpt lat="62.60412" lon="6.32072">
        <ele>8.995874</ele>
        <time>2020-07-16T19:28:47.184Z</time>
      </trkpt>
      <trkpt lat="62.6046" lon="6.32127">
        <ele>8.812227</ele>
        <time>2020-07-16T19:28:56.452Z</time>
      </trkpt>
      <trkpt lat="62.605" lon="6.32187">
        <ele>8.689845</ele>
        <time>2020-07-16T19:29:04.409Z</time>
      </trkpt>
      <trkpt lat="62.60518" lon="6.32216">
        <ele>8.646506</ele>
        <time>2020-07-16T19:29:08.177Z</time>
      </trkpt>
      <trkpt lat="62.60544" lon="6.32256">
        <ele>8.588264</ele>
        <time>2020-07-16T19:29:13.354Z</time>
      </trkpt>
      <trkpt lat="62.60584" lon="6.32335">
        <ele>8.486517</ele>
        <time>2020-07-16T19:29:22.978Z</time>
      </trkpt>
      <trkpt lat="62.60587" lon="6.32344">
        <ele>8.476622</ele>
        <time>2020-07-16T19:29:23.857Z</time>
      </trkpt>
      <trkpt lat="62.60591" lon="6.32356">
        <ele>8.463481</ele>
        <time>2020-07-16T19:29:25.060Z</time>
      </trkpt>
      <trkpt lat="62.60601" lon="6.32388">
        <ele>8.430113</ele>
        <time>2020-07-16T19:29:28.533Z</time>
      </trkpt>
      <trkpt lat="62.60609" lon="6.3242">
        <ele>8.398486</ele>
        <time>2020-07-16T19:29:31.350Z</time>
      </trkpt>
      <trkpt lat="62.60616" lon="6.32461">
        <ele>8.357971</ele>
        <time>2020-07-16T19:29:35.263Z</time>
      </trkpt>
      <trkpt lat="62.60621" lon="6.32494">
        <ele>8.326695</ele>
        <time>2020-07-16T19:29:37.865Z</time>
      </trkpt>
      <trkpt lat="62.60622" lon="6.32509">
        <ele>8.313096</ele>
        <time>2020-07-16T19:29:39.120Z</time>
      </trkpt>
      <trkpt lat="62.60628" lon="6.3256">
        <ele>8.264292</ele>
        <time>2020-07-16T19:29:43.568Z</time>
      </trkpt>
      <trkpt lat="62.60643" lon="6.32669">
        <ele>8.159825</ele>
        <time>2020-07-16T19:29:52.754Z</time>
      </trkpt>
      <trkpt lat="62.60646" lon="6.32685">
        <ele>8.143539</ele>
        <time>2020-07-16T19:29:54.358Z</time>
      </trkpt>
      <trkpt lat="62.60655" lon="6.32731">
        <ele>8.098874</ele>
        <time>2020-07-16T19:29:58.069Z</time>
      </trkpt>
      <trkpt lat="62.6067" lon="6.32783">
        <ele>8.041805</ele>
        <time>2020-07-16T19:30:02.673Z</time>
      </trkpt>
      <trkpt lat="62.60693" lon="6.3282">
        <ele>7.845017</ele>
        <time>2020-07-16T19:30:07.261Z</time>
      </trkpt>
      <trkpt lat="62.60776" lon="6.32879">
        <ele>7.235301</ele>
        <time>2020-07-16T19:30:21.089Z</time>
      </trkpt>
      <trkpt lat="62.60783" lon="6.32885">
        <ele>7.1806</ele>
        <time>2020-07-16T19:30:22.150Z</time>
      </trkpt>
      <trkpt lat="62.60789" lon="6.3289">
        <ele>7.134888</ele>
        <time>2020-07-16T19:30:23.248Z</time>
      </trkpt>
      <trkpt lat="62.60817" lon="6.32927">
        <ele>6.904501</ele>
        <time>2020-07-16T19:30:28.517Z</time>
      </trkpt>
      <trkpt lat="62.60847" lon="6.32982">
        <ele>6.757077</ele>
        <time>2020-07-16T19:30:34.902Z</time>
      </trkpt>
      <trkpt lat="62.60866" lon="6.33019">
        <ele>6.726594</ele>
        <time>2020-07-16T19:30:39.249Z</time>
      </trkpt>
      <trkpt lat="62.60994" lon="6.33342">
        <ele>6.556609</ele>
        <time>2020-07-16T19:31:14.681Z</time>
      </trkpt>
      <trkpt lat="62.61081" lon="6.33474">
        <ele>6.539639</ele>
        <time>2020-07-16T19:31:33.373Z</time>
      </trkpt>
      <trkpt lat="62.61096" lon="6.33507">
        <ele>6.522915</ele>
        <time>2020-07-16T19:31:37.109Z</time>
      </trkpt>
      <trkpt lat="62.61107" lon="6.33561">
        <ele>6.483715</ele>
        <time>2020-07-16T19:31:41.923Z</time>
      </trkpt>
      <trkpt lat="62.61119" lon="6.33694">
        <ele>6.39423</ele>
        <time>2020-07-16T19:31:52.831Z</time>
      </trkpt>
      <trkpt lat="62.61116" lon="6.33753">
        <ele>6.355727</ele>
        <time>2020-07-16T19:31:57.491Z</time>
      </trkpt>
      <trkpt lat="62.61101" lon="6.33822">
        <ele>6.305416</ele>
        <time>2020-07-16T19:32:03.569Z</time>
      </trkpt>
      <trkpt lat="62.61078" lon="6.33898">
        <ele>6.244665</ele>
        <time>2020-07-16T19:32:10.735Z</time>
      </trkpt>
      <trkpt lat="62.61054" lon="6.33978">
        <ele>6.178605</ele>
        <time>2020-07-16T19:32:18.375Z</time>
      </trkpt>
      <trkpt lat="62.61028" lon="6.34086">
        <ele>6.095102</ele>
        <time>2020-07-16T19:32:28.084Z</time>
      </trkpt>
      <trkpt lat="62.6099" lon="6.3429">
        <ele>6.128638</ele>
        <time>2020-07-16T19:32:45.747Z</time>
      </trkpt>
      <trkpt lat="62.60968" lon="6.34377">
        <ele>6.244948</ele>
        <time>2020-07-16T19:32:54.198Z</time>
      </trkpt>
      <trkpt lat="62.60941" lon="6.34452">
        <ele>6.354677</ele>
        <time>2020-07-16T19:33:02.446Z</time>
      </trkpt>
      <trkpt lat="62.60905" lon="6.34495">
        <ele>6.459552</ele>
        <time>2020-07-16T19:33:10.544Z</time>
      </trkpt>
      <trkpt lat="62.60882" lon="6.3451">
        <ele>6.607922</ele>
        <time>2020-07-16T19:33:15.391Z</time>
      </trkpt>
      <trkpt lat="62.6086" lon="6.34528">
        <ele>6.769729</ele>
        <time>2020-07-16T19:33:20.214Z</time>
      </trkpt>
      <trkpt lat="62.6084" lon="6.34556">
        <ele>6.932819</ele>
        <time>2020-07-16T19:33:24.850Z</time>
      </trkpt>
      <trkpt lat="62.60835" lon="6.34563">
        <ele>6.969252</ele>
        <time>2020-07-16T19:33:26.042Z</time>
      </trkpt>
      <trkpt lat="62.6083" lon="6.34573">
        <ele>7.015618</ele>
        <time>2020-07-16T19:33:27.473Z</time>
      </trkpt>
      <trkpt lat="62.60826" lon="6.34581">
        <ele>7.055631</ele>
        <time>2020-07-16T19:33:28.658Z</time>
      </trkpt>
      <trkpt lat="62.60821" lon="6.34594">
        <ele>7.107331</ele>
        <time>2020-07-16T19:33:30.118Z</time>
      </trkpt>
      <trkpt lat="62.60812" lon="6.34623">
        <ele>7.217202</ele>
        <time>2020-07-16T19:33:33.402Z</time>
      </trkpt>
      <trkpt lat="62.60807" lon="6.34642">
        <ele>7.285908</ele>
        <time>2020-07-16T19:33:35.577Z</time>
      </trkpt>
      <trkpt lat="62.60787" lon="6.34727">
        <ele>7.586821</ele>
        <time>2020-07-16T19:33:44.566Z</time>
      </trkpt>
      <trkpt lat="62.60727" lon="6.34884">
        <ele>7.693205</ele>
        <time>2020-07-16T19:34:02.679Z</time>
      </trkpt>
      <trkpt lat="62.60719" lon="6.34912">
        <ele>7.69325</ele>
        <time>2020-07-16T19:34:05.543Z</time>
      </trkpt>
      <trkpt lat="62.60708" lon="6.34963">
        <ele>7.693327</ele>
        <time>2020-07-16T19:34:09.840Z</time>
      </trkpt>
      <trkpt lat="62.60688" lon="6.3511">
        <ele>7.62969</ele>
        <time>2020-07-16T19:34:21.562Z</time>
      </trkpt>
      <trkpt lat="62.60693" lon="6.35204">
        <ele>7.354012</ele>
        <time>2020-07-16T19:34:28.640Z</time>
      </trkpt>
      <trkpt lat="62.60696" lon="6.35237">
        <ele>7.255237</ele>
        <time>2020-07-16T19:34:31.101Z</time>
      </trkpt>
      <trkpt lat="62.60699" lon="6.35263">
        <ele>7.17501</ele>
        <time>2020-07-16T19:34:33.023Z</time>
      </trkpt>
      <trkpt lat="62.60706" lon="6.35359">
        <ele>6.892582</ele>
        <time>2020-07-16T19:34:40.078Z</time>
      </trkpt>
      <trkpt lat="62.60704" lon="6.35598">
        <ele>6.813665</ele>
        <time>2020-07-16T19:34:58.188Z</time>
      </trkpt>
      <trkpt lat="62.60702" lon="6.35648">
        <ele>6.921494</ele>
        <time>2020-07-16T19:35:02.288Z</time>
      </trkpt>
      <trkpt lat="62.60702" lon="6.35665">
        <ele>6.959696</ele>
        <time>2020-07-16T19:35:03.967Z</time>
      </trkpt>
      <trkpt lat="62.60683" lon="6.35789">
        <ele>7.241899</ele>
        <time>2020-07-16T19:35:15.849Z</time>
      </trkpt>
      <trkpt lat="62.60674" lon="6.35849">
        <ele>7.380822</ele>
        <time>2020-07-16T19:35:22.588Z</time>
      </trkpt>
      <trkpt lat="62.6066" lon="6.3594">
        <ele>8.288512</ele>
        <time>2020-07-16T19:35:32.970Z</time>
      </trkpt>
      <trkpt lat="62.60642" lon="6.3604">
        <ele>9.39003</ele>
        <time>2020-07-16T19:35:45.259Z</time>
      </trkpt>
      <trkpt lat="62.6064" lon="6.3605">
        <ele>9.500353</ele>
        <time>2020-07-16T19:35:46.625Z</time>
      </trkpt>
      <trkpt lat="62.60636" lon="6.36063">
        <ele>9.656173</ele>
        <time>2020-07-16T19:35:48.759Z</time>
      </trkpt>
      <trkpt lat="62.60619" lon="6.36111">
        <ele>10.280358</ele>
        <time>2020-07-16T19:35:55.544Z</time>
      </trkpt>
      <trkpt lat="62.60615" lon="6.36119">
        <ele>10.390751</ele>
        <time>2020-07-16T19:35:57.164Z</time>
      </trkpt>
      <trkpt lat="62.60588" lon="6.36176">
        <ele>11.229512</ele>
        <time>2020-07-16T19:36:06.817Z</time>
      </trkpt>
      <trkpt lat="62.60578" lon="6.36197">
        <ele>11.543613</ele>
        <time>2020-07-16T19:36:10.592Z</time>
      </trkpt>
      <trkpt lat="62.60494" lon="6.3641">
        <ele>14.562773</ele>
        <time>2020-07-16T19:36:43.897Z</time>
      </trkpt>
      <trkpt lat="62.6049" lon="6.3643">
        <ele>14.802583</ele>
        <time>2020-07-16T19:36:46.889Z</time>
      </trkpt>
      <trkpt lat="62.60487" lon="6.36446">
        <ele>14.989227</ele>
        <time>2020-07-16T19:36:48.857Z</time>
      </trkpt>
      <trkpt lat="62.60484" lon="6.36469">
        <ele>15.241609</ele>
        <time>2020-07-16T19:36:51.215Z</time>
      </trkpt>
      <trkpt lat="62.6048" lon="6.36511">
        <ele>15.657336</ele>
        <time>2020-07-16T19:36:56.010Z</time>
      </trkpt>
      <trkpt lat="62.60478" lon="6.36533">
        <ele>15.79893</ele>
        <time>2020-07-16T19:36:58.515Z</time>
      </trkpt>
      <trkpt lat="62.60444" lon="6.36692">
        <ele>16.86606</ele>
        <time>2020-07-16T19:37:16.725Z</time>
      </trkpt>
      <trkpt lat="62.6044" lon="6.36715">
        <ele>17.013513</ele>
        <time>2020-07-16T19:37:19.505Z</time>
      </trkpt>
      <trkpt lat="62.60436" lon="6.36756">
        <ele>17.268107</ele>
        <time>2020-07-16T19:37:23.630Z</time>
      </trkpt>
      <trkpt lat="62.60418" lon="6.36961">
        <ele>17.988681</ele>
        <time>2020-07-16T19:37:42.755Z</time>
      </trkpt>
      <trkpt lat="62.6042" lon="6.36992">
        <ele>17.992043</ele>
        <time>2020-07-16T19:37:45.352Z</time>
      </trkpt>
      <trkpt lat="62.60426" lon="6.37051">
        <ele>17.99842</ele>
        <time>2020-07-16T19:37:50.479Z</time>
      </trkpt>
      <trkpt lat="62.60428" lon="6.37111">
        <ele>18.004896</ele>
        <time>2020-07-16T19:37:55.274Z</time>
      </trkpt>
      <trkpt lat="62.60423" lon="6.3725">
        <ele>18.019737</ele>
        <time>2020-07-16T19:38:05.966Z</time>
      </trkpt>
      <trkpt lat="62.60432" lon="6.37457">
        <ele>17.924858</ele>
        <time>2020-07-16T19:38:22.032Z</time>
      </trkpt>
      <trkpt lat="62.60441" lon="6.37563">
        <ele>17.873229</ele>
        <time>2020-07-16T19:38:30.505Z</time>
      </trkpt>
      <trkpt lat="62.60442" lon="6.37584">
        <ele>17.863117</ele>
        <time>2020-07-16T19:38:32.282Z</time>
      </trkpt>
      <trkpt lat="62.60443" lon="6.37614">
        <ele>17.849072</ele>
        <time>2020-07-16T19:38:35.076Z</time>
      </trkpt>
      <trkpt lat="62.60442" lon="6.37686">
        <ele>18.099778</ele>
        <time>2020-07-16T19:38:41.407Z</time>
      </trkpt>
      <trkpt lat="62.60441" lon="6.37827">
        <ele>19.036038</ele>
        <time>2020-07-16T19:38:55.004Z</time>
      </trkpt>
      <trkpt lat="62.6044" lon="6.37867">
        <ele>19.298833</ele>
        <time>2020-07-16T19:38:59.174Z</time>
      </trkpt>
      <trkpt lat="62.60439" lon="6.37893">
        <ele>19.469854</ele>
        <time>2020-07-16T19:39:01.905Z</time>
      </trkpt>
      <trkpt lat="62.60436" lon="6.37922">
        <ele>19.663801</ele>
        <time>2020-07-16T19:39:05.545Z</time>
      </trkpt>
      <trkpt lat="62.6042" lon="6.38008">
        <ele>20.282531</ele>
        <time>2020-07-16T19:39:16.195Z</time>
      </trkpt>
      <trkpt lat="62.60401" lon="6.38096">
        <ele>21.374057</ele>
        <time>2020-07-16T19:39:27.299Z</time>
      </trkpt>
      <trkpt lat="62.60382" lon="6.38181">
        <ele>22.556652</ele>
        <time>2020-07-16T19:39:38.291Z</time>
      </trkpt>
      <trkpt lat="62.60372" lon="6.38228">
        <ele>23.20144</ele>
        <time>2020-07-16T19:39:44.840Z</time>
      </trkpt>
      <trkpt lat="62.60369" lon="6.38243">
        <ele>23.40654</ele>
        <time>2020-07-16T19:39:46.758Z</time>
      </trkpt>
      <trkpt lat="62.60355" lon="6.38319">
        <ele>24.446045</ele>
        <time>2020-07-16T19:39:57.205Z</time>
      </trkpt>
      <trkpt lat="62.60345" lon="6.38411">
        <ele>25.739439</ele>
        <time>2020-07-16T19:40:09.594Z</time>
      </trkpt>
      <trkpt lat="62.60346" lon="6.38489">
        <ele>27.048103</ele>
        <time>2020-07-16T19:40:19.605Z</time>
      </trkpt>
      <trkpt lat="62.60346" lon="6.38575">
        <ele>28.494867</ele>
        <time>2020-07-16T19:40:31.305Z</time>
      </trkpt>
      <trkpt lat="62.60346" lon="6.38693">
        <ele>30.487967</ele>
        <time>2020-07-16T19:40:47.477Z</time>
      </trkpt>
      <trkpt lat="62.60349" lon="6.38744">
        <ele>31.365244</ele>
        <time>2020-07-16T19:40:54.681Z</time>
      </trkpt>
      <trkpt lat="62.60361" lon="6.38794">
        <ele>32.508428</ele>
        <time>2020-07-16T19:41:01.930Z</time>
      </trkpt>
      <trkpt lat="62.60367" lon="6.38815">
        <ele>33.185492</ele>
        <time>2020-07-16T19:41:06.007Z</time>
      </trkpt>
      <trkpt lat="62.60379" lon="6.3885">
        <ele>34.326018</ele>
        <time>2020-07-16T19:41:12.049Z</time>
      </trkpt>
      <trkpt lat="62.60422" lon="6.38985">
        <ele>38.63573</ele>
        <time>2020-07-16T19:41:40.533Z</time>
      </trkpt>
      <trkpt lat="62.60427" lon="6.39039">
        <ele>40.092707</ele>
        <time>2020-07-16T19:41:49.963Z</time>
      </trkpt>
      <trkpt lat="62.60428" lon="6.39121">
        <ele>42.255553</ele>
        <time>2020-07-16T19:42:04.902Z</time>
      </trkpt>
      <trkpt lat="62.60428" lon="6.3918">
        <ele>43.922324</ele>
        <time>2020-07-16T19:42:15.404Z</time>
      </trkpt>
      <trkpt lat="62.60429" lon="6.39214">
        <ele>44.86981</ele>
        <time>2020-07-16T19:42:22.256Z</time>
      </trkpt>
      <trkpt lat="62.60441" lon="6.39327">
        <ele>48.12377</ele>
        <time>2020-07-16T19:42:43.612Z</time>
      </trkpt>
      <trkpt lat="62.60507" lon="6.39684">
        <ele>54.311314</ele>
        <time>2020-07-16T19:43:44.392Z</time>
      </trkpt>
      <trkpt lat="62.60509" lon="6.39695">
        <ele>54.378678</ele>
        <time>2020-07-16T19:43:46.736Z</time>
      </trkpt>
      <trkpt lat="62.60516" lon="6.39733">
        <ele>54.61571</ele>
        <time>2020-07-16T19:43:49.703Z</time>
      </trkpt>
      <trkpt lat="62.60595" lon="6.40003">
        <ele>51.40325</ele>
        <time>2020-07-16T19:44:07.817Z</time>
      </trkpt>
      <trkpt lat="62.60603" lon="6.40035">
        <ele>50.618019</ele>
        <time>2020-07-16T19:44:09.768Z</time>
      </trkpt>
      <trkpt lat="62.60606" lon="6.40033">
        <ele>50.498652</ele>
        <time>2020-07-16T19:44:10.075Z</time>
      </trkpt>
      <trkpt lat="62.6061" lon="6.40027">
        <ele>50.269993</ele>
        <time>2020-07-16T19:44:10.717Z</time>
      </trkpt>
      <trkpt lat="62.60617" lon="6.40057">
        <ele>49.568459</ele>
        <time>2020-07-16T19:44:12.641Z</time>
      </trkpt>
      <trkpt lat="62.60642" lon="6.40154">
        <ele>47.212787</ele>
        <time>2020-07-16T19:44:19.197Z</time>
      </trkpt>
      <trkpt lat="62.60651" lon="6.40215">
        <ele>47.094271</ele>
        <time>2020-07-16T19:44:23.255Z</time>
      </trkpt>
      <trkpt lat="62.6065" lon="6.40227">
        <ele>47.095131</ele>
        <time>2020-07-16T19:44:23.951Z</time>
      </trkpt>
      <trkpt lat="62.6065" lon="6.40233">
        <ele>47.095585</ele>
        <time>2020-07-16T19:44:24.644Z</time>
      </trkpt>
      <trkpt lat="62.60677" lon="6.40422">
        <ele>47.110319</ele>
        <time>2020-07-16T19:44:40.466Z</time>
      </trkpt>
      <trkpt lat="62.60679" lon="6.40433">
        <ele>47.111216</ele>
        <time>2020-07-16T19:44:41.980Z</time>
      </trkpt>
      <trkpt lat="62.6068" lon="6.40455">
        <ele>47.112827</ele>
        <time>2020-07-16T19:44:45.140Z</time>
      </trkpt>
      <trkpt lat="62.60686" lon="6.40566">
        <ele>47.693792</ele>
        <time>2020-07-16T19:44:59.746Z</time>
      </trkpt>
      <trkpt lat="62.60704" lon="6.40748">
        <ele>51.314595</ele>
        <time>2020-07-16T19:45:28.929Z</time>
      </trkpt>
      <trkpt lat="62.60704" lon="6.40844">
        <ele>53.190288</ele>
        <time>2020-07-16T19:45:44.329Z</time>
      </trkpt>
      <trkpt lat="62.60705" lon="6.40859">
        <ele>53.491905</ele>
        <time>2020-07-16T19:45:46.297Z</time>
      </trkpt>
      <trkpt lat="62.60708" lon="6.40879">
        <ele>53.888135</ele>
        <time>2020-07-16T19:45:48.645Z</time>
      </trkpt>
      <trkpt lat="62.60708" lon="6.4091">
        <ele>54.505195</ele>
        <time>2020-07-16T19:45:54.488Z</time>
      </trkpt>
      <trkpt lat="62.60717" lon="6.41039">
        <ele>55.318603</ele>
        <time>2020-07-16T19:46:11.416Z</time>
      </trkpt>
      <trkpt lat="62.60719" lon="6.41061">
        <ele>55.425327</ele>
        <time>2020-07-16T19:46:15.470Z</time>
      </trkpt>
      <trkpt lat="62.60723" lon="6.41095">
        <ele>55.597093</ele>
        <time>2020-07-16T19:46:19.457Z</time>
      </trkpt>
      <trkpt lat="62.60782" lon="6.41433">
        <ele>54.450401</ele>
        <time>2020-07-16T19:46:46.339Z</time>
      </trkpt>
      <trkpt lat="62.60798" lon="6.41494">
        <ele>53.406904</ele>
        <time>2020-07-16T19:46:50.533Z</time>
      </trkpt>
      <trkpt lat="62.60805" lon="6.41526">
        <ele>52.876883</ele>
        <time>2020-07-16T19:46:52.623Z</time>
      </trkpt>
      <trkpt lat="62.60835" lon="6.41758">
        <ele>48.381253</ele>
        <time>2020-07-16T19:47:06.871Z</time>
      </trkpt>
      <trkpt lat="62.60863" lon="6.41938">
        <ele>43.866809</ele>
        <time>2020-07-16T19:47:18.119Z</time>
      </trkpt>
      <trkpt lat="62.60868" lon="6.41996">
        <ele>42.483597</ele>
        <time>2020-07-16T19:47:21.539Z</time>
      </trkpt>
      <trkpt lat="62.60869" lon="6.42022">
        <ele>41.85811</ele>
        <time>2020-07-16T19:47:23.005Z</time>
      </trkpt>
      <trkpt lat="62.60887" lon="6.42168">
        <ele>37.818169</ele>
        <time>2020-07-16T19:47:31.425Z</time>
      </trkpt>
      <trkpt lat="62.60912" lon="6.42255">
        <ele>35.058464</ele>
        <time>2020-07-16T19:47:37.142Z</time>
      </trkpt>
      <trkpt lat="62.60938" lon="6.42333">
        <ele>32.437492</ele>
        <time>2020-07-16T19:47:42.652Z</time>
      </trkpt>
      <trkpt lat="62.60953" lon="6.42376">
        <ele>30.98407</ele>
        <time>2020-07-16T19:47:45.828Z</time>
      </trkpt>
      <trkpt lat="62.60991" lon="6.42503">
        <ele>30.273492</ele>
        <time>2020-07-16T19:47:55.166Z</time>
      </trkpt>
      <trkpt lat="62.61025" lon="6.42696">
        <ele>29.355901</ele>
        <time>2020-07-16T19:48:13.430Z</time>
      </trkpt>
      <trkpt lat="62.61024" lon="6.42739">
        <ele>29.370417</ele>
        <time>2020-07-16T19:48:19.298Z</time>
      </trkpt>
      <trkpt lat="62.61003" lon="6.42831">
        <ele>31.28537</ele>
        <time>2020-07-16T19:48:33.481Z</time>
      </trkpt>
      <trkpt lat="62.60994" lon="6.42889">
        <ele>32.429487</ele>
        <time>2020-07-16T19:48:42.762Z</time>
      </trkpt>
      <trkpt lat="62.60983" lon="6.42948">
        <ele>33.604447</ele>
        <time>2020-07-16T19:48:52.502Z</time>
      </trkpt>
      <trkpt lat="62.60978" lon="6.43039">
        <ele>35.296366</ele>
        <time>2020-07-16T19:49:06.818Z</time>
      </trkpt>
      <trkpt lat="62.60986" lon="6.43373">
        <ele>41.45587</ele>
        <time>2020-07-16T19:49:58.820Z</time>
      </trkpt>
      <trkpt lat="62.60985" lon="6.43474">
        <ele>43.294483</ele>
        <time>2020-07-16T19:50:11.404Z</time>
      </trkpt>
      <trkpt lat="62.60979" lon="6.43576">
        <ele>43.490675</ele>
        <time>2020-07-16T19:50:23.659Z</time>
      </trkpt>
      <trkpt lat="62.60966" lon="6.43646">
        <ele>43.361981</ele>
        <time>2020-07-16T19:50:32.010Z</time>
      </trkpt>
      <trkpt lat="62.60961" lon="6.43665">
        <ele>43.323949</ele>
        <time>2020-07-16T19:50:33.650Z</time>
      </trkpt>
      <trkpt lat="62.60965" lon="6.43672">
        <ele>43.305272</ele>
        <time>2020-07-16T19:50:34.386Z</time>
      </trkpt>
      <trkpt lat="62.60967" lon="6.43676">
        <ele>43.293941</ele>
        <time>2020-07-16T19:50:34.834Z</time>
      </trkpt>
      <trkpt lat="62.6096" lon="6.43694">
        <ele>43.254207</ele>
        <time>2020-07-16T19:50:36.990Z</time>
      </trkpt>
      <trkpt lat="62.60924" lon="6.438">
        <ele>43.029364</ele>
        <time>2020-07-16T19:50:46.028Z</time>
      </trkpt>
      <trkpt lat="62.60898" lon="6.43834">
        <ele>42.174978</ele>
        <time>2020-07-16T19:50:50.413Z</time>
      </trkpt>
      <trkpt lat="62.60894" lon="6.43835">
        <ele>41.982736</ele>
        <time>2020-07-16T19:50:50.814Z</time>
      </trkpt>
      <trkpt lat="62.60885" lon="6.43837">
        <ele>41.475457</ele>
        <time>2020-07-16T19:50:52.081Z</time>
      </trkpt>
      <trkpt lat="62.60873" lon="6.43839">
        <ele>40.771356</ele>
        <time>2020-07-16T19:50:53.959Z</time>
      </trkpt>
      <trkpt lat="62.60871" lon="6.43844">
        <ele>40.609796</ele>
        <time>2020-07-16T19:50:54.268Z</time>
      </trkpt>
      <trkpt lat="62.60723" lon="6.43927">
        <ele>31.931632</ele>
        <time>2020-07-16T19:51:12.918Z</time>
      </trkpt>
      <trkpt lat="62.60686" lon="6.43932">
        <ele>29.663394</ele>
        <time>2020-07-16T19:51:17.297Z</time>
      </trkpt>
      <trkpt lat="62.60668" lon="6.43936">
        <ele>28.536504</ele>
        <time>2020-07-16T19:51:19.463Z</time>
      </trkpt>
      <trkpt lat="62.60639" lon="6.43958">
        <ele>26.612377</ele>
        <time>2020-07-16T19:51:23.251Z</time>
      </trkpt>
      <trkpt lat="62.60575" lon="6.43983">
        <ele>22.56859</ele>
        <time>2020-07-16T19:51:31.332Z</time>
      </trkpt>
      <trkpt lat="62.60571" lon="6.43993">
        <ele>22.215094</ele>
        <time>2020-07-16T19:51:32.000Z</time>
      </trkpt>
      <trkpt lat="62.60567" lon="6.44013">
        <ele>21.648956</ele>
        <time>2020-07-16T19:51:33.302Z</time>
      </trkpt>
      <trkpt lat="62.60564" lon="6.44024">
        <ele>21.471863</ele>
        <time>2020-07-16T19:51:34.033Z</time>
      </trkpt>
      <trkpt lat="62.60544" lon="6.44069">
        <ele>20.594666</ele>
        <time>2020-07-16T19:51:37.811Z</time>
      </trkpt>
      <trkpt lat="62.605" lon="6.44076">
        <ele>19.258196</ele>
        <time>2020-07-16T19:51:43.897Z</time>
      </trkpt>
      <trkpt lat="62.60496" lon="6.44087">
        <ele>19.067512</ele>
        <time>2020-07-16T19:51:44.881Z</time>
      </trkpt>
      <trkpt lat="62.60494" lon="6.44104">
        <ele>18.824325</ele>
        <time>2020-07-16T19:51:45.982Z</time>
      </trkpt>
      <trkpt lat="62.6052" lon="6.44095">
        <ele>18.028025</ele>
        <time>2020-07-16T19:51:49.482Z</time>
      </trkpt>
      <trkpt lat="62.60594" lon="6.44098">
        <ele>16.079612</ele>
        <time>2020-07-16T19:52:00.070Z</time>
      </trkpt>
      <trkpt lat="62.60649" lon="6.44146">
        <ele>15.420955</ele>
        <time>2020-07-16T19:52:09.164Z</time>
      </trkpt>
      <trkpt lat="62.60672" lon="6.44182">
        <ele>15.098254</ele>
        <time>2020-07-16T19:52:14.101Z</time>
      </trkpt>
      <trkpt lat="62.60692" lon="6.4423">
        <ele>14.766331</ele>
        <time>2020-07-16T19:52:19.500Z</time>
      </trkpt>
      <trkpt lat="62.60712" lon="6.44305">
        <ele>14.316319</ele>
        <time>2020-07-16T19:52:26.208Z</time>
      </trkpt>
      <trkpt lat="62.60722" lon="6.44375">
        <ele>13.261435</ele>
        <time>2020-07-16T19:52:30.762Z</time>
      </trkpt>
      <trkpt lat="62.6074" lon="6.44557">
        <ele>10.121942</ele>
        <time>2020-07-16T19:52:41.619Z</time>
      </trkpt>
      <trkpt lat="62.60749" lon="6.44656">
        <ele>8.423106</ele>
        <time>2020-07-16T19:52:47.383Z</time>
      </trkpt>
      <trkpt lat="62.60752" lon="6.44679">
        <ele>8.024438</ele>
        <time>2020-07-16T19:52:48.641Z</time>
      </trkpt>
      <trkpt lat="62.60758" lon="6.44747">
        <ele>6.908167</ele>
        <time>2020-07-16T19:52:52.629Z</time>
      </trkpt>
      <trkpt lat="62.6076" lon="6.44762">
        <ele>6.657667</ele>
        <time>2020-07-16T19:52:53.473Z</time>
      </trkpt>
      <trkpt lat="62.6077" lon="6.4482">
        <ele>5.68157</ele>
        <time>2020-07-16T19:52:57.014Z</time>
      </trkpt>
      <trkpt lat="62.60784" lon="6.44863">
        <ele>4.841758</ele>
        <time>2020-07-16T19:53:00.014Z</time>
      </trkpt>
      <trkpt lat="62.60812" lon="6.44945">
        <ele>3.215698</ele>
        <time>2020-07-16T19:53:06.616Z</time>
      </trkpt>
      <trkpt lat="62.61077" lon="6.4511">
        <ele>0.22065</ele>
        <time>2020-07-16T19:53:44.986Z</time>
      </trkpt>
      <trkpt lat="62.61145" lon="6.45054">
        <ele>0.101492</ele>
        <time>2020-07-16T19:53:55.123Z</time>
      </trkpt>
      <trkpt lat="62.61251" lon="6.4491">
        <time>2020-07-16T19:54:12.514Z</time>
      </trkpt>
      <trkpt lat="62.61346" lon="6.44878">
        <time>2020-07-16T19:54:25.849Z</time>
      </trkpt>
      <trkpt lat="62.61399" lon="6.44931">
        <time>2020-07-16T19:54:33.992Z</time>
      </trkpt>
      <trkpt lat="62.61478" lon="6.45117">
        <time>2020-07-16T19:54:50.291Z</time>
      </trkpt>
      <trkpt lat="62.61645" lon="6.45672">
        <time>2020-07-16T19:55:32.826Z</time>
      </trkpt>
      <trkpt lat="62.61896" lon="6.46557">
        <time>2020-07-16T19:56:39.463Z</time>
      </trkpt>
      <trkpt lat="62.62703" lon="6.49476">
        <time>2020-07-16T20:00:17.976Z</time>
      </trkpt>
      <trkpt lat="62.63613" lon="6.52738">
        <time>2020-07-16T20:04:22.584Z</time>
      </trkpt>
      <trkpt lat="62.6367" lon="6.5287">
        <ele>0.008613</ele>
        <time>2020-07-16T20:04:34.205Z</time>
      </trkpt>
      <trkpt lat="62.63715" lon="6.5294">
        <ele>0.028127</ele>
        <time>2020-07-16T20:04:41.805Z</time>
      </trkpt>
      <trkpt lat="62.63749" lon="6.52966">
        <ele>0.041237</ele>
        <time>2020-07-16T20:04:46.908Z</time>
      </trkpt>
      <trkpt lat="62.63797" lon="6.52975">
        <ele>0.058481</ele>
        <time>2020-07-16T20:04:53.608Z</time>
      </trkpt>
      <trkpt lat="62.63842" lon="6.5294">
        <ele>0.210631</ele>
        <time>2020-07-16T20:05:00.293Z</time>
      </trkpt>
      <trkpt lat="62.63884" lon="6.52873">
        <ele>0.452017</ele>
        <time>2020-07-16T20:05:07.530Z</time>
      </trkpt>
      <trkpt lat="62.63922" lon="6.52786">
        <ele>0.706233</ele>
        <time>2020-07-16T20:05:15.146Z</time>
      </trkpt>
      <trkpt lat="62.63942" lon="6.52717">
        <ele>0.883042</ele>
        <time>2020-07-16T20:05:20.449Z</time>
      </trkpt>
      <trkpt lat="62.63963" lon="6.52387">
        <ele>3.141595</ele>
        <time>2020-07-16T20:05:41.829Z</time>
      </trkpt>
      <trkpt lat="62.63973" lon="6.52307">
        <ele>3.638867</ele>
        <time>2020-07-16T20:05:47.061Z</time>
      </trkpt>
      <trkpt lat="62.63976" lon="6.52273">
        <ele>3.728888</ele>
        <time>2020-07-16T20:05:50.561Z</time>
      </trkpt>
      <trkpt lat="62.63985" lon="6.52259">
        <ele>3.792895</ele>
        <time>2020-07-16T20:05:53.392Z</time>
      </trkpt>
      <trkpt lat="62.63996" lon="6.52318">
        <ele>3.958418</ele>
        <time>2020-07-16T20:05:59.778Z</time>
      </trkpt>
      <trkpt lat="62.64001" lon="6.52348">
        <ele>4.039942</ele>
        <time>2020-07-16T20:06:02.973Z</time>
      </trkpt>
      <trkpt lat="62.6409" lon="6.52923">
        <ele>4.276024</ele>
        <time>2020-07-16T20:06:51.249Z</time>
      </trkpt>
      <trkpt lat="62.64183" lon="6.53342">
        <ele>3.883244</ele>
        <time>2020-07-16T20:07:27.612Z</time>
      </trkpt>
      <trkpt lat="62.64306" lon="6.53754">
        <ele>4.155584</ele>
        <time>2020-07-16T20:08:09.827Z</time>
      </trkpt>
      <trkpt lat="62.64465" lon="6.54384">
        <ele>3.808712</ele>
        <time>2020-07-16T20:09:08.438Z</time>
      </trkpt>
      <trkpt lat="62.6449" lon="6.54489">
        <ele>3.473422</ele>
        <time>2020-07-16T20:09:17.158Z</time>
      </trkpt>
      <trkpt lat="62.64556" lon="6.54839">
        <ele>2.304998</ele>
        <time>2020-07-16T20:09:44.123Z</time>
      </trkpt>
      <trkpt lat="62.64586" lon="6.54959">
        <ele>1.85383</ele>
        <time>2020-07-16T20:09:54.329Z</time>
      </trkpt>
      <trkpt lat="62.64629" lon="6.55088">
        <ele>1.825368</ele>
        <time>2020-07-16T20:10:07.147Z</time>
      </trkpt>
      <trkpt lat="62.64716" lon="6.55287">
        <ele>2.122595</ele>
        <time>2020-07-16T20:10:31.573Z</time>
      </trkpt>
      <trkpt lat="62.6474" lon="6.55362">
        <ele>2.102117</ele>
        <time>2020-07-16T20:10:39.630Z</time>
      </trkpt>
      <trkpt lat="62.64812" lon="6.55626">
        <ele>2.015687</ele>
        <time>2020-07-16T20:11:04.149Z</time>
      </trkpt>
      <trkpt lat="62.64905" lon="6.55878">
        <ele>2.033226</ele>
        <time>2020-07-16T20:11:28.534Z</time>
      </trkpt>
      <trkpt lat="62.64928" lon="6.55915">
        <ele>2.036649</ele>
        <time>2020-07-16T20:11:34.625Z</time>
      </trkpt>
      <trkpt lat="62.64953" lon="6.55936">
        <ele>2.813194</ele>
        <time>2020-07-16T20:11:40.810Z</time>
      </trkpt>
      <trkpt lat="62.64981" lon="6.55944">
        <ele>3.646885</ele>
        <time>2020-07-16T20:11:47.836Z</time>
      </trkpt>
      <trkpt lat="62.65019" lon="6.55937">
        <ele>4.82168</ele>
        <time>2020-07-16T20:11:58.837Z</time>
      </trkpt>
      <trkpt lat="62.65111" lon="6.5591">
        <ele>7.572894</ele>
        <time>2020-07-16T20:12:26.749Z</time>
      </trkpt>
      <trkpt lat="62.65171" lon="6.55903">
        <ele>9.07912</ele>
        <time>2020-07-16T20:12:45.534Z</time>
      </trkpt>
      <trkpt lat="62.6521" lon="6.5592">
        <ele>10.070726</ele>
        <time>2020-07-16T20:12:57.015Z</time>
      </trkpt>
      <trkpt lat="62.65263" lon="6.5598">
        <ele>11.561106</ele>
        <time>2020-07-16T20:13:10.723Z</time>
      </trkpt>
      <trkpt lat="62.65288" lon="6.56034">
        <ele>11.59972</ele>
        <time>2020-07-16T20:13:16.922Z</time>
      </trkpt>
      <trkpt lat="62.65311" lon="6.56113">
        <ele>10.815068</ele>
        <time>2020-07-16T20:13:23.381Z</time>
      </trkpt>
      <trkpt lat="62.65321" lon="6.56175">
        <ele>10.269705</ele>
        <time>2020-07-16T20:13:27.619Z</time>
      </trkpt>
      <trkpt lat="62.65327" lon="6.56253">
        <ele>9.615069</ele>
        <time>2020-07-16T20:13:32.556Z</time>
      </trkpt>
      <trkpt lat="62.65326" lon="6.56319">
        <ele>9.061817</ele>
        <time>2020-07-16T20:13:36.616Z</time>
      </trkpt>
      <trkpt lat="62.65312" lon="6.56426">
        <ele>8.002174</ele>
        <time>2020-07-16T20:13:43.262Z</time>
      </trkpt>
      <trkpt lat="62.65298" lon="6.5648">
        <ele>7.358618</ele>
        <time>2020-07-16T20:13:46.996Z</time>
      </trkpt>
      <trkpt lat="62.65236" lon="6.56654">
        <ele>5.079923</ele>
        <time>2020-07-16T20:14:01.010Z</time>
      </trkpt>
      <trkpt lat="62.65212" lon="6.56774">
        <ele>4.837213</ele>
        <time>2020-07-16T20:14:10.296Z</time>
      </trkpt>
      <trkpt lat="62.65196" lon="6.57005">
        <ele>5.380818</ele>
        <time>2020-07-16T20:14:31.520Z</time>
      </trkpt>
      <trkpt lat="62.65195" lon="6.57084">
        <ele>5.689002</ele>
        <time>2020-07-16T20:14:40.461Z</time>
      </trkpt>
      <trkpt lat="62.65201" lon="6.57168">
        <ele>6.95144</ele>
        <time>2020-07-16T20:14:50.833Z</time>
      </trkpt>
      <trkpt lat="62.65215" lon="6.57242">
        <ele>8.130592</ele>
        <time>2020-07-16T20:15:01.054Z</time>
      </trkpt>
      <trkpt lat="62.65257" lon="6.57361">
        <ele>10.365276</ele>
        <time>2020-07-16T20:15:21.856Z</time>
      </trkpt>
      <trkpt lat="62.65367" lon="6.57562">
        <ele>15.122886</ele>
        <time>2020-07-16T20:16:04.817Z</time>
      </trkpt>
      <trkpt lat="62.65401" lon="6.57636">
        <ele>16.750368</ele>
        <time>2020-07-16T20:16:17.880Z</time>
      </trkpt>
      <trkpt lat="62.6544" lon="6.57772">
        <ele>18.782863</ele>
        <time>2020-07-16T20:16:36.857Z</time>
      </trkpt>
      <trkpt lat="62.65453" lon="6.57859">
        <ele>19.863325</ele>
        <time>2020-07-16T20:16:47.232Z</time>
      </trkpt>
      <trkpt lat="62.65548" lon="6.58496">
        <ele>28.383853</ele>
        <time>2020-07-16T20:18:09.172Z</time>
      </trkpt>
      <trkpt lat="62.65584" lon="6.58691">
        <ele>31.330287</ele>
        <time>2020-07-16T20:18:38.114Z</time>
      </trkpt>
      <trkpt lat="62.6569" lon="6.59132">
        <ele>35.259006</ele>
        <time>2020-07-16T20:19:34.565Z</time>
      </trkpt>
      <trkpt lat="62.65725" lon="6.59251">
        <ele>33.058738</ele>
        <time>2020-07-16T20:19:43.260Z</time>
      </trkpt>
      <trkpt lat="62.65759" lon="6.59329">
        <ele>31.356923</ele>
        <time>2020-07-16T20:19:49.425Z</time>
      </trkpt>
      <trkpt lat="62.65856" lon="6.59481">
        <ele>26.937815</ele>
        <time>2020-07-16T20:20:03.555Z</time>
      </trkpt>
      <trkpt lat="62.65893" lon="6.59532">
        <ele>25.207098</ele>
        <time>2020-07-16T20:20:08.896Z</time>
      </trkpt>
      <trkpt lat="62.6593" lon="6.59561">
        <ele>23.647407</ele>
        <time>2020-07-16T20:20:13.915Z</time>
      </trkpt>
      <trkpt lat="62.65979" lon="6.59585">
        <ele>22.813889</ele>
        <time>2020-07-16T20:20:21.353Z</time>
      </trkpt>
      <trkpt lat="62.66013" lon="6.59619">
        <ele>23.801474</ele>
        <time>2020-07-16T20:20:28.552Z</time>
      </trkpt>
      <trkpt lat="62.66033" lon="6.59643">
        <ele>24.419742</ele>
        <time>2020-07-16T20:20:33.782Z</time>
      </trkpt>
      <trkpt lat="62.66018" lon="6.59698">
        <ele>25.205237</ele>
        <time>2020-07-16T20:20:41.257Z</time>
      </trkpt>
      <trkpt lat="62.65984" lon="6.5983">
        <ele>27.050564</ele>
        <time>2020-07-16T20:21:04.657Z</time>
      </trkpt>
      <trkpt lat="62.6597" lon="6.59921">
        <ele>29.416351</ele>
        <time>2020-07-16T20:21:24.644Z</time>
      </trkpt>
      <trkpt lat="62.65939" lon="6.60015">
        <ele>32.326694</ele>
        <time>2020-07-16T20:21:45.661Z</time>
      </trkpt>
      <trkpt lat="62.65925" lon="6.60114">
        <ele>34.954446</ele>
        <time>2020-07-16T20:22:02.851Z</time>
      </trkpt>
      <trkpt lat="62.65911" lon="6.60211">
        <ele>37.073214</ele>
        <time>2020-07-16T20:22:16.677Z</time>
      </trkpt>
      <trkpt lat="62.65889" lon="6.60257">
        <ele>37.109989</ele>
        <time>2020-07-16T20:22:23.387Z</time>
      </trkpt>
      <trkpt lat="62.65813" lon="6.60331">
        <ele>37.208791</ele>
        <time>2020-07-16T20:22:40.095Z</time>
      </trkpt>
      <trkpt lat="62.6578" lon="6.60409">
        <ele>37.266985</ele>
        <time>2020-07-16T20:22:46.483Z</time>
      </trkpt>
      <trkpt lat="62.65736" lon="6.60545">
        <ele>37.114191</ele>
        <time>2020-07-16T20:22:56.954Z</time>
      </trkpt>
      <trkpt lat="62.65678" lon="6.60647">
        <ele>36.933964</ele>
        <time>2020-07-16T20:23:09.901Z</time>
      </trkpt>
      <trkpt lat="62.65662" lon="6.60689">
        <ele>36.874346</ele>
        <time>2020-07-16T20:23:16.318Z</time>
      </trkpt>
      <trkpt lat="62.65654" lon="6.60727">
        <ele>36.990074</ele>
        <time>2020-07-16T20:23:21.624Z</time>
      </trkpt>
      <trkpt lat="62.65652" lon="6.6081">
        <ele>37.905537</ele>
        <time>2020-07-16T20:23:32.804Z</time>
      </trkpt>
      <trkpt lat="62.65657" lon="6.60926">
        <ele>39.170975</ele>
        <time>2020-07-16T20:23:47.421Z</time>
      </trkpt>
      <trkpt lat="62.65703" lon="6.61108">
        <ele>40.900171</ele>
        <time>2020-07-16T20:24:11.143Z</time>
      </trkpt>
      <trkpt lat="62.65724" lon="6.61224">
        <ele>39.971957</ele>
        <time>2020-07-16T20:24:22.194Z</time>
      </trkpt>
      <trkpt lat="62.65728" lon="6.61275">
        <ele>39.58049</ele>
        <time>2020-07-16T20:24:26.199Z</time>
      </trkpt>
      <trkpt lat="62.6571" lon="6.61573">
        <ele>35.526522</ele>
        <time>2020-07-16T20:24:43.406Z</time>
      </trkpt>
      <trkpt lat="62.65712" lon="6.6169">
        <ele>32.810578</ele>
        <time>2020-07-16T20:24:49.747Z</time>
      </trkpt>
      <trkpt lat="62.65707" lon="6.61784">
        <ele>30.606836</ele>
        <time>2020-07-16T20:24:54.930Z</time>
      </trkpt>
      <trkpt lat="62.65671" lon="6.61905">
        <ele>28.157637</ele>
        <time>2020-07-16T20:25:02.950Z</time>
      </trkpt>
      <trkpt lat="62.65665" lon="6.6195">
        <ele>27.590227</ele>
        <time>2020-07-16T20:25:05.663Z</time>
      </trkpt>
      <trkpt lat="62.65653" lon="6.62205">
        <ele>24.554449</ele>
        <time>2020-07-16T20:25:22.441Z</time>
      </trkpt>
      <trkpt lat="62.65676" lon="6.62594">
        <ele>25.001727</ele>
        <time>2020-07-16T20:25:58.430Z</time>
      </trkpt>
      <trkpt lat="62.65686" lon="6.62801">
        <ele>24.544916</ele>
        <time>2020-07-16T20:26:16.206Z</time>
      </trkpt>
      <trkpt lat="62.6567" lon="6.62952">
        <ele>24.181888</ele>
        <time>2020-07-16T20:26:27.218Z</time>
      </trkpt>
      <trkpt lat="62.65643" lon="6.63135">
        <ele>22.732412</ele>
        <time>2020-07-16T20:26:39.638Z</time>
      </trkpt>
      <trkpt lat="62.65637" lon="6.63261">
        <ele>21.616375</ele>
        <time>2020-07-16T20:26:47.701Z</time>
      </trkpt>
      <trkpt lat="62.65638" lon="6.63349">
        <ele>20.845715</ele>
        <time>2020-07-16T20:26:53.294Z</time>
      </trkpt>
      <trkpt lat="62.65659" lon="6.63711">
        <ele>19.952838</ele>
        <time>2020-07-16T20:27:19.449Z</time>
      </trkpt>
      <trkpt lat="62.65707" lon="6.63936">
        <ele>22.93663</ele>
        <time>2020-07-16T20:27:47.593Z</time>
      </trkpt>
      <trkpt lat="62.65876" lon="6.64609">
        <ele>38.881896</ele>
        <time>2020-07-16T20:29:48.107Z</time>
      </trkpt>
      <trkpt lat="62.65945" lon="6.64926">
        <ele>45.019753</ele>
        <time>2020-07-16T20:30:37.274Z</time>
      </trkpt>
      <trkpt lat="62.65978" lon="6.65038">
        <ele>46.748527</ele>
        <time>2020-07-16T20:30:53.364Z</time>
      </trkpt>
      <trkpt lat="62.66" lon="6.65171">
        <ele>48.342136</ele>
        <time>2020-07-16T20:31:08.837Z</time>
      </trkpt>
      <trkpt lat="62.66062" lon="6.65488">
        <ele>49.664705</ele>
        <time>2020-07-16T20:31:43.107Z</time>
      </trkpt>
      <trkpt lat="62.66103" lon="6.65617">
        <ele>46.757481</ele>
        <time>2020-07-16T20:31:53.460Z</time>
      </trkpt>
      <trkpt lat="62.66114" lon="6.65679">
        <ele>45.271673</ele>
        <time>2020-07-16T20:31:57.423Z</time>
      </trkpt>
      <trkpt lat="62.66129" lon="6.658">
        <ele>42.510004</ele>
        <time>2020-07-16T20:32:04.202Z</time>
      </trkpt>
      <trkpt lat="62.66148" lon="6.65908">
        <ele>38.141139</ele>
        <time>2020-07-16T20:32:10.060Z</time>
      </trkpt>
      <trkpt lat="62.66162" lon="6.66038">
        <ele>30.535826</ele>
        <time>2020-07-16T20:32:16.491Z</time>
      </trkpt>
      <trkpt lat="62.66203" lon="6.66281">
        <ele>16.897924</ele>
        <time>2020-07-16T20:32:28.991Z</time>
      </trkpt>
      <trkpt lat="62.66222" lon="6.66364">
        <ele>13.69308</ele>
        <time>2020-07-16T20:32:33.612Z</time>
      </trkpt>
      <trkpt lat="62.66247" lon="6.66445">
        <ele>10.325389</ele>
        <time>2020-07-16T20:32:38.662Z</time>
      </trkpt>
      <trkpt lat="62.66267" lon="6.66471">
        <ele>8.574806</ele>
        <time>2020-07-16T20:32:41.414Z</time>
      </trkpt>
      <trkpt lat="62.66342" lon="6.66457">
        <ele>6.140176</ele>
        <time>2020-07-16T20:32:52.015Z</time>
      </trkpt>
      <trkpt lat="62.664" lon="6.66483">
        <ele>8.042765</ele>
        <time>2020-07-16T20:33:09.049Z</time>
      </trkpt>
      <trkpt lat="62.66426" lon="6.66459">
        <ele>8.941947</ele>
        <time>2020-07-16T20:33:18.269Z</time>
      </trkpt>
      <trkpt lat="62.66483" lon="6.66346">
        <ele>11.895715</ele>
        <time>2020-07-16T20:33:46.115Z</time>
      </trkpt>
      <trkpt lat="62.66513" lon="6.66293">
        <ele>14.489218</ele>
        <time>2020-07-16T20:34:01.546Z</time>
      </trkpt>
      <trkpt lat="62.66573" lon="6.6626">
        <ele>18.622044</ele>
        <time>2020-07-16T20:34:27.015Z</time>
      </trkpt>
      <trkpt lat="62.66626" lon="6.66192">
        <ele>22.743269</ele>
        <time>2020-07-16T20:34:52.144Z</time>
      </trkpt>
      <trkpt lat="62.66689" lon="6.66156">
        <ele>25.880129</ele>
        <time>2020-07-16T20:35:15.415Z</time>
      </trkpt>
      <trkpt lat="62.66785" lon="6.66042">
        <ele>31.100943</ele>
        <time>2020-07-16T20:35:49.808Z</time>
      </trkpt>
      <trkpt lat="62.66876" lon="6.65974">
        <ele>34.209264</ele>
        <time>2020-07-16T20:36:17.174Z</time>
      </trkpt>
      <trkpt lat="62.6695" lon="6.65919">
        <ele>36.578512</ele>
        <time>2020-07-16T20:36:38.438Z</time>
      </trkpt>
      <trkpt lat="62.66982" lon="6.6585">
        <ele>37.162941</ele>
        <time>2020-07-16T20:36:49.722Z</time>
      </trkpt>
      <trkpt lat="62.67022" lon="6.65708">
        <ele>37.546469</ele>
        <time>2020-07-16T20:37:06.645Z</time>
      </trkpt>
      <trkpt lat="62.67043" lon="6.65592">
        <ele>37.832697</ele>
        <time>2020-07-16T20:37:15.620Z</time>
      </trkpt>
      <trkpt lat="62.67047" lon="6.65523">
        <ele>37.304411</ele>
        <time>2020-07-16T20:37:20.397Z</time>
      </trkpt>
      <trkpt lat="62.67047" lon="6.65518">
        <ele>37.220421</ele>
        <time>2020-07-16T20:37:20.687Z</time>
      </trkpt>
      <trkpt lat="62.67039" lon="6.65409">
        <ele>35.367248</ele>
        <time>2020-07-16T20:37:27.599Z</time>
      </trkpt>
      <trkpt lat="62.67042" lon="6.65389">
        <ele>35.00309</ele>
        <time>2020-07-16T20:37:28.939Z</time>
      </trkpt>
      <trkpt lat="62.67044" lon="6.65383">
        <ele>34.895628</ele>
        <time>2020-07-16T20:37:29.270Z</time>
      </trkpt>
      <trkpt lat="62.67067" lon="6.65405">
        <ele>33.969766</ele>
        <time>2020-07-16T20:37:32.446Z</time>
      </trkpt>
      <trkpt lat="62.67087" lon="6.65437">
        <ele>33.059788</ele>
        <time>2020-07-16T20:37:35.497Z</time>
      </trkpt>
      <trkpt lat="62.67101" lon="6.65476">
        <ele>32.226283</ele>
        <time>2020-07-16T20:37:38.278Z</time>
      </trkpt>
      <trkpt lat="62.67116" lon="6.65548">
        <ele>30.60286</ele>
        <time>2020-07-16T20:37:42.659Z</time>
      </trkpt>
      <trkpt lat="62.67172" lon="6.65844">
        <ele>21.755147</ele>
        <time>2020-07-16T20:37:59.934Z</time>
      </trkpt>
      <trkpt lat="62.67178" lon="6.65875">
        <ele>20.834629</ele>
        <time>2020-07-16T20:38:01.695Z</time>
      </trkpt>
      <trkpt lat="62.67182" lon="6.65898">
        <ele>20.121255</ele>
        <time>2020-07-16T20:38:03.013Z</time>
      </trkpt>
      <trkpt lat="62.67264" lon="6.66336">
        <ele>7.721167</ele>
        <time>2020-07-16T20:38:28.281Z</time>
      </trkpt>
      <trkpt lat="62.67269" lon="6.664">
        <ele>6.84501</ele>
        <time>2020-07-16T20:38:32.075Z</time>
      </trkpt>
      <trkpt lat="62.67276" lon="6.66654">
        <ele>3.871804</ele>
        <time>2020-07-16T20:38:49.137Z</time>
      </trkpt>
      <trkpt lat="62.67276" lon="6.66663">
        <ele>3.947154</ele>
        <time>2020-07-16T20:38:50.067Z</time>
      </trkpt>
      <trkpt lat="62.67277" lon="6.66689">
        <ele>4.150085</ele>
        <time>2020-07-16T20:38:52.265Z</time>
      </trkpt>
      <trkpt lat="62.67277" lon="6.66698">
        <ele>4.222965</ele>
        <time>2020-07-16T20:38:53.056Z</time>
      </trkpt>
      <trkpt lat="62.67282" lon="6.66706">
        <ele>4.334562</ele>
        <time>2020-07-16T20:38:54.821Z</time>
      </trkpt>
      <trkpt lat="62.67289" lon="6.66913">
        <ele>5.975692</ele>
        <time>2020-07-16T20:39:18.401Z</time>
      </trkpt>
      <trkpt lat="62.67303" lon="6.67016">
        <ele>6.856023</ele>
        <time>2020-07-16T20:39:32.588Z</time>
      </trkpt>
      <trkpt lat="62.67323" lon="6.67092">
        <ele>8.811466</ele>
        <time>2020-07-16T20:39:44.258Z</time>
      </trkpt>
      <trkpt lat="62.67372" lon="6.67231">
        <ele>12.725377</ele>
        <time>2020-07-16T20:40:10.662Z</time>
      </trkpt>
      <trkpt lat="62.67387" lon="6.67283">
        <ele>14.072706</ele>
        <time>2020-07-16T20:40:21.310Z</time>
      </trkpt>
      <trkpt lat="62.6739" lon="6.67309">
        <ele>14.674981</ele>
        <time>2020-07-16T20:40:26.144Z</time>
      </trkpt>
      <trkpt lat="62.67388" lon="6.67314">
        <ele>14.804478</ele>
        <time>2020-07-16T20:40:27.467Z</time>
      </trkpt>
      <trkpt lat="62.67394" lon="6.67379">
        <ele>16.7813</ele>
        <time>2020-07-16T20:40:39.370Z</time>
      </trkpt>
      <trkpt lat="62.67386" lon="6.67419">
        <ele>18.381417</ele>
        <time>2020-07-16T20:40:47.665Z</time>
      </trkpt>
      <trkpt lat="62.67306" lon="6.67515">
        <ele>25.686466</ele>
        <time>2020-07-16T20:41:26.651Z</time>
      </trkpt>
      <trkpt lat="62.67267" lon="6.67667">
        <ele>31.780148</ele>
        <time>2020-07-16T20:42:05.174Z</time>
      </trkpt>
      <trkpt lat="62.67253" lon="6.6774">
        <ele>34.326234</ele>
        <time>2020-07-16T20:42:21.967Z</time>
      </trkpt>
      <trkpt lat="62.67255" lon="6.67811">
        <ele>36.642282</ele>
        <time>2020-07-16T20:42:35.994Z</time>
      </trkpt>
      <trkpt lat="62.67268" lon="6.67866">
        <ele>38.617494</ele>
        <time>2020-07-16T20:42:47.100Z</time>
      </trkpt>
      <trkpt lat="62.67293" lon="6.679">
        <ele>40.699836</ele>
        <time>2020-07-16T20:42:58.154Z</time>
      </trkpt>
      <trkpt lat="62.67335" lon="6.67912">
        <ele>42.604504</ele>
        <time>2020-07-16T20:43:11.660Z</time>
      </trkpt>
      <trkpt lat="62.67382" lon="6.67903">
        <ele>42.869559</ele>
        <time>2020-07-16T20:43:24.145Z</time>
      </trkpt>
      <trkpt lat="62.67459" lon="6.67863">
        <ele>43.311726</ele>
        <time>2020-07-16T20:43:37.736Z</time>
      </trkpt>
      <trkpt lat="62.67517" lon="6.6784">
        <ele>42.84636</ele>
        <time>2020-07-16T20:43:45.523Z</time>
      </trkpt>
      <trkpt lat="62.67567" lon="6.67821">
        <ele>41.25247</ele>
        <time>2020-07-16T20:43:52.025Z</time>
      </trkpt>
      <trkpt lat="62.67675" lon="6.67773">
        <ele>37.800982</ele>
        <time>2020-07-16T20:44:06.314Z</time>
      </trkpt>
      <trkpt lat="62.67765" lon="6.67719">
        <ele>36.285512</ele>
        <time>2020-07-16T20:44:19.161Z</time>
      </trkpt>
      <trkpt lat="62.67833" lon="6.67688">
        <ele>35.167081</ele>
        <time>2020-07-16T20:44:29.819Z</time>
      </trkpt>
      <trkpt lat="62.67847" lon="6.67671">
        <ele>34.965094</ele>
        <time>2020-07-16T20:44:32.564Z</time>
      </trkpt>
      <trkpt lat="62.67863" lon="6.67652">
        <ele>35.319872</ele>
        <time>2020-07-16T20:44:35.776Z</time>
      </trkpt>
      <trkpt lat="62.67881" lon="6.6761">
        <ele>35.851701</ele>
        <time>2020-07-16T20:44:41.153Z</time>
      </trkpt>
      <trkpt lat="62.67901" lon="6.67563">
        <ele>36.428722</ele>
        <time>2020-07-16T20:44:48.421Z</time>
      </trkpt>
      <trkpt lat="62.67921" lon="6.67537">
        <ele>36.879924</ele>
        <time>2020-07-16T20:44:54.200Z</time>
      </trkpt>
      <trkpt lat="62.67997" lon="6.67516">
        <ele>38.386678</ele>
        <time>2020-07-16T20:45:14.738Z</time>
      </trkpt>
      <trkpt lat="62.68032" lon="6.67495">
        <ele>39.458558</ele>
        <time>2020-07-16T20:45:26.054Z</time>
      </trkpt>
      <trkpt lat="62.68108" lon="6.6741">
        <ele>42.044007</ele>
        <time>2020-07-16T20:45:51.049Z</time>
      </trkpt>
      <trkpt lat="62.68219" lon="6.67261">
        <ele>46.387341</ele>
        <time>2020-07-16T20:46:23.304Z</time>
      </trkpt>
      <trkpt lat="62.68273" lon="6.67196">
        <ele>48.628446</ele>
        <time>2020-07-16T20:46:41.758Z</time>
      </trkpt>
      <trkpt lat="62.68313" lon="6.67172">
        <ele>50.108077</ele>
        <time>2020-07-16T20:46:54.851Z</time>
      </trkpt>
      <trkpt lat="62.6835" lon="6.67173">
        <ele>52.48415</ele>
        <time>2020-07-16T20:47:07.806Z</time>
      </trkpt>
      <trkpt lat="62.68397" lon="6.67204">
        <ele>56.067488</ele>
        <time>2020-07-16T20:47:28.822Z</time>
      </trkpt>
      <trkpt lat="62.68435" lon="6.67251">
        <ele>59.178109</ele>
        <time>2020-07-16T20:47:47.734Z</time>
      </trkpt>
      <trkpt lat="62.68445" lon="6.67225">
        <ele>60.34806</ele>
        <time>2020-07-16T20:47:54.807Z</time>
      </trkpt>
      <trkpt lat="62.68449" lon="6.6723">
        <ele>60.69601</ele>
        <time>2020-07-16T20:47:57.907Z</time>
      </trkpt>
      <trkpt lat="62.68502" lon="6.67305">
        <ele>65.028467</ele>
        <time>2020-07-16T20:48:25.356Z</time>
      </trkpt>
      <trkpt lat="62.68505" lon="6.67309">
        <ele>65.219518</ele>
        <time>2020-07-16T20:48:27.524Z</time>
      </trkpt>
      <trkpt lat="62.68618" lon="6.67469">
        <ele>73.69489</ele>
        <time>2020-07-16T20:49:24.266Z</time>
      </trkpt>
      <trkpt lat="62.6872" lon="6.67679">
        <ele>72.466425</ele>
        <time>2020-07-16T20:49:50.612Z</time>
      </trkpt>
      <trkpt lat="62.68758" lon="6.67747">
        <ele>71.572701</ele>
        <time>2020-07-16T20:49:56.639Z</time>
      </trkpt>
      <trkpt lat="62.68796" lon="6.67794">
        <ele>68.118788</ele>
        <time>2020-07-16T20:50:01.728Z</time>
      </trkpt>
      <trkpt lat="62.68976" lon="6.67921">
        <ele>54.210763</ele>
        <time>2020-07-16T20:50:23.381Z</time>
      </trkpt>
      <trkpt lat="62.69023" lon="6.6794">
        <ele>53.198955</ele>
        <time>2020-07-16T20:50:29.759Z</time>
      </trkpt>
      <trkpt lat="62.69079" lon="6.67989">
        <ele>51.904692</ele>
        <time>2020-07-16T20:50:40.075Z</time>
      </trkpt>
      <trkpt lat="62.6917" lon="6.68038">
        <ele>56.681212</ele>
        <time>2020-07-16T20:51:22.414Z</time>
      </trkpt>
      <trkpt lat="62.69189" lon="6.68068">
        <ele>58.43611</ele>
        <time>2020-07-16T20:51:32.701Z</time>
      </trkpt>
      <trkpt lat="62.69211" lon="6.68134">
        <ele>61.366753</ele>
        <time>2020-07-16T20:51:52.003Z</time>
      </trkpt>
      <trkpt lat="62.69211" lon="6.6814">
        <ele>61.573986</ele>
        <time>2020-07-16T20:51:54.542Z</time>
      </trkpt>
      <trkpt lat="62.69196" lon="6.68163">
        <ele>63.023051</ele>
        <time>2020-07-16T20:52:04.875Z</time>
      </trkpt>
      <trkpt lat="62.6922" lon="6.68251">
        <ele>65.031201</ele>
        <time>2020-07-16T20:52:23.297Z</time>
      </trkpt>
      <trkpt lat="62.69245" lon="6.68424">
        <ele>63.450988</ele>
        <time>2020-07-16T20:52:44.805Z</time>
      </trkpt>
      <trkpt lat="62.69247" lon="6.6844">
        <ele>63.308302</ele>
        <time>2020-07-16T20:52:46.655Z</time>
      </trkpt>
      <trkpt lat="62.69285" lon="6.68709">
        <ele>55.226507</ele>
        <time>2020-07-16T20:53:00.669Z</time>
      </trkpt>
      <trkpt lat="62.69305" lon="6.68782">
        <ele>50.674752</ele>
        <time>2020-07-16T20:53:04.730Z</time>
      </trkpt>
      <trkpt lat="62.69329" lon="6.68839">
        <ele>46.487449</ele>
        <time>2020-07-16T20:53:08.466Z</time>
      </trkpt>
      <trkpt lat="62.69507" lon="6.69092">
        <ele>26.411244</ele>
        <time>2020-07-16T20:53:31.858Z</time>
      </trkpt>
      <trkpt lat="62.69535" lon="6.69132">
        <ele>24.210218</ele>
        <time>2020-07-16T20:53:35.881Z</time>
      </trkpt>
      <trkpt lat="62.6957" lon="6.69191">
        <ele>22.161892</ele>
        <time>2020-07-16T20:53:41.217Z</time>
      </trkpt>
      <trkpt lat="62.69604" lon="6.69277">
        <ele>19.718018</ele>
        <time>2020-07-16T20:53:47.726Z</time>
      </trkpt>
      <trkpt lat="62.69646" lon="6.69414">
        <ele>16.375479</ele>
        <time>2020-07-16T20:53:57.404Z</time>
      </trkpt>
      <trkpt lat="62.69706" lon="6.69605">
        <ele>13.234147</ele>
        <time>2020-07-16T20:54:11.412Z</time>
      </trkpt>
      <trkpt lat="62.69797" lon="6.69863">
        <ele>9.508557</ele>
        <time>2020-07-16T20:54:31.638Z</time>
      </trkpt>
      <trkpt lat="62.69801" lon="6.69874">
        <ele>9.363528</ele>
        <time>2020-07-16T20:54:32.564Z</time>
      </trkpt>
      <trkpt lat="62.69856" lon="6.70028">
        <ele>7.469199</ele>
        <time>2020-07-16T20:54:45.292Z</time>
      </trkpt>
      <trkpt lat="62.69867" lon="6.70059">
        <ele>7.307326</ele>
        <time>2020-07-16T20:54:47.852Z</time>
      </trkpt>
      <trkpt lat="62.6996" lon="6.70319">
        <ele>5.909026</ele>
        <time>2020-07-16T20:55:11.605Z</time>
      </trkpt>
      <trkpt lat="62.69969" lon="6.70345">
        <ele>5.907602</ele>
        <time>2020-07-16T20:55:14.228Z</time>
      </trkpt>
      <trkpt lat="62.69977" lon="6.70364">
        <ele>6.039714</ele>
        <time>2020-07-16T20:55:16.250Z</time>
      </trkpt>
      <trkpt lat="62.6998" lon="6.70372">
        <ele>6.098019</ele>
        <time>2020-07-16T20:55:17.149Z</time>
      </trkpt>
      <trkpt lat="62.69981" lon="6.70374">
        <ele>6.11429</ele>
        <time>2020-07-16T20:55:17.409Z</time>
      </trkpt>
      <trkpt lat="62.69982" lon="6.70376">
        <ele>6.132174</ele>
        <time>2020-07-16T20:55:17.680Z</time>
      </trkpt>
      <trkpt lat="62.70001" lon="6.70413">
        <ele>6.430203</ele>
        <time>2020-07-16T20:55:22.525Z</time>
      </trkpt>
      <trkpt lat="62.70017" lon="6.70435">
        <ele>6.647228</ele>
        <time>2020-07-16T20:55:26.195Z</time>
      </trkpt>
      <trkpt lat="62.7007" lon="6.70487">
        <ele>7.33526</ele>
        <time>2020-07-16T20:55:39.059Z</time>
      </trkpt>
      <trkpt lat="62.70127" lon="6.70542">
        <ele>8.237822</ele>
        <time>2020-07-16T20:55:54.271Z</time>
      </trkpt>
      <trkpt lat="62.70238" lon="6.70746">
        <ele>12.477629</ele>
        <time>2020-07-16T20:56:35.843Z</time>
      </trkpt>
      <trkpt lat="62.70279" lon="6.70808">
        <ele>13.397556</ele>
        <time>2020-07-16T20:56:48.833Z</time>
      </trkpt>
      <trkpt lat="62.70329" lon="6.70872">
        <ele>13.870171</ele>
        <time>2020-07-16T20:57:02.241Z</time>
      </trkpt>
      <trkpt lat="62.70495" lon="6.71085">
        <ele>14.488417</ele>
        <time>2020-07-16T20:57:34.834Z</time>
      </trkpt>
      <trkpt lat="62.70651" lon="6.71251">
        <ele>14.264516</ele>
        <time>2020-07-16T20:58:05.835Z</time>
      </trkpt>
      <trkpt lat="62.70727" lon="6.71334">
        <ele>14.185686</ele>
        <time>2020-07-16T20:58:21.140Z</time>
      </trkpt>
      <trkpt lat="62.70778" lon="6.71403">
        <ele>13.313911</ele>
        <time>2020-07-16T20:58:30.772Z</time>
      </trkpt>
      <trkpt lat="62.70907" lon="6.71661">
        <ele>10.818398</ele>
        <time>2020-07-16T20:58:55.235Z</time>
      </trkpt>
      <trkpt lat="62.70942" lon="6.71731">
        <ele>10.341355</ele>
        <time>2020-07-16T20:59:02.315Z</time>
      </trkpt>
      <trkpt lat="62.70971" lon="6.71791">
        <ele>9.9324</ele>
        <time>2020-07-16T20:59:09.420Z</time>
      </trkpt>
      <trkpt lat="62.71081" lon="6.72014">
        <ele>8.663014</ele>
        <time>2020-07-16T20:59:35.429Z</time>
      </trkpt>
      <trkpt lat="62.7109" lon="6.72034">
        <ele>8.562718</ele>
        <time>2020-07-16T20:59:37.749Z</time>
      </trkpt>
      <trkpt lat="62.71131" lon="6.72164">
        <ele>7.73452</ele>
        <time>2020-07-16T20:59:48.341Z</time>
      </trkpt>
      <trkpt lat="62.7115" lon="6.72284">
        <ele>6.13356</ele>
        <time>2020-07-16T20:59:56.041Z</time>
      </trkpt>
      <trkpt lat="62.71153" lon="6.72431">
        <ele>4.283436</ele>
        <time>2020-07-16T21:00:04.593Z</time>
      </trkpt>
      <trkpt lat="62.71152" lon="6.72755">
        <ele>2.121028</ele>
        <time>2020-07-16T21:00:25.825Z</time>
      </trkpt>
      <trkpt lat="62.71151" lon="6.72806">
        <ele>1.894006</ele>
        <time>2020-07-16T21:00:29.912Z</time>
      </trkpt>
      <trkpt lat="62.71151" lon="6.72826">
        <ele>1.807751</ele>
        <time>2020-07-16T21:00:31.469Z</time>
      </trkpt>
      <trkpt lat="62.7115" lon="6.72842">
        <ele>1.734361</ele>
        <time>2020-07-16T21:00:32.877Z</time>
      </trkpt>
      <trkpt lat="62.7115" lon="6.72856">
        <ele>1.673884</ele>
        <time>2020-07-16T21:00:34.062Z</time>
      </trkpt>
      <trkpt lat="62.71148" lon="6.729">
        <ele>1.477674</ele>
        <time>2020-07-16T21:00:37.875Z</time>
      </trkpt>
      <trkpt lat="62.71138" lon="6.7305">
        <ele>3.081235</ele>
        <time>2020-07-16T21:00:53.281Z</time>
      </trkpt>
      <trkpt lat="62.71137" lon="6.7313">
        <ele>4.034668</ele>
        <time>2020-07-16T21:01:02.828Z</time>
      </trkpt>
      <trkpt lat="62.71145" lon="6.73232">
        <ele>5.250946</ele>
        <time>2020-07-16T21:01:16.359Z</time>
      </trkpt>
      <trkpt lat="62.7117" lon="6.7341">
        <ele>8.522661</ele>
        <time>2020-07-16T21:01:43.933Z</time>
      </trkpt>
      <trkpt lat="62.71243" lon="6.73801">
        <ele>16.281058</ele>
        <time>2020-07-16T21:02:47.752Z</time>
      </trkpt>
      <trkpt lat="62.71245" lon="6.73812">
        <ele>16.454413</ele>
        <time>2020-07-16T21:02:49.364Z</time>
      </trkpt>
      <trkpt lat="62.71247" lon="6.73822">
        <ele>16.594739</ele>
        <time>2020-07-16T21:02:50.658Z</time>
      </trkpt>
      <trkpt lat="62.71272" lon="6.73942">
        <ele>18.368979</ele>
        <time>2020-07-16T21:03:06.340Z</time>
      </trkpt>
      <trkpt lat="62.7133" lon="6.7421">
        <ele>20.061344</ele>
        <time>2020-07-16T21:03:33.825Z</time>
      </trkpt>
      <trkpt lat="62.71435" lon="6.74516">
        <ele>20.874561</ele>
        <time>2020-07-16T21:04:05.830Z</time>
      </trkpt>
      <trkpt lat="62.71447" lon="6.74548">
        <ele>20.953518</ele>
        <time>2020-07-16T21:04:09.484Z</time>
      </trkpt>
      <trkpt lat="62.71457" lon="6.74578">
        <ele>21.025278</ele>
        <time>2020-07-16T21:04:12.852Z</time>
      </trkpt>
      <trkpt lat="62.715" lon="6.74696">
        <ele>21.477337</ele>
        <time>2020-07-16T21:04:26.953Z</time>
      </trkpt>
      <trkpt lat="62.71534" lon="6.74768">
        <ele>22.198474</ele>
        <time>2020-07-16T21:04:36.643Z</time>
      </trkpt>
      <trkpt lat="62.71587" lon="6.74856">
        <ele>23.208759</ele>
        <time>2020-07-16T21:04:50.808Z</time>
      </trkpt>
      <trkpt lat="62.7167" lon="6.74952">
        <ele>25.55303</ele>
        <time>2020-07-16T21:05:15.914Z</time>
      </trkpt>
      <trkpt lat="62.71709" lon="6.74992">
        <ele>27.141243</ele>
        <time>2020-07-16T21:05:28.503Z</time>
      </trkpt>
      <trkpt lat="62.71771" lon="6.75055">
        <ele>29.638684</ele>
        <time>2020-07-16T21:05:49.762Z</time>
      </trkpt>
      <trkpt lat="62.71877" lon="6.75136">
        <ele>33.871081</ele>
        <time>2020-07-16T21:06:25.680Z</time>
      </trkpt>
      <trkpt lat="62.7188" lon="6.75138">
        <ele>34.011514</ele>
        <time>2020-07-16T21:06:27.584Z</time>
      </trkpt>
      <trkpt lat="62.71969" lon="6.75177">
        <ele>37.43431</ele>
        <time>2020-07-16T21:06:52.160Z</time>
      </trkpt>
      <trkpt lat="62.72124" lon="6.75214">
        <ele>42.332683</ele>
        <time>2020-07-16T21:07:34.917Z</time>
      </trkpt>
      <trkpt lat="62.7215" lon="6.75221">
        <ele>43.154832</ele>
        <time>2020-07-16T21:07:42.823Z</time>
      </trkpt>
      <trkpt lat="62.72164" lon="6.75228">
        <ele>43.551059</ele>
        <time>2020-07-16T21:07:47.137Z</time>
      </trkpt>
      <trkpt lat="62.72205" lon="6.7525">
        <ele>44.728368</ele>
        <time>2020-07-16T21:08:00.017Z</time>
      </trkpt>
      <trkpt lat="62.72296" lon="6.75331">
        <ele>47.446989</ele>
        <time>2020-07-16T21:08:27.375Z</time>
      </trkpt>
      <trkpt lat="62.72372" lon="6.75441">
        <ele>47.559014</ele>
        <time>2020-07-16T21:08:44.234Z</time>
      </trkpt>
      <trkpt lat="62.72443" lon="6.75564">
        <ele>46.922871</ele>
        <time>2020-07-16T21:08:57.548Z</time>
      </trkpt>
      <trkpt lat="62.72602" lon="6.7584">
        <ele>44.124226</ele>
        <time>2020-07-16T21:09:27.049Z</time>
      </trkpt>
      <trkpt lat="62.72677" lon="6.76023">
        <ele>43.603145</ele>
        <time>2020-07-16T21:09:46.292Z</time>
      </trkpt>
      <trkpt lat="62.72843" lon="6.76482">
        <ele>42.685576</ele>
        <time>2020-07-16T21:10:31.652Z</time>
      </trkpt>
      <trkpt lat="62.72914" lon="6.76695">
        <ele>42.321012</ele>
        <time>2020-07-16T21:10:51.840Z</time>
      </trkpt>
      <trkpt lat="62.7302" lon="6.77135">
        <ele>42.521734</ele>
        <time>2020-07-16T21:11:32.390Z</time>
      </trkpt>
      <trkpt lat="62.73054" lon="6.77284">
        <ele>43.5148</ele>
        <time>2020-07-16T21:11:49.342Z</time>
      </trkpt>
      <trkpt lat="62.73075" lon="6.77436">
        <ele>44.463402</ele>
        <time>2020-07-16T21:12:06.245Z</time>
      </trkpt>
      <trkpt lat="62.73135" lon="6.78014">
        <ele>49.078596</ele>
        <time>2020-07-16T21:13:09.131Z</time>
      </trkpt>
      <trkpt lat="62.73159" lon="6.79084">
        <ele>57.384523</ele>
        <time>2020-07-16T21:15:07.540Z</time>
      </trkpt>
      <trkpt lat="62.7319" lon="6.79708">
        <ele>53.938628</ele>
        <time>2020-07-16T21:15:49.618Z</time>
      </trkpt>
      <trkpt lat="62.73232" lon="6.80525">
        <ele>47.7779</ele>
        <time>2020-07-16T21:16:44.108Z</time>
      </trkpt>
      <trkpt lat="62.73247" lon="6.80737">
        <ele>47.026681</ele>
        <time>2020-07-16T21:16:59.489Z</time>
      </trkpt>
      <trkpt lat="62.73276" lon="6.8101">
        <ele>46.765997</ele>
        <time>2020-07-16T21:17:21.723Z</time>
      </trkpt>
      <trkpt lat="62.73283" lon="6.81138">
        <ele>47.528633</ele>
        <time>2020-07-16T21:17:33.805Z</time>
      </trkpt>
      <trkpt lat="62.73282" lon="6.81287">
        <ele>48.401673</ele>
        <time>2020-07-16T21:17:49.030Z</time>
      </trkpt>
      <trkpt lat="62.73253" lon="6.81999">
        <ele>56.834813</ele>
        <time>2020-07-16T21:19:15.850Z</time>
      </trkpt>
      <trkpt lat="62.73245" lon="6.82546">
        <ele>64.822156</ele>
        <time>2020-07-16T21:20:26.280Z</time>
      </trkpt>
      <trkpt lat="62.73251" lon="6.82875">
        <ele>69.954945</ele>
        <time>2020-07-16T21:21:11.442Z</time>
      </trkpt>
      <trkpt lat="62.73263" lon="6.83058">
        <ele>69.913104</ele>
        <time>2020-07-16T21:21:33.476Z</time>
      </trkpt>
      <trkpt lat="62.73265" lon="6.83077">
        <ele>69.771093</ele>
        <time>2020-07-16T21:21:35.532Z</time>
      </trkpt>
      <trkpt lat="62.73278" lon="6.83177">
        <ele>69.007828</ele>
        <time>2020-07-16T21:21:43.042Z</time>
      </trkpt>
      <trkpt lat="62.73302" lon="6.83315">
        <ele>67.605526</ele>
        <time>2020-07-16T21:21:51.448Z</time>
      </trkpt>
      <trkpt lat="62.73351" lon="6.8352">
        <ele>55.878433</ele>
        <time>2020-07-16T21:22:02.867Z</time>
      </trkpt>
      <trkpt lat="62.73364" lon="6.83576">
        <ele>52.644387</ele>
        <time>2020-07-16T21:22:05.907Z</time>
      </trkpt>
      <trkpt lat="62.73411" lon="6.83758">
        <ele>42.407303</ele>
        <time>2020-07-16T21:22:15.941Z</time>
      </trkpt>
      <trkpt lat="62.73439" lon="6.83839">
        <ele>37.589491</ele>
        <time>2020-07-16T21:22:20.887Z</time>
      </trkpt>
      <trkpt lat="62.73444" lon="6.83851">
        <ele>36.809262</ele>
        <time>2020-07-16T21:22:21.698Z</time>
      </trkpt>
      <trkpt lat="62.73514" lon="6.83994">
        <ele>28.557547</ele>
        <time>2020-07-16T21:22:32.596Z</time>
      </trkpt>
      <trkpt lat="62.73567" lon="6.84137">
        <ele>26.120935</ele>
        <time>2020-07-16T21:22:43.785Z</time>
      </trkpt>
      <trkpt lat="62.73569" lon="6.84142">
        <ele>26.034161</ele>
        <time>2020-07-16T21:22:44.238Z</time>
      </trkpt>
      <trkpt lat="62.73603" lon="6.84253">
        <ele>24.251196</ele>
        <time>2020-07-16T21:22:54.004Z</time>
      </trkpt>
      <trkpt lat="62.73638" lon="6.84384">
        <ele>24.175625</ele>
        <time>2020-07-16T21:23:06.542Z</time>
      </trkpt>
      <trkpt lat="62.73669" lon="6.84515">
        <ele>24.338346</ele>
        <time>2020-07-16T21:23:19.839Z</time>
      </trkpt>
      <trkpt lat="62.73713" lon="6.84682">
        <ele>24.625484</ele>
        <time>2020-07-16T21:23:36.566Z</time>
      </trkpt>
      <trkpt lat="62.73776" lon="6.84982">
        <ele>25.353627</ele>
        <time>2020-07-16T21:24:05.272Z</time>
      </trkpt>
      <trkpt lat="62.7398" lon="6.86167">
        <ele>32.762229</ele>
        <time>2020-07-16T21:26:12.524Z</time>
      </trkpt>
      <trkpt lat="62.74027" lon="6.865">
        <ele>35.316611</ele>
        <time>2020-07-16T21:26:50.265Z</time>
      </trkpt>
      <trkpt lat="62.74043" lon="6.86584">
        <ele>36.001181</ele>
        <time>2020-07-16T21:26:59.211Z</time>
      </trkpt>
      <trkpt lat="62.74073" lon="6.86702">
        <ele>37.022748</ele>
        <time>2020-07-16T21:27:12.538Z</time>
      </trkpt>
      <trkpt lat="62.74119" lon="6.86825">
        <ele>39.345896</ele>
        <time>2020-07-16T21:27:29.008Z</time>
      </trkpt>
      <trkpt lat="62.74185" lon="6.86986">
        <ele>45.427578</ele>
        <time>2020-07-16T21:28:04.386Z</time>
      </trkpt>
      <trkpt lat="62.74207" lon="6.8704">
        <ele>47.468838</ele>
        <time>2020-07-16T21:28:19.472Z</time>
      </trkpt>
      <trkpt lat="62.7421" lon="6.87049">
        <ele>47.786571</ele>
        <time>2020-07-16T21:28:21.991Z</time>
      </trkpt>
      <trkpt lat="62.74245" lon="6.87166">
        <ele>53.236637</ele>
        <time>2020-07-16T21:28:55.272Z</time>
      </trkpt>
      <trkpt lat="62.74269" lon="6.8733">
        <ele>60.69886</ele>
        <time>2020-07-16T21:29:37.519Z</time>
      </trkpt>
      <trkpt lat="62.74278" lon="6.87438">
        <ele>65.454617</ele>
        <time>2020-07-16T21:30:02.510Z</time>
      </trkpt>
      <trkpt lat="62.74276" lon="6.87678">
        <ele>66.465325</ele>
        <time>2020-07-16T21:30:32.784Z</time>
      </trkpt>
      <trkpt lat="62.74306" lon="6.87974">
        <ele>62.466614</ele>
        <time>2020-07-16T21:30:49.810Z</time>
      </trkpt>
      <trkpt lat="62.74447" lon="6.8884">
        <ele>36.633334</ele>
        <time>2020-07-16T21:31:37.878Z</time>
      </trkpt>
      <trkpt lat="62.74499" lon="6.89459">
        <ele>37.684501</ele>
        <time>2020-07-16T21:32:40.593Z</time>
      </trkpt>
      <trkpt lat="62.74595" lon="6.9012">
        <ele>46.186867</ele>
        <time>2020-07-16T21:34:14.456Z</time>
      </trkpt>
      <trkpt lat="62.7461" lon="6.90294">
        <ele>43.087623</ele>
        <time>2020-07-16T21:34:24.938Z</time>
      </trkpt>
      <trkpt lat="62.74612" lon="6.90428">
        <ele>40.751979</ele>
        <time>2020-07-16T21:34:32.043Z</time>
      </trkpt>
      <trkpt lat="62.74605" lon="6.90563">
        <ele>38.812383</ele>
        <time>2020-07-16T21:34:39.200Z</time>
      </trkpt>
      <trkpt lat="62.74584" lon="6.90715">
        <ele>36.869325</ele>
        <time>2020-07-16T21:34:48.363Z</time>
      </trkpt>
      <trkpt lat="62.74553" lon="6.90909">
        <ele>36.26057</ele>
        <time>2020-07-16T21:35:06.683Z</time>
      </trkpt>
      <trkpt lat="62.74549" lon="6.90979">
        <ele>37.966669</ele>
        <time>2020-07-16T21:35:16.764Z</time>
      </trkpt>
      <trkpt lat="62.74556" lon="6.91044">
        <ele>39.559643</ele>
        <time>2020-07-16T21:35:27.867Z</time>
      </trkpt>
      <trkpt lat="62.74617" lon="6.91352">
        <ele>47.189037</ele>
        <time>2020-07-16T21:36:31.173Z</time>
      </trkpt>
      <trkpt lat="62.7463" lon="6.91452">
        <ele>49.349136</ele>
        <time>2020-07-16T21:36:48.075Z</time>
      </trkpt>
      <trkpt lat="62.74631" lon="6.91554">
        <ele>51.482435</ele>
        <time>2020-07-16T21:37:02.432Z</time>
      </trkpt>
      <trkpt lat="62.74616" lon="6.91836">
        <ele>51.219661</ele>
        <time>2020-07-16T21:37:23.563Z</time>
      </trkpt>
      <trkpt lat="62.74604" lon="6.9192">
        <ele>50.689382</ele>
        <time>2020-07-16T21:37:28.734Z</time>
      </trkpt>
      <trkpt lat="62.74577" lon="6.91987">
        <ele>50.28494</ele>
        <time>2020-07-16T21:37:33.995Z</time>
      </trkpt>
      <trkpt lat="62.7455" lon="6.92016">
        <ele>50.541168</ele>
        <time>2020-07-16T21:37:38.047Z</time>
      </trkpt>
      <trkpt lat="62.74485" lon="6.92045">
        <ele>51.110446</ele>
        <time>2020-07-16T21:37:48.170Z</time>
      </trkpt>
      <trkpt lat="62.74425" lon="6.92089">
        <ele>51.653217</ele>
        <time>2020-07-16T21:38:04.615Z</time>
      </trkpt>
      <trkpt lat="62.74341" lon="6.92091">
        <ele>56.970476</ele>
        <time>2020-07-16T21:38:39.854Z</time>
      </trkpt>
      <trkpt lat="62.74312" lon="6.92104">
        <ele>59.130351</ele>
        <time>2020-07-16T21:38:53.459Z</time>
      </trkpt>
      <trkpt lat="62.74248" lon="6.92162">
        <ele>64.263471</ele>
        <time>2020-07-16T21:39:25.516Z</time>
      </trkpt>
      <trkpt lat="62.74203" lon="6.9222">
        <ele>65.508218</ele>
        <time>2020-07-16T21:39:46.259Z</time>
      </trkpt>
      <trkpt lat="62.74148" lon="6.92313">
        <ele>66.254507</ele>
        <time>2020-07-16T21:40:05.555Z</time>
      </trkpt>
      <trkpt lat="62.74125" lon="6.92377">
        <ele>66.655693</ele>
        <time>2020-07-16T21:40:10.878Z</time>
      </trkpt>
      <trkpt lat="62.74117" lon="6.92447">
        <ele>66.852951</ele>
        <time>2020-07-16T21:40:14.897Z</time>
      </trkpt>
      <trkpt lat="62.74114" lon="6.92611">
        <ele>59.773024</ele>
        <time>2020-07-16T21:40:23.183Z</time>
      </trkpt>
      <trkpt lat="62.74103" lon="6.92654">
        <ele>57.612673</ele>
        <time>2020-07-16T21:40:25.640Z</time>
      </trkpt>
      <trkpt lat="62.74077" lon="6.92689">
        <ele>54.74833</ele>
        <time>2020-07-16T21:40:28.900Z</time>
      </trkpt>
      <trkpt lat="62.74059" lon="6.9269">
        <ele>52.998674</ele>
        <time>2020-07-16T21:40:30.895Z</time>
      </trkpt>
      <trkpt lat="62.74019" lon="6.92658">
        <ele>49.182323</ele>
        <time>2020-07-16T21:40:35.488Z</time>
      </trkpt>
      <trkpt lat="62.74004" lon="6.92661">
        <ele>48.072211</ele>
        <time>2020-07-16T21:40:37.064Z</time>
      </trkpt>
      <trkpt lat="62.73984" lon="6.92681">
        <ele>46.393643</ele>
        <time>2020-07-16T21:40:39.477Z</time>
      </trkpt>
      <trkpt lat="62.73948" lon="6.92759">
        <ele>42.567662</ele>
        <time>2020-07-16T21:40:45.036Z</time>
      </trkpt>
      <trkpt lat="62.73928" lon="6.92766">
        <ele>41.032336</ele>
        <time>2020-07-16T21:40:47.355Z</time>
      </trkpt>
      <trkpt lat="62.73878" lon="6.92745">
        <ele>37.173739</ele>
        <time>2020-07-16T21:40:53.482Z</time>
      </trkpt>
      <trkpt lat="62.73852" lon="6.92749">
        <ele>36.782278</ele>
        <time>2020-07-16T21:40:56.882Z</time>
      </trkpt>
      <trkpt lat="62.73836" lon="6.92773">
        <ele>37.320499</ele>
        <time>2020-07-16T21:40:59.639Z</time>
      </trkpt>
      <trkpt lat="62.73813" lon="6.92828">
        <ele>38.236269</ele>
        <time>2020-07-16T21:41:05.556Z</time>
      </trkpt>
      <trkpt lat="62.73796" lon="6.92845">
        <ele>38.732769</ele>
        <time>2020-07-16T21:41:10.109Z</time>
      </trkpt>
      <trkpt lat="62.73783" lon="6.92839">
        <ele>39.087049</ele>
        <time>2020-07-16T21:41:13.446Z</time>
      </trkpt>
      <trkpt lat="62.73744" lon="6.9279">
        <ele>40.291419</ele>
        <time>2020-07-16T21:41:28.254Z</time>
      </trkpt>
      <trkpt lat="62.73716" lon="6.92774">
        <ele>41.073795</ele>
        <time>2020-07-16T21:41:40.100Z</time>
      </trkpt>
      <trkpt lat="62.73523" lon="6.92787">
        <ele>61.342987</ele>
        <time>2020-07-16T21:43:27.969Z</time>
      </trkpt>
      <trkpt lat="62.73489" lon="6.92799">
        <ele>63.143712</ele>
        <time>2020-07-16T21:43:45.397Z</time>
      </trkpt>
      <trkpt lat="62.73474" lon="6.9282">
        <ele>64.079871</ele>
        <time>2020-07-16T21:43:53.413Z</time>
      </trkpt>
      <trkpt lat="62.73463" lon="6.92848">
        <ele>64.983905</ele>
        <time>2020-07-16T21:44:00.854Z</time>
      </trkpt>
      <trkpt lat="62.73438" lon="6.92975">
        <ele>68.344711</ele>
        <time>2020-07-16T21:44:21.195Z</time>
      </trkpt>
      <trkpt lat="62.73424" lon="6.93011">
        <ele>69.473348</ele>
        <time>2020-07-16T21:44:25.785Z</time>
      </trkpt>
      <trkpt lat="62.73371" lon="6.93077">
        <ele>67.023399</ele>
        <time>2020-07-16T21:44:34.388Z</time>
      </trkpt>
      <trkpt lat="62.73306" lon="6.93231">
        <ele>59.769952</ele>
        <time>2020-07-16T21:44:45.158Z</time>
      </trkpt>
      <trkpt lat="62.73194" lon="6.93365">
        <ele>44.671014</ele>
        <time>2020-07-16T21:44:58.572Z</time>
      </trkpt>
      <trkpt lat="62.73141" lon="6.93431">
        <ele>36.387013</ele>
        <time>2020-07-16T21:45:04.880Z</time>
      </trkpt>
      <trkpt lat="62.73117" lon="6.93435">
        <ele>33.118473</ele>
        <time>2020-07-16T21:45:07.408Z</time>
      </trkpt>
      <trkpt lat="62.73094" lon="6.93403">
        <ele>30.520879</ele>
        <time>2020-07-16T21:45:10.351Z</time>
      </trkpt>
      <trkpt lat="62.73064" lon="6.93296">
        <ele>25.971887</ele>
        <time>2020-07-16T21:45:16.544Z</time>
      </trkpt>
      <trkpt lat="62.73037" lon="6.93248">
        <ele>23.232014</ele>
        <time>2020-07-16T21:45:20.458Z</time>
      </trkpt>
      <trkpt lat="62.72966" lon="6.9321">
        <ele>17.879192</ele>
        <time>2020-07-16T21:45:29.658Z</time>
      </trkpt>
      <trkpt lat="62.72904" lon="6.93206">
        <ele>17.586597</ele>
        <time>2020-07-16T21:45:38.663Z</time>
      </trkpt>
      <trkpt lat="62.72849" lon="6.93177">
        <ele>17.320836</ele>
        <time>2020-07-16T21:45:48.992Z</time>
      </trkpt>
      <trkpt lat="62.72788" lon="6.93174">
        <ele>17.165133</ele>
        <time>2020-07-16T21:46:02.461Z</time>
      </trkpt>
      <trkpt lat="62.72663" lon="6.93218">
        <ele>19.441993</ele>
        <time>2020-07-16T21:46:34.187Z</time>
      </trkpt>
      <trkpt lat="62.72641" lon="6.9322">
        <ele>19.828052</ele>
        <time>2020-07-16T21:46:39.507Z</time>
      </trkpt>
      <trkpt lat="62.72585" lon="6.93223">
        <ele>20.348066</ele>
        <time>2020-07-16T21:46:51.300Z</time>
      </trkpt>
      <trkpt lat="62.7256" lon="6.93237">
        <ele>20.401748</ele>
        <time>2020-07-16T21:46:56.320Z</time>
      </trkpt>
      <trkpt lat="62.72493" lon="6.9333">
        <ele>20.565776</ele>
        <time>2020-07-16T21:47:10.749Z</time>
      </trkpt>
      <trkpt lat="62.72413" lon="6.93413">
        <ele>20.561421</ele>
        <time>2020-07-16T21:47:25.036Z</time>
      </trkpt>
      <trkpt lat="62.72384" lon="6.93412">
        <ele>20.500272</ele>
        <time>2020-07-16T21:47:29.599Z</time>
      </trkpt>
      <trkpt lat="62.72318" lon="6.93372">
        <ele>20.352235</ele>
        <time>2020-07-16T21:47:41.356Z</time>
      </trkpt>
      <trkpt lat="62.7229" lon="6.93381">
        <ele>20.293291</ele>
        <time>2020-07-16T21:47:46.517Z</time>
      </trkpt>
      <trkpt lat="62.72221" lon="6.93459">
        <ele>20.156202</ele>
        <time>2020-07-16T21:48:02.599Z</time>
      </trkpt>
      <trkpt lat="62.72178" lon="6.93543">
        <ele>20.057008</ele>
        <time>2020-07-16T21:48:14.700Z</time>
      </trkpt>
      <trkpt lat="62.7216" lon="6.93564">
        <ele>20.021665</ele>
        <time>2020-07-16T21:48:19.244Z</time>
      </trkpt>
      <trkpt lat="62.72138" lon="6.9357">
        <ele>19.983299</ele>
        <time>2020-07-16T21:48:22.535Z</time>
      </trkpt>
      <trkpt lat="62.72062" lon="6.9355">
        <ele>16.465195</ele>
        <time>2020-07-16T21:48:31.958Z</time>
      </trkpt>
      <trkpt lat="62.72021" lon="6.93566">
        <ele>14.201445</ele>
        <time>2020-07-16T21:48:36.823Z</time>
      </trkpt>
      <trkpt lat="62.71985" lon="6.93619">
        <ele>11.881654</ele>
        <time>2020-07-16T21:48:41.841Z</time>
      </trkpt>
      <trkpt lat="62.7199" lon="6.9365">
        <ele>11.065754</ele>
        <time>2020-07-16T21:48:43.604Z</time>
      </trkpt>
      <trkpt lat="62.71988" lon="6.93673">
        <ele>10.489686</ele>
        <time>2020-07-16T21:48:44.982Z</time>
      </trkpt>
      <trkpt lat="62.71987" lon="6.93678">
        <ele>10.34618</ele>
        <time>2020-07-16T21:48:45.253Z</time>
      </trkpt>
      <trkpt lat="62.71973" lon="6.93713">
        <ele>9.236867</ele>
        <time>2020-07-16T21:48:47.719Z</time>
      </trkpt>
      <trkpt lat="62.71961" lon="6.93729">
        <ele>8.529835</ele>
        <time>2020-07-16T21:48:49.323Z</time>
      </trkpt>
      <trkpt lat="62.7196" lon="6.93731">
        <ele>8.430284</ele>
        <time>2020-07-16T21:48:49.521Z</time>
      </trkpt>
      <trkpt lat="62.71958" lon="6.93733">
        <ele>8.309886</ele>
        <time>2020-07-16T21:48:49.792Z</time>
      </trkpt>
      <trkpt lat="62.71949" lon="6.93741">
        <ele>7.819205</ele>
        <time>2020-07-16T21:48:50.886Z</time>
      </trkpt>
      <trkpt lat="62.71942" lon="6.93752">
        <ele>7.361092</ele>
        <time>2020-07-16T21:48:51.900Z</time>
      </trkpt>
      <trkpt lat="62.71905" lon="6.93854">
        <ele>4.245647</ele>
        <time>2020-07-16T21:49:00.251Z</time>
      </trkpt>
      <trkpt lat="62.7186" lon="6.93964">
        <ele>0.929102</ele>
        <time>2020-07-16T21:49:09.650Z</time>
      </trkpt>
      <trkpt lat="62.71853" lon="6.93996">
        <ele>0.984857</ele>
        <time>2020-07-16T21:49:11.960Z</time>
      </trkpt>
      <trkpt lat="62.71853" lon="6.94086">
        <ele>1.122665</ele>
        <time>2020-07-16T21:49:17.663Z</time>
      </trkpt>
      <trkpt lat="62.71859" lon="6.94131">
        <ele>1.196737</ele>
        <time>2020-07-16T21:49:20.727Z</time>
      </trkpt>
      <trkpt lat="62.72921" lon="6.98289">
        <ele>11.039502</ele>
        <time>2020-07-16T21:54:24.969Z</time>
      </trkpt>
      <trkpt lat="62.72929" lon="6.98353">
        <ele>11.862106</ele>
        <time>2020-07-16T21:54:29.242Z</time>
      </trkpt>
      <trkpt lat="62.72929" lon="6.98385">
        <ele>12.255372</ele>
        <time>2020-07-16T21:54:31.283Z</time>
      </trkpt>
      <trkpt lat="62.72901" lon="6.98498">
        <ele>15.186706</ele>
        <time>2020-07-16T21:54:39.449Z</time>
      </trkpt>
      <trkpt lat="62.72884" lon="6.98586">
        <ele>18.371877</ele>
        <time>2020-07-16T21:54:45.591Z</time>
      </trkpt>
      <trkpt lat="62.72881" lon="6.98624">
        <ele>19.666725</ele>
        <time>2020-07-16T21:54:54.656Z</time>
      </trkpt>
      <trkpt lat="62.7288" lon="6.98662">
        <ele>20.91816</ele>
        <time>2020-07-16T21:55:00.621Z</time>
      </trkpt>
      <trkpt lat="62.7288" lon="6.98677">
        <ele>21.410697</ele>
        <time>2020-07-16T21:55:04.212Z</time>
      </trkpt>
      <trkpt lat="62.72882" lon="6.98702">
        <ele>22.254445</ele>
        <time>2020-07-16T21:55:09.949Z</time>
      </trkpt>
      <trkpt lat="62.7289" lon="6.98762">
        <ele>24.320877</ele>
        <time>2020-07-16T21:55:21.443Z</time>
      </trkpt>
      <trkpt lat="62.72912" lon="6.98919">
        <ele>28.42241</ele>
        <time>2020-07-16T21:55:52.228Z</time>
      </trkpt>
      <trkpt lat="62.72921" lon="6.98984">
        <ele>29.844299</ele>
        <time>2020-07-16T21:56:02.654Z</time>
      </trkpt>
      <trkpt lat="62.72923" lon="6.98996">
        <ele>30.100142</ele>
        <time>2020-07-16T21:56:04.828Z</time>
      </trkpt>
      <trkpt lat="62.7293" lon="6.99041">
        <ele>31.101777</ele>
        <time>2020-07-16T21:56:11.046Z</time>
      </trkpt>
      <trkpt lat="62.72932" lon="6.99048">
        <ele>31.249934</ele>
        <time>2020-07-16T21:56:12.004Z</time>
      </trkpt>
      <trkpt lat="62.72935" lon="6.99066">
        <ele>31.654721</ele>
        <time>2020-07-16T21:56:14.434Z</time>
      </trkpt>
      <trkpt lat="62.73049" lon="6.99512">
        <ele>38.553143</ele>
        <time>2020-07-16T21:57:14.327Z</time>
      </trkpt>
      <trkpt lat="62.73073" lon="6.99668">
        <ele>39.967822</ele>
        <time>2020-07-16T21:57:33.464Z</time>
      </trkpt>
      <trkpt lat="62.73084" lon="6.9981">
        <ele>41.189011</ele>
        <time>2020-07-16T21:57:49.203Z</time>
      </trkpt>
      <trkpt lat="62.73083" lon="6.99956">
        <ele>41.878866</ele>
        <time>2020-07-16T21:58:03.835Z</time>
      </trkpt>
      <trkpt lat="62.73067" lon="7.00101">
        <ele>41.647988</ele>
        <time>2020-07-16T21:58:17.138Z</time>
      </trkpt>
      <trkpt lat="62.73049" lon="7.00188">
        <ele>41.499587</ele>
        <time>2020-07-16T21:58:23.940Z</time>
      </trkpt>
      <trkpt lat="62.72995" lon="7.00376">
        <ele>40.696866</ele>
        <time>2020-07-16T21:58:38.187Z</time>
      </trkpt>
      <trkpt lat="62.72989" lon="7.00406">
        <ele>40.529686</ele>
        <time>2020-07-16T21:58:40.372Z</time>
      </trkpt>
      <trkpt lat="62.72986" lon="7.00401">
        <ele>40.490107</ele>
        <time>2020-07-16T21:58:40.949Z</time>
      </trkpt>
      <trkpt lat="62.72981" lon="7.00393">
        <ele>40.416577</ele>
        <time>2020-07-16T21:58:41.934Z</time>
      </trkpt>
      <trkpt lat="62.72976" lon="7.00413">
        <ele>40.302955</ele>
        <time>2020-07-16T21:58:43.344Z</time>
      </trkpt>
      <trkpt lat="62.72962" lon="7.00518">
        <ele>39.740626</ele>
        <time>2020-07-16T21:58:51.381Z</time>
      </trkpt>
      <trkpt lat="62.72959" lon="7.00547">
        <ele>39.590074</ele>
        <time>2020-07-16T21:58:53.487Z</time>
      </trkpt>
      <trkpt lat="62.72958" lon="7.00563">
        <ele>39.507881</ele>
        <time>2020-07-16T21:58:54.824Z</time>
      </trkpt>
      <trkpt lat="62.72962" lon="7.00745">
        <ele>42.691824</ele>
        <time>2020-07-16T21:59:14.314Z</time>
      </trkpt>
      <trkpt lat="62.72967" lon="7.00866">
        <ele>45.396766</ele>
        <time>2020-07-16T21:59:33.209Z</time>
      </trkpt>
      <trkpt lat="62.72976" lon="7.01072">
        <ele>50.420994</ele>
        <time>2020-07-16T22:00:20.502Z</time>
      </trkpt>
      <trkpt lat="62.72977" lon="7.01147">
        <ele>52.44644</ele>
        <time>2020-07-16T22:00:36.090Z</time>
      </trkpt>
      <trkpt lat="62.72978" lon="7.01159">
        <ele>52.771972</ele>
        <time>2020-07-16T22:00:39.831Z</time>
      </trkpt>
      <trkpt lat="62.72987" lon="7.01157">
        <ele>53.333586</ele>
        <time>2020-07-16T22:00:42.811Z</time>
      </trkpt>
      <trkpt lat="62.72988" lon="7.01195">
        <ele>54.347354</ele>
        <time>2020-07-16T22:00:50.550Z</time>
      </trkpt>
      <trkpt lat="62.72989" lon="7.01253">
        <ele>55.928071</ele>
        <time>2020-07-16T22:00:58.841Z</time>
      </trkpt>
      <trkpt lat="62.72989" lon="7.01261">
        <ele>56.125288</ele>
        <time>2020-07-16T22:01:00.917Z</time>
      </trkpt>
      <trkpt lat="62.73058" lon="7.01251">
        <ele>57.546877</ele>
        <time>2020-07-16T22:01:14.957Z</time>
      </trkpt>
      <trkpt lat="62.73065" lon="7.0125">
        <ele>57.212605</ele>
        <time>2020-07-16T22:01:16.244Z</time>
      </trkpt>
      <trkpt lat="62.73089" lon="7.01242">
        <ele>56.166867</ele>
        <time>2020-07-16T22:01:19.614Z</time>
      </trkpt>
      <trkpt lat="62.73111" lon="7.01236">
        <ele>55.143704</ele>
        <time>2020-07-16T22:01:22.607Z</time>
      </trkpt>
      <trkpt lat="62.73122" lon="7.01229">
        <ele>54.639792</ele>
        <time>2020-07-16T22:01:23.918Z</time>
      </trkpt>
      <trkpt lat="62.7313" lon="7.0122">
        <ele>54.268089</ele>
        <time>2020-07-16T22:01:24.893Z</time>
      </trkpt>
      <trkpt lat="62.73155" lon="7.01184">
        <ele>52.921479</ele>
        <time>2020-07-16T22:01:28.342Z</time>
      </trkpt>
      <trkpt lat="62.73166" lon="7.01159">
        <ele>52.205734</ele>
        <time>2020-07-16T22:01:30.087Z</time>
      </trkpt>
      <trkpt lat="62.7318" lon="7.01124">
        <ele>51.263797</ele>
        <time>2020-07-16T22:01:32.509Z</time>
      </trkpt>
      <trkpt lat="62.73225" lon="7.00977">
        <ele>47.60395</ele>
        <time>2020-07-16T22:01:41.756Z</time>
      </trkpt>
      <trkpt lat="62.73229" lon="7.00962">
        <ele>47.257029</ele>
        <time>2020-07-16T22:01:42.616Z</time>
      </trkpt>
      <trkpt lat="62.73237" lon="7.0092">
        <ele>46.301524</ele>
        <time>2020-07-16T22:01:45.385Z</time>
      </trkpt>
      <trkpt lat="62.73251" lon="7.00825">
        <ele>44.235586</ele>
        <time>2020-07-16T22:01:51.300Z</time>
      </trkpt>
      <trkpt lat="62.73254" lon="7.0079">
        <ele>43.502964</ele>
        <time>2020-07-16T22:01:53.739Z</time>
      </trkpt>
      <trkpt lat="62.73258" lon="7.00743">
        <ele>42.549554</ele>
        <time>2020-07-16T22:01:57.077Z</time>
      </trkpt>
      <trkpt lat="62.73262" lon="7.00631">
        <ele>42.393258</ele>
        <time>2020-07-16T22:02:05.538Z</time>
      </trkpt>
      <trkpt lat="62.73258" lon="7.00506">
        <ele>42.218579</ele>
        <time>2020-07-16T22:02:16.382Z</time>
      </trkpt>
      <trkpt lat="62.73246" lon="7.00339">
        <ele>41.932008</ele>
        <time>2020-07-16T22:02:30.144Z</time>
      </trkpt>
      <trkpt lat="62.73243" lon="7.00272">
        <ele>41.630771</ele>
        <time>2020-07-16T22:02:35.280Z</time>
      </trkpt>
      <trkpt lat="62.73242" lon="7.00215">
        <ele>41.375718</ele>
        <time>2020-07-16T22:02:39.446Z</time>
      </trkpt>
      <trkpt lat="62.73242" lon="7.00176">
        <ele>41.196024</ele>
        <time>2020-07-16T22:02:42.452Z</time>
      </trkpt>
      <trkpt lat="62.73242" lon="7.00059">
        <ele>40.669109</ele>
        <time>2020-07-16T22:02:50.575Z</time>
      </trkpt>
      <trkpt lat="62.73235" lon="6.99943">
        <ele>39.908728</ele>
        <time>2020-07-16T22:02:58.577Z</time>
      </trkpt>
      <trkpt lat="62.73225" lon="6.99793">
        <ele>37.533692</ele>
        <time>2020-07-16T22:03:08.108Z</time>
      </trkpt>
      <trkpt lat="62.7321" lon="6.99556">
        <ele>33.665485</ele>
        <time>2020-07-16T22:03:21.693Z</time>
      </trkpt>
      <trkpt lat="62.73206" lon="6.99506">
        <ele>32.577179</ele>
        <time>2020-07-16T22:03:24.510Z</time>
      </trkpt>
      <trkpt lat="62.73197" lon="6.99362">
        <ele>29.466659</ele>
        <time>2020-07-16T22:03:32.576Z</time>
      </trkpt>
      <trkpt lat="62.73189" lon="6.9905">
        <ele>25.052109</ele>
        <time>2020-07-16T22:03:50.328Z</time>
      </trkpt>
      <trkpt lat="62.73188" lon="6.99012">
        <ele>24.871488</ele>
        <time>2020-07-16T22:03:52.819Z</time>
      </trkpt>
      <trkpt lat="62.73186" lon="6.98872">
        <ele>24.212723</ele>
        <time>2020-07-16T22:04:04.151Z</time>
      </trkpt>
      <trkpt lat="62.73183" lon="6.9867">
        <ele>26.892127</ele>
        <time>2020-07-16T22:04:28.413Z</time>
      </trkpt>
      <trkpt lat="62.73186" lon="6.98545">
        <ele>30.018673</ele>
        <time>2020-07-16T22:04:48.478Z</time>
      </trkpt>
      <trkpt lat="62.73195" lon="6.98504">
        <ele>31.157483</ele>
        <time>2020-07-16T22:04:57.434Z</time>
      </trkpt>
      <trkpt lat="62.7321" lon="6.98467">
        <ele>32.392571</ele>
        <time>2020-07-16T22:05:07.913Z</time>
      </trkpt>
      <trkpt lat="62.7323" lon="6.98445">
        <ele>33.633902</ele>
        <time>2020-07-16T22:05:18.581Z</time>
      </trkpt>
      <trkpt lat="62.73258" lon="6.9844">
        <ele>35.487023</ele>
        <time>2020-07-16T22:05:30.386Z</time>
      </trkpt>
      <trkpt lat="62.73279" lon="6.98453">
        <ele>36.975093</ele>
        <time>2020-07-16T22:05:40.649Z</time>
      </trkpt>
      <trkpt lat="62.733" lon="6.98479">
        <ele>38.543552</ele>
        <time>2020-07-16T22:05:51.022Z</time>
      </trkpt>
      <trkpt lat="62.73323" lon="6.98512">
        <ele>40.38585</ele>
        <time>2020-07-16T22:06:01.912Z</time>
      </trkpt>
      <trkpt lat="62.73326" lon="6.98517">
        <ele>40.662735</ele>
        <time>2020-07-16T22:06:04.508Z</time>
      </trkpt>
      <trkpt lat="62.73359" lon="6.98559">
        <ele>43.209544</ele>
        <time>2020-07-16T22:06:19.170Z</time>
      </trkpt>
      <trkpt lat="62.73403" lon="6.98599">
        <ele>45.740154</ele>
        <time>2020-07-16T22:06:35.723Z</time>
      </trkpt>
      <trkpt lat="62.7359" lon="6.98702">
        <ele>47.044527</ele>
        <time>2020-07-16T22:07:12.567Z</time>
      </trkpt>
      <trkpt lat="62.73648" lon="6.98745">
        <ele>45.966451</ele>
        <time>2020-07-16T22:07:20.633Z</time>
      </trkpt>
      <trkpt lat="62.73839" lon="6.98888">
        <ele>44.445413</ele>
        <time>2020-07-16T22:07:49.652Z</time>
      </trkpt>
      <trkpt lat="62.73865" lon="6.98907">
        <ele>44.478994</ele>
        <time>2020-07-16T22:07:56.263Z</time>
      </trkpt>
      <trkpt lat="62.73952" lon="6.98972">
        <ele>45.203736</ele>
        <time>2020-07-16T22:08:22.347Z</time>
      </trkpt>
      <trkpt lat="62.7403" lon="6.99046">
        <ele>46.435586</ele>
        <time>2020-07-16T22:08:44.353Z</time>
      </trkpt>
      <trkpt lat="62.74039" lon="6.99057">
        <ele>46.587263</ele>
        <time>2020-07-16T22:08:46.626Z</time>
      </trkpt>
      <trkpt lat="62.74065" lon="6.99087">
        <ele>47.006202</ele>
        <time>2020-07-16T22:08:51.072Z</time>
      </trkpt>
      <trkpt lat="62.7408" lon="6.99104">
        <ele>46.860959</ele>
        <time>2020-07-16T22:08:53.567Z</time>
      </trkpt>
      <trkpt lat="62.74122" lon="6.99144">
        <ele>45.425329</ele>
        <time>2020-07-16T22:08:59.591Z</time>
      </trkpt>
      <trkpt lat="62.74145" lon="6.9916">
        <ele>44.667925</ele>
        <time>2020-07-16T22:09:02.577Z</time>
      </trkpt>
      <trkpt lat="62.74171" lon="6.99176">
        <ele>43.816139</ele>
        <time>2020-07-16T22:09:05.948Z</time>
      </trkpt>
      <trkpt lat="62.74232" lon="6.99204">
        <ele>41.852956</ele>
        <time>2020-07-16T22:09:13.554Z</time>
      </trkpt>
      <trkpt lat="62.7428" lon="6.99222">
        <ele>42.393778</ele>
        <time>2020-07-16T22:09:20.223Z</time>
      </trkpt>
      <trkpt lat="62.7435" lon="6.99249">
        <ele>44.1582</ele>
        <time>2020-07-16T22:09:36.414Z</time>
      </trkpt>
      <trkpt lat="62.74382" lon="6.99268">
        <ele>45.01029</ele>
        <time>2020-07-16T22:09:48.026Z</time>
      </trkpt>
      <trkpt lat="62.74411" lon="6.99303">
        <ele>45.829002</ele>
        <time>2020-07-16T22:10:00.910Z</time>
      </trkpt>
      <trkpt lat="62.74484" lon="6.99465">
        <ele>52.384207</ele>
        <time>2020-07-16T22:10:48.956Z</time>
      </trkpt>
      <trkpt lat="62.7452" lon="6.99532">
        <ele>55.465144</ele>
        <time>2020-07-16T22:11:07.807Z</time>
      </trkpt>
      <trkpt lat="62.74564" lon="6.99591">
        <ele>57.269085</ele>
        <time>2020-07-16T22:11:23.107Z</time>
      </trkpt>
      <trkpt lat="62.74606" lon="6.99628">
        <ele>56.057295</ele>
        <time>2020-07-16T22:11:31.524Z</time>
      </trkpt>
      <trkpt lat="62.74656" lon="6.99652">
        <ele>54.708804</ele>
        <time>2020-07-16T22:11:38.213Z</time>
      </trkpt>
      <trkpt lat="62.74714" lon="6.99658">
        <ele>53.154121</ele>
        <time>2020-07-16T22:11:45.029Z</time>
      </trkpt>
      <trkpt lat="62.74781" lon="6.99644">
        <ele>49.181031</ele>
        <time>2020-07-16T22:11:52.525Z</time>
      </trkpt>
      <trkpt lat="62.74828" lon="6.99623">
        <ele>46.104338</ele>
        <time>2020-07-16T22:11:58.045Z</time>
      </trkpt>
      <trkpt lat="62.74842" lon="6.99615">
        <ele>45.192115</ele>
        <time>2020-07-16T22:11:59.648Z</time>
      </trkpt>
      <trkpt lat="62.74853" lon="6.99608">
        <ele>44.448053</ele>
        <time>2020-07-16T22:12:01.014Z</time>
      </trkpt>
      <trkpt lat="62.74925" lon="6.99547">
        <ele>41.396267</ele>
        <time>2020-07-16T22:12:10.462Z</time>
      </trkpt>
      <trkpt lat="62.75023" lon="6.99443">
        <ele>41.072403</ele>
        <time>2020-07-16T22:12:28.891Z</time>
      </trkpt>
      <trkpt lat="62.75037" lon="6.99431">
        <ele>41.02635</ele>
        <time>2020-07-16T22:12:32.428Z</time>
      </trkpt>
      <trkpt lat="62.75056" lon="6.99417">
        <ele>40.967886</ele>
        <time>2020-07-16T22:12:38.457Z</time>
      </trkpt>
      <trkpt lat="62.75128" lon="6.9939">
        <ele>44.640079</ele>
        <time>2020-07-16T22:13:02.126Z</time>
      </trkpt>
      <trkpt lat="62.75203" lon="6.99401">
        <ele>48.705236</ele>
        <time>2020-07-16T22:13:31.116Z</time>
      </trkpt>
      <trkpt lat="62.75267" lon="6.99442">
        <ele>52.168557</ele>
        <time>2020-07-16T22:13:57.259Z</time>
      </trkpt>
      <trkpt lat="62.75329" lon="6.99518">
        <ele>55.743538</ele>
        <time>2020-07-16T22:14:22.333Z</time>
      </trkpt>
      <trkpt lat="62.75369" lon="6.9958">
        <ele>58.196206</ele>
        <time>2020-07-16T22:14:38.139Z</time>
      </trkpt>
      <trkpt lat="62.75372" lon="6.99573">
        <ele>58.399903</ele>
        <time>2020-07-16T22:14:38.701Z</time>
      </trkpt>
      <trkpt lat="62.75373" lon="6.99565">
        <ele>58.596571</ele>
        <time>2020-07-16T22:14:39.231Z</time>
      </trkpt>
      <trkpt lat="62.75377" lon="6.99573">
        <ele>58.865296</ele>
        <time>2020-07-16T22:14:41.718Z</time>
      </trkpt>
      <trkpt lat="62.75523" lon="6.99795">
        <ele>65.89354</ele>
        <time>2020-07-16T22:15:35.299Z</time>
      </trkpt>
      <trkpt lat="62.75526" lon="6.99797">
        <ele>66.034758</ele>
        <time>2020-07-16T22:15:36.606Z</time>
      </trkpt>
      <trkpt lat="62.7554" lon="6.99791">
        <ele>66.555767</ele>
        <time>2020-07-16T22:15:40.978Z</time>
      </trkpt>
      <trkpt lat="62.75543" lon="6.9979">
        <ele>66.702555</ele>
        <time>2020-07-16T22:15:42.809Z</time>
      </trkpt>
      <trkpt lat="62.75547" lon="6.99791">
        <ele>66.847689</ele>
        <time>2020-07-16T22:15:43.258Z</time>
      </trkpt>
      <trkpt lat="62.75557" lon="6.99808">
        <ele>67.326408</ele>
        <time>2020-07-16T22:15:49.469Z</time>
      </trkpt>
      <trkpt lat="62.75574" lon="6.99843">
        <ele>68.23084</ele>
        <time>2020-07-16T22:15:55.918Z</time>
      </trkpt>
      <trkpt lat="62.75574" lon="6.99855">
        <ele>68.434301</ele>
        <time>2020-07-16T22:15:58.067Z</time>
      </trkpt>
      <trkpt lat="62.75566" lon="6.9988">
        <ele>68.970365</ele>
        <time>2020-07-16T22:16:03.927Z</time>
      </trkpt>
      <trkpt lat="62.75561" lon="6.99894">
        <ele>69.283203</ele>
        <time>2020-07-16T22:16:06.121Z</time>
      </trkpt>
      <trkpt lat="62.75561" lon="6.99898">
        <ele>69.350821</ele>
        <time>2020-07-16T22:16:07.737Z</time>
      </trkpt>
      <trkpt lat="62.75571" lon="6.99924">
        <ele>69.941423</ele>
        <time>2020-07-16T22:16:12.026Z</time>
      </trkpt>
      <trkpt lat="62.75637" lon="7.00001">
        <ele>72.81634</ele>
        <time>2020-07-16T22:16:35.989Z</time>
      </trkpt>
      <trkpt lat="62.75715" lon="7.00069">
        <ele>72.185518</ele>
        <time>2020-07-16T22:16:54.729Z</time>
      </trkpt>
      <trkpt lat="62.7582" lon="7.00116">
        <ele>70.019195</ele>
        <time>2020-07-16T22:17:08.935Z</time>
      </trkpt>
      <trkpt lat="62.75925" lon="7.00116">
        <ele>64.388598</ele>
        <time>2020-07-16T22:17:22.031Z</time>
      </trkpt>
      <trkpt lat="62.75933" lon="7.00114">
        <ele>63.924633</ele>
        <time>2020-07-16T22:17:23.083Z</time>
      </trkpt>
      <trkpt lat="62.75945" lon="7.00111">
        <ele>63.255875</ele>
        <time>2020-07-16T22:17:24.548Z</time>
      </trkpt>
      <trkpt lat="62.76026" lon="7.00074">
        <ele>58.466077</ele>
        <time>2020-07-16T22:17:34.664Z</time>
      </trkpt>
      <trkpt lat="62.7621" lon="6.9996">
        <ele>47.274521</ele>
        <time>2020-07-16T22:17:58.021Z</time>
      </trkpt>
      <trkpt lat="62.7626" lon="6.99923">
        <ele>45.465364</ele>
        <time>2020-07-16T22:18:04.863Z</time>
      </trkpt>
      <trkpt lat="62.76281" lon="6.99907">
        <ele>44.681355</ele>
        <time>2020-07-16T22:18:07.972Z</time>
      </trkpt>
      <trkpt lat="62.76289" lon="6.999">
        <ele>44.399588</ele>
        <time>2020-07-16T22:18:09.099Z</time>
      </trkpt>
      <trkpt lat="62.76325" lon="6.9987">
        <ele>43.064424</ele>
        <time>2020-07-16T22:18:14.679Z</time>
      </trkpt>
      <trkpt lat="62.76362" lon="6.99835">
        <ele>42.231681</ele>
        <time>2020-07-16T22:18:21.271Z</time>
      </trkpt>
      <trkpt lat="62.76364" lon="6.99833">
        <ele>42.23894</ele>
        <time>2020-07-16T22:18:21.702Z</time>
      </trkpt>
      <trkpt lat="62.76461" lon="6.99719">
        <ele>42.574286</ele>
        <time>2020-07-16T22:18:45.136Z</time>
      </trkpt>
      <trkpt lat="62.76472" lon="6.99704">
        <ele>42.614195</ele>
        <time>2020-07-16T22:18:47.822Z</time>
      </trkpt>
      <trkpt lat="62.76483" lon="6.99688">
        <ele>42.653286</ele>
        <time>2020-07-16T22:18:50.646Z</time>
      </trkpt>
      <trkpt lat="62.76518" lon="6.99636">
        <ele>42.515413</ele>
        <time>2020-07-16T22:18:59.440Z</time>
      </trkpt>
      <trkpt lat="62.76542" lon="6.99601">
        <ele>42.130769</ele>
        <time>2020-07-16T22:19:04.901Z</time>
      </trkpt>
      <trkpt lat="62.76596" lon="6.99537">
        <ele>41.318265</ele>
        <time>2020-07-16T22:19:15.100Z</time>
      </trkpt>
      <trkpt lat="62.7666" lon="6.99504">
        <ele>40.446517</ele>
        <time>2020-07-16T22:19:24.320Z</time>
      </trkpt>
      <trkpt lat="62.767" lon="6.99495">
        <ele>39.514662</ele>
        <time>2020-07-16T22:19:29.838Z</time>
      </trkpt>
      <trkpt lat="62.76713" lon="6.99492">
        <ele>39.184631</ele>
        <time>2020-07-16T22:19:31.536Z</time>
      </trkpt>
      <trkpt lat="62.76735" lon="6.99481">
        <ele>38.636911</ele>
        <time>2020-07-16T22:19:34.675Z</time>
      </trkpt>
      <trkpt lat="62.76745" lon="6.99472">
        <ele>38.349628</ele>
        <time>2020-07-16T22:19:36.171Z</time>
      </trkpt>
      <trkpt lat="62.76761" lon="6.99452">
        <ele>37.90501</ele>
        <time>2020-07-16T22:19:39.587Z</time>
      </trkpt>
      <trkpt lat="62.76766" lon="6.99444">
        <ele>37.752553</ele>
        <time>2020-07-16T22:19:40.688Z</time>
      </trkpt>
      <trkpt lat="62.7678" lon="6.99418">
        <ele>37.289904</ele>
        <time>2020-07-16T22:19:43.963Z</time>
      </trkpt>
      <trkpt lat="62.768" lon="6.99344">
        <ele>36.297532</ele>
        <time>2020-07-16T22:19:51.829Z</time>
      </trkpt>
      <trkpt lat="62.76818" lon="6.99317">
        <ele>35.839523</ele>
        <time>2020-07-16T22:19:56.236Z</time>
      </trkpt>
      <trkpt lat="62.76853" lon="6.99301">
        <ele>35.868959</ele>
        <time>2020-07-16T22:20:03.814Z</time>
      </trkpt>
      <trkpt lat="62.76891" lon="6.99301">
        <ele>35.901052</ele>
        <time>2020-07-16T22:20:12.714Z</time>
      </trkpt>
      <trkpt lat="62.76915" lon="6.99321">
        <ele>35.922872</ele>
        <time>2020-07-16T22:20:19.100Z</time>
      </trkpt>
      <trkpt lat="62.76928" lon="6.99349">
        <ele>35.938192</ele>
        <time>2020-07-16T22:20:24.473Z</time>
      </trkpt>
      <trkpt lat="62.76931" lon="6.99347">
        <ele>35.94052</ele>
        <time>2020-07-16T22:20:24.961Z</time>
      </trkpt>
      <trkpt lat="62.76984" lon="6.99372">
        <ele>35.98661</ele>
        <time>2020-07-16T22:20:35.928Z</time>
      </trkpt>
      <trkpt lat="62.77029" lon="6.99376">
        <ele>36.279208</ele>
        <time>2020-07-16T22:20:45.486Z</time>
      </trkpt>
      <trkpt lat="62.77034" lon="6.99375">
        <ele>36.308088</ele>
        <time>2020-07-16T22:20:46.510Z</time>
      </trkpt>
      <trkpt lat="62.77039" lon="6.99375">
        <ele>36.341608</ele>
        <time>2020-07-16T22:20:47.627Z</time>
      </trkpt>
      <trkpt lat="62.77045" lon="6.99376">
        <ele>36.384576</ele>
        <time>2020-07-16T22:20:49.027Z</time>
      </trkpt>
      <trkpt lat="62.77061" lon="6.99374">
        <ele>36.493223</ele>
        <time>2020-07-16T22:20:52.240Z</time>
      </trkpt>
      <trkpt lat="62.77081" lon="6.99365">
        <ele>36.632122</ele>
        <time>2020-07-16T22:20:56.950Z</time>
      </trkpt>
      <trkpt lat="62.77089" lon="6.99358">
        <ele>36.68789</ele>
        <time>2020-07-16T22:20:58.294Z</time>
      </trkpt>
      <trkpt lat="62.77098" lon="6.99349">
        <ele>36.752378</ele>
        <time>2020-07-16T22:21:00.074Z</time>
      </trkpt>
      <trkpt lat="62.7715" lon="6.99257">
        <ele>37.204076</ele>
        <time>2020-07-16T22:21:13.539Z</time>
      </trkpt>
      <trkpt lat="62.77158" lon="6.99243">
        <ele>37.272959</ele>
        <time>2020-07-16T22:21:15.870Z</time>
      </trkpt>
      <trkpt lat="62.77165" lon="6.99227">
        <ele>37.344167</ele>
        <time>2020-07-16T22:21:18.379Z</time>
      </trkpt>
      <trkpt lat="62.77218" lon="6.99127">
        <ele>37.827822</ele>
        <time>2020-07-16T22:21:33.242Z</time>
      </trkpt>
      <trkpt lat="62.7724" lon="6.991">
        <ele>38.005141</ele>
        <time>2020-07-16T22:21:38.251Z</time>
      </trkpt>
      <trkpt lat="62.77242" lon="6.991">
        <ele>38.018459</ele>
        <time>2020-07-16T22:21:39.040Z</time>
      </trkpt>
      <trkpt lat="62.77244" lon="6.99093">
        <ele>38.042798</ele>
        <time>2020-07-16T22:21:40.413Z</time>
      </trkpt>
      <trkpt lat="62.77276" lon="6.99049">
        <ele>38.303906</ele>
        <time>2020-07-16T22:21:52.733Z</time>
      </trkpt>
      <trkpt lat="62.77305" lon="6.99033">
        <ele>38.370089</ele>
        <time>2020-07-16T22:22:02.242Z</time>
      </trkpt>
      <trkpt lat="62.77341" lon="6.99027">
        <ele>38.130619</ele>
        <time>2020-07-16T22:22:12.372Z</time>
      </trkpt>
      <trkpt lat="62.77374" lon="6.99032">
        <ele>37.912365</ele>
        <time>2020-07-16T22:22:21.288Z</time>
      </trkpt>
      <trkpt lat="62.77407" lon="6.99051">
        <ele>37.689702</ele>
        <time>2020-07-16T22:22:30.474Z</time>
      </trkpt>
      <trkpt lat="62.77462" lon="6.99109">
        <ele>37.281302</ele>
        <time>2020-07-16T22:22:46.483Z</time>
      </trkpt>
      <trkpt lat="62.77469" lon="6.99129">
        <ele>37.348771</ele>
        <time>2020-07-16T22:22:49.493Z</time>
      </trkpt>
      <trkpt lat="62.77473" lon="6.9913">
        <ele>37.410493</ele>
        <time>2020-07-16T22:22:50.449Z</time>
      </trkpt>
      <trkpt lat="62.77502" lon="6.9914">
        <ele>37.852481</ele>
        <time>2020-07-16T22:22:59.812Z</time>
      </trkpt>
      <trkpt lat="62.77534" lon="6.99177">
        <ele>38.401368</ele>
        <time>2020-07-16T22:23:10.970Z</time>
      </trkpt>
      <trkpt lat="62.77551" lon="6.99192">
        <ele>38.681232</ele>
        <time>2020-07-16T22:23:18.202Z</time>
      </trkpt>
      <trkpt lat="62.77553" lon="6.99186">
        <ele>38.733118</ele>
        <time>2020-07-16T22:23:19.440Z</time>
      </trkpt>
      <trkpt lat="62.77554" lon="6.99177">
        <ele>38.796588</ele>
        <time>2020-07-16T22:23:20.696Z</time>
      </trkpt>
      <trkpt lat="62.77557" lon="6.99154">
        <ele>38.962851</ele>
        <time>2020-07-16T22:23:22.839Z</time>
      </trkpt>
      <trkpt lat="62.77559" lon="6.99146">
        <ele>39.024294</ele>
        <time>2020-07-16T22:23:23.952Z</time>
      </trkpt>
      <trkpt lat="62.77562" lon="6.99135">
        <ele>39.112201</ele>
        <time>2020-07-16T22:23:26.102Z</time>
      </trkpt>
      <trkpt lat="62.77585" lon="6.99152">
        <ele>39.481671</ele>
        <time>2020-07-16T22:23:35.787Z</time>
      </trkpt>
      <trkpt lat="62.77595" lon="6.99158">
        <ele>39.645878</ele>
        <time>2020-07-16T22:23:39.193Z</time>
      </trkpt>
      <trkpt lat="62.77598" lon="6.99159">
        <ele>39.686027</ele>
        <time>2020-07-16T22:23:40.754Z</time>
      </trkpt>
      <trkpt lat="62.77599" lon="6.99163">
        <ele>39.721476</ele>
        <time>2020-07-16T22:23:42.517Z</time>
      </trkpt>
      <trkpt lat="62.77613" lon="6.99176">
        <ele>39.9475</ele>
        <time>2020-07-16T22:23:47.969Z</time>
      </trkpt>
      <trkpt lat="62.77662" lon="6.99187">
        <ele>42.264226</ele>
        <time>2020-07-16T22:24:09.017Z</time>
      </trkpt>
      <trkpt lat="62.77673" lon="6.99191">
        <ele>42.852271</ele>
        <time>2020-07-16T22:24:16.320Z</time>
      </trkpt>
      <trkpt lat="62.77699" lon="6.99198">
        <ele>44.089364</ele>
        <time>2020-07-16T22:24:26.303Z</time>
      </trkpt>
      <trkpt lat="62.77741" lon="6.99217">
        <ele>46.19522</ele>
        <time>2020-07-16T22:24:48.383Z</time>
      </trkpt>
      <trkpt lat="62.7777" lon="6.99242">
        <ele>47.710886</ele>
        <time>2020-07-16T22:25:01.477Z</time>
      </trkpt>
      <trkpt lat="62.77776" lon="6.99242">
        <ele>48.029272</ele>
        <time>2020-07-16T22:25:04.858Z</time>
      </trkpt>
      <trkpt lat="62.77781" lon="6.99246">
        <ele>48.304197</ele>
        <time>2020-07-16T22:25:07.722Z</time>
      </trkpt>
      <trkpt lat="62.7791" lon="6.99426">
        <ele>55.622574</ele>
        <time>2020-07-16T22:26:16.711Z</time>
      </trkpt>
      <trkpt lat="62.77935" lon="6.99439">
        <ele>56.837302</ele>
        <time>2020-07-16T22:26:27.541Z</time>
      </trkpt>
      <trkpt lat="62.77939" lon="6.99452">
        <ele>57.187631</ele>
        <time>2020-07-16T22:26:30.404Z</time>
      </trkpt>
      <trkpt lat="62.77953" lon="6.99493">
        <ele>58.088462</ele>
        <time>2020-07-16T22:26:37.888Z</time>
      </trkpt>
      <trkpt lat="62.78036" lon="6.99649">
        <ele>62.077646</ele>
        <time>2020-07-16T22:27:15.532Z</time>
      </trkpt>
      <trkpt lat="62.78159" lon="6.99962">
        <ele>63.699064</ele>
        <time>2020-07-16T22:27:56.551Z</time>
      </trkpt>
      <trkpt lat="62.78164" lon="6.99966">
        <ele>63.689811</ele>
        <time>2020-07-16T22:27:57.173Z</time>
      </trkpt>
      <trkpt lat="62.78169" lon="6.99982">
        <ele>63.672283</ele>
        <time>2020-07-16T22:27:58.546Z</time>
      </trkpt>
      <trkpt lat="62.78176" lon="7.00012">
        <ele>63.643729</ele>
        <time>2020-07-16T22:28:00.682Z</time>
      </trkpt>
      <trkpt lat="62.78354" lon="7.00493">
        <ele>54.792021</ele>
        <time>2020-07-16T22:28:38.118Z</time>
      </trkpt>
      <trkpt lat="62.78397" lon="7.00652">
        <ele>52.839848</ele>
        <time>2020-07-16T22:28:52.101Z</time>
      </trkpt>
      <trkpt lat="62.78403" lon="7.0067">
        <ele>52.721329</ele>
        <time>2020-07-16T22:28:53.955Z</time>
      </trkpt>
      <trkpt lat="62.78413" lon="7.00695">
        <ele>52.709638</ele>
        <time>2020-07-16T22:28:56.479Z</time>
      </trkpt>
      <trkpt lat="62.78418" lon="7.00709">
        <ele>52.702952</ele>
        <time>2020-07-16T22:28:57.986Z</time>
      </trkpt>
      <trkpt lat="62.78422" lon="7.00713">
        <ele>52.699253</ele>
        <time>2020-07-16T22:28:58.990Z</time>
      </trkpt>
      <trkpt lat="62.78426" lon="7.00719">
        <ele>52.695595</ele>
        <time>2020-07-16T22:28:59.744Z</time>
      </trkpt>
      <trkpt lat="62.78441" lon="7.00755">
        <ele>52.677742</ele>
        <time>2020-07-16T22:29:03.630Z</time>
      </trkpt>
      <trkpt lat="62.78449" lon="7.00773">
        <ele>52.668978</ele>
        <time>2020-07-16T22:29:05.862Z</time>
      </trkpt>
      <trkpt lat="62.78477" lon="7.00844">
        <ele>52.634875</ele>
        <time>2020-07-16T22:29:13.781Z</time>
      </trkpt>
      <trkpt lat="62.78506" lon="7.00913">
        <ele>52.600568</ele>
        <time>2020-07-16T22:29:22.020Z</time>
      </trkpt>
      <trkpt lat="62.78525" lon="7.0096">
        <ele>52.529907</ele>
        <time>2020-07-16T22:29:27.202Z</time>
      </trkpt>
      <trkpt lat="62.78611" lon="7.01182">
        <ele>51.323081</ele>
        <time>2020-07-16T22:29:48.184Z</time>
      </trkpt>
      <trkpt lat="62.78622" lon="7.01205">
        <ele>51.18466</ele>
        <time>2020-07-16T22:29:50.414Z</time>
      </trkpt>
      <trkpt lat="62.7863" lon="7.01227">
        <ele>51.070918</ele>
        <time>2020-07-16T22:29:52.189Z</time>
      </trkpt>
      <trkpt lat="62.78637" lon="7.01248">
        <ele>50.957887</ele>
        <time>2020-07-16T22:29:54.116Z</time>
      </trkpt>
      <trkpt lat="62.78648" lon="7.01274">
        <ele>50.71424</ele>
        <time>2020-07-16T22:29:56.321Z</time>
      </trkpt>
      <trkpt lat="62.78651" lon="7.01282">
        <ele>50.628169</ele>
        <time>2020-07-16T22:29:57.072Z</time>
      </trkpt>
      <trkpt lat="62.78671" lon="7.01355">
        <ele>50.009307</ele>
        <time>2020-07-16T22:30:02.713Z</time>
      </trkpt>
      <trkpt lat="62.7868" lon="7.01379">
        <ele>49.783586</ele>
        <time>2020-07-16T22:30:04.872Z</time>
      </trkpt>
      <trkpt lat="62.7869" lon="7.01372">
        <ele>49.616574</ele>
        <time>2020-07-16T22:30:06.375Z</time>
      </trkpt>
      <trkpt lat="62.78696" lon="7.01368">
        <ele>49.520695</ele>
        <time>2020-07-16T22:30:07.153Z</time>
      </trkpt>
      <trkpt lat="62.78778" lon="7.01295">
        <ele>48.098688</ele>
        <time>2020-07-16T22:30:20.314Z</time>
      </trkpt>
      <trkpt lat="62.78848" lon="7.01234">
        <ele>47.263813</ele>
        <time>2020-07-16T22:30:31.228Z</time>
      </trkpt>
      <trkpt lat="62.78917" lon="7.01168">
        <ele>46.42977</ele>
        <time>2020-07-16T22:30:43.118Z</time>
      </trkpt>
      <trkpt lat="62.78949" lon="7.01134">
        <ele>46.043847</ele>
        <time>2020-07-16T22:30:48.937Z</time>
      </trkpt>
      <trkpt lat="62.7896" lon="7.01122">
        <ele>45.927703</ele>
        <time>2020-07-16T22:30:50.943Z</time>
      </trkpt>
      <trkpt lat="62.78999" lon="7.01067">
        <ele>45.482141</ele>
        <time>2020-07-16T22:30:58.245Z</time>
      </trkpt>
      <trkpt lat="62.7904" lon="7.00969">
        <ele>44.901014</ele>
        <time>2020-07-16T22:31:07.726Z</time>
      </trkpt>
      <trkpt lat="62.79083" lon="7.0085">
        <ele>44.307311</ele>
        <time>2020-07-16T22:31:18.229Z</time>
      </trkpt>
      <trkpt lat="62.79089" lon="7.0083">
        <ele>44.253247</ele>
        <time>2020-07-16T22:31:19.763Z</time>
      </trkpt>
      <trkpt lat="62.79153" lon="7.00607">
        <ele>43.663565</ele>
        <time>2020-07-16T22:31:39.062Z</time>
      </trkpt>
      <trkpt lat="62.79178" lon="7.00552">
        <ele>43.515532</ele>
        <time>2020-07-16T22:31:45.711Z</time>
      </trkpt>
      <trkpt lat="62.79219" lon="7.00494">
        <ele>44.38697</ele>
        <time>2020-07-16T22:31:55.898Z</time>
      </trkpt>
      <trkpt lat="62.79234" lon="7.00473">
        <ele>44.707565</ele>
        <time>2020-07-16T22:32:00.274Z</time>
      </trkpt>
      <trkpt lat="62.79272" lon="7.00407">
        <ele>45.568852</ele>
        <time>2020-07-16T22:32:11.514Z</time>
      </trkpt>
      <trkpt lat="62.79365" lon="7.00122">
        <ele>48.894509</ele>
        <time>2020-07-16T22:32:54.765Z</time>
      </trkpt>
      <trkpt lat="62.7938" lon="7.00074">
        <ele>49.488259</ele>
        <time>2020-07-16T22:33:01.202Z</time>
      </trkpt>
      <trkpt lat="62.79386" lon="7.00056">
        <ele>49.71555</ele>
        <time>2020-07-16T22:33:03.697Z</time>
      </trkpt>
      <trkpt lat="62.79444" lon="6.99861">
        <ele>50.931573</ele>
        <time>2020-07-16T22:33:27.444Z</time>
      </trkpt>
      <trkpt lat="62.79502" lon="6.99574">
        <ele>51.309346</ele>
        <time>2020-07-16T22:33:51.391Z</time>
      </trkpt>
      <trkpt lat="62.79533" lon="6.99421">
        <ele>51.509423</ele>
        <time>2020-07-16T22:34:05.145Z</time>
      </trkpt>
      <trkpt lat="62.79535" lon="6.99412">
        <ele>51.521821</ele>
        <time>2020-07-16T22:34:05.858Z</time>
      </trkpt>
      <trkpt lat="62.79555" lon="6.99348">
        <ele>51.614651</ele>
        <time>2020-07-16T22:34:12.849Z</time>
      </trkpt>
      <trkpt lat="62.79559" lon="6.99343">
        <ele>51.625716</ele>
        <time>2020-07-16T22:34:13.480Z</time>
      </trkpt>
      <trkpt lat="62.79565" lon="6.99339">
        <ele>51.642219</ele>
        <time>2020-07-16T22:34:15.121Z</time>
      </trkpt>
      <trkpt lat="62.79577" lon="6.99337">
        <ele>51.675256</ele>
        <time>2020-07-16T22:34:17.847Z</time>
      </trkpt>
      <trkpt lat="62.79603" lon="6.99352">
        <ele>51.873171</ele>
        <time>2020-07-16T22:34:22.949Z</time>
      </trkpt>
      <trkpt lat="62.79615" lon="6.99362">
        <ele>52.079043</ele>
        <time>2020-07-16T22:34:25.840Z</time>
      </trkpt>
      <trkpt lat="62.79677" lon="6.99412">
        <ele>53.157517</ele>
        <time>2020-07-16T22:34:40.777Z</time>
      </trkpt>
      <trkpt lat="62.79787" lon="6.99501">
        <ele>54.77157</ele>
        <time>2020-07-16T22:35:09.876Z</time>
      </trkpt>
      <trkpt lat="62.79804" lon="6.99514">
        <ele>54.857917</ele>
        <time>2020-07-16T22:35:13.871Z</time>
      </trkpt>
      <trkpt lat="62.79863" lon="6.99537">
        <ele>55.150627</ele>
        <time>2020-07-16T22:35:25.962Z</time>
      </trkpt>
      <trkpt lat="62.79891" lon="6.99566">
        <ele>55.306433</ele>
        <time>2020-07-16T22:35:31.850Z</time>
      </trkpt>
      <trkpt lat="62.7991" lon="6.99624">
        <ele>55.4637</ele>
        <time>2020-07-16T22:35:37.450Z</time>
      </trkpt>
      <trkpt lat="62.79951" lon="6.99959">
        <ele>52.500469</ele>
        <time>2020-07-16T22:35:59.967Z</time>
      </trkpt>
      <trkpt lat="62.79999" lon="7.00095">
        <ele>50.670132</ele>
        <time>2020-07-16T22:36:10.153Z</time>
      </trkpt>
      <trkpt lat="62.80064" lon="7.00314">
        <ele>47.629554</ele>
        <time>2020-07-16T22:36:26.395Z</time>
      </trkpt>
      <trkpt lat="62.80101" lon="7.00384">
        <ele>46.791292</ele>
        <time>2020-07-16T22:36:33.435Z</time>
      </trkpt>
      <trkpt lat="62.80228" lon="7.00509">
        <ele>44.930786</ele>
        <time>2020-07-16T22:36:54.802Z</time>
      </trkpt>
      <trkpt lat="62.80265" lon="7.00562">
        <ele>44.256595</ele>
        <time>2020-07-16T22:37:01.545Z</time>
      </trkpt>
      <trkpt lat="62.80316" lon="7.00658">
        <ele>43.196881</ele>
        <time>2020-07-16T22:37:11.504Z</time>
      </trkpt>
      <trkpt lat="62.80347" lon="7.00714">
        <ele>42.578515</ele>
        <time>2020-07-16T22:37:17.210Z</time>
      </trkpt>
      <trkpt lat="62.80392" lon="7.00797">
        <ele>41.459776</ele>
        <time>2020-07-16T22:37:25.563Z</time>
      </trkpt>
      <trkpt lat="62.80467" lon="7.00941">
        <ele>39.050011</ele>
        <time>2020-07-16T22:37:39.416Z</time>
      </trkpt>
      <trkpt lat="62.80571" lon="7.01143">
        <ele>35.048436</ele>
        <time>2020-07-16T22:37:57.896Z</time>
      </trkpt>
      <trkpt lat="62.80599" lon="7.012">
        <ele>33.797169</ele>
        <time>2020-07-16T22:38:02.995Z</time>
      </trkpt>
      <trkpt lat="62.80653" lon="7.01302">
        <ele>31.447987</ele>
        <time>2020-07-16T22:38:12.016Z</time>
      </trkpt>
      <trkpt lat="62.80685" lon="7.01334">
        <ele>30.155518</ele>
        <time>2020-07-16T22:38:16.465Z</time>
      </trkpt>
      <trkpt lat="62.80735" lon="7.01358">
        <ele>28.263905</ele>
        <time>2020-07-16T22:38:23.056Z</time>
      </trkpt>
      <trkpt lat="62.80743" lon="7.01361">
        <ele>27.982008</ele>
        <time>2020-07-16T22:38:23.967Z</time>
      </trkpt>
      <trkpt lat="62.80808" lon="7.0139">
        <ele>25.528987</ele>
        <time>2020-07-16T22:38:32.597Z</time>
      </trkpt>
      <trkpt lat="62.80837" lon="7.01412">
        <ele>24.387797</ele>
        <time>2020-07-16T22:38:36.530Z</time>
      </trkpt>
      <trkpt lat="62.80946" lon="7.01567">
        <ele>19.506602</ele>
        <time>2020-07-16T22:38:53.003Z</time>
      </trkpt>
      <trkpt lat="62.80987" lon="7.01625">
        <ele>17.694191</ele>
        <time>2020-07-16T22:38:59.254Z</time>
      </trkpt>
      <trkpt lat="62.81001" lon="7.01647">
        <ele>17.047605</ele>
        <time>2020-07-16T22:39:01.424Z</time>
      </trkpt>
      <trkpt lat="62.81092" lon="7.01776">
        <ele>13.059133</ele>
        <time>2020-07-16T22:39:15.157Z</time>
      </trkpt>
      <trkpt lat="62.81125" lon="7.01834">
        <ele>11.557384</ele>
        <time>2020-07-16T22:39:20.670Z</time>
      </trkpt>
      <trkpt lat="62.81257" lon="7.02207">
        <ele>5.880244</ele>
        <time>2020-07-16T22:39:49.433Z</time>
      </trkpt>
      <trkpt lat="62.81259" lon="7.02213">
        <ele>5.824761</ele>
        <time>2020-07-16T22:39:49.847Z</time>
      </trkpt>
      <trkpt lat="62.81261" lon="7.02217">
        <ele>5.773126</ele>
        <time>2020-07-16T22:39:50.249Z</time>
      </trkpt>
      <trkpt lat="62.81375" lon="7.02388">
        <ele>3.735185</ele>
        <time>2020-07-16T22:40:11.314Z</time>
      </trkpt>
      <trkpt lat="62.81422" lon="7.02494">
        <ele>3.768274</ele>
        <time>2020-07-16T22:40:23.499Z</time>
      </trkpt>
      <trkpt lat="62.81456" lon="7.02612">
        <ele>3.799347</ele>
        <time>2020-07-16T22:40:35.687Z</time>
      </trkpt>
      <trkpt lat="62.81555" lon="7.03012">
        <ele>4.31125</ele>
        <time>2020-07-16T22:41:14.963Z</time>
      </trkpt>
      <trkpt lat="62.81615" lon="7.03225">
        <ele>4.433819</ele>
        <time>2020-07-16T22:41:35.441Z</time>
      </trkpt>
      <trkpt lat="62.81619" lon="7.03246">
        <ele>4.443586</ele>
        <time>2020-07-16T22:41:37.337Z</time>
      </trkpt>
      <trkpt lat="62.81627" lon="7.03289">
        <ele>4.462757</ele>
        <time>2020-07-16T22:41:41.179Z</time>
      </trkpt>
      <trkpt lat="62.81634" lon="7.03332">
        <ele>4.481379</ele>
        <time>2020-07-16T22:41:44.876Z</time>
      </trkpt>
      <trkpt lat="62.81636" lon="7.03354">
        <ele>4.490622</ele>
        <time>2020-07-16T22:41:46.737Z</time>
      </trkpt>
      <trkpt lat="62.81638" lon="7.03384">
        <ele>4.505311</ele>
        <time>2020-07-16T22:41:49.288Z</time>
      </trkpt>
      <trkpt lat="62.81638" lon="7.03581">
        <ele>4.781214</ele>
        <time>2020-07-16T22:42:05.996Z</time>
      </trkpt>
      <trkpt lat="62.81634" lon="7.03705">
        <ele>4.956047</ele>
        <time>2020-07-16T22:42:16.947Z</time>
      </trkpt>
      <trkpt lat="62.81632" lon="7.03788">
        <ele>5.075089</ele>
        <time>2020-07-16T22:42:24.166Z</time>
      </trkpt>
      <trkpt lat="62.81629" lon="7.04085">
        <ele>5.569044</ele>
        <time>2020-07-16T22:42:50.096Z</time>
      </trkpt>
      <trkpt lat="62.81635" lon="7.04257">
        <ele>6.035282</ele>
        <time>2020-07-16T22:43:04.888Z</time>
      </trkpt>
      <trkpt lat="62.81644" lon="7.04379">
        <ele>6.494147</ele>
        <time>2020-07-16T22:43:15.790Z</time>
      </trkpt>
      <trkpt lat="62.81658" lon="7.04561">
        <ele>7.21719</ele>
        <time>2020-07-16T22:43:33.404Z</time>
      </trkpt>
      <trkpt lat="62.8167" lon="7.04692">
        <ele>9.267714</ele>
        <time>2020-07-16T22:43:48.726Z</time>
      </trkpt>
      <trkpt lat="62.81693" lon="7.048">
        <ele>11.065866</ele>
        <time>2020-07-16T22:44:04.174Z</time>
      </trkpt>
      <trkpt lat="62.81702" lon="7.04851">
        <ele>11.908559</ele>
        <time>2020-07-16T22:44:11.567Z</time>
      </trkpt>
      <trkpt lat="62.81705" lon="7.04867">
        <ele>12.170194</ele>
        <time>2020-07-16T22:44:14.802Z</time>
      </trkpt>
      <trkpt lat="62.81715" lon="7.05002">
        <ele>15.176079</ele>
        <time>2020-07-16T22:44:35.526Z</time>
      </trkpt>
      <trkpt lat="62.81718" lon="7.05132">
        <ele>18.816172</ele>
        <time>2020-07-16T22:44:59.566Z</time>
      </trkpt>
      <trkpt lat="62.81719" lon="7.05211">
        <ele>21.033221</ele>
        <time>2020-07-16T22:45:14.113Z</time>
      </trkpt>
      <trkpt lat="62.81726" lon="7.05332">
        <ele>24.371036</ele>
        <time>2020-07-16T22:45:34.200Z</time>
      </trkpt>
      <trkpt lat="62.8173" lon="7.05369">
        <ele>25.088109</ele>
        <time>2020-07-16T22:45:41.265Z</time>
      </trkpt>
      <trkpt lat="62.81737" lon="7.05437">
        <ele>26.412002</ele>
        <time>2020-07-16T22:45:52.979Z</time>
      </trkpt>
      <trkpt lat="62.81741" lon="7.05496">
        <ele>27.525117</ele>
        <time>2020-07-16T22:46:02.419Z</time>
      </trkpt>
      <trkpt lat="62.81741" lon="7.05643">
        <ele>30.293738</ele>
        <time>2020-07-16T22:46:22.784Z</time>
      </trkpt>
      <trkpt lat="62.8175" lon="7.05739">
        <ele>31.461606</ele>
        <time>2020-07-16T22:46:34.015Z</time>
      </trkpt>
      <trkpt lat="62.81751" lon="7.05766">
        <ele>31.268683</ele>
        <time>2020-07-16T22:46:36.805Z</time>
      </trkpt>
      <trkpt lat="62.81753" lon="7.0579">
        <ele>31.102903</ele>
        <time>2020-07-16T22:46:38.936Z</time>
      </trkpt>
      <trkpt lat="62.81781" lon="7.06331">
        <ele>25.615881</ele>
        <time>2020-07-16T22:47:12.489Z</time>
      </trkpt>
      <trkpt lat="62.81771" lon="7.06415">
        <ele>24.368972</ele>
        <time>2020-07-16T22:47:17.435Z</time>
      </trkpt>
      <trkpt lat="62.81739" lon="7.06512">
        <ele>22.766428</ele>
        <time>2020-07-16T22:47:24.500Z</time>
      </trkpt>
      <trkpt lat="62.8173" lon="7.06538">
        <ele>22.385122</ele>
        <time>2020-07-16T22:47:26.377Z</time>
      </trkpt>
      <trkpt lat="62.81708" lon="7.06594">
        <ele>21.535513</ele>
        <time>2020-07-16T22:47:30.838Z</time>
      </trkpt>
      <trkpt lat="62.8167" lon="7.06722">
        <ele>19.780284</ele>
        <time>2020-07-16T22:47:40.415Z</time>
      </trkpt>
      <trkpt lat="62.81663" lon="7.06753">
        <ele>19.3767</ele>
        <time>2020-07-16T22:47:42.783Z</time>
      </trkpt>
      <trkpt lat="62.81654" lon="7.06798">
        <ele>18.815341</ele>
        <time>2020-07-16T22:47:45.889Z</time>
      </trkpt>
      <trkpt lat="62.81642" lon="7.06901">
        <ele>18.149743</ele>
        <time>2020-07-16T22:47:53.351Z</time>
      </trkpt>
      <trkpt lat="62.81638" lon="7.07067">
        <ele>17.193568</ele>
        <time>2020-07-16T22:48:05.005Z</time>
      </trkpt>
      <trkpt lat="62.81637" lon="7.07091">
        <ele>17.049731</ele>
        <time>2020-07-16T22:48:06.770Z</time>
      </trkpt>
      <trkpt lat="62.81632" lon="7.07132">
        <ele>16.807054</ele>
        <time>2020-07-16T22:48:09.623Z</time>
      </trkpt>
      <trkpt lat="62.81616" lon="7.07218">
        <ele>16.298087</ele>
        <time>2020-07-16T22:48:16.039Z</time>
      </trkpt>
      <trkpt lat="62.81567" lon="7.0734">
        <ele>15.515485</ele>
        <time>2020-07-16T22:48:27.018Z</time>
      </trkpt>
      <trkpt lat="62.81511" lon="7.07551">
        <ele>14.568761</ele>
        <time>2020-07-16T22:48:44.315Z</time>
      </trkpt>
      <trkpt lat="62.8149" lon="7.07851">
        <ele>14.818399</ele>
        <time>2020-07-16T22:49:09.646Z</time>
      </trkpt>
      <trkpt lat="62.81497" lon="7.08033">
        <ele>16.224599</ele>
        <time>2020-07-16T22:49:28.681Z</time>
      </trkpt>
      <trkpt lat="62.81495" lon="7.0813">
        <ele>17.222652</ele>
        <time>2020-07-16T22:49:40.109Z</time>
      </trkpt>
      <trkpt lat="62.81485" lon="7.08209">
        <ele>18.066892</ele>
        <time>2020-07-16T22:49:50.207Z</time>
      </trkpt>
      <trkpt lat="62.81468" lon="7.08286">
        <ele>18.934237</ele>
        <time>2020-07-16T22:50:00.817Z</time>
      </trkpt>
      <trkpt lat="62.81465" lon="7.08336">
        <ele>19.457262</ele>
        <time>2020-07-16T22:50:07.246Z</time>
      </trkpt>
      <trkpt lat="62.81471" lon="7.08385">
        <ele>19.979297</ele>
        <time>2020-07-16T22:50:13.783Z</time>
      </trkpt>
      <trkpt lat="62.81484" lon="7.0843">
        <ele>20.513108</ele>
        <time>2020-07-16T22:50:20.436Z</time>
      </trkpt>
      <trkpt lat="62.81572" lon="7.08687">
        <ele>23.192948</ele>
        <time>2020-07-16T22:50:54.963Z</time>
      </trkpt>
      <trkpt lat="62.81613" lon="7.08787">
        <ele>23.634386</ele>
        <time>2020-07-16T22:51:06.893Z</time>
      </trkpt>
      <trkpt lat="62.8169" lon="7.08953">
        <ele>24.414124</ele>
        <time>2020-07-16T22:51:26.731Z</time>
      </trkpt>
      <trkpt lat="62.81744" lon="7.09126">
        <ele>25.114692</ele>
        <time>2020-07-16T22:51:46.062Z</time>
      </trkpt>
      <trkpt lat="62.81769" lon="7.09218">
        <ele>25.473362</ele>
        <time>2020-07-16T22:51:57.125Z</time>
      </trkpt>
      <trkpt lat="62.81787" lon="7.09314">
        <ele>25.252009</ele>
        <time>2020-07-16T22:52:07.007Z</time>
      </trkpt>
      <trkpt lat="62.81795" lon="7.09467">
        <ele>24.804914</ele>
        <time>2020-07-16T22:52:18.912Z</time>
      </trkpt>
      <trkpt lat="62.81794" lon="7.09544">
        <ele>24.581664</ele>
        <time>2020-07-16T22:52:24.236Z</time>
      </trkpt>
      <trkpt lat="62.81793" lon="7.09676">
        <ele>23.347253</ele>
        <time>2020-07-16T22:52:32.664Z</time>
      </trkpt>
      <trkpt lat="62.81785" lon="7.09922">
        <ele>19.178305</ele>
        <time>2020-07-16T22:52:46.746Z</time>
      </trkpt>
      <trkpt lat="62.81774" lon="7.09968">
        <ele>18.280995</ele>
        <time>2020-07-16T22:52:49.691Z</time>
      </trkpt>
      <trkpt lat="62.81737" lon="7.10013">
        <ele>16.915034</ele>
        <time>2020-07-16T22:52:54.936Z</time>
      </trkpt>
      <trkpt lat="62.81722" lon="7.10029">
        <ele>16.420075</ele>
        <time>2020-07-16T22:52:57.041Z</time>
      </trkpt>
      <trkpt lat="62.81709" lon="7.10048">
        <ele>15.941581</ele>
        <time>2020-07-16T22:52:59.029Z</time>
      </trkpt>
      <trkpt lat="62.81657" lon="7.10135">
        <ele>13.964755</ele>
        <time>2020-07-16T22:53:07.643Z</time>
      </trkpt>
      <trkpt lat="62.81624" lon="7.10171">
        <ele>12.850927</ele>
        <time>2020-07-16T22:53:12.724Z</time>
      </trkpt>
      <trkpt lat="62.81598" lon="7.10178">
        <ele>12.302236</ele>
        <time>2020-07-16T22:53:16.391Z</time>
      </trkpt>
      <trkpt lat="62.8155" lon="7.10162">
        <ele>12.44006</ele>
        <time>2020-07-16T22:53:23.923Z</time>
      </trkpt>
      <trkpt lat="62.81537" lon="7.10157">
        <ele>12.476543</ele>
        <time>2020-07-16T22:53:26.071Z</time>
      </trkpt>
      <trkpt lat="62.81524" lon="7.10152">
        <ele>12.515038</ele>
        <time>2020-07-16T22:53:28.966Z</time>
      </trkpt>
      <trkpt lat="62.8144" lon="7.10131">
        <ele>12.753464</ele>
        <time>2020-07-16T22:53:46.430Z</time>
      </trkpt>
      <trkpt lat="62.81395" lon="7.10085">
        <ele>13.849754</ele>
        <time>2020-07-16T22:53:58.801Z</time>
      </trkpt>
      <trkpt lat="62.8139" lon="7.10087">
        <ele>13.982418</ele>
        <time>2020-07-16T22:54:00.279Z</time>
      </trkpt>
      <trkpt lat="62.81388" lon="7.10089">
        <ele>14.066021</ele>
        <time>2020-07-16T22:54:00.978Z</time>
      </trkpt>
      <trkpt lat="62.81379" lon="7.10107">
        <ele>14.406608</ele>
        <time>2020-07-16T22:54:04.293Z</time>
      </trkpt>
      <trkpt lat="62.81356" lon="7.10149">
        <ele>15.288932</ele>
        <time>2020-07-16T22:54:12.943Z</time>
      </trkpt>
      <trkpt lat="62.8135" lon="7.10161">
        <ele>15.513245</ele>
        <time>2020-07-16T22:54:14.738Z</time>
      </trkpt>
      <trkpt lat="62.81349" lon="7.10163">
        <ele>15.550505</ele>
        <time>2020-07-16T22:54:15.094Z</time>
      </trkpt>
      <trkpt lat="62.81338" lon="7.10184">
        <ele>15.973245</ele>
        <time>2020-07-16T22:54:19.251Z</time>
      </trkpt>
      <trkpt lat="62.81301" lon="7.10256">
        <ele>17.427247</ele>
        <time>2020-07-16T22:54:33.802Z</time>
      </trkpt>
      <trkpt lat="62.81275" lon="7.1029">
        <ele>18.319538</ele>
        <time>2020-07-16T22:54:42.106Z</time>
      </trkpt>
      <trkpt lat="62.81272" lon="7.10292">
        <ele>18.433368</ele>
        <time>2020-07-16T22:54:43.678Z</time>
      </trkpt>
      <trkpt lat="62.81268" lon="7.10293">
        <ele>18.547487</ele>
        <time>2020-07-16T22:54:44.570Z</time>
      </trkpt>
      <trkpt lat="62.81269" lon="7.10318">
        <ele>18.91084</ele>
        <time>2020-07-16T22:54:47.682Z</time>
      </trkpt>
      <trkpt lat="62.81288" lon="7.10727">
        <ele>24.816074</ele>
        <time>2020-07-16T22:55:39.995Z</time>
      </trkpt>
      <trkpt lat="62.81303" lon="7.11058">
        <ele>29.323625</ele>
        <time>2020-07-16T22:56:21.154Z</time>
      </trkpt>
      <trkpt lat="62.81308" lon="7.11161">
        <ele>30.71485</ele>
        <time>2020-07-16T22:56:34.329Z</time>
      </trkpt>
      <trkpt lat="62.81313" lon="7.11271">
        <ele>32.180993</ele>
        <time>2020-07-16T22:56:48.708Z</time>
      </trkpt>
      <trkpt lat="62.81323" lon="7.11493">
        <ele>34.71769</ele>
        <time>2020-07-16T22:57:15.837Z</time>
      </trkpt>
      <trkpt lat="62.81328" lon="7.11579">
        <ele>35.249903</ele>
        <time>2020-07-16T22:57:25.505Z</time>
      </trkpt>
      <trkpt lat="62.81332" lon="7.1164">
        <ele>35.627493</ele>
        <time>2020-07-16T22:57:31.781Z</time>
      </trkpt>
      <trkpt lat="62.81361" lon="7.11894">
        <ele>36.742776</ele>
        <time>2020-07-16T22:57:55.188Z</time>
      </trkpt>
      <trkpt lat="62.81396" lon="7.12181">
        <ele>36.693972</ele>
        <time>2020-07-16T22:58:18.102Z</time>
      </trkpt>
      <trkpt lat="62.81398" lon="7.12196">
        <ele>36.691507</ele>
        <time>2020-07-16T22:58:19.341Z</time>
      </trkpt>
      <trkpt lat="62.81431" lon="7.12464">
        <ele>37.342616</ele>
        <time>2020-07-16T22:58:42.742Z</time>
      </trkpt>
      <trkpt lat="62.81486" lon="7.12907">
        <ele>40.57148</ele>
        <time>2020-07-16T22:59:29.657Z</time>
      </trkpt>
      <trkpt lat="62.81496" lon="7.12983">
        <ele>41.613142</ele>
        <time>2020-07-16T22:59:40.241Z</time>
      </trkpt>
      <trkpt lat="62.815" lon="7.13008">
        <ele>42.243037</ele>
        <time>2020-07-16T22:59:44.286Z</time>
      </trkpt>
      <trkpt lat="62.81509" lon="7.13058">
        <ele>43.496349</ele>
        <time>2020-07-16T22:59:51.740Z</time>
      </trkpt>
      <trkpt lat="62.81518" lon="7.13097">
        <ele>44.517556</ele>
        <time>2020-07-16T22:59:58.184Z</time>
      </trkpt>
      <trkpt lat="62.81528" lon="7.13135">
        <ele>45.525526</ele>
        <time>2020-07-16T23:00:05.070Z</time>
      </trkpt>
      <trkpt lat="62.81605" lon="7.13378">
        <ele>52.654215</ele>
        <time>2020-07-16T23:00:56.080Z</time>
      </trkpt>
      <trkpt lat="62.81625" lon="7.13501">
        <ele>56.060174</ele>
        <time>2020-07-16T23:01:18.401Z</time>
      </trkpt>
      <trkpt lat="62.81638" lon="7.13676">
        <ele>60.576994</ele>
        <time>2020-07-16T23:01:46.636Z</time>
      </trkpt>
      <trkpt lat="62.8165" lon="7.13772">
        <ele>62.332036</ele>
        <time>2020-07-16T23:02:01.840Z</time>
      </trkpt>
      <trkpt lat="62.81723" lon="7.14039">
        <ele>67.456679</ele>
        <time>2020-07-16T23:02:42.928Z</time>
      </trkpt>
      <trkpt lat="62.81738" lon="7.14113">
        <ele>67.824394</ele>
        <time>2020-07-16T23:02:52.208Z</time>
      </trkpt>
      <trkpt lat="62.81749" lon="7.1422">
        <ele>68.318867</ele>
        <time>2020-07-16T23:03:04.168Z</time>
      </trkpt>
      <trkpt lat="62.81789" lon="7.1483">
        <ele>65.823989</ele>
        <time>2020-07-16T23:03:49.319Z</time>
      </trkpt>
      <trkpt lat="62.81789" lon="7.14882">
        <ele>64.332621</ele>
        <time>2020-07-16T23:03:52.100Z</time>
      </trkpt>
      <trkpt lat="62.8178" lon="7.14967">
        <ele>61.777575</ele>
        <time>2020-07-16T23:03:56.755Z</time>
      </trkpt>
      <trkpt lat="62.81753" lon="7.15059">
        <ele>58.568416</ele>
        <time>2020-07-16T23:04:02.436Z</time>
      </trkpt>
      <trkpt lat="62.8173" lon="7.15099">
        <ele>56.717857</ele>
        <time>2020-07-16T23:04:05.653Z</time>
      </trkpt>
      <trkpt lat="62.81699" lon="7.15135">
        <ele>54.187345</ele>
        <time>2020-07-16T23:04:09.514Z</time>
      </trkpt>
      <trkpt lat="62.8165" lon="7.15155">
        <ele>50.206065</ele>
        <time>2020-07-16T23:04:15.030Z</time>
      </trkpt>
      <trkpt lat="62.81531" lon="7.15168">
        <ele>41.00486</ele>
        <time>2020-07-16T23:04:28.605Z</time>
      </trkpt>
      <trkpt lat="62.81526" lon="7.15168">
        <ele>40.790835</ele>
        <time>2020-07-16T23:04:29.123Z</time>
      </trkpt>
      <trkpt lat="62.81489" lon="7.1518">
        <ele>38.95714</ele>
        <time>2020-07-16T23:04:33.636Z</time>
      </trkpt>
      <trkpt lat="62.81461" lon="7.15194">
        <ele>37.566689</ele>
        <time>2020-07-16T23:04:37.072Z</time>
      </trkpt>
      <trkpt lat="62.81462" lon="7.1518">
        <ele>37.262657</ele>
        <time>2020-07-16T23:04:38.187Z</time>
      </trkpt>
      <trkpt lat="62.81419" lon="7.15206">
        <ele>35.104396</ele>
        <time>2020-07-16T23:04:44.001Z</time>
      </trkpt>
      <trkpt lat="62.81398" lon="7.15218">
        <ele>34.033165</ele>
        <time>2020-07-16T23:04:46.895Z</time>
      </trkpt>
      <trkpt lat="62.812" lon="7.15336">
        <ele>26.331147</ele>
        <time>2020-07-16T23:05:14.493Z</time>
      </trkpt>
      <trkpt lat="62.81191" lon="7.15342">
        <ele>26.074789</ele>
        <time>2020-07-16T23:05:15.726Z</time>
      </trkpt>
      <trkpt lat="62.81182" lon="7.15347">
        <ele>25.875049</ele>
        <time>2020-07-16T23:05:16.917Z</time>
      </trkpt>
      <trkpt lat="62.81095" lon="7.15399">
        <ele>23.835889</ele>
        <time>2020-07-16T23:05:29.986Z</time>
      </trkpt>
      <trkpt lat="62.81084" lon="7.15405">
        <ele>23.597369</ele>
        <time>2020-07-16T23:05:31.378Z</time>
      </trkpt>
      <trkpt lat="62.81077" lon="7.1541">
        <ele>23.41502</ele>
        <time>2020-07-16T23:05:32.602Z</time>
      </trkpt>
      <trkpt lat="62.80981" lon="7.15487">
        <ele>21.669085</ele>
        <time>2020-07-16T23:05:48.955Z</time>
      </trkpt>
      <trkpt lat="62.80912" lon="7.15559">
        <ele>20.839794</ele>
        <time>2020-07-16T23:06:01.678Z</time>
      </trkpt>
      <trkpt lat="62.80865" lon="7.15616">
        <ele>20.25325</ele>
        <time>2020-07-16T23:06:10.513Z</time>
      </trkpt>
      <trkpt lat="62.8085" lon="7.15636">
        <ele>19.917586</ele>
        <time>2020-07-16T23:06:13.219Z</time>
      </trkpt>
      <trkpt lat="62.80791" lon="7.15723">
        <ele>18.487182</ele>
        <time>2020-07-16T23:06:23.654Z</time>
      </trkpt>
      <trkpt lat="62.80723" lon="7.15852">
        <ele>16.678723</ele>
        <time>2020-07-16T23:06:36.544Z</time>
      </trkpt>
      <trkpt lat="62.80711" lon="7.15878">
        <ele>16.370492</ele>
        <time>2020-07-16T23:06:39.061Z</time>
      </trkpt>
      <trkpt lat="62.80705" lon="7.15891">
        <ele>16.234791</ele>
        <time>2020-07-16T23:06:40.165Z</time>
      </trkpt>
      <trkpt lat="62.80577" lon="7.16184">
        <ele>13.257095</ele>
        <time>2020-07-16T23:07:08.626Z</time>
      </trkpt>
      <trkpt lat="62.80565" lon="7.16209">
        <ele>13.10104</ele>
        <time>2020-07-16T23:07:11.311Z</time>
      </trkpt>
      <trkpt lat="62.80561" lon="7.1622">
        <ele>13.038651</ele>
        <time>2020-07-16T23:07:12.291Z</time>
      </trkpt>
      <trkpt lat="62.80509" lon="7.16348">
        <ele>12.275943</ele>
        <time>2020-07-16T23:07:25.217Z</time>
      </trkpt>
      <trkpt lat="62.80483" lon="7.16426">
        <ele>11.848177</ele>
        <time>2020-07-16T23:07:32.573Z</time>
      </trkpt>
      <trkpt lat="62.80476" lon="7.16454">
        <ele>11.737504</ele>
        <time>2020-07-16T23:07:35.087Z</time>
      </trkpt>
      <trkpt lat="62.80471" lon="7.16471">
        <ele>11.692765</ele>
        <time>2020-07-16T23:07:36.441Z</time>
      </trkpt>
      <trkpt lat="62.80347" lon="7.17089">
        <ele>10.780832</ele>
        <time>2020-07-16T23:08:29.912Z</time>
      </trkpt>
      <trkpt lat="62.80347" lon="7.17095">
        <ele>10.77935</ele>
        <time>2020-07-16T23:08:30.479Z</time>
      </trkpt>
      <trkpt lat="62.80343" lon="7.17118">
        <ele>10.77361</ele>
        <time>2020-07-16T23:08:32.514Z</time>
      </trkpt>
      <trkpt lat="62.80339" lon="7.17145">
        <ele>10.766811</ele>
        <time>2020-07-16T23:08:35.236Z</time>
      </trkpt>
      <trkpt lat="62.80337" lon="7.17159">
        <ele>10.763282</ele>
        <time>2020-07-16T23:08:36.580Z</time>
      </trkpt>
      <trkpt lat="62.80336" lon="7.17166">
        <ele>10.817721</ele>
        <time>2020-07-16T23:08:37.268Z</time>
      </trkpt>
      <trkpt lat="62.80343" lon="7.17175">
        <ele>11.073521</ele>
        <time>2020-07-16T23:08:39.426Z</time>
      </trkpt>
      <trkpt lat="62.80339" lon="7.17207">
        <ele>11.563044</ele>
        <time>2020-07-16T23:08:43.489Z</time>
      </trkpt>
      <trkpt lat="62.80331" lon="7.17318">
        <ele>13.213079</ele>
        <time>2020-07-16T23:08:56.041Z</time>
      </trkpt>
      <trkpt lat="62.8032" lon="7.17476">
        <ele>15.541598</ele>
        <time>2020-07-16T23:09:17.699Z</time>
      </trkpt>
      <trkpt lat="62.80319" lon="7.17502">
        <ele>15.935389</ele>
        <time>2020-07-16T23:09:22.396Z</time>
      </trkpt>
      <trkpt lat="62.80309" lon="7.17644">
        <ele>19.169324</ele>
        <time>2020-07-16T23:09:45.379Z</time>
      </trkpt>
      <trkpt lat="62.8029" lon="7.17919">
        <ele>26.273885</ele>
        <time>2020-07-16T23:10:32.785Z</time>
      </trkpt>
      <trkpt lat="62.80287" lon="7.17981">
        <ele>27.392583</ele>
        <time>2020-07-16T23:10:42.635Z</time>
      </trkpt>
      <trkpt lat="62.80271" lon="7.18186">
        <ele>30.708864</ele>
        <time>2020-07-16T23:11:12.030Z</time>
      </trkpt>
      <trkpt lat="62.80263" lon="7.18417">
        <ele>33.004252</ele>
        <time>2020-07-16T23:11:36.474Z</time>
      </trkpt>
      <trkpt lat="62.80263" lon="7.18461">
        <ele>33.063459</ele>
        <time>2020-07-16T23:11:40.511Z</time>
      </trkpt>
      <trkpt lat="62.80263" lon="7.18527">
        <ele>33.153354</ele>
        <time>2020-07-16T23:11:46.136Z</time>
      </trkpt>
      <trkpt lat="62.80263" lon="7.18624">
        <ele>33.286086</ele>
        <time>2020-07-16T23:11:53.980Z</time>
      </trkpt>
      <trkpt lat="62.80263" lon="7.18641">
        <ele>33.308611</ele>
        <time>2020-07-16T23:11:55.202Z</time>
      </trkpt>
      <trkpt lat="62.80262" lon="7.1866">
        <ele>33.334844</ele>
        <time>2020-07-16T23:11:56.636Z</time>
      </trkpt>
      <trkpt lat="62.80262" lon="7.18825">
        <ele>32.499853</ele>
        <time>2020-07-16T23:12:08.399Z</time>
      </trkpt>
      <trkpt lat="62.80263" lon="7.18911">
        <ele>31.790496</ele>
        <time>2020-07-16T23:12:14.077Z</time>
      </trkpt>
      <trkpt lat="62.80263" lon="7.19044">
        <ele>30.699919</ele>
        <time>2020-07-16T23:12:22.532Z</time>
      </trkpt>
      <trkpt lat="62.80263" lon="7.19089">
        <ele>30.334042</ele>
        <time>2020-07-16T23:12:25.366Z</time>
      </trkpt>
      <trkpt lat="62.80264" lon="7.19113">
        <ele>30.106987</ele>
        <time>2020-07-16T23:12:26.939Z</time>
      </trkpt>
      <trkpt lat="62.80265" lon="7.19127">
        <ele>29.912004</ele>
        <time>2020-07-16T23:12:27.704Z</time>
      </trkpt>
      <trkpt lat="62.80272" lon="7.19276">
        <ele>27.840976</ele>
        <time>2020-07-16T23:12:36.903Z</time>
      </trkpt>
      <trkpt lat="62.80287" lon="7.19457">
        <ele>25.299901</ele>
        <time>2020-07-16T23:12:47.770Z</time>
      </trkpt>
      <trkpt lat="62.80328" lon="7.19761">
        <ele>21.339587</ele>
        <time>2020-07-16T23:13:07.074Z</time>
      </trkpt>
      <trkpt lat="62.80372" lon="7.20057">
        <ele>18.649656</ele>
        <time>2020-07-16T23:13:27.010Z</time>
      </trkpt>
      <trkpt lat="62.80381" lon="7.20121">
        <ele>18.216117</ele>
        <time>2020-07-16T23:13:31.582Z</time>
      </trkpt>
      <trkpt lat="62.80529" lon="7.21091">
        <ele>15.931112</ele>
        <time>2020-07-16T23:14:49.484Z</time>
      </trkpt>
      <trkpt lat="62.80546" lon="7.21204">
        <ele>16.034755</ele>
        <time>2020-07-16T23:14:59.980Z</time>
      </trkpt>
      <trkpt lat="62.80562" lon="7.2131">
        <ele>16.130818</ele>
        <time>2020-07-16T23:15:09.898Z</time>
      </trkpt>
      <trkpt lat="62.80583" lon="7.21493">
        <ele>15.910783</ele>
        <time>2020-07-16T23:15:26.390Z</time>
      </trkpt>
      <trkpt lat="62.80599" lon="7.21707">
        <ele>15.449007</ele>
        <time>2020-07-16T23:15:42.462Z</time>
      </trkpt>
      <trkpt lat="62.806" lon="7.21737">
        <ele>15.386133</ele>
        <time>2020-07-16T23:15:44.492Z</time>
      </trkpt>
      <trkpt lat="62.80603" lon="7.21826">
        <ele>14.774641</ele>
        <time>2020-07-16T23:15:50.539Z</time>
      </trkpt>
      <trkpt lat="62.80604" lon="7.21981">
        <ele>13.528896</ele>
        <time>2020-07-16T23:16:00.703Z</time>
      </trkpt>
      <trkpt lat="62.80598" lon="7.22124">
        <ele>12.382566</ele>
        <time>2020-07-16T23:16:09.786Z</time>
      </trkpt>
      <trkpt lat="62.80589" lon="7.22257">
        <ele>11.651938</ele>
        <time>2020-07-16T23:16:18.633Z</time>
      </trkpt>
      <trkpt lat="62.80575" lon="7.2238">
        <ele>11.037082</ele>
        <time>2020-07-16T23:16:27.420Z</time>
      </trkpt>
      <trkpt lat="62.80565" lon="7.2244">
        <ele>10.728358</ele>
        <time>2020-07-16T23:16:32.026Z</time>
      </trkpt>
      <trkpt lat="62.80558" lon="7.22477">
        <ele>10.532102</ele>
        <time>2020-07-16T23:16:35.037Z</time>
      </trkpt>
      <trkpt lat="62.80548" lon="7.22518">
        <ele>10.308753</ele>
        <time>2020-07-16T23:16:38.646Z</time>
      </trkpt>
      <trkpt lat="62.80505" lon="7.22656">
        <ele>11.773484</ele>
        <time>2020-07-16T23:16:52.867Z</time>
      </trkpt>
      <trkpt lat="62.80426" lon="7.22814">
        <ele>13.946006</ele>
        <time>2020-07-16T23:17:22.541Z</time>
      </trkpt>
      <trkpt lat="62.80394" lon="7.22872">
        <ele>16.063572</ele>
        <time>2020-07-16T23:17:36.362Z</time>
      </trkpt>
      <trkpt lat="62.80382" lon="7.22895">
        <ele>16.858787</ele>
        <time>2020-07-16T23:17:41.466Z</time>
      </trkpt>
      <trkpt lat="62.80375" lon="7.22909">
        <ele>17.333092</ele>
        <time>2020-07-16T23:17:44.252Z</time>
      </trkpt>
      <trkpt lat="62.80363" lon="7.22931">
        <ele>18.123991</ele>
        <time>2020-07-16T23:17:50.425Z</time>
      </trkpt>
      <trkpt lat="62.80296" lon="7.23064">
        <ele>22.658812</ele>
        <time>2020-07-16T23:18:22.160Z</time>
      </trkpt>
      <trkpt lat="62.80273" lon="7.23143">
        <ele>24.784184</ele>
        <time>2020-07-16T23:18:38.257Z</time>
      </trkpt>
      <trkpt lat="62.80262" lon="7.2321">
        <ele>26.387599</ele>
        <time>2020-07-16T23:18:49.677Z</time>
      </trkpt>
      <trkpt lat="62.80256" lon="7.23303">
        <ele>28.528574</ele>
        <time>2020-07-16T23:19:03.540Z</time>
      </trkpt>
      <trkpt lat="62.80263" lon="7.2358">
        <ele>33.339613</ele>
        <time>2020-07-16T23:19:44.943Z</time>
      </trkpt>
      <trkpt lat="62.80261" lon="7.23695">
        <ele>34.636646</ele>
        <time>2020-07-16T23:19:57.795Z</time>
      </trkpt>
      <trkpt lat="62.80257" lon="7.23738">
        <ele>35.133798</ele>
        <time>2020-07-16T23:20:03.140Z</time>
      </trkpt>
      <trkpt lat="62.80261" lon="7.23744">
        <ele>35.250347</ele>
        <time>2020-07-16T23:20:03.872Z</time>
      </trkpt>
      <trkpt lat="62.80287" lon="7.23786">
        <ele>36.057662</ele>
        <time>2020-07-16T23:20:11.196Z</time>
      </trkpt>
      <trkpt lat="62.80291" lon="7.23791">
        <ele>36.156142</ele>
        <time>2020-07-16T23:20:11.785Z</time>
      </trkpt>
      <trkpt lat="62.80294" lon="7.23799">
        <ele>36.285161</ele>
        <time>2020-07-16T23:20:12.765Z</time>
      </trkpt>
      <trkpt lat="62.80315" lon="7.23832">
        <ele>36.181003</ele>
        <time>2020-07-16T23:20:17.957Z</time>
      </trkpt>
      <trkpt lat="62.80494" lon="7.24107">
        <ele>37.200456</ele>
        <time>2020-07-16T23:20:53.450Z</time>
      </trkpt>
      <trkpt lat="62.80581" lon="7.2423">
        <ele>40.349466</ele>
        <time>2020-07-16T23:21:26.144Z</time>
      </trkpt>
      <trkpt lat="62.80585" lon="7.24259">
        <ele>40.819216</ele>
        <time>2020-07-16T23:21:31.748Z</time>
      </trkpt>
      <trkpt lat="62.80588" lon="7.24406">
        <ele>46.071637</ele>
        <time>2020-07-16T23:22:05.614Z</time>
      </trkpt>
      <trkpt lat="62.80601" lon="7.24478">
        <ele>48.856382</ele>
        <time>2020-07-16T23:22:22.905Z</time>
      </trkpt>
      <trkpt lat="62.80622" lon="7.24552">
        <ele>51.985766</ele>
        <time>2020-07-16T23:22:40.667Z</time>
      </trkpt>
      <trkpt lat="62.80635" lon="7.2459">
        <ele>53.648929</ele>
        <time>2020-07-16T23:22:49.927Z</time>
      </trkpt>
      <trkpt lat="62.80637" lon="7.24588">
        <ele>53.777965</ele>
        <time>2020-07-16T23:22:50.877Z</time>
      </trkpt>
      <trkpt lat="62.80642" lon="7.24591">
        <ele>54.226623</ele>
        <time>2020-07-16T23:22:52.738Z</time>
      </trkpt>
      <trkpt lat="62.80659" lon="7.24633">
        <ele>55.192826</ele>
        <time>2020-07-16T23:23:01.685Z</time>
      </trkpt>
      <trkpt lat="62.80664" lon="7.24648">
        <ele>55.375237</ele>
        <time>2020-07-16T23:23:04.975Z</time>
      </trkpt>
      <trkpt lat="62.80669" lon="7.24669">
        <ele>55.617146</ele>
        <time>2020-07-16T23:23:08.209Z</time>
      </trkpt>
      <trkpt lat="62.80671" lon="7.24674">
        <ele>55.679214</ele>
        <time>2020-07-16T23:23:08.825Z</time>
      </trkpt>
      <trkpt lat="62.80678" lon="7.2468">
        <ele>55.845069</ele>
        <time>2020-07-16T23:23:11.357Z</time>
      </trkpt>
      <trkpt lat="62.80705" lon="7.24671">
        <ele>56.437092</ele>
        <time>2020-07-16T23:23:19.279Z</time>
      </trkpt>
      <trkpt lat="62.80731" lon="7.24667">
        <ele>57.006448</ele>
        <time>2020-07-16T23:23:26.407Z</time>
      </trkpt>
      <trkpt lat="62.80785" lon="7.24659">
        <ele>58.173442</ele>
        <time>2020-07-16T23:23:35.553Z</time>
      </trkpt>
      <trkpt lat="62.80975" lon="7.24604">
        <ele>57.055581</ele>
        <time>2020-07-16T23:24:03.667Z</time>
      </trkpt>
      <trkpt lat="62.8101" lon="7.24592">
        <ele>57.265661</ele>
        <time>2020-07-16T23:24:11.122Z</time>
      </trkpt>
      <trkpt lat="62.81012" lon="7.24601">
        <ele>57.325331</ele>
        <time>2020-07-16T23:24:12.572Z</time>
      </trkpt>
      <trkpt lat="62.81021" lon="7.24622">
        <ele>57.509128</ele>
        <time>2020-07-16T23:24:14.859Z</time>
      </trkpt>
      <trkpt lat="62.81024" lon="7.24626">
        <ele>57.563396</ele>
        <time>2020-07-16T23:24:16.148Z</time>
      </trkpt>
      <trkpt lat="62.8104" lon="7.24633">
        <ele>57.789658</ele>
        <time>2020-07-16T23:24:19.966Z</time>
      </trkpt>
      <trkpt lat="62.81093" lon="7.24652">
        <ele>58.546654</ele>
        <time>2020-07-16T23:24:33.092Z</time>
      </trkpt>
      <trkpt lat="62.81139" lon="7.24649">
        <ele>59.190154</ele>
        <time>2020-07-16T23:24:45.082Z</time>
      </trkpt>
      <trkpt lat="62.81239" lon="7.24601">
        <ele>59.923401</ele>
        <time>2020-07-16T23:25:08.891Z</time>
      </trkpt>
      <trkpt lat="62.81322" lon="7.24526">
        <ele>60.415847</ele>
        <time>2020-07-16T23:25:24.882Z</time>
      </trkpt>
      <trkpt lat="62.81375" lon="7.2447">
        <ele>60.038575</ele>
        <time>2020-07-16T23:25:34.725Z</time>
      </trkpt>
      <trkpt lat="62.8142" lon="7.24408">
        <ele>59.607481</ele>
        <time>2020-07-16T23:25:43.430Z</time>
      </trkpt>
      <trkpt lat="62.81667" lon="7.24031">
        <ele>57.322473</ele>
        <time>2020-07-16T23:26:32.755Z</time>
      </trkpt>
      <trkpt lat="62.81673" lon="7.24028">
        <ele>57.315044</ele>
        <time>2020-07-16T23:26:33.888Z</time>
      </trkpt>
      <trkpt lat="62.81671" lon="7.2401">
        <ele>57.304446</ele>
        <time>2020-07-16T23:26:35.318Z</time>
      </trkpt>
      <trkpt lat="62.81674" lon="7.23954">
        <ele>57.272546</ele>
        <time>2020-07-16T23:26:39.993Z</time>
      </trkpt>
      <trkpt lat="62.81676" lon="7.2395">
        <ele>57.269081</ele>
        <time>2020-07-16T23:26:40.462Z</time>
      </trkpt>
      <trkpt lat="62.81672" lon="7.23934">
        <ele>57.258722</ele>
        <time>2020-07-16T23:26:41.930Z</time>
      </trkpt>
      <trkpt lat="62.81666" lon="7.23913">
        <ele>57.244537</ele>
        <time>2020-07-16T23:26:44.074Z</time>
      </trkpt>
      <trkpt lat="62.81661" lon="7.23896">
        <ele>57.233494</ele>
        <time>2020-07-16T23:26:45.656Z</time>
      </trkpt>
      <trkpt lat="62.8169" lon="7.2387">
        <ele>57.19467</ele>
        <time>2020-07-16T23:26:51.681Z</time>
      </trkpt>
      <trkpt lat="62.81824" lon="7.23747">
        <ele>57.886438</ele>
        <time>2020-07-16T23:27:22.017Z</time>
      </trkpt>
      <trkpt lat="62.81898" lon="7.23709">
        <ele>58.334562</ele>
        <time>2020-07-16T23:27:37.709Z</time>
      </trkpt>
      <trkpt lat="62.81956" lon="7.23693">
        <ele>58.518504</ele>
        <time>2020-07-16T23:27:49.536Z</time>
      </trkpt>
      <trkpt lat="62.81984" lon="7.23689">
        <ele>58.605104</ele>
        <time>2020-07-16T23:27:54.948Z</time>
      </trkpt>
      <trkpt lat="62.82015" lon="7.23687">
        <ele>58.701089</ele>
        <time>2020-07-16T23:28:00.863Z</time>
      </trkpt>
      <trkpt lat="62.82074" lon="7.23701">
        <ele>58.851291</ele>
        <time>2020-07-16T23:28:12.025Z</time>
      </trkpt>
      <trkpt lat="62.82184" lon="7.23758">
        <ele>58.689543</ele>
        <time>2020-07-16T23:28:32.977Z</time>
      </trkpt>
      <trkpt lat="62.82238" lon="7.23759">
        <ele>58.612861</ele>
        <time>2020-07-16T23:28:42.584Z</time>
      </trkpt>
      <trkpt lat="62.82257" lon="7.23753">
        <ele>58.448359</ele>
        <time>2020-07-16T23:28:46.137Z</time>
      </trkpt>
      <trkpt lat="62.8227" lon="7.2375">
        <ele>58.308778</ele>
        <time>2020-07-16T23:28:48.390Z</time>
      </trkpt>
      <trkpt lat="62.82609" lon="7.23638">
        <ele>53.369331</ele>
        <time>2020-07-16T23:29:42.250Z</time>
      </trkpt>
      <trkpt lat="62.82631" lon="7.2363">
        <ele>52.42192</ele>
        <time>2020-07-16T23:29:45.206Z</time>
      </trkpt>
      <trkpt lat="62.8277" lon="7.23583">
        <ele>46.354454</ele>
        <time>2020-07-16T23:30:03.220Z</time>
      </trkpt>
      <trkpt lat="62.82872" lon="7.23549">
        <ele>40.883557</ele>
        <time>2020-07-16T23:30:16.068Z</time>
      </trkpt>
      <trkpt lat="62.82889" lon="7.23543">
        <ele>39.935772</ele>
        <time>2020-07-16T23:30:18.255Z</time>
      </trkpt>
      <trkpt lat="62.82917" lon="7.23534">
        <ele>38.423669</ele>
        <time>2020-07-16T23:30:21.788Z</time>
      </trkpt>
      <trkpt lat="62.8293" lon="7.23529">
        <ele>37.715867</ele>
        <time>2020-07-16T23:30:23.436Z</time>
      </trkpt>
      <trkpt lat="62.82997" lon="7.23508">
        <ele>34.368737</ele>
        <time>2020-07-16T23:30:32.078Z</time>
      </trkpt>
      <trkpt lat="62.83031" lon="7.23499">
        <ele>32.803394</ele>
        <time>2020-07-16T23:30:36.401Z</time>
      </trkpt>
      <trkpt lat="62.83093" lon="7.23478">
        <ele>29.887288</ele>
        <time>2020-07-16T23:30:44.552Z</time>
      </trkpt>
      <trkpt lat="62.83128" lon="7.23466">
        <ele>28.260115</ele>
        <time>2020-07-16T23:30:49.064Z</time>
      </trkpt>
      <trkpt lat="62.83159" lon="7.23456">
        <ele>27.469985</ele>
        <time>2020-07-16T23:30:53.199Z</time>
      </trkpt>
      <trkpt lat="62.83218" lon="7.23449">
        <ele>26.232617</ele>
        <time>2020-07-16T23:31:01.282Z</time>
      </trkpt>
      <trkpt lat="62.83228" lon="7.2345">
        <ele>26.00654</ele>
        <time>2020-07-16T23:31:02.690Z</time>
      </trkpt>
      <trkpt lat="62.83255" lon="7.23452">
        <ele>25.450657</ele>
        <time>2020-07-16T23:31:06.579Z</time>
      </trkpt>
      <trkpt lat="62.8326" lon="7.23452">
        <ele>25.33448</ele>
        <time>2020-07-16T23:31:07.305Z</time>
      </trkpt>
      <trkpt lat="62.83273" lon="7.23453">
        <ele>25.053498</ele>
        <time>2020-07-16T23:31:09.298Z</time>
      </trkpt>
      <trkpt lat="62.83282" lon="7.23453">
        <ele>24.882445</ele>
        <time>2020-07-16T23:31:11.483Z</time>
      </trkpt>
      <trkpt lat="62.83413" lon="7.23464">
        <ele>26.7751</ele>
        <time>2020-07-16T23:31:40.900Z</time>
      </trkpt>
      <trkpt lat="62.83421" lon="7.23466">
        <ele>26.973509</ele>
        <time>2020-07-16T23:31:43.600Z</time>
      </trkpt>
      <trkpt lat="62.83426" lon="7.23467">
        <ele>27.078988</ele>
        <time>2020-07-16T23:31:45.878Z</time>
      </trkpt>
      <trkpt lat="62.83485" lon="7.23505">
        <ele>28.627787</ele>
        <time>2020-07-16T23:32:04.570Z</time>
      </trkpt>
      <trkpt lat="62.83493" lon="7.23513">
        <ele>28.886243</ele>
        <time>2020-07-16T23:32:08.354Z</time>
      </trkpt>
      <trkpt lat="62.835" lon="7.23521">
        <ele>29.189946</ele>
        <time>2020-07-16T23:32:11.628Z</time>
      </trkpt>
      <trkpt lat="62.83514" lon="7.23549">
        <ele>29.877282</ele>
        <time>2020-07-16T23:32:16.449Z</time>
      </trkpt>
      <trkpt lat="62.83554" lon="7.23589">
        <ele>31.457235</ele>
        <time>2020-07-16T23:32:31.906Z</time>
      </trkpt>
      <trkpt lat="62.83589" lon="7.23614">
        <ele>32.779675</ele>
        <time>2020-07-16T23:32:43.469Z</time>
      </trkpt>
      <trkpt lat="62.83609" lon="7.23617">
        <ele>33.536031</ele>
        <time>2020-07-16T23:32:49.727Z</time>
      </trkpt>
      <trkpt lat="62.83633" lon="7.23649">
        <ele>34.546616</ele>
        <time>2020-07-16T23:32:58.559Z</time>
      </trkpt>
      <trkpt lat="62.83726" lon="7.2371">
        <ele>35.111784</ele>
        <time>2020-07-16T23:33:18.616Z</time>
      </trkpt>
      <trkpt lat="62.83736" lon="7.23709">
        <ele>35.09415</ele>
        <time>2020-07-16T23:33:20.750Z</time>
      </trkpt>
      <trkpt lat="62.8374" lon="7.23705">
        <ele>35.085768</ele>
        <time>2020-07-16T23:33:21.472Z</time>
      </trkpt>
      <trkpt lat="62.83767" lon="7.23667">
        <ele>35.028533</ele>
        <time>2020-07-16T23:33:27.142Z</time>
      </trkpt>
      <trkpt lat="62.83771" lon="7.23674">
        <ele>35.020507</ele>
        <time>2020-07-16T23:33:27.797Z</time>
      </trkpt>
      <trkpt lat="62.83775" lon="7.23681">
        <ele>35.010299</ele>
        <time>2020-07-16T23:33:28.875Z</time>
      </trkpt>
      <trkpt lat="62.83778" lon="7.23688">
        <ele>35.002038</ele>
        <time>2020-07-16T23:33:29.755Z</time>
      </trkpt>
      <trkpt lat="62.83782" lon="7.2368">
        <ele>34.992897</ele>
        <time>2020-07-16T23:33:30.427Z</time>
      </trkpt>
      <trkpt lat="62.83821" lon="7.23627">
        <ele>34.58765</ele>
        <time>2020-07-16T23:33:37.502Z</time>
      </trkpt>
      <trkpt lat="62.83914" lon="7.23451">
        <ele>30.518746</ele>
        <time>2020-07-16T23:33:54.172Z</time>
      </trkpt>
      <trkpt lat="62.83925" lon="7.23428">
        <ele>29.995087</ele>
        <time>2020-07-16T23:33:56.167Z</time>
      </trkpt>
      <trkpt lat="62.83966" lon="7.2335">
        <ele>28.103618</ele>
        <time>2020-07-16T23:34:03.276Z</time>
      </trkpt>
      <trkpt lat="62.83987" lon="7.23314">
        <ele>27.072198</ele>
        <time>2020-07-16T23:34:06.828Z</time>
      </trkpt>
      <trkpt lat="62.83996" lon="7.23303">
        <ele>26.667276</ele>
        <time>2020-07-16T23:34:08.230Z</time>
      </trkpt>
      <trkpt lat="62.84001" lon="7.23297">
        <ele>26.45354</ele>
        <time>2020-07-16T23:34:08.914Z</time>
      </trkpt>
      <trkpt lat="62.84027" lon="7.23264">
        <ele>25.322797</ele>
        <time>2020-07-16T23:34:12.824Z</time>
      </trkpt>
      <trkpt lat="62.84035" lon="7.23255">
        <ele>24.975129</ele>
        <time>2020-07-16T23:34:13.954Z</time>
      </trkpt>
      <trkpt lat="62.84044" lon="7.23246">
        <ele>24.593988</ele>
        <time>2020-07-16T23:34:15.218Z</time>
      </trkpt>
      <trkpt lat="62.84088" lon="7.232">
        <ele>22.75333</ele>
        <time>2020-07-16T23:34:21.873Z</time>
      </trkpt>
      <trkpt lat="62.84121" lon="7.23146">
        <ele>21.823193</ele>
        <time>2020-07-16T23:34:27.724Z</time>
      </trkpt>
      <trkpt lat="62.8413" lon="7.23127">
        <ele>21.677013</ele>
        <time>2020-07-16T23:34:29.414Z</time>
      </trkpt>
      <trkpt lat="62.84146" lon="7.23087">
        <ele>21.402719</ele>
        <time>2020-07-16T23:34:33.353Z</time>
      </trkpt>
      <trkpt lat="62.84171" lon="7.23016">
        <ele>20.933745</ele>
        <time>2020-07-16T23:34:39.641Z</time>
      </trkpt>
      <trkpt lat="62.84202" lon="7.2297">
        <ele>20.508368</ele>
        <time>2020-07-16T23:34:46.042Z</time>
      </trkpt>
      <trkpt lat="62.84213" lon="7.2296">
        <ele>20.37595</ele>
        <time>2020-07-16T23:34:47.990Z</time>
      </trkpt>
      <trkpt lat="62.8422" lon="7.22952">
        <ele>20.281188</ele>
        <time>2020-07-16T23:34:49.666Z</time>
      </trkpt>
      <trkpt lat="62.843" lon="7.22888">
        <ele>21.300293</ele>
        <time>2020-07-16T23:35:07.799Z</time>
      </trkpt>
      <trkpt lat="62.84303" lon="7.22885">
        <ele>21.361992</ele>
        <time>2020-07-16T23:35:08.592Z</time>
      </trkpt>
      <trkpt lat="62.84331" lon="7.22858">
        <ele>21.975727</ele>
        <time>2020-07-16T23:35:16.862Z</time>
      </trkpt>
      <trkpt lat="62.84366" lon="7.22823">
        <ele>22.713445</ele>
        <time>2020-07-16T23:35:27.074Z</time>
      </trkpt>
      <trkpt lat="62.84374" lon="7.22814">
        <ele>22.896394</ele>
        <time>2020-07-16T23:35:29.571Z</time>
      </trkpt>
      <trkpt lat="62.84379" lon="7.22807">
        <ele>23.013619</ele>
        <time>2020-07-16T23:35:31.814Z</time>
      </trkpt>
      <trkpt lat="62.84432" lon="7.22749">
        <ele>24.417351</ele>
        <time>2020-07-16T23:35:47.634Z</time>
      </trkpt>
      <trkpt lat="62.84449" lon="7.22729">
        <ele>24.952488</ele>
        <time>2020-07-16T23:35:53.739Z</time>
      </trkpt>
      <trkpt lat="62.84462" lon="7.22714">
        <ele>25.363653</ele>
        <time>2020-07-16T23:35:57.435Z</time>
      </trkpt>
      <trkpt lat="62.84487" lon="7.22681">
        <ele>26.151512</ele>
        <time>2020-07-16T23:36:05.768Z</time>
      </trkpt>
      <trkpt lat="62.84542" lon="7.22607">
        <ele>27.950854</ele>
        <time>2020-07-16T23:36:23.764Z</time>
      </trkpt>
      <trkpt lat="62.84561" lon="7.22581">
        <ele>28.538635</ele>
        <time>2020-07-16T23:36:29.177Z</time>
      </trkpt>
      <trkpt lat="62.84571" lon="7.22565">
        <ele>28.745043</ele>
        <time>2020-07-16T23:36:32.807Z</time>
      </trkpt>
      <trkpt lat="62.8458" lon="7.2255">
        <ele>28.927673</ele>
        <time>2020-07-16T23:36:35.684Z</time>
      </trkpt>
      <trkpt lat="62.84596" lon="7.22518">
        <ele>29.276353</ele>
        <time>2020-07-16T23:36:40.814Z</time>
      </trkpt>
      <trkpt lat="62.84642" lon="7.22428">
        <ele>30.290871</ele>
        <time>2020-07-16T23:36:55.099Z</time>
      </trkpt>
      <trkpt lat="62.8466" lon="7.22395">
        <ele>30.671099</ele>
        <time>2020-07-16T23:37:00.566Z</time>
      </trkpt>
      <trkpt lat="62.84777" lon="7.22222">
        <ele>32.663136</ele>
        <time>2020-07-16T23:37:32.773Z</time>
      </trkpt>
      <trkpt lat="62.84818" lon="7.22163">
        <ele>33.309</ele>
        <time>2020-07-16T23:37:44.067Z</time>
      </trkpt>
      <trkpt lat="62.8493" lon="7.22007">
        <ele>34.525813</ele>
        <time>2020-07-16T23:38:13.651Z</time>
      </trkpt>
      <trkpt lat="62.84952" lon="7.21973">
        <ele>34.728872</ele>
        <time>2020-07-16T23:38:19.046Z</time>
      </trkpt>
      <trkpt lat="62.84962" lon="7.21956">
        <ele>34.82154</ele>
        <time>2020-07-16T23:38:21.630Z</time>
      </trkpt>
      <trkpt lat="62.84966" lon="7.21949">
        <ele>34.863376</ele>
        <time>2020-07-16T23:38:22.616Z</time>
      </trkpt>
      <trkpt lat="62.85016" lon="7.21811">
        <ele>35.101418</ele>
        <time>2020-07-16T23:38:38.174Z</time>
      </trkpt>
      <trkpt lat="62.85052" lon="7.21689">
        <ele>34.992994</ele>
        <time>2020-07-16T23:38:50.439Z</time>
      </trkpt>
      <trkpt lat="62.85065" lon="7.21644">
        <ele>34.95217</ele>
        <time>2020-07-16T23:38:54.819Z</time>
      </trkpt>
      <trkpt lat="62.85112" lon="7.21515">
        <ele>34.479662</ele>
        <time>2020-07-16T23:39:07.689Z</time>
      </trkpt>
      <trkpt lat="62.85115" lon="7.21507">
        <ele>34.413643</ele>
        <time>2020-07-16T23:39:08.468Z</time>
      </trkpt>
      <trkpt lat="62.8512" lon="7.21493">
        <ele>34.285706</ele>
        <time>2020-07-16T23:39:09.741Z</time>
      </trkpt>
      <trkpt lat="62.85133" lon="7.21455">
        <ele>33.965213</ele>
        <time>2020-07-16T23:39:13.328Z</time>
      </trkpt>
      <trkpt lat="62.85149" lon="7.21408">
        <ele>33.567605</ele>
        <time>2020-07-16T23:39:17.519Z</time>
      </trkpt>
      <trkpt lat="62.85179" lon="7.21309">
        <ele>32.753819</ele>
        <time>2020-07-16T23:39:25.788Z</time>
      </trkpt>
      <trkpt lat="62.85199" lon="7.21253">
        <ele>32.271004</ele>
        <time>2020-07-16T23:39:30.541Z</time>
      </trkpt>
      <trkpt lat="62.85202" lon="7.21239">
        <ele>32.139383</ele>
        <time>2020-07-16T23:39:31.498Z</time>
      </trkpt>
      <trkpt lat="62.85206" lon="7.21225">
        <ele>31.907224</ele>
        <time>2020-07-16T23:39:32.570Z</time>
      </trkpt>
      <trkpt lat="62.85212" lon="7.21192">
        <ele>31.424808</ele>
        <time>2020-07-16T23:39:34.910Z</time>
      </trkpt>
      <trkpt lat="62.85218" lon="7.21168">
        <ele>31.038316</ele>
        <time>2020-07-16T23:39:36.638Z</time>
      </trkpt>
      <trkpt lat="62.85226" lon="7.21138">
        <ele>30.549583</ele>
        <time>2020-07-16T23:39:38.922Z</time>
      </trkpt>
      <trkpt lat="62.85232" lon="7.21112">
        <ele>30.143415</ele>
        <time>2020-07-16T23:39:40.811Z</time>
      </trkpt>
      <trkpt lat="62.85253" lon="7.21022">
        <ele>28.742907</ele>
        <time>2020-07-16T23:39:46.970Z</time>
      </trkpt>
      <trkpt lat="62.85304" lon="7.20788">
        <ele>25.335898</ele>
        <time>2020-07-16T23:40:03.111Z</time>
      </trkpt>
      <trkpt lat="62.85312" lon="7.20749">
        <ele>24.820523</ele>
        <time>2020-07-16T23:40:05.729Z</time>
      </trkpt>
      <trkpt lat="62.85357" lon="7.2052">
        <ele>21.889273</ele>
        <time>2020-07-16T23:40:22.248Z</time>
      </trkpt>
      <trkpt lat="62.85374" lon="7.20446">
        <ele>21.626658</ele>
        <time>2020-07-16T23:40:27.984Z</time>
      </trkpt>
      <trkpt lat="62.85375" lon="7.20432">
        <ele>21.583539</ele>
        <time>2020-07-16T23:40:28.920Z</time>
      </trkpt>
      <trkpt lat="62.8538" lon="7.20397">
        <ele>21.467038</ele>
        <time>2020-07-16T23:40:31.787Z</time>
      </trkpt>
      <trkpt lat="62.85427" lon="7.2016">
        <ele>20.692346</ele>
        <time>2020-07-16T23:40:53.002Z</time>
      </trkpt>
      <trkpt lat="62.85429" lon="7.20154">
        <ele>20.707259</ele>
        <time>2020-07-16T23:40:53.579Z</time>
      </trkpt>
      <trkpt lat="62.85438" lon="7.20109">
        <ele>20.814354</ele>
        <time>2020-07-16T23:40:58.187Z</time>
      </trkpt>
      <trkpt lat="62.8547" lon="7.19972">
        <ele>21.144878</ele>
        <time>2020-07-16T23:41:12.734Z</time>
      </trkpt>
      <trkpt lat="62.85472" lon="7.19965">
        <ele>21.162436</ele>
        <time>2020-07-16T23:41:13.621Z</time>
      </trkpt>
      <trkpt lat="62.85489" lon="7.19892">
        <ele>21.338565</ele>
        <time>2020-07-16T23:41:21.228Z</time>
      </trkpt>
      <trkpt lat="62.85499" lon="7.19845">
        <ele>21.450976</ele>
        <time>2020-07-16T23:41:25.926Z</time>
      </trkpt>
      <trkpt lat="62.85503" lon="7.19828">
        <ele>21.491579</ele>
        <time>2020-07-16T23:41:27.666Z</time>
      </trkpt>
      <trkpt lat="62.85508" lon="7.19806">
        <ele>21.520876</ele>
        <time>2020-07-16T23:41:29.910Z</time>
      </trkpt>
      <trkpt lat="62.85524" lon="7.19724">
        <ele>21.492969</ele>
        <time>2020-07-16T23:41:37.949Z</time>
      </trkpt>
      <trkpt lat="62.85536" lon="7.19657">
        <ele>21.470761</ele>
        <time>2020-07-16T23:41:44.301Z</time>
      </trkpt>
      <trkpt lat="62.85543" lon="7.19613">
        <ele>21.456325</ele>
        <time>2020-07-16T23:41:48.309Z</time>
      </trkpt>
      <trkpt lat="62.85551" lon="7.19549">
        <ele>21.435796</ele>
        <time>2020-07-16T23:41:53.662Z</time>
      </trkpt>
      <trkpt lat="62.8556" lon="7.19455">
        <ele>21.405726</ele>
        <time>2020-07-16T23:42:01.245Z</time>
      </trkpt>
      <trkpt lat="62.85571" lon="7.19304">
        <ele>21.114657</ele>
        <time>2020-07-16T23:42:13.066Z</time>
      </trkpt>
      <trkpt lat="62.85572" lon="7.19294">
        <ele>21.095259</ele>
        <time>2020-07-16T23:42:13.723Z</time>
      </trkpt>
      <trkpt lat="62.85573" lon="7.19269">
        <ele>21.042981</ele>
        <time>2020-07-16T23:42:15.678Z</time>
      </trkpt>
      <trkpt lat="62.85574" lon="7.19069">
        <ele>20.631</ele>
        <time>2020-07-16T23:42:31.804Z</time>
      </trkpt>
      <trkpt lat="62.85574" lon="7.19057">
        <ele>20.605484</ele>
        <time>2020-07-16T23:42:32.705Z</time>
      </trkpt>
      <trkpt lat="62.85573" lon="7.19039">
        <ele>20.619554</ele>
        <time>2020-07-16T23:42:34.156Z</time>
      </trkpt>
      <trkpt lat="62.85566" lon="7.18921">
        <ele>20.962944</ele>
        <time>2020-07-16T23:42:43.969Z</time>
      </trkpt>
      <trkpt lat="62.85559" lon="7.18811">
        <ele>21.284944</ele>
        <time>2020-07-16T23:42:54.133Z</time>
      </trkpt>
      <trkpt lat="62.85546" lon="7.1861">
        <ele>22.035797</ele>
        <time>2020-07-16T23:43:15.703Z</time>
      </trkpt>
      <trkpt lat="62.85537" lon="7.18469">
        <ele>22.910162</ele>
        <time>2020-07-16T23:43:31.407Z</time>
      </trkpt>
      <trkpt lat="62.85533" lon="7.18423">
        <ele>23.200659</ele>
        <time>2020-07-16T23:43:36.185Z</time>
      </trkpt>
      <trkpt lat="62.85531" lon="7.18399">
        <ele>23.347671</ele>
        <time>2020-07-16T23:43:39.035Z</time>
      </trkpt>
      <trkpt lat="62.85525" lon="7.1833">
        <ele>23.786893</ele>
        <time>2020-07-16T23:43:46.466Z</time>
      </trkpt>
      <trkpt lat="62.85524" lon="7.18297">
        <ele>23.990583</ele>
        <time>2020-07-16T23:43:49.528Z</time>
      </trkpt>
      <trkpt lat="62.85521" lon="7.18227">
        <ele>24.156022</ele>
        <time>2020-07-16T23:43:56.502Z</time>
      </trkpt>
      <trkpt lat="62.85518" lon="7.18199">
        <ele>24.150682</ele>
        <time>2020-07-16T23:43:59.117Z</time>
      </trkpt>
      <trkpt lat="62.85513" lon="7.18146">
        <ele>24.14083</ele>
        <time>2020-07-16T23:44:04.015Z</time>
      </trkpt>
      <trkpt lat="62.85503" lon="7.18018">
        <ele>24.116907</ele>
        <time>2020-07-16T23:44:14.870Z</time>
      </trkpt>
      <trkpt lat="62.85502" lon="7.18001">
        <ele>24.113659</ele>
        <time>2020-07-16T23:44:16.130Z</time>
      </trkpt>
      <trkpt lat="62.85498" lon="7.1796">
        <ele>24.10604</ele>
        <time>2020-07-16T23:44:19.284Z</time>
      </trkpt>
      <trkpt lat="62.85495" lon="7.17926">
        <ele>24.099531</ele>
        <time>2020-07-16T23:44:21.902Z</time>
      </trkpt>
      <trkpt lat="62.85485" lon="7.17839">
        <ele>24.04492</ele>
        <time>2020-07-16T23:44:28.712Z</time>
      </trkpt>
      <trkpt lat="62.85458" lon="7.17637">
        <ele>23.823015</ele>
        <time>2020-07-16T23:44:45.602Z</time>
      </trkpt>
      <trkpt lat="62.85443" lon="7.17518">
        <ele>23.692082</ele>
        <time>2020-07-16T23:44:56.347Z</time>
      </trkpt>
      <trkpt lat="62.85431" lon="7.17423">
        <ele>23.909071</ele>
        <time>2020-07-16T23:45:05.061Z</time>
      </trkpt>
      <trkpt lat="62.85428" lon="7.17392">
        <ele>24.001432</ele>
        <time>2020-07-16T23:45:08.032Z</time>
      </trkpt>
      <trkpt lat="62.85426" lon="7.17372">
        <ele>24.061945</ele>
        <time>2020-07-16T23:45:09.987Z</time>
      </trkpt>
      <trkpt lat="62.85423" lon="7.17352">
        <ele>24.122809</ele>
        <time>2020-07-16T23:45:11.933Z</time>
      </trkpt>
      <trkpt lat="62.8542" lon="7.17336">
        <ele>24.169258</ele>
        <time>2020-07-16T23:45:13.416Z</time>
      </trkpt>
      <trkpt lat="62.85406" lon="7.17205">
        <ele>24.559728</ele>
        <time>2020-07-16T23:45:26.637Z</time>
      </trkpt>
      <trkpt lat="62.85405" lon="7.17195">
        <ele>24.588216</ele>
        <time>2020-07-16T23:45:27.569Z</time>
      </trkpt>
      <trkpt lat="62.85403" lon="7.17175">
        <ele>24.645756</ele>
        <time>2020-07-16T23:45:29.469Z</time>
      </trkpt>
      <trkpt lat="62.85401" lon="7.17138">
        <ele>24.753511</ele>
        <time>2020-07-16T23:45:33.021Z</time>
      </trkpt>
      <trkpt lat="62.85399" lon="7.17085">
        <ele>24.932374</ele>
        <time>2020-07-16T23:45:38.215Z</time>
      </trkpt>
      <trkpt lat="62.85398" lon="7.17076">
        <ele>24.965477</ele>
        <time>2020-07-16T23:45:39.099Z</time>
      </trkpt>
      <trkpt lat="62.85398" lon="7.17056">
        <ele>25.038407</ele>
        <time>2020-07-16T23:45:41.156Z</time>
      </trkpt>
      <trkpt lat="62.85398" lon="7.1705">
        <ele>25.061279</ele>
        <time>2020-07-16T23:45:41.845Z</time>
      </trkpt>
      <trkpt lat="62.85399" lon="7.16996">
        <ele>25.254858</ele>
        <time>2020-07-16T23:45:47.015Z</time>
      </trkpt>
      <trkpt lat="62.854" lon="7.16961">
        <ele>25.382565</ele>
        <time>2020-07-16T23:45:50.487Z</time>
      </trkpt>
      <trkpt lat="62.85403" lon="7.16792">
        <ele>25.9968</ele>
        <time>2020-07-16T23:46:06.870Z</time>
      </trkpt>
      <trkpt lat="62.85401" lon="7.16719">
        <ele>26.246372</ele>
        <time>2020-07-16T23:46:13.830Z</time>
      </trkpt>
      <trkpt lat="62.85401" lon="7.16704">
        <ele>26.264562</ele>
        <time>2020-07-16T23:46:15.180Z</time>
      </trkpt>
      <trkpt lat="62.854" lon="7.16678">
        <ele>26.297029</ele>
        <time>2020-07-16T23:46:17.675Z</time>
      </trkpt>
      <trkpt lat="62.85398" lon="7.1667">
        <ele>26.307703</ele>
        <time>2020-07-16T23:46:18.449Z</time>
      </trkpt>
      <trkpt lat="62.85396" lon="7.1665">
        <ele>26.332585</ele>
        <time>2020-07-16T23:46:20.493Z</time>
      </trkpt>
      <trkpt lat="62.85389" lon="7.16541">
        <ele>26.465073</ele>
        <time>2020-07-16T23:46:30.222Z</time>
      </trkpt>
      <trkpt lat="62.85386" lon="7.16486">
        <ele>26.532682</ele>
        <time>2020-07-16T23:46:35.124Z</time>
      </trkpt>
      <trkpt lat="62.85377" lon="7.16334">
        <ele>26.716695</ele>
        <time>2020-07-16T23:46:48.071Z</time>
      </trkpt>
      <trkpt lat="62.85371" lon="7.16231">
        <ele>26.751789</ele>
        <time>2020-07-16T23:46:56.868Z</time>
      </trkpt>
      <trkpt lat="62.85368" lon="7.16176">
        <ele>26.770458</ele>
        <time>2020-07-16T23:47:01.845Z</time>
      </trkpt>
      <trkpt lat="62.85359" lon="7.1596">
        <ele>26.843585</ele>
        <time>2020-07-16T23:47:20.319Z</time>
      </trkpt>
      <trkpt lat="62.85358" lon="7.15944">
        <ele>26.848866</ele>
        <time>2020-07-16T23:47:21.684Z</time>
      </trkpt>
      <trkpt lat="62.85357" lon="7.15919">
        <ele>26.879104</ele>
        <time>2020-07-16T23:47:23.760Z</time>
      </trkpt>
      <trkpt lat="62.85357" lon="7.15908">
        <ele>26.893372</ele>
        <time>2020-07-16T23:47:24.793Z</time>
      </trkpt>
      <trkpt lat="62.85359" lon="7.15895">
        <ele>26.910134</ele>
        <time>2020-07-16T23:47:25.942Z</time>
      </trkpt>
      <trkpt lat="62.85359" lon="7.15885">
        <ele>26.923529</ele>
        <time>2020-07-16T23:47:26.915Z</time>
      </trkpt>
      <trkpt lat="62.85358" lon="7.1587">
        <ele>26.941555</ele>
        <time>2020-07-16T23:47:28.181Z</time>
      </trkpt>
      <trkpt lat="62.85358" lon="7.15858">
        <ele>26.956434</ele>
        <time>2020-07-16T23:47:29.278Z</time>
      </trkpt>
      <trkpt lat="62.85355" lon="7.15849">
        <ele>26.971619</ele>
        <time>2020-07-16T23:47:30.380Z</time>
      </trkpt>
      <trkpt lat="62.85354" lon="7.15845">
        <ele>26.976762</ele>
        <time>2020-07-16T23:47:30.741Z</time>
      </trkpt>
      <trkpt lat="62.85352" lon="7.15792">
        <ele>27.042987</ele>
        <time>2020-07-16T23:47:35.586Z</time>
      </trkpt>
      <trkpt lat="62.85348" lon="7.15686">
        <ele>27.175809</ele>
        <time>2020-07-16T23:47:44.821Z</time>
      </trkpt>
      <trkpt lat="62.85347" lon="7.15653">
        <ele>27.21747</ele>
        <time>2020-07-16T23:47:47.892Z</time>
      </trkpt>
      <trkpt lat="62.85344" lon="7.15593">
        <ele>27.293178</ele>
        <time>2020-07-16T23:47:53.176Z</time>
      </trkpt>
      <trkpt lat="62.85344" lon="7.1557">
        <ele>27.321929</ele>
        <time>2020-07-16T23:47:55.474Z</time>
      </trkpt>
      <trkpt lat="62.85344" lon="7.1555">
        <ele>27.35599</ele>
        <time>2020-07-16T23:47:57.044Z</time>
      </trkpt>
      <trkpt lat="62.85345" lon="7.15542">
        <ele>27.391588</ele>
        <time>2020-07-16T23:47:57.901Z</time>
      </trkpt>
      <trkpt lat="62.85351" lon="7.15521">
        <ele>27.490717</ele>
        <time>2020-07-16T23:47:59.883Z</time>
      </trkpt>
      <trkpt lat="62.85353" lon="7.15514">
        <ele>27.52891</ele>
        <time>2020-07-16T23:48:00.931Z</time>
      </trkpt>
      <trkpt lat="62.85352" lon="7.15504">
        <ele>27.57218</ele>
        <time>2020-07-16T23:48:01.934Z</time>
      </trkpt>
      <trkpt lat="62.85351" lon="7.15488">
        <ele>27.635095</ele>
        <time>2020-07-16T23:48:03.392Z</time>
      </trkpt>
      <trkpt lat="62.8535" lon="7.15479">
        <ele>27.67405</ele>
        <time>2020-07-16T23:48:04.161Z</time>
      </trkpt>
      <trkpt lat="62.85343" lon="7.1547">
        <ele>27.748211</ele>
        <time>2020-07-16T23:48:06.024Z</time>
      </trkpt>
      <trkpt lat="62.85341" lon="7.15465">
        <ele>27.773031</ele>
        <time>2020-07-16T23:48:06.485Z</time>
      </trkpt>
      <trkpt lat="62.8534" lon="7.15458">
        <ele>27.803031</ele>
        <time>2020-07-16T23:48:07.220Z</time>
      </trkpt>
      <trkpt lat="62.85339" lon="7.15362">
        <ele>28.193752</ele>
        <time>2020-07-16T23:48:17.063Z</time>
      </trkpt>
      <trkpt lat="62.85341" lon="7.1531">
        <ele>28.406538</ele>
        <time>2020-07-16T23:48:22.205Z</time>
      </trkpt>
      <trkpt lat="62.85343" lon="7.15272">
        <ele>28.558527</ele>
        <time>2020-07-16T23:48:26.234Z</time>
      </trkpt>
      <trkpt lat="62.85347" lon="7.15206">
        <ele>28.833964</ele>
        <time>2020-07-16T23:48:33.130Z</time>
      </trkpt>
      <trkpt lat="62.85349" lon="7.15171">
        <ele>28.97092</ele>
        <time>2020-07-16T23:48:36.470Z</time>
      </trkpt>
      <trkpt lat="62.85351" lon="7.15129">
        <ele>29.111353</ele>
        <time>2020-07-16T23:48:40.527Z</time>
      </trkpt>
      <trkpt lat="62.85356" lon="7.15049">
        <ele>29.378574</ele>
        <time>2020-07-16T23:48:48.600Z</time>
      </trkpt>
      <trkpt lat="62.85364" lon="7.14905">
        <ele>29.857706</ele>
        <time>2020-07-16T23:49:02.903Z</time>
      </trkpt>
      <trkpt lat="62.8537" lon="7.14805">
        <ele>30.191118</ele>
        <time>2020-07-16T23:49:12.159Z</time>
      </trkpt>
      <trkpt lat="62.85371" lon="7.1478">
        <ele>30.244195</ele>
        <time>2020-07-16T23:49:14.274Z</time>
      </trkpt>
      <trkpt lat="62.85373" lon="7.14752">
        <ele>30.204457</ele>
        <time>2020-07-16T23:49:16.685Z</time>
      </trkpt>
      <trkpt lat="62.85379" lon="7.14649">
        <ele>30.061588</ele>
        <time>2020-07-16T23:49:25.121Z</time>
      </trkpt>
      <trkpt lat="62.85379" lon="7.14633">
        <ele>30.039856</ele>
        <time>2020-07-16T23:49:26.368Z</time>
      </trkpt>
      <trkpt lat="62.85381" lon="7.14527">
        <ele>29.894399</ele>
        <time>2020-07-16T23:49:34.630Z</time>
      </trkpt>
      <trkpt lat="62.85383" lon="7.14492">
        <ele>29.845842</ele>
        <time>2020-07-16T23:49:37.417Z</time>
      </trkpt>
      <trkpt lat="62.85384" lon="7.1444">
        <ele>29.774495</ele>
        <time>2020-07-16T23:49:41.505Z</time>
      </trkpt>
      <trkpt lat="62.85386" lon="7.14362">
        <ele>29.729328</ele>
        <time>2020-07-16T23:49:47.686Z</time>
      </trkpt>
      <trkpt lat="62.85388" lon="7.14313">
        <ele>29.757624</ele>
        <time>2020-07-16T23:49:51.613Z</time>
      </trkpt>
      <trkpt lat="62.85393" lon="7.14172">
        <ele>29.837835</ele>
        <time>2020-07-16T23:50:03.336Z</time>
      </trkpt>
      <trkpt lat="62.85394" lon="7.14153">
        <ele>29.848525</ele>
        <time>2020-07-16T23:50:04.927Z</time>
      </trkpt>
      <trkpt lat="62.85396" lon="7.14122">
        <ele>29.866685</ele>
        <time>2020-07-16T23:50:07.883Z</time>
      </trkpt>
      <trkpt lat="62.85414" lon="7.1394">
        <ele>30.212037</ele>
        <time>2020-07-16T23:50:25.515Z</time>
      </trkpt>
      <trkpt lat="62.85415" lon="7.13924">
        <ele>30.281778</ele>
        <time>2020-07-16T23:50:27.207Z</time>
      </trkpt>
      <trkpt lat="62.85416" lon="7.13914">
        <ele>30.322689</ele>
        <time>2020-07-16T23:50:28.431Z</time>
      </trkpt>
      <trkpt lat="62.85429" lon="7.13782">
        <ele>30.897517</ele>
        <time>2020-07-16T23:50:41.766Z</time>
      </trkpt>
      <trkpt lat="62.85429" lon="7.13767">
        <ele>30.961451</ele>
        <time>2020-07-16T23:50:43.494Z</time>
      </trkpt>
      <trkpt lat="62.85429" lon="7.13751">
        <ele>31.028778</ele>
        <time>2020-07-16T23:50:45.233Z</time>
      </trkpt>
      <trkpt lat="62.85429" lon="7.13593">
        <ele>31.616958</ele>
        <time>2020-07-16T23:51:00.912Z</time>
      </trkpt>
      <trkpt lat="62.85421" lon="7.135">
        <ele>31.672093</ele>
        <time>2020-07-16T23:51:09.603Z</time>
      </trkpt>
      <trkpt lat="62.85417" lon="7.13478">
        <ele>31.685839</ele>
        <time>2020-07-16T23:51:11.749Z</time>
      </trkpt>
      <trkpt lat="62.85407" lon="7.13424">
        <ele>31.720144</ele>
        <time>2020-07-16T23:51:16.953Z</time>
      </trkpt>
      <trkpt lat="62.85389" lon="7.13339">
        <ele>31.774885</ele>
        <time>2020-07-16T23:51:24.722Z</time>
      </trkpt>
      <trkpt lat="62.85382" lon="7.13313">
        <ele>31.792401</ele>
        <time>2020-07-16T23:51:27.084Z</time>
      </trkpt>
      <trkpt lat="62.85377" lon="7.13292">
        <ele>31.80646</ele>
        <time>2020-07-16T23:51:29.014Z</time>
      </trkpt>
      <trkpt lat="62.85362" lon="7.13223">
        <ele>31.752991</ele>
        <time>2020-07-16T23:51:35.021Z</time>
      </trkpt>
      <trkpt lat="62.85339" lon="7.13123">
        <ele>31.424941</ele>
        <time>2020-07-16T23:51:43.732Z</time>
      </trkpt>
      <trkpt lat="62.8531" lon="7.12984">
        <ele>30.97609</ele>
        <time>2020-07-16T23:51:55.328Z</time>
      </trkpt>
      <trkpt lat="62.85304" lon="7.12954">
        <ele>30.881822</ele>
        <time>2020-07-16T23:51:57.739Z</time>
      </trkpt>
      <trkpt lat="62.85295" lon="7.12898">
        <ele>30.707949</ele>
        <time>2020-07-16T23:52:02.303Z</time>
      </trkpt>
      <trkpt lat="62.85286" lon="7.12836">
        <ele>30.599423</ele>
        <time>2020-07-16T23:52:07.348Z</time>
      </trkpt>
      <trkpt lat="62.85283" lon="7.12818">
        <ele>30.571066</ele>
        <time>2020-07-16T23:52:08.876Z</time>
      </trkpt>
      <trkpt lat="62.85274" lon="7.12772">
        <ele>30.499806</ele>
        <time>2020-07-16T23:52:12.770Z</time>
      </trkpt>
      <trkpt lat="62.85243" lon="7.12571">
        <ele>30.195525</ele>
        <time>2020-07-16T23:52:30.073Z</time>
      </trkpt>
      <trkpt lat="62.85229" lon="7.12421">
        <ele>30.08797</ele>
        <time>2020-07-16T23:52:43.394Z</time>
      </trkpt>
      <trkpt lat="62.85224" lon="7.12308">
        <ele>30.057287</ele>
        <time>2020-07-16T23:52:52.944Z</time>
      </trkpt>
      <trkpt lat="62.85223" lon="7.12277">
        <ele>30.049047</ele>
        <time>2020-07-16T23:52:55.469Z</time>
      </trkpt>
      <trkpt lat="62.85222" lon="7.12257">
        <ele>30.043543</ele>
        <time>2020-07-16T23:52:57.148Z</time>
      </trkpt>
      <trkpt lat="62.85214" lon="7.12153">
        <ele>30.015039</ele>
        <time>2020-07-16T23:53:05.881Z</time>
      </trkpt>
      <trkpt lat="62.85219" lon="7.12139">
        <ele>30.010188</ele>
        <time>2020-07-16T23:53:07.469Z</time>
      </trkpt>
      <trkpt lat="62.85216" lon="7.1212">
        <ele>29.984708</ele>
        <time>2020-07-16T23:53:09.062Z</time>
      </trkpt>
      <trkpt lat="62.85214" lon="7.12105">
        <ele>29.946012</ele>
        <time>2020-07-16T23:53:10.369Z</time>
      </trkpt>
      <trkpt lat="62.85209" lon="7.12084">
        <ele>29.889919</ele>
        <time>2020-07-16T23:53:12.367Z</time>
      </trkpt>
      <trkpt lat="62.85205" lon="7.12071">
        <ele>29.855005</ele>
        <time>2020-07-16T23:53:13.694Z</time>
      </trkpt>
      <trkpt lat="62.85203" lon="7.12062">
        <ele>29.83059</ele>
        <time>2020-07-16T23:53:14.530Z</time>
      </trkpt>
      <trkpt lat="62.85192" lon="7.11971">
        <ele>29.609936</ele>
        <time>2020-07-16T23:53:22.303Z</time>
      </trkpt>
      <trkpt lat="62.85189" lon="7.11941">
        <ele>29.537291</ele>
        <time>2020-07-16T23:53:24.676Z</time>
      </trkpt>
      <trkpt lat="62.85186" lon="7.11914">
        <ele>29.472761</ele>
        <time>2020-07-16T23:53:26.930Z</time>
      </trkpt>
      <trkpt lat="62.85172" lon="7.11795">
        <ele>29.182462</ele>
        <time>2020-07-16T23:53:36.176Z</time>
      </trkpt>
      <trkpt lat="62.85173" lon="7.11764">
        <ele>29.109316</ele>
        <time>2020-07-16T23:53:38.471Z</time>
      </trkpt>
      <trkpt lat="62.85171" lon="7.11749">
        <ele>29.063456</ele>
        <time>2020-07-16T23:53:39.673Z</time>
      </trkpt>
      <trkpt lat="62.85168" lon="7.11732">
        <ele>28.981389</ele>
        <time>2020-07-16T23:53:40.922Z</time>
      </trkpt>
      <trkpt lat="62.85161" lon="7.11695">
        <ele>28.783983</ele>
        <time>2020-07-16T23:53:44.057Z</time>
      </trkpt>
      <trkpt lat="62.85156" lon="7.11653">
        <ele>28.576908</ele>
        <time>2020-07-16T23:53:47.209Z</time>
      </trkpt>
      <trkpt lat="62.85137" lon="7.11481">
        <ele>27.726287</ele>
        <time>2020-07-16T23:54:00.163Z</time>
      </trkpt>
      <trkpt lat="62.85123" lon="7.11379">
        <ele>27.215465</ele>
        <time>2020-07-16T23:54:07.974Z</time>
      </trkpt>
      <trkpt lat="62.85115" lon="7.1133">
        <ele>26.998196</ele>
        <time>2020-07-16T23:54:11.714Z</time>
      </trkpt>
      <trkpt lat="62.85097" lon="7.11227">
        <ele>26.552446</ele>
        <time>2020-07-16T23:54:19.810Z</time>
      </trkpt>
      <trkpt lat="62.8506" lon="7.10994">
        <ele>25.571367</ele>
        <time>2020-07-16T23:54:38.416Z</time>
      </trkpt>
      <trkpt lat="62.85053" lon="7.10956">
        <ele>25.509469</ele>
        <time>2020-07-16T23:54:41.695Z</time>
      </trkpt>
      <trkpt lat="62.8504" lon="7.10881">
        <ele>25.388962</ele>
        <time>2020-07-16T23:54:48.200Z</time>
      </trkpt>
      <trkpt lat="62.85024" lon="7.10785">
        <ele>25.233161</ele>
        <time>2020-07-16T23:54:56.676Z</time>
      </trkpt>
      <trkpt lat="62.85021" lon="7.1077">
        <ele>25.209418</ele>
        <time>2020-07-16T23:54:57.996Z</time>
      </trkpt>
      <trkpt lat="62.85007" lon="7.10682">
        <ele>25.067274</ele>
        <time>2020-07-16T23:55:05.596Z</time>
      </trkpt>
      <trkpt lat="62.85" lon="7.10638">
        <ele>24.997716</ele>
        <time>2020-07-16T23:55:09.281Z</time>
      </trkpt>
      <trkpt lat="62.84993" lon="7.10595">
        <ele>24.931334</ele>
        <time>2020-07-16T23:55:12.945Z</time>
      </trkpt>
      <trkpt lat="62.84981" lon="7.10529">
        <ele>24.828806</ele>
        <time>2020-07-16T23:55:18.686Z</time>
      </trkpt>
      <trkpt lat="62.84972" lon="7.10481">
        <ele>24.753435</ele>
        <time>2020-07-16T23:55:22.965Z</time>
      </trkpt>
      <trkpt lat="62.84965" lon="7.10444">
        <ele>24.694802</ele>
        <time>2020-07-16T23:55:26.281Z</time>
      </trkpt>
      <trkpt lat="62.84962" lon="7.1043">
        <ele>24.672143</ele>
        <time>2020-07-16T23:55:27.582Z</time>
      </trkpt>
      <trkpt lat="62.84954" lon="7.10394">
        <ele>24.614572</ele>
        <time>2020-07-16T23:55:30.765Z</time>
      </trkpt>
      <trkpt lat="62.84934" lon="7.10316">
        <ele>24.485685</ele>
        <time>2020-07-16T23:55:37.887Z</time>
      </trkpt>
      <trkpt lat="62.84886" lon="7.10122">
        <ele>24.310274</ele>
        <time>2020-07-16T23:55:55.428Z</time>
      </trkpt>
      <trkpt lat="62.84864" lon="7.10029">
        <ele>24.24577</ele>
        <time>2020-07-16T23:56:04.096Z</time>
      </trkpt>
      <trkpt lat="62.84848" lon="7.09954">
        <ele>24.194987</ele>
        <time>2020-07-16T23:56:11.168Z</time>
      </trkpt>
      <trkpt lat="62.84848" lon="7.09952">
        <ele>24.193638</ele>
        <time>2020-07-16T23:56:11.304Z</time>
      </trkpt>
      <trkpt lat="62.84827" lon="7.09834">
        <ele>24.494301</ele>
        <time>2020-07-16T23:56:23.147Z</time>
      </trkpt>
      <trkpt lat="62.84804" lon="7.09653">
        <ele>25.122827</ele>
        <time>2020-07-16T23:56:41.037Z</time>
      </trkpt>
      <trkpt lat="62.84803" lon="7.09641">
        <ele>25.162637</ele>
        <time>2020-07-16T23:56:42.323Z</time>
      </trkpt>
      <trkpt lat="62.84792" lon="7.09552">
        <ele>25.469389</ele>
        <time>2020-07-16T23:56:51.552Z</time>
      </trkpt>
      <trkpt lat="62.84789" lon="7.09529">
        <ele>25.583402</ele>
        <time>2020-07-16T23:56:54.025Z</time>
      </trkpt>
      <trkpt lat="62.84759" lon="7.09266">
        <ele>26.959898</ele>
        <time>2020-07-16T23:57:21.394Z</time>
      </trkpt>
      <trkpt lat="62.8475" lon="7.09176">
        <ele>27.426481</ele>
        <time>2020-07-16T23:57:30.667Z</time>
      </trkpt>
      <trkpt lat="62.84746" lon="7.09125">
        <ele>27.750821</ele>
        <time>2020-07-16T23:57:35.978Z</time>
      </trkpt>
      <trkpt lat="62.84743" lon="7.0911">
        <ele>27.856861</ele>
        <time>2020-07-16T23:57:37.573Z</time>
      </trkpt>
      <trkpt lat="62.8474" lon="7.0907">
        <ele>28.132112</ele>
        <time>2020-07-16T23:57:41.905Z</time>
      </trkpt>
      <trkpt lat="62.84727" lon="7.08926">
        <ele>29.102949</ele>
        <time>2020-07-16T23:57:57.142Z</time>
      </trkpt>
      <trkpt lat="62.84725" lon="7.08907">
        <ele>29.233024</ele>
        <time>2020-07-16T23:57:59.413Z</time>
      </trkpt>
      <trkpt lat="62.84712" lon="7.08766">
        <ele>30.194837</ele>
        <time>2020-07-16T23:58:15.228Z</time>
      </trkpt>
      <trkpt lat="62.84698" lon="7.08627">
        <ele>31.18732</ele>
        <time>2020-07-16T23:58:30.695Z</time>
      </trkpt>
      <trkpt lat="62.84694" lon="7.08581">
        <ele>31.514714</ele>
        <time>2020-07-16T23:58:35.926Z</time>
      </trkpt>
      <trkpt lat="62.84692" lon="7.0856">
        <ele>31.663965</ele>
        <time>2020-07-16T23:58:38.349Z</time>
      </trkpt>
      <trkpt lat="62.84672" lon="7.0843">
        <ele>32.616823</ele>
        <time>2020-07-16T23:58:52.745Z</time>
      </trkpt>
      <trkpt lat="62.84647" lon="7.08317">
        <ele>33.065595</ele>
        <time>2020-07-16T23:59:05.480Z</time>
      </trkpt>
      <trkpt lat="62.84633" lon="7.08266">
        <ele>33.198439</ele>
        <time>2020-07-16T23:59:11.404Z</time>
      </trkpt>
      <trkpt lat="62.84623" lon="7.08234">
        <ele>33.285937</ele>
        <time>2020-07-16T23:59:14.940Z</time>
      </trkpt>
      <trkpt lat="62.8451" lon="7.07897">
        <ele>33.471587</ele>
        <time>2020-07-16T23:59:50.725Z</time>
      </trkpt>
      <trkpt lat="62.84492" lon="7.07846">
        <ele>33.388461</ele>
        <time>2020-07-16T23:59:55.722Z</time>
      </trkpt>
      <trkpt lat="62.84466" lon="7.07771">
        <ele>33.266667</ele>
        <time>2020-07-17T00:00:02.936Z</time>
      </trkpt>
      <trkpt lat="62.84455" lon="7.07737">
        <ele>33.154312</ele>
        <time>2020-07-17T00:00:06.205Z</time>
      </trkpt>
      <trkpt lat="62.84426" lon="7.07651">
        <ele>32.702878</ele>
        <time>2020-07-17T00:00:14.328Z</time>
      </trkpt>
      <trkpt lat="62.844" lon="7.07572">
        <ele>32.291523</ele>
        <time>2020-07-17T00:00:21.600Z</time>
      </trkpt>
      <trkpt lat="62.84361" lon="7.07459">
        <ele>31.698235</ele>
        <time>2020-07-17T00:00:31.971Z</time>
      </trkpt>
      <trkpt lat="62.84324" lon="7.07349">
        <ele>30.981639</ele>
        <time>2020-07-17T00:00:41.929Z</time>
      </trkpt>
      <trkpt lat="62.84203" lon="7.06989">
        <ele>28.830738</ele>
        <time>2020-07-17T00:01:14.172Z</time>
      </trkpt>
      <trkpt lat="62.84181" lon="7.06923">
        <ele>28.543509</ele>
        <time>2020-07-17T00:01:20.267Z</time>
      </trkpt>
      <trkpt lat="62.84165" lon="7.06876">
        <ele>28.3376</ele>
        <time>2020-07-17T00:01:24.770Z</time>
      </trkpt>
      <trkpt lat="62.84144" lon="7.06796">
        <ele>28.00768</ele>
        <time>2020-07-17T00:01:32.399Z</time>
      </trkpt>
      <trkpt lat="62.84129" lon="7.06693">
        <ele>28.30444</ele>
        <time>2020-07-17T00:01:41.718Z</time>
      </trkpt>
      <trkpt lat="62.84112" lon="7.06532">
        <ele>28.763281</ele>
        <time>2020-07-17T00:01:57.593Z</time>
      </trkpt>
      <trkpt lat="62.84108" lon="7.06488">
        <ele>28.885989</ele>
        <time>2020-07-17T00:02:02.077Z</time>
      </trkpt>
      <trkpt lat="62.84102" lon="7.06422">
        <ele>29.074643</ele>
        <time>2020-07-17T00:02:08.884Z</time>
      </trkpt>
      <trkpt lat="62.84095" lon="7.06351">
        <ele>29.372869</ele>
        <time>2020-07-17T00:02:16.223Z</time>
      </trkpt>
      <trkpt lat="62.84088" lon="7.06284">
        <ele>29.666905</ele>
        <time>2020-07-17T00:02:23.152Z</time>
      </trkpt>
      <trkpt lat="62.8405" lon="7.05901">
        <ele>31.073518</ele>
        <time>2020-07-17T00:03:01.257Z</time>
      </trkpt>
      <trkpt lat="62.8403" lon="7.05703">
        <ele>31.520157</ele>
        <time>2020-07-17T00:03:19.615Z</time>
      </trkpt>
      <trkpt lat="62.84027" lon="7.05669">
        <ele>31.595741</ele>
        <time>2020-07-17T00:03:23.110Z</time>
      </trkpt>
      <trkpt lat="62.84029" lon="7.05643">
        <ele>31.64934</ele>
        <time>2020-07-17T00:03:25.268Z</time>
      </trkpt>
      <trkpt lat="62.84044" lon="7.05619">
        <ele>31.513115</ele>
        <time>2020-07-17T00:03:28.477Z</time>
      </trkpt>
      <trkpt lat="62.84045" lon="7.05613">
        <ele>31.491144</ele>
        <time>2020-07-17T00:03:29.460Z</time>
      </trkpt>
      <trkpt lat="62.84046" lon="7.05601">
        <ele>31.451211</ele>
        <time>2020-07-17T00:03:30.466Z</time>
      </trkpt>
      <trkpt lat="62.84046" lon="7.05587">
        <ele>31.402546</ele>
        <time>2020-07-17T00:03:31.569Z</time>
      </trkpt>
      <trkpt lat="62.84044" lon="7.0557">
        <ele>31.341052</ele>
        <time>2020-07-17T00:03:32.971Z</time>
      </trkpt>
      <trkpt lat="62.84041" lon="7.05556">
        <ele>31.289567</ele>
        <time>2020-07-17T00:03:34.058Z</time>
      </trkpt>
      <trkpt lat="62.84022" lon="7.055">
        <ele>31.050666</ele>
        <time>2020-07-17T00:03:40.038Z</time>
      </trkpt>
      <trkpt lat="62.83996" lon="7.05207">
        <ele>29.519177</ele>
        <time>2020-07-17T00:04:01.372Z</time>
      </trkpt>
      <trkpt lat="62.83993" lon="7.05188">
        <ele>29.319851</ele>
        <time>2020-07-17T00:04:02.790Z</time>
      </trkpt>
      <trkpt lat="62.83991" lon="7.05186">
        <ele>29.27744</ele>
        <time>2020-07-17T00:04:03.010Z</time>
      </trkpt>
      <trkpt lat="62.83973" lon="7.05131">
        <ele>28.606933</ele>
        <time>2020-07-17T00:04:07.754Z</time>
      </trkpt>
      <trkpt lat="62.83918" lon="7.04573">
        <ele>22.430716</ele>
        <time>2020-07-17T00:04:44.879Z</time>
      </trkpt>
      <trkpt lat="62.83919" lon="7.04515">
        <ele>21.73892</ele>
        <time>2020-07-17T00:04:48.833Z</time>
      </trkpt>
      <trkpt lat="62.83926" lon="7.04422">
        <ele>20.539276</ele>
        <time>2020-07-17T00:04:54.953Z</time>
      </trkpt>
      <trkpt lat="62.83964" lon="7.0424">
        <ele>17.988371</ele>
        <time>2020-07-17T00:05:07.845Z</time>
      </trkpt>
      <trkpt lat="62.83981" lon="7.0416">
        <ele>16.84849</ele>
        <time>2020-07-17T00:05:13.426Z</time>
      </trkpt>
      <trkpt lat="62.83986" lon="7.04142">
        <ele>16.522419</ele>
        <time>2020-07-17T00:05:14.659Z</time>
      </trkpt>
      <trkpt lat="62.84005" lon="7.04058">
        <ele>15.019406</ele>
        <time>2020-07-17T00:05:20.474Z</time>
      </trkpt>
      <trkpt lat="62.84009" lon="7.04032">
        <ele>14.576652</ele>
        <time>2020-07-17T00:05:22.142Z</time>
      </trkpt>
      <trkpt lat="62.84025" lon="7.03961">
        <ele>13.312967</ele>
        <time>2020-07-17T00:05:26.978Z</time>
      </trkpt>
      <trkpt lat="62.84033" lon="7.03931">
        <ele>12.754446</ele>
        <time>2020-07-17T00:05:29.121Z</time>
      </trkpt>
      <trkpt lat="62.8404" lon="7.03903">
        <ele>12.258898</ele>
        <time>2020-07-17T00:05:31.000Z</time>
      </trkpt>
      <trkpt lat="62.84053" lon="7.03843">
        <ele>11.188684</ele>
        <time>2020-07-17T00:05:35.112Z</time>
      </trkpt>
      <trkpt lat="62.84068" lon="7.03782">
        <ele>10.270828</ele>
        <time>2020-07-17T00:05:39.438Z</time>
      </trkpt>
      <trkpt lat="62.841" lon="7.03645">
        <ele>8.694965</ele>
        <time>2020-07-17T00:05:49.281Z</time>
      </trkpt>
      <trkpt lat="62.84125" lon="7.03561">
        <ele>7.675502</ele>
        <time>2020-07-17T00:05:55.934Z</time>
      </trkpt>
      <trkpt lat="62.84172" lon="7.03404">
        <ele>6.830767</ele>
        <time>2020-07-17T00:06:09.614Z</time>
      </trkpt>
      <trkpt lat="62.84206" lon="7.03292">
        <ele>7.279769</ele>
        <time>2020-07-17T00:06:21.059Z</time>
      </trkpt>
      <trkpt lat="62.84259" lon="7.03113">
        <ele>8.389961</ele>
        <time>2020-07-17T00:06:45.735Z</time>
      </trkpt>
      <trkpt lat="62.84271" lon="7.03082">
        <ele>9.043937</ele>
        <time>2020-07-17T00:06:50.460Z</time>
      </trkpt>
      <trkpt lat="62.8428" lon="7.03061">
        <ele>9.483292</ele>
        <time>2020-07-17T00:06:54.608Z</time>
      </trkpt>
      <trkpt lat="62.84291" lon="7.03035">
        <ele>10.029484</ele>
        <time>2020-07-17T00:06:59.079Z</time>
      </trkpt>
      <trkpt lat="62.84305" lon="7.02996">
        <ele>10.799678</ele>
        <time>2020-07-17T00:07:06.478Z</time>
      </trkpt>
      <trkpt lat="62.84302" lon="7.02991">
        <ele>10.925182</ele>
        <time>2020-07-17T00:07:07.538Z</time>
      </trkpt>
      <trkpt lat="62.84293" lon="7.02977">
        <ele>11.288875</ele>
        <time>2020-07-17T00:07:10.262Z</time>
      </trkpt>
      <trkpt lat="62.84292" lon="7.02975">
        <ele>11.341138</ele>
        <time>2020-07-17T00:07:10.731Z</time>
      </trkpt>
      <trkpt lat="62.84297" lon="7.02959">
        <ele>11.644256</ele>
        <time>2020-07-17T00:07:13.475Z</time>
      </trkpt>
      <trkpt lat="62.84302" lon="7.02945">
        <ele>11.931051</ele>
        <time>2020-07-17T00:07:16.357Z</time>
      </trkpt>
      <trkpt lat="62.84301" lon="7.0294">
        <ele>12.011162</ele>
        <time>2020-07-17T00:07:17.337Z</time>
      </trkpt>
      <trkpt lat="62.84305" lon="7.02908">
        <ele>12.535802</ele>
        <time>2020-07-17T00:07:21.675Z</time>
      </trkpt>
      <trkpt lat="62.84313" lon="7.02891">
        <ele>12.907796</ele>
        <time>2020-07-17T00:07:25.146Z</time>
      </trkpt>
      <trkpt lat="62.84318" lon="7.02882">
        <ele>13.123158</ele>
        <time>2020-07-17T00:07:27.418Z</time>
      </trkpt>
      <trkpt lat="62.84337" lon="7.02843">
        <ele>14.009546</ele>
        <time>2020-07-17T00:07:35.357Z</time>
      </trkpt>
      <trkpt lat="62.84348" lon="7.02834">
        <ele>14.28761</ele>
        <time>2020-07-17T00:07:39.678Z</time>
      </trkpt>
      <trkpt lat="62.8435" lon="7.02838">
        <ele>14.35252</ele>
        <time>2020-07-17T00:07:40.773Z</time>
      </trkpt>
      <trkpt lat="62.84361" lon="7.0282">
        <ele>14.658334</ele>
        <time>2020-07-17T00:07:44.113Z</time>
      </trkpt>
      <trkpt lat="62.84369" lon="7.02806">
        <ele>14.894924</ele>
        <time>2020-07-17T00:07:47.059Z</time>
      </trkpt>
      <trkpt lat="62.84391" lon="7.02776">
        <ele>15.486518</ele>
        <time>2020-07-17T00:07:54.460Z</time>
      </trkpt>
      <trkpt lat="62.84393" lon="7.02773">
        <ele>15.546231</ele>
        <time>2020-07-17T00:07:55.158Z</time>
      </trkpt>
      <trkpt lat="62.84415" lon="7.02743">
        <ele>16.137538</ele>
        <time>2020-07-17T00:08:02.210Z</time>
      </trkpt>
      <trkpt lat="62.84464" lon="7.02676">
        <ele>17.449173</ele>
        <time>2020-07-17T00:08:15.184Z</time>
      </trkpt>
      <trkpt lat="62.8449" lon="7.02643">
        <ele>18.10653</ele>
        <time>2020-07-17T00:08:21.617Z</time>
      </trkpt>
      <trkpt lat="62.84522" lon="7.02605">
        <ele>17.802869</ele>
        <time>2020-07-17T00:08:28.430Z</time>
      </trkpt>
      <trkpt lat="62.84527" lon="7.02599">
        <ele>17.756822</ele>
        <time>2020-07-17T00:08:29.328Z</time>
      </trkpt>
      <trkpt lat="62.84569" lon="7.0255">
        <ele>17.358664</ele>
        <time>2020-07-17T00:08:37.274Z</time>
      </trkpt>
      <trkpt lat="62.84824" lon="7.02261">
        <ele>13.218986</ele>
        <time>2020-07-17T00:09:18.566Z</time>
      </trkpt>
      <trkpt lat="62.84875" lon="7.02204">
        <ele>12.562872</ele>
        <time>2020-07-17T00:09:26.717Z</time>
      </trkpt>
      <trkpt lat="62.84898" lon="7.02177">
        <ele>12.258353</ele>
        <time>2020-07-17T00:09:30.541Z</time>
      </trkpt>
      <trkpt lat="62.84971" lon="7.02094">
        <ele>11.351465</ele>
        <time>2020-07-17T00:09:43.958Z</time>
      </trkpt>
      <trkpt lat="62.85034" lon="7.02022">
        <ele>11.297904</ele>
        <time>2020-07-17T00:09:56.354Z</time>
      </trkpt>
      <trkpt lat="62.85103" lon="7.01944">
        <ele>11.238504</ele>
        <time>2020-07-17T00:10:11.148Z</time>
      </trkpt>
      <trkpt lat="62.85136" lon="7.01905">
        <ele>11.154172</ele>
        <time>2020-07-17T00:10:17.687Z</time>
      </trkpt>
      <trkpt lat="62.85207" lon="7.01825">
        <ele>10.681225</ele>
        <time>2020-07-17T00:10:30.190Z</time>
      </trkpt>
      <trkpt lat="62.85325" lon="7.0169">
        <ele>10.499763</ele>
        <time>2020-07-17T00:10:51.496Z</time>
      </trkpt>
      <trkpt lat="62.85446" lon="7.01552">
        <ele>11.603352</ele>
        <time>2020-07-17T00:11:21.296Z</time>
      </trkpt>
      <trkpt lat="62.85465" lon="7.01531">
        <ele>11.967936</ele>
        <time>2020-07-17T00:11:26.293Z</time>
      </trkpt>
      <trkpt lat="62.85476" lon="7.0152">
        <ele>12.187151</ele>
        <time>2020-07-17T00:11:29.723Z</time>
      </trkpt>
      <trkpt lat="62.85577" lon="7.01446">
        <ele>14.049706</ele>
        <time>2020-07-17T00:11:55.228Z</time>
      </trkpt>
      <trkpt lat="62.85654" lon="7.01419">
        <ele>15.383529</ele>
        <time>2020-07-17T00:12:12.629Z</time>
      </trkpt>
      <trkpt lat="62.85703" lon="7.01414">
        <ele>16.203686</ele>
        <time>2020-07-17T00:12:23.841Z</time>
      </trkpt>
      <trkpt lat="62.85727" lon="7.01414">
        <ele>16.602394</ele>
        <time>2020-07-17T00:12:29.324Z</time>
      </trkpt>
      <trkpt lat="62.85836" lon="7.01411">
        <ele>18.436697</ele>
        <time>2020-07-17T00:12:55.220Z</time>
      </trkpt>
      <trkpt lat="62.85982" lon="7.01407">
        <ele>20.819162</ele>
        <time>2020-07-17T00:13:29.529Z</time>
      </trkpt>
      <trkpt lat="62.86118" lon="7.01405">
        <ele>21.878398</ele>
        <time>2020-07-17T00:13:56.762Z</time>
      </trkpt>
      <trkpt lat="62.86158" lon="7.01404">
        <ele>22.196486</ele>
        <time>2020-07-17T00:14:04.328Z</time>
      </trkpt>
      <trkpt lat="62.86157" lon="7.0139">
        <ele>22.276879</ele>
        <time>2020-07-17T00:14:05.885Z</time>
      </trkpt>
      <trkpt lat="62.8623" lon="7.01387">
        <ele>23.145084</ele>
        <time>2020-07-17T00:14:20.666Z</time>
      </trkpt>
      <trkpt lat="62.86327" lon="7.01385">
        <ele>24.303694</ele>
        <time>2020-07-17T00:14:43.411Z</time>
      </trkpt>
      <trkpt lat="62.86404" lon="7.01384">
        <ele>26.943795</ele>
        <time>2020-07-17T00:15:04.492Z</time>
      </trkpt>
      <trkpt lat="62.86438" lon="7.01383">
        <ele>28.120035</ele>
        <time>2020-07-17T00:15:14.867Z</time>
      </trkpt>
      <trkpt lat="62.86535" lon="7.01381">
        <ele>31.790668</ele>
        <time>2020-07-17T00:15:46.248Z</time>
      </trkpt>
      <trkpt lat="62.86544" lon="7.01381">
        <ele>32.180727</ele>
        <time>2020-07-17T00:15:49.692Z</time>
      </trkpt>
      <trkpt lat="62.86692" lon="7.01379">
        <ele>38.926848</ele>
        <time>2020-07-17T00:16:40.829Z</time>
      </trkpt>
      <trkpt lat="62.86709" lon="7.0138">
        <ele>39.164789</ele>
        <time>2020-07-17T00:16:46.479Z</time>
      </trkpt>
      <trkpt lat="62.86738" lon="7.01378">
        <ele>39.555933</ele>
        <time>2020-07-17T00:16:54.445Z</time>
      </trkpt>
      <trkpt lat="62.86959" lon="7.01374">
        <ele>40.518337</ele>
        <time>2020-07-17T00:17:36.683Z</time>
      </trkpt>
      <trkpt lat="62.87023" lon="7.01358">
        <ele>39.938921</ele>
        <time>2020-07-17T00:17:46.353Z</time>
      </trkpt>
      <trkpt lat="62.87086" lon="7.01325">
        <ele>38.705225</ele>
        <time>2020-07-17T00:17:55.934Z</time>
      </trkpt>
      <trkpt lat="62.87137" lon="7.01284">
        <ele>37.360905</ele>
        <time>2020-07-17T00:18:03.622Z</time>
      </trkpt>
      <trkpt lat="62.87231" lon="7.01165">
        <ele>34.491564</ele>
        <time>2020-07-17T00:18:18.919Z</time>
      </trkpt>
      <trkpt lat="62.87243" lon="7.01142">
        <ele>33.995464</ele>
        <time>2020-07-17T00:18:21.097Z</time>
      </trkpt>
      <trkpt lat="62.87244" lon="7.01126">
        <ele>33.760807</ele>
        <time>2020-07-17T00:18:22.113Z</time>
      </trkpt>
      <trkpt lat="62.87255" lon="7.01092">
        <ele>33.163213</ele>
        <time>2020-07-17T00:18:24.849Z</time>
      </trkpt>
      <trkpt lat="62.8727" lon="7.01077">
        <ele>32.638864</ele>
        <time>2020-07-17T00:18:27.126Z</time>
      </trkpt>
      <trkpt lat="62.87301" lon="7.01025">
        <ele>31.413614</ele>
        <time>2020-07-17T00:18:32.448Z</time>
      </trkpt>
      <trkpt lat="62.87307" lon="7.01014">
        <ele>31.172373</ele>
        <time>2020-07-17T00:18:33.498Z</time>
      </trkpt>
      <trkpt lat="62.87319" lon="7.00996">
        <ele>30.721988</ele>
        <time>2020-07-17T00:18:35.491Z</time>
      </trkpt>
      <trkpt lat="62.87316" lon="7.00988">
        <ele>30.581373</ele>
        <time>2020-07-17T00:18:36.036Z</time>
      </trkpt>
      <trkpt lat="62.87314" lon="7.00961">
        <ele>30.178046</ele>
        <time>2020-07-17T00:18:37.821Z</time>
      </trkpt>
      <trkpt lat="62.87363" lon="7.00842">
        <ele>27.847212</ele>
        <time>2020-07-17T00:18:47.740Z</time>
      </trkpt>
      <trkpt lat="62.87373" lon="7.00814">
        <ele>27.320353</ele>
        <time>2020-07-17T00:18:49.903Z</time>
      </trkpt>
      <trkpt lat="62.87381" lon="7.00794">
        <ele>26.925011</ele>
        <time>2020-07-17T00:18:51.595Z</time>
      </trkpt>
      <trkpt lat="62.87412" lon="7.00704">
        <ele>25.281627</ele>
        <time>2020-07-17T00:18:58.471Z</time>
      </trkpt>
      <trkpt lat="62.87421" lon="7.00646">
        <ele>24.391607</ele>
        <time>2020-07-17T00:19:02.603Z</time>
      </trkpt>
      <trkpt lat="62.87421" lon="7.00638">
        <ele>24.275819</ele>
        <time>2020-07-17T00:19:03.030Z</time>
      </trkpt>
      <trkpt lat="62.87426" lon="7.00635">
        <ele>24.084663</ele>
        <time>2020-07-17T00:19:03.825Z</time>
      </trkpt>
      <trkpt lat="62.87441" lon="7.00613">
        <ele>23.643254</ele>
        <time>2020-07-17T00:19:06.535Z</time>
      </trkpt>
      <trkpt lat="62.87452" lon="7.00583">
        <ele>23.342263</ele>
        <time>2020-07-17T00:19:08.879Z</time>
      </trkpt>
      <trkpt lat="62.87456" lon="7.00593">
        <ele>23.230835</ele>
        <time>2020-07-17T00:19:09.866Z</time>
      </trkpt>
      <trkpt lat="62.87469" lon="7.00625">
        <ele>22.890267</ele>
        <time>2020-07-17T00:19:12.847Z</time>
      </trkpt>
      <trkpt lat="62.87474" lon="7.00628">
        <ele>22.804685</ele>
        <time>2020-07-17T00:19:13.458Z</time>
      </trkpt>
      <trkpt lat="62.87499" lon="7.00599">
        <ele>22.313667</ele>
        <time>2020-07-17T00:19:18.019Z</time>
      </trkpt>
      <trkpt lat="62.87541" lon="7.00444">
        <ele>20.896787</ele>
        <time>2020-07-17T00:19:30.554Z</time>
      </trkpt>
      <trkpt lat="62.87567" lon="7.00322">
        <ele>20.154352</ele>
        <time>2020-07-17T00:19:41.042Z</time>
      </trkpt>
      <trkpt lat="62.87558" lon="7.00262">
        <ele>19.841947</ele>
        <time>2020-07-17T00:19:45.931Z</time>
      </trkpt>
      <trkpt lat="62.87559" lon="7.00257">
        <ele>19.814342</ele>
        <time>2020-07-17T00:19:46.344Z</time>
      </trkpt>
      <trkpt lat="62.87565" lon="7.00239">
        <ele>19.703842</ele>
        <time>2020-07-17T00:19:48.045Z</time>
      </trkpt>
      <trkpt lat="62.87566" lon="7.00236">
        <ele>19.685092</ele>
        <time>2020-07-17T00:19:48.336Z</time>
      </trkpt>
      <trkpt lat="62.87575" lon="7.00235">
        <ele>19.588322</ele>
        <time>2020-07-17T00:19:49.830Z</time>
      </trkpt>
      <trkpt lat="62.87579" lon="7.00233">
        <ele>19.548552</ele>
        <time>2020-07-17T00:19:50.427Z</time>
      </trkpt>
      <trkpt lat="62.87582" lon="7.00229">
        <ele>19.509772</ele>
        <time>2020-07-17T00:19:51.010Z</time>
      </trkpt>
      <trkpt lat="62.87594" lon="7.00162">
        <ele>19.153043</ele>
        <time>2020-07-17T00:19:56.370Z</time>
      </trkpt>
      <trkpt lat="62.87602" lon="7.00108">
        <ele>18.871869</ele>
        <time>2020-07-17T00:20:00.515Z</time>
      </trkpt>
      <trkpt lat="62.87606" lon="7.00078">
        <ele>18.697842</ele>
        <time>2020-07-17T00:20:02.741Z</time>
      </trkpt>
      <trkpt lat="62.87623" lon="6.99878">
        <ele>16.596398</ele>
        <time>2020-07-17T00:20:16.015Z</time>
      </trkpt>
      <trkpt lat="62.87631" lon="6.99673">
        <ele>14.607335</ele>
        <time>2020-07-17T00:20:29.327Z</time>
      </trkpt>
      <trkpt lat="62.87631" lon="6.99657">
        <ele>14.559009</ele>
        <time>2020-07-17T00:20:30.253Z</time>
      </trkpt>
      <trkpt lat="62.87632" lon="6.99622">
        <ele>14.455859</ele>
        <time>2020-07-17T00:20:32.601Z</time>
      </trkpt>
      <trkpt lat="62.87651" lon="6.98754">
        <ele>14.404171</ele>
        <time>2020-07-17T00:21:46.469Z</time>
      </trkpt>
      <trkpt lat="62.87653" lon="6.98692">
        <ele>14.764911</ele>
        <time>2020-07-17T00:21:53.729Z</time>
      </trkpt>
      <trkpt lat="62.87655" lon="6.98636">
        <ele>15.090496</ele>
        <time>2020-07-17T00:22:00.314Z</time>
      </trkpt>
      <trkpt lat="62.87669" lon="6.98472">
        <ele>15.843057</ele>
        <time>2020-07-17T00:22:19.798Z</time>
      </trkpt>
      <trkpt lat="62.87694" lon="6.98312">
        <ele>15.924265</ele>
        <time>2020-07-17T00:22:36.507Z</time>
      </trkpt>
      <trkpt lat="62.87703" lon="6.98269">
        <ele>15.947191</ele>
        <time>2020-07-17T00:22:40.392Z</time>
      </trkpt>
      <trkpt lat="62.87714" lon="6.98216">
        <ele>15.975065</ele>
        <time>2020-07-17T00:22:44.526Z</time>
      </trkpt>
      <trkpt lat="62.87752" lon="6.98044">
        <ele>14.701582</ele>
        <time>2020-07-17T00:22:57.710Z</time>
      </trkpt>
      <trkpt lat="62.87781" lon="6.97917">
        <ele>13.050537</ele>
        <time>2020-07-17T00:23:06.612Z</time>
      </trkpt>
      <trkpt lat="62.87828" lon="6.97703">
        <ele>10.646031</ele>
        <time>2020-07-17T00:23:21.773Z</time>
      </trkpt>
      <trkpt lat="62.87832" lon="6.97687">
        <ele>10.498951</ele>
        <time>2020-07-17T00:23:22.935Z</time>
      </trkpt>
      <trkpt lat="62.87838" lon="6.97659">
        <ele>10.258124</ele>
        <time>2020-07-17T00:23:25.045Z</time>
      </trkpt>
      <trkpt lat="62.87872" lon="6.97526">
        <ele>9.052049</ele>
        <time>2020-07-17T00:23:35.933Z</time>
      </trkpt>
      <trkpt lat="62.87913" lon="6.9743">
        <ele>8.19436</ele>
        <time>2020-07-17T00:23:45.665Z</time>
      </trkpt>
      <trkpt lat="62.87926" lon="6.97409">
        <ele>8.100264</ele>
        <time>2020-07-17T00:23:48.314Z</time>
      </trkpt>
      <trkpt lat="62.87927" lon="6.97406">
        <ele>8.087338</ele>
        <time>2020-07-17T00:23:48.783Z</time>
      </trkpt>
      <trkpt lat="62.87984" lon="6.97339">
        <ele>7.695612</ele>
        <time>2020-07-17T00:24:00.143Z</time>
      </trkpt>
      <trkpt lat="62.88147" lon="6.97176">
        <ele>6.6097</ele>
        <time>2020-07-17T00:24:30.488Z</time>
      </trkpt>
      <trkpt lat="62.88218" lon="6.97133">
        <ele>6.16622</ele>
        <time>2020-07-17T00:24:42.931Z</time>
      </trkpt>
      <trkpt lat="62.88294" lon="6.97114">
        <ele>5.928463</ele>
        <time>2020-07-17T00:24:56.158Z</time>
      </trkpt>
      <trkpt lat="62.88324" lon="6.97116">
        <ele>5.845107</ele>
        <time>2020-07-17T00:25:01.265Z</time>
      </trkpt>
      <trkpt lat="62.88331" lon="6.97117">
        <ele>5.824781</ele>
        <time>2020-07-17T00:25:02.776Z</time>
      </trkpt>
      <trkpt lat="62.88382" lon="6.9713">
        <ele>5.682667</ele>
        <time>2020-07-17T00:25:12.011Z</time>
      </trkpt>
      <trkpt lat="62.88384" lon="6.9711">
        <ele>5.656188</ele>
        <time>2020-07-17T00:25:13.667Z</time>
      </trkpt>
      <trkpt lat="62.88387" lon="6.97088">
        <ele>5.62707</ele>
        <time>2020-07-17T00:25:15.825Z</time>
      </trkpt>
      <trkpt lat="62.88389" lon="6.97082">
        <ele>5.618737</ele>
        <time>2020-07-17T00:25:16.324Z</time>
      </trkpt>
      <trkpt lat="62.88393" lon="6.9707">
        <ele>5.61688</ele>
        <time>2020-07-17T00:25:17.626Z</time>
      </trkpt>
      <trkpt lat="62.88404" lon="6.9705">
        <ele>5.61571</ele>
        <time>2020-07-17T00:25:20.176Z</time>
      </trkpt>
      <trkpt lat="62.88407" lon="6.97043">
        <ele>5.615319</ele>
        <time>2020-07-17T00:25:20.977Z</time>
      </trkpt>
      <trkpt lat="62.88409" lon="6.97046">
        <ele>5.615125</ele>
        <time>2020-07-17T00:25:21.541Z</time>
      </trkpt>
      <trkpt lat="62.88524" lon="6.97192">
        <ele>5.603939</ele>
        <time>2020-07-17T00:25:46.340Z</time>
      </trkpt>
      <trkpt lat="62.88532" lon="6.97277">
        <ele>5.6069</ele>
        <time>2020-07-17T00:25:53.809Z</time>
      </trkpt>
      <trkpt lat="62.8854" lon="6.97305">
        <ele>5.610188</ele>
        <time>2020-07-17T00:25:56.610Z</time>
      </trkpt>
      <trkpt lat="62.88777" lon="6.97858">
        <ele>6.087429</ele>
        <time>2020-07-17T00:27:01.015Z</time>
      </trkpt>
      <trkpt lat="62.88826" lon="6.97947">
        <ele>6.843126</ele>
        <time>2020-07-17T00:27:15.191Z</time>
      </trkpt>
      <trkpt lat="62.8895" lon="6.98134">
        <ele>8.526987</ele>
        <time>2020-07-17T00:27:51.233Z</time>
      </trkpt>
      <trkpt lat="62.89" lon="6.9821">
        <ele>9.155149</ele>
        <time>2020-07-17T00:28:04.820Z</time>
      </trkpt>
      <trkpt lat="62.89035" lon="6.9826">
        <ele>9.589702</ele>
        <time>2020-07-17T00:28:13.455Z</time>
      </trkpt>
      <trkpt lat="62.89086" lon="6.98314">
        <ele>9.505089</ele>
        <time>2020-07-17T00:28:24.131Z</time>
      </trkpt>
      <trkpt lat="62.89118" lon="6.98329">
        <ele>9.22757</ele>
        <time>2020-07-17T00:28:29.950Z</time>
      </trkpt>
      <trkpt lat="62.89153" lon="6.98331">
        <ele>8.929936</ele>
        <time>2020-07-17T00:28:35.542Z</time>
      </trkpt>
      <trkpt lat="62.89207" lon="6.98301">
        <ele>8.461894</ele>
        <time>2020-07-17T00:28:44.137Z</time>
      </trkpt>
      <trkpt lat="62.89254" lon="6.98236">
        <ele>7.739864</ele>
        <time>2020-07-17T00:28:52.719Z</time>
      </trkpt>
      <trkpt lat="62.89263" lon="6.98216">
        <ele>7.533126</ele>
        <time>2020-07-17T00:28:54.692Z</time>
      </trkpt>
      <trkpt lat="62.89272" lon="6.98196">
        <ele>7.332792</ele>
        <time>2020-07-17T00:28:56.618Z</time>
      </trkpt>
      <trkpt lat="62.89339" lon="6.97968">
        <ele>5.384393</ele>
        <time>2020-07-17T00:29:15.537Z</time>
      </trkpt>
      <trkpt lat="62.89371" lon="6.97899">
        <ele>4.798883</ele>
        <time>2020-07-17T00:29:22.395Z</time>
      </trkpt>
      <trkpt lat="62.89406" lon="6.97848">
        <ele>4.249495</ele>
        <time>2020-07-17T00:29:28.971Z</time>
      </trkpt>
      <trkpt lat="62.89451" lon="6.97812">
        <ele>3.624146</ele>
        <time>2020-07-17T00:29:36.425Z</time>
      </trkpt>
      <trkpt lat="62.89612" lon="6.97759">
        <ele>2.250421</ele>
        <time>2020-07-17T00:30:02.704Z</time>
      </trkpt>
      <trkpt lat="62.89669" lon="6.97716">
        <ele>1.864854</ele>
        <time>2020-07-17T00:30:13.874Z</time>
      </trkpt>
      <trkpt lat="62.89709" lon="6.97672">
        <ele>2.077952</ele>
        <time>2020-07-17T00:30:22.439Z</time>
      </trkpt>
      <trkpt lat="62.89715" lon="6.97663">
        <ele>2.114272</ele>
        <time>2020-07-17T00:30:24.023Z</time>
      </trkpt>
      <trkpt lat="62.89723" lon="6.97653">
        <ele>2.157132</ele>
        <time>2020-07-17T00:30:25.964Z</time>
      </trkpt>
      <trkpt lat="62.89778" lon="6.97551">
        <ele>2.501455</ele>
        <time>2020-07-17T00:30:41.050Z</time>
      </trkpt>
      <trkpt lat="62.89946" lon="6.97126">
        <ele>3.47876</ele>
        <time>2020-07-17T00:31:32.936Z</time>
      </trkpt>
      <trkpt lat="62.89951" lon="6.97104">
        <ele>3.446088</ele>
        <time>2020-07-17T00:31:35.009Z</time>
      </trkpt>
      <trkpt lat="62.89949" lon="6.9707">
        <ele>3.399646</ele>
        <time>2020-07-17T00:31:37.958Z</time>
      </trkpt>
      <trkpt lat="62.89951" lon="6.97064">
        <ele>3.389742</ele>
        <time>2020-07-17T00:31:38.597Z</time>
      </trkpt>
      <trkpt lat="62.89953" lon="6.97053">
        <ele>3.373177</ele>
        <time>2020-07-17T00:31:39.392Z</time>
      </trkpt>
      <trkpt lat="62.89972" lon="6.97048">
        <ele>3.315799</ele>
        <time>2020-07-17T00:31:42.922Z</time>
      </trkpt>
      <trkpt lat="62.89985" lon="6.97027">
        <ele>3.266957</ele>
        <time>2020-07-17T00:31:45.583Z</time>
      </trkpt>
      <trkpt lat="62.90044" lon="6.96859">
        <ele>3.01975</ele>
        <time>2020-07-17T00:32:02.034Z</time>
      </trkpt>
      <trkpt lat="62.90066" lon="6.96759">
        <ele>2.962825</ele>
        <time>2020-07-17T00:32:10.597Z</time>
      </trkpt>
      <trkpt lat="62.90118" lon="6.96448">
        <ele>3.46423</ele>
        <time>2020-07-17T00:32:39.310Z</time>
      </trkpt>
      <trkpt lat="62.90159" lon="6.963">
        <ele>4.643073</ele>
        <time>2020-07-17T00:32:57.988Z</time>
      </trkpt>
      <trkpt lat="62.90167" lon="6.96276">
        <ele>4.844849</ele>
        <time>2020-07-17T00:33:01.360Z</time>
      </trkpt>
      <trkpt lat="62.90172" lon="6.96284">
        <ele>4.93478</ele>
        <time>2020-07-17T00:33:02.999Z</time>
      </trkpt>
      <trkpt lat="62.90188" lon="6.96238">
        <ele>5.321735</ele>
        <time>2020-07-17T00:33:09.420Z</time>
      </trkpt>
      <trkpt lat="62.90209" lon="6.9617">
        <ele>6.31903</ele>
        <time>2020-07-17T00:33:19.379Z</time>
      </trkpt>
      <trkpt lat="62.90242" lon="6.96057">
        <ele>8.280376</ele>
        <time>2020-07-17T00:33:36.203Z</time>
      </trkpt>
      <trkpt lat="62.90258" lon="6.95971">
        <ele>9.640316</ele>
        <time>2020-07-17T00:33:48.841Z</time>
      </trkpt>
      <trkpt lat="62.90267" lon="6.95862">
        <ele>11.268256</ele>
        <time>2020-07-17T00:34:04.137Z</time>
      </trkpt>
      <trkpt lat="62.90265" lon="6.95741">
        <ele>12.834325</ele>
        <time>2020-07-17T00:34:19.340Z</time>
      </trkpt>
      <trkpt lat="62.90262" lon="6.95695">
        <ele>13.441964</ele>
        <time>2020-07-17T00:34:25.447Z</time>
      </trkpt>
      <trkpt lat="62.90258" lon="6.9566">
        <ele>13.909792</ele>
        <time>2020-07-17T00:34:29.675Z</time>
      </trkpt>
      <trkpt lat="62.90242" lon="6.95502">
        <ele>16.004666</ele>
        <time>2020-07-17T00:34:48.952Z</time>
      </trkpt>
      <trkpt lat="62.90235" lon="6.95375">
        <ele>17.030021</ele>
        <time>2020-07-17T00:35:03.599Z</time>
      </trkpt>
      <trkpt lat="62.9024" lon="6.95251">
        <ele>17.814053</ele>
        <time>2020-07-17T00:35:16.325Z</time>
      </trkpt>
      <trkpt lat="62.90252" lon="6.95169">
        <ele>18.363832</ele>
        <time>2020-07-17T00:35:24.784Z</time>
      </trkpt>
      <trkpt lat="62.90275" lon="6.95072">
        <ele>18.907302</ele>
        <time>2020-07-17T00:35:34.765Z</time>
      </trkpt>
      <trkpt lat="62.90288" lon="6.95025">
        <ele>18.869819</ele>
        <time>2020-07-17T00:35:39.676Z</time>
      </trkpt>
      <trkpt lat="62.90293" lon="6.95004">
        <ele>18.853891</ele>
        <time>2020-07-17T00:35:41.705Z</time>
      </trkpt>
      <trkpt lat="62.90327" lon="6.94879">
        <ele>18.755524</ele>
        <time>2020-07-17T00:35:53.341Z</time>
      </trkpt>
      <trkpt lat="62.90366" lon="6.9469">
        <ele>18.367189</ele>
        <time>2020-07-17T00:36:08.534Z</time>
      </trkpt>
      <trkpt lat="62.90373" lon="6.94647">
        <ele>18.137948</ele>
        <time>2020-07-17T00:36:11.722Z</time>
      </trkpt>
      <trkpt lat="62.90378" lon="6.94611">
        <ele>17.955054</ele>
        <time>2020-07-17T00:36:14.292Z</time>
      </trkpt>
      <trkpt lat="62.90383" lon="6.94569">
        <ele>17.738786</ele>
        <time>2020-07-17T00:36:17.327Z</time>
      </trkpt>
      <trkpt lat="62.90403" lon="6.94389">
        <ele>16.813511</ele>
        <time>2020-07-17T00:36:30.123Z</time>
      </trkpt>
      <trkpt lat="62.90411" lon="6.94319">
        <ele>16.446019</ele>
        <time>2020-07-17T00:36:34.985Z</time>
      </trkpt>
      <trkpt lat="62.90421" lon="6.94202">
        <ele>15.824821</ele>
        <time>2020-07-17T00:36:43.403Z</time>
      </trkpt>
      <trkpt lat="62.90425" lon="6.9416">
        <ele>15.603292</ele>
        <time>2020-07-17T00:36:46.322Z</time>
      </trkpt>
      <trkpt lat="62.9043" lon="6.94088">
        <ele>15.220513</ele>
        <time>2020-07-17T00:36:51.425Z</time>
      </trkpt>
      <trkpt lat="62.90435" lon="6.94009">
        <ele>14.807924</ele>
        <time>2020-07-17T00:36:56.928Z</time>
      </trkpt>
      <trkpt lat="62.90437" lon="6.93971">
        <ele>14.608932</ele>
        <time>2020-07-17T00:36:59.653Z</time>
      </trkpt>
      <trkpt lat="62.9044" lon="6.93899">
        <ele>14.236065</ele>
        <time>2020-07-17T00:37:04.754Z</time>
      </trkpt>
      <trkpt lat="62.90441" lon="6.93862">
        <ele>14.050312</ele>
        <time>2020-07-17T00:37:07.300Z</time>
      </trkpt>
      <trkpt lat="62.90442" lon="6.93828">
        <ele>13.873685</ele>
        <time>2020-07-17T00:37:09.578Z</time>
      </trkpt>
      <trkpt lat="62.90441" lon="6.93611">
        <ele>12.760102</ele>
        <time>2020-07-17T00:37:24.847Z</time>
      </trkpt>
      <trkpt lat="62.90441" lon="6.93531">
        <ele>12.364966</ele>
        <time>2020-07-17T00:37:30.378Z</time>
      </trkpt>
      <trkpt lat="62.90441" lon="6.93528">
        <ele>12.349368</ele>
        <time>2020-07-17T00:37:30.556Z</time>
      </trkpt>
      <trkpt lat="62.90444" lon="6.93405">
        <ele>11.752137</ele>
        <time>2020-07-17T00:37:39.192Z</time>
      </trkpt>
      <trkpt lat="62.90447" lon="6.93341">
        <ele>11.438632</ele>
        <time>2020-07-17T00:37:43.609Z</time>
      </trkpt>
      <trkpt lat="62.90454" lon="6.93341">
        <ele>11.363718</ele>
        <time>2020-07-17T00:37:45.178Z</time>
      </trkpt>
      <trkpt lat="62.90458" lon="6.93244">
        <ele>10.889422</ele>
        <time>2020-07-17T00:37:52.268Z</time>
      </trkpt>
      <trkpt lat="62.90463" lon="6.93133">
        <ele>10.287407</ele>
        <time>2020-07-17T00:38:00.692Z</time>
      </trkpt>
      <trkpt lat="62.90464" lon="6.93123">
        <ele>10.233465</ele>
        <time>2020-07-17T00:38:01.341Z</time>
      </trkpt>
      <trkpt lat="62.90465" lon="6.93101">
        <ele>10.10452</ele>
        <time>2020-07-17T00:38:03.162Z</time>
      </trkpt>
      <trkpt lat="62.90468" lon="6.93042">
        <ele>9.767615</ele>
        <time>2020-07-17T00:38:07.520Z</time>
      </trkpt>
      <trkpt lat="62.90472" lon="6.93001">
        <ele>9.53388</ele>
        <time>2020-07-17T00:38:10.637Z</time>
      </trkpt>
      <trkpt lat="62.90473" lon="6.92983">
        <ele>9.42952</ele>
        <time>2020-07-17T00:38:12.036Z</time>
      </trkpt>
      <trkpt lat="62.90474" lon="6.92974">
        <ele>9.379338</ele>
        <time>2020-07-17T00:38:12.635Z</time>
      </trkpt>
      <trkpt lat="62.90493" lon="6.9279">
        <ele>8.208454</ele>
        <time>2020-07-17T00:38:25.863Z</time>
      </trkpt>
      <trkpt lat="62.90496" lon="6.92761">
        <ele>7.910964</ele>
        <time>2020-07-17T00:38:27.954Z</time>
      </trkpt>
      <trkpt lat="62.9052" lon="6.92547">
        <ele>5.755734</ele>
        <time>2020-07-17T00:38:42.586Z</time>
      </trkpt>
      <trkpt lat="62.90529" lon="6.92469">
        <ele>4.963238</ele>
        <time>2020-07-17T00:38:47.819Z</time>
      </trkpt>
      <trkpt lat="62.90542" lon="6.92349">
        <ele>4.01414</ele>
        <time>2020-07-17T00:38:55.846Z</time>
      </trkpt>
      <trkpt lat="62.90545" lon="6.92324">
        <ele>3.833543</ele>
        <time>2020-07-17T00:38:57.661Z</time>
      </trkpt>
      <trkpt lat="62.90548" lon="6.92303">
        <ele>3.684045</ele>
        <time>2020-07-17T00:38:59.063Z</time>
      </trkpt>
      <trkpt lat="62.90556" lon="6.92244">
        <ele>3.272358</ele>
        <time>2020-07-17T00:39:03.301Z</time>
      </trkpt>
      <trkpt lat="62.90559" lon="6.92223">
        <ele>3.123504</ele>
        <time>2020-07-17T00:39:04.738Z</time>
      </trkpt>
      <trkpt lat="62.90551" lon="6.92218">
        <ele>2.998858</ele>
        <time>2020-07-17T00:39:06.107Z</time>
      </trkpt>
      <trkpt lat="62.90559" lon="6.9215">
        <ele>2.52445</ele>
        <time>2020-07-17T00:39:10.928Z</time>
      </trkpt>
      <trkpt lat="62.90566" lon="6.92095">
        <ele>2.131329</ele>
        <time>2020-07-17T00:39:15.200Z</time>
      </trkpt>
      <trkpt lat="62.90573" lon="6.92053">
        <ele>1.91081</ele>
        <time>2020-07-17T00:39:18.662Z</time>
      </trkpt>
      <trkpt lat="62.9059" lon="6.9196">
        <ele>1.952856</ele>
        <time>2020-07-17T00:39:27.131Z</time>
      </trkpt>
      <trkpt lat="62.90595" lon="6.91935">
        <ele>1.964142</ele>
        <time>2020-07-17T00:39:29.287Z</time>
      </trkpt>
      <trkpt lat="62.90623" lon="6.91809">
        <ele>2.021751</ele>
        <time>2020-07-17T00:39:41.358Z</time>
      </trkpt>
      <trkpt lat="62.90636" lon="6.91749">
        <ele>2.049811</ele>
        <time>2020-07-17T00:39:46.895Z</time>
      </trkpt>
      <trkpt lat="62.90652" lon="6.91676">
        <ele>2.081463</ele>
        <time>2020-07-17T00:39:53.672Z</time>
      </trkpt>
      <trkpt lat="62.90674" lon="6.91578">
        <ele>2.121117</ele>
        <time>2020-07-17T00:40:02.955Z</time>
      </trkpt>
      <trkpt lat="62.9068" lon="6.91554">
        <ele>2.131146</ele>
        <time>2020-07-17T00:40:05.108Z</time>
      </trkpt>
      <trkpt lat="62.90697" lon="6.91477">
        <ele>2.162222</ele>
        <time>2020-07-17T00:40:12.199Z</time>
      </trkpt>
      <trkpt lat="62.90699" lon="6.91466">
        <ele>2.166543</ele>
        <time>2020-07-17T00:40:13.415Z</time>
      </trkpt>
      <trkpt lat="62.90707" lon="6.91437">
        <ele>2.178919</ele>
        <time>2020-07-17T00:40:16.120Z</time>
      </trkpt>
      <trkpt lat="62.90718" lon="6.91407">
        <ele>2.192483</ele>
        <time>2020-07-17T00:40:18.923Z</time>
      </trkpt>
      <trkpt lat="62.9072" lon="6.91411">
        <ele>2.19471</ele>
        <time>2020-07-17T00:40:19.661Z</time>
      </trkpt>
      <trkpt lat="62.90732" lon="6.9144">
        <ele>2.208614</ele>
        <time>2020-07-17T00:40:22.643Z</time>
      </trkpt>
      <trkpt lat="62.90745" lon="6.91535">
        <ele>2.218128</ele>
        <time>2020-07-17T00:40:30.387Z</time>
      </trkpt>
      <trkpt lat="62.90754" lon="6.91575">
        <ele>2.220523</ele>
        <time>2020-07-17T00:40:34.132Z</time>
      </trkpt>
      <trkpt lat="62.90766" lon="6.91635">
        <ele>2.224135</ele>
        <time>2020-07-17T00:40:39.567Z</time>
      </trkpt>
      <trkpt lat="62.9081" lon="6.91783">
        <ele>2.233727</ele>
        <time>2020-07-17T00:40:54.306Z</time>
      </trkpt>
      <trkpt lat="62.90813" lon="6.91792">
        <ele>2.234363</ele>
        <time>2020-07-17T00:40:55.301Z</time>
      </trkpt>
      <trkpt lat="62.90819" lon="6.91809">
        <ele>2.223574</ele>
        <time>2020-07-17T00:40:56.811Z</time>
      </trkpt>
      <trkpt lat="62.90838" lon="6.91852">
        <ele>2.157562</ele>
        <time>2020-07-17T00:41:01.713Z</time>
      </trkpt>
      <trkpt lat="62.90847" lon="6.91869">
        <ele>2.129481</ele>
        <time>2020-07-17T00:41:03.564Z</time>
      </trkpt>
      <trkpt lat="62.90857" lon="6.91889">
        <ele>2.096546</ele>
        <time>2020-07-17T00:41:05.961Z</time>
      </trkpt>
      <trkpt lat="62.90873" lon="6.91918">
        <ele>2.04661</ele>
        <time>2020-07-17T00:41:09.379Z</time>
      </trkpt>
      <trkpt lat="62.9089" lon="6.91949">
        <ele>1.99301</ele>
        <time>2020-07-17T00:41:13.186Z</time>
      </trkpt>
      <trkpt lat="62.90975" lon="6.92104">
        <ele>2.166186</ele>
        <time>2020-07-17T00:41:31.653Z</time>
      </trkpt>
      <trkpt lat="62.91016" lon="6.92182">
        <ele>2.815019</ele>
        <time>2020-07-17T00:41:42.570Z</time>
      </trkpt>
      <trkpt lat="62.91021" lon="6.92192">
        <ele>2.89362</ele>
        <time>2020-07-17T00:41:44.099Z</time>
      </trkpt>
      <trkpt lat="62.91098" lon="6.92333">
        <ele>4.3167</ele>
        <time>2020-07-17T00:42:08.208Z</time>
      </trkpt>
      <trkpt lat="62.91118" lon="6.9237">
        <ele>5.098017</ele>
        <time>2020-07-17T00:42:15.386Z</time>
      </trkpt>
      <trkpt lat="62.91272" lon="6.92656">
        <ele>10.556241</ele>
        <time>2020-07-17T00:43:12.392Z</time>
      </trkpt>
      <trkpt lat="62.91303" lon="6.92711">
        <ele>11.361522</ele>
        <time>2020-07-17T00:43:22.055Z</time>
      </trkpt>
      <trkpt lat="62.91333" lon="6.92768">
        <ele>12.176779</ele>
        <time>2020-07-17T00:43:31.213Z</time>
      </trkpt>
      <trkpt lat="62.91436" lon="6.92956">
        <ele>13.755476</ele>
        <time>2020-07-17T00:43:58.117Z</time>
      </trkpt>
      <trkpt lat="62.91478" lon="6.93008">
        <ele>14.141989</ele>
        <time>2020-07-17T00:44:07.506Z</time>
      </trkpt>
      <trkpt lat="62.91487" lon="6.93017">
        <ele>14.228108</ele>
        <time>2020-07-17T00:44:09.523Z</time>
      </trkpt>
      <trkpt lat="62.91533" lon="6.93062">
        <ele>14.78206</ele>
        <time>2020-07-17T00:44:20.314Z</time>
      </trkpt>
      <trkpt lat="62.91563" lon="6.93103">
        <ele>15.290433</ele>
        <time>2020-07-17T00:44:28.233Z</time>
      </trkpt>
      <trkpt lat="62.91581" lon="6.93147">
        <ele>15.674431</ele>
        <time>2020-07-17T00:44:34.414Z</time>
      </trkpt>
      <trkpt lat="62.91715" lon="6.93556">
        <ele>18.118294</ele>
        <time>2020-07-17T00:45:26.726Z</time>
      </trkpt>
      <trkpt lat="62.91727" lon="6.93591">
        <ele>18.276284</ele>
        <time>2020-07-17T00:45:30.184Z</time>
      </trkpt>
      <trkpt lat="62.91761" lon="6.93695">
        <ele>17.880361</ele>
        <time>2020-07-17T00:45:39.142Z</time>
      </trkpt>
      <trkpt lat="62.91843" lon="6.93944">
        <ele>15.32787</ele>
        <time>2020-07-17T00:45:58.507Z</time>
      </trkpt>
      <trkpt lat="62.91886" lon="6.94076">
        <ele>13.99645</ele>
        <time>2020-07-17T00:46:08.993Z</time>
      </trkpt>
      <trkpt lat="62.91918" lon="6.94173">
        <ele>13.013833</ele>
        <time>2020-07-17T00:46:16.969Z</time>
      </trkpt>
      <trkpt lat="62.91929" lon="6.94205">
        <ele>12.698481</ele>
        <time>2020-07-17T00:46:19.567Z</time>
      </trkpt>
      <trkpt lat="62.91983" lon="6.94361">
        <ele>11.247039</ele>
        <time>2020-07-17T00:46:32.634Z</time>
      </trkpt>
      <trkpt lat="62.92049" lon="6.94451">
        <ele>10.114876</ele>
        <time>2020-07-17T00:46:43.879Z</time>
      </trkpt>
      <trkpt lat="62.92058" lon="6.94461">
        <ele>9.967238</ele>
        <time>2020-07-17T00:46:45.311Z</time>
      </trkpt>
      <trkpt lat="62.92091" lon="6.94503">
        <ele>9.412553</ele>
        <time>2020-07-17T00:46:51.037Z</time>
      </trkpt>
      <trkpt lat="62.92124" lon="6.94556">
        <ele>9.266703</ele>
        <time>2020-07-17T00:46:57.498Z</time>
      </trkpt>
      <trkpt lat="62.92143" lon="6.94589">
        <ele>9.224307</ele>
        <time>2020-07-17T00:47:01.256Z</time>
      </trkpt>
      <trkpt lat="62.92161" lon="6.94624">
        <ele>9.182221</ele>
        <time>2020-07-17T00:47:05.227Z</time>
      </trkpt>
      <trkpt lat="62.92191" lon="6.9471">
        <ele>9.094974</ele>
        <time>2020-07-17T00:47:13.661Z</time>
      </trkpt>
      <trkpt lat="62.92208" lon="6.94791">
        <ele>9.022632</ele>
        <time>2020-07-17T00:47:21.898Z</time>
      </trkpt>
      <trkpt lat="62.92237" lon="6.94964">
        <ele>10.502705</ele>
        <time>2020-07-17T00:47:41.023Z</time>
      </trkpt>
      <trkpt lat="62.92242" lon="6.94992">
        <ele>10.759324</ele>
        <time>2020-07-17T00:47:44.332Z</time>
      </trkpt>
      <trkpt lat="62.92249" lon="6.95031">
        <ele>11.127131</ele>
        <time>2020-07-17T00:47:48.990Z</time>
      </trkpt>
      <trkpt lat="62.9226" lon="6.95104">
        <ele>11.794411</ele>
        <time>2020-07-17T00:47:57.767Z</time>
      </trkpt>
      <trkpt lat="62.92282" lon="6.9523">
        <ele>13.123358</ele>
        <time>2020-07-17T00:48:13.863Z</time>
      </trkpt>
      <trkpt lat="62.92303" lon="6.95353">
        <ele>14.616869</ele>
        <time>2020-07-17T00:48:30.051Z</time>
      </trkpt>
      <trkpt lat="62.92346" lon="6.9561">
        <ele>17.247191</ele>
        <time>2020-07-17T00:49:01.969Z</time>
      </trkpt>
      <trkpt lat="62.9237" lon="6.95747">
        <ele>17.895395</ele>
        <time>2020-07-17T00:49:16.536Z</time>
      </trkpt>
      <trkpt lat="62.92387" lon="6.95849">
        <ele>18.382602</ele>
        <time>2020-07-17T00:49:26.071Z</time>
      </trkpt>
      <trkpt lat="62.92428" lon="6.96023">
        <ele>18.369601</ele>
        <time>2020-07-17T00:49:41.211Z</time>
      </trkpt>
      <trkpt lat="62.92436" lon="6.9605">
        <ele>18.288174</ele>
        <time>2020-07-17T00:49:43.371Z</time>
      </trkpt>
      <trkpt lat="62.92451" lon="6.96099">
        <ele>18.133682</ele>
        <time>2020-07-17T00:49:47.618Z</time>
      </trkpt>
      <trkpt lat="62.92468" lon="6.96147">
        <ele>17.980904</ele>
        <time>2020-07-17T00:49:51.904Z</time>
      </trkpt>
      <trkpt lat="62.92516" lon="6.96282">
        <ele>17.6528</ele>
        <time>2020-07-17T00:50:04.751Z</time>
      </trkpt>
      <trkpt lat="62.9252" lon="6.96273">
        <ele>17.646312</ele>
        <time>2020-07-17T00:50:05.814Z</time>
      </trkpt>
      <trkpt lat="62.92523" lon="6.96279">
        <ele>17.642747</ele>
        <time>2020-07-17T00:50:06.438Z</time>
      </trkpt>
      <trkpt lat="62.92554" lon="6.96365">
        <ele>17.589821</ele>
        <time>2020-07-17T00:50:15.612Z</time>
      </trkpt>
      <trkpt lat="62.92564" lon="6.96378">
        <ele>17.578388</ele>
        <time>2020-07-17T00:50:17.607Z</time>
      </trkpt>
      <trkpt lat="62.92567" lon="6.96386">
        <ele>17.573379</ele>
        <time>2020-07-17T00:50:18.439Z</time>
      </trkpt>
      <trkpt lat="62.92569" lon="6.96393">
        <ele>17.569575</ele>
        <time>2020-07-17T00:50:19.210Z</time>
      </trkpt>
      <trkpt lat="62.92575" lon="6.96421">
        <ele>17.554385</ele>
        <time>2020-07-17T00:50:21.919Z</time>
      </trkpt>
      <trkpt lat="62.92658" lon="6.96656">
        <ele>17.235712</ele>
        <time>2020-07-17T00:50:47.610Z</time>
      </trkpt>
      <trkpt lat="62.92684" lon="6.96729">
        <ele>17.08869</ele>
        <time>2020-07-17T00:50:54.976Z</time>
      </trkpt>
      <trkpt lat="62.92701" lon="6.96758">
        <ele>17.014678</ele>
        <time>2020-07-17T00:50:58.636Z</time>
      </trkpt>
      <trkpt lat="62.92702" lon="6.96764">
        <ele>17.005925</ele>
        <time>2020-07-17T00:50:59.037Z</time>
      </trkpt>
      <trkpt lat="62.92706" lon="6.9679">
        <ele>16.962302</ele>
        <time>2020-07-17T00:51:01.175Z</time>
      </trkpt>
      <trkpt lat="62.92757" lon="6.96929">
        <ele>16.308818</ele>
        <time>2020-07-17T00:51:14.466Z</time>
      </trkpt>
      <trkpt lat="62.92752" lon="6.9694">
        <ele>16.231126</ele>
        <time>2020-07-17T00:51:15.632Z</time>
      </trkpt>
      <trkpt lat="62.92755" lon="6.9695">
        <ele>16.173429</ele>
        <time>2020-07-17T00:51:16.404Z</time>
      </trkpt>
      <trkpt lat="62.9281" lon="6.97103">
        <ele>15.260381</ele>
        <time>2020-07-17T00:51:29.936Z</time>
      </trkpt>
      <trkpt lat="62.92825" lon="6.97145">
        <ele>15.008102</ele>
        <time>2020-07-17T00:51:33.677Z</time>
      </trkpt>
      <trkpt lat="62.92851" lon="6.97219">
        <ele>14.870969</ele>
        <time>2020-07-17T00:51:40.354Z</time>
      </trkpt>
      <trkpt lat="62.92949" lon="6.97497">
        <ele>14.388322</ele>
        <time>2020-07-17T00:52:08.463Z</time>
      </trkpt>
      <trkpt lat="62.92975" lon="6.9759">
        <ele>14.314913</ele>
        <time>2020-07-17T00:52:17.425Z</time>
      </trkpt>
      <trkpt lat="62.9299" lon="6.97653">
        <ele>14.266459</ele>
        <time>2020-07-17T00:52:23.219Z</time>
      </trkpt>
      <trkpt lat="62.93023" lon="6.97799">
        <ele>14.157426</ele>
        <time>2020-07-17T00:52:35.898Z</time>
      </trkpt>
      <trkpt lat="62.93047" lon="6.97906">
        <ele>13.75858</ele>
        <time>2020-07-17T00:52:44.949Z</time>
      </trkpt>
      <trkpt lat="62.93054" lon="6.97934">
        <ele>13.649596</ele>
        <time>2020-07-17T00:52:47.324Z</time>
      </trkpt>
      <trkpt lat="62.93065" lon="6.97987">
        <ele>13.450652</ele>
        <time>2020-07-17T00:52:51.458Z</time>
      </trkpt>
      <trkpt lat="62.93102" lon="6.98132">
        <ele>12.891956</ele>
        <time>2020-07-17T00:53:03.064Z</time>
      </trkpt>
      <trkpt lat="62.93109" lon="6.98155">
        <ele>12.81299</ele>
        <time>2020-07-17T00:53:05.146Z</time>
      </trkpt>
      <trkpt lat="62.93125" lon="6.98195">
        <ele>12.772325</ele>
        <time>2020-07-17T00:53:08.833Z</time>
      </trkpt>
      <trkpt lat="62.93133" lon="6.98214">
        <ele>12.752721</ele>
        <time>2020-07-17T00:53:10.753Z</time>
      </trkpt>
      <trkpt lat="62.93142" lon="6.98233">
        <ele>12.73144</ele>
        <time>2020-07-17T00:53:12.667Z</time>
      </trkpt>
      <trkpt lat="62.93189" lon="6.98307">
        <ele>12.632942</ele>
        <time>2020-07-17T00:53:22.499Z</time>
      </trkpt>
      <trkpt lat="62.93211" lon="6.98335">
        <ele>12.589148</ele>
        <time>2020-07-17T00:53:26.903Z</time>
      </trkpt>
      <trkpt lat="62.93311" lon="6.98454">
        <ele>13.379014</ele>
        <time>2020-07-17T00:53:50.189Z</time>
      </trkpt>
      <trkpt lat="62.93351" lon="6.98518">
        <ele>13.997118</ele>
        <time>2020-07-17T00:54:01.667Z</time>
      </trkpt>
      <trkpt lat="62.93382" lon="6.98592">
        <ele>14.567461</ele>
        <time>2020-07-17T00:54:12.325Z</time>
      </trkpt>
      <trkpt lat="62.93387" lon="6.98609">
        <ele>14.684491</ele>
        <time>2020-07-17T00:54:14.818Z</time>
      </trkpt>
      <trkpt lat="62.93394" lon="6.98627">
        <ele>14.775904</ele>
        <time>2020-07-17T00:54:17.091Z</time>
      </trkpt>
      <trkpt lat="62.93412" lon="6.98689">
        <ele>14.818925</ele>
        <time>2020-07-17T00:54:24.520Z</time>
      </trkpt>
      <trkpt lat="62.9342" lon="6.98719">
        <ele>14.840211</ele>
        <time>2020-07-17T00:54:27.969Z</time>
      </trkpt>
      <trkpt lat="62.93646" lon="6.99505">
        <ele>14.952592</ele>
        <time>2020-07-17T00:55:41.742Z</time>
      </trkpt>
      <trkpt lat="62.93681" lon="6.99581">
        <ele>14.831638</ele>
        <time>2020-07-17T00:55:49.802Z</time>
      </trkpt>
      <trkpt lat="62.93707" lon="6.99609">
        <ele>14.744698</ele>
        <time>2020-07-17T00:55:54.897Z</time>
      </trkpt>
      <trkpt lat="62.93714" lon="6.99614">
        <ele>14.719932</ele>
        <time>2020-07-17T00:55:55.987Z</time>
      </trkpt>
      <trkpt lat="62.93716" lon="6.99615">
        <ele>14.713753</ele>
        <time>2020-07-17T00:55:56.379Z</time>
      </trkpt>
      <trkpt lat="62.93857" lon="6.99627">
        <ele>14.227678</ele>
        <time>2020-07-17T00:56:20.011Z</time>
      </trkpt>
      <trkpt lat="62.93877" lon="6.99635">
        <ele>14.185017</ele>
        <time>2020-07-17T00:56:23.765Z</time>
      </trkpt>
      <trkpt lat="62.93888" lon="6.99642">
        <ele>14.197898</ele>
        <time>2020-07-17T00:56:25.613Z</time>
      </trkpt>
      <trkpt lat="62.93935" lon="6.99692">
        <ele>14.255998</ele>
        <time>2020-07-17T00:56:34.897Z</time>
      </trkpt>
      <trkpt lat="62.9397" lon="6.99759">
        <ele>14.307727</ele>
        <time>2020-07-17T00:56:43.360Z</time>
      </trkpt>
      <trkpt lat="62.94028" lon="6.99887">
        <ele>14.533187</ele>
        <time>2020-07-17T00:56:58.636Z</time>
      </trkpt>
      <trkpt lat="62.94054" lon="6.99948">
        <ele>14.857627</ele>
        <time>2020-07-17T00:57:06.311Z</time>
      </trkpt>
      <trkpt lat="62.94105" lon="7.00102">
        <ele>15.595343</ele>
        <time>2020-07-17T00:57:24.569Z</time>
      </trkpt>
      <trkpt lat="62.94146" lon="7.00252">
        <ele>16.277894</ele>
        <time>2020-07-17T00:57:41.787Z</time>
      </trkpt>
      <trkpt lat="62.94218" lon="7.00513">
        <ele>17.475887</ele>
        <time>2020-07-17T00:58:10.450Z</time>
      </trkpt>
      <trkpt lat="62.9425" lon="7.00612">
        <ele>17.638084</ele>
        <time>2020-07-17T00:58:21.004Z</time>
      </trkpt>
      <trkpt lat="62.94328" lon="7.00792">
        <ele>17.970121</ele>
        <time>2020-07-17T00:58:41.776Z</time>
      </trkpt>
      <trkpt lat="62.9436" lon="7.00913">
        <ele>17.926237</ele>
        <time>2020-07-17T00:58:53.382Z</time>
      </trkpt>
      <trkpt lat="62.94381" lon="7.01026">
        <ele>17.850895</ele>
        <time>2020-07-17T00:59:03.058Z</time>
      </trkpt>
      <trkpt lat="62.94385" lon="7.01048">
        <ele>17.836353</ele>
        <time>2020-07-17T00:59:05.102Z</time>
      </trkpt>
      <trkpt lat="62.94469" lon="7.01506">
        <ele>16.541528</ele>
        <time>2020-07-17T00:59:41.980Z</time>
      </trkpt>
      <trkpt lat="62.94486" lon="7.01577">
        <ele>15.998329</ele>
        <time>2020-07-17T00:59:47.273Z</time>
      </trkpt>
      <trkpt lat="62.94507" lon="7.01638">
        <ele>15.28357</ele>
        <time>2020-07-17T00:59:52.306Z</time>
      </trkpt>
      <trkpt lat="62.94571" lon="7.01749">
        <ele>13.643573</ele>
        <time>2020-07-17T01:00:03.643Z</time>
      </trkpt>
      <trkpt lat="62.94581" lon="7.01767">
        <ele>13.377476</ele>
        <time>2020-07-17T01:00:05.318Z</time>
      </trkpt>
      <trkpt lat="62.94595" lon="7.01791">
        <ele>13.014208</ele>
        <time>2020-07-17T01:00:07.820Z</time>
      </trkpt>
      <trkpt lat="62.94602" lon="7.01804">
        <ele>12.827721</ele>
        <time>2020-07-17T01:00:09.077Z</time>
      </trkpt>
      <trkpt lat="62.94609" lon="7.01821">
        <ele>12.674763</ele>
        <time>2020-07-17T01:00:10.447Z</time>
      </trkpt>
      <trkpt lat="62.94628" lon="7.01871">
        <ele>12.283301</ele>
        <time>2020-07-17T01:00:14.598Z</time>
      </trkpt>
      <trkpt lat="62.94658" lon="7.01994">
        <ele>11.452093</ele>
        <time>2020-07-17T01:00:23.654Z</time>
      </trkpt>
      <trkpt lat="62.94662" lon="7.0202">
        <ele>11.288841</ele>
        <time>2020-07-17T01:00:25.325Z</time>
      </trkpt>
      <trkpt lat="62.94664" lon="7.02035">
        <ele>11.190672</ele>
        <time>2020-07-17T01:00:26.381Z</time>
      </trkpt>
      <trkpt lat="62.94729" lon="7.02613">
        <ele>11.190138</ele>
        <time>2020-07-17T01:01:17.012Z</time>
      </trkpt>
      <trkpt lat="62.94738" lon="7.02678">
        <ele>11.460182</ele>
        <time>2020-07-17T01:01:23.893Z</time>
      </trkpt>
      <trkpt lat="62.94759" lon="7.0281">
        <ele>12.008835</ele>
        <time>2020-07-17T01:01:37.733Z</time>
      </trkpt>
      <trkpt lat="62.9484" lon="7.03257">
        <ele>13.408539</ele>
        <time>2020-07-17T01:02:22.014Z</time>
      </trkpt>
      <trkpt lat="62.94865" lon="7.03348">
        <ele>13.150677</ele>
        <time>2020-07-17T01:02:30.257Z</time>
      </trkpt>
      <trkpt lat="62.94902" lon="7.03433">
        <ele>12.615742</ele>
        <time>2020-07-17T01:02:38.952Z</time>
      </trkpt>
      <trkpt lat="62.94922" lon="7.03465">
        <ele>12.363984</ele>
        <time>2020-07-17T01:02:42.840Z</time>
      </trkpt>
      <trkpt lat="62.94926" lon="7.03469">
        <ele>12.325622</ele>
        <time>2020-07-17T01:02:43.408Z</time>
      </trkpt>
      <trkpt lat="62.94944" lon="7.03491">
        <ele>12.117625</ele>
        <time>2020-07-17T01:02:46.322Z</time>
      </trkpt>
      <trkpt lat="62.9502" lon="7.03561">
        <ele>10.858042</ele>
        <time>2020-07-17T01:02:58.093Z</time>
      </trkpt>
      <trkpt lat="62.95059" lon="7.03594">
        <ele>9.986339</ele>
        <time>2020-07-17T01:03:03.836Z</time>
      </trkpt>
      <trkpt lat="62.95072" lon="7.03606">
        <ele>9.700144</ele>
        <time>2020-07-17T01:03:05.634Z</time>
      </trkpt>
      <trkpt lat="62.95455" lon="7.03935">
        <ele>2.358695</ele>
        <time>2020-07-17T01:04:04.423Z</time>
      </trkpt>
      <trkpt lat="62.95495" lon="7.03968">
        <ele>1.875214</ele>
        <time>2020-07-17T01:04:11.248Z</time>
      </trkpt>
      <trkpt lat="62.95498" lon="7.03971">
        <ele>1.878759</ele>
        <time>2020-07-17T01:04:11.801Z</time>
      </trkpt>
      <trkpt lat="62.95511" lon="7.03983">
        <ele>1.893569</ele>
        <time>2020-07-17T01:04:14.148Z</time>
      </trkpt>
      <trkpt lat="62.95525" lon="7.03995">
        <ele>1.908699</ele>
        <time>2020-07-17T01:04:16.624Z</time>
      </trkpt>
      <trkpt lat="62.95573" lon="7.04043">
        <ele>1.964945</ele>
        <time>2020-07-17T01:04:26.136Z</time>
      </trkpt>
      <trkpt lat="62.95636" lon="7.04136">
        <ele>2.044756</ele>
        <time>2020-07-17T01:04:41.050Z</time>
      </trkpt>
      <trkpt lat="62.95975" lon="7.04755">
        <ele>5.801402</ele>
        <time>2020-07-17T01:06:12.811Z</time>
      </trkpt>
      <trkpt lat="62.96099" lon="7.04984">
        <ele>6.560987</ele>
        <time>2020-07-17T01:06:44.181Z</time>
      </trkpt>
      <trkpt lat="62.96122" lon="7.05026">
        <ele>6.585966</ele>
        <time>2020-07-17T01:06:49.621Z</time>
      </trkpt>
      <trkpt lat="62.96134" lon="7.05049">
        <ele>6.59908</ele>
        <time>2020-07-17T01:06:52.477Z</time>
      </trkpt>
      <trkpt lat="62.96267" lon="7.05293">
        <ele>6.182779</ele>
        <time>2020-07-17T01:07:22.089Z</time>
      </trkpt>
      <trkpt lat="62.96323" lon="7.05422">
        <ele>5.760966</ele>
        <time>2020-07-17T01:07:35.086Z</time>
      </trkpt>
      <trkpt lat="62.96329" lon="7.05439">
        <ele>5.697028</ele>
        <time>2020-07-17T01:07:36.542Z</time>
      </trkpt>
      <trkpt lat="62.96334" lon="7.05453">
        <ele>5.629938</ele>
        <time>2020-07-17T01:07:37.844Z</time>
      </trkpt>
      <trkpt lat="62.96338" lon="7.05468">
        <ele>5.564778</ele>
        <time>2020-07-17T01:07:39.105Z</time>
      </trkpt>
      <trkpt lat="62.96334" lon="7.05476">
        <ele>5.51968</ele>
        <time>2020-07-17T01:07:39.972Z</time>
      </trkpt>
      <trkpt lat="62.96337" lon="7.05574">
        <ele>5.146364</ele>
        <time>2020-07-17T01:07:47.316Z</time>
      </trkpt>
      <trkpt lat="62.96373" lon="7.05722">
        <ele>4.510505</ele>
        <time>2020-07-17T01:07:59.762Z</time>
      </trkpt>
      <trkpt lat="62.96381" lon="7.05783">
        <ele>4.266046</ele>
        <time>2020-07-17T01:08:04.605Z</time>
      </trkpt>
      <trkpt lat="62.96388" lon="7.05876">
        <ele>3.935625</ele>
        <time>2020-07-17T01:08:11.756Z</time>
      </trkpt>
      <trkpt lat="62.96394" lon="7.06073">
        <ele>3.255281</ele>
        <time>2020-07-17T01:08:26.794Z</time>
      </trkpt>
      <trkpt lat="62.96396" lon="7.06094">
        <ele>3.181586</ele>
        <time>2020-07-17T01:08:28.426Z</time>
      </trkpt>
      <trkpt lat="62.96397" lon="7.06109">
        <ele>3.127831</ele>
        <time>2020-07-17T01:08:29.531Z</time>
      </trkpt>
      <trkpt lat="62.96404" lon="7.06136">
        <ele>3.019431</ele>
        <time>2020-07-17T01:08:31.963Z</time>
      </trkpt>
      <trkpt lat="62.96442" lon="7.06222">
        <ele>2.635133</ele>
        <time>2020-07-17T01:08:40.995Z</time>
      </trkpt>
      <trkpt lat="62.96479" lon="7.06377">
        <ele>2.103768</ele>
        <time>2020-07-17T01:08:54.126Z</time>
      </trkpt>
      <trkpt lat="62.96515" lon="7.06504">
        <ele>1.647896</ele>
        <time>2020-07-17T01:09:05.809Z</time>
      </trkpt>
      <trkpt lat="62.96546" lon="7.06589">
        <ele>1.491071</ele>
        <time>2020-07-17T01:09:14.428Z</time>
      </trkpt>
      <trkpt lat="62.96588" lon="7.06679">
        <ele>1.30535</ele>
        <time>2020-07-17T01:09:24.849Z</time>
      </trkpt>
      <trkpt lat="62.96591" lon="7.06677">
        <ele>1.296061</ele>
        <time>2020-07-17T01:09:25.355Z</time>
      </trkpt>
      <trkpt lat="62.96605" lon="7.06742">
        <ele>1.194092</ele>
        <time>2020-07-17T01:09:30.950Z</time>
      </trkpt>
      <trkpt lat="62.96621" lon="7.06823">
        <ele>1.084129</ele>
        <time>2020-07-17T01:09:37.966Z</time>
      </trkpt>
      <trkpt lat="62.96623" lon="7.06834">
        <ele>1.085283</ele>
        <time>2020-07-17T01:09:38.893Z</time>
      </trkpt>
      <trkpt lat="62.96624" lon="7.06844">
        <ele>1.086308</ele>
        <time>2020-07-17T01:09:39.724Z</time>
      </trkpt>
      <trkpt lat="62.96631" lon="7.06902">
        <ele>1.092257</ele>
        <time>2020-07-17T01:09:44.493Z</time>
      </trkpt>
      <trkpt lat="62.96632" lon="7.06967">
        <ele>1.098811</ele>
        <time>2020-07-17T01:09:49.893Z</time>
      </trkpt>
      <trkpt lat="62.96615" lon="7.07192">
        <ele>1.1215</ele>
        <time>2020-07-17T01:10:08.685Z</time>
      </trkpt>
      <trkpt lat="62.96614" lon="7.07221">
        <ele>1.131688</ele>
        <time>2020-07-17T01:10:11.068Z</time>
      </trkpt>
      <trkpt lat="62.96612" lon="7.07243">
        <ele>1.141724</ele>
        <time>2020-07-17T01:10:12.855Z</time>
      </trkpt>
      <trkpt lat="62.96611" lon="7.07257">
        <ele>1.148282</ele>
        <time>2020-07-17T01:10:14.072Z</time>
      </trkpt>
      <trkpt lat="62.96599" lon="7.07394">
        <ele>1.213218</ele>
        <time>2020-07-17T01:10:25.670Z</time>
      </trkpt>
      <trkpt lat="62.96575" lon="7.0754">
        <ele>1.284846</ele>
        <time>2020-07-17T01:10:38.542Z</time>
      </trkpt>
      <trkpt lat="62.96517" lon="7.07812">
        <ele>1.297256</ele>
        <time>2020-07-17T01:11:03.064Z</time>
      </trkpt>
      <trkpt lat="62.96479" lon="7.07941">
        <ele>1.283077</ele>
        <time>2020-07-17T01:11:15.328Z</time>
      </trkpt>
      <trkpt lat="62.9645" lon="7.08006">
        <ele>1.220886</ele>
        <time>2020-07-17T01:11:22.493Z</time>
      </trkpt>
      <trkpt lat="62.96372" lon="7.08146">
        <ele>1.068708</ele>
        <time>2020-07-17T01:11:39.857Z</time>
      </trkpt>
      <trkpt lat="62.96307" lon="7.08286">
        <ele>0.961862</ele>
        <time>2020-07-17T01:11:55.637Z</time>
      </trkpt>
      <trkpt lat="62.96257" lon="7.08357">
        <ele>0.903698</ele>
        <time>2020-07-17T01:12:05.987Z</time>
      </trkpt>
      <trkpt lat="62.96217" lon="7.08401">
        <ele>0.859205</ele>
        <time>2020-07-17T01:12:14.061Z</time>
      </trkpt>
      <trkpt lat="62.96198" lon="7.08421">
        <ele>0.858964</ele>
        <time>2020-07-17T01:12:17.836Z</time>
      </trkpt>
      <trkpt lat="62.96147" lon="7.08476">
        <ele>1.019288</ele>
        <time>2020-07-17T01:12:28.240Z</time>
      </trkpt>
      <trkpt lat="62.96009" lon="7.0862">
        <ele>1.441308</ele>
        <time>2020-07-17T01:12:57.269Z</time>
      </trkpt>
      <trkpt lat="62.96003" lon="7.08627">
        <ele>1.45971</ele>
        <time>2020-07-17T01:12:58.701Z</time>
      </trkpt>
      <trkpt lat="62.95977" lon="7.08653">
        <ele>1.53185</ele>
        <time>2020-07-17T01:13:04.006Z</time>
      </trkpt>
      <trkpt lat="62.95926" lon="7.08708">
        <ele>1.67619</ele>
        <time>2020-07-17T01:13:14.683Z</time>
      </trkpt>
      <trkpt lat="62.95905" lon="7.08729">
        <ele>1.734264</ele>
        <time>2020-07-17T01:13:18.950Z</time>
      </trkpt>
      <trkpt lat="62.9576" lon="7.08881">
        <ele>1.88081</ele>
        <time>2020-07-17T01:13:47.882Z</time>
      </trkpt>
      <trkpt lat="62.9575" lon="7.0889">
        <ele>1.886061</ele>
        <time>2020-07-17T01:13:49.631Z</time>
      </trkpt>
      <trkpt lat="62.95734" lon="7.08904">
        <ele>1.895319</ele>
        <time>2020-07-17T01:13:52.713Z</time>
      </trkpt>
      <trkpt lat="62.95685" lon="7.08938">
        <ele>1.970566</ele>
        <time>2020-07-17T01:14:01.912Z</time>
      </trkpt>
      <trkpt lat="62.95583" lon="7.08987">
        <ele>2.191711</ele>
        <time>2020-07-17T01:14:20.863Z</time>
      </trkpt>
      <trkpt lat="62.95573" lon="7.08994">
        <ele>2.21437</ele>
        <time>2020-07-17T01:14:22.856Z</time>
      </trkpt>
      <trkpt lat="62.95556" lon="7.09004">
        <ele>2.250583</ele>
        <time>2020-07-17T01:14:26.016Z</time>
      </trkpt>
      <trkpt lat="62.95513" lon="7.09051">
        <ele>2.894265</ele>
        <time>2020-07-17T01:14:34.987Z</time>
      </trkpt>
      <trkpt lat="62.95506" lon="7.09064">
        <ele>3.086884</ele>
        <time>2020-07-17T01:14:37.429Z</time>
      </trkpt>
      <trkpt lat="62.95495" lon="7.09081">
        <ele>3.352802</ele>
        <time>2020-07-17T01:14:40.816Z</time>
      </trkpt>
      <trkpt lat="62.95468" lon="7.0914">
        <ele>4.113431</ele>
        <time>2020-07-17T01:14:49.950Z</time>
      </trkpt>
      <trkpt lat="62.95449" lon="7.09197">
        <ele>4.749868</ele>
        <time>2020-07-17T01:14:58.155Z</time>
      </trkpt>
      <trkpt lat="62.95436" lon="7.09239">
        <ele>5.199963</ele>
        <time>2020-07-17T01:15:04.638Z</time>
      </trkpt>
      <trkpt lat="62.95425" lon="7.09281">
        <ele>5.640772</ele>
        <time>2020-07-17T01:15:10.654Z</time>
      </trkpt>
      <trkpt lat="62.95421" lon="7.09294">
        <ele>5.785736</ele>
        <time>2020-07-17T01:15:12.855Z</time>
      </trkpt>
      <trkpt lat="62.95412" lon="7.09329">
        <ele>6.161897</ele>
        <time>2020-07-17T01:15:17.801Z</time>
      </trkpt>
      <trkpt lat="62.95397" lon="7.09395">
        <ele>6.845476</ele>
        <time>2020-07-17T01:15:26.436Z</time>
      </trkpt>
      <trkpt lat="62.95398" lon="7.09493">
        <ele>7.76064</ele>
        <time>2020-07-17T01:15:37.522Z</time>
      </trkpt>
      <trkpt lat="62.95397" lon="7.09511">
        <ele>7.933925</ele>
        <time>2020-07-17T01:15:40.008Z</time>
      </trkpt>
      <trkpt lat="62.95399" lon="7.09513">
        <ele>7.988552</ele>
        <time>2020-07-17T01:15:40.504Z</time>
      </trkpt>
      <trkpt lat="62.95416" lon="7.09526">
        <ele>8.343966</ele>
        <time>2020-07-17T01:15:44.785Z</time>
      </trkpt>
      <trkpt lat="62.95455" lon="7.09553">
        <ele>9.186083</ele>
        <time>2020-07-17T01:15:54.255Z</time>
      </trkpt>
      <trkpt lat="62.95453" lon="7.09566">
        <ele>9.314756</ele>
        <time>2020-07-17T01:15:56.359Z</time>
      </trkpt>
      <trkpt lat="62.95456" lon="7.09569">
        <ele>9.391235</ele>
        <time>2020-07-17T01:15:56.980Z</time>
      </trkpt>
      <trkpt lat="62.95497" lon="7.09602">
        <ele>9.644345</ele>
        <time>2020-07-17T01:16:05.406Z</time>
      </trkpt>
      <trkpt lat="62.95538" lon="7.09687">
        <ele>9.781505</ele>
        <time>2020-07-17T01:16:16.170Z</time>
      </trkpt>
      <trkpt lat="62.95556" lon="7.09727">
        <ele>9.842266</ele>
        <time>2020-07-17T01:16:20.208Z</time>
      </trkpt>
      <trkpt lat="62.95563" lon="7.09752">
        <ele>9.875819</ele>
        <time>2020-07-17T01:16:23.148Z</time>
      </trkpt>
      <trkpt lat="62.95579" lon="7.0983">
        <ele>9.969489</ele>
        <time>2020-07-17T01:16:29.765Z</time>
      </trkpt>
      <trkpt lat="62.95584" lon="7.09889">
        <ele>10.167128</ele>
        <time>2020-07-17T01:16:35.515Z</time>
      </trkpt>
      <trkpt lat="62.95593" lon="7.0992">
        <ele>10.335936</ele>
        <time>2020-07-17T01:16:38.508Z</time>
      </trkpt>
      <trkpt lat="62.95596" lon="7.09932">
        <ele>10.399661</ele>
        <time>2020-07-17T01:16:40.109Z</time>
      </trkpt>
      <trkpt lat="62.95602" lon="7.09956">
        <ele>10.524216</ele>
        <time>2020-07-17T01:16:42.896Z</time>
      </trkpt>
      <trkpt lat="62.95639" lon="7.10143">
        <ele>11.471938</ele>
        <time>2020-07-17T01:17:03.820Z</time>
      </trkpt>
      <trkpt lat="62.95639" lon="7.10147">
        <ele>11.4944</ele>
        <time>2020-07-17T01:17:04.510Z</time>
      </trkpt>
      <trkpt lat="62.95639" lon="7.10151">
        <ele>11.513588</ele>
        <time>2020-07-17T01:17:05.287Z</time>
      </trkpt>
      <trkpt lat="62.95652" lon="7.10215">
        <ele>11.839647</ele>
        <time>2020-07-17T01:17:12.474Z</time>
      </trkpt>
      <trkpt lat="62.9566" lon="7.10439">
        <ele>12.851278</ele>
        <time>2020-07-17T01:17:35.417Z</time>
      </trkpt>
      <trkpt lat="62.9567" lon="7.10512">
        <ele>13.188927</ele>
        <time>2020-07-17T01:17:42.852Z</time>
      </trkpt>
      <trkpt lat="62.95673" lon="7.10524">
        <ele>13.255219</ele>
        <time>2020-07-17T01:17:44.403Z</time>
      </trkpt>
      <trkpt lat="62.95677" lon="7.10538">
        <ele>13.32728</ele>
        <time>2020-07-17T01:17:45.788Z</time>
      </trkpt>
      <trkpt lat="62.95686" lon="7.10564">
        <ele>13.471634</ele>
        <time>2020-07-17T01:17:48.668Z</time>
      </trkpt>
      <trkpt lat="62.95698" lon="7.10595">
        <ele>13.630022</ele>
        <time>2020-07-17T01:17:52.539Z</time>
      </trkpt>
      <trkpt lat="62.95713" lon="7.10641">
        <ele>13.711037</ele>
        <time>2020-07-17T01:17:57.479Z</time>
      </trkpt>
      <trkpt lat="62.95733" lon="7.10721">
        <ele>13.843112</ele>
        <time>2020-07-17T01:18:05.593Z</time>
      </trkpt>
      <trkpt lat="62.95734" lon="7.10729">
        <ele>13.854251</ele>
        <time>2020-07-17T01:18:06.202Z</time>
      </trkpt>
      <trkpt lat="62.95746" lon="7.10786">
        <ele>13.945159</ele>
        <time>2020-07-17T01:18:11.566Z</time>
      </trkpt>
      <trkpt lat="62.95764" lon="7.10958">
        <ele>14.220637</ele>
        <time>2020-07-17T01:18:27.138Z</time>
      </trkpt>
      <trkpt lat="62.95774" lon="7.11015">
        <ele>14.464916</ele>
        <time>2020-07-17T01:18:32.866Z</time>
      </trkpt>
      <trkpt lat="62.95782" lon="7.1105">
        <ele>14.620007</ele>
        <time>2020-07-17T01:18:36.642Z</time>
      </trkpt>
      <trkpt lat="62.95786" lon="7.11071">
        <ele>14.712558</ele>
        <time>2020-07-17T01:18:38.806Z</time>
      </trkpt>
      <trkpt lat="62.95792" lon="7.11099">
        <ele>14.834036</ele>
        <time>2020-07-17T01:18:41.638Z</time>
      </trkpt>
      <trkpt lat="62.95796" lon="7.11119">
        <ele>14.919001</ele>
        <time>2020-07-17T01:18:43.904Z</time>
      </trkpt>
      <trkpt lat="62.95807" lon="7.11172">
        <ele>15.152237</ele>
        <time>2020-07-17T01:18:49.546Z</time>
      </trkpt>
      <trkpt lat="62.95821" lon="7.11209">
        <ele>15.338852</ele>
        <time>2020-07-17T01:18:54.521Z</time>
      </trkpt>
      <trkpt lat="62.95928" lon="7.11362">
        <ele>16.193963</ele>
        <time>2020-07-17T01:19:22.656Z</time>
      </trkpt>
      <trkpt lat="62.95953" lon="7.11417">
        <ele>16.387278</ele>
        <time>2020-07-17T01:19:29.662Z</time>
      </trkpt>
      <trkpt lat="62.95955" lon="7.11412">
        <ele>16.404376</ele>
        <time>2020-07-17T01:19:30.275Z</time>
      </trkpt>
      <trkpt lat="62.95958" lon="7.11407">
        <ele>16.423975</ele>
        <time>2020-07-17T01:19:30.938Z</time>
      </trkpt>
      <trkpt lat="62.95944" lon="7.11376">
        <ele>16.529822</ele>
        <time>2020-07-17T01:19:34.368Z</time>
      </trkpt>
      <trkpt lat="62.95934" lon="7.11355">
        <ele>16.607643</ele>
        <time>2020-07-17T01:19:37.153Z</time>
      </trkpt>
      <trkpt lat="62.95924" lon="7.11339">
        <ele>16.671972</ele>
        <time>2020-07-17T01:19:39.128Z</time>
      </trkpt>
      <trkpt lat="62.95926" lon="7.11335">
        <ele>16.684902</ele>
        <time>2020-07-17T01:19:39.473Z</time>
      </trkpt>
      <trkpt lat="62.95958" lon="7.11249">
        <ele>16.589608</ele>
        <time>2020-07-17T01:19:48.444Z</time>
      </trkpt>
      <trkpt lat="62.95964" lon="7.11231">
        <ele>16.550179</ele>
        <time>2020-07-17T01:19:50.247Z</time>
      </trkpt>
      <trkpt lat="62.95966" lon="7.11225">
        <ele>16.539094</ele>
        <time>2020-07-17T01:19:50.728Z</time>
      </trkpt>
      <trkpt lat="62.9597" lon="7.11212">
        <ele>16.510522</ele>
        <time>2020-07-17T01:19:51.904Z</time>
      </trkpt>
      <trkpt lat="62.95988" lon="7.11157">
        <ele>16.396735</ele>
        <time>2020-07-17T01:19:56.987Z</time>
      </trkpt>
      <trkpt lat="62.96013" lon="7.11071">
        <ele>16.222796</ele>
        <time>2020-07-17T01:20:04.376Z</time>
      </trkpt>
      <trkpt lat="62.96017" lon="7.11057">
        <ele>16.194693</ele>
        <time>2020-07-17T01:20:05.643Z</time>
      </trkpt>
      <trkpt lat="62.96069" lon="7.10909">
        <ele>16.166676</ele>
        <time>2020-07-17T01:20:20.364Z</time>
      </trkpt>
      <trkpt lat="62.96085" lon="7.10872">
        <ele>16.211383</ele>
        <time>2020-07-17T01:20:24.543Z</time>
      </trkpt>
      <trkpt lat="62.96135" lon="7.10758">
        <ele>16.349121</ele>
        <time>2020-07-17T01:20:38.098Z</time>
      </trkpt>
      <trkpt lat="62.96146" lon="7.10733">
        <ele>16.37915</ele>
        <time>2020-07-17T01:20:41.289Z</time>
      </trkpt>
      <trkpt lat="62.96164" lon="7.10694">
        <ele>16.429973</ele>
        <time>2020-07-17T01:20:46.196Z</time>
      </trkpt>
      <trkpt lat="62.96201" lon="7.1061">
        <ele>16.550363</ele>
        <time>2020-07-17T01:20:56.720Z</time>
      </trkpt>
      <trkpt lat="62.96221" lon="7.10565">
        <ele>16.616252</ele>
        <time>2020-07-17T01:21:02.458Z</time>
      </trkpt>
      <trkpt lat="62.96237" lon="7.10518">
        <ele>16.677293</ele>
        <time>2020-07-17T01:21:07.667Z</time>
      </trkpt>
      <trkpt lat="62.96246" lon="7.10483">
        <ele>16.718867</ele>
        <time>2020-07-17T01:21:11.034Z</time>
      </trkpt>
      <trkpt lat="62.96249" lon="7.10468">
        <ele>16.736244</ele>
        <time>2020-07-17T01:21:12.515Z</time>
      </trkpt>
      <trkpt lat="62.96255" lon="7.10437">
        <ele>16.771291</ele>
        <time>2020-07-17T01:21:15.156Z</time>
      </trkpt>
      <trkpt lat="62.96275" lon="7.10262">
        <ele>15.8135</ele>
        <time>2020-07-17T01:21:28.265Z</time>
      </trkpt>
      <trkpt lat="62.96284" lon="7.10224">
        <ele>15.491214</ele>
        <time>2020-07-17T01:21:31.242Z</time>
      </trkpt>
      <trkpt lat="62.96288" lon="7.10212">
        <ele>15.368214</ele>
        <time>2020-07-17T01:21:32.231Z</time>
      </trkpt>
      <trkpt lat="62.96292" lon="7.10201">
        <ele>15.261242</ele>
        <time>2020-07-17T01:21:33.022Z</time>
      </trkpt>
      <trkpt lat="62.96312" lon="7.10166">
        <ele>14.82761</ele>
        <time>2020-07-17T01:21:36.792Z</time>
      </trkpt>
      <trkpt lat="62.96314" lon="7.10163">
        <ele>14.78292</ele>
        <time>2020-07-17T01:21:37.108Z</time>
      </trkpt>
      <trkpt lat="62.96333" lon="7.10142">
        <ele>14.42003</ele>
        <time>2020-07-17T01:21:40.002Z</time>
      </trkpt>
      <trkpt lat="62.96342" lon="7.10133">
        <ele>14.256009</ele>
        <time>2020-07-17T01:21:41.372Z</time>
      </trkpt>
      <trkpt lat="62.96357" lon="7.10119">
        <ele>13.984308</ele>
        <time>2020-07-17T01:21:43.377Z</time>
      </trkpt>
      <trkpt lat="62.96377" lon="7.10103">
        <ele>13.577784</ele>
        <time>2020-07-17T01:21:46.509Z</time>
      </trkpt>
      <trkpt lat="62.96386" lon="7.10095">
        <ele>13.357827</ele>
        <time>2020-07-17T01:21:47.736Z</time>
      </trkpt>
      <trkpt lat="62.96418" lon="7.10092">
        <ele>12.66733</ele>
        <time>2020-07-17T01:21:52.136Z</time>
      </trkpt>
      <trkpt lat="62.96421" lon="7.10093">
        <ele>12.598045</ele>
        <time>2020-07-17T01:21:52.499Z</time>
      </trkpt>
      <trkpt lat="62.96427" lon="7.10097">
        <ele>12.461592</ele>
        <time>2020-07-17T01:21:53.351Z</time>
      </trkpt>
      <trkpt lat="62.96437" lon="7.10103">
        <ele>12.247483</ele>
        <time>2020-07-17T01:21:54.823Z</time>
      </trkpt>
      <trkpt lat="62.96446" lon="7.10112">
        <ele>12.019239</ele>
        <time>2020-07-17T01:21:56.282Z</time>
      </trkpt>
      <trkpt lat="62.96455" lon="7.10122">
        <ele>11.79701</ele>
        <time>2020-07-17T01:21:57.550Z</time>
      </trkpt>
      <trkpt lat="62.96511" lon="7.10215">
        <ele>10.272085</ele>
        <time>2020-07-17T01:22:07.440Z</time>
      </trkpt>
      <trkpt lat="62.96543" lon="7.10284">
        <ele>9.833041</ele>
        <time>2020-07-17T01:22:14.454Z</time>
      </trkpt>
      <trkpt lat="62.96561" lon="7.1033">
        <ele>9.81326</ele>
        <time>2020-07-17T01:22:18.872Z</time>
      </trkpt>
      <trkpt lat="62.96566" lon="7.10342">
        <ele>9.808107</ele>
        <time>2020-07-17T01:22:20.312Z</time>
      </trkpt>
      <trkpt lat="62.96625" lon="7.10494">
        <ele>9.742521</ele>
        <time>2020-07-17T01:22:37.134Z</time>
      </trkpt>
      <trkpt lat="62.9663" lon="7.10505">
        <ele>9.737587</ele>
        <time>2020-07-17T01:22:38.611Z</time>
      </trkpt>
      <trkpt lat="62.96634" lon="7.10515">
        <ele>9.732749</ele>
        <time>2020-07-17T01:22:40.019Z</time>
      </trkpt>
      <trkpt lat="62.96662" lon="7.10563">
        <ele>9.847957</ele>
        <time>2020-07-17T01:22:46.876Z</time>
      </trkpt>
      <trkpt lat="62.96684" lon="7.10587">
        <ele>10.002152</ele>
        <time>2020-07-17T01:22:51.513Z</time>
      </trkpt>
      <trkpt lat="62.96686" lon="7.10589">
        <ele>10.021355</ele>
        <time>2020-07-17T01:22:52.266Z</time>
      </trkpt>
      <trkpt lat="62.9669" lon="7.10592">
        <ele>10.046059</ele>
        <time>2020-07-17T01:22:53.121Z</time>
      </trkpt>
      <trkpt lat="62.967" lon="7.10597">
        <ele>10.108906</ele>
        <time>2020-07-17T01:22:55.072Z</time>
      </trkpt>
      <trkpt lat="62.96715" lon="7.10599">
        <ele>10.204874</ele>
        <time>2020-07-17T01:22:57.870Z</time>
      </trkpt>
      <trkpt lat="62.96732" lon="7.10593">
        <ele>10.315187</ele>
        <time>2020-07-17T01:23:01.542Z</time>
      </trkpt>
      <trkpt lat="62.96758" lon="7.10583">
        <ele>10.485473</ele>
        <time>2020-07-17T01:23:06.751Z</time>
      </trkpt>
      <trkpt lat="62.96778" lon="7.10574">
        <ele>10.616493</ele>
        <time>2020-07-17T01:23:10.792Z</time>
      </trkpt>
      <trkpt lat="62.96805" lon="7.10563">
        <ele>10.794426</ele>
        <time>2020-07-17T01:23:16.361Z</time>
      </trkpt>
      <trkpt lat="62.96914" lon="7.10519">
        <ele>11.612289</ele>
        <time>2020-07-17T01:23:38.287Z</time>
      </trkpt>
      <trkpt lat="62.96927" lon="7.10517">
        <ele>11.710218</ele>
        <time>2020-07-17T01:23:40.999Z</time>
      </trkpt>
      <trkpt lat="62.96936" lon="7.10518">
        <ele>11.77268</ele>
        <time>2020-07-17T01:23:42.786Z</time>
      </trkpt>
      <trkpt lat="62.96987" lon="7.10549">
        <ele>12.174544</ele>
        <time>2020-07-17T01:23:53.721Z</time>
      </trkpt>
      <trkpt lat="62.97001" lon="7.10561">
        <ele>12.313955</ele>
        <time>2020-07-17T01:23:56.959Z</time>
      </trkpt>
      <trkpt lat="62.97042" lon="7.10598">
        <ele>12.777572</ele>
        <time>2020-07-17T01:24:06.180Z</time>
      </trkpt>
      <trkpt lat="62.9723" lon="7.10789">
        <ele>15.107825</ele>
        <time>2020-07-17T01:24:50.524Z</time>
      </trkpt>
      <trkpt lat="62.97387" lon="7.10925">
        <ele>16.682152</ele>
        <time>2020-07-17T01:25:27.875Z</time>
      </trkpt>
      <trkpt lat="62.97405" lon="7.10941">
        <ele>16.773902</ele>
        <time>2020-07-17T01:25:32.152Z</time>
      </trkpt>
      <trkpt lat="62.9742" lon="7.1096">
        <ele>16.855178</ele>
        <time>2020-07-17T01:25:35.150Z</time>
      </trkpt>
      <trkpt lat="62.97522" lon="7.1111">
        <ele>16.617565</ele>
        <time>2020-07-17T01:25:55.942Z</time>
      </trkpt>
      <trkpt lat="62.9759" lon="7.11209">
        <ele>15.649764</ele>
        <time>2020-07-17T01:26:07.811Z</time>
      </trkpt>
      <trkpt lat="62.97612" lon="7.11243">
        <ele>15.321274</ele>
        <time>2020-07-17T01:26:11.835Z</time>
      </trkpt>
      <trkpt lat="62.97628" lon="7.11271">
        <ele>15.078628</ele>
        <time>2020-07-17T01:26:14.829Z</time>
      </trkpt>
      <trkpt lat="62.97636" lon="7.1129">
        <ele>14.894121</ele>
        <time>2020-07-17T01:26:16.454Z</time>
      </trkpt>
      <trkpt lat="62.9764" lon="7.11303">
        <ele>14.762684</ele>
        <time>2020-07-17T01:26:17.551Z</time>
      </trkpt>
      <trkpt lat="62.97671" lon="7.11443">
        <ele>13.529981</ele>
        <time>2020-07-17T01:26:27.801Z</time>
      </trkpt>
      <trkpt lat="62.97695" lon="7.115">
        <ele>12.919905</ele>
        <time>2020-07-17T01:26:32.869Z</time>
      </trkpt>
      <trkpt lat="62.97778" lon="7.11655">
        <ele>10.736786</ele>
        <time>2020-07-17T01:26:48.474Z</time>
      </trkpt>
      <trkpt lat="62.97938" lon="7.11926">
        <ele>6.363035</ele>
        <time>2020-07-17T01:27:16.001Z</time>
      </trkpt>
      <trkpt lat="62.97944" lon="7.11937">
        <ele>6.207942</ele>
        <time>2020-07-17T01:27:17.050Z</time>
      </trkpt>
      <trkpt lat="62.97944" lon="7.11937">
        <ele>6.207942</ele>
        <time>2020-07-17T01:27:17.057Z</time>
      </trkpt>
      <trkpt lat="62.9795" lon="7.11955">
        <ele>6.002961</ele>
        <time>2020-07-17T01:27:18.493Z</time>
      </trkpt>
      <trkpt lat="62.97959" lon="7.12016">
        <ele>5.428197</ele>
        <time>2020-07-17T01:27:22.601Z</time>
      </trkpt>
      <trkpt lat="62.97957" lon="7.12138">
        <ele>4.326988</ele>
        <time>2020-07-17T01:27:30.885Z</time>
      </trkpt>
      <trkpt lat="62.97957" lon="7.12166">
        <ele>4.25362</ele>
        <time>2020-07-17T01:27:32.681Z</time>
      </trkpt>
      <trkpt lat="62.97957" lon="7.1218">
        <ele>4.249411</ele>
        <time>2020-07-17T01:27:33.600Z</time>
      </trkpt>
      <trkpt lat="62.9797" lon="7.12756">
        <ele>4.851949</ele>
        <time>2020-07-17T01:28:22.362Z</time>
      </trkpt>
      <trkpt lat="62.97967" lon="7.12813">
        <ele>5.042841</ele>
        <time>2020-07-17T01:28:28.007Z</time>
      </trkpt>
      <trkpt lat="62.97948" lon="7.12943">
        <ele>5.541802</ele>
        <time>2020-07-17T01:28:41.740Z</time>
      </trkpt>
      <trkpt lat="62.97942" lon="7.13023">
        <ele>6.087231</ele>
        <time>2020-07-17T01:28:50.112Z</time>
      </trkpt>
      <trkpt lat="62.97948" lon="7.13537">
        <ele>9.171738</ele>
        <time>2020-07-17T01:29:43.254Z</time>
      </trkpt>
      <trkpt lat="62.97941" lon="7.13703">
        <ele>9.999553</ele>
        <time>2020-07-17T01:29:58.733Z</time>
      </trkpt>
      <trkpt lat="62.9794" lon="7.13728">
        <ele>10.073403</ele>
        <time>2020-07-17T01:30:00.905Z</time>
      </trkpt>
      <trkpt lat="62.97931" lon="7.1384">
        <ele>9.927116</ele>
        <time>2020-07-17T01:30:10.199Z</time>
      </trkpt>
      <trkpt lat="62.97913" lon="7.14015">
        <ele>9.695911</ele>
        <time>2020-07-17T01:30:23.788Z</time>
      </trkpt>
      <trkpt lat="62.97912" lon="7.14022">
        <ele>9.687556</ele>
        <time>2020-07-17T01:30:24.207Z</time>
      </trkpt>
      <trkpt lat="62.97907" lon="7.14068">
        <ele>9.625749</ele>
        <time>2020-07-17T01:30:27.581Z</time>
      </trkpt>
      <trkpt lat="62.97899" lon="7.14253">
        <ele>9.373895</ele>
        <time>2020-07-17T01:30:41.249Z</time>
      </trkpt>
      <trkpt lat="62.97898" lon="7.14275">
        <ele>9.343631</ele>
        <time>2020-07-17T01:30:42.862Z</time>
      </trkpt>
      <trkpt lat="62.97896" lon="7.14302">
        <ele>9.306453</ele>
        <time>2020-07-17T01:30:44.833Z</time>
      </trkpt>
      <trkpt lat="62.97885" lon="7.14372">
        <ele>9.203769</ele>
        <time>2020-07-17T01:30:50.646Z</time>
      </trkpt>
      <trkpt lat="62.97871" lon="7.1442">
        <ele>9.126142</ele>
        <time>2020-07-17T01:30:55.474Z</time>
      </trkpt>
      <trkpt lat="62.97869" lon="7.14425">
        <ele>9.11657</ele>
        <time>2020-07-17T01:30:55.926Z</time>
      </trkpt>
      <trkpt lat="62.97857" lon="7.14455">
        <ele>9.062568</ele>
        <time>2020-07-17T01:30:59.406Z</time>
      </trkpt>
      <trkpt lat="62.97835" lon="7.14504">
        <ele>9.061206</ele>
        <time>2020-07-17T01:31:05.122Z</time>
      </trkpt>
      <trkpt lat="62.97819" lon="7.14537">
        <ele>9.092303</ele>
        <time>2020-07-17T01:31:09.105Z</time>
      </trkpt>
      <trkpt lat="62.97755" lon="7.14675">
        <ele>9.221671</ele>
        <time>2020-07-17T01:31:26.248Z</time>
      </trkpt>
      <trkpt lat="62.97705" lon="7.14789">
        <ele>9.142484</ele>
        <time>2020-07-17T01:31:38.978Z</time>
      </trkpt>
      <trkpt lat="62.97696" lon="7.14816">
        <ele>9.051396</ele>
        <time>2020-07-17T01:31:41.458Z</time>
      </trkpt>
      <trkpt lat="62.97694" lon="7.14822">
        <ele>9.031774</ele>
        <time>2020-07-17T01:31:41.964Z</time>
      </trkpt>
      <trkpt lat="62.97691" lon="7.14842">
        <ele>8.975331</ele>
        <time>2020-07-17T01:31:43.515Z</time>
      </trkpt>
      <trkpt lat="62.97678" lon="7.14912">
        <ele>8.768435</ele>
        <time>2020-07-17T01:31:48.953Z</time>
      </trkpt>
      <trkpt lat="62.97675" lon="7.14928">
        <ele>8.7213</ele>
        <time>2020-07-17T01:31:50.201Z</time>
      </trkpt>
      <trkpt lat="62.97671" lon="7.14948">
        <ele>8.661018</ele>
        <time>2020-07-17T01:31:51.760Z</time>
      </trkpt>
      <trkpt lat="62.97654" lon="7.15013">
        <ele>8.458264</ele>
        <time>2020-07-17T01:31:57.068Z</time>
      </trkpt>
      <trkpt lat="62.97647" lon="7.15038">
        <ele>8.378299</ele>
        <time>2020-07-17T01:31:59.162Z</time>
      </trkpt>
      <trkpt lat="62.97622" lon="7.1514">
        <ele>8.281863</ele>
        <time>2020-07-17T01:32:07.751Z</time>
      </trkpt>
      <trkpt lat="62.97616" lon="7.15158">
        <ele>8.310298</ele>
        <time>2020-07-17T01:32:09.414Z</time>
      </trkpt>
      <trkpt lat="62.97607" lon="7.15184">
        <ele>8.352364</ele>
        <time>2020-07-17T01:32:12.007Z</time>
      </trkpt>
      <trkpt lat="62.97589" lon="7.15231">
        <ele>8.431266</ele>
        <time>2020-07-17T01:32:16.909Z</time>
      </trkpt>
      <trkpt lat="62.97582" lon="7.15248">
        <ele>8.461024</ele>
        <time>2020-07-17T01:32:18.857Z</time>
      </trkpt>
      <trkpt lat="62.9758" lon="7.15253">
        <ele>8.469443</ele>
        <time>2020-07-17T01:32:19.412Z</time>
      </trkpt>
      <trkpt lat="62.97578" lon="7.15258">
        <ele>8.477666</ele>
        <time>2020-07-17T01:32:19.957Z</time>
      </trkpt>
      <trkpt lat="62.97564" lon="7.15294">
        <ele>8.538056</ele>
        <time>2020-07-17T01:32:23.966Z</time>
      </trkpt>
      <trkpt lat="62.97489" lon="7.15524">
        <ele>9.669309</ele>
        <time>2020-07-17T01:32:51.295Z</time>
      </trkpt>
      <trkpt lat="62.97439" lon="7.15701">
        <ele>11.065281</ele>
        <time>2020-07-17T01:33:13.382Z</time>
      </trkpt>
      <trkpt lat="62.97428" lon="7.15775">
        <ele>11.613186</ele>
        <time>2020-07-17T01:33:21.642Z</time>
      </trkpt>
      <trkpt lat="62.97411" lon="7.15993">
        <ele>13.334264</ele>
        <time>2020-07-17T01:33:45.489Z</time>
      </trkpt>
      <trkpt lat="62.97402" lon="7.16069">
        <ele>13.937644</ele>
        <time>2020-07-17T01:33:53.592Z</time>
      </trkpt>
      <trkpt lat="62.97399" lon="7.16094">
        <ele>14.144066</ele>
        <time>2020-07-17T01:33:56.314Z</time>
      </trkpt>
      <trkpt lat="62.97394" lon="7.16126">
        <ele>14.408624</ele>
        <time>2020-07-17T01:33:59.885Z</time>
      </trkpt>
      <trkpt lat="62.97393" lon="7.16129">
        <ele>14.43194</ele>
        <time>2020-07-17T01:34:00.193Z</time>
      </trkpt>
      <trkpt lat="62.97395" lon="7.16142">
        <ele>14.515549</ele>
        <time>2020-07-17T01:34:01.804Z</time>
      </trkpt>
      <trkpt lat="62.97402" lon="7.16175">
        <ele>14.720314</ele>
        <time>2020-07-17T01:34:05.385Z</time>
      </trkpt>
      <trkpt lat="62.97407" lon="7.16171">
        <ele>14.795069</ele>
        <time>2020-07-17T01:34:06.831Z</time>
      </trkpt>
      <trkpt lat="62.97409" lon="7.16185">
        <ele>14.88187</ele>
        <time>2020-07-17T01:34:08.714Z</time>
      </trkpt>
      <trkpt lat="62.97411" lon="7.16197">
        <ele>14.950108</ele>
        <time>2020-07-17T01:34:10.276Z</time>
      </trkpt>
      <trkpt lat="62.97415" lon="7.16189">
        <ele>15.019243</ele>
        <time>2020-07-17T01:34:11.593Z</time>
      </trkpt>
      <trkpt lat="62.97444" lon="7.16176">
        <ele>15.406229</ele>
        <time>2020-07-17T01:34:18.324Z</time>
      </trkpt>
      <trkpt lat="62.975" lon="7.16176">
        <ele>16.110397</ele>
        <time>2020-07-17T01:34:30.430Z</time>
      </trkpt>
      <trkpt lat="62.97502" lon="7.16175">
        <ele>16.145232</ele>
        <time>2020-07-17T01:34:31.147Z</time>
      </trkpt>
      <trkpt lat="62.97506" lon="7.16173">
        <ele>16.188745</ele>
        <time>2020-07-17T01:34:31.855Z</time>
      </trkpt>
      <trkpt lat="62.97541" lon="7.16152">
        <ele>16.65831</ele>
        <time>2020-07-17T01:34:39.653Z</time>
      </trkpt>
      <trkpt lat="62.97589" lon="7.16131">
        <ele>16.770524</ele>
        <time>2020-07-17T01:34:49.358Z</time>
      </trkpt>
      <trkpt lat="62.97614" lon="7.16122">
        <ele>16.796751</ele>
        <time>2020-07-17T01:34:54.484Z</time>
      </trkpt>
      <trkpt lat="62.97667" lon="7.16106">
        <ele>16.851186</ele>
        <time>2020-07-17T01:35:04.186Z</time>
      </trkpt>
      <trkpt lat="62.97794" lon="7.16071">
        <ele>16.049932</ele>
        <time>2020-07-17T01:35:24.624Z</time>
      </trkpt>
      <trkpt lat="62.97794" lon="7.16058">
        <ele>15.977902</ele>
        <time>2020-07-17T01:35:25.484Z</time>
      </trkpt>
      <trkpt lat="62.97802" lon="7.16056">
        <ele>15.870914</ele>
        <time>2020-07-17T01:35:26.663Z</time>
      </trkpt>
      <trkpt lat="62.9788" lon="7.1602">
        <ele>14.901459</ele>
        <time>2020-07-17T01:35:38.361Z</time>
      </trkpt>
      <trkpt lat="62.97909" lon="7.16008">
        <ele>14.69382</ele>
        <time>2020-07-17T01:35:42.686Z</time>
      </trkpt>
      <trkpt lat="62.97938" lon="7.15999">
        <ele>14.641359</ele>
        <time>2020-07-17T01:35:47.150Z</time>
      </trkpt>
      <trkpt lat="62.9799" lon="7.15988">
        <ele>14.546692</ele>
        <time>2020-07-17T01:35:55.880Z</time>
      </trkpt>
      <trkpt lat="62.98007" lon="7.15986">
        <ele>14.517472</ele>
        <time>2020-07-17T01:35:58.495Z</time>
      </trkpt>
      <trkpt lat="62.98028" lon="7.15984">
        <ele>14.478411</ele>
        <time>2020-07-17T01:36:02.624Z</time>
      </trkpt>
      <trkpt lat="62.98222" lon="7.15981">
        <ele>15.878204</ele>
        <time>2020-07-17T01:36:44.433Z</time>
      </trkpt>
      <trkpt lat="62.98253" lon="7.15992">
        <ele>16.19215</ele>
        <time>2020-07-17T01:36:50.886Z</time>
      </trkpt>
      <trkpt lat="62.98307" lon="7.16029">
        <ele>16.020021</ele>
        <time>2020-07-17T01:37:01.428Z</time>
      </trkpt>
      <trkpt lat="62.98325" lon="7.16043">
        <ele>15.96002</ele>
        <time>2020-07-17T01:37:04.866Z</time>
      </trkpt>
      <trkpt lat="62.98347" lon="7.16058">
        <ele>15.886869</ele>
        <time>2020-07-17T01:37:08.543Z</time>
      </trkpt>
      <trkpt lat="62.98398" lon="7.16086">
        <ele>15.719577</ele>
        <time>2020-07-17T01:37:17.080Z</time>
      </trkpt>
      <trkpt lat="62.98424" lon="7.161">
        <ele>15.633344</ele>
        <time>2020-07-17T01:37:21.242Z</time>
      </trkpt>
      <trkpt lat="62.98432" lon="7.16105">
        <ele>15.573744</ele>
        <time>2020-07-17T01:37:22.562Z</time>
      </trkpt>
      <trkpt lat="62.9846" lon="7.16126">
        <ele>15.336862</ele>
        <time>2020-07-17T01:37:26.909Z</time>
      </trkpt>
      <trkpt lat="62.98469" lon="7.16135">
        <ele>15.249689</ele>
        <time>2020-07-17T01:37:28.509Z</time>
      </trkpt>
      <trkpt lat="62.98475" lon="7.16139">
        <ele>15.204825</ele>
        <time>2020-07-17T01:37:29.328Z</time>
      </trkpt>
      <trkpt lat="62.98477" lon="7.16117">
        <ele>15.120055</ele>
        <time>2020-07-17T01:37:30.874Z</time>
      </trkpt>
      <trkpt lat="62.98485" lon="7.16091">
        <ele>15.003688</ele>
        <time>2020-07-17T01:37:33.269Z</time>
      </trkpt>
      <trkpt lat="62.98501" lon="7.16082">
        <ele>14.866524</ele>
        <time>2020-07-17T01:37:35.965Z</time>
      </trkpt>
      <trkpt lat="62.98528" lon="7.16079">
        <ele>14.648643</ele>
        <time>2020-07-17T01:37:40.380Z</time>
      </trkpt>
      <trkpt lat="62.98554" lon="7.16089">
        <ele>14.431358</ele>
        <time>2020-07-17T01:37:44.784Z</time>
      </trkpt>
      <trkpt lat="62.98567" lon="7.161">
        <ele>14.311191</ele>
        <time>2020-07-17T01:37:47.301Z</time>
      </trkpt>
      <trkpt lat="62.98603" lon="7.16135">
        <ele>14.154673</ele>
        <time>2020-07-17T01:37:54.140Z</time>
      </trkpt>
      <trkpt lat="62.98635" lon="7.16178">
        <ele>14.163527</ele>
        <time>2020-07-17T01:38:00.924Z</time>
      </trkpt>
      <trkpt lat="62.98699" lon="7.16291">
        <ele>14.183009</ele>
        <time>2020-07-17T01:38:16.448Z</time>
      </trkpt>
      <trkpt lat="62.98781" lon="7.16386">
        <ele>14.360527</ele>
        <time>2020-07-17T01:38:34.869Z</time>
      </trkpt>
      <trkpt lat="62.9879" lon="7.16398">
        <ele>14.394049</ele>
        <time>2020-07-17T01:38:36.838Z</time>
      </trkpt>
      <trkpt lat="62.98799" lon="7.16408">
        <ele>14.428213</ele>
        <time>2020-07-17T01:38:38.848Z</time>
      </trkpt>
      <trkpt lat="62.98817" lon="7.16427">
        <ele>14.492845</ele>
        <time>2020-07-17T01:38:42.892Z</time>
      </trkpt>
      <trkpt lat="62.98833" lon="7.1645">
        <ele>14.554246</ele>
        <time>2020-07-17T01:38:46.515Z</time>
      </trkpt>
      <trkpt lat="62.98836" lon="7.16462">
        <ele>14.575098</ele>
        <time>2020-07-17T01:38:47.958Z</time>
      </trkpt>
      <trkpt lat="62.98857" lon="7.16532">
        <ele>14.69816</ele>
        <time>2020-07-17T01:38:55.560Z</time>
      </trkpt>
      <trkpt lat="62.9889" lon="7.16742">
        <ele>14.7725</ele>
        <time>2020-07-17T01:39:14.531Z</time>
      </trkpt>
      <trkpt lat="62.9891" lon="7.16813">
        <ele>14.770401</ele>
        <time>2020-07-17T01:39:21.507Z</time>
      </trkpt>
      <trkpt lat="62.98918" lon="7.16835">
        <ele>14.769703</ele>
        <time>2020-07-17T01:39:23.977Z</time>
      </trkpt>
      <trkpt lat="62.9892" lon="7.16842">
        <ele>14.769505</ele>
        <time>2020-07-17T01:39:24.524Z</time>
      </trkpt>
      <trkpt lat="62.98939" lon="7.16874">
        <ele>14.76821</ele>
        <time>2020-07-17T01:39:28.794Z</time>
      </trkpt>
      <trkpt lat="62.98988" lon="7.16928">
        <ele>14.816775</ele>
        <time>2020-07-17T01:39:38.886Z</time>
      </trkpt>
      <trkpt lat="62.99" lon="7.16942">
        <ele>14.839197</ele>
        <time>2020-07-17T01:39:41.263Z</time>
      </trkpt>
      <trkpt lat="62.99007" lon="7.16957">
        <ele>14.855434</ele>
        <time>2020-07-17T01:39:43.222Z</time>
      </trkpt>
      <trkpt lat="62.9904" lon="7.17062">
        <ele>14.951372</ele>
        <time>2020-07-17T01:39:53.755Z</time>
      </trkpt>
      <trkpt lat="62.99046" lon="7.17113">
        <ele>14.991424</ele>
        <time>2020-07-17T01:39:58.915Z</time>
      </trkpt>
      <trkpt lat="62.99043" lon="7.17371">
        <ele>15.503033</ele>
        <time>2020-07-17T01:40:22.587Z</time>
      </trkpt>
      <trkpt lat="62.99032" lon="7.17374">
        <ele>15.571325</ele>
        <time>2020-07-17T01:40:24.738Z</time>
      </trkpt>
      <trkpt lat="62.99026" lon="7.17376">
        <ele>15.604253</ele>
        <time>2020-07-17T01:40:26.296Z</time>
      </trkpt>
      <trkpt lat="62.9904" lon="7.17465">
        <ele>15.859534</ele>
        <time>2020-07-17T01:40:34.623Z</time>
      </trkpt>
      <trkpt lat="62.9905" lon="7.17541">
        <ele>16.077435</ele>
        <time>2020-07-17T01:40:41.826Z</time>
      </trkpt>
      <trkpt lat="62.99057" lon="7.176">
        <ele>16.329023</ele>
        <time>2020-07-17T01:40:47.291Z</time>
      </trkpt>
      <trkpt lat="62.99062" lon="7.17647">
        <ele>16.578099</ele>
        <time>2020-07-17T01:40:51.335Z</time>
      </trkpt>
      <trkpt lat="62.99069" lon="7.17722">
        <ele>16.97687</ele>
        <time>2020-07-17T01:40:58.465Z</time>
      </trkpt>
      <trkpt lat="62.99073" lon="7.17769">
        <ele>17.219105</ele>
        <time>2020-07-17T01:41:03.149Z</time>
      </trkpt>
      <trkpt lat="62.99081" lon="7.1802">
        <ele>18.526911</ele>
        <time>2020-07-17T01:41:29.333Z</time>
      </trkpt>
      <trkpt lat="62.99081" lon="7.18046">
        <ele>18.665687</ele>
        <time>2020-07-17T01:41:32.039Z</time>
      </trkpt>
      <trkpt lat="62.99081" lon="7.18081">
        <ele>18.852512</ele>
        <time>2020-07-17T01:41:36.367Z</time>
      </trkpt>
      <trkpt lat="62.99075" lon="7.18304">
        <ele>20.029861</ele>
        <time>2020-07-17T01:41:58.136Z</time>
      </trkpt>
      <trkpt lat="62.99076" lon="7.18334">
        <ele>20.187623</ele>
        <time>2020-07-17T01:42:01.068Z</time>
      </trkpt>
      <trkpt lat="62.99082" lon="7.18335">
        <ele>20.257366</ele>
        <time>2020-07-17T01:42:02.177Z</time>
      </trkpt>
      <trkpt lat="62.99086" lon="7.18343">
        <ele>20.237644</ele>
        <time>2020-07-17T01:42:03.337Z</time>
      </trkpt>
      <trkpt lat="62.99089" lon="7.18378">
        <ele>20.047324</ele>
        <time>2020-07-17T01:42:06.384Z</time>
      </trkpt>
      <trkpt lat="62.99091" lon="7.18428">
        <ele>19.770958</ele>
        <time>2020-07-17T01:42:10.510Z</time>
      </trkpt>
      <trkpt lat="62.99093" lon="7.18456">
        <ele>19.615318</ele>
        <time>2020-07-17T01:42:12.543Z</time>
      </trkpt>
      <trkpt lat="62.99127" lon="7.18647">
        <ele>18.50387</ele>
        <time>2020-07-17T01:42:26.954Z</time>
      </trkpt>
      <trkpt lat="62.99145" lon="7.18793">
        <ele>17.481118</ele>
        <time>2020-07-17T01:42:36.668Z</time>
      </trkpt>
      <trkpt lat="62.99152" lon="7.18896">
        <ele>16.661429</ele>
        <time>2020-07-17T01:42:43.778Z</time>
      </trkpt>
      <trkpt lat="62.99154" lon="7.18942">
        <ele>16.295555</ele>
        <time>2020-07-17T01:42:46.892Z</time>
      </trkpt>
      <trkpt lat="62.99156" lon="7.19049">
        <ele>15.459118</ele>
        <time>2020-07-17T01:42:54.441Z</time>
      </trkpt>
      <trkpt lat="62.99154" lon="7.191">
        <ele>15.056155</ele>
        <time>2020-07-17T01:42:58.039Z</time>
      </trkpt>
      <trkpt lat="62.99153" lon="7.19102">
        <ele>15.035783</ele>
        <time>2020-07-17T01:42:58.187Z</time>
      </trkpt>
      <trkpt lat="62.9915" lon="7.19105">
        <ele>15.009132</ele>
        <time>2020-07-17T01:42:58.795Z</time>
      </trkpt>
      <trkpt lat="62.99145" lon="7.19107">
        <ele>14.991095</ele>
        <time>2020-07-17T01:42:59.788Z</time>
      </trkpt>
      <trkpt lat="62.99147" lon="7.19174">
        <ele>14.890198</ele>
        <time>2020-07-17T01:43:04.423Z</time>
      </trkpt>
      <trkpt lat="62.99144" lon="7.19364">
        <ele>14.601773</ele>
        <time>2020-07-17T01:43:19.216Z</time>
      </trkpt>
      <trkpt lat="62.99123" lon="7.19556">
        <ele>14.634972</ele>
        <time>2020-07-17T01:43:35.835Z</time>
      </trkpt>
      <trkpt lat="62.99117" lon="7.19595">
        <ele>14.75222</ele>
        <time>2020-07-17T01:43:39.367Z</time>
      </trkpt>
      <trkpt lat="62.99112" lon="7.19619">
        <ele>14.828309</ele>
        <time>2020-07-17T01:43:41.680Z</time>
      </trkpt>
      <trkpt lat="62.99064" lon="7.19807">
        <ele>15.448531</ele>
        <time>2020-07-17T01:44:01.197Z</time>
      </trkpt>
      <trkpt lat="62.98999" lon="7.20032">
        <ele>17.105642</ele>
        <time>2020-07-17T01:44:28.282Z</time>
      </trkpt>
      <trkpt lat="62.98974" lon="7.20114">
        <ele>17.772178</ele>
        <time>2020-07-17T01:44:38.812Z</time>
      </trkpt>
      <trkpt lat="62.98947" lon="7.20224">
        <ele>18.598723</ele>
        <time>2020-07-17T01:44:52.003Z</time>
      </trkpt>
      <trkpt lat="62.98932" lon="7.20295">
        <ele>19.110278</ele>
        <time>2020-07-17T01:45:00.381Z</time>
      </trkpt>
      <trkpt lat="62.98927" lon="7.20322">
        <ele>19.302258</ele>
        <time>2020-07-17T01:45:03.569Z</time>
      </trkpt>
      <trkpt lat="62.98901" lon="7.20447">
        <ele>20.189496</ele>
        <time>2020-07-17T01:45:17.576Z</time>
      </trkpt>
      <trkpt lat="62.98893" lon="7.20488">
        <ele>20.483115</ele>
        <time>2020-07-17T01:45:22.109Z</time>
      </trkpt>
      <trkpt lat="62.98872" lon="7.20596">
        <ele>20.781099</ele>
        <time>2020-07-17T01:45:33.274Z</time>
      </trkpt>
      <trkpt lat="62.98864" lon="7.20678">
        <ele>20.751391</ele>
        <time>2020-07-17T01:45:40.610Z</time>
      </trkpt>
      <trkpt lat="62.98861" lon="7.20722">
        <ele>20.735206</ele>
        <time>2020-07-17T01:45:44.665Z</time>
      </trkpt>
      <trkpt lat="62.98854" lon="7.20809">
        <ele>20.703729</ele>
        <time>2020-07-17T01:45:51.365Z</time>
      </trkpt>
      <trkpt lat="62.98845" lon="7.2095">
        <ele>20.377077</ele>
        <time>2020-07-17T01:46:01.232Z</time>
      </trkpt>
      <trkpt lat="62.98839" lon="7.21054">
        <ele>19.387583</ele>
        <time>2020-07-17T01:46:08.326Z</time>
      </trkpt>
      <trkpt lat="62.98841" lon="7.21055">
        <ele>19.354481</ele>
        <time>2020-07-17T01:46:08.496Z</time>
      </trkpt>
      <trkpt lat="62.98871" lon="7.21063">
        <ele>18.719455</ele>
        <time>2020-07-17T01:46:13.010Z</time>
      </trkpt>
      <trkpt lat="62.98911" lon="7.21093">
        <ele>17.84917</ele>
        <time>2020-07-17T01:46:18.638Z</time>
      </trkpt>
      <trkpt lat="62.98978" lon="7.21158">
        <ele>16.448493</ele>
        <time>2020-07-17T01:46:28.600Z</time>
      </trkpt>
      <trkpt lat="62.99007" lon="7.212">
        <ele>15.868246</ele>
        <time>2020-07-17T01:46:33.484Z</time>
      </trkpt>
      <trkpt lat="62.99028" lon="7.21258">
        <ele>15.315967</ele>
        <time>2020-07-17T01:46:38.214Z</time>
      </trkpt>
      <trkpt lat="62.99049" lon="7.21344">
        <ele>14.567985</ele>
        <time>2020-07-17T01:46:44.757Z</time>
      </trkpt>
      <trkpt lat="62.99101" lon="7.21644">
        <ele>13.460687</ele>
        <time>2020-07-17T01:47:08.336Z</time>
      </trkpt>
      <trkpt lat="62.99106" lon="7.2167">
        <ele>13.402084</ele>
        <time>2020-07-17T01:47:10.646Z</time>
      </trkpt>
      <trkpt lat="62.99117" lon="7.21714">
        <ele>13.302573</ele>
        <time>2020-07-17T01:47:14.612Z</time>
      </trkpt>
      <trkpt lat="62.99156" lon="7.21867">
        <ele>12.906898</ele>
        <time>2020-07-17T01:47:28.679Z</time>
      </trkpt>
      <trkpt lat="62.99182" lon="7.2193">
        <ele>12.699869</ele>
        <time>2020-07-17T01:47:35.274Z</time>
      </trkpt>
      <trkpt lat="62.99222" lon="7.21979">
        <ele>12.452164</ele>
        <time>2020-07-17T01:47:42.791Z</time>
      </trkpt>
      <trkpt lat="62.99257" lon="7.21999">
        <ele>12.257385</ele>
        <time>2020-07-17T01:47:48.415Z</time>
      </trkpt>
      <trkpt lat="62.99267" lon="7.22002">
        <ele>12.203206</ele>
        <time>2020-07-17T01:47:49.970Z</time>
      </trkpt>
      <trkpt lat="62.99294" lon="7.2201">
        <ele>11.852478</ele>
        <time>2020-07-17T01:47:54.110Z</time>
      </trkpt>
      <trkpt lat="62.99337" lon="7.2202">
        <ele>11.218056</ele>
        <time>2020-07-17T01:48:00.707Z</time>
      </trkpt>
      <trkpt lat="62.99352" lon="7.22021">
        <ele>11.005133</ele>
        <time>2020-07-17T01:48:02.862Z</time>
      </trkpt>
      <trkpt lat="62.99364" lon="7.22022">
        <ele>10.827148</ele>
        <time>2020-07-17T01:48:04.634Z</time>
      </trkpt>
      <trkpt lat="62.99404" lon="7.22021">
        <ele>10.251473</ele>
        <time>2020-07-17T01:48:10.338Z</time>
      </trkpt>
      <trkpt lat="62.99427" lon="7.22022">
        <ele>9.910306</ele>
        <time>2020-07-17T01:48:13.704Z</time>
      </trkpt>
      <trkpt lat="62.99458" lon="7.22039">
        <ele>9.462854</ele>
        <time>2020-07-17T01:48:18.360Z</time>
      </trkpt>
      <trkpt lat="62.99493" lon="7.22093">
        <ele>8.958343</ele>
        <time>2020-07-17T01:48:24.544Z</time>
      </trkpt>
      <trkpt lat="62.99495" lon="7.22095">
        <ele>8.923211</ele>
        <time>2020-07-17T01:48:24.933Z</time>
      </trkpt>
      <trkpt lat="62.99499" lon="7.22098">
        <ele>8.876226</ele>
        <time>2020-07-17T01:48:25.524Z</time>
      </trkpt>
      <trkpt lat="62.99508" lon="7.22108">
        <ele>8.751078</ele>
        <time>2020-07-17T01:48:27.045Z</time>
      </trkpt>
      <trkpt lat="62.99554" lon="7.22151">
        <ele>8.151702</ele>
        <time>2020-07-17T01:48:34.715Z</time>
      </trkpt>
      <trkpt lat="62.99626" lon="7.2224">
        <ele>7.249339</ele>
        <time>2020-07-17T01:48:47.490Z</time>
      </trkpt>
      <trkpt lat="62.99715" lon="7.22366">
        <ele>6.426394</ele>
        <time>2020-07-17T01:49:04.656Z</time>
      </trkpt>
      <trkpt lat="62.99737" lon="7.22398">
        <ele>6.222076</ele>
        <time>2020-07-17T01:49:08.816Z</time>
      </trkpt>
      <trkpt lat="62.9975" lon="7.22421">
        <ele>6.091064</ele>
        <time>2020-07-17T01:49:11.482Z</time>
      </trkpt>
      <trkpt lat="62.99765" lon="7.2246">
        <ele>5.905704</ele>
        <time>2020-07-17T01:49:15.059Z</time>
      </trkpt>
      <trkpt lat="62.99776" lon="7.22508">
        <ele>5.700639</ele>
        <time>2020-07-17T01:49:18.894Z</time>
      </trkpt>
      <trkpt lat="62.99777" lon="7.22516">
        <ele>5.667732</ele>
        <time>2020-07-17T01:49:19.508Z</time>
      </trkpt>
      <trkpt lat="62.99784" lon="7.22554">
        <ele>5.51408</ele>
        <time>2020-07-17T01:49:22.442Z</time>
      </trkpt>
      <trkpt lat="62.99791" lon="7.22594">
        <ele>5.35141</ele>
        <time>2020-07-17T01:49:25.458Z</time>
      </trkpt>
      <trkpt lat="62.99809" lon="7.22696">
        <ele>4.938053</ele>
        <time>2020-07-17T01:49:33.286Z</time>
      </trkpt>
      <trkpt lat="62.99813" lon="7.22721">
        <ele>4.839897</ele>
        <time>2020-07-17T01:49:35.092Z</time>
      </trkpt>
      <trkpt lat="62.99821" lon="7.22828">
        <ele>4.512904</ele>
        <time>2020-07-17T01:49:42.931Z</time>
      </trkpt>
      <trkpt lat="62.99815" lon="7.2294">
        <ele>4.592388</ele>
        <time>2020-07-17T01:49:51.317Z</time>
      </trkpt>
      <trkpt lat="62.99812" lon="7.22974">
        <ele>4.617586</ele>
        <time>2020-07-17T01:49:54.075Z</time>
      </trkpt>
      <trkpt lat="62.9981" lon="7.2302">
        <ele>4.649641</ele>
        <time>2020-07-17T01:49:57.899Z</time>
      </trkpt>
      <trkpt lat="62.99815" lon="7.23114">
        <ele>4.716311</ele>
        <time>2020-07-17T01:50:06.375Z</time>
      </trkpt>
      <trkpt lat="62.99835" lon="7.23238">
        <ele>5.05984</ele>
        <time>2020-07-17T01:50:18.857Z</time>
      </trkpt>
      <trkpt lat="62.99841" lon="7.23279">
        <ele>5.342634</ele>
        <time>2020-07-17T01:50:22.983Z</time>
      </trkpt>
      <trkpt lat="62.99844" lon="7.23311">
        <ele>5.557416</ele>
        <time>2020-07-17T01:50:26.291Z</time>
      </trkpt>
      <trkpt lat="62.99848" lon="7.23347">
        <ele>5.803922</ele>
        <time>2020-07-17T01:50:30.140Z</time>
      </trkpt>
      <trkpt lat="62.99855" lon="7.23413">
        <ele>6.247904</ele>
        <time>2020-07-17T01:50:37.130Z</time>
      </trkpt>
      <trkpt lat="62.99876" lon="7.23595">
        <ele>7.486587</ele>
        <time>2020-07-17T01:50:57.108Z</time>
      </trkpt>
      <trkpt lat="62.99891" lon="7.23724">
        <ele>8.397573</ele>
        <time>2020-07-17T01:51:11.304Z</time>
      </trkpt>
      <trkpt lat="62.99901" lon="7.23791">
        <ele>8.874978</ele>
        <time>2020-07-17T01:51:18.393Z</time>
      </trkpt>
      <trkpt lat="62.99911" lon="7.23862">
        <ele>9.378616</ele>
        <time>2020-07-17T01:51:25.861Z</time>
      </trkpt>
      <trkpt lat="62.99916" lon="7.23898">
        <ele>9.638442</ele>
        <time>2020-07-17T01:51:29.782Z</time>
      </trkpt>
      <trkpt lat="62.99961" lon="7.24204">
        <ele>11.519829</ele>
        <time>2020-07-17T01:52:01.882Z</time>
      </trkpt>
      <trkpt lat="62.99981" lon="7.24338">
        <ele>12.306772</ele>
        <time>2020-07-17T01:52:15.514Z</time>
      </trkpt>
      <trkpt lat="62.99997" lon="7.24444">
        <ele>12.818299</ele>
        <time>2020-07-17T01:52:26.370Z</time>
      </trkpt>
      <trkpt lat="63.00113" lon="7.25236">
        <ele>15.961374</ele>
        <time>2020-07-17T01:53:45.594Z</time>
      </trkpt>
      <trkpt lat="63.00118" lon="7.25269">
        <ele>15.989692</ele>
        <time>2020-07-17T01:53:48.483Z</time>
      </trkpt>
      <trkpt lat="63.00127" lon="7.25331">
        <ele>16.043492</ele>
        <time>2020-07-17T01:53:53.932Z</time>
      </trkpt>
      <trkpt lat="63.00175" lon="7.2565">
        <ele>15.251868</ele>
        <time>2020-07-17T01:54:18.571Z</time>
      </trkpt>
      <trkpt lat="63.00192" lon="7.25742">
        <ele>14.78252</ele>
        <time>2020-07-17T01:54:25.390Z</time>
      </trkpt>
      <trkpt lat="63.00214" lon="7.25865">
        <ele>14.108061</ele>
        <time>2020-07-17T01:54:34.223Z</time>
      </trkpt>
      <trkpt lat="63.00305" lon="7.26359">
        <ele>10.914454</ele>
        <time>2020-07-17T01:55:10.050Z</time>
      </trkpt>
      <trkpt lat="63.00337" lon="7.26531">
        <ele>10.048479</ele>
        <time>2020-07-17T01:55:23.390Z</time>
      </trkpt>
      <trkpt lat="63.00337" lon="7.26532">
        <ele>10.043794</ele>
        <time>2020-07-17T01:55:23.450Z</time>
      </trkpt>
      <trkpt lat="63.00373" lon="7.26728">
        <ele>9.441616</ele>
        <time>2020-07-17T01:55:39.316Z</time>
      </trkpt>
      <trkpt lat="63.0038" lon="7.26764">
        <ele>9.352597</ele>
        <time>2020-07-17T01:55:42.138Z</time>
      </trkpt>
      <trkpt lat="63.00385" lon="7.26795">
        <ele>9.273498</ele>
        <time>2020-07-17T01:55:44.693Z</time>
      </trkpt>
      <trkpt lat="63.00388" lon="7.26813">
        <ele>9.228799</ele>
        <time>2020-07-17T01:55:46.127Z</time>
      </trkpt>
      <trkpt lat="63.00393" lon="7.26841">
        <ele>9.157815</ele>
        <time>2020-07-17T01:55:48.372Z</time>
      </trkpt>
      <trkpt lat="63.00418" lon="7.26981">
        <ele>8.85851</ele>
        <time>2020-07-17T01:55:59.672Z</time>
      </trkpt>
      <trkpt lat="63.00448" lon="7.27141">
        <ele>8.674306</ele>
        <time>2020-07-17T01:56:12.689Z</time>
      </trkpt>
      <trkpt lat="63.00489" lon="7.27368">
        <ele>8.635146</ele>
        <time>2020-07-17T01:56:32.207Z</time>
      </trkpt>
      <trkpt lat="63.00494" lon="7.27399">
        <ele>8.71864</ele>
        <time>2020-07-17T01:56:35.162Z</time>
      </trkpt>
      <trkpt lat="63.00549" lon="7.27812">
        <ele>10.088273</ele>
        <time>2020-07-17T01:57:14.764Z</time>
      </trkpt>
      <trkpt lat="63.00589" lon="7.28074">
        <ele>11.442774</ele>
        <time>2020-07-17T01:57:41.764Z</time>
      </trkpt>
      <trkpt lat="63.00608" lon="7.28312">
        <ele>12.929614</ele>
        <time>2020-07-17T01:58:06.409Z</time>
      </trkpt>
      <trkpt lat="63.00623" lon="7.28409">
        <ele>13.559991</ele>
        <time>2020-07-17T01:58:16.464Z</time>
      </trkpt>
      <trkpt lat="63.00628" lon="7.28439">
        <ele>13.752262</ele>
        <time>2020-07-17T01:58:19.694Z</time>
      </trkpt>
      <trkpt lat="63.00635" lon="7.2849">
        <ele>14.076379</ele>
        <time>2020-07-17T01:58:25.234Z</time>
      </trkpt>
      <trkpt lat="63.00669" lon="7.28749">
        <ele>15.707069</ele>
        <time>2020-07-17T01:58:52.806Z</time>
      </trkpt>
      <trkpt lat="63.0067" lon="7.28762">
        <ele>15.784641</ele>
        <time>2020-07-17T01:58:53.991Z</time>
      </trkpt>
      <trkpt lat="63.00671" lon="7.28777">
        <ele>15.878871</ele>
        <time>2020-07-17T01:58:55.854Z</time>
      </trkpt>
      <trkpt lat="63.00661" lon="7.289">
        <ele>16.472416</ele>
        <time>2020-07-17T01:59:07.411Z</time>
      </trkpt>
      <trkpt lat="63.00646" lon="7.28981">
        <ele>16.802532</ele>
        <time>2020-07-17T01:59:15.553Z</time>
      </trkpt>
      <trkpt lat="63.00634" lon="7.29089">
        <ele>17.22801</ele>
        <time>2020-07-17T01:59:26.279Z</time>
      </trkpt>
      <trkpt lat="63.00601" lon="7.2927">
        <ele>17.819121</ele>
        <time>2020-07-17T01:59:43.613Z</time>
      </trkpt>
      <trkpt lat="63.00598" lon="7.29344">
        <ele>17.938668</ele>
        <time>2020-07-17T01:59:50.093Z</time>
      </trkpt>
      <trkpt lat="63.00604" lon="7.29349">
        <ele>17.962098</ele>
        <time>2020-07-17T01:59:51.705Z</time>
      </trkpt>
      <trkpt lat="63.00654" lon="7.29413">
        <ele>18.168329</ele>
        <time>2020-07-17T02:00:02.800Z</time>
      </trkpt>
      <trkpt lat="63.00693" lon="7.29499">
        <ele>18.2786</ele>
        <time>2020-07-17T02:00:13.223Z</time>
      </trkpt>
      <trkpt lat="63.00715" lon="7.29583">
        <ele>17.623709</ele>
        <time>2020-07-17T02:00:20.477Z</time>
      </trkpt>
      <trkpt lat="63.0074" lon="7.29735">
        <ele>16.534512</ele>
        <time>2020-07-17T02:00:31.500Z</time>
      </trkpt>
      <trkpt lat="63.00746" lon="7.29771">
        <ele>16.274334</ele>
        <time>2020-07-17T02:00:33.990Z</time>
      </trkpt>
      <trkpt lat="63.00756" lon="7.29842">
        <ele>15.772017</ele>
        <time>2020-07-17T02:00:38.709Z</time>
      </trkpt>
      <trkpt lat="63.00825" lon="7.30299">
        <ele>7.770426</ele>
        <time>2020-07-17T02:01:06.256Z</time>
      </trkpt>
      <trkpt lat="63.00837" lon="7.3038">
        <ele>6.346384</ele>
        <time>2020-07-17T02:01:11.123Z</time>
      </trkpt>
      <trkpt lat="63.00833" lon="7.30399">
        <ele>6.003976</ele>
        <time>2020-07-17T02:01:12.393Z</time>
      </trkpt>
      <trkpt lat="63.00831" lon="7.30401">
        <ele>5.907401</ele>
        <time>2020-07-17T02:01:12.669Z</time>
      </trkpt>
      <trkpt lat="63.00834" lon="7.30423">
        <ele>5.527193</ele>
        <time>2020-07-17T02:01:14.013Z</time>
      </trkpt>
      <trkpt lat="63.0086" lon="7.30544">
        <ele>3.294711</ele>
        <time>2020-07-17T02:01:22.258Z</time>
      </trkpt>
      <trkpt lat="63.00865" lon="7.30561">
        <ele>2.964571</ele>
        <time>2020-07-17T02:01:23.437Z</time>
      </trkpt>
      <trkpt lat="63.00868" lon="7.3057">
        <ele>2.790507</ele>
        <time>2020-07-17T02:01:24.097Z</time>
      </trkpt>
      <trkpt lat="63.00896" lon="7.30651">
        <ele>1.917494</ele>
        <time>2020-07-17T02:01:30.710Z</time>
      </trkpt>
      <trkpt lat="63.00934" lon="7.30744">
        <ele>1.229181</ele>
        <time>2020-07-17T02:01:39.518Z</time>
      </trkpt>
      <trkpt lat="63.00937" lon="7.30751">
        <ele>1.176966</ele>
        <time>2020-07-17T02:01:40.218Z</time>
      </trkpt>
      <trkpt lat="63.00986" lon="7.30871">
        <ele>0.282739</ele>
        <time>2020-07-17T02:01:53.276Z</time>
      </trkpt>
      <trkpt lat="63.00999" lon="7.30904">
        <ele>0.14611</ele>
        <time>2020-07-17T02:01:56.886Z</time>
      </trkpt>
      <trkpt lat="63.01028" lon="7.30991">
        <ele>0.132912</ele>
        <time>2020-07-17T02:02:05.985Z</time>
      </trkpt>
      <trkpt lat="63.01052" lon="7.31111">
        <ele>0.117009</ele>
        <time>2020-07-17T02:02:17.049Z</time>
      </trkpt>
      <trkpt lat="63.01054" lon="7.31136">
        <ele>0.113845</ele>
        <time>2020-07-17T02:02:19.261Z</time>
      </trkpt>
      <trkpt lat="63.01057" lon="7.31168">
        <ele>0.109834</ele>
        <time>2020-07-17T02:02:22.040Z</time>
      </trkpt>
      <trkpt lat="63.01059" lon="7.31281">
        <ele>0.1</ele>
        <time>2020-07-17T02:02:31.541Z</time>
      </trkpt>
      <trkpt lat="63.01056" lon="7.31366">
        <ele>0.1</ele>
        <time>2020-07-17T02:02:38.763Z</time>
      </trkpt>
      <trkpt lat="63.01054" lon="7.31431">
        <ele>0.1</ele>
        <time>2020-07-17T02:02:44.201Z</time>
      </trkpt>
      <trkpt lat="63.01054" lon="7.3151">
        <ele>0.1</ele>
        <time>2020-07-17T02:02:50.917Z</time>
      </trkpt>
      <trkpt lat="63.01056" lon="7.31533">
        <ele>0.1</ele>
        <time>2020-07-17T02:02:52.816Z</time>
      </trkpt>
      <trkpt lat="63.01056" lon="7.31545">
        <ele>0.1</ele>
        <time>2020-07-17T02:02:53.809Z</time>
      </trkpt>
      <trkpt lat="63.01075" lon="7.3168">
        <ele>0.1</ele>
        <time>2020-07-17T02:03:05.652Z</time>
      </trkpt>
      <trkpt lat="63.01201" lon="7.32167">
        <ele>0.168136</ele>
        <time>2020-07-17T02:03:53.229Z</time>
      </trkpt>
      <trkpt lat="63.01229" lon="7.32324">
        <ele>0.224376</ele>
        <time>2020-07-17T02:04:07.807Z</time>
      </trkpt>
      <trkpt lat="63.01235" lon="7.32373">
        <ele>0.252461</ele>
        <time>2020-07-17T02:04:12.198Z</time>
      </trkpt>
      <trkpt lat="63.01245" lon="7.3246">
        <ele>0.316291</ele>
        <time>2020-07-17T02:04:20.073Z</time>
      </trkpt>
      <trkpt lat="63.01273" lon="7.32723">
        <ele>0.507854</ele>
        <time>2020-07-17T02:04:43.515Z</time>
      </trkpt>
      <trkpt lat="63.01278" lon="7.32759">
        <ele>0.509594</ele>
        <time>2020-07-17T02:04:46.729Z</time>
      </trkpt>
      <trkpt lat="63.01282" lon="7.32792">
        <ele>0.506424</ele>
        <time>2020-07-17T02:04:49.655Z</time>
      </trkpt>
      <trkpt lat="63.013" lon="7.32898">
        <ele>0.496143</ele>
        <time>2020-07-17T02:04:59.275Z</time>
      </trkpt>
      <trkpt lat="63.0134" lon="7.33081">
        <ele>0.477662</ele>
        <time>2020-07-17T02:05:16.226Z</time>
      </trkpt>
      <trkpt lat="63.01372" lon="7.33194">
        <ele>0.386287</ele>
        <time>2020-07-17T02:05:27.029Z</time>
      </trkpt>
      <trkpt lat="63.0146" lon="7.33465">
        <ele>0.159472</ele>
        <time>2020-07-17T02:05:54.338Z</time>
      </trkpt>
      <trkpt lat="63.01489" lon="7.33593">
        <ele>0.125324</ele>
        <time>2020-07-17T02:06:06.194Z</time>
      </trkpt>
      <trkpt lat="63.01506" lon="7.33729">
        <ele>0.091521</ele>
        <time>2020-07-17T02:06:18.034Z</time>
      </trkpt>
      <trkpt lat="63.0152" lon="7.34001">
        <ele>0.140896</ele>
        <time>2020-07-17T02:06:41.522Z</time>
      </trkpt>
      <trkpt lat="63.01523" lon="7.34032">
        <ele>0.150243</ele>
        <time>2020-07-17T02:06:44.244Z</time>
      </trkpt>
      <trkpt lat="63.01528" lon="7.34068">
        <ele>0.161017</ele>
        <time>2020-07-17T02:06:47.408Z</time>
      </trkpt>
      <trkpt lat="63.01535" lon="7.34111">
        <ele>0.174271</ele>
        <time>2020-07-17T02:06:51.245Z</time>
      </trkpt>
      <trkpt lat="63.01573" lon="7.3425">
        <ele>0.162625</ele>
        <time>2020-07-17T02:07:04.972Z</time>
      </trkpt>
      <trkpt lat="63.01628" lon="7.34413">
        <ele>0.098301</ele>
        <time>2020-07-17T02:07:22.005Z</time>
      </trkpt>
      <trkpt lat="63.01636" lon="7.34436">
        <ele>0.089249</ele>
        <time>2020-07-17T02:07:24.370Z</time>
      </trkpt>
      <trkpt lat="63.01642" lon="7.34454">
        <ele>0.082258</ele>
        <time>2020-07-17T02:07:26.193Z</time>
      </trkpt>
      <trkpt lat="63.01651" lon="7.34483">
        <ele>0.071154</ele>
        <time>2020-07-17T02:07:29.091Z</time>
      </trkpt>
      <trkpt lat="63.01674" lon="7.34582">
        <ele>0.061048</ele>
        <time>2020-07-17T02:07:38.317Z</time>
      </trkpt>
      <trkpt lat="63.01677" lon="7.34603">
        <ele>0.059496</ele>
        <time>2020-07-17T02:07:40.209Z</time>
      </trkpt>
      <trkpt lat="63.0168" lon="7.3463">
        <ele>0.057586</ele>
        <time>2020-07-17T02:07:42.555Z</time>
      </trkpt>
      <trkpt lat="63.01683" lon="7.34671">
        <ele>0.054754</ele>
        <time>2020-07-17T02:07:46.048Z</time>
      </trkpt>
      <trkpt lat="63.01684" lon="7.347">
        <ele>0.052785</ele>
        <time>2020-07-17T02:07:48.476Z</time>
      </trkpt>
      <trkpt lat="63.01682" lon="7.34766">
        <ele>0.048279</ele>
        <time>2020-07-17T02:07:54.089Z</time>
      </trkpt>
      <trkpt lat="63.01681" lon="7.34784">
        <ele>0.04706</ele>
        <time>2020-07-17T02:07:55.609Z</time>
      </trkpt>
      <trkpt lat="63.0168" lon="7.34799">
        <ele>0.046035</ele>
        <time>2020-07-17T02:07:56.888Z</time>
      </trkpt>
      <trkpt lat="63.01652" lon="7.35013">
        <ele>0.062889</ele>
        <time>2020-07-17T02:08:15.850Z</time>
      </trkpt>
      <trkpt lat="63.01649" lon="7.35085">
        <ele>0.073622</ele>
        <time>2020-07-17T02:08:21.938Z</time>
      </trkpt>
      <trkpt lat="63.01652" lon="7.35186">
        <ele>0.088687</ele>
        <time>2020-07-17T02:08:30.449Z</time>
      </trkpt>
      <trkpt lat="63.01655" lon="7.3522">
        <ele>0.093901</ele>
        <time>2020-07-17T02:08:33.449Z</time>
      </trkpt>
      <trkpt lat="63.01657" lon="7.35256">
        <ele>0.099228</ele>
        <time>2020-07-17T02:08:36.409Z</time>
      </trkpt>
      <trkpt lat="63.01664" lon="7.35332">
        <ele>0.102234</ele>
        <time>2020-07-17T02:08:42.938Z</time>
      </trkpt>
      <trkpt lat="63.01671" lon="7.35402">
        <ele>0.104474</ele>
        <time>2020-07-17T02:08:49.031Z</time>
      </trkpt>
      <trkpt lat="63.01675" lon="7.35431">
        <ele>0.10539</ele>
        <time>2020-07-17T02:08:51.531Z</time>
      </trkpt>
      <trkpt lat="63.01716" lon="7.3568">
        <ele>0.21189</ele>
        <time>2020-07-17T02:09:13.933Z</time>
      </trkpt>
      <trkpt lat="63.01725" lon="7.35717">
        <ele>0.309202</ele>
        <time>2020-07-17T02:09:17.591Z</time>
      </trkpt>
      <trkpt lat="63.01732" lon="7.35748">
        <ele>0.38889</ele>
        <time>2020-07-17T02:09:20.631Z</time>
      </trkpt>
      <trkpt lat="63.01759" lon="7.35859">
        <ele>0.677025</ele>
        <time>2020-07-17T02:09:31.760Z</time>
      </trkpt>
      <trkpt lat="63.01779" lon="7.35974">
        <ele>0.960922</ele>
        <time>2020-07-17T02:09:43.320Z</time>
      </trkpt>
      <trkpt lat="63.01794" lon="7.36109">
        <ele>1.793803</ele>
        <time>2020-07-17T02:09:57.950Z</time>
      </trkpt>
      <trkpt lat="63.018" lon="7.36236">
        <ele>2.682002</ele>
        <time>2020-07-17T02:10:12.414Z</time>
      </trkpt>
      <trkpt lat="63.01802" lon="7.36283">
        <ele>3.013355</ele>
        <time>2020-07-17T02:10:18.034Z</time>
      </trkpt>
      <trkpt lat="63.01805" lon="7.36325">
        <ele>3.307924</ele>
        <time>2020-07-17T02:10:22.878Z</time>
      </trkpt>
      <trkpt lat="63.01809" lon="7.36381">
        <ele>3.704464</ele>
        <time>2020-07-17T02:10:28.841Z</time>
      </trkpt>
      <trkpt lat="63.01811" lon="7.36401">
        <ele>3.770729</ele>
        <time>2020-07-17T02:10:30.618Z</time>
      </trkpt>
      <trkpt lat="63.01816" lon="7.36443">
        <ele>3.730118</ele>
        <time>2020-07-17T02:10:35.033Z</time>
      </trkpt>
      <trkpt lat="63.0183" lon="7.36535">
        <ele>3.638326</ele>
        <time>2020-07-17T02:10:43.515Z</time>
      </trkpt>
      <trkpt lat="63.01854" lon="7.36653">
        <ele>3.515311</ele>
        <time>2020-07-17T02:10:54.293Z</time>
      </trkpt>
      <trkpt lat="63.01859" lon="7.3667">
        <ele>3.496935</ele>
        <time>2020-07-17T02:10:55.783Z</time>
      </trkpt>
      <trkpt lat="63.01867" lon="7.36701">
        <ele>3.462837</ele>
        <time>2020-07-17T02:10:58.200Z</time>
      </trkpt>
      <trkpt lat="63.01899" lon="7.36801">
        <ele>2.990555</ele>
        <time>2020-07-17T02:11:06.864Z</time>
      </trkpt>
      <trkpt lat="63.01977" lon="7.36991">
        <ele>1.250934</ele>
        <time>2020-07-17T02:11:24.072Z</time>
      </trkpt>
      <trkpt lat="63.01984" lon="7.37012">
        <ele>1.073858</ele>
        <time>2020-07-17T02:11:26.039Z</time>
      </trkpt>
      <trkpt lat="63.0199" lon="7.37029">
        <ele>0.927884</ele>
        <time>2020-07-17T02:11:27.662Z</time>
      </trkpt>
      <trkpt lat="63.02" lon="7.37062">
        <ele>0.699276</ele>
        <time>2020-07-17T02:11:30.775Z</time>
      </trkpt>
      <trkpt lat="63.02009" lon="7.37091">
        <ele>0.655368</ele>
        <time>2020-07-17T02:11:33.408Z</time>
      </trkpt>
      <trkpt lat="63.0203" lon="7.37163">
        <ele>0.544389</ele>
        <time>2020-07-17T02:11:40.204Z</time>
      </trkpt>
      <trkpt lat="63.02033" lon="7.37173">
        <ele>0.530303</ele>
        <time>2020-07-17T02:11:41.098Z</time>
      </trkpt>
      <trkpt lat="63.02058" lon="7.37245">
        <ele>0.413472</ele>
        <time>2020-07-17T02:11:48.518Z</time>
      </trkpt>
      <trkpt lat="63.02062" lon="7.37257">
        <ele>0.393382</ele>
        <time>2020-07-17T02:11:49.833Z</time>
      </trkpt>
      <trkpt lat="63.02077" lon="7.37292">
        <ele>0.332542</ele>
        <time>2020-07-17T02:11:53.845Z</time>
      </trkpt>
      <trkpt lat="63.02173" lon="7.3747">
        <ele>0.147361</ele>
        <time>2020-07-17T02:12:17.170Z</time>
      </trkpt>
      <trkpt lat="63.02202" lon="7.37557">
        <ele>0.114332</ele>
        <time>2020-07-17T02:12:26.141Z</time>
      </trkpt>
      <trkpt lat="63.0221" lon="7.37597">
        <ele>0.100943</ele>
        <time>2020-07-17T02:12:29.730Z</time>
      </trkpt>
      <trkpt lat="63.02213" lon="7.37617">
        <ele>0.094462</ele>
        <time>2020-07-17T02:12:31.502Z</time>
      </trkpt>
      <trkpt lat="63.02219" lon="7.37664">
        <ele>0.079446</ele>
        <time>2020-07-17T02:12:35.562Z</time>
      </trkpt>
      <trkpt lat="63.02221" lon="7.37684">
        <ele>0.075297</ele>
        <time>2020-07-17T02:12:37.242Z</time>
      </trkpt>
      <trkpt lat="63.02222" lon="7.37704">
        <ele>0.071246</ele>
        <time>2020-07-17T02:12:38.946Z</time>
      </trkpt>
      <trkpt lat="63.02222" lon="7.37791">
        <ele>0.053846</ele>
        <time>2020-07-17T02:12:46.208Z</time>
      </trkpt>
      <trkpt lat="63.02215" lon="7.37875">
        <ele>0.036777</ele>
        <time>2020-07-17T02:12:53.342Z</time>
      </trkpt>
      <trkpt lat="63.02201" lon="7.37955">
        <ele>0.019658</ele>
        <time>2020-07-17T02:13:00.536Z</time>
      </trkpt>
      <trkpt lat="63.02175" lon="7.38039">
        <ele>0.000356</ele>
        <time>2020-07-17T02:13:09.105Z</time>
      </trkpt>
      <trkpt lat="63.02167" lon="7.38061">
        <ele>0.003625</ele>
        <time>2020-07-17T02:13:11.463Z</time>
      </trkpt>
      <trkpt lat="63.02159" lon="7.38084">
        <ele>0.007058</ele>
        <time>2020-07-17T02:13:13.952Z</time>
      </trkpt>
      <trkpt lat="63.02151" lon="7.38102">
        <ele>0.009867</ele>
        <time>2020-07-17T02:13:15.975Z</time>
      </trkpt>
      <trkpt lat="63.02129" lon="7.38159">
        <ele>0.018649</ele>
        <time>2020-07-17T02:13:22.333Z</time>
      </trkpt>
      <trkpt lat="63.02111" lon="7.38208">
        <ele>0.026039</ele>
        <time>2020-07-17T02:13:27.680Z</time>
      </trkpt>
      <trkpt lat="63.02072" lon="7.38309">
        <ele>0.041571</ele>
        <time>2020-07-17T02:13:38.947Z</time>
      </trkpt>
      <trkpt lat="63.02039" lon="7.38393">
        <ele>0.14018</ele>
        <time>2020-07-17T02:13:48.415Z</time>
      </trkpt>
      <trkpt lat="63.02026" lon="7.38428">
        <ele>0.199915</ele>
        <time>2020-07-17T02:13:52.276Z</time>
      </trkpt>
      <trkpt lat="63.02011" lon="7.38467">
        <ele>0.268529</ele>
        <time>2020-07-17T02:13:56.721Z</time>
      </trkpt>
      <trkpt lat="63.02003" lon="7.38486">
        <ele>0.302336</ele>
        <time>2020-07-17T02:13:58.911Z</time>
      </trkpt>
      <trkpt lat="63.01776" lon="7.39078">
        <ele>1.871683</ele>
        <time>2020-07-17T02:15:09.848Z</time>
      </trkpt>
      <trkpt lat="63.0175" lon="7.39146">
        <ele>2.064317</ele>
        <time>2020-07-17T02:15:18.436Z</time>
      </trkpt>
      <trkpt lat="63.01732" lon="7.39195">
        <ele>2.20068</ele>
        <time>2020-07-17T02:15:24.565Z</time>
      </trkpt>
      <trkpt lat="63.01604" lon="7.39631">
        <ele>2.189524</ele>
        <time>2020-07-17T02:16:08.557Z</time>
      </trkpt>
      <trkpt lat="63.01573" lon="7.39703">
        <ele>1.848373</ele>
        <time>2020-07-17T02:16:15.811Z</time>
      </trkpt>
      <trkpt lat="63.01535" lon="7.39768">
        <ele>1.479951</ele>
        <time>2020-07-17T02:16:23.668Z</time>
      </trkpt>
      <trkpt lat="63.01531" lon="7.39773">
        <ele>1.444478</ele>
        <time>2020-07-17T02:16:24.306Z</time>
      </trkpt>
      <trkpt lat="63.01474" lon="7.39846">
        <ele>0.983136</ele>
        <time>2020-07-17T02:16:35.268Z</time>
      </trkpt>
      <trkpt lat="63.01464" lon="7.39861">
        <ele>0.953367</ele>
        <time>2020-07-17T02:16:37.180Z</time>
      </trkpt>
      <trkpt lat="63.01441" lon="7.39898">
        <ele>0.885462</ele>
        <time>2020-07-17T02:16:41.926Z</time>
      </trkpt>
      <trkpt lat="63.01435" lon="7.39913">
        <ele>0.863316</ele>
        <time>2020-07-17T02:16:43.463Z</time>
      </trkpt>
      <trkpt lat="63.01429" lon="7.39925">
        <ele>0.844343</ele>
        <time>2020-07-17T02:16:44.901Z</time>
      </trkpt>
      <trkpt lat="63.01418" lon="7.39958">
        <ele>0.798715</ele>
        <time>2020-07-17T02:16:48.201Z</time>
      </trkpt>
      <trkpt lat="63.01409" lon="7.39986">
        <ele>0.762303</ele>
        <time>2020-07-17T02:16:50.844Z</time>
      </trkpt>
      <trkpt lat="63.01405" lon="7.40002">
        <ele>0.741698</ele>
        <time>2020-07-17T02:16:52.588Z</time>
      </trkpt>
      <trkpt lat="63.01388" lon="7.40097">
        <ele>0.630137</ele>
        <time>2020-07-17T02:17:01.372Z</time>
      </trkpt>
      <trkpt lat="63.01384" lon="7.40212">
        <ele>0.608532</ele>
        <time>2020-07-17T02:17:11.468Z</time>
      </trkpt>
      <trkpt lat="63.01385" lon="7.40237">
        <ele>0.625589</ele>
        <time>2020-07-17T02:17:13.851Z</time>
      </trkpt>
      <trkpt lat="63.01386" lon="7.4026">
        <ele>0.641424</ele>
        <time>2020-07-17T02:17:15.854Z</time>
      </trkpt>
      <trkpt lat="63.01407" lon="7.40473">
        <ele>0.790337</ele>
        <time>2020-07-17T02:17:34.953Z</time>
      </trkpt>
      <trkpt lat="63.01401" lon="7.40679">
        <ele>0.729052</ele>
        <time>2020-07-17T02:17:52.091Z</time>
      </trkpt>
      <trkpt lat="63.014" lon="7.40728">
        <ele>0.689447</ele>
        <time>2020-07-17T02:17:56.093Z</time>
      </trkpt>
      <trkpt lat="63.014" lon="7.40776">
        <ele>0.650377</ele>
        <time>2020-07-17T02:17:59.983Z</time>
      </trkpt>
      <trkpt lat="63.01409" lon="7.41037">
        <ele>0.428057</ele>
        <time>2020-07-17T02:18:21.203Z</time>
      </trkpt>
      <trkpt lat="63.01406" lon="7.41156">
        <ele>0.318913</ele>
        <time>2020-07-17T02:18:30.866Z</time>
      </trkpt>
      <trkpt lat="63.01405" lon="7.41181">
        <ele>0.295464</ele>
        <time>2020-07-17T02:18:32.980Z</time>
      </trkpt>
      <trkpt lat="63.014" lon="7.41227">
        <ele>0.253368</ele>
        <time>2020-07-17T02:18:36.740Z</time>
      </trkpt>
      <trkpt lat="63.01385" lon="7.41339">
        <ele>0.161677</ele>
        <time>2020-07-17T02:18:46.398Z</time>
      </trkpt>
      <trkpt lat="63.0138" lon="7.41367">
        <ele>0.183705</ele>
        <time>2020-07-17T02:18:48.902Z</time>
      </trkpt>
      <trkpt lat="63.01356" lon="7.41491">
        <ele>0.280782</ele>
        <time>2020-07-17T02:19:00.170Z</time>
      </trkpt>
      <trkpt lat="63.01347" lon="7.41539">
        <ele>0.318828</ele>
        <time>2020-07-17T02:19:04.698Z</time>
      </trkpt>
      <trkpt lat="63.01305" lon="7.41756">
        <ele>0.705714</ele>
        <time>2020-07-17T02:19:25.852Z</time>
      </trkpt>
      <trkpt lat="63.01296" lon="7.41807">
        <ele>0.926032</ele>
        <time>2020-07-17T02:19:31.018Z</time>
      </trkpt>
      <trkpt lat="63.01229" lon="7.42156">
        <ele>2.768466</ele>
        <time>2020-07-17T02:20:08.798Z</time>
      </trkpt>
      <trkpt lat="63.01226" lon="7.42172">
        <ele>2.892629</ele>
        <time>2020-07-17T02:20:10.745Z</time>
      </trkpt>
      <trkpt lat="63.01175" lon="7.42439">
        <ele>4.996731</ele>
        <time>2020-07-17T02:20:42.165Z</time>
      </trkpt>
      <trkpt lat="63.0117" lon="7.42465">
        <ele>5.288869</ele>
        <time>2020-07-17T02:20:45.654Z</time>
      </trkpt>
      <trkpt lat="63.01144" lon="7.42571">
        <ele>6.538154</ele>
        <time>2020-07-17T02:20:59.555Z</time>
      </trkpt>
      <trkpt lat="63.01137" lon="7.42595">
        <ele>6.847782</ele>
        <time>2020-07-17T02:21:03.276Z</time>
      </trkpt>
      <trkpt lat="63.01132" lon="7.42611">
        <ele>7.046962</ele>
        <time>2020-07-17T02:21:05.578Z</time>
      </trkpt>
      <trkpt lat="63.01118" lon="7.42648">
        <ele>7.542799</ele>
        <time>2020-07-17T02:21:11.071Z</time>
      </trkpt>
      <trkpt lat="63.01065" lon="7.42777">
        <ele>9.290188</ele>
        <time>2020-07-17T02:21:32.162Z</time>
      </trkpt>
      <trkpt lat="63.0101" lon="7.4291">
        <ele>10.805747</ele>
        <time>2020-07-17T02:21:53.677Z</time>
      </trkpt>
      <trkpt lat="63.0097" lon="7.43007">
        <ele>11.915912</ele>
        <time>2020-07-17T02:22:07.871Z</time>
      </trkpt>
      <trkpt lat="63.00937" lon="7.43087">
        <ele>12.361588</ele>
        <time>2020-07-17T02:22:17.807Z</time>
      </trkpt>
      <trkpt lat="63.00929" lon="7.43097">
        <ele>12.374656</ele>
        <time>2020-07-17T02:22:19.722Z</time>
      </trkpt>
      <trkpt lat="63.00925" lon="7.43103">
        <ele>12.380687</ele>
        <time>2020-07-17T02:22:20.582Z</time>
      </trkpt>
      <trkpt lat="63.00915" lon="7.43112">
        <ele>12.396048</ele>
        <time>2020-07-17T02:22:22.850Z</time>
      </trkpt>
      <trkpt lat="63.00917" lon="7.43118">
        <ele>12.400593</ele>
        <time>2020-07-17T02:22:23.320Z</time>
      </trkpt>
      <trkpt lat="63.00919" lon="7.43126">
        <ele>12.406604</ele>
        <time>2020-07-17T02:22:24.036Z</time>
      </trkpt>
      <trkpt lat="63.00925" lon="7.43143">
        <ele>12.419984</ele>
        <time>2020-07-17T02:22:25.902Z</time>
      </trkpt>
      <trkpt lat="63.00926" lon="7.43135">
        <ele>12.425497</ele>
        <time>2020-07-17T02:22:26.649Z</time>
      </trkpt>
      <trkpt lat="63.0093" lon="7.43118">
        <ele>12.436868</ele>
        <time>2020-07-17T02:22:28.230Z</time>
      </trkpt>
      <trkpt lat="63.00933" lon="7.43104">
        <ele>12.446741</ele>
        <time>2020-07-17T02:22:29.542Z</time>
      </trkpt>
      <trkpt lat="63.00935" lon="7.43109">
        <ele>12.450745</ele>
        <time>2020-07-17T02:22:30.067Z</time>
      </trkpt>
      <trkpt lat="63.00939" lon="7.43118">
        <ele>12.458242</ele>
        <time>2020-07-17T02:22:31.270Z</time>
      </trkpt>
      <trkpt lat="63.00937" lon="7.43153">
        <ele>12.479874</ele>
        <time>2020-07-17T02:22:34.933Z</time>
      </trkpt>
      <trkpt lat="63.00958" lon="7.43223">
        <ele>12.53235</ele>
        <time>2020-07-17T02:22:43.867Z</time>
      </trkpt>
      <trkpt lat="63.01012" lon="7.43388">
        <ele>13.182339</ele>
        <time>2020-07-17T02:23:05.133Z</time>
      </trkpt>
      <trkpt lat="63.01019" lon="7.43409">
        <ele>13.291877</ele>
        <time>2020-07-17T02:23:07.885Z</time>
      </trkpt>
      <trkpt lat="63.01023" lon="7.43423">
        <ele>13.36755</ele>
        <time>2020-07-17T02:23:10.177Z</time>
      </trkpt>
      <trkpt lat="63.01132" lon="7.43762">
        <ele>15.886217</ele>
        <time>2020-07-17T02:24:04.989Z</time>
      </trkpt>
      <trkpt lat="63.01157" lon="7.43841">
        <ele>16.646559</ele>
        <time>2020-07-17T02:24:18.159Z</time>
      </trkpt>
      <trkpt lat="63.01179" lon="7.43909">
        <ele>17.302654</ele>
        <time>2020-07-17T02:24:29.240Z</time>
      </trkpt>
      <trkpt lat="63.01192" lon="7.4395">
        <ele>17.556847</ele>
        <time>2020-07-17T02:24:35.926Z</time>
      </trkpt>
      <trkpt lat="63.01353" lon="7.44452">
        <ele>19.084468</ele>
        <time>2020-07-17T02:25:47.245Z</time>
      </trkpt>
      <trkpt lat="63.0135" lon="7.44454">
        <ele>19.088859</ele>
        <time>2020-07-17T02:25:47.940Z</time>
      </trkpt>
      <trkpt lat="63.01346" lon="7.44458">
        <ele>19.093006</ele>
        <time>2020-07-17T02:25:48.628Z</time>
      </trkpt>
      <trkpt lat="63.01376" lon="7.44549">
        <ele>19.150688</ele>
        <time>2020-07-17T02:25:57.693Z</time>
      </trkpt>
      <trkpt lat="63.01452" lon="7.44787">
        <ele>16.721272</ele>
        <time>2020-07-17T02:26:17.571Z</time>
      </trkpt>
      <trkpt lat="63.01471" lon="7.44846">
        <ele>16.092928</ele>
        <time>2020-07-17T02:26:22.148Z</time>
      </trkpt>
      <trkpt lat="63.01491" lon="7.44907">
        <ele>15.554156</ele>
        <time>2020-07-17T02:26:26.861Z</time>
      </trkpt>
      <trkpt lat="63.01498" lon="7.4493">
        <ele>15.42216</ele>
        <time>2020-07-17T02:26:28.628Z</time>
      </trkpt>
      <trkpt lat="63.0152" lon="7.45018">
        <ele>14.941969</ele>
        <time>2020-07-17T02:26:35.343Z</time>
      </trkpt>
      <trkpt lat="63.01522" lon="7.45028">
        <ele>14.889551</ele>
        <time>2020-07-17T02:26:36.051Z</time>
      </trkpt>
      <trkpt lat="63.01526" lon="7.45058">
        <ele>14.740288</ele>
        <time>2020-07-17T02:26:38.177Z</time>
      </trkpt>
      <trkpt lat="63.01534" lon="7.45156">
        <ele>14.268183</ele>
        <time>2020-07-17T02:26:45.779Z</time>
      </trkpt>
      <trkpt lat="63.01534" lon="7.45165">
        <ele>14.225018</ele>
        <time>2020-07-17T02:26:46.475Z</time>
      </trkpt>
      <trkpt lat="63.01535" lon="7.45182">
        <ele>14.141723</ele>
        <time>2020-07-17T02:26:48.102Z</time>
      </trkpt>
      <trkpt lat="63.0154" lon="7.45296">
        <ele>14.258976</ele>
        <time>2020-07-17T02:26:59.201Z</time>
      </trkpt>
      <trkpt lat="63.01541" lon="7.45338">
        <ele>14.696934</ele>
        <time>2020-07-17T02:27:03.947Z</time>
      </trkpt>
      <trkpt lat="63.01545" lon="7.45408">
        <ele>15.432973</ele>
        <time>2020-07-17T02:27:11.829Z</time>
      </trkpt>
      <trkpt lat="63.01549" lon="7.45517">
        <ele>16.571726</ele>
        <time>2020-07-17T02:27:25.639Z</time>
      </trkpt>
      <trkpt lat="63.01554" lon="7.45513">
        <ele>16.685129</ele>
        <time>2020-07-17T02:27:27.149Z</time>
      </trkpt>
      <trkpt lat="63.01557" lon="7.4551">
        <ele>16.752925</ele>
        <time>2020-07-17T02:27:28.051Z</time>
      </trkpt>
      <trkpt lat="63.01575" lon="7.45886">
        <ele>21.973403</ele>
        <time>2020-07-17T02:28:25.813Z</time>
      </trkpt>
      <trkpt lat="63.01612" lon="7.4679">
        <ele>36.825479</ele>
        <time>2020-07-17T02:30:52.468Z</time>
      </trkpt>
      <trkpt lat="63.01613" lon="7.46876">
        <ele>37.559071</ele>
        <time>2020-07-17T02:31:04.305Z</time>
      </trkpt>
      <trkpt lat="63.01609" lon="7.46876">
        <ele>37.62642</ele>
        <time>2020-07-17T02:31:05.373Z</time>
      </trkpt>
      <trkpt lat="63.01606" lon="7.46875">
        <ele>37.664492</ele>
        <time>2020-07-17T02:31:05.961Z</time>
      </trkpt>
      <trkpt lat="63.01606" lon="7.4697">
        <ele>38.28887</ele>
        <time>2020-07-17T02:31:16.004Z</time>
      </trkpt>
      <trkpt lat="63.01602" lon="7.471">
        <ele>39.154374</ele>
        <time>2020-07-17T02:31:28.789Z</time>
      </trkpt>
      <trkpt lat="63.01602" lon="7.47119">
        <ele>39.279424</ele>
        <time>2020-07-17T02:31:30.510Z</time>
      </trkpt>
      <trkpt lat="63.01573" lon="7.48179">
        <ele>43.684309</ele>
        <time>2020-07-17T02:33:11.713Z</time>
      </trkpt>
      <trkpt lat="63.01576" lon="7.48317">
        <ele>44.550589</ele>
        <time>2020-07-17T02:33:27.151Z</time>
      </trkpt>
      <trkpt lat="63.01589" lon="7.48454">
        <ele>45.76504</ele>
        <time>2020-07-17T02:33:43.390Z</time>
      </trkpt>
      <trkpt lat="63.01612" lon="7.48579">
        <ele>47.163535</ele>
        <time>2020-07-17T02:33:59.449Z</time>
      </trkpt>
      <trkpt lat="63.01636" lon="7.48669">
        <ele>48.245629</ele>
        <time>2020-07-17T02:34:12.034Z</time>
      </trkpt>
      <trkpt lat="63.01692" lon="7.48827">
        <ele>50.169535</ele>
        <time>2020-07-17T02:34:35.417Z</time>
      </trkpt>
      <trkpt lat="63.017" lon="7.48848">
        <ele>50.418734</ele>
        <time>2020-07-17T02:34:38.667Z</time>
      </trkpt>
      <trkpt lat="63.01756" lon="7.49002">
        <ele>52.218058</ele>
        <time>2020-07-17T02:35:00.708Z</time>
      </trkpt>
      <trkpt lat="63.01812" lon="7.49161">
        <ele>53.564391</ele>
        <time>2020-07-17T02:35:22.793Z</time>
      </trkpt>
      <trkpt lat="63.01848" lon="7.49289">
        <ele>54.463043</ele>
        <time>2020-07-17T02:35:38.431Z</time>
      </trkpt>
      <trkpt lat="63.02016" lon="7.50054">
        <ele>56.449373</ele>
        <time>2020-07-17T02:36:57.547Z</time>
      </trkpt>
      <trkpt lat="63.02029" lon="7.50202">
        <ele>54.965238</ele>
        <time>2020-07-17T02:37:08.150Z</time>
      </trkpt>
      <trkpt lat="63.02047" lon="7.50871">
        <ele>44.840642</ele>
        <time>2020-07-17T02:37:48.819Z</time>
      </trkpt>
      <trkpt lat="63.02049" lon="7.50929">
        <ele>44.140783</ele>
        <time>2020-07-17T02:37:52.382Z</time>
      </trkpt>
      <trkpt lat="63.02049" lon="7.5096">
        <ele>43.790706</ele>
        <time>2020-07-17T02:37:54.265Z</time>
      </trkpt>
      <trkpt lat="63.02053" lon="7.51083">
        <ele>42.375188</ele>
        <time>2020-07-17T02:38:02.047Z</time>
      </trkpt>
      <trkpt lat="63.02057" lon="7.51261">
        <ele>40.329867</ele>
        <time>2020-07-17T02:38:13.993Z</time>
      </trkpt>
      <trkpt lat="63.0206" lon="7.5135">
        <ele>40.044867</ele>
        <time>2020-07-17T02:38:20.873Z</time>
      </trkpt>
      <trkpt lat="63.02064" lon="7.51486">
        <ele>39.743013</ele>
        <time>2020-07-17T02:38:31.831Z</time>
      </trkpt>
      <trkpt lat="63.02069" lon="7.51639">
        <ele>39.403625</ele>
        <time>2020-07-17T02:38:44.625Z</time>
      </trkpt>
      <trkpt lat="63.02069" lon="7.51652">
        <ele>39.376167</ele>
        <time>2020-07-17T02:38:45.591Z</time>
      </trkpt>
      <trkpt lat="63.02074" lon="7.51933">
        <ele>39.009433</ele>
        <time>2020-07-17T02:39:06.836Z</time>
      </trkpt>
      <trkpt lat="63.02073" lon="7.51948">
        <ele>38.990404</ele>
        <time>2020-07-17T02:39:08.029Z</time>
      </trkpt>
      <trkpt lat="63.02071" lon="7.51992">
        <ele>38.935283</ele>
        <time>2020-07-17T02:39:11.381Z</time>
      </trkpt>
      <trkpt lat="63.02069" lon="7.52016">
        <ele>38.904583</ele>
        <time>2020-07-17T02:39:13.296Z</time>
      </trkpt>
      <trkpt lat="63.02066" lon="7.52067">
        <ele>38.873516</ele>
        <time>2020-07-17T02:39:17.423Z</time>
      </trkpt>
      <trkpt lat="63.02062" lon="7.52099">
        <ele>39.018925</ele>
        <time>2020-07-17T02:39:20.042Z</time>
      </trkpt>
      <trkpt lat="63.02055" lon="7.52166">
        <ele>39.330481</ele>
        <time>2020-07-17T02:39:25.704Z</time>
      </trkpt>
      <trkpt lat="63.02052" lon="7.52188">
        <ele>39.436562</ele>
        <time>2020-07-17T02:39:27.732Z</time>
      </trkpt>
      <trkpt lat="63.02002" lon="7.52464">
        <ele>41.015956</ele>
        <time>2020-07-17T02:39:57.067Z</time>
      </trkpt>
      <trkpt lat="63.01958" lon="7.52677">
        <ele>43.936939</ele>
        <time>2020-07-17T02:40:26.912Z</time>
      </trkpt>
      <trkpt lat="63.01952" lon="7.52702">
        <ele>44.293279</ele>
        <time>2020-07-17T02:40:30.650Z</time>
      </trkpt>
      <trkpt lat="63.01943" lon="7.52729">
        <ele>44.704219</ele>
        <time>2020-07-17T02:40:35.141Z</time>
      </trkpt>
      <trkpt lat="63.01906" lon="7.52812">
        <ele>45.668218</ele>
        <time>2020-07-17T02:40:49.557Z</time>
      </trkpt>
      <trkpt lat="63.01834" lon="7.5292">
        <ele>46.063318</ele>
        <time>2020-07-17T02:41:09.553Z</time>
      </trkpt>
      <trkpt lat="63.01768" lon="7.53016">
        <ele>46.280607</ele>
        <time>2020-07-17T02:41:20.927Z</time>
      </trkpt>
      <trkpt lat="63.01743" lon="7.53056">
        <ele>45.872611</ele>
        <time>2020-07-17T02:41:25.004Z</time>
      </trkpt>
      <trkpt lat="63.0171" lon="7.5312">
        <ele>45.279296</ele>
        <time>2020-07-17T02:41:31.247Z</time>
      </trkpt>
      <trkpt lat="63.01684" lon="7.53183">
        <ele>44.754922</ele>
        <time>2020-07-17T02:41:36.718Z</time>
      </trkpt>
      <trkpt lat="63.01636" lon="7.53302">
        <ele>44.42096</ele>
        <time>2020-07-17T02:41:47.912Z</time>
      </trkpt>
      <trkpt lat="63.01631" lon="7.53313">
        <ele>44.646096</ele>
        <time>2020-07-17T02:41:49.953Z</time>
      </trkpt>
      <trkpt lat="63.01572" lon="7.5346">
        <ele>47.646102</ele>
        <time>2020-07-17T02:42:14.129Z</time>
      </trkpt>
      <trkpt lat="63.0155" lon="7.53517">
        <ele>48.794568</ele>
        <time>2020-07-17T02:42:26.112Z</time>
      </trkpt>
      <trkpt lat="63.01484" lon="7.53685">
        <ele>53.526</ele>
        <time>2020-07-17T02:43:05.637Z</time>
      </trkpt>
      <trkpt lat="63.01454" lon="7.5376">
        <ele>55.984577</ele>
        <time>2020-07-17T02:43:23.186Z</time>
      </trkpt>
      <trkpt lat="63.01436" lon="7.53807">
        <ele>57.490022</ele>
        <time>2020-07-17T02:43:33.421Z</time>
      </trkpt>
      <trkpt lat="63.01431" lon="7.53819">
        <ele>57.904901</ele>
        <time>2020-07-17T02:43:36.078Z</time>
      </trkpt>
      <trkpt lat="63.01413" lon="7.53871">
        <ele>59.502769</ele>
        <time>2020-07-17T02:43:46.224Z</time>
      </trkpt>
      <trkpt lat="63.01359" lon="7.54074">
        <ele>59.748813</ele>
        <time>2020-07-17T02:44:12.904Z</time>
      </trkpt>
      <trkpt lat="63.01346" lon="7.54138">
        <ele>59.735627</ele>
        <time>2020-07-17T02:44:17.736Z</time>
      </trkpt>
      <trkpt lat="63.01323" lon="7.5426">
        <ele>59.081758</ele>
        <time>2020-07-17T02:44:25.639Z</time>
      </trkpt>
      <trkpt lat="63.01305" lon="7.54354">
        <ele>56.881309</ele>
        <time>2020-07-17T02:44:31.537Z</time>
      </trkpt>
      <trkpt lat="63.01274" lon="7.54515">
        <ele>53.149101</ele>
        <time>2020-07-17T02:44:41.461Z</time>
      </trkpt>
      <trkpt lat="63.01263" lon="7.54569">
        <ele>51.869361</ele>
        <time>2020-07-17T02:44:44.942Z</time>
      </trkpt>
      <trkpt lat="63.01253" lon="7.54624">
        <ele>50.851617</ele>
        <time>2020-07-17T02:44:48.425Z</time>
      </trkpt>
      <trkpt lat="63.01246" lon="7.54662">
        <ele>50.320987</ele>
        <time>2020-07-17T02:44:50.954Z</time>
      </trkpt>
      <trkpt lat="63.01237" lon="7.54711">
        <ele>49.646467</ele>
        <time>2020-07-17T02:44:54.246Z</time>
      </trkpt>
      <trkpt lat="63.01218" lon="7.54823">
        <ele>48.121772</ele>
        <time>2020-07-17T02:45:02.031Z</time>
      </trkpt>
      <trkpt lat="63.01189" lon="7.54996">
        <ele>45.833373</ele>
        <time>2020-07-17T02:45:14.418Z</time>
      </trkpt>
      <trkpt lat="63.01181" lon="7.55047">
        <ele>45.292552</ele>
        <time>2020-07-17T02:45:17.942Z</time>
      </trkpt>
      <trkpt lat="63.01178" lon="7.55067">
        <ele>45.069535</ele>
        <time>2020-07-17T02:45:19.382Z</time>
      </trkpt>
      <trkpt lat="63.01166" lon="7.55151">
        <ele>44.176749</ele>
        <time>2020-07-17T02:45:25.138Z</time>
      </trkpt>
      <trkpt lat="63.01161" lon="7.55187">
        <ele>43.794368</ele>
        <time>2020-07-17T02:45:27.598Z</time>
      </trkpt>
      <trkpt lat="63.01153" lon="7.55245">
        <ele>43.179011</ele>
        <time>2020-07-17T02:45:31.571Z</time>
      </trkpt>
      <trkpt lat="63.01145" lon="7.55306">
        <ele>42.535174</ele>
        <time>2020-07-17T02:45:35.729Z</time>
      </trkpt>
      <trkpt lat="63.01137" lon="7.55372">
        <ele>41.973017</ele>
        <time>2020-07-17T02:45:40.270Z</time>
      </trkpt>
      <trkpt lat="63.01126" lon="7.55448">
        <ele>41.565003</ele>
        <time>2020-07-17T02:45:45.585Z</time>
      </trkpt>
      <trkpt lat="63.01121" lon="7.55484">
        <ele>41.369458</ele>
        <time>2020-07-17T02:45:48.200Z</time>
      </trkpt>
      <trkpt lat="63.01104" lon="7.55566">
        <ele>40.908777</ele>
        <time>2020-07-17T02:45:54.697Z</time>
      </trkpt>
      <trkpt lat="63.01077" lon="7.5566">
        <ele>40.343415</ele>
        <time>2020-07-17T02:46:03.405Z</time>
      </trkpt>
      <trkpt lat="63.01043" lon="7.55768">
        <ele>39.796475</ele>
        <time>2020-07-17T02:46:14.534Z</time>
      </trkpt>
      <trkpt lat="63.01034" lon="7.55801">
        <ele>39.658046</ele>
        <time>2020-07-17T02:46:17.896Z</time>
      </trkpt>
      <trkpt lat="63.01002" lon="7.55901">
        <ele>39.22537</ele>
        <time>2020-07-17T02:46:28.509Z</time>
      </trkpt>
      <trkpt lat="63.00962" lon="7.5603">
        <ele>38.641212</ele>
        <time>2020-07-17T02:46:39.465Z</time>
      </trkpt>
      <trkpt lat="63.00936" lon="7.56131">
        <ele>35.214633</ele>
        <time>2020-07-17T02:46:46.839Z</time>
      </trkpt>
      <trkpt lat="63.00933" lon="7.56147">
        <ele>34.744122</ele>
        <time>2020-07-17T02:46:47.796Z</time>
      </trkpt>
      <trkpt lat="63.00931" lon="7.56162">
        <ele>34.266779</ele>
        <time>2020-07-17T02:46:48.712Z</time>
      </trkpt>
      <trkpt lat="63.00929" lon="7.56184">
        <ele>33.604472</ele>
        <time>2020-07-17T02:46:50.020Z</time>
      </trkpt>
      <trkpt lat="63.00927" lon="7.56213">
        <ele>32.749659</ele>
        <time>2020-07-17T02:46:51.802Z</time>
      </trkpt>
      <trkpt lat="63.00926" lon="7.56255">
        <ele>31.511926</ele>
        <time>2020-07-17T02:46:54.114Z</time>
      </trkpt>
      <trkpt lat="63.00926" lon="7.56298">
        <ele>30.276547</ele>
        <time>2020-07-17T02:46:56.397Z</time>
      </trkpt>
      <trkpt lat="63.00926" lon="7.56567">
        <ele>20.137808</ele>
        <time>2020-07-17T02:47:10.136Z</time>
      </trkpt>
      <trkpt lat="63.00926" lon="7.56584">
        <ele>19.378807</ele>
        <time>2020-07-17T02:47:11.014Z</time>
      </trkpt>
      <trkpt lat="63.00926" lon="7.56651">
        <ele>16.507841</ele>
        <time>2020-07-17T02:47:14.464Z</time>
      </trkpt>
      <trkpt lat="63.00925" lon="7.56671">
        <ele>15.644605</ele>
        <time>2020-07-17T02:47:15.436Z</time>
      </trkpt>
      <trkpt lat="63.00926" lon="7.56704">
        <ele>14.183069</ele>
        <time>2020-07-17T02:47:17.136Z</time>
      </trkpt>
      <trkpt lat="63.00926" lon="7.56779">
        <ele>10.947812</ele>
        <time>2020-07-17T02:47:20.937Z</time>
      </trkpt>
      <trkpt lat="63.00926" lon="7.56823">
        <ele>9.876968</ele>
        <time>2020-07-17T02:47:23.312Z</time>
      </trkpt>
      <trkpt lat="63.00926" lon="7.56872">
        <ele>9.842634</ele>
        <time>2020-07-17T02:47:26.166Z</time>
      </trkpt>
      <trkpt lat="63.00921" lon="7.57023">
        <ele>9.736719</ele>
        <time>2020-07-17T02:47:36.385Z</time>
      </trkpt>
      <trkpt lat="63.00903" lon="7.57163">
        <ele>9.63455</ele>
        <time>2020-07-17T02:47:56.495Z</time>
      </trkpt>
      <trkpt lat="63.00898" lon="7.57191">
        <ele>9.613621</ele>
        <time>2020-07-17T02:48:02.219Z</time>
      </trkpt>
      <trkpt lat="63.00874" lon="7.57321">
        <ele>13.023777</ele>
        <time>2020-07-17T02:48:26.272Z</time>
      </trkpt>
      <trkpt lat="63.00862" lon="7.57396">
        <ele>14.946839</ele>
        <time>2020-07-17T02:48:39.759Z</time>
      </trkpt>
      <trkpt lat="63.00856" lon="7.57488">
        <ele>17.213254</ele>
        <time>2020-07-17T02:48:55.419Z</time>
      </trkpt>
      <trkpt lat="63.00856" lon="7.57497">
        <ele>17.422735</ele>
        <time>2020-07-17T02:48:57.627Z</time>
      </trkpt>
      <trkpt lat="63.00856" lon="7.57518">
        <ele>17.941424</ele>
        <time>2020-07-17T02:49:00.630Z</time>
      </trkpt>
      <trkpt lat="63.00856" lon="7.5753">
        <ele>18.238692</ele>
        <time>2020-07-17T02:49:02.435Z</time>
      </trkpt>
      <trkpt lat="63.00857" lon="7.57549">
        <ele>18.704061</ele>
        <time>2020-07-17T02:49:05.292Z</time>
      </trkpt>
      <trkpt lat="63.00865" lon="7.57659">
        <ele>20.500451</ele>
        <time>2020-07-17T02:49:21.636Z</time>
      </trkpt>
      <trkpt lat="63.00899" lon="7.57902">
        <ele>24.033078</ele>
        <time>2020-07-17T02:49:52.733Z</time>
      </trkpt>
      <trkpt lat="63.00909" lon="7.57966">
        <ele>24.965651</ele>
        <time>2020-07-17T02:50:00.493Z</time>
      </trkpt>
      <trkpt lat="63.00919" lon="7.58025">
        <ele>25.82809</ele>
        <time>2020-07-17T02:50:07.924Z</time>
      </trkpt>
      <trkpt lat="63.00927" lon="7.58066">
        <ele>26.437474</ele>
        <time>2020-07-17T02:50:12.769Z</time>
      </trkpt>
      <trkpt lat="63.00935" lon="7.58098">
        <ele>26.925867</ele>
        <time>2020-07-17T02:50:17.505Z</time>
      </trkpt>
      <trkpt lat="63.00947" lon="7.58146">
        <ele>27.670271</ele>
        <time>2020-07-17T02:50:23.599Z</time>
      </trkpt>
      <trkpt lat="63.00952" lon="7.58163">
        <ele>27.957986</ele>
        <time>2020-07-17T02:50:27.677Z</time>
      </trkpt>
      <trkpt lat="63.01005" lon="7.58297">
        <ele>30.244827</ele>
        <time>2020-07-17T02:50:51.732Z</time>
      </trkpt>
      <trkpt lat="63.01046" lon="7.58372">
        <ele>30.913479</ele>
        <time>2020-07-17T02:51:06.398Z</time>
      </trkpt>
      <trkpt lat="63.01058" lon="7.58386">
        <ele>31.085622</ele>
        <time>2020-07-17T02:51:11.592Z</time>
      </trkpt>
      <trkpt lat="63.01081" lon="7.58412">
        <ele>31.418142</ele>
        <time>2020-07-17T02:51:17.676Z</time>
      </trkpt>
      <trkpt lat="63.01084" lon="7.58404">
        <ele>31.478031</ele>
        <time>2020-07-17T02:51:18.908Z</time>
      </trkpt>
      <trkpt lat="63.01087" lon="7.58407">
        <ele>31.517768</ele>
        <time>2020-07-17T02:51:19.908Z</time>
      </trkpt>
      <trkpt lat="63.01117" lon="7.58453">
        <ele>31.980994</ele>
        <time>2020-07-17T02:51:26.607Z</time>
      </trkpt>
      <trkpt lat="63.01142" lon="7.5852">
        <ele>32.279484</ele>
        <time>2020-07-17T02:51:32.857Z</time>
      </trkpt>
      <trkpt lat="63.01165" lon="7.58591">
        <ele>30.642357</ele>
        <time>2020-07-17T02:51:38.577Z</time>
      </trkpt>
      <trkpt lat="63.01161" lon="7.58595">
        <ele>30.467726</ele>
        <time>2020-07-17T02:51:39.391Z</time>
      </trkpt>
      <trkpt lat="63.01198" lon="7.58702">
        <ele>27.947139</ele>
        <time>2020-07-17T02:51:47.018Z</time>
      </trkpt>
      <trkpt lat="63.01261" lon="7.58855">
        <ele>24.308952</ele>
        <time>2020-07-17T02:51:58.862Z</time>
      </trkpt>
      <trkpt lat="63.01276" lon="7.58887">
        <ele>23.667676</ele>
        <time>2020-07-17T02:52:01.476Z</time>
      </trkpt>
      <trkpt lat="63.01296" lon="7.58931">
        <ele>22.801397</ele>
        <time>2020-07-17T02:52:05.260Z</time>
      </trkpt>
      <trkpt lat="63.01336" lon="7.59011">
        <ele>21.15635</ele>
        <time>2020-07-17T02:52:12.992Z</time>
      </trkpt>
      <trkpt lat="63.01373" lon="7.5906">
        <ele>19.832363</ele>
        <time>2020-07-17T02:52:19.494Z</time>
      </trkpt>
      <trkpt lat="63.01401" lon="7.59077">
        <ele>19.337985</ele>
        <time>2020-07-17T02:52:23.998Z</time>
      </trkpt>
      <trkpt lat="63.01445" lon="7.59071">
        <ele>18.971569</ele>
        <time>2020-07-17T02:52:31.730Z</time>
      </trkpt>
      <trkpt lat="63.01456" lon="7.59064">
        <ele>18.880436</ele>
        <time>2020-07-17T02:52:33.609Z</time>
      </trkpt>
      <trkpt lat="63.01464" lon="7.59057">
        <ele>18.805514</ele>
        <time>2020-07-17T02:52:35.216Z</time>
      </trkpt>
      <trkpt lat="63.01561" lon="7.58966">
        <ele>17.905099</ele>
        <time>2020-07-17T02:52:52.903Z</time>
      </trkpt>
      <trkpt lat="63.01685" lon="7.58913">
        <ele>16.427351</ele>
        <time>2020-07-17T02:53:13.122Z</time>
      </trkpt>
      <trkpt lat="63.01723" lon="7.58889">
        <ele>15.971493</ele>
        <time>2020-07-17T02:53:19.150Z</time>
      </trkpt>
      <trkpt lat="63.01748" lon="7.58871">
        <ele>15.59015</ele>
        <time>2020-07-17T02:53:23.263Z</time>
      </trkpt>
      <trkpt lat="63.01914" lon="7.58769">
        <ele>13.104327</ele>
        <time>2020-07-17T02:53:49.378Z</time>
      </trkpt>
      <trkpt lat="63.01932" lon="7.5877">
        <ele>13.128825</ele>
        <time>2020-07-17T02:53:52.269Z</time>
      </trkpt>
      <trkpt lat="63.01957" lon="7.58789">
        <ele>13.165778</ele>
        <time>2020-07-17T02:53:56.771Z</time>
      </trkpt>
      <trkpt lat="63.01984" lon="7.58837">
        <ele>13.214089</ele>
        <time>2020-07-17T02:54:03.090Z</time>
      </trkpt>
      <trkpt lat="63.01999" lon="7.58882">
        <ele>13.2491</ele>
        <time>2020-07-17T02:54:07.921Z</time>
      </trkpt>
      <trkpt lat="63.02019" lon="7.58949">
        <ele>13.300682</ele>
        <time>2020-07-17T02:54:15.776Z</time>
      </trkpt>
      <trkpt lat="63.02073" lon="7.5915">
        <ele>14.814441</ele>
        <time>2020-07-17T02:54:41.805Z</time>
      </trkpt>
      <trkpt lat="63.02165" lon="7.59628">
        <ele>18.29643</ele>
        <time>2020-07-17T02:55:40.647Z</time>
      </trkpt>
      <trkpt lat="63.02192" lon="7.59704">
        <ele>18.807042</ele>
        <time>2020-07-17T02:55:48.364Z</time>
      </trkpt>
      <trkpt lat="63.02224" lon="7.59757">
        <ele>18.303876</ele>
        <time>2020-07-17T02:55:54.776Z</time>
      </trkpt>
      <trkpt lat="63.02236" lon="7.59771">
        <ele>18.111143</ele>
        <time>2020-07-17T02:55:56.885Z</time>
      </trkpt>
      <trkpt lat="63.02241" lon="7.59776">
        <ele>18.040001</ele>
        <time>2020-07-17T02:55:57.527Z</time>
      </trkpt>
      <trkpt lat="63.02288" lon="7.59801">
        <ele>17.381762</ele>
        <time>2020-07-17T02:56:04.846Z</time>
      </trkpt>
      <trkpt lat="63.02357" lon="7.59799">
        <ele>16.423222</ele>
        <time>2020-07-17T02:56:15.303Z</time>
      </trkpt>
      <trkpt lat="63.02386" lon="7.59789">
        <ele>16.421199</ele>
        <time>2020-07-17T02:56:19.651Z</time>
      </trkpt>
      <trkpt lat="63.02522" lon="7.59743">
        <ele>16.776775</ele>
        <time>2020-07-17T02:56:46.997Z</time>
      </trkpt>
      <trkpt lat="63.02604" lon="7.59715">
        <ele>18.757802</ele>
        <time>2020-07-17T02:57:07.982Z</time>
      </trkpt>
      <trkpt lat="63.02675" lon="7.59692">
        <ele>20.893508</ele>
        <time>2020-07-17T02:57:28.633Z</time>
      </trkpt>
      <trkpt lat="63.02702" lon="7.59682">
        <ele>21.730505</ele>
        <time>2020-07-17T02:57:37.220Z</time>
      </trkpt>
      <trkpt lat="63.02711" lon="7.59678">
        <ele>21.988996</ele>
        <time>2020-07-17T02:57:39.866Z</time>
      </trkpt>
      <trkpt lat="63.0274" lon="7.59669">
        <ele>23.181871</ele>
        <time>2020-07-17T02:57:49.454Z</time>
      </trkpt>
      <trkpt lat="63.02777" lon="7.59658">
        <ele>24.878837</ele>
        <time>2020-07-17T02:58:03.047Z</time>
      </trkpt>
      <trkpt lat="63.02811" lon="7.59665">
        <ele>26.402258</ele>
        <time>2020-07-17T02:58:15.034Z</time>
      </trkpt>
      <trkpt lat="63.02841" lon="7.597">
        <ele>27.89033</ele>
        <time>2020-07-17T02:58:26.467Z</time>
      </trkpt>
      <trkpt lat="63.02863" lon="7.5975">
        <ele>29.294203</ele>
        <time>2020-07-17T02:58:37.300Z</time>
      </trkpt>
      <trkpt lat="63.02883" lon="7.59809">
        <ele>30.515789</ele>
        <time>2020-07-17T02:58:47.399Z</time>
      </trkpt>
      <trkpt lat="63.02886" lon="7.59816">
        <ele>30.616424</ele>
        <time>2020-07-17T02:58:48.313Z</time>
      </trkpt>
      <trkpt lat="63.02962" lon="7.60031">
        <ele>33.392329</ele>
        <time>2020-07-17T02:59:20.311Z</time>
      </trkpt>
      <trkpt lat="63.02971" lon="7.60054">
        <ele>33.703009</ele>
        <time>2020-07-17T02:59:23.682Z</time>
      </trkpt>
      <trkpt lat="63.02974" lon="7.60063">
        <ele>33.827099</ele>
        <time>2020-07-17T02:59:24.704Z</time>
      </trkpt>
      <trkpt lat="63.0299" lon="7.601">
        <ele>34.326638</ele>
        <time>2020-07-17T02:59:29.394Z</time>
      </trkpt>
      <trkpt lat="63.03014" lon="7.60143">
        <ele>34.936122</ele>
        <time>2020-07-17T02:59:36.094Z</time>
      </trkpt>
      <trkpt lat="63.03041" lon="7.60174">
        <ele>35.527531</ele>
        <time>2020-07-17T02:59:42.807Z</time>
      </trkpt>
      <trkpt lat="63.03062" lon="7.60193">
        <ele>35.970595</ele>
        <time>2020-07-17T02:59:48.046Z</time>
      </trkpt>
      <trkpt lat="63.031" lon="7.60227">
        <ele>36.780766</ele>
        <time>2020-07-17T02:59:58.907Z</time>
      </trkpt>
      <trkpt lat="63.03127" lon="7.60263">
        <ele>37.4006</ele>
        <time>2020-07-17T03:00:07.672Z</time>
      </trkpt>
      <trkpt lat="63.03152" lon="7.60334">
        <ele>38.113288</ele>
        <time>2020-07-17T03:00:19.216Z</time>
      </trkpt>
      <trkpt lat="63.03177" lon="7.60433">
        <ele>38.935872</ele>
        <time>2020-07-17T03:00:32.747Z</time>
      </trkpt>
      <trkpt lat="63.03186" lon="7.6047">
        <ele>39.242442</ele>
        <time>2020-07-17T03:00:37.747Z</time>
      </trkpt>
      <trkpt lat="63.03206" lon="7.60531">
        <ele>39.789442</ele>
        <time>2020-07-17T03:00:45.063Z</time>
      </trkpt>
      <trkpt lat="63.03206" lon="7.60532">
        <ele>39.802021</ele>
        <time>2020-07-17T03:00:45.575Z</time>
      </trkpt>
      <trkpt lat="63.03214" lon="7.60549">
        <ele>39.969075</ele>
        <time>2020-07-17T03:00:47.647Z</time>
      </trkpt>
      <trkpt lat="63.03252" lon="7.60615">
        <ele>40.643982</ele>
        <time>2020-07-17T03:00:57.787Z</time>
      </trkpt>
      <trkpt lat="63.03339" lon="7.60742">
        <ele>40.282993</ele>
        <time>2020-07-17T03:01:16.248Z</time>
      </trkpt>
      <trkpt lat="63.03344" lon="7.60751">
        <ele>40.259633</ele>
        <time>2020-07-17T03:01:17.363Z</time>
      </trkpt>
      <trkpt lat="63.03364" lon="7.6078">
        <ele>40.176322</ele>
        <time>2020-07-17T03:01:21.225Z</time>
      </trkpt>
      <trkpt lat="63.03373" lon="7.60794">
        <ele>40.137003</ele>
        <time>2020-07-17T03:01:23.093Z</time>
      </trkpt>
      <trkpt lat="63.03384" lon="7.6081">
        <ele>40.091124</ele>
        <time>2020-07-17T03:01:25.211Z</time>
      </trkpt>
      <trkpt lat="63.03423" lon="7.60855">
        <ele>39.892336</ele>
        <time>2020-07-17T03:01:32.389Z</time>
      </trkpt>
      <trkpt lat="63.03452" lon="7.60871">
        <ele>39.732864</ele>
        <time>2020-07-17T03:01:37.581Z</time>
      </trkpt>
      <trkpt lat="63.03472" lon="7.6087">
        <ele>39.629908</ele>
        <time>2020-07-17T03:01:41.028Z</time>
      </trkpt>
      <trkpt lat="63.03567" lon="7.60824">
        <ele>39.127432</ele>
        <time>2020-07-17T03:01:57.961Z</time>
      </trkpt>
      <trkpt lat="63.036" lon="7.60832">
        <ele>38.996883</ele>
        <time>2020-07-17T03:02:03.792Z</time>
      </trkpt>
      <trkpt lat="63.03627" lon="7.60851">
        <ele>38.892366</ele>
        <time>2020-07-17T03:02:08.717Z</time>
      </trkpt>
      <trkpt lat="63.03652" lon="7.60881">
        <ele>38.786321</ele>
        <time>2020-07-17T03:02:13.712Z</time>
      </trkpt>
      <trkpt lat="63.0367" lon="7.60915">
        <ele>38.69824</ele>
        <time>2020-07-17T03:02:17.851Z</time>
      </trkpt>
      <trkpt lat="63.03711" lon="7.61053">
        <ele>38.427355</ele>
        <time>2020-07-17T03:02:31.003Z</time>
      </trkpt>
      <trkpt lat="63.03737" lon="7.61099">
        <ele>38.36593</ele>
        <time>2020-07-17T03:02:36.880Z</time>
      </trkpt>
      <trkpt lat="63.03763" lon="7.6112">
        <ele>38.315031</ele>
        <time>2020-07-17T03:02:41.772Z</time>
      </trkpt>
      <trkpt lat="63.03809" lon="7.6113">
        <ele>38.229034</ele>
        <time>2020-07-17T03:02:50.165Z</time>
      </trkpt>
      <trkpt lat="63.03833" lon="7.61144">
        <ele>38.182874</ele>
        <time>2020-07-17T03:02:54.702Z</time>
      </trkpt>
      <trkpt lat="63.03902" lon="7.61227">
        <ele>38.133912</ele>
        <time>2020-07-17T03:03:09.214Z</time>
      </trkpt>
      <trkpt lat="63.03936" lon="7.61282">
        <ele>38.171144</ele>
        <time>2020-07-17T03:03:17.136Z</time>
      </trkpt>
      <trkpt lat="63.03956" lon="7.61326">
        <ele>38.195881</ele>
        <time>2020-07-17T03:03:22.449Z</time>
      </trkpt>
      <trkpt lat="63.03974" lon="7.61401">
        <ele>38.229441</ele>
        <time>2020-07-17T03:03:29.668Z</time>
      </trkpt>
      <trkpt lat="63.03994" lon="7.61555">
        <ele>38.663485</ele>
        <time>2020-07-17T03:03:43.387Z</time>
      </trkpt>
      <trkpt lat="63.0401" lon="7.61635">
        <ele>39.098927</ele>
        <time>2020-07-17T03:03:51.958Z</time>
      </trkpt>
      <trkpt lat="63.04058" lon="7.61762">
        <ele>39.919041</ele>
        <time>2020-07-17T03:04:09.159Z</time>
      </trkpt>
      <trkpt lat="63.04079" lon="7.61793">
        <ele>40.190438</ele>
        <time>2020-07-17T03:04:15.420Z</time>
      </trkpt>
      <trkpt lat="63.04084" lon="7.61797">
        <ele>40.265795</ele>
        <time>2020-07-17T03:04:16.668Z</time>
      </trkpt>
      <trkpt lat="63.04094" lon="7.61803">
        <ele>40.420218</ele>
        <time>2020-07-17T03:04:18.855Z</time>
      </trkpt>
      <trkpt lat="63.04111" lon="7.61813">
        <ele>40.707997</ele>
        <time>2020-07-17T03:04:23.749Z</time>
      </trkpt>
      <trkpt lat="63.04207" lon="7.61881">
        <ele>42.301734</ele>
        <time>2020-07-17T03:04:48.497Z</time>
      </trkpt>
      <trkpt lat="63.04228" lon="7.61883">
        <ele>42.641751</ele>
        <time>2020-07-17T03:04:53.503Z</time>
      </trkpt>
      <trkpt lat="63.04248" lon="7.61861">
        <ele>42.995395</ele>
        <time>2020-07-17T03:04:59.055Z</time>
      </trkpt>
      <trkpt lat="63.04277" lon="7.61769">
        <ele>42.816107</ele>
        <time>2020-07-17T03:05:08.791Z</time>
      </trkpt>
      <trkpt lat="63.04289" lon="7.61743">
        <ele>42.713895</ele>
        <time>2020-07-17T03:05:11.830Z</time>
      </trkpt>
      <trkpt lat="63.04339" lon="7.61694">
        <ele>42.392631</ele>
        <time>2020-07-17T03:05:20.787Z</time>
      </trkpt>
      <trkpt lat="63.04366" lon="7.6161">
        <ele>42.113533</ele>
        <time>2020-07-17T03:05:27.834Z</time>
      </trkpt>
      <trkpt lat="63.04377" lon="7.61591">
        <ele>42.028422</ele>
        <time>2020-07-17T03:05:30.110Z</time>
      </trkpt>
      <trkpt lat="63.04396" lon="7.61584">
        <ele>42.002374</ele>
        <time>2020-07-17T03:05:32.837Z</time>
      </trkpt>
      <trkpt lat="63.04415" lon="7.61595">
        <ele>41.987738</ele>
        <time>2020-07-17T03:05:36.096Z</time>
      </trkpt>
      <trkpt lat="63.04449" lon="7.61655">
        <ele>41.956387</ele>
        <time>2020-07-17T03:05:43.300Z</time>
      </trkpt>
      <trkpt lat="63.04455" lon="7.6167">
        <ele>41.949759</ele>
        <time>2020-07-17T03:05:44.663Z</time>
      </trkpt>
      <trkpt lat="63.04455" lon="7.61672">
        <ele>41.949242</ele>
        <time>2020-07-17T03:05:44.917Z</time>
      </trkpt>
      <trkpt lat="63.04503" lon="7.61805">
        <ele>41.892909</ele>
        <time>2020-07-17T03:06:00.418Z</time>
      </trkpt>
      <trkpt lat="63.04514" lon="7.61826">
        <ele>41.918151</ele>
        <time>2020-07-17T03:06:03.825Z</time>
      </trkpt>
      <trkpt lat="63.04525" lon="7.61843">
        <ele>42.234483</ele>
        <time>2020-07-17T03:06:07.156Z</time>
      </trkpt>
      <trkpt lat="63.04608" lon="7.61967">
        <ele>44.645859</ele>
        <time>2020-07-17T03:06:34.563Z</time>
      </trkpt>
      <trkpt lat="63.0462" lon="7.61983">
        <ele>44.997148</ele>
        <time>2020-07-17T03:06:39.506Z</time>
      </trkpt>
      <trkpt lat="63.0463" lon="7.61992">
        <ele>45.259788</ele>
        <time>2020-07-17T03:06:42.422Z</time>
      </trkpt>
      <trkpt lat="63.04645" lon="7.61997">
        <ele>45.614189</ele>
        <time>2020-07-17T03:06:46.471Z</time>
      </trkpt>
      <trkpt lat="63.04664" lon="7.61991">
        <ele>46.07495</ele>
        <time>2020-07-17T03:06:51.951Z</time>
      </trkpt>
      <trkpt lat="63.04707" lon="7.61919">
        <ele>45.863241</ele>
        <time>2020-07-17T03:07:04.621Z</time>
      </trkpt>
      <trkpt lat="63.04737" lon="7.61901">
        <ele>45.637693</ele>
        <time>2020-07-17T03:07:10.765Z</time>
      </trkpt>
      <trkpt lat="63.04749" lon="7.619">
        <ele>45.549753</ele>
        <time>2020-07-17T03:07:13.560Z</time>
      </trkpt>
      <trkpt lat="63.04751" lon="7.619">
        <ele>45.53583</ele>
        <time>2020-07-17T03:07:13.976Z</time>
      </trkpt>
      <trkpt lat="63.04818" lon="7.61905">
        <ele>45.04398</ele>
        <time>2020-07-17T03:07:23.740Z</time>
      </trkpt>
      <trkpt lat="63.04856" lon="7.61924">
        <ele>43.718061</ele>
        <time>2020-07-17T03:07:28.851Z</time>
      </trkpt>
      <trkpt lat="63.04867" lon="7.61947">
        <ele>42.766119</ele>
        <time>2020-07-17T03:07:30.775Z</time>
      </trkpt>
      <trkpt lat="63.04893" lon="7.6204">
        <ele>39.655724</ele>
        <time>2020-07-17T03:07:36.957Z</time>
      </trkpt>
      <trkpt lat="63.0491" lon="7.62073">
        <ele>38.271024</ele>
        <time>2020-07-17T03:07:39.636Z</time>
      </trkpt>
      <trkpt lat="63.04982" lon="7.6213">
        <ele>33.483975</ele>
        <time>2020-07-17T03:07:48.768Z</time>
      </trkpt>
      <trkpt lat="63.05013" lon="7.62184">
        <ele>30.993447</ele>
        <time>2020-07-17T03:07:53.431Z</time>
      </trkpt>
      <trkpt lat="63.05049" lon="7.62281">
        <ele>27.376949</ele>
        <time>2020-07-17T03:08:00.274Z</time>
      </trkpt>
      <trkpt lat="63.05102" lon="7.62323">
        <ele>23.787291</ele>
        <time>2020-07-17T03:08:07.288Z</time>
      </trkpt>
      <trkpt lat="63.05114" lon="7.62347">
        <ele>22.76581</ele>
        <time>2020-07-17T03:08:09.338Z</time>
      </trkpt>
      <trkpt lat="63.05135" lon="7.62432">
        <ele>21.417487</ele>
        <time>2020-07-17T03:08:15.029Z</time>
      </trkpt>
      <trkpt lat="63.05143" lon="7.6247">
        <ele>20.955761</ele>
        <time>2020-07-17T03:08:17.609Z</time>
      </trkpt>
      <trkpt lat="63.05144" lon="7.62477">
        <ele>20.872527</ele>
        <time>2020-07-17T03:08:18.090Z</time>
      </trkpt>
      <trkpt lat="63.05152" lon="7.62525">
        <ele>20.320448</ele>
        <time>2020-07-17T03:08:21.339Z</time>
      </trkpt>
      <trkpt lat="63.05154" lon="7.62547">
        <ele>20.077425</ele>
        <time>2020-07-17T03:08:22.782Z</time>
      </trkpt>
      <trkpt lat="63.05155" lon="7.62572">
        <ele>19.80664</ele>
        <time>2020-07-17T03:08:24.514Z</time>
      </trkpt>
      <trkpt lat="63.05152" lon="7.62652">
        <ele>18.925619</ele>
        <time>2020-07-17T03:08:30.196Z</time>
      </trkpt>
      <trkpt lat="63.05148" lon="7.62703">
        <ele>18.366208</ele>
        <time>2020-07-17T03:08:33.945Z</time>
      </trkpt>
      <trkpt lat="63.05146" lon="7.62727">
        <ele>18.102652</ele>
        <time>2020-07-17T03:08:36.012Z</time>
      </trkpt>
      <trkpt lat="63.05144" lon="7.62784">
        <ele>18.005856</ele>
        <time>2020-07-17T03:08:40.527Z</time>
      </trkpt>
      <trkpt lat="63.05145" lon="7.62818">
        <ele>18.042612</ele>
        <time>2020-07-17T03:08:43.596Z</time>
      </trkpt>
      <trkpt lat="63.05146" lon="7.62836">
        <ele>18.061771</ele>
        <time>2020-07-17T03:08:45.101Z</time>
      </trkpt>
      <trkpt lat="63.05147" lon="7.6286">
        <ele>18.088012</ele>
        <time>2020-07-17T03:08:47.224Z</time>
      </trkpt>
      <trkpt lat="63.05151" lon="7.62892">
        <ele>18.124035</ele>
        <time>2020-07-17T03:08:50.310Z</time>
      </trkpt>
      <trkpt lat="63.05164" lon="7.63004">
        <ele>18.248585</ele>
        <time>2020-07-17T03:09:00.600Z</time>
      </trkpt>
      <trkpt lat="63.05167" lon="7.63031">
        <ele>18.279523</ele>
        <time>2020-07-17T03:09:03.357Z</time>
      </trkpt>
      <trkpt lat="63.05175" lon="7.6309">
        <ele>18.34627</ele>
        <time>2020-07-17T03:09:08.967Z</time>
      </trkpt>
      <trkpt lat="63.05192" lon="7.6323">
        <ele>18.672454</ele>
        <time>2020-07-17T03:09:22.421Z</time>
      </trkpt>
      <trkpt lat="63.05196" lon="7.6326">
        <ele>18.75535</ele>
        <time>2020-07-17T03:09:25.313Z</time>
      </trkpt>
      <trkpt lat="63.05198" lon="7.63278">
        <ele>18.806487</ele>
        <time>2020-07-17T03:09:26.997Z</time>
      </trkpt>
      <trkpt lat="63.05201" lon="7.63294">
        <ele>18.851915</ele>
        <time>2020-07-17T03:09:28.506Z</time>
      </trkpt>
      <trkpt lat="63.05207" lon="7.63288">
        <ele>18.889399</ele>
        <time>2020-07-17T03:09:29.709Z</time>
      </trkpt>
      <trkpt lat="63.05208" lon="7.63296">
        <ele>18.911834</ele>
        <time>2020-07-17T03:09:30.472Z</time>
      </trkpt>
      <trkpt lat="63.05232" lon="7.63372">
        <ele>19.156882</ele>
        <time>2020-07-17T03:09:38.855Z</time>
      </trkpt>
      <trkpt lat="63.05248" lon="7.63393">
        <ele>19.269468</ele>
        <time>2020-07-17T03:09:42.819Z</time>
      </trkpt>
      <trkpt lat="63.05276" lon="7.63387">
        <ele>19.433786</ele>
        <time>2020-07-17T03:09:48.430Z</time>
      </trkpt>
      <trkpt lat="63.05319" lon="7.63347">
        <ele>20.138702</ele>
        <time>2020-07-17T03:09:58.810Z</time>
      </trkpt>
      <trkpt lat="63.05322" lon="7.63358">
        <ele>20.226836</ele>
        <time>2020-07-17T03:09:59.904Z</time>
      </trkpt>
      <trkpt lat="63.05331" lon="7.63348">
        <ele>20.374408</ele>
        <time>2020-07-17T03:10:01.772Z</time>
      </trkpt>
      <trkpt lat="63.05335" lon="7.63342">
        <ele>20.456637</ele>
        <time>2020-07-17T03:10:03.631Z</time>
      </trkpt>
      <trkpt lat="63.05339" lon="7.63337">
        <ele>20.519397</ele>
        <time>2020-07-17T03:10:04.786Z</time>
      </trkpt>
      <trkpt lat="63.05366" lon="7.6327">
        <ele>21.150981</ele>
        <time>2020-07-17T03:10:14.343Z</time>
      </trkpt>
      <trkpt lat="63.05386" lon="7.6315">
        <ele>22.04859</ele>
        <time>2020-07-17T03:10:27.514Z</time>
      </trkpt>
      <trkpt lat="63.05388" lon="7.63147">
        <ele>22.0839</ele>
        <time>2020-07-17T03:10:28.442Z</time>
      </trkpt>
      <trkpt lat="63.05391" lon="7.63145">
        <ele>22.126689</ele>
        <time>2020-07-17T03:10:29.405Z</time>
      </trkpt>
      <trkpt lat="63.05403" lon="7.63156">
        <ele>22.417542</ele>
        <time>2020-07-17T03:10:32.531Z</time>
      </trkpt>
      <trkpt lat="63.05415" lon="7.63209">
        <ele>23.224421</ele>
        <time>2020-07-17T03:10:40.559Z</time>
      </trkpt>
      <trkpt lat="63.05423" lon="7.63254">
        <ele>23.878153</ele>
        <time>2020-07-17T03:10:45.519Z</time>
      </trkpt>
      <trkpt lat="63.05427" lon="7.63271">
        <ele>24.135842</ele>
        <time>2020-07-17T03:10:48.826Z</time>
      </trkpt>
      <trkpt lat="63.05432" lon="7.63291">
        <ele>24.447266</ele>
        <time>2020-07-17T03:10:51.991Z</time>
      </trkpt>
      <trkpt lat="63.05455" lon="7.63351">
        <ele>25.509421</ele>
        <time>2020-07-17T03:11:02.346Z</time>
      </trkpt>
      <trkpt lat="63.05486" lon="7.63382">
        <ele>26.534988</ele>
        <time>2020-07-17T03:11:12.530Z</time>
      </trkpt>
      <trkpt lat="63.05496" lon="7.63385">
        <ele>26.829395</ele>
        <time>2020-07-17T03:11:15.159Z</time>
      </trkpt>
      <trkpt lat="63.05496" lon="7.63396">
        <ele>26.975639</ele>
        <time>2020-07-17T03:11:16.185Z</time>
      </trkpt>
      <trkpt lat="63.05496" lon="7.634">
        <ele>27.042002</ele>
        <time>2020-07-17T03:11:16.580Z</time>
      </trkpt>
      <trkpt lat="63.05501" lon="7.63401">
        <ele>27.197742</ele>
        <time>2020-07-17T03:11:17.877Z</time>
      </trkpt>
      <trkpt lat="63.0551" lon="7.63403">
        <ele>27.479463</ele>
        <time>2020-07-17T03:11:21.324Z</time>
      </trkpt>
      <trkpt lat="63.05545" lon="7.6341">
        <ele>28.875161</ele>
        <time>2020-07-17T03:11:30.897Z</time>
      </trkpt>
      <trkpt lat="63.05597" lon="7.63475">
        <ele>31.339474</ele>
        <time>2020-07-17T03:11:48.382Z</time>
      </trkpt>
      <trkpt lat="63.05615" lon="7.63521">
        <ele>32.506022</ele>
        <time>2020-07-17T03:11:58.829Z</time>
      </trkpt>
      <trkpt lat="63.0566" lon="7.6368">
        <ele>36.285386</ele>
        <time>2020-07-17T03:12:26.523Z</time>
      </trkpt>
      <trkpt lat="63.05665" lon="7.63693">
        <ele>36.70384</ele>
        <time>2020-07-17T03:12:28.928Z</time>
      </trkpt>
      <trkpt lat="63.05676" lon="7.63715">
        <ele>37.468673</ele>
        <time>2020-07-17T03:12:36.307Z</time>
      </trkpt>
      <trkpt lat="63.05706" lon="7.63762">
        <ele>39.386308</ele>
        <time>2020-07-17T03:12:49.927Z</time>
      </trkpt>
      <trkpt lat="63.05784" lon="7.63847">
        <ele>43.980155</ele>
        <time>2020-07-17T03:13:20.636Z</time>
      </trkpt>
      <trkpt lat="63.05794" lon="7.63859">
        <ele>44.562481</ele>
        <time>2020-07-17T03:13:25.378Z</time>
      </trkpt>
      <trkpt lat="63.05801" lon="7.63865">
        <ele>44.76789</ele>
        <time>2020-07-17T03:13:29.105Z</time>
      </trkpt>
      <trkpt lat="63.06033" lon="7.64013">
        <ele>49.821266</ele>
        <time>2020-07-17T03:14:31.961Z</time>
      </trkpt>
      <trkpt lat="63.06077" lon="7.6406">
        <ele>49.879428</ele>
        <time>2020-07-17T03:14:40.229Z</time>
      </trkpt>
      <trkpt lat="63.06172" lon="7.64191">
        <ele>48.455369</ele>
        <time>2020-07-17T03:14:57.066Z</time>
      </trkpt>
      <trkpt lat="63.06195" lon="7.64222">
        <ele>47.650224</ele>
        <time>2020-07-17T03:15:00.907Z</time>
      </trkpt>
      <trkpt lat="63.0621" lon="7.64238">
        <ele>47.173541</ele>
        <time>2020-07-17T03:15:03.175Z</time>
      </trkpt>
      <trkpt lat="63.06248" lon="7.64269">
        <ele>45.969109</ele>
        <time>2020-07-17T03:15:08.699Z</time>
      </trkpt>
      <trkpt lat="63.06317" lon="7.64287">
        <ele>43.718395</ele>
        <time>2020-07-17T03:15:17.894Z</time>
      </trkpt>
      <trkpt lat="63.06323" lon="7.64289">
        <ele>43.483538</ele>
        <time>2020-07-17T03:15:18.643Z</time>
      </trkpt>
      <trkpt lat="63.06326" lon="7.6429">
        <ele>43.362805</ele>
        <time>2020-07-17T03:15:19.045Z</time>
      </trkpt>
      <trkpt lat="63.06343" lon="7.64296">
        <ele>42.712996</ele>
        <time>2020-07-17T03:15:21.305Z</time>
      </trkpt>
      <trkpt lat="63.06348" lon="7.64296">
        <ele>42.515787</ele>
        <time>2020-07-17T03:15:21.981Z</time>
      </trkpt>
      <trkpt lat="63.06353" lon="7.64296">
        <ele>42.295577</ele>
        <time>2020-07-17T03:15:22.747Z</time>
      </trkpt>
      <trkpt lat="63.06359" lon="7.64295">
        <ele>42.070466</ele>
        <time>2020-07-17T03:15:23.473Z</time>
      </trkpt>
      <trkpt lat="63.0637" lon="7.64292">
        <ele>41.666695</ele>
        <time>2020-07-17T03:15:24.840Z</time>
      </trkpt>
      <trkpt lat="63.06467" lon="7.64311">
        <ele>37.883215</ele>
        <time>2020-07-17T03:15:37.826Z</time>
      </trkpt>
      <trkpt lat="63.06634" lon="7.64422">
        <ele>32.303986</ele>
        <time>2020-07-17T03:16:01.709Z</time>
      </trkpt>
      <trkpt lat="63.06663" lon="7.64446">
        <ele>31.465957</ele>
        <time>2020-07-17T03:16:06.118Z</time>
      </trkpt>
      <trkpt lat="63.0667" lon="7.64451">
        <ele>31.288616</ele>
        <time>2020-07-17T03:16:07.176Z</time>
      </trkpt>
      <trkpt lat="63.06752" lon="7.64502">
        <ele>29.192062</ele>
        <time>2020-07-17T03:16:19.425Z</time>
      </trkpt>
      <trkpt lat="63.06758" lon="7.64507">
        <ele>29.017083</ele>
        <time>2020-07-17T03:16:20.482Z</time>
      </trkpt>
      <trkpt lat="63.06766" lon="7.64512">
        <ele>28.824257</ele>
        <time>2020-07-17T03:16:21.529Z</time>
      </trkpt>
      <trkpt lat="63.06896" lon="7.646">
        <ele>25.447085</ele>
        <time>2020-07-17T03:16:41.151Z</time>
      </trkpt>
      <trkpt lat="63.06949" lon="7.64622">
        <ele>24.106715</ele>
        <time>2020-07-17T03:16:48.629Z</time>
      </trkpt>
      <trkpt lat="63.06997" lon="7.64618">
        <ele>22.961007</ele>
        <time>2020-07-17T03:16:55.486Z</time>
      </trkpt>
      <trkpt lat="63.07061" lon="7.64578">
        <ele>21.909027</ele>
        <time>2020-07-17T03:17:05.436Z</time>
      </trkpt>
      <trkpt lat="63.07063" lon="7.64575">
        <ele>21.862504</ele>
        <time>2020-07-17T03:17:05.803Z</time>
      </trkpt>
      <trkpt lat="63.0709" lon="7.64543">
        <ele>21.385305</ele>
        <time>2020-07-17T03:17:10.565Z</time>
      </trkpt>
      <trkpt lat="63.0719" lon="7.64423">
        <ele>19.923034</ele>
        <time>2020-07-17T03:17:28.791Z</time>
      </trkpt>
      <trkpt lat="63.07222" lon="7.64413">
        <ele>19.69143</ele>
        <time>2020-07-17T03:17:34.362Z</time>
      </trkpt>
      <trkpt lat="63.07242" lon="7.64423">
        <ele>19.536642</ele>
        <time>2020-07-17T03:17:38.075Z</time>
      </trkpt>
      <trkpt lat="63.07273" lon="7.64469">
        <ele>19.269165</ele>
        <time>2020-07-17T03:17:44.411Z</time>
      </trkpt>
      <trkpt lat="63.07344" lon="7.64675">
        <ele>18.572612</ele>
        <time>2020-07-17T03:18:03.925Z</time>
      </trkpt>
      <trkpt lat="63.07371" lon="7.64734">
        <ele>18.385131</ele>
        <time>2020-07-17T03:18:10.335Z</time>
      </trkpt>
      <trkpt lat="63.07374" lon="7.64727">
        <ele>18.360974</ele>
        <time>2020-07-17T03:18:11.002Z</time>
      </trkpt>
      <trkpt lat="63.07384" lon="7.64749">
        <ele>18.293859</ele>
        <time>2020-07-17T03:18:13.707Z</time>
      </trkpt>
      <trkpt lat="63.07386" lon="7.64743">
        <ele>18.277136</ele>
        <time>2020-07-17T03:18:14.235Z</time>
      </trkpt>
      <trkpt lat="63.07392" lon="7.6473">
        <ele>18.233864</ele>
        <time>2020-07-17T03:18:15.760Z</time>
      </trkpt>
      <trkpt lat="63.07394" lon="7.64735">
        <ele>18.217167</ele>
        <time>2020-07-17T03:18:16.584Z</time>
      </trkpt>
      <trkpt lat="63.07409" lon="7.64785">
        <ele>18.083363</ele>
        <time>2020-07-17T03:18:21.350Z</time>
      </trkpt>
      <trkpt lat="63.07474" lon="7.64928">
        <ele>18.411411</ele>
        <time>2020-07-17T03:18:38.823Z</time>
      </trkpt>
      <trkpt lat="63.07489" lon="7.64963">
        <ele>18.522618</ele>
        <time>2020-07-17T03:18:43.393Z</time>
      </trkpt>
      <trkpt lat="63.07514" lon="7.65018">
        <ele>18.699987</ele>
        <time>2020-07-17T03:18:51.081Z</time>
      </trkpt>
      <trkpt lat="63.07642" lon="7.65302">
        <ele>19.872613</ele>
        <time>2020-07-17T03:19:29.358Z</time>
      </trkpt>
      <trkpt lat="63.07737" lon="7.65427">
        <ele>20.436509</ele>
        <time>2020-07-17T03:19:51.608Z</time>
      </trkpt>
      <trkpt lat="63.07775" lon="7.65491">
        <ele>20.621587</ele>
        <time>2020-07-17T03:20:00.792Z</time>
      </trkpt>
      <trkpt lat="63.0778" lon="7.65507">
        <ele>20.657423</ele>
        <time>2020-07-17T03:20:02.591Z</time>
      </trkpt>
      <trkpt lat="63.07786" lon="7.65527">
        <ele>20.700328</ele>
        <time>2020-07-17T03:20:04.760Z</time>
      </trkpt>
      <trkpt lat="63.07793" lon="7.65552">
        <ele>20.750386</ele>
        <time>2020-07-17T03:20:07.190Z</time>
      </trkpt>
      <trkpt lat="63.07806" lon="7.65627">
        <ele>20.924623</ele>
        <time>2020-07-17T03:20:14.342Z</time>
      </trkpt>
      <trkpt lat="63.07825" lon="7.65702">
        <ele>21.322603</ele>
        <time>2020-07-17T03:20:21.957Z</time>
      </trkpt>
      <trkpt lat="63.07832" lon="7.65721">
        <ele>21.435475</ele>
        <time>2020-07-17T03:20:24.601Z</time>
      </trkpt>
      <trkpt lat="63.07835" lon="7.65726">
        <ele>21.470803</ele>
        <time>2020-07-17T03:20:25.389Z</time>
      </trkpt>
      <trkpt lat="63.07864" lon="7.65772">
        <ele>21.839759</ele>
        <time>2020-07-17T03:20:33.057Z</time>
      </trkpt>
      <trkpt lat="63.07882" lon="7.65788">
        <ele>22.039252</ele>
        <time>2020-07-17T03:20:36.903Z</time>
      </trkpt>
      <trkpt lat="63.07919" lon="7.65819">
        <ele>22.443975</ele>
        <time>2020-07-17T03:20:45.914Z</time>
      </trkpt>
      <trkpt lat="63.07925" lon="7.65824">
        <ele>22.501724</ele>
        <time>2020-07-17T03:20:47.390Z</time>
      </trkpt>
      <trkpt lat="63.07957" lon="7.65852">
        <ele>22.979115</ele>
        <time>2020-07-17T03:20:55.671Z</time>
      </trkpt>
      <trkpt lat="63.0796" lon="7.65855">
        <ele>23.031956</ele>
        <time>2020-07-17T03:20:56.815Z</time>
      </trkpt>
      <trkpt lat="63.08017" lon="7.6591">
        <ele>24.201078</ele>
        <time>2020-07-17T03:21:12.423Z</time>
      </trkpt>
      <trkpt lat="63.08058" lon="7.65949">
        <ele>25.041271</ele>
        <time>2020-07-17T03:21:24.626Z</time>
      </trkpt>
      <trkpt lat="63.08149" lon="7.66037">
        <ele>26.165653</ele>
        <time>2020-07-17T03:21:47.664Z</time>
      </trkpt>
      <trkpt lat="63.08176" lon="7.66047">
        <ele>26.215664</ele>
        <time>2020-07-17T03:21:52.807Z</time>
      </trkpt>
      <trkpt lat="63.0818" lon="7.66049">
        <ele>26.222661</ele>
        <time>2020-07-17T03:21:54.062Z</time>
      </trkpt>
      <trkpt lat="63.08178" lon="7.66054">
        <ele>26.228096</ele>
        <time>2020-07-17T03:21:54.538Z</time>
      </trkpt>
      <trkpt lat="63.08182" lon="7.66054">
        <ele>26.234777</ele>
        <time>2020-07-17T03:21:55.341Z</time>
      </trkpt>
      <trkpt lat="63.08226" lon="7.66093">
        <ele>26.321752</ele>
        <time>2020-07-17T03:22:06.234Z</time>
      </trkpt>
      <trkpt lat="63.08227" lon="7.66097">
        <ele>26.326097</ele>
        <time>2020-07-17T03:22:06.670Z</time>
      </trkpt>
      <trkpt lat="63.08233" lon="7.66104">
        <ele>26.339074</ele>
        <time>2020-07-17T03:22:07.658Z</time>
      </trkpt>
      <trkpt lat="63.08284" lon="7.66164">
        <ele>26.417348</ele>
        <time>2020-07-17T03:22:17.516Z</time>
      </trkpt>
      <trkpt lat="63.08318" lon="7.6619">
        <ele>26.417348</ele>
        <time>2020-07-17T03:22:23.306Z</time>
      </trkpt>
      <trkpt lat="63.08361" lon="7.66186">
        <ele>26.417348</ele>
        <time>2020-07-17T03:22:29.890Z</time>
      </trkpt>
      <trkpt lat="63.08414" lon="7.66163">
        <ele>26.417348</ele>
        <time>2020-07-17T03:22:38.706Z</time>
      </trkpt>
      <trkpt lat="63.08416" lon="7.66162">
        <ele>26.417348</ele>
        <time>2020-07-17T03:22:39.070Z</time>
      </trkpt>
    </trkseg>
  </trk>
</gpx>